<?xml version='1.0' encoding='UTF-8'?><gpx version="1.1" creator="JPX - https://github.com/jenetics/jpx" xmlns="http://www.topografix.com/GPX/1/1"><trk><trkseg><trkpt lat="44.479642210282535" lon="7.873117528433298"><ele>363.0</ele><time>2026-04-03T07:15:48Z</time></trkpt><trkpt lat="44.47968750644811" lon="7.8730061920663745"><ele>363.0</ele><time>2026-04-03T07:18:19.017Z</time></trkpt><trkpt lat="44.47963803248275" lon="7.87288992323595"><ele>363.0</ele><time>2026-04-03T07:18:22.648Z</time></trkpt><trkpt lat="44.479548409898044" lon="7.872691558738036"><ele>363.0</ele><time>2026-04-03T07:18:24.268Z</time></trkpt><trkpt lat="44.47960088871498" lon="7.872609470530277"><ele>363.0</ele><time>2026-04-03T07:18:50Z</time></trkpt><trkpt lat="44.47966884209326" lon="7.872619850254109"><ele>363.0</ele><time>2026-04-03T07:18:52Z</time></trkpt><trkpt lat="44.47973176766016" lon="7.8726060170409236"><ele>363.0</ele><time>2026-04-03T07:18:53Z</time></trkpt><trkpt lat="44.47986426578074" lon="7.872573630869052"><ele>363.0</ele><time>2026-04-03T07:18:55Z</time></trkpt><trkpt lat="44.479928974480394" lon="7.872565020836206"><ele>363.0</ele><time>2026-04-03T07:18:57Z</time></trkpt><trkpt lat="44.48015469144621" lon="7.872521692412136"><ele>363.0</ele><time>2026-04-03T07:18:58Z</time></trkpt><trkpt lat="44.480223833077694" lon="7.872499257167635"><ele>363.0</ele><time>2026-04-03T07:18:59Z</time></trkpt><trkpt lat="44.48029581889676" lon="7.872475457445888"><ele>363.0</ele><time>2026-04-03T07:19:00Z</time></trkpt><trkpt lat="44.480379234595766" lon="7.8724451451069495"><ele>363.0</ele><time>2026-04-03T07:19:01Z</time></trkpt><trkpt lat="44.48045925592698" lon="7.872410064475995"><ele>363.0</ele><time>2026-04-03T07:19:02Z</time></trkpt><trkpt lat="44.48052364891028" lon="7.872369035053455"><ele>363.0</ele><time>2026-04-03T07:19:03Z</time></trkpt><trkpt lat="44.4805893525468" lon="7.8723342421628955"><ele>363.0</ele><time>2026-04-03T07:19:04Z</time></trkpt><trkpt lat="44.480700695984844" lon="7.872278141140594"><ele>363.0</ele><time>2026-04-03T07:19:06Z</time></trkpt><trkpt lat="44.48077907419826" lon="7.872223002080941"><ele>363.0</ele><time>2026-04-03T07:19:08Z</time></trkpt><trkpt lat="44.48081806727845" lon="7.872140450746456"><ele>363.0</ele><time>2026-04-03T07:19:09Z</time></trkpt><trkpt lat="44.48085197508854" lon="7.871999129739167"><ele>363.0</ele><time>2026-04-03T07:19:11Z</time></trkpt><trkpt lat="44.48072947401271" lon="7.871866740984886"><ele>363.0</ele><time>2026-04-03T07:19:12Z</time></trkpt><trkpt lat="44.48068461317541" lon="7.87177491079718"><ele>363.0</ele><time>2026-04-03T07:19:13Z</time></trkpt><trkpt lat="44.48064592336479" lon="7.871670301588474"><ele>363.0</ele><time>2026-04-03T07:19:14Z</time></trkpt><trkpt lat="44.480612663559334" lon="7.871554393695718"><ele>363.0</ele><time>2026-04-03T07:19:15Z</time></trkpt><trkpt lat="44.480562641504285" lon="7.871471420895155"><ele>363.0</ele><time>2026-04-03T07:19:16Z</time></trkpt><trkpt lat="44.48051252820772" lon="7.871372155331965"><ele>363.0</ele><time>2026-04-03T07:19:17Z</time></trkpt><trkpt lat="44.480456211089944" lon="7.871282587444103"><ele>363.0</ele><time>2026-04-03T07:19:18Z</time></trkpt><trkpt lat="44.48039609769332" lon="7.871198525813915"><ele>363.0</ele><time>2026-04-03T07:19:19Z</time></trkpt><trkpt lat="44.48031674502945" lon="7.871107968028158"><ele>363.0</ele><time>2026-04-03T07:19:20Z</time></trkpt><trkpt lat="44.480247883652474" lon="7.871024577136532"><ele>363.0</ele><time>2026-04-03T07:19:21Z</time></trkpt><trkpt lat="44.48017826734187" lon="7.870953030043233"><ele>363.0</ele><time>2026-04-03T07:19:22Z</time></trkpt><trkpt lat="44.48010175766286" lon="7.87087947678013"><ele>363.0</ele><time>2026-04-03T07:19:23Z</time></trkpt><trkpt lat="44.48003505228586" lon="7.8707928507749765"><ele>363.0</ele><time>2026-04-03T07:19:24Z</time></trkpt><trkpt lat="44.479956719859" lon="7.870735017531055"><ele>363.0</ele><time>2026-04-03T07:19:25Z</time></trkpt><trkpt lat="44.479896396021644" lon="7.8706715235853615"><ele>363.0</ele><time>2026-04-03T07:19:26.999Z</time></trkpt><trkpt lat="44.479984234730196" lon="7.870451914006234"><ele>363.0</ele><time>2026-04-03T07:19:31.999Z</time></trkpt><trkpt lat="44.48001839476359" lon="7.870374092807689"><ele>363.0</ele><time>2026-04-03T07:19:32.999Z</time></trkpt><trkpt lat="44.48007200095587" lon="7.870298803296321"><ele>363.0</ele><time>2026-04-03T07:19:33.999Z</time></trkpt><trkpt lat="44.48012882613968" lon="7.870220060868832"><ele>363.0</ele><time>2026-04-03T07:19:34.999Z</time></trkpt><trkpt lat="44.48018813368815" lon="7.870144232754674"><ele>363.0</ele><time>2026-04-03T07:19:35.999Z</time></trkpt><trkpt lat="44.48028132603354" lon="7.870006144543903"><ele>363.0</ele><time>2026-04-03T07:19:37.999Z</time></trkpt><trkpt lat="44.48033846470751" lon="7.869932651332452"><ele>363.0</ele><time>2026-04-03T07:19:38.999Z</time></trkpt><trkpt lat="44.480389907799946" lon="7.869861469260816"><ele>363.2</ele><time>2026-04-03T07:19:39.999Z</time></trkpt><trkpt lat="44.48046720163604" lon="7.869735508905287"><ele>363.4</ele><time>2026-04-03T07:19:41.999Z</time></trkpt><trkpt lat="44.48055763824222" lon="7.869649080302794"><ele>363.59999999999997</ele><time>2026-04-03T07:19:43.999Z</time></trkpt><trkpt lat="44.480618014629094" lon="7.8696187002501485"><ele>363.79999999999995</ele><time>2026-04-03T07:19:45.999Z</time></trkpt><trkpt lat="44.480704710834345" lon="7.869696348762993"><ele>364.0</ele><time>2026-04-03T07:19:47.999Z</time></trkpt><trkpt lat="44.48075561990665" lon="7.869750258603132"><ele>364.0</ele><time>2026-04-03T07:19:48.999Z</time></trkpt><trkpt lat="44.480817281652364" lon="7.869821581971907"><ele>364.0</ele><time>2026-04-03T07:19:49.999Z</time></trkpt><trkpt lat="44.48087049839759" lon="7.86990358777576"><ele>364.0</ele><time>2026-04-03T07:19:50.999Z</time></trkpt><trkpt lat="44.48092926301618" lon="7.87000013469204"><ele>364.0</ele><time>2026-04-03T07:19:51.999Z</time></trkpt><trkpt lat="44.48099116728377" lon="7.870091386611655"><ele>364.0</ele><time>2026-04-03T07:19:52.999Z</time></trkpt><trkpt lat="44.48105622574277" lon="7.870209914515302"><ele>364.0</ele><time>2026-04-03T07:19:53.999Z</time></trkpt><trkpt lat="44.48111736439878" lon="7.870304069368492"><ele>363.8333333333333</ele><time>2026-04-03T07:19:54.999Z</time></trkpt><trkpt lat="44.481178774198895" lon="7.870405928742741"><ele>363.66666666666663</ele><time>2026-04-03T07:19:55.999Z</time></trkpt><trkpt lat="44.48121720821883" lon="7.870510676469866"><ele>363.5</ele><time>2026-04-03T07:19:56.999Z</time></trkpt><trkpt lat="44.481265239084635" lon="7.8705900176176655"><ele>363.3333333333333</ele><time>2026-04-03T07:19:57.999Z</time></trkpt><trkpt lat="44.48130144295875" lon="7.8706751822545575"><ele>363.1666666666667</ele><time>2026-04-03T07:19:58.999Z</time></trkpt><trkpt lat="44.48134487427162" lon="7.870823178342232"><ele>363.0</ele><time>2026-04-03T07:20:00.999Z</time></trkpt><trkpt lat="44.48130425441523" lon="7.870929610586661"><ele>363.0</ele><time>2026-04-03T07:20:02.999Z</time></trkpt><trkpt lat="44.48123434935886" lon="7.870958623699039"><ele>363.0</ele><time>2026-04-03T07:20:04.999Z</time></trkpt><trkpt lat="44.48117697860969" lon="7.871038021245478"><ele>363.0</ele><time>2026-04-03T07:20:07.999Z</time></trkpt><trkpt lat="44.48127921394709" lon="7.87118687140372"><ele>363.0</ele><time>2026-04-03T07:20:10.999Z</time></trkpt><trkpt lat="44.48121854777697" lon="7.871254554740253"><ele>363.0</ele><time>2026-04-03T07:21:28Z</time></trkpt><trkpt lat="44.48121688453371" lon="7.8713457307189945"><ele>363.0</ele><time>2026-04-03T07:21:39.999Z</time></trkpt><trkpt lat="44.4812900899298" lon="7.871358580745818"><ele>363.0</ele><time>2026-04-03T07:21:45.999Z</time></trkpt><trkpt lat="44.4812339920748" lon="7.871289329691192"><ele>363.0</ele><time>2026-04-03T07:22:15.999Z</time></trkpt><trkpt lat="44.481137289994244" lon="7.871286709004035"><ele>363.0</ele><time>2026-04-03T07:23:36Z</time></trkpt><trkpt lat="44.48121380848677" lon="7.871318920070556"><ele>363.0</ele><time>2026-04-03T07:23:42.999Z</time></trkpt><trkpt lat="44.48126836234044" lon="7.871365826889717"><ele>363.0</ele><time>2026-04-03T07:23:54.999Z</time></trkpt><trkpt lat="44.481343096156905" lon="7.87135587544384"><ele>363.0</ele><time>2026-04-03T07:24:08.999Z</time></trkpt><trkpt lat="44.48142573781441" lon="7.871275856555579"><ele>363.1666666666667</ele><time>2026-04-03T07:24:21.999Z</time></trkpt><trkpt lat="44.48134006974088" lon="7.871316358218341"><ele>363.3333333333333</ele><time>2026-04-03T07:24:42.998Z</time></trkpt><trkpt lat="44.48134597870086" lon="7.871417543759632"><ele>363.5</ele><time>2026-04-03T07:25:29Z</time></trkpt><trkpt lat="44.48140708241618" lon="7.871439948896634"><ele>363.66666666666663</ele><time>2026-04-03T07:25:51.999Z</time></trkpt><trkpt lat="44.481366110599154" lon="7.871562444260186"><ele>363.8333333333333</ele><time>2026-04-03T07:26:46.998Z</time></trkpt><trkpt lat="44.48140654192976" lon="7.87170502739084"><ele>364.0</ele><time>2026-04-03T07:26:49.998Z</time></trkpt><trkpt lat="44.48150975130712" lon="7.871743877708808"><ele>364.0</ele><time>2026-04-03T07:26:52.998Z</time></trkpt><trkpt lat="44.48160859869124" lon="7.871700297635795"><ele>364.0</ele><time>2026-04-03T07:26:54.998Z</time></trkpt><trkpt lat="44.48164436917273" lon="7.871626802198484"><ele>364.0</ele><time>2026-04-03T07:26:55.998Z</time></trkpt><trkpt lat="44.48166050573675" lon="7.871516629830248"><ele>364.0</ele><time>2026-04-03T07:26:57.998Z</time></trkpt><trkpt lat="44.481600054595305" lon="7.871406228456711"><ele>364.0</ele><time>2026-04-03T07:26:59.998Z</time></trkpt><trkpt lat="44.48161614206327" lon="7.8712992776244555"><ele>364.0</ele><time>2026-04-03T07:27:03.998Z</time></trkpt><trkpt lat="44.481689093247105" lon="7.871312615777508"><ele>364.0</ele><time>2026-04-03T07:27:18Z</time></trkpt><trkpt lat="44.481756321064054" lon="7.871368644109139"><ele>364.0</ele><time>2026-04-03T07:27:20Z</time></trkpt><trkpt lat="44.481793180992284" lon="7.871441583450331"><ele>364.0</ele><time>2026-04-03T07:27:21Z</time></trkpt><trkpt lat="44.481834667113716" lon="7.871508347343063"><ele>364.0</ele><time>2026-04-03T07:27:22Z</time></trkpt><trkpt lat="44.48187270688192" lon="7.871592522180033"><ele>364.0</ele><time>2026-04-03T07:27:23Z</time></trkpt><trkpt lat="44.481918816475876" lon="7.871679796018785"><ele>364.0</ele><time>2026-04-03T07:27:24Z</time></trkpt><trkpt lat="44.481978555120804" lon="7.871783828215443"><ele>364.0</ele><time>2026-04-03T07:27:25Z</time></trkpt><trkpt lat="44.48203803749968" lon="7.87189077757877"><ele>363.4</ele><time>2026-04-03T07:27:26Z</time></trkpt><trkpt lat="44.48210708751835" lon="7.87198266166138"><ele>362.79999999999995</ele><time>2026-04-03T07:27:27Z</time></trkpt><trkpt lat="44.4821755355676" lon="7.872095113250764"><ele>362.20000000000005</ele><time>2026-04-03T07:27:28Z</time></trkpt><trkpt lat="44.48225669301303" lon="7.872216752657589"><ele>361.6</ele><time>2026-04-03T07:27:29Z</time></trkpt><trkpt lat="44.48232660834833" lon="7.872348488425022"><ele>361.0</ele><time>2026-04-03T07:27:30Z</time></trkpt><trkpt lat="44.48239404907553" lon="7.872490618900978"><ele>360.75</ele><time>2026-04-03T07:27:31Z</time></trkpt><trkpt lat="44.482474726643005" lon="7.872622855829645"><ele>360.5</ele><time>2026-04-03T07:27:32Z</time></trkpt><trkpt lat="44.482549797618404" lon="7.872748955286289"><ele>360.25</ele><time>2026-04-03T07:27:33Z</time></trkpt><trkpt lat="44.482623781127636" lon="7.872893089961315"><ele>360.0</ele><time>2026-04-03T07:27:34Z</time></trkpt><trkpt lat="44.48270224819373" lon="7.8730364294636495"><ele>360.0</ele><time>2026-04-03T07:27:35Z</time></trkpt><trkpt lat="44.48278177057783" lon="7.8731646090277145"><ele>360.0</ele><time>2026-04-03T07:27:36Z</time></trkpt><trkpt lat="44.482864933738945" lon="7.8732994986573415"><ele>360.0</ele><time>2026-04-03T07:27:37Z</time></trkpt><trkpt lat="44.48294713046061" lon="7.873450092260802"><ele>360.0</ele><time>2026-04-03T07:27:38Z</time></trkpt><trkpt lat="44.483021266227176" lon="7.873597441579659"><ele>360.25</ele><time>2026-04-03T07:27:39Z</time></trkpt><trkpt lat="44.483107327640624" lon="7.873738787500367"><ele>360.5</ele><time>2026-04-03T07:27:40Z</time></trkpt><trkpt lat="44.48318572944759" lon="7.873903235855961"><ele>360.75</ele><time>2026-04-03T07:27:41Z</time></trkpt><trkpt lat="44.48327814059391" lon="7.874038803757964"><ele>361.0</ele><time>2026-04-03T07:27:42Z</time></trkpt><trkpt lat="44.48335620139858" lon="7.874184874617656"><ele>360.5</ele><time>2026-04-03T07:27:43Z</time></trkpt><trkpt lat="44.48343447806769" lon="7.874311479246622"><ele>360.0</ele><time>2026-04-03T07:27:44Z</time></trkpt><trkpt lat="44.483507750003994" lon="7.874445399447273"><ele>359.5</ele><time>2026-04-03T07:27:44.999Z</time></trkpt><trkpt lat="44.48357618544353" lon="7.874590230219051"><ele>359.0</ele><time>2026-04-03T07:27:45.999Z</time></trkpt><trkpt lat="44.48364663145803" lon="7.874731254295352"><ele>359.0</ele><time>2026-04-03T07:27:46.999Z</time></trkpt><trkpt lat="44.48371602274466" lon="7.874870327099203"><ele>359.0</ele><time>2026-04-03T07:27:47.999Z</time></trkpt><trkpt lat="44.48377863081255" lon="7.875027337447"><ele>359.0</ele><time>2026-04-03T07:27:48.999Z</time></trkpt><trkpt lat="44.48383396516778" lon="7.875189648937845"><ele>359.0</ele><time>2026-04-03T07:27:49.999Z</time></trkpt><trkpt lat="44.48389531686867" lon="7.875350965730161"><ele>359.0</ele><time>2026-04-03T07:27:50.999Z</time></trkpt><trkpt lat="44.483952870651656" lon="7.875509306404807"><ele>359.0</ele><time>2026-04-03T07:27:51.999Z</time></trkpt><trkpt lat="44.48400472333836" lon="7.875644790088788"><ele>359.0</ele><time>2026-04-03T07:27:52.999Z</time></trkpt><trkpt lat="44.484048536763325" lon="7.875792643669496"><ele>359.0</ele><time>2026-04-03T07:27:53.999Z</time></trkpt><trkpt lat="44.4840933009572" lon="7.875945194619614"><ele>359.0</ele><time>2026-04-03T07:27:54.999Z</time></trkpt><trkpt lat="44.48413206118528" lon="7.876099523627518"><ele>359.0</ele><time>2026-04-03T07:27:55.999Z</time></trkpt><trkpt lat="44.48416487937346" lon="7.8762321982480685"><ele>359.0</ele><time>2026-04-03T07:27:56.999Z</time></trkpt><trkpt lat="44.48419965836228" lon="7.876366138672585"><ele>359.0</ele><time>2026-04-03T07:27:57.999Z</time></trkpt><trkpt lat="44.48422364601159" lon="7.8764913201678945"><ele>359.0</ele><time>2026-04-03T07:27:58.999Z</time></trkpt><trkpt lat="44.48424404208261" lon="7.876606266204066"><ele>359.0</ele><time>2026-04-03T07:27:59.999Z</time></trkpt><trkpt lat="44.48425765643367" lon="7.876709596180102"><ele>359.0</ele><time>2026-04-03T07:28:00.999Z</time></trkpt><trkpt lat="44.48426865807933" lon="7.876806156190856"><ele>359.0</ele><time>2026-04-03T07:28:01.999Z</time></trkpt><trkpt lat="44.484267577570776" lon="7.876897789380557"><ele>359.0</ele><time>2026-04-03T07:28:02.999Z</time></trkpt><trkpt lat="44.48425827486257" lon="7.877003413239597"><ele>359.0</ele><time>2026-04-03T07:28:03.999Z</time></trkpt><trkpt lat="44.48426613517634" lon="7.87711309843402"><ele>359.0</ele><time>2026-04-03T07:28:04.999Z</time></trkpt><trkpt lat="44.48427786284071" lon="7.877231093753372"><ele>358.79999999999995</ele><time>2026-04-03T07:28:05.999Z</time></trkpt><trkpt lat="44.48430216779781" lon="7.8773535206341805"><ele>358.59999999999997</ele><time>2026-04-03T07:28:06.999Z</time></trkpt><trkpt lat="44.48433552608434" lon="7.877488500232275"><ele>358.4</ele><time>2026-04-03T07:28:07.999Z</time></trkpt><trkpt lat="44.48436985006042" lon="7.877625567504815"><ele>358.2</ele><time>2026-04-03T07:28:08.999Z</time></trkpt><trkpt lat="44.48439543431438" lon="7.877786564452832"><ele>358.0</ele><time>2026-04-03T07:28:09.999Z</time></trkpt><trkpt lat="44.48441399164383" lon="7.877957231999849"><ele>358.0</ele><time>2026-04-03T07:28:10.999Z</time></trkpt><trkpt lat="44.48442837712717" lon="7.8781452645177055"><ele>358.0</ele><time>2026-04-03T07:28:11.999Z</time></trkpt><trkpt lat="44.48443444012239" lon="7.878320349584772"><ele>358.0</ele><time>2026-04-03T07:28:12.999Z</time></trkpt><trkpt lat="44.48443291950054" lon="7.878506629582003"><ele>358.0</ele><time>2026-04-03T07:28:13.999Z</time></trkpt><trkpt lat="44.484428240842824" lon="7.878705015872159"><ele>357.5</ele><time>2026-04-03T07:28:14.999Z</time></trkpt><trkpt lat="44.48441984077474" lon="7.878906951959455"><ele>357.0</ele><time>2026-04-03T07:28:15.999Z</time></trkpt><trkpt lat="44.48441357826213" lon="7.879103183501272"><ele>356.5</ele><time>2026-04-03T07:28:16.999Z</time></trkpt><trkpt lat="44.48440226976051" lon="7.8792893078588495"><ele>356.0</ele><time>2026-04-03T07:28:17.999Z</time></trkpt><trkpt lat="44.48439408216611" lon="7.879491240899469"><ele>356.0</ele><time>2026-04-03T07:28:18.999Z</time></trkpt><trkpt lat="44.48438996357588" lon="7.879679695409256"><ele>356.0</ele><time>2026-04-03T07:28:19.999Z</time></trkpt><trkpt lat="44.484382639963634" lon="7.879868734611832"><ele>356.0</ele><time>2026-04-03T07:28:20.999Z</time></trkpt><trkpt lat="44.4843729833526" lon="7.880064348437263"><ele>356.0</ele><time>2026-04-03T07:28:21.999Z</time></trkpt><trkpt lat="44.48436261808082" lon="7.880264764446943"><ele>355.75</ele><time>2026-04-03T07:28:22.999Z</time></trkpt><trkpt lat="44.48435224526249" lon="7.880468972870848"><ele>355.5</ele><time>2026-04-03T07:28:23.999Z</time></trkpt><trkpt lat="44.48434051821325" lon="7.880673895044163"><ele>355.25</ele><time>2026-04-03T07:28:24.999Z</time></trkpt><trkpt lat="44.48433233455797" lon="7.880880242365804"><ele>355.0</ele><time>2026-04-03T07:28:25.999Z</time></trkpt><trkpt lat="44.4843219958224" lon="7.881090240662869"><ele>354.66666666666663</ele><time>2026-04-03T07:28:26.999Z</time></trkpt><trkpt lat="44.484312975449065" lon="7.881303710030141"><ele>354.3333333333333</ele><time>2026-04-03T07:28:27.999Z</time></trkpt><trkpt lat="44.48430535749627" lon="7.881517202923381"><ele>354.0</ele><time>2026-04-03T07:28:28.999Z</time></trkpt><trkpt lat="44.48429668062393" lon="7.881734024533932"><ele>353.0</ele><time>2026-04-03T07:28:29.999Z</time></trkpt><trkpt lat="44.48428867829528" lon="7.881942959773939"><ele>352.0</ele><time>2026-04-03T07:28:30.999Z</time></trkpt><trkpt lat="44.48427874781155" lon="7.882165828439509"><ele>351.0</ele><time>2026-04-03T07:28:31.999Z</time></trkpt><trkpt lat="44.48426737268883" lon="7.882390775190933"><ele>350.0</ele><time>2026-04-03T07:28:32.999Z</time></trkpt><trkpt lat="44.48425555865397" lon="7.882611161925801"><ele>349.0</ele><time>2026-04-03T07:28:33.999Z</time></trkpt><trkpt lat="44.48424441012139" lon="7.882821032532828"><ele>348.0</ele><time>2026-04-03T07:28:34.999Z</time></trkpt><trkpt lat="44.48423494884505" lon="7.883029011469654"><ele>348.0</ele><time>2026-04-03T07:28:35.999Z</time></trkpt><trkpt lat="44.48422457998513" lon="7.883229683769095"><ele>348.0</ele><time>2026-04-03T07:28:36.999Z</time></trkpt><trkpt lat="44.48421445967159" lon="7.883430148128942"><ele>348.0</ele><time>2026-04-03T07:28:37.999Z</time></trkpt><trkpt lat="44.484206732603475" lon="7.883628777022545"><ele>348.0</ele><time>2026-04-03T07:28:38.999Z</time></trkpt><trkpt lat="44.48419809997096" lon="7.883828653696233"><ele>346.5</ele><time>2026-04-03T07:28:39.999Z</time></trkpt><trkpt lat="44.484189368410966" lon="7.8840289475353265"><ele>345.0</ele><time>2026-04-03T07:28:40.999Z</time></trkpt><trkpt lat="44.484179549192525" lon="7.88421622418328"><ele>343.5</ele><time>2026-04-03T07:28:41.999Z</time></trkpt><trkpt lat="44.48417134962873" lon="7.884427805439396"><ele>342.0</ele><time>2026-04-03T07:28:42.999Z</time></trkpt><trkpt lat="44.484163241082946" lon="7.884635187911272"><ele>341.25</ele><time>2026-04-03T07:28:43.999Z</time></trkpt><trkpt lat="44.48415448332401" lon="7.884849385288912"><ele>340.5</ele><time>2026-04-03T07:28:44.998Z</time></trkpt><trkpt lat="44.48414751927707" lon="7.885052565663798"><ele>339.75</ele><time>2026-04-03T07:28:45.998Z</time></trkpt><trkpt lat="44.48413962962755" lon="7.88525770470648"><ele>339.0</ele><time>2026-04-03T07:28:46.998Z</time></trkpt><trkpt lat="44.484132121553195" lon="7.8854607178172875"><ele>338.75</ele><time>2026-04-03T07:28:47.998Z</time></trkpt><trkpt lat="44.4841242071319" lon="7.885653426308751"><ele>338.5</ele><time>2026-04-03T07:28:48.998Z</time></trkpt><trkpt lat="44.484115813112886" lon="7.885839351886237"><ele>338.25</ele><time>2026-04-03T07:28:49.998Z</time></trkpt><trkpt lat="44.48410492717338" lon="7.8860128457164675"><ele>338.0</ele><time>2026-04-03T07:28:50.998Z</time></trkpt><trkpt lat="44.48409774849506" lon="7.88617965960816"><ele>338.0</ele><time>2026-04-03T07:28:51.998Z</time></trkpt><trkpt lat="44.48410119397408" lon="7.886349847668902"><ele>338.0</ele><time>2026-04-03T07:28:52.998Z</time></trkpt><trkpt lat="44.48410682106568" lon="7.88651030239213"><ele>338.0</ele><time>2026-04-03T07:28:53.998Z</time></trkpt><trkpt lat="44.48411167838597" lon="7.886664891181624"><ele>338.0</ele><time>2026-04-03T07:28:54.998Z</time></trkpt><trkpt lat="44.484116363277145" lon="7.886807733834302"><ele>338.0</ele><time>2026-04-03T07:28:55.998Z</time></trkpt><trkpt lat="44.48411972429264" lon="7.886927098646518"><ele>338.0</ele><time>2026-04-03T07:28:56.998Z</time></trkpt><trkpt lat="44.48411562929731" lon="7.887025812259772"><ele>338.0</ele><time>2026-04-03T07:28:57.998Z</time></trkpt><trkpt lat="44.484110312742786" lon="7.887118906210437"><ele>338.0</ele><time>2026-04-03T07:28:58.998Z</time></trkpt><trkpt lat="44.48409971415739" lon="7.88721374173727"><ele>338.0</ele><time>2026-04-03T07:28:59.998Z</time></trkpt><trkpt lat="44.48407999957708" lon="7.887318158325772"><ele>338.0</ele><time>2026-04-03T07:29:00.998Z</time></trkpt><trkpt lat="44.484059694977866" lon="7.887412435748467"><ele>338.0</ele><time>2026-04-03T07:29:01.998Z</time></trkpt><trkpt lat="44.48401091192712" lon="7.887550167455241"><ele>338.0</ele><time>2026-04-03T07:29:03.998Z</time></trkpt><trkpt lat="44.484066765364716" lon="7.88766834769527"><ele>338.0</ele><time>2026-04-03T07:29:04.998Z</time></trkpt><trkpt lat="44.484145078223605" lon="7.887707014403493"><ele>338.0</ele><time>2026-04-03T07:29:05.998Z</time></trkpt><trkpt lat="44.484226563695536" lon="7.887743488092135"><ele>338.0</ele><time>2026-04-03T07:29:06.998Z</time></trkpt><trkpt lat="44.484314386472704" lon="7.887789101393289"><ele>338.0</ele><time>2026-04-03T07:29:07.998Z</time></trkpt><trkpt lat="44.484414704474446" lon="7.887831543169277"><ele>338.0</ele><time>2026-04-03T07:29:08.998Z</time></trkpt><trkpt lat="44.48449513592602" lon="7.887934561430151"><ele>338.0</ele><time>2026-04-03T07:29:09.998Z</time></trkpt><trkpt lat="44.484585637364596" lon="7.888034198278594"><ele>338.0</ele><time>2026-04-03T07:29:10.998Z</time></trkpt><trkpt lat="44.48466725190689" lon="7.888161933996116"><ele>338.0</ele><time>2026-04-03T07:29:11.998Z</time></trkpt><trkpt lat="44.484769821625456" lon="7.888257917474457"><ele>338.0</ele><time>2026-04-03T07:29:13Z</time></trkpt><trkpt lat="44.48486615148317" lon="7.888374447878037"><ele>338.0</ele><time>2026-04-03T07:29:14Z</time></trkpt><trkpt lat="44.48497468708594" lon="7.8885035481264385"><ele>338.0</ele><time>2026-04-03T07:29:15Z</time></trkpt><trkpt lat="44.4850981021178" lon="7.888616781041683"><ele>338.0</ele><time>2026-04-03T07:29:16Z</time></trkpt><trkpt lat="44.48523202703469" lon="7.888710174813646"><ele>337.33333333333337</ele><time>2026-04-03T07:29:17Z</time></trkpt><trkpt lat="44.48537530453158" lon="7.888800470689021"><ele>336.6666666666667</ele><time>2026-04-03T07:29:18Z</time></trkpt><trkpt lat="44.485517607355625" lon="7.88890105985961"><ele>336.0</ele><time>2026-04-03T07:29:19Z</time></trkpt><trkpt lat="44.485669193345686" lon="7.88901019236027"><ele>336.0</ele><time>2026-04-03T07:29:20Z</time></trkpt><trkpt lat="44.485835596846854" lon="7.889121396438249"><ele>336.0</ele><time>2026-04-03T07:29:21Z</time></trkpt><trkpt lat="44.48599339805201" lon="7.889226719901567"><ele>336.0</ele><time>2026-04-03T07:29:22Z</time></trkpt><trkpt lat="44.486156972115" lon="7.8893381427704155"><ele>336.3333333333333</ele><time>2026-04-03T07:29:23Z</time></trkpt><trkpt lat="44.4863021600856" lon="7.889440782382096"><ele>336.66666666666663</ele><time>2026-04-03T07:29:24Z</time></trkpt><trkpt lat="44.4864418605915" lon="7.8895433797720615"><ele>337.0</ele><time>2026-04-03T07:29:25Z</time></trkpt><trkpt lat="44.48659274425436" lon="7.889643077905328"><ele>337.0</ele><time>2026-04-03T07:29:26Z</time></trkpt><trkpt lat="44.48675142817027" lon="7.889748959396089"><ele>337.0</ele><time>2026-04-03T07:29:27Z</time></trkpt><trkpt lat="44.486898786816724" lon="7.889850898321597"><ele>337.0</ele><time>2026-04-03T07:29:28Z</time></trkpt><trkpt lat="44.4870369349124" lon="7.889945404833425"><ele>337.0</ele><time>2026-04-03T07:29:29Z</time></trkpt><trkpt lat="44.48718269170974" lon="7.890047497160292"><ele>337.0</ele><time>2026-04-03T07:29:30Z</time></trkpt><trkpt lat="44.487323101704646" lon="7.890148537208024"><ele>337.0</ele><time>2026-04-03T07:29:31Z</time></trkpt><trkpt lat="44.48746535723694" lon="7.890245748923275"><ele>337.0</ele><time>2026-04-03T07:29:32Z</time></trkpt><trkpt lat="44.4876104670951" lon="7.890346058639716"><ele>337.0</ele><time>2026-04-03T07:29:33Z</time></trkpt><trkpt lat="44.48775070344345" lon="7.890468729689865"><ele>337.0</ele><time>2026-04-03T07:29:34Z</time></trkpt><trkpt lat="44.48788349041855" lon="7.890562600411313"><ele>337.0</ele><time>2026-04-03T07:29:35Z</time></trkpt><trkpt lat="44.4880236896453" lon="7.890661458441899"><ele>337.0</ele><time>2026-04-03T07:29:36Z</time></trkpt><trkpt lat="44.488181599558196" lon="7.890744173119429"><ele>337.0</ele><time>2026-04-03T07:29:37Z</time></trkpt><trkpt lat="44.48833209620483" lon="7.890843490021051"><ele>336.3333333333333</ele><time>2026-04-03T07:29:38Z</time></trkpt><trkpt lat="44.48845947880733" lon="7.890937324574656"><ele>335.6666666666667</ele><time>2026-04-03T07:29:39Z</time></trkpt><trkpt lat="44.488600224053" lon="7.890999412210375"><ele>335.0</ele><time>2026-04-03T07:29:40Z</time></trkpt><trkpt lat="44.488761007690954" lon="7.891051637976274"><ele>335.0</ele><time>2026-04-03T07:29:41Z</time></trkpt><trkpt lat="44.48893019393622" lon="7.891095052244359"><ele>335.0</ele><time>2026-04-03T07:29:42Z</time></trkpt><trkpt lat="44.48909375851124" lon="7.89114102077325"><ele>335.0</ele><time>2026-04-03T07:29:43Z</time></trkpt><trkpt lat="44.48926238292037" lon="7.891182472128083"><ele>335.0</ele><time>2026-04-03T07:29:44Z</time></trkpt><trkpt lat="44.48941750958591" lon="7.891217307046661"><ele>335.0</ele><time>2026-04-03T07:29:45Z</time></trkpt><trkpt lat="44.489574488028666" lon="7.891249524552327"><ele>335.0</ele><time>2026-04-03T07:29:46Z</time></trkpt><trkpt lat="44.4897342868455" lon="7.891284201058982"><ele>335.0</ele><time>2026-04-03T07:29:47Z</time></trkpt><trkpt lat="44.48990077060285" lon="7.891317284099935"><ele>335.0</ele><time>2026-04-03T07:29:48Z</time></trkpt><trkpt lat="44.49006998995733" lon="7.8913537903615305"><ele>335.0</ele><time>2026-04-03T07:29:49Z</time></trkpt><trkpt lat="44.490228378424" lon="7.891390342224772"><ele>335.0</ele><time>2026-04-03T07:29:50Z</time></trkpt><trkpt lat="44.49038665054661" lon="7.891420141085845"><ele>335.0</ele><time>2026-04-03T07:29:51Z</time></trkpt><trkpt lat="44.49054776427833" lon="7.891450363807752"><ele>335.0</ele><time>2026-04-03T07:29:52Z</time></trkpt><trkpt lat="44.49070766709673" lon="7.891483451427289"><ele>335.0</ele><time>2026-04-03T07:29:53Z</time></trkpt><trkpt lat="44.490869210777376" lon="7.891517754255529"><ele>335.0</ele><time>2026-04-03T07:29:54Z</time></trkpt><trkpt lat="44.49103342540534" lon="7.891553451324535"><ele>335.0</ele><time>2026-04-03T07:29:55Z</time></trkpt><trkpt lat="44.49119296701341" lon="7.891595182282371"><ele>335.6666666666667</ele><time>2026-04-03T07:29:55.999Z</time></trkpt><trkpt lat="44.491356404320086" lon="7.891629233749608"><ele>336.3333333333333</ele><time>2026-04-03T07:29:56.999Z</time></trkpt><trkpt lat="44.491522573053516" lon="7.891658372571437"><ele>337.0</ele><time>2026-04-03T07:29:57.999Z</time></trkpt><trkpt lat="44.49168166417815" lon="7.891694697870305"><ele>337.0</ele><time>2026-04-03T07:29:58.999Z</time></trkpt><trkpt lat="44.491839331223716" lon="7.8917262866964695"><ele>337.0</ele><time>2026-04-03T07:29:59.999Z</time></trkpt><trkpt lat="44.49199593677362" lon="7.891756388515907"><ele>337.0</ele><time>2026-04-03T07:30:00.999Z</time></trkpt><trkpt lat="44.49215154289776" lon="7.891786862646644"><ele>336.3333333333333</ele><time>2026-04-03T07:30:01.999Z</time></trkpt><trkpt lat="44.49230621848274" lon="7.891830546574694"><ele>335.6666666666667</ele><time>2026-04-03T07:30:02.999Z</time></trkpt><trkpt lat="44.49245656505444" lon="7.8918747516640995"><ele>335.0</ele><time>2026-04-03T07:30:03.999Z</time></trkpt><trkpt lat="44.49261020818417" lon="7.8919298153247315"><ele>335.0</ele><time>2026-04-03T07:30:04.999Z</time></trkpt><trkpt lat="44.492760726574154" lon="7.89198958230269"><ele>335.0</ele><time>2026-04-03T07:30:05.999Z</time></trkpt><trkpt lat="44.492919232618945" lon="7.89205993128886"><ele>335.0</ele><time>2026-04-03T07:30:06.999Z</time></trkpt><trkpt lat="44.49306534740178" lon="7.892138742926334"><ele>335.0</ele><time>2026-04-03T07:30:07.999Z</time></trkpt><trkpt lat="44.49321556260104" lon="7.892223837748211"><ele>335.0</ele><time>2026-04-03T07:30:08.999Z</time></trkpt><trkpt lat="44.493363569032944" lon="7.892314663845094"><ele>335.0</ele><time>2026-04-03T07:30:09.999Z</time></trkpt><trkpt lat="44.49351008277304" lon="7.8924094938247915"><ele>335.0</ele><time>2026-04-03T07:30:10.999Z</time></trkpt><trkpt lat="44.493651134056044" lon="7.892497299545053"><ele>335.0</ele><time>2026-04-03T07:30:11.999Z</time></trkpt><trkpt lat="44.49379629908589" lon="7.892602233928151"><ele>335.0</ele><time>2026-04-03T07:30:12.999Z</time></trkpt><trkpt lat="44.493944921825985" lon="7.892693468445455"><ele>335.0</ele><time>2026-04-03T07:30:13.999Z</time></trkpt><trkpt lat="44.49408561747149" lon="7.8927849988178975"><ele>335.0</ele><time>2026-04-03T07:30:14.999Z</time></trkpt><trkpt lat="44.49423641233677" lon="7.892875090210282"><ele>335.0</ele><time>2026-04-03T07:30:15.999Z</time></trkpt><trkpt lat="44.494378453648004" lon="7.892961482533961"><ele>335.0</ele><time>2026-04-03T07:30:16.999Z</time></trkpt><trkpt lat="44.494525435243844" lon="7.893047861028696"><ele>335.0</ele><time>2026-04-03T07:30:17.999Z</time></trkpt><trkpt lat="44.49467046632566" lon="7.893139654514518"><ele>335.0</ele><time>2026-04-03T07:30:18.999Z</time></trkpt><trkpt lat="44.49481048852613" lon="7.89321759137384"><ele>334.6666666666667</ele><time>2026-04-03T07:30:19.999Z</time></trkpt><trkpt lat="44.49496226249317" lon="7.89329933833731"><ele>334.3333333333333</ele><time>2026-04-03T07:30:20.999Z</time></trkpt><trkpt lat="44.49510756328679" lon="7.893385850285697"><ele>334.0</ele><time>2026-04-03T07:30:21.999Z</time></trkpt><trkpt lat="44.49523484024083" lon="7.893475563914238"><ele>334.0</ele><time>2026-04-03T07:30:22.999Z</time></trkpt><trkpt lat="44.49537109032708" lon="7.893542207176334"><ele>334.0</ele><time>2026-04-03T07:30:23.999Z</time></trkpt><trkpt lat="44.495508781646336" lon="7.893603484413811"><ele>334.0</ele><time>2026-04-03T07:30:24.999Z</time></trkpt><trkpt lat="44.49564524513952" lon="7.89365962723562"><ele>334.0</ele><time>2026-04-03T07:30:25.999Z</time></trkpt><trkpt lat="44.49577019897911" lon="7.893710987018069"><ele>334.0</ele><time>2026-04-03T07:30:26.999Z</time></trkpt><trkpt lat="44.49588270455793" lon="7.893765702247706"><ele>334.0</ele><time>2026-04-03T07:30:27.999Z</time></trkpt><trkpt lat="44.49600234066114" lon="7.893815752496137"><ele>334.0</ele><time>2026-04-03T07:30:28.999Z</time></trkpt><trkpt lat="44.49611750730832" lon="7.893856138404529"><ele>334.0</ele><time>2026-04-03T07:30:29.999Z</time></trkpt><trkpt lat="44.49623329395201" lon="7.893891911506095"><ele>334.0</ele><time>2026-04-03T07:30:30.999Z</time></trkpt><trkpt lat="44.49634803854849" lon="7.8939426982986705"><ele>334.0</ele><time>2026-04-03T07:30:31.999Z</time></trkpt><trkpt lat="44.496451271211974" lon="7.893988728675111"><ele>334.0</ele><time>2026-04-03T07:30:32.999Z</time></trkpt><trkpt lat="44.49655977886931" lon="7.894033320247643"><ele>334.0</ele><time>2026-04-03T07:30:33.999Z</time></trkpt><trkpt lat="44.49666382694895" lon="7.894073005550827"><ele>334.0</ele><time>2026-04-03T07:30:34.999Z</time></trkpt><trkpt lat="44.496775455445" lon="7.894117381810292"><ele>334.0</ele><time>2026-04-03T07:30:35.999Z</time></trkpt><trkpt lat="44.49688223005924" lon="7.89416062046695"><ele>334.0</ele><time>2026-04-03T07:30:36.999Z</time></trkpt><trkpt lat="44.49698664455" lon="7.894204331600658"><ele>334.0</ele><time>2026-04-03T07:30:37.999Z</time></trkpt><trkpt lat="44.4970887601462" lon="7.894248822114555"><ele>334.0</ele><time>2026-04-03T07:30:38.999Z</time></trkpt><trkpt lat="44.49719731548309" lon="7.894291111287954"><ele>333.25</ele><time>2026-04-03T07:30:39.999Z</time></trkpt><trkpt lat="44.49730562052057" lon="7.8943345294728715"><ele>332.5</ele><time>2026-04-03T07:30:40.999Z</time></trkpt><trkpt lat="44.49741598700865" lon="7.894387825158301"><ele>331.75</ele><time>2026-04-03T07:30:41.999Z</time></trkpt><trkpt lat="44.49753376233527" lon="7.894438982845728"><ele>331.0</ele><time>2026-04-03T07:30:42.999Z</time></trkpt><trkpt lat="44.49765426510151" lon="7.894486798151377"><ele>331.0</ele><time>2026-04-03T07:30:43.999Z</time></trkpt><trkpt lat="44.49775883969187" lon="7.894522432344497"><ele>331.0</ele><time>2026-04-03T07:30:44.999Z</time></trkpt><trkpt lat="44.49786842118822" lon="7.894555040433484"><ele>331.0</ele><time>2026-04-03T07:30:45.999Z</time></trkpt><trkpt lat="44.49798005613097" lon="7.894573190931443"><ele>331.0</ele><time>2026-04-03T07:30:46.999Z</time></trkpt><trkpt lat="44.498097526611474" lon="7.894578266833571"><ele>329.0</ele><time>2026-04-03T07:30:47.999Z</time></trkpt><trkpt lat="44.49821794699251" lon="7.89457167551775"><ele>327.0</ele><time>2026-04-03T07:30:48.999Z</time></trkpt><trkpt lat="44.49834464244157" lon="7.894556791311936"><ele>325.0</ele><time>2026-04-03T07:30:49.999Z</time></trkpt><trkpt lat="44.498476873357895" lon="7.894526013449772"><ele>323.0</ele><time>2026-04-03T07:30:50.999Z</time></trkpt><trkpt lat="44.4986181714268" lon="7.894480623242826"><ele>318.0</ele><time>2026-04-03T07:30:51.999Z</time></trkpt><trkpt lat="44.49876041200446" lon="7.89441674011803"><ele>313.0</ele><time>2026-04-03T07:30:52.999Z</time></trkpt><trkpt lat="44.49890107423026" lon="7.894344065155142"><ele>308.0</ele><time>2026-04-03T07:30:53.999Z</time></trkpt><trkpt lat="44.4990495983625" lon="7.894279398721807"><ele>313.33333333333337</ele><time>2026-04-03T07:30:54.998Z</time></trkpt><trkpt lat="44.49920142137005" lon="7.894213795748339"><ele>318.6666666666667</ele><time>2026-04-03T07:30:55.998Z</time></trkpt><trkpt lat="44.499346660112195" lon="7.894156287820571"><ele>324.0</ele><time>2026-04-03T07:30:56.998Z</time></trkpt><trkpt lat="44.4995053940206" lon="7.894124126170873"><ele>321.6666666666667</ele><time>2026-04-03T07:30:57.998Z</time></trkpt><trkpt lat="44.499671805706306" lon="7.89407880924709"><ele>319.33333333333337</ele><time>2026-04-03T07:30:58.998Z</time></trkpt><trkpt lat="44.49983429019667" lon="7.894051131893513"><ele>317.0</ele><time>2026-04-03T07:30:59.998Z</time></trkpt><trkpt lat="44.49998610197037" lon="7.89404002085214"><ele>317.0</ele><time>2026-04-03T07:31:00.998Z</time></trkpt><trkpt lat="44.500152106980586" lon="7.894044256821262"><ele>317.0</ele><time>2026-04-03T07:31:01.998Z</time></trkpt><trkpt lat="44.50030806794317" lon="7.894061684673811"><ele>317.0</ele><time>2026-04-03T07:31:02.998Z</time></trkpt><trkpt lat="44.500443925094075" lon="7.894067565777731"><ele>314.0</ele><time>2026-04-03T07:31:03.998Z</time></trkpt><trkpt lat="44.50058929756458" lon="7.894069815815525"><ele>311.0</ele><time>2026-04-03T07:31:04.998Z</time></trkpt><trkpt lat="44.50075204270182" lon="7.8940530032344896"><ele>308.0</ele><time>2026-04-03T07:31:05.998Z</time></trkpt><trkpt lat="44.5009103450683" lon="7.894035112762897"><ele>308.0</ele><time>2026-04-03T07:31:06.998Z</time></trkpt><trkpt lat="44.50106551868423" lon="7.894021543777742"><ele>308.0</ele><time>2026-04-03T07:31:07.998Z</time></trkpt><trkpt lat="44.50121172869655" lon="7.894007422916241"><ele>308.0</ele><time>2026-04-03T07:31:08.998Z</time></trkpt><trkpt lat="44.501368160697815" lon="7.89398780715314"><ele>306.33333333333337</ele><time>2026-04-03T07:31:09.998Z</time></trkpt><trkpt lat="44.50153296766873" lon="7.893974378429086"><ele>304.6666666666667</ele><time>2026-04-03T07:31:10.998Z</time></trkpt><trkpt lat="44.501688678105566" lon="7.8939816711562685"><ele>303.0</ele><time>2026-04-03T07:31:11.998Z</time></trkpt><trkpt lat="44.50186076295475" lon="7.893995816918997"><ele>303.0</ele><time>2026-04-03T07:31:12.998Z</time></trkpt><trkpt lat="44.502035255458935" lon="7.894019846670537"><ele>303.0</ele><time>2026-04-03T07:31:13.998Z</time></trkpt><trkpt lat="44.502217912795146" lon="7.894048081392843"><ele>303.0</ele><time>2026-04-03T07:31:14.998Z</time></trkpt><trkpt lat="44.50240232326311" lon="7.894082589091214"><ele>302.6666666666667</ele><time>2026-04-03T07:31:15.998Z</time></trkpt><trkpt lat="44.50257495283222" lon="7.89411314109683"><ele>302.33333333333337</ele><time>2026-04-03T07:31:16.998Z</time></trkpt><trkpt lat="44.50274541236805" lon="7.894148076536691"><ele>302.0</ele><time>2026-04-03T07:31:17.998Z</time></trkpt><trkpt lat="44.502922653178715" lon="7.894173300954852"><ele>301.33333333333337</ele><time>2026-04-03T07:31:19Z</time></trkpt><trkpt lat="44.50310062442044" lon="7.89420822877407"><ele>300.6666666666667</ele><time>2026-04-03T07:31:20Z</time></trkpt><trkpt lat="44.503272918017245" lon="7.89425506775834"><ele>300.0</ele><time>2026-04-03T07:31:21Z</time></trkpt><trkpt lat="44.503446912149954" lon="7.894312002239473"><ele>295.3333333333333</ele><time>2026-04-03T07:31:22Z</time></trkpt><trkpt lat="44.503609770926495" lon="7.894395320396424"><ele>290.66666666666663</ele><time>2026-04-03T07:31:23Z</time></trkpt><trkpt lat="44.50377245498792" lon="7.894485625541271"><ele>286.0</ele><time>2026-04-03T07:31:24Z</time></trkpt><trkpt lat="44.50393439397702" lon="7.894578614067636"><ele>286.0</ele><time>2026-04-03T07:31:25Z</time></trkpt><trkpt lat="44.50408634986851" lon="7.894668392687918"><ele>286.0</ele><time>2026-04-03T07:31:26Z</time></trkpt><trkpt lat="44.504236878088356" lon="7.894761330879635"><ele>286.0</ele><time>2026-04-03T07:31:27Z</time></trkpt><trkpt lat="44.50437653039243" lon="7.89485452336555"><ele>286.0</ele><time>2026-04-03T07:31:28Z</time></trkpt><trkpt lat="44.50451071471231" lon="7.894955517861923"><ele>286.0</ele><time>2026-04-03T07:31:29Z</time></trkpt><trkpt lat="44.504642584475285" lon="7.895071187962532"><ele>286.0</ele><time>2026-04-03T07:31:30Z</time></trkpt><trkpt lat="44.50476891835241" lon="7.895211026989837"><ele>284.3333333333333</ele><time>2026-04-03T07:31:31Z</time></trkpt><trkpt lat="44.50487649565651" lon="7.895370529745718"><ele>282.6666666666667</ele><time>2026-04-03T07:31:32Z</time></trkpt><trkpt lat="44.50497387236989" lon="7.895546668380813"><ele>281.0</ele><time>2026-04-03T07:31:33Z</time></trkpt><trkpt lat="44.50505805538595" lon="7.8957375766644855"><ele>279.33333333333337</ele><time>2026-04-03T07:31:34Z</time></trkpt><trkpt lat="44.50512085904829" lon="7.895949337458896"><ele>277.6666666666667</ele><time>2026-04-03T07:31:35Z</time></trkpt><trkpt lat="44.50517941857441" lon="7.896163666028896"><ele>276.0</ele><time>2026-04-03T07:31:36Z</time></trkpt><trkpt lat="44.505233519794274" lon="7.896374636070239"><ele>276.0</ele><time>2026-04-03T07:31:37Z</time></trkpt><trkpt lat="44.505288406629106" lon="7.89658952884436"><ele>276.0</ele><time>2026-04-03T07:31:38Z</time></trkpt><trkpt lat="44.50534749178558" lon="7.896805103058431"><ele>276.0</ele><time>2026-04-03T07:31:39Z</time></trkpt><trkpt lat="44.5054028848153" lon="7.8970159086506575"><ele>278.0</ele><time>2026-04-03T07:31:40Z</time></trkpt><trkpt lat="44.505460492192164" lon="7.897231517814049"><ele>280.0</ele><time>2026-04-03T07:31:41Z</time></trkpt><trkpt lat="44.50552590448408" lon="7.897441411398039"><ele>282.0</ele><time>2026-04-03T07:31:42Z</time></trkpt><trkpt lat="44.50558611104427" lon="7.897660105412188"><ele>282.0</ele><time>2026-04-03T07:31:43Z</time></trkpt><trkpt lat="44.50564390780232" lon="7.897877602233076"><ele>282.0</ele><time>2026-04-03T07:31:44Z</time></trkpt><trkpt lat="44.50570449866626" lon="7.898097835231691"><ele>282.0</ele><time>2026-04-03T07:31:45Z</time></trkpt><trkpt lat="44.5057674227889" lon="7.898317156286359"><ele>279.3333333333333</ele><time>2026-04-03T07:31:46Z</time></trkpt><trkpt lat="44.50582614963113" lon="7.898524785813557"><ele>276.66666666666663</ele><time>2026-04-03T07:31:47Z</time></trkpt><trkpt lat="44.50588585618484" lon="7.898728860721342"><ele>274.0</ele><time>2026-04-03T07:31:48Z</time></trkpt><trkpt lat="44.50594767647075" lon="7.8989310536721975"><ele>274.0</ele><time>2026-04-03T07:31:49Z</time></trkpt><trkpt lat="44.50600534940228" lon="7.899128728668476"><ele>274.0</ele><time>2026-04-03T07:31:50Z</time></trkpt><trkpt lat="44.506068780872766" lon="7.899319270091142"><ele>274.0</ele><time>2026-04-03T07:31:51Z</time></trkpt><trkpt lat="44.50613991482274" lon="7.899502694769569"><ele>273.25</ele><time>2026-04-03T07:31:52Z</time></trkpt><trkpt lat="44.506215533552485" lon="7.899663380961508"><ele>272.5</ele><time>2026-04-03T07:31:53Z</time></trkpt><trkpt lat="44.506290073338896" lon="7.8998265301456145"><ele>271.75</ele><time>2026-04-03T07:31:54Z</time></trkpt><trkpt lat="44.50636300292976" lon="7.899979500672929"><ele>271.0</ele><time>2026-04-03T07:31:55Z</time></trkpt><trkpt lat="44.50642891445922" lon="7.900128702283741"><ele>271.0</ele><time>2026-04-03T07:31:56Z</time></trkpt><trkpt lat="44.5064848600859" lon="7.900287617477604"><ele>271.0</ele><time>2026-04-03T07:31:57Z</time></trkpt><trkpt lat="44.50653812955007" lon="7.900458252624148"><ele>271.0</ele><time>2026-04-03T07:31:58Z</time></trkpt><trkpt lat="44.506555173806284" lon="7.900659956755061"><ele>271.0</ele><time>2026-04-03T07:31:59Z</time></trkpt><trkpt lat="44.50657483091436" lon="7.9008646627503705"><ele>269.0</ele><time>2026-04-03T07:32:00Z</time></trkpt><trkpt lat="44.50660956324447" lon="7.9010796231632066"><ele>267.0</ele><time>2026-04-03T07:32:01Z</time></trkpt><trkpt lat="44.50662628259373" lon="7.901300684473359"><ele>265.0</ele><time>2026-04-03T07:32:02Z</time></trkpt><trkpt lat="44.506645650693734" lon="7.90152065657986"><ele>263.3333333333333</ele><time>2026-04-03T07:32:03Z</time></trkpt><trkpt lat="44.50664593216627" lon="7.901758709172801"><ele>261.6666666666667</ele><time>2026-04-03T07:32:03.999Z</time></trkpt><trkpt lat="44.50666225680763" lon="7.901976580142168"><ele>260.0</ele><time>2026-04-03T07:32:04.999Z</time></trkpt><trkpt lat="44.50666977743579" lon="7.902201664234809"><ele>260.0</ele><time>2026-04-03T07:32:05.999Z</time></trkpt><trkpt lat="44.50667333908291" lon="7.902424434200933"><ele>260.0</ele><time>2026-04-03T07:32:06.999Z</time></trkpt><trkpt lat="44.506675421789794" lon="7.902658380732631"><ele>260.0</ele><time>2026-04-03T07:32:07.999Z</time></trkpt><trkpt lat="44.506676282309705" lon="7.9028915089313685"><ele>260.0</ele><time>2026-04-03T07:32:08.999Z</time></trkpt><trkpt lat="44.50667460552271" lon="7.9031291031636695"><ele>260.0</ele><time>2026-04-03T07:32:09.999Z</time></trkpt><trkpt lat="44.5066711906493" lon="7.903365106721828"><ele>260.0</ele><time>2026-04-03T07:32:10.999Z</time></trkpt><trkpt lat="44.50666813726446" lon="7.90360026303258"><ele>260.0</ele><time>2026-04-03T07:32:11.999Z</time></trkpt><trkpt lat="44.50666711256741" lon="7.903838288240805"><ele>260.0</ele><time>2026-04-03T07:32:12.999Z</time></trkpt><trkpt lat="44.506665050228655" lon="7.904085958069042"><ele>260.0</ele><time>2026-04-03T07:32:13.999Z</time></trkpt><trkpt lat="44.506668218155724" lon="7.904315591689628"><ele>259.6666666666667</ele><time>2026-04-03T07:32:14.999Z</time></trkpt><trkpt lat="44.50666780800307" lon="7.904543478727704"><ele>259.3333333333333</ele><time>2026-04-03T07:32:15.999Z</time></trkpt><trkpt lat="44.50666653789107" lon="7.904760557254169"><ele>259.0</ele><time>2026-04-03T07:32:16.999Z</time></trkpt><trkpt lat="44.506668911430204" lon="7.904968959738302"><ele>259.0</ele><time>2026-04-03T07:32:17.999Z</time></trkpt><trkpt lat="44.506677116945006" lon="7.905178552910852"><ele>259.0</ele><time>2026-04-03T07:32:18.999Z</time></trkpt><trkpt lat="44.50669923730577" lon="7.905388862850182"><ele>259.0</ele><time>2026-04-03T07:32:19.999Z</time></trkpt><trkpt lat="44.50671431382353" lon="7.905602003545121"><ele>259.0</ele><time>2026-04-03T07:32:20.999Z</time></trkpt><trkpt lat="44.50674643501055" lon="7.90580474903627"><ele>259.0</ele><time>2026-04-03T07:32:21.999Z</time></trkpt><trkpt lat="44.506779960887336" lon="7.905999204477291"><ele>259.0</ele><time>2026-04-03T07:32:22.999Z</time></trkpt><trkpt lat="44.50683039216202" lon="7.906190008087718"><ele>259.0</ele><time>2026-04-03T07:32:23.999Z</time></trkpt><trkpt lat="44.50685721023763" lon="7.906382710864963"><ele>259.5</ele><time>2026-04-03T07:32:24.999Z</time></trkpt><trkpt lat="44.50689631096832" lon="7.906561374462387"><ele>260.0</ele><time>2026-04-03T07:32:25.999Z</time></trkpt><trkpt lat="44.506941188755306" lon="7.906733402470342"><ele>260.5</ele><time>2026-04-03T07:32:26.999Z</time></trkpt><trkpt lat="44.50698014215752" lon="7.90691405601582"><ele>261.0</ele><time>2026-04-03T07:32:27.999Z</time></trkpt><trkpt lat="44.507062822296255" lon="7.907071709316932"><ele>261.25</ele><time>2026-04-03T07:32:28.999Z</time></trkpt><trkpt lat="44.507137706788406" lon="7.907238888269372"><ele>261.5</ele><time>2026-04-03T07:32:29.999Z</time></trkpt><trkpt lat="44.5072211977438" lon="7.907407720280395"><ele>261.75</ele><time>2026-04-03T07:32:30.999Z</time></trkpt><trkpt lat="44.5073172540632" lon="7.9075598223455605"><ele>262.0</ele><time>2026-04-03T07:32:31.999Z</time></trkpt><trkpt lat="44.50742721929655" lon="7.9077043378159955"><ele>261.3333333333333</ele><time>2026-04-03T07:32:32.999Z</time></trkpt><trkpt lat="44.507550447894026" lon="7.907836765456556"><ele>260.6666666666667</ele><time>2026-04-03T07:32:33.999Z</time></trkpt><trkpt lat="44.50768222385765" lon="7.907960044771137"><ele>260.0</ele><time>2026-04-03T07:32:34.999Z</time></trkpt><trkpt lat="44.50781243221301" lon="7.90807690793006"><ele>256.6666666666667</ele><time>2026-04-03T07:32:35.999Z</time></trkpt><trkpt lat="44.5079488728441" lon="7.908189216499616"><ele>253.33333333333331</ele><time>2026-04-03T07:32:36.999Z</time></trkpt><trkpt lat="44.50807730543738" lon="7.908295237761691"><ele>250.0</ele><time>2026-04-03T07:32:37.999Z</time></trkpt><trkpt lat="44.50821296099445" lon="7.908390639830335"><ele>249.25</ele><time>2026-04-03T07:32:38.999Z</time></trkpt><trkpt lat="44.50834078166623" lon="7.908484106298408"><ele>248.5</ele><time>2026-04-03T07:32:39.999Z</time></trkpt><trkpt lat="44.50847704280246" lon="7.908564845321775"><ele>247.75</ele><time>2026-04-03T07:32:40.999Z</time></trkpt><trkpt lat="44.50860123652014" lon="7.908631483796774"><ele>247.0</ele><time>2026-04-03T07:32:41.999Z</time></trkpt><trkpt lat="44.50873128081612" lon="7.908701471093074"><ele>246.75</ele><time>2026-04-03T07:32:42.999Z</time></trkpt><trkpt lat="44.50885548834442" lon="7.908795809881107"><ele>246.5</ele><time>2026-04-03T07:32:43.999Z</time></trkpt><trkpt lat="44.50895847372394" lon="7.908878281296614"><ele>246.25</ele><time>2026-04-03T07:32:44.999Z</time></trkpt><trkpt lat="44.50906245127445" lon="7.9089702721799116"><ele>246.0</ele><time>2026-04-03T07:32:45.999Z</time></trkpt><trkpt lat="44.50915323853983" lon="7.909083069313355"><ele>246.0</ele><time>2026-04-03T07:32:46.999Z</time></trkpt><trkpt lat="44.50922890628844" lon="7.909232616972579"><ele>246.0</ele><time>2026-04-03T07:32:47.999Z</time></trkpt><trkpt lat="44.50932407479942" lon="7.909343181552701"><ele>246.0</ele><time>2026-04-03T07:32:48.999Z</time></trkpt><trkpt lat="44.5094124174503" lon="7.9094633874178895"><ele>246.0</ele><time>2026-04-03T07:32:49.999Z</time></trkpt><trkpt lat="44.50949876154728" lon="7.9095481627947875"><ele>245.0</ele><time>2026-04-03T07:32:50.999Z</time></trkpt><trkpt lat="44.509588999008606" lon="7.9096419776050935"><ele>244.00000000000003</ele><time>2026-04-03T07:32:51.999Z</time></trkpt><trkpt lat="44.50967287536094" lon="7.909707146720853"><ele>243.00000000000003</ele><time>2026-04-03T07:32:52.999Z</time></trkpt><trkpt lat="44.50975219039011" lon="7.909782829808123"><ele>242.0</ele><time>2026-04-03T07:32:53.999Z</time></trkpt><trkpt lat="44.509839061104586" lon="7.909859048844791"><ele>241.0</ele><time>2026-04-03T07:32:54.999Z</time></trkpt><trkpt lat="44.509933823461324" lon="7.909944239012895"><ele>241.0</ele><time>2026-04-03T07:32:55.999Z</time></trkpt><trkpt lat="44.51002798388776" lon="7.910019475297235"><ele>241.00000000000003</ele><time>2026-04-03T07:32:56.999Z</time></trkpt><trkpt lat="44.510122821622254" lon="7.910107204417563"><ele>241.00000000000003</ele><time>2026-04-03T07:32:57.999Z</time></trkpt><trkpt lat="44.51021453072005" lon="7.910183227171918"><ele>241.0</ele><time>2026-04-03T07:32:58.999Z</time></trkpt><trkpt lat="44.510303531370106" lon="7.910256726848032"><ele>241.0</ele><time>2026-04-03T07:32:59.999Z</time></trkpt><trkpt lat="44.51039338366639" lon="7.910334411825779"><ele>242.0</ele><time>2026-04-03T07:33:00.999Z</time></trkpt><trkpt lat="44.51048384049749" lon="7.91041104623628"><ele>243.00000000000003</ele><time>2026-04-03T07:33:01.999Z</time></trkpt><trkpt lat="44.51057648516005" lon="7.910477005500573"><ele>244.00000000000003</ele><time>2026-04-03T07:33:02.998Z</time></trkpt><trkpt lat="44.510667444222385" lon="7.910561938086799"><ele>245.0</ele><time>2026-04-03T07:33:03.998Z</time></trkpt><trkpt lat="44.510757698303635" lon="7.910643663503625"><ele>246.0</ele><time>2026-04-03T07:33:04.998Z</time></trkpt><trkpt lat="44.5108453249446" lon="7.910713984269668"><ele>246.0</ele><time>2026-04-03T07:33:05.998Z</time></trkpt><trkpt lat="44.51093375942893" lon="7.910801131547977"><ele>246.00000000000003</ele><time>2026-04-03T07:33:06.998Z</time></trkpt><trkpt lat="44.511014218278845" lon="7.910864980515318"><ele>246.00000000000003</ele><time>2026-04-03T07:33:07.998Z</time></trkpt><trkpt lat="44.51107510323293" lon="7.910947187976674"><ele>246.0</ele><time>2026-04-03T07:33:08.998Z</time></trkpt><trkpt lat="44.5111267711963" lon="7.911007320580697"><ele>246.0</ele><time>2026-04-03T07:33:09.998Z</time></trkpt><trkpt lat="44.511226222221005" lon="7.911095679236858"><ele>247.66666666666666</ele><time>2026-04-03T07:33:11.998Z</time></trkpt><trkpt lat="44.51132772368323" lon="7.911055925710485"><ele>249.33333333333331</ele><time>2026-04-03T07:33:13.998Z</time></trkpt><trkpt lat="44.51136178996322" lon="7.910979347420368"><ele>251.0</ele><time>2026-04-03T07:33:14.998Z</time></trkpt><trkpt lat="44.51136628603196" lon="7.910876286392753"><ele>252.66666666666666</ele><time>2026-04-03T07:33:15.998Z</time></trkpt><trkpt lat="44.51139505240255" lon="7.910759988695056"><ele>254.33333333333331</ele><time>2026-04-03T07:33:16.998Z</time></trkpt><trkpt lat="44.51143883284551" lon="7.91063577403213"><ele>256.0</ele><time>2026-04-03T07:33:17.998Z</time></trkpt><trkpt lat="44.51149334111497" lon="7.9105118258427005"><ele>256.0</ele><time>2026-04-03T07:33:18.998Z</time></trkpt><trkpt lat="44.51154852946237" lon="7.910391218849564"><ele>256.0</ele><time>2026-04-03T07:33:19.998Z</time></trkpt><trkpt lat="44.511591196577825" lon="7.910254287723377"><ele>256.0</ele><time>2026-04-03T07:33:20.998Z</time></trkpt><trkpt lat="44.51163577479563" lon="7.910132612248877"><ele>256.0</ele><time>2026-04-03T07:33:21.998Z</time></trkpt><trkpt lat="44.51167096365739" lon="7.910024373119046"><ele>256.0</ele><time>2026-04-03T07:33:22.998Z</time></trkpt><trkpt lat="44.51170257846735" lon="7.909938217949465"><ele>255.99999999999997</ele><time>2026-04-03T07:33:23.998Z</time></trkpt><trkpt lat="44.51175231263738" lon="7.909802798839394"><ele>256.0</ele><time>2026-04-03T07:33:26Z</time></trkpt><trkpt lat="44.51182722967768" lon="7.9097726837764615"><ele>256.0</ele><time>2026-04-03T07:33:30Z</time></trkpt><trkpt lat="44.51184117698556" lon="7.909941044928833"><ele>256.0</ele><time>2026-04-03T07:33:32Z</time></trkpt><trkpt lat="44.511845076162324" lon="7.910041138452277"><ele>255.99999999999997</ele><time>2026-04-03T07:33:33Z</time></trkpt><trkpt lat="44.51185026025669" lon="7.910134235810603"><ele>256.0</ele><time>2026-04-03T07:33:34Z</time></trkpt><trkpt lat="44.5118418054798" lon="7.910312998050964"><ele>255.99999999999997</ele><time>2026-04-03T07:33:36Z</time></trkpt><trkpt lat="44.51181168875331" lon="7.910424914171632"><ele>256.0</ele><time>2026-04-03T07:33:37Z</time></trkpt><trkpt lat="44.511776915639224" lon="7.910543581796026"><ele>256.0</ele><time>2026-04-03T07:33:38Z</time></trkpt><trkpt lat="44.511737631904225" lon="7.910634505740391"><ele>256.0</ele><time>2026-04-03T07:33:39Z</time></trkpt><trkpt lat="44.511729718917955" lon="7.91074699083551"><ele>255.99999999999997</ele><time>2026-04-03T07:33:40Z</time></trkpt><trkpt lat="44.511721114997236" lon="7.910866614709244"><ele>256.0</ele><time>2026-04-03T07:33:41Z</time></trkpt><trkpt lat="44.5117332555269" lon="7.9109903897659"><ele>256.3333333333333</ele><time>2026-04-03T07:33:42Z</time></trkpt><trkpt lat="44.51174970269328" lon="7.911096442944297"><ele>256.66666666666663</ele><time>2026-04-03T07:33:43Z</time></trkpt><trkpt lat="44.51176702964299" lon="7.911193341452422"><ele>257.0</ele><time>2026-04-03T07:33:44Z</time></trkpt><trkpt lat="44.51178294440521" lon="7.911325283712104"><ele>257.3333333333333</ele><time>2026-04-03T07:33:45Z</time></trkpt><trkpt lat="44.511801205266224" lon="7.9114493396482795"><ele>257.6666666666667</ele><time>2026-04-03T07:33:46Z</time></trkpt><trkpt lat="44.511816791093956" lon="7.911575110520482"><ele>258.0</ele><time>2026-04-03T07:33:47Z</time></trkpt><trkpt lat="44.51184720804154" lon="7.911739364347293"><ele>258.5</ele><time>2026-04-03T07:33:49Z</time></trkpt><trkpt lat="44.511850260493055" lon="7.911892667383756"><ele>259.0</ele><time>2026-04-03T07:33:51Z</time></trkpt><trkpt lat="44.51186299090171" lon="7.911986030997814"><ele>259.5</ele><time>2026-04-03T07:33:52Z</time></trkpt><trkpt lat="44.51188394087227" lon="7.912101239827407"><ele>260.0</ele><time>2026-04-03T07:33:53Z</time></trkpt><trkpt lat="44.511893628527744" lon="7.912210954322212"><ele>260.5</ele><time>2026-04-03T07:33:54Z</time></trkpt><trkpt lat="44.511894418084445" lon="7.912305743330263"><ele>261.0</ele><time>2026-04-03T07:33:55Z</time></trkpt><trkpt lat="44.51192027875834" lon="7.912416718522503"><ele>261.0</ele><time>2026-04-03T07:33:56Z</time></trkpt><trkpt lat="44.51194459252782" lon="7.912526569800126"><ele>261.0</ele><time>2026-04-03T07:33:57Z</time></trkpt><trkpt lat="44.51197123176648" lon="7.912630995608925"><ele>261.0</ele><time>2026-04-03T07:33:58Z</time></trkpt><trkpt lat="44.51199621830798" lon="7.912724273644419"><ele>261.0</ele><time>2026-04-03T07:33:59Z</time></trkpt><trkpt lat="44.51202205466477" lon="7.91282911585983"><ele>261.0</ele><time>2026-04-03T07:34:00Z</time></trkpt><trkpt lat="44.512044557608334" lon="7.912925248096531"><ele>261.0</ele><time>2026-04-03T07:34:01Z</time></trkpt><trkpt lat="44.51207783012634" lon="7.913043651472734"><ele>261.1666666666667</ele><time>2026-04-03T07:34:02Z</time></trkpt><trkpt lat="44.51210802333216" lon="7.913167787235811"><ele>261.3333333333333</ele><time>2026-04-03T07:34:03Z</time></trkpt><trkpt lat="44.51213706855987" lon="7.913254522028901"><ele>261.5</ele><time>2026-04-03T07:34:04Z</time></trkpt><trkpt lat="44.51216134688942" lon="7.913352667689288"><ele>261.66666666666663</ele><time>2026-04-03T07:34:05Z</time></trkpt><trkpt lat="44.51218481275021" lon="7.913521979038982"><ele>261.8333333333333</ele><time>2026-04-03T07:34:07Z</time></trkpt><trkpt lat="44.51219463275742" lon="7.91361364548456"><ele>262.0</ele><time>2026-04-03T07:34:08Z</time></trkpt><trkpt lat="44.512191648169534" lon="7.913738529922512"><ele>262.5</ele><time>2026-04-03T07:34:09Z</time></trkpt><trkpt lat="44.51218755782643" lon="7.913905517911383"><ele>263.0</ele><time>2026-04-03T07:34:10.999Z</time></trkpt><trkpt lat="44.5121516669409" lon="7.914072947019383"><ele>263.5</ele><time>2026-04-03T07:34:12.999Z</time></trkpt><trkpt lat="44.51203839531917" lon="7.914254722345523"><ele>264.0</ele><time>2026-04-03T07:34:14.999Z</time></trkpt><trkpt lat="44.51195380167586" lon="7.91431923393511"><ele>264.59999999999997</ele><time>2026-04-03T07:34:15.999Z</time></trkpt><trkpt lat="44.511884713650275" lon="7.914428468473222"><ele>265.2</ele><time>2026-04-03T07:34:16.999Z</time></trkpt><trkpt lat="44.51180670733529" lon="7.914540999218101"><ele>265.79999999999995</ele><time>2026-04-03T07:34:17.999Z</time></trkpt><trkpt lat="44.51171839529958" lon="7.914655530574863"><ele>266.4</ele><time>2026-04-03T07:34:18.999Z</time></trkpt><trkpt lat="44.51165181864315" lon="7.914755151915989"><ele>267.0</ele><time>2026-04-03T07:34:19.999Z</time></trkpt><trkpt lat="44.51157952071456" lon="7.914855500065176"><ele>267.0</ele><time>2026-04-03T07:34:20.999Z</time></trkpt><trkpt lat="44.51151026811391" lon="7.914948360882573"><ele>267.0</ele><time>2026-04-03T07:34:21.999Z</time></trkpt><trkpt lat="44.511451618021404" lon="7.9150195659706375"><ele>267.0</ele><time>2026-04-03T07:34:22.999Z</time></trkpt><trkpt lat="44.511385041359055" lon="7.915084035559825"><ele>267.0</ele><time>2026-04-03T07:34:23.999Z</time></trkpt><trkpt lat="44.511320829036116" lon="7.915143875187948"><ele>267.0</ele><time>2026-04-03T07:34:24.999Z</time></trkpt><trkpt lat="44.51126674725958" lon="7.9152041640293405"><ele>267.0</ele><time>2026-04-03T07:34:25.999Z</time></trkpt><trkpt lat="44.51121300615963" lon="7.9152568265381555"><ele>267.8333333333333</ele><time>2026-04-03T07:34:26.999Z</time></trkpt><trkpt lat="44.5111177336778" lon="7.915285936595872"><ele>268.6666666666667</ele><time>2026-04-03T07:34:28.999Z</time></trkpt><trkpt lat="44.51106307073217" lon="7.9153430020092745"><ele>269.5</ele><time>2026-04-03T07:34:30.999Z</time></trkpt><trkpt lat="44.511048781348336" lon="7.915438409683538"><ele>270.33333333333337</ele><time>2026-04-03T07:34:38.999Z</time></trkpt><trkpt lat="44.511035606970374" lon="7.915549342846241"><ele>271.1666666666667</ele><time>2026-04-03T07:34:40.999Z</time></trkpt><trkpt lat="44.51107521306204" lon="7.915687408164874"><ele>272.0</ele><time>2026-04-03T07:34:42.999Z</time></trkpt><trkpt lat="44.51112073632764" lon="7.915864908416628"><ele>272.0</ele><time>2026-04-03T07:34:44.999Z</time></trkpt><trkpt lat="44.51114433253484" lon="7.915966739256809"><ele>272.0</ele><time>2026-04-03T07:34:45.999Z</time></trkpt><trkpt lat="44.51116193480521" lon="7.916054303310618"><ele>272.0</ele><time>2026-04-03T07:34:46.999Z</time></trkpt><trkpt lat="44.511196474289385" lon="7.916226460006067"><ele>272.0</ele><time>2026-04-03T07:34:48.999Z</time></trkpt><trkpt lat="44.511214470780104" lon="7.9163309094216885"><ele>272.0</ele><time>2026-04-03T07:34:49.999Z</time></trkpt><trkpt lat="44.51124122726992" lon="7.916421253193357"><ele>272.0</ele><time>2026-04-03T07:34:50.999Z</time></trkpt><trkpt lat="44.5112724329542" lon="7.916580222249087"><ele>271.99999999999994</ele><time>2026-04-03T07:34:52.999Z</time></trkpt><trkpt lat="44.51129429003829" lon="7.916668318283213"><ele>272.0</ele><time>2026-04-03T07:34:53.999Z</time></trkpt><trkpt lat="44.51130545258437" lon="7.916780578578822"><ele>272.0</ele><time>2026-04-03T07:34:54.999Z</time></trkpt><trkpt lat="44.51132803682162" lon="7.916871434854568"><ele>272.0</ele><time>2026-04-03T07:34:55.999Z</time></trkpt><trkpt lat="44.511341972847156" lon="7.916970295284092"><ele>272.0</ele><time>2026-04-03T07:34:56.999Z</time></trkpt><trkpt lat="44.51135888767415" lon="7.9170699663385635"><ele>271.99999999999994</ele><time>2026-04-03T07:34:57.999Z</time></trkpt><trkpt lat="44.5113852349423" lon="7.917165223569209"><ele>272.0</ele><time>2026-04-03T07:34:58.999Z</time></trkpt><trkpt lat="44.51141063497201" lon="7.917262766787143"><ele>272.57142857142856</ele><time>2026-04-03T07:34:59.999Z</time></trkpt><trkpt lat="44.51143610827844" lon="7.917350220216431"><ele>273.1428571428571</ele><time>2026-04-03T07:35:00.999Z</time></trkpt><trkpt lat="44.51146327531913" lon="7.917442774310745"><ele>273.7142857142857</ele><time>2026-04-03T07:35:01.999Z</time></trkpt><trkpt lat="44.51149826146684" lon="7.9175338198008935"><ele>274.2857142857143</ele><time>2026-04-03T07:35:02.999Z</time></trkpt><trkpt lat="44.51154639433506" lon="7.917620778918668"><ele>274.8571428571429</ele><time>2026-04-03T07:35:03.999Z</time></trkpt><trkpt lat="44.51160726979546" lon="7.917652401157788"><ele>275.42857142857144</ele><time>2026-04-03T07:35:04.999Z</time></trkpt><trkpt lat="44.511677873152614" lon="7.917706084694791"><ele>276.0</ele><time>2026-04-03T07:35:05.999Z</time></trkpt><trkpt lat="44.51175148326893" lon="7.9177476165024325"><ele>277.0</ele><time>2026-04-03T07:35:06.999Z</time></trkpt><trkpt lat="44.51182089486386" lon="7.917778220224775"><ele>278.0</ele><time>2026-04-03T07:35:07.998Z</time></trkpt><trkpt lat="44.511905711034935" lon="7.917769702541799"><ele>279.0</ele><time>2026-04-03T07:35:08.998Z</time></trkpt><trkpt lat="44.511987194622" lon="7.917745284901245"><ele>280.0</ele><time>2026-04-03T07:35:09.998Z</time></trkpt><trkpt lat="44.51205482088324" lon="7.917740863068902"><ele>281.0</ele><time>2026-04-03T07:35:10.998Z</time></trkpt><trkpt lat="44.51213524111124" lon="7.917720202317152"><ele>282.0</ele><time>2026-04-03T07:35:11.998Z</time></trkpt><trkpt lat="44.51220508170384" lon="7.917679949612823"><ele>282.3333333333333</ele><time>2026-04-03T07:35:12.998Z</time></trkpt><trkpt lat="44.512272984912194" lon="7.917651231459644"><ele>282.6666666666667</ele><time>2026-04-03T07:35:13.998Z</time></trkpt><trkpt lat="44.51235595214501" lon="7.917623199620616"><ele>283.0</ele><time>2026-04-03T07:35:14.998Z</time></trkpt><trkpt lat="44.51243805977039" lon="7.917589431257043"><ele>283.33333333333337</ele><time>2026-04-03T07:35:15.998Z</time></trkpt><trkpt lat="44.51250921953725" lon="7.917549812467729"><ele>283.6666666666667</ele><time>2026-04-03T07:35:16.998Z</time></trkpt><trkpt lat="44.51258463312511" lon="7.91751742503199"><ele>284.0</ele><time>2026-04-03T07:35:17.998Z</time></trkpt><trkpt lat="44.512648019076444" lon="7.917504920486096"><ele>284.0</ele><time>2026-04-03T07:35:18.998Z</time></trkpt><trkpt lat="44.51271172266293" lon="7.917473272784108"><ele>284.0</ele><time>2026-04-03T07:35:19.998Z</time></trkpt><trkpt lat="44.51277756226217" lon="7.917433596412718"><ele>284.0</ele><time>2026-04-03T07:35:20.998Z</time></trkpt><trkpt lat="44.51286988609601" lon="7.917370154487003"><ele>284.0</ele><time>2026-04-03T07:35:21.998Z</time></trkpt><trkpt lat="44.512944663696075" lon="7.917364023851909"><ele>284.0</ele><time>2026-04-03T07:35:22.998Z</time></trkpt><trkpt lat="44.5130367745543" lon="7.9173401796769785"><ele>284.0</ele><time>2026-04-03T07:35:23.998Z</time></trkpt><trkpt lat="44.51321587143835" lon="7.917365414433981"><ele>285.4</ele><time>2026-04-03T07:35:25.998Z</time></trkpt><trkpt lat="44.513318508356036" lon="7.917373635766558"><ele>286.79999999999995</ele><time>2026-04-03T07:35:26.998Z</time></trkpt><trkpt lat="44.513417615308306" lon="7.917376604411424"><ele>288.20000000000005</ele><time>2026-04-03T07:35:27.998Z</time></trkpt><trkpt lat="44.513512205430295" lon="7.917392341415791"><ele>289.6</ele><time>2026-04-03T07:35:28.998Z</time></trkpt><trkpt lat="44.51362958096104" lon="7.917413962664398"><ele>291.0</ele><time>2026-04-03T07:35:29.998Z</time></trkpt><trkpt lat="44.51373701883981" lon="7.9174355916856385"><ele>291.75</ele><time>2026-04-03T07:35:31Z</time></trkpt><trkpt lat="44.513856814450115" lon="7.917466078050833"><ele>292.5</ele><time>2026-04-03T07:35:32Z</time></trkpt><trkpt lat="44.5139608044737" lon="7.917504001008934"><ele>293.25</ele><time>2026-04-03T07:35:33Z</time></trkpt><trkpt lat="44.51406846281757" lon="7.917578461497362"><ele>294.0</ele><time>2026-04-03T07:35:34Z</time></trkpt><trkpt lat="44.51415573138787" lon="7.917666611436839"><ele>297.2</ele><time>2026-04-03T07:35:35Z</time></trkpt><trkpt lat="44.514237404155914" lon="7.917755882615468"><ele>300.4</ele><time>2026-04-03T07:35:36Z</time></trkpt><trkpt lat="44.51430181339635" lon="7.9178318621832116"><ele>303.6</ele><time>2026-04-03T07:35:37Z</time></trkpt><trkpt lat="44.514379148876266" lon="7.917891300692374"><ele>306.8</ele><time>2026-04-03T07:35:38Z</time></trkpt><trkpt lat="44.51446284777123" lon="7.9179329627415065"><ele>310.0</ele><time>2026-04-03T07:35:39Z</time></trkpt><trkpt lat="44.51456397499385" lon="7.917900130248224"><ele>311.75</ele><time>2026-04-03T07:35:40Z</time></trkpt><trkpt lat="44.51467175020944" lon="7.91785401675328"><ele>313.5</ele><time>2026-04-03T07:35:41Z</time></trkpt><trkpt lat="44.51476800014875" lon="7.917787879979223"><ele>315.25</ele><time>2026-04-03T07:35:42Z</time></trkpt><trkpt lat="44.51485182188233" lon="7.917673942190346"><ele>317.0</ele><time>2026-04-03T07:35:43Z</time></trkpt><trkpt lat="44.514943503731985" lon="7.917575976646863"><ele>313.8</ele><time>2026-04-03T07:35:44Z</time></trkpt><trkpt lat="44.51505894734224" lon="7.917495585995859"><ele>310.6</ele><time>2026-04-03T07:35:45Z</time></trkpt><trkpt lat="44.51514540416292" lon="7.917429628536826"><ele>307.40000000000003</ele><time>2026-04-03T07:35:46Z</time></trkpt><trkpt lat="44.51521411410494" lon="7.917370978462352"><ele>304.2</ele><time>2026-04-03T07:35:47Z</time></trkpt><trkpt lat="44.51528668750215" lon="7.91732348695869"><ele>301.0</ele><time>2026-04-03T07:35:48Z</time></trkpt><trkpt lat="44.515390067782135" lon="7.9173063194027735"><ele>302.5</ele><time>2026-04-03T07:35:50Z</time></trkpt><trkpt lat="44.51546841792222" lon="7.9173920488353415"><ele>304.0</ele><time>2026-04-03T07:35:52Z</time></trkpt><trkpt lat="44.515440264420235" lon="7.91753735997414"><ele>305.5</ele><time>2026-04-03T07:35:54Z</time></trkpt><trkpt lat="44.51538766918433" lon="7.917608368931092"><ele>307.0</ele><time>2026-04-03T07:35:55Z</time></trkpt><trkpt lat="44.51532387941237" lon="7.9176518165316425"><ele>308.5</ele><time>2026-04-03T07:35:56Z</time></trkpt><trkpt lat="44.51525034904685" lon="7.917701440140476"><ele>310.0</ele><time>2026-04-03T07:35:57Z</time></trkpt><trkpt lat="44.51516394310297" lon="7.917749232993637"><ele>311.4</ele><time>2026-04-03T07:35:58Z</time></trkpt><trkpt lat="44.51508729770744" lon="7.917805173812881"><ele>312.8</ele><time>2026-04-03T07:35:59Z</time></trkpt><trkpt lat="44.51500367254458" lon="7.917881069995802"><ele>314.2</ele><time>2026-04-03T07:36:00Z</time></trkpt><trkpt lat="44.51493149894843" lon="7.917980263056349"><ele>315.6</ele><time>2026-04-03T07:36:01Z</time></trkpt><trkpt lat="44.514861624709326" lon="7.918091622222568"><ele>317.0</ele><time>2026-04-03T07:36:02Z</time></trkpt><trkpt lat="44.51480446390316" lon="7.918221891618212"><ele>317.0</ele><time>2026-04-03T07:36:03Z</time></trkpt><trkpt lat="44.514760771597516" lon="7.918360911975934"><ele>317.0</ele><time>2026-04-03T07:36:04Z</time></trkpt><trkpt lat="44.51471728008836" lon="7.918526489224172"><ele>317.0</ele><time>2026-04-03T07:36:05Z</time></trkpt><trkpt lat="44.51467934757694" lon="7.918707425919458"><ele>317.0</ele><time>2026-04-03T07:36:06Z</time></trkpt><trkpt lat="44.51465050139412" lon="7.918862971381059"><ele>318.5</ele><time>2026-04-03T07:36:07Z</time></trkpt><trkpt lat="44.514604910832624" lon="7.91899946345979"><ele>320.0</ele><time>2026-04-03T07:36:08Z</time></trkpt><trkpt lat="44.51456100468924" lon="7.919133725336157"><ele>321.5</ele><time>2026-04-03T07:36:09Z</time></trkpt><trkpt lat="44.51449301665479" lon="7.919282285592905"><ele>323.0</ele><time>2026-04-03T07:36:10Z</time></trkpt><trkpt lat="44.514419468495824" lon="7.919406404876005"><ele>324.2</ele><time>2026-04-03T07:36:11Z</time></trkpt><trkpt lat="44.51434093544258" lon="7.919485345457598"><ele>325.4</ele><time>2026-04-03T07:36:12Z</time></trkpt><trkpt lat="44.514269079041306" lon="7.919560575798585"><ele>326.59999999999997</ele><time>2026-04-03T07:36:13Z</time></trkpt><trkpt lat="44.514211542938135" lon="7.919627631290435"><ele>327.79999999999995</ele><time>2026-04-03T07:36:14Z</time></trkpt><trkpt lat="44.514143473880544" lon="7.919708121984561"><ele>329.0</ele><time>2026-04-03T07:36:14.999Z</time></trkpt><trkpt lat="44.51406326448999" lon="7.919799464165895"><ele>329.0</ele><time>2026-04-03T07:36:15.999Z</time></trkpt><trkpt lat="44.513980586945145" lon="7.919911200863691"><ele>329.0</ele><time>2026-04-03T07:36:16.999Z</time></trkpt><trkpt lat="44.513912892591264" lon="7.9200424753214635"><ele>329.0</ele><time>2026-04-03T07:36:17.999Z</time></trkpt><trkpt lat="44.513851400976726" lon="7.920190606239303"><ele>329.0</ele><time>2026-04-03T07:36:18.999Z</time></trkpt><trkpt lat="44.51378236975195" lon="7.9203551870301565"><ele>330.0</ele><time>2026-04-03T07:36:19.999Z</time></trkpt><trkpt lat="44.51371307484726" lon="7.9205377689277725"><ele>331.0</ele><time>2026-04-03T07:36:20.999Z</time></trkpt><trkpt lat="44.51365684059508" lon="7.920726346886731"><ele>332.0</ele><time>2026-04-03T07:36:21.999Z</time></trkpt><trkpt lat="44.51361572536259" lon="7.920929922387967"><ele>333.0</ele><time>2026-04-03T07:36:22.999Z</time></trkpt><trkpt lat="44.51357118514357" lon="7.921139693849103"><ele>333.0</ele><time>2026-04-03T07:36:23.999Z</time></trkpt><trkpt lat="44.51352440645941" lon="7.921365622488056"><ele>333.0</ele><time>2026-04-03T07:36:24.999Z</time></trkpt><trkpt lat="44.51348090982322" lon="7.921597155532225"><ele>333.0</ele><time>2026-04-03T07:36:25.999Z</time></trkpt><trkpt lat="44.51343329997324" lon="7.9218306484295935"><ele>332.6666666666667</ele><time>2026-04-03T07:36:26.999Z</time></trkpt><trkpt lat="44.51338700403957" lon="7.922056853593594"><ele>332.33333333333337</ele><time>2026-04-03T07:36:27.999Z</time></trkpt><trkpt lat="44.513343310915126" lon="7.922299720184085"><ele>332.0</ele><time>2026-04-03T07:36:28.999Z</time></trkpt><trkpt lat="44.513297420318736" lon="7.922546975280296"><ele>333.0</ele><time>2026-04-03T07:36:29.999Z</time></trkpt><trkpt lat="44.51324942928122" lon="7.922795214953971"><ele>334.0</ele><time>2026-04-03T07:36:30.999Z</time></trkpt><trkpt lat="44.51320617168182" lon="7.923048292399539"><ele>335.0</ele><time>2026-04-03T07:36:31.999Z</time></trkpt><trkpt lat="44.51316024802851" lon="7.923308662447409"><ele>334.6666666666667</ele><time>2026-04-03T07:36:32.999Z</time></trkpt><trkpt lat="44.51311114622351" lon="7.923570629784596"><ele>334.3333333333333</ele><time>2026-04-03T07:36:33.999Z</time></trkpt><trkpt lat="44.513062735304985" lon="7.923837277689101"><ele>334.0</ele><time>2026-04-03T07:36:34.999Z</time></trkpt><trkpt lat="44.513014182568796" lon="7.9240992138363096"><ele>333.66666666666663</ele><time>2026-04-03T07:36:35.999Z</time></trkpt><trkpt lat="44.51296384673662" lon="7.924368987776502"><ele>333.3333333333333</ele><time>2026-04-03T07:36:36.999Z</time></trkpt><trkpt lat="44.51291830966341" lon="7.924623358593188"><ele>333.0</ele><time>2026-04-03T07:36:37.999Z</time></trkpt><trkpt lat="44.51287447550134" lon="7.924871977666315"><ele>334.3333333333333</ele><time>2026-04-03T07:36:38.999Z</time></trkpt><trkpt lat="44.51283207450853" lon="7.925124378446826"><ele>335.66666666666663</ele><time>2026-04-03T07:36:39.999Z</time></trkpt><trkpt lat="44.51280208091337" lon="7.925378817079167"><ele>337.0</ele><time>2026-04-03T07:36:40.999Z</time></trkpt><trkpt lat="44.51278763190478" lon="7.925629837898764"><ele>337.0</ele><time>2026-04-03T07:36:41.999Z</time></trkpt><trkpt lat="44.51278424993158" lon="7.92589042905682"><ele>337.0</ele><time>2026-04-03T07:36:42.999Z</time></trkpt><trkpt lat="44.51279479607021" lon="7.92614650881575"><ele>337.0</ele><time>2026-04-03T07:36:43.999Z</time></trkpt><trkpt lat="44.51282020829123" lon="7.926409295530387"><ele>337.0</ele><time>2026-04-03T07:36:44.999Z</time></trkpt><trkpt lat="44.51285267343666" lon="7.926676178680429"><ele>337.0</ele><time>2026-04-03T07:36:45.999Z</time></trkpt><trkpt lat="44.51289161937019" lon="7.9269425291121465"><ele>337.0</ele><time>2026-04-03T07:36:46.999Z</time></trkpt><trkpt lat="44.51293124195342" lon="7.9272143830196065"><ele>336.66666666666663</ele><time>2026-04-03T07:36:47.999Z</time></trkpt><trkpt lat="44.5129711122623" lon="7.927490418335939"><ele>336.3333333333333</ele><time>2026-04-03T07:36:48.999Z</time></trkpt><trkpt lat="44.51301317780289" lon="7.927770421340079"><ele>336.0</ele><time>2026-04-03T07:36:49.999Z</time></trkpt><trkpt lat="44.51305455798343" lon="7.928047533564583"><ele>336.0</ele><time>2026-04-03T07:36:50.999Z</time></trkpt><trkpt lat="44.51309326580214" lon="7.928309108927046"><ele>336.0</ele><time>2026-04-03T07:36:51.999Z</time></trkpt><trkpt lat="44.51313762438564" lon="7.928566944375044"><ele>336.0</ele><time>2026-04-03T07:36:52.999Z</time></trkpt><trkpt lat="44.513179003461524" lon="7.9288314425419895"><ele>335.6666666666667</ele><time>2026-04-03T07:36:53.999Z</time></trkpt><trkpt lat="44.51321950627801" lon="7.929099601018217"><ele>335.33333333333337</ele><time>2026-04-03T07:36:54.999Z</time></trkpt><trkpt lat="44.513260540938504" lon="7.929356491493642"><ele>335.0</ele><time>2026-04-03T07:36:55.999Z</time></trkpt><trkpt lat="44.513298924412375" lon="7.929617597098564"><ele>335.0</ele><time>2026-04-03T07:36:56.999Z</time></trkpt><trkpt lat="44.51333911118162" lon="7.9298727267834925"><ele>335.0</ele><time>2026-04-03T07:36:57.999Z</time></trkpt><trkpt lat="44.513363933108266" lon="7.930120163326536"><ele>335.0</ele><time>2026-04-03T07:36:58.999Z</time></trkpt><trkpt lat="44.51339937359785" lon="7.930351748227278"><ele>334.33333333333337</ele><time>2026-04-03T07:36:59.999Z</time></trkpt><trkpt lat="44.51343576841222" lon="7.9305895692397845"><ele>333.6666666666667</ele><time>2026-04-03T07:37:00.999Z</time></trkpt><trkpt lat="44.51347216362419" lon="7.930833565594256"><ele>333.0</ele><time>2026-04-03T07:37:01.999Z</time></trkpt><trkpt lat="44.513505678599486" lon="7.93108294714116"><ele>332.6666666666667</ele><time>2026-04-03T07:37:02.999Z</time></trkpt><trkpt lat="44.51352520791686" lon="7.93133740083413"><ele>332.33333333333337</ele><time>2026-04-03T07:37:03.999Z</time></trkpt><trkpt lat="44.5135314733194" lon="7.931592109258785"><ele>332.0</ele><time>2026-04-03T07:37:04.999Z</time></trkpt><trkpt lat="44.51351117945076" lon="7.931814718624832"><ele>332.0</ele><time>2026-04-03T07:37:05.999Z</time></trkpt><trkpt lat="44.51349613520387" lon="7.932021765088816"><ele>332.0</ele><time>2026-04-03T07:37:06.999Z</time></trkpt><trkpt lat="44.513499422496146" lon="7.93221678328706"><ele>332.0</ele><time>2026-04-03T07:37:07.999Z</time></trkpt><trkpt lat="44.51349070051735" lon="7.932403281884186"><ele>332.0</ele><time>2026-04-03T07:37:08.999Z</time></trkpt><trkpt lat="44.51349848000364" lon="7.932603491939689"><ele>333.25</ele><time>2026-04-03T07:37:09.999Z</time></trkpt><trkpt lat="44.51351966284401" lon="7.932794781376173"><ele>334.5</ele><time>2026-04-03T07:37:10.999Z</time></trkpt><trkpt lat="44.513554785228116" lon="7.932987416569701"><ele>335.75</ele><time>2026-04-03T07:37:11.998Z</time></trkpt><trkpt lat="44.51360242039069" lon="7.933165332306561"><ele>337.0</ele><time>2026-04-03T07:37:12.998Z</time></trkpt><trkpt lat="44.51366769316097" lon="7.933340899680846"><ele>337.75</ele><time>2026-04-03T07:37:13.998Z</time></trkpt><trkpt lat="44.51374436899573" lon="7.933504336415435"><ele>338.5</ele><time>2026-04-03T07:37:14.998Z</time></trkpt><trkpt lat="44.51382638574383" lon="7.9336673681179715"><ele>339.25</ele><time>2026-04-03T07:37:15.998Z</time></trkpt><trkpt lat="44.51390272190178" lon="7.933840304217023"><ele>340.0</ele><time>2026-04-03T07:37:16.998Z</time></trkpt><trkpt lat="44.513983087965045" lon="7.9340100756196055"><ele>340.0</ele><time>2026-04-03T07:37:17.998Z</time></trkpt><trkpt lat="44.514060144447015" lon="7.934197139183856"><ele>340.0</ele><time>2026-04-03T07:37:18.998Z</time></trkpt><trkpt lat="44.51414158118356" lon="7.934378614956383"><ele>340.0</ele><time>2026-04-03T07:37:19.998Z</time></trkpt><trkpt lat="44.514210860139265" lon="7.934565643370947"><ele>340.0</ele><time>2026-04-03T07:37:20.998Z</time></trkpt><trkpt lat="44.51428126451453" lon="7.934757742816605"><ele>340.0</ele><time>2026-04-03T07:37:21.998Z</time></trkpt><trkpt lat="44.514348335433446" lon="7.934967203294366"><ele>340.0</ele><time>2026-04-03T07:37:22.998Z</time></trkpt><trkpt lat="44.514398955470156" lon="7.9351915022948"><ele>340.0</ele><time>2026-04-03T07:37:23.998Z</time></trkpt><trkpt lat="44.51445400297286" lon="7.935403220640642"><ele>340.0</ele><time>2026-04-03T07:37:24.998Z</time></trkpt><trkpt lat="44.51449911609528" lon="7.93562551294424"><ele>340.0</ele><time>2026-04-03T07:37:25.998Z</time></trkpt><trkpt lat="44.51453423742437" lon="7.935844891397533"><ele>339.3333333333333</ele><time>2026-04-03T07:37:26.998Z</time></trkpt><trkpt lat="44.514566500627396" lon="7.936070445977346"><ele>338.6666666666667</ele><time>2026-04-03T07:37:27.998Z</time></trkpt><trkpt lat="44.51459627611655" lon="7.936294764635171"><ele>338.0</ele><time>2026-04-03T07:37:28.998Z</time></trkpt><trkpt lat="44.514624137877206" lon="7.936519451151617"><ele>341.33333333333337</ele><time>2026-04-03T07:37:29.998Z</time></trkpt><trkpt lat="44.5146566479153" lon="7.936742852778527"><ele>344.6666666666667</ele><time>2026-04-03T07:37:30.998Z</time></trkpt><trkpt lat="44.51468653294406" lon="7.936959514181162"><ele>348.0</ele><time>2026-04-03T07:37:31.998Z</time></trkpt><trkpt lat="44.514712521733266" lon="7.9371706455061055"><ele>348.0</ele><time>2026-04-03T07:37:32.998Z</time></trkpt><trkpt lat="44.51473692416914" lon="7.9373763042630285"><ele>348.0</ele><time>2026-04-03T07:37:33.998Z</time></trkpt><trkpt lat="44.51475635205857" lon="7.937581335577158"><ele>348.0</ele><time>2026-04-03T07:37:34.998Z</time></trkpt><trkpt lat="44.51478225303887" lon="7.937802522671491"><ele>348.0</ele><time>2026-04-03T07:37:35.998Z</time></trkpt><trkpt lat="44.51481496535332" lon="7.938021789541538"><ele>348.0</ele><time>2026-04-03T07:37:37Z</time></trkpt><trkpt lat="44.51485990681466" lon="7.938245860976492"><ele>348.0</ele><time>2026-04-03T07:37:38Z</time></trkpt><trkpt lat="44.51492945925921" lon="7.938450699193556"><ele>348.0</ele><time>2026-04-03T07:37:39Z</time></trkpt><trkpt lat="44.5150035109149" lon="7.938679155295603"><ele>348.0</ele><time>2026-04-03T07:37:40Z</time></trkpt><trkpt lat="44.51508512942524" lon="7.938890900548465"><ele>348.0</ele><time>2026-04-03T07:37:41Z</time></trkpt><trkpt lat="44.515170485173456" lon="7.939113136926036"><ele>348.3333333333333</ele><time>2026-04-03T07:37:42Z</time></trkpt><trkpt lat="44.515258678099286" lon="7.939330910361445"><ele>348.66666666666663</ele><time>2026-04-03T07:37:43Z</time></trkpt><trkpt lat="44.51535434107165" lon="7.939548933714306"><ele>349.0</ele><time>2026-04-03T07:37:44Z</time></trkpt><trkpt lat="44.51544810852881" lon="7.9397717349997885"><ele>350.66666666666663</ele><time>2026-04-03T07:37:45Z</time></trkpt><trkpt lat="44.51554784393048" lon="7.939999880738479"><ele>352.3333333333333</ele><time>2026-04-03T07:37:46Z</time></trkpt><trkpt lat="44.515675132371044" lon="7.940195419751084"><ele>354.0</ele><time>2026-04-03T07:37:47Z</time></trkpt><trkpt lat="44.515788672832294" lon="7.940390045726172"><ele>354.0</ele><time>2026-04-03T07:37:48Z</time></trkpt><trkpt lat="44.515917308393675" lon="7.9405908873863575"><ele>354.0</ele><time>2026-04-03T07:37:49Z</time></trkpt><trkpt lat="44.51607674204703" lon="7.940748700945715"><ele>354.0</ele><time>2026-04-03T07:37:50Z</time></trkpt><trkpt lat="44.51621827489112" lon="7.940918743025884"><ele>356.3333333333333</ele><time>2026-04-03T07:37:51Z</time></trkpt><trkpt lat="44.51636868036534" lon="7.941098756387243"><ele>358.66666666666663</ele><time>2026-04-03T07:37:52Z</time></trkpt><trkpt lat="44.51651721425121" lon="7.941272707482434"><ele>361.0</ele><time>2026-04-03T07:37:53Z</time></trkpt><trkpt lat="44.516669548703995" lon="7.9414513226223935"><ele>361.0</ele><time>2026-04-03T07:37:54Z</time></trkpt><trkpt lat="44.516821826325405" lon="7.941633862375394"><ele>361.0</ele><time>2026-04-03T07:37:55Z</time></trkpt><trkpt lat="44.51697977321234" lon="7.941804341904257"><ele>361.0</ele><time>2026-04-03T07:37:56Z</time></trkpt><trkpt lat="44.517143032174744" lon="7.9419977193218125"><ele>363.0</ele><time>2026-04-03T07:37:57Z</time></trkpt><trkpt lat="44.51730275276299" lon="7.94217145742676"><ele>365.0</ele><time>2026-04-03T07:37:58Z</time></trkpt><trkpt lat="44.51746631217296" lon="7.942352198344493"><ele>367.0</ele><time>2026-04-03T07:37:59Z</time></trkpt><trkpt lat="44.517626487926684" lon="7.942534630018569"><ele>367.66666666666663</ele><time>2026-04-03T07:38:00Z</time></trkpt><trkpt lat="44.5177942169354" lon="7.942726505447946"><ele>368.3333333333333</ele><time>2026-04-03T07:38:01Z</time></trkpt><trkpt lat="44.51793867296724" lon="7.94289319717462"><ele>369.0</ele><time>2026-04-03T07:38:02Z</time></trkpt><trkpt lat="44.51807625682871" lon="7.9430501248373115"><ele>370.3333333333333</ele><time>2026-04-03T07:38:03Z</time></trkpt><trkpt lat="44.51821210214744" lon="7.943204790635458"><ele>371.66666666666663</ele><time>2026-04-03T07:38:04Z</time></trkpt><trkpt lat="44.51834287179248" lon="7.943353452104567"><ele>373.0</ele><time>2026-04-03T07:38:05Z</time></trkpt><trkpt lat="44.518474757687905" lon="7.943510026431191"><ele>373.66666666666663</ele><time>2026-04-03T07:38:06Z</time></trkpt><trkpt lat="44.51860456610859" lon="7.9436486744903325"><ele>374.3333333333333</ele><time>2026-04-03T07:38:07Z</time></trkpt><trkpt lat="44.51873876436936" lon="7.943780575811514"><ele>375.0</ele><time>2026-04-03T07:38:08Z</time></trkpt><trkpt lat="44.51887258288793" lon="7.943889054086603"><ele>376.6666666666667</ele><time>2026-04-03T07:38:09Z</time></trkpt><trkpt lat="44.51900451930871" lon="7.943984077815257"><ele>378.33333333333337</ele><time>2026-04-03T07:38:10Z</time></trkpt><trkpt lat="44.519144197896935" lon="7.944078681243589"><ele>380.0</ele><time>2026-04-03T07:38:11Z</time></trkpt><trkpt lat="44.519284022982696" lon="7.944162723721148"><ele>379.6666666666667</ele><time>2026-04-03T07:38:12Z</time></trkpt><trkpt lat="44.5194254921603" lon="7.944247584663457"><ele>379.3333333333333</ele><time>2026-04-03T07:38:13Z</time></trkpt><trkpt lat="44.519574084307" lon="7.944326444655269"><ele>379.0</ele><time>2026-04-03T07:38:14Z</time></trkpt><trkpt lat="44.519717042880984" lon="7.944411231544333"><ele>380.0</ele><time>2026-04-03T07:38:15Z</time></trkpt><trkpt lat="44.51986039587257" lon="7.944492172293785"><ele>381.0</ele><time>2026-04-03T07:38:16Z</time></trkpt><trkpt lat="44.519989815467156" lon="7.944564110946754"><ele>382.0</ele><time>2026-04-03T07:38:17Z</time></trkpt><trkpt lat="44.52010497821349" lon="7.944612325579388"><ele>383.0</ele><time>2026-04-03T07:38:18Z</time></trkpt><trkpt lat="44.520218582196186" lon="7.944649929131927"><ele>383.0</ele><time>2026-04-03T07:38:19Z</time></trkpt><trkpt lat="44.52033859274302" lon="7.944659331104933"><ele>383.0</ele><time>2026-04-03T07:38:20Z</time></trkpt><trkpt lat="44.520457190514506" lon="7.944631138836537"><ele>383.0</ele><time>2026-04-03T07:38:20.999Z</time></trkpt><trkpt lat="44.52057464747874" lon="7.944577883542012"><ele>383.0</ele><time>2026-04-03T07:38:21.999Z</time></trkpt><trkpt lat="44.5206985176982" lon="7.944519354281813"><ele>385.59999999999997</ele><time>2026-04-03T07:38:22.999Z</time></trkpt><trkpt lat="44.520818055463934" lon="7.944471283069776"><ele>388.2</ele><time>2026-04-03T07:38:23.999Z</time></trkpt><trkpt lat="44.5209183916312" lon="7.9444245531830795"><ele>390.8</ele><time>2026-04-03T07:38:24.999Z</time></trkpt><trkpt lat="44.52101933419864" lon="7.944378929150039"><ele>393.4</ele><time>2026-04-03T07:38:25.999Z</time></trkpt><trkpt lat="44.5211050530713" lon="7.944333248050993"><ele>396.0</ele><time>2026-04-03T07:38:26.999Z</time></trkpt><trkpt lat="44.52119387432932" lon="7.944282116212191"><ele>395.6666666666667</ele><time>2026-04-03T07:38:27.999Z</time></trkpt><trkpt lat="44.5212720162077" lon="7.944246676788793"><ele>395.33333333333337</ele><time>2026-04-03T07:38:28.999Z</time></trkpt><trkpt lat="44.52135517893323" lon="7.944224551682872"><ele>395.0</ele><time>2026-04-03T07:38:29.999Z</time></trkpt><trkpt lat="44.52143177268321" lon="7.9442067947281405"><ele>394.6666666666667</ele><time>2026-04-03T07:38:30.999Z</time></trkpt><trkpt lat="44.52149763807077" lon="7.944206996210429"><ele>394.33333333333337</ele><time>2026-04-03T07:38:31.999Z</time></trkpt><trkpt lat="44.521628268799184" lon="7.9441729545052855"><ele>394.0</ele><time>2026-04-03T07:38:33.999Z</time></trkpt><trkpt lat="44.5217516365987" lon="7.94440668189695"><ele>394.0</ele><time>2026-04-03T07:38:35.999Z</time></trkpt><trkpt lat="44.52180082067038" lon="7.9445234707946755"><ele>394.0</ele><time>2026-04-03T07:38:36.999Z</time></trkpt><trkpt lat="44.5218513870302" lon="7.9446587769341885"><ele>394.0</ele><time>2026-04-03T07:38:37.999Z</time></trkpt><trkpt lat="44.52190631191575" lon="7.944789292686228"><ele>394.0</ele><time>2026-04-03T07:38:38.999Z</time></trkpt><trkpt lat="44.52197147507321" lon="7.944923075234082"><ele>394.0</ele><time>2026-04-03T07:38:39.999Z</time></trkpt><trkpt lat="44.52203435291888" lon="7.945062352633665"><ele>394.0</ele><time>2026-04-03T07:38:40.999Z</time></trkpt><trkpt lat="44.52209668736325" lon="7.945213707944697"><ele>394.0</ele><time>2026-04-03T07:38:41.999Z</time></trkpt><trkpt lat="44.5221568032698" lon="7.9453672564517035"><ele>394.0</ele><time>2026-04-03T07:38:42.999Z</time></trkpt><trkpt lat="44.52221622225574" lon="7.94552913721967"><ele>394.0</ele><time>2026-04-03T07:38:43.999Z</time></trkpt><trkpt lat="44.52228063233633" lon="7.945694075189944"><ele>394.0</ele><time>2026-04-03T07:38:44.999Z</time></trkpt><trkpt lat="44.52233973346392" lon="7.9458550542349204"><ele>394.0</ele><time>2026-04-03T07:38:45.999Z</time></trkpt><trkpt lat="44.522367477911885" lon="7.946004227777094"><ele>394.0</ele><time>2026-04-03T07:38:46.999Z</time></trkpt><trkpt lat="44.522419937685285" lon="7.946147050810769"><ele>394.0</ele><time>2026-04-03T07:38:47.999Z</time></trkpt><trkpt lat="44.522472552838735" lon="7.946284630025751"><ele>394.6666666666667</ele><time>2026-04-03T07:38:48.999Z</time></trkpt><trkpt lat="44.522514099266566" lon="7.946390549396489"><ele>395.33333333333337</ele><time>2026-04-03T07:38:49.999Z</time></trkpt><trkpt lat="44.5225518692591" lon="7.946490429181466"><ele>396.0</ele><time>2026-04-03T07:38:50.999Z</time></trkpt><trkpt lat="44.52258105454735" lon="7.94659519155135"><ele>396.66666666666663</ele><time>2026-04-03T07:38:51.999Z</time></trkpt><trkpt lat="44.52257697312629" lon="7.946711101449759"><ele>397.3333333333333</ele><time>2026-04-03T07:38:52.999Z</time></trkpt><trkpt lat="44.522563967750344" lon="7.946823175842549"><ele>398.0</ele><time>2026-04-03T07:38:53.999Z</time></trkpt><trkpt lat="44.52252365001785" lon="7.946935396673318"><ele>398.0</ele><time>2026-04-03T07:38:54.999Z</time></trkpt><trkpt lat="44.522458426177586" lon="7.947032636090345"><ele>398.0</ele><time>2026-04-03T07:38:55.999Z</time></trkpt><trkpt lat="44.52239015889477" lon="7.947145754305899"><ele>398.0</ele><time>2026-04-03T07:38:56.999Z</time></trkpt><trkpt lat="44.522312689763716" lon="7.947258243884194"><ele>398.0</ele><time>2026-04-03T07:38:57.999Z</time></trkpt><trkpt lat="44.522228022257615" lon="7.9473858792703975"><ele>398.0</ele><time>2026-04-03T07:38:58.999Z</time></trkpt><trkpt lat="44.52214701972413" lon="7.947509519533693"><ele>400.75</ele><time>2026-04-03T07:38:59.999Z</time></trkpt><trkpt lat="44.52205727704184" lon="7.9476316887628515"><ele>403.5</ele><time>2026-04-03T07:39:00.999Z</time></trkpt><trkpt lat="44.52196370164283" lon="7.947763562319407"><ele>406.25</ele><time>2026-04-03T07:39:01.999Z</time></trkpt><trkpt lat="44.52185418876063" lon="7.947857339680401"><ele>409.0</ele><time>2026-04-03T07:39:02.999Z</time></trkpt><trkpt lat="44.52177170408313" lon="7.947985520656956"><ele>409.0</ele><time>2026-04-03T07:39:03.999Z</time></trkpt><trkpt lat="44.52168936185604" lon="7.94811373685924"><ele>409.0</ele><time>2026-04-03T07:39:04.999Z</time></trkpt><trkpt lat="44.521616916726025" lon="7.9482525302903655"><ele>409.0</ele><time>2026-04-03T07:39:05.999Z</time></trkpt><trkpt lat="44.52156306659162" lon="7.948385566506684"><ele>409.0</ele><time>2026-04-03T07:39:06.999Z</time></trkpt><trkpt lat="44.52152069432601" lon="7.948529817463205"><ele>409.75</ele><time>2026-04-03T07:39:07.999Z</time></trkpt><trkpt lat="44.52149404575895" lon="7.948693089848794"><ele>410.5</ele><time>2026-04-03T07:39:08.999Z</time></trkpt><trkpt lat="44.52147558210365" lon="7.948861677313068"><ele>411.25</ele><time>2026-04-03T07:39:09.999Z</time></trkpt><trkpt lat="44.521456138003046" lon="7.949041984127399"><ele>412.0</ele><time>2026-04-03T07:39:10.999Z</time></trkpt><trkpt lat="44.52143720824785" lon="7.94923044873161"><ele>412.5</ele><time>2026-04-03T07:39:11.999Z</time></trkpt><trkpt lat="44.52141866247806" lon="7.949425257208005"><ele>413.0</ele><time>2026-04-03T07:39:12.999Z</time></trkpt><trkpt lat="44.52139431835498" lon="7.9496211750328545"><ele>413.5</ele><time>2026-04-03T07:39:13.999Z</time></trkpt><trkpt lat="44.5213654181126" lon="7.94980703776372"><ele>414.0</ele><time>2026-04-03T07:39:14.999Z</time></trkpt><trkpt lat="44.52133536090262" lon="7.9499942451878445"><ele>415.0</ele><time>2026-04-03T07:39:15.999Z</time></trkpt><trkpt lat="44.52131296777678" lon="7.9501653540227935"><ele>416.0</ele><time>2026-04-03T07:39:16.999Z</time></trkpt><trkpt lat="44.52127698117663" lon="7.950322955486958"><ele>417.0</ele><time>2026-04-03T07:39:17.998Z</time></trkpt><trkpt lat="44.521274263144015" lon="7.950493938296454"><ele>418.0</ele><time>2026-04-03T07:39:18.998Z</time></trkpt><trkpt lat="44.5212878299394" lon="7.950656314350782"><ele>418.00000000000006</ele><time>2026-04-03T07:39:19.998Z</time></trkpt><trkpt lat="44.52131069325252" lon="7.95078759204197"><ele>418.0</ele><time>2026-04-03T07:39:20.998Z</time></trkpt><trkpt lat="44.52131956664685" lon="7.950900135831751"><ele>418.0</ele><time>2026-04-03T07:39:21.998Z</time></trkpt><trkpt lat="44.521318367917495" lon="7.950997398736731"><ele>418.0</ele><time>2026-04-03T07:39:22.998Z</time></trkpt><trkpt lat="44.52129722133207" lon="7.951104048420426"><ele>418.00000000000006</ele><time>2026-04-03T07:39:23.998Z</time></trkpt><trkpt lat="44.521247722951756" lon="7.951205107600569"><ele>418.0</ele><time>2026-04-03T07:39:24.998Z</time></trkpt><trkpt lat="44.521173215321284" lon="7.951290817899708"><ele>422.5</ele><time>2026-04-03T07:39:25.998Z</time></trkpt><trkpt lat="44.521082286175854" lon="7.951366635740389"><ele>427.0</ele><time>2026-04-03T07:39:26.998Z</time></trkpt><trkpt lat="44.52097404012819" lon="7.951420164843365"><ele>431.5</ele><time>2026-04-03T07:39:27.998Z</time></trkpt><trkpt lat="44.520871686922526" lon="7.951498419696378"><ele>436.0</ele><time>2026-04-03T07:39:28.998Z</time></trkpt><trkpt lat="44.520762431146785" lon="7.95158195236497"><ele>436.0</ele><time>2026-04-03T07:39:29.998Z</time></trkpt><trkpt lat="44.520653825182805" lon="7.951637169029906"><ele>436.0</ele><time>2026-04-03T07:39:30.998Z</time></trkpt><trkpt lat="44.520539577356274" lon="7.951725711315252"><ele>436.0</ele><time>2026-04-03T07:39:31.998Z</time></trkpt><trkpt lat="44.52042302844953" lon="7.951816179191582"><ele>436.0</ele><time>2026-04-03T07:39:32.998Z</time></trkpt><trkpt lat="44.5203013704323" lon="7.951913020704259"><ele>437.75</ele><time>2026-04-03T07:39:33.998Z</time></trkpt><trkpt lat="44.52017847191343" lon="7.95201542811474"><ele>439.5</ele><time>2026-04-03T07:39:34.998Z</time></trkpt><trkpt lat="44.520064471812184" lon="7.952104452659834"><ele>441.25</ele><time>2026-04-03T07:39:35.998Z</time></trkpt><trkpt lat="44.51995054022119" lon="7.952207373345671"><ele>443.0</ele><time>2026-04-03T07:39:36.998Z</time></trkpt><trkpt lat="44.51984696714782" lon="7.9523279681173715"><ele>443.0</ele><time>2026-04-03T07:39:37.998Z</time></trkpt><trkpt lat="44.51975952872244" lon="7.952486102688995"><ele>443.0</ele><time>2026-04-03T07:39:38.998Z</time></trkpt><trkpt lat="44.51967858566237" lon="7.952636670471022"><ele>443.0</ele><time>2026-04-03T07:39:39.998Z</time></trkpt><trkpt lat="44.519590460746144" lon="7.952812981184139"><ele>443.0</ele><time>2026-04-03T07:39:40.998Z</time></trkpt><trkpt lat="44.51950469067508" lon="7.952963691559084"><ele>445.25</ele><time>2026-04-03T07:39:41.998Z</time></trkpt><trkpt lat="44.51944887200309" lon="7.9530714656928705"><ele>447.5</ele><time>2026-04-03T07:39:43Z</time></trkpt><trkpt lat="44.5193766386389" lon="7.953192669971093"><ele>449.75</ele><time>2026-04-03T07:39:44Z</time></trkpt><trkpt lat="44.519299241621404" lon="7.953333534640268"><ele>452.0</ele><time>2026-04-03T07:39:45Z</time></trkpt><trkpt lat="44.51922601100269" lon="7.953469012481752"><ele>452.0</ele><time>2026-04-03T07:39:46Z</time></trkpt><trkpt lat="44.51916140993479" lon="7.9536132760186495"><ele>452.0</ele><time>2026-04-03T07:39:47Z</time></trkpt><trkpt lat="44.51910737938089" lon="7.953777913063629"><ele>452.0</ele><time>2026-04-03T07:39:48Z</time></trkpt><trkpt lat="44.51907089025034" lon="7.95395249098951"><ele>452.0</ele><time>2026-04-03T07:39:49Z</time></trkpt><trkpt lat="44.5190437901401" lon="7.954132229083564"><ele>452.25</ele><time>2026-04-03T07:39:50Z</time></trkpt><trkpt lat="44.519007726340156" lon="7.954313140026362"><ele>452.5</ele><time>2026-04-03T07:39:51Z</time></trkpt><trkpt lat="44.51897238873865" lon="7.954501472237959"><ele>452.75</ele><time>2026-04-03T07:39:52Z</time></trkpt><trkpt lat="44.51893586390025" lon="7.954679451194021"><ele>453.0</ele><time>2026-04-03T07:39:53Z</time></trkpt><trkpt lat="44.518893528535145" lon="7.954880620319763"><ele>452.75</ele><time>2026-04-03T07:39:54Z</time></trkpt><trkpt lat="44.51885688678503" lon="7.955069445746056"><ele>452.5</ele><time>2026-04-03T07:39:55Z</time></trkpt><trkpt lat="44.51882480052252" lon="7.955262486406178"><ele>452.25</ele><time>2026-04-03T07:39:56Z</time></trkpt><trkpt lat="44.51879180967547" lon="7.955452972686117"><ele>452.0</ele><time>2026-04-03T07:39:57Z</time></trkpt><trkpt lat="44.51875790881386" lon="7.955656310912042"><ele>454.0</ele><time>2026-04-03T07:39:58Z</time></trkpt><trkpt lat="44.5187271963323" lon="7.955825573337889"><ele>456.00000000000006</ele><time>2026-04-03T07:39:59Z</time></trkpt><trkpt lat="44.51870728517822" lon="7.955979613809442"><ele>458.00000000000006</ele><time>2026-04-03T07:40:00Z</time></trkpt><trkpt lat="44.518686848384135" lon="7.956118015415362"><ele>460.0</ele><time>2026-04-03T07:40:01Z</time></trkpt><trkpt lat="44.5186681387489" lon="7.95624740429633"><ele>462.0</ele><time>2026-04-03T07:40:02Z</time></trkpt><trkpt lat="44.51864761449077" lon="7.956354719411666"><ele>463.1666666666667</ele><time>2026-04-03T07:40:03Z</time></trkpt><trkpt lat="44.51860780913222" lon="7.956464982393067"><ele>464.33333333333337</ele><time>2026-04-03T07:40:04Z</time></trkpt><trkpt lat="44.518552089024205" lon="7.956553186057608"><ele>465.5</ele><time>2026-04-03T07:40:05Z</time></trkpt><trkpt lat="44.51848506241207" lon="7.956618377335646"><ele>466.6666666666667</ele><time>2026-04-03T07:40:06Z</time></trkpt><trkpt lat="44.51839129157441" lon="7.956640330628692"><ele>467.83333333333337</ele><time>2026-04-03T07:40:07Z</time></trkpt><trkpt lat="44.518318706555604" lon="7.956702607490393"><ele>469.0</ele><time>2026-04-03T07:40:08Z</time></trkpt><trkpt lat="44.51824073402028" lon="7.956762716744682"><ele>470.6</ele><time>2026-04-03T07:40:09Z</time></trkpt><trkpt lat="44.518195372971924" lon="7.956875359977273"><ele>472.2</ele><time>2026-04-03T07:40:10Z</time></trkpt><trkpt lat="44.51815328397401" lon="7.956984275994903"><ele>473.80000000000007</ele><time>2026-04-03T07:40:11Z</time></trkpt><trkpt lat="44.51812847753003" lon="7.957118465176302"><ele>475.40000000000003</ele><time>2026-04-03T07:40:12Z</time></trkpt><trkpt lat="44.518104048820355" lon="7.957276832998816"><ele>477.0</ele><time>2026-04-03T07:40:13Z</time></trkpt><trkpt lat="44.51808152882769" lon="7.957436734548869"><ele>479.0</ele><time>2026-04-03T07:40:14Z</time></trkpt><trkpt lat="44.51805831545071" lon="7.957594676674302"><ele>481.0</ele><time>2026-04-03T07:40:15Z</time></trkpt><trkpt lat="44.518043913098076" lon="7.957759801733297"><ele>483.0</ele><time>2026-04-03T07:40:16Z</time></trkpt><trkpt lat="44.518008863182246" lon="7.95793037637566"><ele>485.0</ele><time>2026-04-03T07:40:17Z</time></trkpt><trkpt lat="44.5179749682993" lon="7.958105403843623"><ele>485.0</ele><time>2026-04-03T07:40:18Z</time></trkpt><trkpt lat="44.51793981943768" lon="7.9582742498524235"><ele>485.0</ele><time>2026-04-03T07:40:19Z</time></trkpt><trkpt lat="44.51788242068359" lon="7.9584484581305635"><ele>485.0</ele><time>2026-04-03T07:40:20Z</time></trkpt><trkpt lat="44.51786256947897" lon="7.958627150917933"><ele>485.0</ele><time>2026-04-03T07:40:21Z</time></trkpt><trkpt lat="44.51782000760886" lon="7.958811118948606"><ele>483.75</ele><time>2026-04-03T07:40:22Z</time></trkpt><trkpt lat="44.517779232209655" lon="7.958989241710647"><ele>482.5</ele><time>2026-04-03T07:40:23Z</time></trkpt><trkpt lat="44.517740114927726" lon="7.959170955816263"><ele>481.25</ele><time>2026-04-03T07:40:24Z</time></trkpt><trkpt lat="44.5176950834612" lon="7.959338605057052"><ele>480.0</ele><time>2026-04-03T07:40:25Z</time></trkpt><trkpt lat="44.51764244640608" lon="7.959515426770579"><ele>482.5</ele><time>2026-04-03T07:40:26Z</time></trkpt><trkpt lat="44.517574696040136" lon="7.959676807935914"><ele>485.0</ele><time>2026-04-03T07:40:26.999Z</time></trkpt><trkpt lat="44.5175267882275" lon="7.959814044255274"><ele>487.5</ele><time>2026-04-03T07:40:27.999Z</time></trkpt><trkpt lat="44.51747369454458" lon="7.959975601470649"><ele>490.0</ele><time>2026-04-03T07:40:28.999Z</time></trkpt><trkpt lat="44.51744380536682" lon="7.960154100045864"><ele>492.2</ele><time>2026-04-03T07:40:29.999Z</time></trkpt><trkpt lat="44.51740702324953" lon="7.960318848198977"><ele>494.4</ele><time>2026-04-03T07:40:30.999Z</time></trkpt><trkpt lat="44.517376663919975" lon="7.960486469757054"><ele>496.6</ele><time>2026-04-03T07:40:31.999Z</time></trkpt><trkpt lat="44.51734528587957" lon="7.960618582367959"><ele>498.8</ele><time>2026-04-03T07:40:32.999Z</time></trkpt><trkpt lat="44.517300166455385" lon="7.960737683811855"><ele>501.0</ele><time>2026-04-03T07:40:33.999Z</time></trkpt><trkpt lat="44.51721981824957" lon="7.960868080675212"><ele>501.20000000000005</ele><time>2026-04-03T07:40:34.999Z</time></trkpt><trkpt lat="44.517160317976376" lon="7.960963939697912"><ele>501.40000000000003</ele><time>2026-04-03T07:40:35.999Z</time></trkpt><trkpt lat="44.51707964149351" lon="7.9610566031526915"><ele>501.6</ele><time>2026-04-03T07:40:36.999Z</time></trkpt><trkpt lat="44.516986611474685" lon="7.961100259090438"><ele>501.8</ele><time>2026-04-03T07:40:37.999Z</time></trkpt><trkpt lat="44.5168918082255" lon="7.9611431264409624"><ele>502.0</ele><time>2026-04-03T07:40:38.999Z</time></trkpt><trkpt lat="44.51679063789363" lon="7.961179980558311"><ele>503.0</ele><time>2026-04-03T07:40:39.999Z</time></trkpt><trkpt lat="44.51667904271658" lon="7.96121147611124"><ele>504.00000000000006</ele><time>2026-04-03T07:40:40.999Z</time></trkpt><trkpt lat="44.51656626005798" lon="7.961236297853898"><ele>505.00000000000006</ele><time>2026-04-03T07:40:41.999Z</time></trkpt><trkpt lat="44.516456002255445" lon="7.961246496226609"><ele>506.0</ele><time>2026-04-03T07:40:42.999Z</time></trkpt><trkpt lat="44.516368088473676" lon="7.96127768390239"><ele>507.0</ele><time>2026-04-03T07:40:43.999Z</time></trkpt><trkpt lat="44.516269542601854" lon="7.961266145828571"><ele>508.40000000000003</ele><time>2026-04-03T07:40:44.999Z</time></trkpt><trkpt lat="44.51617326823307" lon="7.961256437365693"><ele>509.80000000000007</ele><time>2026-04-03T07:40:45.999Z</time></trkpt><trkpt lat="44.516075630987565" lon="7.961270288037573"><ele>511.2</ele><time>2026-04-03T07:40:46.999Z</time></trkpt><trkpt lat="44.515972816572095" lon="7.961257308470558"><ele>512.6</ele><time>2026-04-03T07:40:47.999Z</time></trkpt><trkpt lat="44.51587382385235" lon="7.96133349142344"><ele>514.0</ele><time>2026-04-03T07:40:48.999Z</time></trkpt><trkpt lat="44.51579862153318" lon="7.96144700960168"><ele>514.0</ele><time>2026-04-03T07:40:49.999Z</time></trkpt><trkpt lat="44.515702723921926" lon="7.961521800273037"><ele>514.0</ele><time>2026-04-03T07:40:50.999Z</time></trkpt><trkpt lat="44.51561610892606" lon="7.96158356670822"><ele>514.0</ele><time>2026-04-03T07:40:51.999Z</time></trkpt><trkpt lat="44.5155207739065" lon="7.961626406743949"><ele>514.0</ele><time>2026-04-03T07:40:52.999Z</time></trkpt><trkpt lat="44.51542267572301" lon="7.961651110022422"><ele>514.0</ele><time>2026-04-03T07:40:53.999Z</time></trkpt><trkpt lat="44.515315342383886" lon="7.961657688655842"><ele>515.4</ele><time>2026-04-03T07:40:54.999Z</time></trkpt><trkpt lat="44.515216914033154" lon="7.9616278756751155"><ele>516.8</ele><time>2026-04-03T07:40:55.999Z</time></trkpt><trkpt lat="44.515117233478165" lon="7.961584430174098"><ele>518.2</ele><time>2026-04-03T07:40:56.999Z</time></trkpt><trkpt lat="44.515030513511945" lon="7.961513843014583"><ele>519.6</ele><time>2026-04-03T07:40:57.999Z</time></trkpt><trkpt lat="44.514953387035355" lon="7.961415836528254"><ele>521.0</ele><time>2026-04-03T07:40:58.999Z</time></trkpt><trkpt lat="44.51487068958718" lon="7.961314264639614"><ele>521.0</ele><time>2026-04-03T07:40:59.999Z</time></trkpt><trkpt lat="44.51478608834236" lon="7.961201704382373"><ele>521.0</ele><time>2026-04-03T07:41:00.999Z</time></trkpt><trkpt lat="44.51470231428789" lon="7.961080553533106"><ele>521.0</ele><time>2026-04-03T07:41:01.999Z</time></trkpt><trkpt lat="44.514608572469925" lon="7.960957901510126"><ele>521.0</ele><time>2026-04-03T07:41:02.999Z</time></trkpt><trkpt lat="44.514518120855406" lon="7.960829556570154"><ele>523.25</ele><time>2026-04-03T07:41:03.999Z</time></trkpt><trkpt lat="44.51442962047205" lon="7.960682749348518"><ele>525.5</ele><time>2026-04-03T07:41:04.999Z</time></trkpt><trkpt lat="44.514358489413645" lon="7.960536839564514"><ele>527.75</ele><time>2026-04-03T07:41:05.999Z</time></trkpt><trkpt lat="44.51428247006983" lon="7.960409713637463"><ele>530.0</ele><time>2026-04-03T07:41:06.999Z</time></trkpt><trkpt lat="44.51420883285205" lon="7.960296944165821"><ele>530.0</ele><time>2026-04-03T07:41:07.999Z</time></trkpt><trkpt lat="44.51413454008703" lon="7.960193108688477"><ele>530.0</ele><time>2026-04-03T07:41:08.999Z</time></trkpt><trkpt lat="44.51405969729454" lon="7.960097320808642"><ele>530.0</ele><time>2026-04-03T07:41:09.999Z</time></trkpt><trkpt lat="44.51396115510397" lon="7.960038738797041"><ele>530.0</ele><time>2026-04-03T07:41:10.999Z</time></trkpt><trkpt lat="44.51384469329879" lon="7.960008424718739"><ele>530.0</ele><time>2026-04-03T07:41:11.999Z</time></trkpt><trkpt lat="44.51373434162244" lon="7.960031815354505"><ele>532.0</ele><time>2026-04-03T07:41:12.999Z</time></trkpt><trkpt lat="44.51361416218581" lon="7.960078276372869"><ele>534.0</ele><time>2026-04-03T07:41:13.999Z</time></trkpt><trkpt lat="44.51349031002981" lon="7.960119983853504"><ele>536.0</ele><time>2026-04-03T07:41:14.999Z</time></trkpt><trkpt lat="44.51335634564164" lon="7.960166119856998"><ele>538.0</ele><time>2026-04-03T07:41:15.999Z</time></trkpt><trkpt lat="44.5132179725092" lon="7.960212492463977"><ele>538.0</ele><time>2026-04-03T07:41:16.999Z</time></trkpt><trkpt lat="44.51306127813141" lon="7.960265179370911"><ele>538.0</ele><time>2026-04-03T07:41:17.999Z</time></trkpt><trkpt lat="44.51291425588819" lon="7.960312764493031"><ele>538.0</ele><time>2026-04-03T07:41:18.999Z</time></trkpt><trkpt lat="44.51276773108942" lon="7.960366827467796"><ele>537.0</ele><time>2026-04-03T07:41:19.999Z</time></trkpt><trkpt lat="44.51261223077851" lon="7.9604224735574105"><ele>536.0</ele><time>2026-04-03T07:41:20.999Z</time></trkpt><trkpt lat="44.51245646227235" lon="7.960484626927342"><ele>535.0</ele><time>2026-04-03T07:41:21.999Z</time></trkpt><trkpt lat="44.51229355336841" lon="7.960544007163255"><ele>535.0</ele><time>2026-04-03T07:41:22.998Z</time></trkpt><trkpt lat="44.51213180187374" lon="7.960606214643119"><ele>535.0</ele><time>2026-04-03T07:41:23.998Z</time></trkpt><trkpt lat="44.51196258051021" lon="7.960643350917528"><ele>535.0</ele><time>2026-04-03T07:41:24.998Z</time></trkpt><trkpt lat="44.511796185294024" lon="7.96070184669949"><ele>534.6666666666667</ele><time>2026-04-03T07:41:25.998Z</time></trkpt><trkpt lat="44.51163335921846" lon="7.9607607978539905"><ele>534.3333333333334</ele><time>2026-04-03T07:41:26.998Z</time></trkpt><trkpt lat="44.511464081865405" lon="7.960822510739273"><ele>534.0</ele><time>2026-04-03T07:41:27.998Z</time></trkpt><trkpt lat="44.511294717928536" lon="7.960881013315154"><ele>532.3333333333334</ele><time>2026-04-03T07:41:28.998Z</time></trkpt><trkpt lat="44.51112005298729" lon="7.960936811062285"><ele>530.6666666666667</ele><time>2026-04-03T07:41:29.998Z</time></trkpt><trkpt lat="44.51093864128272" lon="7.9609928287833265"><ele>529.0</ele><time>2026-04-03T07:41:30.998Z</time></trkpt><trkpt lat="44.51075888408895" lon="7.961046197866398"><ele>529.0</ele><time>2026-04-03T07:41:31.998Z</time></trkpt><trkpt lat="44.51057948698513" lon="7.961097468017122"><ele>529.0</ele><time>2026-04-03T07:41:32.998Z</time></trkpt><trkpt lat="44.510400171626245" lon="7.961144861600415"><ele>529.0</ele><time>2026-04-03T07:41:33.998Z</time></trkpt><trkpt lat="44.51021963899081" lon="7.961181477872515"><ele>533.3333333333334</ele><time>2026-04-03T07:41:34.998Z</time></trkpt><trkpt lat="44.51003673346176" lon="7.961213328419389"><ele>537.6666666666666</ele><time>2026-04-03T07:41:35.998Z</time></trkpt><trkpt lat="44.509860119391234" lon="7.9612427523081575"><ele>542.0</ele><time>2026-04-03T07:41:36.998Z</time></trkpt><trkpt lat="44.50969365380931" lon="7.961268602518622"><ele>541.6666666666666</ele><time>2026-04-03T07:41:37.998Z</time></trkpt><trkpt lat="44.50952005171385" lon="7.96129499091982"><ele>541.3333333333334</ele><time>2026-04-03T07:41:38.998Z</time></trkpt><trkpt lat="44.50934643205321" lon="7.961321381981652"><ele>541.0</ele><time>2026-04-03T07:41:39.998Z</time></trkpt><trkpt lat="44.50917247785507" lon="7.961347716466087"><ele>541.0</ele><time>2026-04-03T07:41:40.998Z</time></trkpt><trkpt lat="44.50899145048608" lon="7.96137500873899"><ele>541.0</ele><time>2026-04-03T07:41:41.998Z</time></trkpt><trkpt lat="44.508807555141864" lon="7.961402733419959"><ele>541.0</ele><time>2026-04-03T07:41:42.998Z</time></trkpt><trkpt lat="44.508621836099934" lon="7.96143356777874"><ele>540.0</ele><time>2026-04-03T07:41:43.998Z</time></trkpt><trkpt lat="44.50842994500727" lon="7.961469781358574"><ele>539.0</ele><time>2026-04-03T07:41:44.998Z</time></trkpt><trkpt lat="44.50823727403549" lon="7.961512232321275"><ele>538.0</ele><time>2026-04-03T07:41:45.998Z</time></trkpt><trkpt lat="44.50804494088283" lon="7.961559836909851"><ele>536.3333333333334</ele><time>2026-04-03T07:41:46.998Z</time></trkpt><trkpt lat="44.50784889145669" lon="7.961608575281789"><ele>534.6666666666666</ele><time>2026-04-03T07:41:47.998Z</time></trkpt><trkpt lat="44.50765245433819" lon="7.96165771530917"><ele>533.0</ele><time>2026-04-03T07:41:49Z</time></trkpt><trkpt lat="44.50745259310412" lon="7.961707711938801"><ele>530.3333333333333</ele><time>2026-04-03T07:41:50Z</time></trkpt><trkpt lat="44.50725100316356" lon="7.96175814119488"><ele>527.6666666666666</ele><time>2026-04-03T07:41:51Z</time></trkpt><trkpt lat="44.50705110118115" lon="7.961808732262438"><ele>525.0</ele><time>2026-04-03T07:41:52Z</time></trkpt><trkpt lat="44.506851705721076" lon="7.961859185065152"><ele>525.0</ele><time>2026-04-03T07:41:53Z</time></trkpt><trkpt lat="44.506653397938145" lon="7.961909362569516"><ele>525.0</ele><time>2026-04-03T07:41:54Z</time></trkpt><trkpt lat="44.50645912522881" lon="7.9619585041302585"><ele>525.0</ele><time>2026-04-03T07:41:55Z</time></trkpt><trkpt lat="44.50627924549429" lon="7.962004006362059"><ele>527.6666666666666</ele><time>2026-04-03T07:41:56Z</time></trkpt><trkpt lat="44.50610610361618" lon="7.96204725134636"><ele>530.3333333333333</ele><time>2026-04-03T07:41:57Z</time></trkpt><trkpt lat="44.50594680529373" lon="7.962086773844358"><ele>533.0</ele><time>2026-04-03T07:41:58Z</time></trkpt><trkpt lat="44.50579369817426" lon="7.962124760268671"><ele>533.0</ele><time>2026-04-03T07:41:59Z</time></trkpt><trkpt lat="44.50564967368338" lon="7.96216112402042"><ele>533.0</ele><time>2026-04-03T07:42:00Z</time></trkpt><trkpt lat="44.505518057730974" lon="7.96219702746102"><ele>533.0</ele><time>2026-04-03T07:42:01Z</time></trkpt><trkpt lat="44.50539188664502" lon="7.962220233472237"><ele>533.0</ele><time>2026-04-03T07:42:02Z</time></trkpt><trkpt lat="44.50526104399079" lon="7.962225351034868"><ele>533.75</ele><time>2026-04-03T07:42:03Z</time></trkpt><trkpt lat="44.50512569005945" lon="7.962218505929397"><ele>534.5</ele><time>2026-04-03T07:42:04Z</time></trkpt><trkpt lat="44.50498612194835" lon="7.962195553517742"><ele>535.25</ele><time>2026-04-03T07:42:05Z</time></trkpt><trkpt lat="44.504840374210644" lon="7.962157099173468"><ele>536.0</ele><time>2026-04-03T07:42:06Z</time></trkpt><trkpt lat="44.50468839530908" lon="7.962137172151357"><ele>535.3333333333333</ele><time>2026-04-03T07:42:07Z</time></trkpt><trkpt lat="44.504537603751956" lon="7.962140800073888"><ele>534.6666666666666</ele><time>2026-04-03T07:42:08Z</time></trkpt><trkpt lat="44.504376591045165" lon="7.962158742999474"><ele>534.0</ele><time>2026-04-03T07:42:09Z</time></trkpt><trkpt lat="44.50421121450949" lon="7.962186991944006"><ele>534.0</ele><time>2026-04-03T07:42:10Z</time></trkpt><trkpt lat="44.50404253776095" lon="7.962217790376393"><ele>534.0</ele><time>2026-04-03T07:42:11Z</time></trkpt><trkpt lat="44.50386996243366" lon="7.962250531380497"><ele>534.0</ele><time>2026-04-03T07:42:12Z</time></trkpt><trkpt lat="44.50369839766235" lon="7.962287399947444"><ele>537.3333333333334</ele><time>2026-04-03T07:42:13Z</time></trkpt><trkpt lat="44.503527527912254" lon="7.962327286714468"><ele>540.6666666666667</ele><time>2026-04-03T07:42:14Z</time></trkpt><trkpt lat="44.50335430084725" lon="7.9623698776687055"><ele>544.0</ele><time>2026-04-03T07:42:15Z</time></trkpt><trkpt lat="44.50318318125365" lon="7.962425703993034"><ele>544.0</ele><time>2026-04-03T07:42:16Z</time></trkpt><trkpt lat="44.503017057666945" lon="7.962493148713943"><ele>544.0</ele><time>2026-04-03T07:42:17Z</time></trkpt><trkpt lat="44.50285122961098" lon="7.962578672335884"><ele>544.0</ele><time>2026-04-03T07:42:18Z</time></trkpt><trkpt lat="44.502688366803916" lon="7.962684513509536"><ele>543.6666666666667</ele><time>2026-04-03T07:42:19Z</time></trkpt><trkpt lat="44.50253139229518" lon="7.962793404150101"><ele>543.3333333333334</ele><time>2026-04-03T07:42:20Z</time></trkpt><trkpt lat="44.50237702670834" lon="7.962901781322759"><ele>543.0</ele><time>2026-04-03T07:42:21Z</time></trkpt><trkpt lat="44.5022302550821" lon="7.963005470785316"><ele>548.0</ele><time>2026-04-03T07:42:22Z</time></trkpt><trkpt lat="44.50208154638386" lon="7.963105737828981"><ele>553.0</ele><time>2026-04-03T07:42:23Z</time></trkpt><trkpt lat="44.501941081955266" lon="7.96321779847426"><ele>558.0</ele><time>2026-04-03T07:42:24Z</time></trkpt><trkpt lat="44.50178873605888" lon="7.963277283823957"><ele>558.0</ele><time>2026-04-03T07:42:25Z</time></trkpt><trkpt lat="44.501641701627484" lon="7.963332594747894"><ele>558.0</ele><time>2026-04-03T07:42:26Z</time></trkpt><trkpt lat="44.50150258430111" lon="7.963376649318716"><ele>558.0</ele><time>2026-04-03T07:42:27Z</time></trkpt><trkpt lat="44.501358969261105" lon="7.963420191241286"><ele>558.0</ele><time>2026-04-03T07:42:28Z</time></trkpt><trkpt lat="44.501224265671375" lon="7.963461031353082"><ele>561.75</ele><time>2026-04-03T07:42:29Z</time></trkpt><trkpt lat="44.501085028728255" lon="7.963502942905988"><ele>565.5</ele><time>2026-04-03T07:42:29.999Z</time></trkpt><trkpt lat="44.500960018844545" lon="7.963540405425589"><ele>569.25</ele><time>2026-04-03T07:42:30.999Z</time></trkpt><trkpt lat="44.500826208006806" lon="7.963581095250684"><ele>573.0</ele><time>2026-04-03T07:42:31.999Z</time></trkpt><trkpt lat="44.50068289469945" lon="7.963625801452975"><ele>573.0</ele><time>2026-04-03T07:42:32.999Z</time></trkpt><trkpt lat="44.500535791931156" lon="7.963665377716474"><ele>573.0</ele><time>2026-04-03T07:42:33.999Z</time></trkpt><trkpt lat="44.50038761829708" lon="7.963671780225222"><ele>573.0</ele><time>2026-04-03T07:42:34.999Z</time></trkpt><trkpt lat="44.500254157763145" lon="7.963677307636737"><ele>573.0</ele><time>2026-04-03T07:42:35.999Z</time></trkpt><trkpt lat="44.50013178925655" lon="7.963670690839158"><ele>574.25</ele><time>2026-04-03T07:42:36.999Z</time></trkpt><trkpt lat="44.50000184170137" lon="7.96362633276814"><ele>575.5</ele><time>2026-04-03T07:42:37.999Z</time></trkpt><trkpt lat="44.499872281213435" lon="7.963551779200121"><ele>576.75</ele><time>2026-04-03T07:42:38.999Z</time></trkpt><trkpt lat="44.49975216309915" lon="7.963474887056038"><ele>578.0</ele><time>2026-04-03T07:42:39.999Z</time></trkpt><trkpt lat="44.49965370687297" lon="7.9634014097924615"><ele>576.8</ele><time>2026-04-03T07:42:40.999Z</time></trkpt><trkpt lat="44.49956861652587" lon="7.963335933357499"><ele>575.5999999999999</ele><time>2026-04-03T07:42:41.999Z</time></trkpt><trkpt lat="44.49950330862428" lon="7.963287484243624"><ele>574.4000000000001</ele><time>2026-04-03T07:42:42.999Z</time></trkpt><trkpt lat="44.49944115408018" lon="7.963246472392687"><ele>573.2</ele><time>2026-04-03T07:42:43.999Z</time></trkpt><trkpt lat="44.49932758244627" lon="7.963213570553627"><ele>572.0</ele><time>2026-04-03T07:42:45.999Z</time></trkpt><trkpt lat="44.4992312922346" lon="7.9632844799896585"><ele>572.0</ele><time>2026-04-03T07:42:47.999Z</time></trkpt><trkpt lat="44.4991950266381" lon="7.96336091507911"><ele>572.0</ele><time>2026-04-03T07:42:48.999Z</time></trkpt><trkpt lat="44.49922279713626" lon="7.963460441122661"><ele>572.0</ele><time>2026-04-03T07:42:49.999Z</time></trkpt><trkpt lat="44.49925296815827" lon="7.9635580086350615"><ele>572.0</ele><time>2026-04-03T07:42:50.999Z</time></trkpt><trkpt lat="44.49927978546409" lon="7.963666843663419"><ele>572.0</ele><time>2026-04-03T07:42:51.999Z</time></trkpt><trkpt lat="44.49930435202384" lon="7.9637995623939135"><ele>572.0</ele><time>2026-04-03T07:42:52.999Z</time></trkpt><trkpt lat="44.4993224793765" lon="7.963922595508867"><ele>572.4</ele><time>2026-04-03T07:42:53.999Z</time></trkpt><trkpt lat="44.49932974065173" lon="7.96406522661856"><ele>572.8000000000001</ele><time>2026-04-03T07:42:54.999Z</time></trkpt><trkpt lat="44.49933587801615" lon="7.964212964372676"><ele>573.2</ele><time>2026-04-03T07:42:55.999Z</time></trkpt><trkpt lat="44.499355847311556" lon="7.964372933778645"><ele>573.6</ele><time>2026-04-03T07:42:56.999Z</time></trkpt><trkpt lat="44.499387505581865" lon="7.96453462096364"><ele>574.0</ele><time>2026-04-03T07:42:57.999Z</time></trkpt><trkpt lat="44.499425695734786" lon="7.964711456046445"><ele>574.0</ele><time>2026-04-03T07:42:58.999Z</time></trkpt><trkpt lat="44.499439179990176" lon="7.964887961361193"><ele>574.0</ele><time>2026-04-03T07:42:59.999Z</time></trkpt><trkpt lat="44.499474221846725" lon="7.965035780510031"><ele>574.0</ele><time>2026-04-03T07:43:00.999Z</time></trkpt><trkpt lat="44.499501006822406" lon="7.965164163884993"><ele>574.0</ele><time>2026-04-03T07:43:01.999Z</time></trkpt><trkpt lat="44.49953025465323" lon="7.9652856299504915"><ele>574.0</ele><time>2026-04-03T07:43:02.999Z</time></trkpt><trkpt lat="44.499549871604046" lon="7.965382293355925"><ele>575.0</ele><time>2026-04-03T07:43:03.999Z</time></trkpt><trkpt lat="44.49954627738154" lon="7.965490089546484"><ele>576.0</ele><time>2026-04-03T07:43:04.999Z</time></trkpt><trkpt lat="44.49952120194225" lon="7.965596528559917"><ele>577.0</ele><time>2026-04-03T07:43:05.999Z</time></trkpt><trkpt lat="44.49947646364004" lon="7.965703931976898"><ele>578.0</ele><time>2026-04-03T07:43:06.999Z</time></trkpt><trkpt lat="44.499403982217686" lon="7.965806417168103"><ele>579.0</ele><time>2026-04-03T07:43:07.999Z</time></trkpt><trkpt lat="44.499328434225276" lon="7.965909555188166"><ele>581.6</ele><time>2026-04-03T07:43:08.999Z</time></trkpt><trkpt lat="44.499249850776536" lon="7.966018247657074"><ele>584.2</ele><time>2026-04-03T07:43:09.999Z</time></trkpt><trkpt lat="44.49917441625805" lon="7.966118678440088"><ele>586.8000000000001</ele><time>2026-04-03T07:43:10.999Z</time></trkpt><trkpt lat="44.49911828108979" lon="7.966195823187062"><ele>589.4</ele><time>2026-04-03T07:43:11.999Z</time></trkpt><trkpt lat="44.49904367676188" lon="7.966297859522417"><ele>592.0</ele><time>2026-04-03T07:43:12.999Z</time></trkpt><trkpt lat="44.49897321257588" lon="7.966390116814771"><ele>592.0</ele><time>2026-04-03T07:43:13.999Z</time></trkpt><trkpt lat="44.498902973268905" lon="7.966481872684461"><ele>592.0</ele><time>2026-04-03T07:43:14.999Z</time></trkpt><trkpt lat="44.4988340927332" lon="7.966578259651025"><ele>592.0</ele><time>2026-04-03T07:43:15.999Z</time></trkpt><trkpt lat="44.49876422022687" lon="7.966670351177967"><ele>592.0</ele><time>2026-04-03T07:43:16.999Z</time></trkpt><trkpt lat="44.49868289150852" lon="7.9667590021455705"><ele>592.0</ele><time>2026-04-03T07:43:17.999Z</time></trkpt><trkpt lat="44.49859667444043" lon="7.966838299305945"><ele>592.0</ele><time>2026-04-03T07:43:18.999Z</time></trkpt><trkpt lat="44.49851211247796" lon="7.966913103656883"><ele>592.0</ele><time>2026-04-03T07:43:19.999Z</time></trkpt><trkpt lat="44.498431595571176" lon="7.966998958088045"><ele>592.0</ele><time>2026-04-03T07:43:20.999Z</time></trkpt><trkpt lat="44.49835107762997" lon="7.967088828912705"><ele>592.0</ele><time>2026-04-03T07:43:21.999Z</time></trkpt><trkpt lat="44.4982641024418" lon="7.967172476766299"><ele>592.0</ele><time>2026-04-03T07:43:22.999Z</time></trkpt><trkpt lat="44.49818936431198" lon="7.967261329070361"><ele>592.0</ele><time>2026-04-03T07:43:23.999Z</time></trkpt><trkpt lat="44.49812029029367" lon="7.967344923446783"><ele>592.0</ele><time>2026-04-03T07:43:24.999Z</time></trkpt><trkpt lat="44.49804277261931" lon="7.967443218623859"><ele>592.0</ele><time>2026-04-03T07:43:25.998Z</time></trkpt><trkpt lat="44.497967627999614" lon="7.967530680353732"><ele>592.0</ele><time>2026-04-03T07:43:26.998Z</time></trkpt><trkpt lat="44.497899128150095" lon="7.96761103427961"><ele>592.0</ele><time>2026-04-03T07:43:27.998Z</time></trkpt><trkpt lat="44.497825910955484" lon="7.967701931761792"><ele>592.0</ele><time>2026-04-03T07:43:28.998Z</time></trkpt><trkpt lat="44.49774331464041" lon="7.967801131729628"><ele>592.0</ele><time>2026-04-03T07:43:29.998Z</time></trkpt><trkpt lat="44.49766420370061" lon="7.967891019218512"><ele>592.0</ele><time>2026-04-03T07:43:30.998Z</time></trkpt><trkpt lat="44.49758844112535" lon="7.967989849994131"><ele>592.0</ele><time>2026-04-03T07:43:31.998Z</time></trkpt><trkpt lat="44.49750988048649" lon="7.968084721184868"><ele>592.0</ele><time>2026-04-03T07:43:32.998Z</time></trkpt><trkpt lat="44.49743217150545" lon="7.9681787261992225"><ele>592.0</ele><time>2026-04-03T07:43:33.998Z</time></trkpt><trkpt lat="44.49735027745469" lon="7.968263810553559"><ele>592.0</ele><time>2026-04-03T07:43:34.998Z</time></trkpt><trkpt lat="44.497265878694805" lon="7.968355235354046"><ele>592.0</ele><time>2026-04-03T07:43:35.998Z</time></trkpt><trkpt lat="44.497169773966874" lon="7.968444823438835"><ele>592.0</ele><time>2026-04-03T07:43:36.998Z</time></trkpt><trkpt lat="44.49708576681094" lon="7.968523049057565"><ele>592.0</ele><time>2026-04-03T07:43:37.998Z</time></trkpt><trkpt lat="44.49699477916745" lon="7.968601534862197"><ele>591.8000000000001</ele><time>2026-04-03T07:43:38.998Z</time></trkpt><trkpt lat="44.496904323634745" lon="7.968682219185547"><ele>591.6</ele><time>2026-04-03T07:43:39.998Z</time></trkpt><trkpt lat="44.49681312730411" lon="7.968759674930655"><ele>591.4000000000001</ele><time>2026-04-03T07:43:40.998Z</time></trkpt><trkpt lat="44.49672099282121" lon="7.9688344806161835"><ele>591.2</ele><time>2026-04-03T07:43:41.998Z</time></trkpt><trkpt lat="44.49663224473968" lon="7.968913642153995"><ele>591.0</ele><time>2026-04-03T07:43:42.998Z</time></trkpt><trkpt lat="44.496542108148724" lon="7.96898950756785"><ele>591.0</ele><time>2026-04-03T07:43:43.998Z</time></trkpt><trkpt lat="44.49644816093508" lon="7.969066444820949"><ele>591.0</ele><time>2026-04-03T07:43:44.998Z</time></trkpt><trkpt lat="44.49635532784562" lon="7.969145670948692"><ele>591.0</ele><time>2026-04-03T07:43:45.998Z</time></trkpt><trkpt lat="44.49626487689131" lon="7.969229194197434"><ele>591.0</ele><time>2026-04-03T07:43:46.998Z</time></trkpt><trkpt lat="44.49617109000029" lon="7.9693108370351755"><ele>591.0</ele><time>2026-04-03T07:43:47.998Z</time></trkpt><trkpt lat="44.496078286064034" lon="7.969392074946008"><ele>591.6</ele><time>2026-04-03T07:43:48.998Z</time></trkpt><trkpt lat="44.49598385044142" lon="7.969464156096341"><ele>592.2</ele><time>2026-04-03T07:43:49.998Z</time></trkpt><trkpt lat="44.495891092029424" lon="7.969542858709687"><ele>592.8</ele><time>2026-04-03T07:43:50.998Z</time></trkpt><trkpt lat="44.49580436590155" lon="7.9696190898620625"><ele>593.4</ele><time>2026-04-03T07:43:51.998Z</time></trkpt><trkpt lat="44.49571751849832" lon="7.9696898320810385"><ele>594.0</ele><time>2026-04-03T07:43:52.998Z</time></trkpt><trkpt lat="44.49562815586603" lon="7.969768933877159"><ele>594.0</ele><time>2026-04-03T07:43:53.998Z</time></trkpt><trkpt lat="44.49554002960115" lon="7.969847446941133"><ele>594.0</ele><time>2026-04-03T07:43:55Z</time></trkpt><trkpt lat="44.49545534479103" lon="7.969929594029384"><ele>594.0</ele><time>2026-04-03T07:43:56Z</time></trkpt><trkpt lat="44.49537726821079" lon="7.970022162918726"><ele>594.0</ele><time>2026-04-03T07:43:57Z</time></trkpt><trkpt lat="44.49530112866217" lon="7.970130555961662"><ele>594.0</ele><time>2026-04-03T07:43:58Z</time></trkpt><trkpt lat="44.49520678215908" lon="7.970218927112739"><ele>595.6</ele><time>2026-04-03T07:43:59Z</time></trkpt><trkpt lat="44.49513205077933" lon="7.970343087132969"><ele>597.2</ele><time>2026-04-03T07:44:00Z</time></trkpt><trkpt lat="44.49506199423136" lon="7.9704594988175455"><ele>598.8000000000001</ele><time>2026-04-03T07:44:01Z</time></trkpt><trkpt lat="44.494996427492886" lon="7.9705815525181265"><ele>600.4</ele><time>2026-04-03T07:44:02Z</time></trkpt><trkpt lat="44.49492461853013" lon="7.970696749615392"><ele>602.0</ele><time>2026-04-03T07:44:03Z</time></trkpt><trkpt lat="44.494852061528434" lon="7.970813371715636"><ele>603.25</ele><time>2026-04-03T07:44:04Z</time></trkpt><trkpt lat="44.49477753998374" lon="7.970928683256172"><ele>604.5</ele><time>2026-04-03T07:44:05Z</time></trkpt><trkpt lat="44.4947013239638" lon="7.971043898272792"><ele>605.75</ele><time>2026-04-03T07:44:06Z</time></trkpt><trkpt lat="44.49462025482226" lon="7.97116275202518"><ele>607.0</ele><time>2026-04-03T07:44:07Z</time></trkpt><trkpt lat="44.49452888669763" lon="7.971281185781514"><ele>607.5</ele><time>2026-04-03T07:44:08Z</time></trkpt><trkpt lat="44.49442854650283" lon="7.971402708406533"><ele>608.0</ele><time>2026-04-03T07:44:09Z</time></trkpt><trkpt lat="44.494315329398866" lon="7.971512956579839"><ele>608.5</ele><time>2026-04-03T07:44:10Z</time></trkpt><trkpt lat="44.49419184809978" lon="7.9716206530293645"><ele>609.0</ele><time>2026-04-03T07:44:11Z</time></trkpt><trkpt lat="44.49405839948657" lon="7.971728221263888"><ele>611.6666666666666</ele><time>2026-04-03T07:44:12Z</time></trkpt><trkpt lat="44.493919646281725" lon="7.971839756933731"><ele>614.3333333333333</ele><time>2026-04-03T07:44:13Z</time></trkpt><trkpt lat="44.49378096090514" lon="7.971957327572394"><ele>617.0</ele><time>2026-04-03T07:44:14Z</time></trkpt><trkpt lat="44.49365064075656" lon="7.97206014968512"><ele>617.0</ele><time>2026-04-03T07:44:15Z</time></trkpt><trkpt lat="44.493530806899635" lon="7.972172132339815"><ele>617.0</ele><time>2026-04-03T07:44:16Z</time></trkpt><trkpt lat="44.49343288069888" lon="7.97227460501504"><ele>617.0</ele><time>2026-04-03T07:44:17Z</time></trkpt><trkpt lat="44.49334954073763" lon="7.972355595669945"><ele>617.0</ele><time>2026-04-03T07:44:18Z</time></trkpt><trkpt lat="44.49326457833752" lon="7.972417872719528"><ele>617.0</ele><time>2026-04-03T07:44:19Z</time></trkpt><trkpt lat="44.493178419154304" lon="7.972460867657129"><ele>617.0</ele><time>2026-04-03T07:44:20Z</time></trkpt><trkpt lat="44.49308421308737" lon="7.9724360477920895"><ele>617.0</ele><time>2026-04-03T07:44:21Z</time></trkpt><trkpt lat="44.492977323679604" lon="7.9723921955987"><ele>617.0</ele><time>2026-04-03T07:44:22Z</time></trkpt><trkpt lat="44.49285991412557" lon="7.972361792554705"><ele>617.0</ele><time>2026-04-03T07:44:23Z</time></trkpt><trkpt lat="44.492745607987885" lon="7.972319314391978"><ele>617.2</ele><time>2026-04-03T07:44:24Z</time></trkpt><trkpt lat="44.492640063509675" lon="7.972312040644034"><ele>617.4000000000001</ele><time>2026-04-03T07:44:25Z</time></trkpt><trkpt lat="44.4925345395597" lon="7.972302328859261"><ele>617.5999999999999</ele><time>2026-04-03T07:44:26Z</time></trkpt><trkpt lat="44.49242431867925" lon="7.972312701186785"><ele>617.8</ele><time>2026-04-03T07:44:27Z</time></trkpt><trkpt lat="44.49231376456823" lon="7.972344813042067"><ele>618.0</ele><time>2026-04-03T07:44:28Z</time></trkpt><trkpt lat="44.49221725292441" lon="7.972410098529636"><ele>618.0</ele><time>2026-04-03T07:44:29Z</time></trkpt><trkpt lat="44.49214009074075" lon="7.972480446632098"><ele>618.0</ele><time>2026-04-03T07:44:30Z</time></trkpt><trkpt lat="44.49207158261448" lon="7.972560823464133"><ele>618.0</ele><time>2026-04-03T07:44:31Z</time></trkpt><trkpt lat="44.492020420990904" lon="7.972671651114569"><ele>618.0</ele><time>2026-04-03T07:44:32Z</time></trkpt><trkpt lat="44.49198328398341" lon="7.972799643476318"><ele>618.0</ele><time>2026-04-03T07:44:33Z</time></trkpt><trkpt lat="44.49196054192734" lon="7.972942243861168"><ele>618.0</ele><time>2026-04-03T07:44:34Z</time></trkpt><trkpt lat="44.49194392350336" lon="7.973093448696458"><ele>618.0</ele><time>2026-04-03T07:44:35Z</time></trkpt><trkpt lat="44.491924087478495" lon="7.973230868427179"><ele>618.0</ele><time>2026-04-03T07:44:36Z</time></trkpt><trkpt lat="44.49190034011625" lon="7.973364462410385"><ele>618.0</ele><time>2026-04-03T07:44:36.999Z</time></trkpt><trkpt lat="44.49187085572386" lon="7.97349051104561"><ele>618.0</ele><time>2026-04-03T07:44:37.999Z</time></trkpt><trkpt lat="44.491835406494104" lon="7.973628694342705"><ele>619.6</ele><time>2026-04-03T07:44:38.999Z</time></trkpt><trkpt lat="44.49180182231903" lon="7.973754826171826"><ele>621.1999999999999</ele><time>2026-04-03T07:44:39.999Z</time></trkpt><trkpt lat="44.491758596634426" lon="7.973892696879289"><ele>622.8</ele><time>2026-04-03T07:44:40.999Z</time></trkpt><trkpt lat="44.49171522391993" lon="7.974041242546706"><ele>624.4</ele><time>2026-04-03T07:44:41.999Z</time></trkpt><trkpt lat="44.49167199811902" lon="7.974180815286748"><ele>626.0</ele><time>2026-04-03T07:44:42.999Z</time></trkpt><trkpt lat="44.491623680775994" lon="7.974315150790637"><ele>626.8</ele><time>2026-04-03T07:44:43.999Z</time></trkpt><trkpt lat="44.49156632727175" lon="7.974445818078965"><ele>627.6</ele><time>2026-04-03T07:44:44.999Z</time></trkpt><trkpt lat="44.491511893980054" lon="7.974558626042091"><ele>628.4</ele><time>2026-04-03T07:44:45.999Z</time></trkpt><trkpt lat="44.49145469880457" lon="7.974671157644699"><ele>629.2</ele><time>2026-04-03T07:44:46.999Z</time></trkpt><trkpt lat="44.49139319536908" lon="7.9747839586151406"><ele>630.0</ele><time>2026-04-03T07:44:47.999Z</time></trkpt><trkpt lat="44.49131767603971" lon="7.974871908372212"><ele>629.4</ele><time>2026-04-03T07:44:48.999Z</time></trkpt><trkpt lat="44.49123833285678" lon="7.974948974433512"><ele>628.8</ele><time>2026-04-03T07:44:49.999Z</time></trkpt><trkpt lat="44.491132406269124" lon="7.975007318474257"><ele>628.2</ele><time>2026-04-03T07:44:50.999Z</time></trkpt><trkpt lat="44.49102338618225" lon="7.975050089452935"><ele>627.6</ele><time>2026-04-03T07:44:51.999Z</time></trkpt><trkpt lat="44.49091371540221" lon="7.975095413657537"><ele>627.0</ele><time>2026-04-03T07:44:52.999Z</time></trkpt><trkpt lat="44.49080750415408" lon="7.975139557302018"><ele>628.0</ele><time>2026-04-03T07:44:53.999Z</time></trkpt><trkpt lat="44.4907058542155" lon="7.975184413437971"><ele>629.0</ele><time>2026-04-03T07:44:54.999Z</time></trkpt><trkpt lat="44.490602313416275" lon="7.975229017971719"><ele>630.0</ele><time>2026-04-03T07:44:55.999Z</time></trkpt><trkpt lat="44.49049440045187" lon="7.975271939761831"><ele>631.0</ele><time>2026-04-03T07:44:56.999Z</time></trkpt><trkpt lat="44.4903861588523" lon="7.975314689760254"><ele>632.0</ele><time>2026-04-03T07:44:57.999Z</time></trkpt><trkpt lat="44.490287582471915" lon="7.975351970834976"><ele>632.0</ele><time>2026-04-03T07:44:58.999Z</time></trkpt><trkpt lat="44.49018524485558" lon="7.9753833978656745"><ele>632.0</ele><time>2026-04-03T07:44:59.999Z</time></trkpt><trkpt lat="44.49008411078375" lon="7.97542667879739"><ele>632.0</ele><time>2026-04-03T07:45:00.999Z</time></trkpt><trkpt lat="44.489977575138774" lon="7.975461805838833"><ele>632.0</ele><time>2026-04-03T07:45:01.999Z</time></trkpt><trkpt lat="44.48987761734161" lon="7.9755051050104955"><ele>632.0</ele><time>2026-04-03T07:45:02.999Z</time></trkpt><trkpt lat="44.489771313094074" lon="7.9755448572058345"><ele>632.0</ele><time>2026-04-03T07:45:03.999Z</time></trkpt><trkpt lat="44.48966551931688" lon="7.975592946571994"><ele>632.0</ele><time>2026-04-03T07:45:04.999Z</time></trkpt><trkpt lat="44.48956011457789" lon="7.975637909623656"><ele>632.0</ele><time>2026-04-03T07:45:05.999Z</time></trkpt><trkpt lat="44.4894573496081" lon="7.975688639683417"><ele>632.0</ele><time>2026-04-03T07:45:06.999Z</time></trkpt><trkpt lat="44.48934960862831" lon="7.975726844341045"><ele>632.0</ele><time>2026-04-03T07:45:07.999Z</time></trkpt><trkpt lat="44.48924880894211" lon="7.9757727014015165"><ele>633.25</ele><time>2026-04-03T07:45:08.999Z</time></trkpt><trkpt lat="44.48914492030605" lon="7.9758221494873265"><ele>634.5</ele><time>2026-04-03T07:45:09.999Z</time></trkpt><trkpt lat="44.48903625432236" lon="7.9758715776195315"><ele>635.75</ele><time>2026-04-03T07:45:10.999Z</time></trkpt><trkpt lat="44.48892604688618" lon="7.975914339013667"><ele>637.0</ele><time>2026-04-03T07:45:11.999Z</time></trkpt><trkpt lat="44.48881873710434" lon="7.975959594047169"><ele>636.5</ele><time>2026-04-03T07:45:12.999Z</time></trkpt><trkpt lat="44.488711428170205" lon="7.976009956013938"><ele>636.0</ele><time>2026-04-03T07:45:13.999Z</time></trkpt><trkpt lat="44.488602991252996" lon="7.976060257759401"><ele>635.5</ele><time>2026-04-03T07:45:14.999Z</time></trkpt><trkpt lat="44.48849011622368" lon="7.976107959848028"><ele>635.0</ele><time>2026-04-03T07:45:15.999Z</time></trkpt><trkpt lat="44.488378033874916" lon="7.976159959469516"><ele>635.0</ele><time>2026-04-03T07:45:16.999Z</time></trkpt><trkpt lat="44.48826375117207" lon="7.976207161292631"><ele>635.0</ele><time>2026-04-03T07:45:17.999Z</time></trkpt><trkpt lat="44.488152171371006" lon="7.976260013068176"><ele>635.0</ele><time>2026-04-03T07:45:18.999Z</time></trkpt><trkpt lat="44.48802834185136" lon="7.976293089257109"><ele>635.0</ele><time>2026-04-03T07:45:19.999Z</time></trkpt><trkpt lat="44.487912041485686" lon="7.976344278039451"><ele>636.0</ele><time>2026-04-03T07:45:20.999Z</time></trkpt><trkpt lat="44.487795492108454" lon="7.97639784512106"><ele>637.0</ele><time>2026-04-03T07:45:21.999Z</time></trkpt><trkpt lat="44.48767323743856" lon="7.9764484526658235"><ele>638.0</ele><time>2026-04-03T07:45:22.999Z</time></trkpt><trkpt lat="44.48756400853245" lon="7.9765062946401075"><ele>639.0</ele><time>2026-04-03T07:45:23.999Z</time></trkpt><trkpt lat="44.48747115348573" lon="7.976555612086835"><ele>639.0</ele><time>2026-04-03T07:45:24.999Z</time></trkpt><trkpt lat="44.48738929322875" lon="7.976611455445144"><ele>639.0</ele><time>2026-04-03T07:45:25.999Z</time></trkpt><trkpt lat="44.48730399196181" lon="7.9766747739983"><ele>639.0</ele><time>2026-04-03T07:45:26.999Z</time></trkpt><trkpt lat="44.48725157729532" lon="7.976799017975913"><ele>639.0</ele><time>2026-04-03T07:45:27.999Z</time></trkpt><trkpt lat="44.48719664257196" lon="7.976920674816641"><ele>639.0</ele><time>2026-04-03T07:45:28.999Z</time></trkpt><trkpt lat="44.48715108590912" lon="7.9770560319533015"><ele>637.75</ele><time>2026-04-03T07:45:29.999Z</time></trkpt><trkpt lat="44.48711051531543" lon="7.977206519042568"><ele>636.5</ele><time>2026-04-03T07:45:30.999Z</time></trkpt><trkpt lat="44.487065421023885" lon="7.977369794718472"><ele>635.25</ele><time>2026-04-03T07:45:31.999Z</time></trkpt><trkpt lat="44.48701787856993" lon="7.977543600851953"><ele>634.0</ele><time>2026-04-03T07:45:32.998Z</time></trkpt><trkpt lat="44.48698060738961" lon="7.977712076579368"><ele>634.0</ele><time>2026-04-03T07:45:33.998Z</time></trkpt><trkpt lat="44.48693532810275" lon="7.97788060865052"><ele>634.0</ele><time>2026-04-03T07:45:34.998Z</time></trkpt><trkpt lat="44.48688660852677" lon="7.978065211282113"><ele>634.0</ele><time>2026-04-03T07:45:35.998Z</time></trkpt><trkpt lat="44.4868378513567" lon="7.978253327511928"><ele>634.0</ele><time>2026-04-03T07:45:36.998Z</time></trkpt><trkpt lat="44.486789501789794" lon="7.97845451012465"><ele>635.0</ele><time>2026-04-03T07:45:37.998Z</time></trkpt><trkpt lat="44.48673557608447" lon="7.9786694004709755"><ele>636.0</ele><time>2026-04-03T07:45:38.998Z</time></trkpt><trkpt lat="44.48668046299579" lon="7.978884885436738"><ele>637.0</ele><time>2026-04-03T07:45:39.998Z</time></trkpt><trkpt lat="44.4866278003666" lon="7.979118750556091"><ele>638.6666666666667</ele><time>2026-04-03T07:45:40.998Z</time></trkpt><trkpt lat="44.48657317141792" lon="7.979344782195618"><ele>640.3333333333334</ele><time>2026-04-03T07:45:41.998Z</time></trkpt><trkpt lat="44.486515390703104" lon="7.979578914472755"><ele>642.0</ele><time>2026-04-03T07:45:42.998Z</time></trkpt><trkpt lat="44.486450375544926" lon="7.979829577127458"><ele>642.0</ele><time>2026-04-03T07:45:43.998Z</time></trkpt><trkpt lat="44.48638069342277" lon="7.980078563092071"><ele>642.0</ele><time>2026-04-03T07:45:44.998Z</time></trkpt><trkpt lat="44.48630767329947" lon="7.980335583772932"><ele>642.0</ele><time>2026-04-03T07:45:45.998Z</time></trkpt><trkpt lat="44.48623188112071" lon="7.980596337038517"><ele>645.0</ele><time>2026-04-03T07:45:46.998Z</time></trkpt><trkpt lat="44.48615477107978" lon="7.980851093889605"><ele>648.0</ele><time>2026-04-03T07:45:47.998Z</time></trkpt><trkpt lat="44.48607669783339" lon="7.981103884578642"><ele>651.0</ele><time>2026-04-03T07:45:48.998Z</time></trkpt><trkpt lat="44.4859996183342" lon="7.981333513042644"><ele>651.0</ele><time>2026-04-03T07:45:49.998Z</time></trkpt><trkpt lat="44.48593150134177" lon="7.981562405223231"><ele>651.0</ele><time>2026-04-03T07:45:50.998Z</time></trkpt><trkpt lat="44.485860430498974" lon="7.9817617205211215"><ele>651.0</ele><time>2026-04-03T07:45:51.998Z</time></trkpt><trkpt lat="44.485784244916246" lon="7.981968461722394"><ele>650.0</ele><time>2026-04-03T07:45:52.998Z</time></trkpt><trkpt lat="44.48570071817273" lon="7.982172458478781"><ele>649.0</ele><time>2026-04-03T07:45:53.998Z</time></trkpt><trkpt lat="44.48560503904155" lon="7.982367415028408"><ele>648.0</ele><time>2026-04-03T07:45:54.998Z</time></trkpt><trkpt lat="44.485484673412834" lon="7.982548907866317"><ele>650.3333333333334</ele><time>2026-04-03T07:45:55.998Z</time></trkpt><trkpt lat="44.485360120538516" lon="7.982706716418943"><ele>652.6666666666667</ele><time>2026-04-03T07:45:56.998Z</time></trkpt><trkpt lat="44.4852374799494" lon="7.9828781157449"><ele>655.0</ele><time>2026-04-03T07:45:57.998Z</time></trkpt><trkpt lat="44.485109542102464" lon="7.98304971664394"><ele>655.0</ele><time>2026-04-03T07:45:58.998Z</time></trkpt><trkpt lat="44.48498832167618" lon="7.983221705607758"><ele>655.0</ele><time>2026-04-03T07:45:59.998Z</time></trkpt><trkpt lat="44.48486626239977" lon="7.9834161351381985"><ele>655.0</ele><time>2026-04-03T07:46:01Z</time></trkpt><trkpt lat="44.484757873586034" lon="7.98359458861802"><ele>655.3333333333334</ele><time>2026-04-03T07:46:02Z</time></trkpt><trkpt lat="44.48465128716493" lon="7.983783900306091"><ele>655.6666666666666</ele><time>2026-04-03T07:46:03Z</time></trkpt><trkpt lat="44.48454826422572" lon="7.983972579771139"><ele>656.0</ele><time>2026-04-03T07:46:04Z</time></trkpt><trkpt lat="44.4844598292693" lon="7.984136364652508"><ele>658.0</ele><time>2026-04-03T07:46:05Z</time></trkpt><trkpt lat="44.48437592745981" lon="7.984272327149641"><ele>660.0</ele><time>2026-04-03T07:46:06Z</time></trkpt><trkpt lat="44.48429364526359" lon="7.984396335486628"><ele>662.0</ele><time>2026-04-03T07:46:07Z</time></trkpt><trkpt lat="44.48422154576952" lon="7.984519255768467"><ele>664.0</ele><time>2026-04-03T07:46:08Z</time></trkpt><trkpt lat="44.48415904319664" lon="7.984633573389337"><ele>664.0</ele><time>2026-04-03T07:46:09Z</time></trkpt><trkpt lat="44.484113989684936" lon="7.984731872087733"><ele>664.0</ele><time>2026-04-03T07:46:10Z</time></trkpt><trkpt lat="44.48408027694612" lon="7.9848453105107415"><ele>664.0</ele><time>2026-04-03T07:46:11Z</time></trkpt><trkpt lat="44.484053301221046" lon="7.98498026274154"><ele>664.0</ele><time>2026-04-03T07:46:12Z</time></trkpt><trkpt lat="44.48403496019141" lon="7.9851362045968575"><ele>664.0</ele><time>2026-04-03T07:46:13Z</time></trkpt><trkpt lat="44.48402719256011" lon="7.985308642344289"><ele>663.5</ele><time>2026-04-03T07:46:14Z</time></trkpt><trkpt lat="44.484024370577416" lon="7.985500943206589"><ele>663.0</ele><time>2026-04-03T07:46:15Z</time></trkpt><trkpt lat="44.484018685338654" lon="7.985693777586699"><ele>662.5</ele><time>2026-04-03T07:46:16Z</time></trkpt><trkpt lat="44.484010061928466" lon="7.985895102946038"><ele>662.0</ele><time>2026-04-03T07:46:17Z</time></trkpt><trkpt lat="44.48398601324002" lon="7.986110837455474"><ele>659.6666666666666</ele><time>2026-04-03T07:46:18Z</time></trkpt><trkpt lat="44.483956661536304" lon="7.986335092327094"><ele>657.3333333333334</ele><time>2026-04-03T07:46:19Z</time></trkpt><trkpt lat="44.48392443125141" lon="7.98655661334453"><ele>655.0</ele><time>2026-04-03T07:46:20Z</time></trkpt><trkpt lat="44.48388594088163" lon="7.986793776134535"><ele>653.6666666666667</ele><time>2026-04-03T07:46:21Z</time></trkpt><trkpt lat="44.483845261171744" lon="7.987037828309855"><ele>652.3333333333334</ele><time>2026-04-03T07:46:22Z</time></trkpt><trkpt lat="44.48380327022557" lon="7.987285795804529"><ele>651.0</ele><time>2026-04-03T07:46:23Z</time></trkpt><trkpt lat="44.48375818920579" lon="7.987541613001373"><ele>656.6666666666666</ele><time>2026-04-03T07:46:24Z</time></trkpt><trkpt lat="44.48371294734255" lon="7.987802903299934"><ele>662.3333333333333</ele><time>2026-04-03T07:46:25Z</time></trkpt><trkpt lat="44.4836658715961" lon="7.988063497029419"><ele>668.0</ele><time>2026-04-03T07:46:26Z</time></trkpt><trkpt lat="44.48361815389368" lon="7.98833422057484"><ele>670.3333333333333</ele><time>2026-04-03T07:46:27Z</time></trkpt><trkpt lat="44.483569848967925" lon="7.988602086372702"><ele>672.6666666666666</ele><time>2026-04-03T07:46:28Z</time></trkpt><trkpt lat="44.483527730599896" lon="7.988873637160188"><ele>675.0</ele><time>2026-04-03T07:46:29Z</time></trkpt><trkpt lat="44.48347758755436" lon="7.989141893704546"><ele>677.0</ele><time>2026-04-03T07:46:30Z</time></trkpt><trkpt lat="44.48343197527306" lon="7.989394049486253"><ele>679.0</ele><time>2026-04-03T07:46:31Z</time></trkpt><trkpt lat="44.483414241797895" lon="7.989610201028126"><ele>681.0</ele><time>2026-04-03T07:46:32Z</time></trkpt><trkpt lat="44.483384903936305" lon="7.9898167101074185"><ele>681.0</ele><time>2026-04-03T07:46:33Z</time></trkpt><trkpt lat="44.4833501349363" lon="7.989999616750985"><ele>681.0</ele><time>2026-04-03T07:46:34Z</time></trkpt><trkpt lat="44.48330462345129" lon="7.9901607943588955"><ele>681.0</ele><time>2026-04-03T07:46:35Z</time></trkpt><trkpt lat="44.48328031583026" lon="7.990268348337225"><ele>681.0</ele><time>2026-04-03T07:46:36Z</time></trkpt><trkpt lat="44.483237492820685" lon="7.990403386995089"><ele>681.0</ele><time>2026-04-03T07:46:38Z</time></trkpt><trkpt lat="44.48319614480066" lon="7.990491019026247"><ele>681.5</ele><time>2026-04-03T07:46:41Z</time></trkpt><trkpt lat="44.483163138131104" lon="7.990605091707889"><ele>682.0</ele><time>2026-04-03T07:46:55.999Z</time></trkpt><trkpt lat="44.48311129828821" lon="7.99072772325163"><ele>682.5</ele><time>2026-04-03T07:46:57.999Z</time></trkpt><trkpt lat="44.483075484734066" lon="7.990812332777608"><ele>683.0</ele><time>2026-04-03T07:46:58.999Z</time></trkpt><trkpt lat="44.48304716502488" lon="7.990915459114508"><ele>683.5</ele><time>2026-04-03T07:46:59.999Z</time></trkpt><trkpt lat="44.48300274113969" lon="7.991027508551383"><ele>684.0</ele><time>2026-04-03T07:47:00.999Z</time></trkpt><trkpt lat="44.48297308177388" lon="7.991142394522632"><ele>684.4000000000001</ele><time>2026-04-03T07:47:01.999Z</time></trkpt><trkpt lat="44.4829424383884" lon="7.991243422918397"><ele>684.8</ele><time>2026-04-03T07:47:02.999Z</time></trkpt><trkpt lat="44.482923473283165" lon="7.991353036692397"><ele>685.2</ele><time>2026-04-03T07:47:03.999Z</time></trkpt><trkpt lat="44.48290319276275" lon="7.991477345394163"><ele>685.5999999999999</ele><time>2026-04-03T07:47:04.999Z</time></trkpt><trkpt lat="44.48288774432833" lon="7.9916209749018705"><ele>686.0</ele><time>2026-04-03T07:47:05.999Z</time></trkpt><trkpt lat="44.48287081914906" lon="7.991793407302041"><ele>682.0</ele><time>2026-04-03T07:47:06.999Z</time></trkpt><trkpt lat="44.48285863967358" lon="7.991942591155309"><ele>678.0</ele><time>2026-04-03T07:47:07.999Z</time></trkpt><trkpt lat="44.48282246271654" lon="7.992130622717866"><ele>674.0</ele><time>2026-04-03T07:47:08.999Z</time></trkpt><trkpt lat="44.482805080903255" lon="7.992320858971369"><ele>670.0</ele><time>2026-04-03T07:47:09.999Z</time></trkpt><trkpt lat="44.482792084476195" lon="7.992519685895223"><ele>670.0</ele><time>2026-04-03T07:47:10.999Z</time></trkpt><trkpt lat="44.48277826446974" lon="7.9927571412190215"><ele>670.0</ele><time>2026-04-03T07:47:11.999Z</time></trkpt><trkpt lat="44.48276672005861" lon="7.992960489234998"><ele>670.0</ele><time>2026-04-03T07:47:12.999Z</time></trkpt><trkpt lat="44.482750405012474" lon="7.9931784661954834"><ele>671.5</ele><time>2026-04-03T07:47:13.999Z</time></trkpt><trkpt lat="44.48273933359649" lon="7.993389546080409"><ele>673.0</ele><time>2026-04-03T07:47:14.999Z</time></trkpt><trkpt lat="44.48273110734558" lon="7.9935840209480356"><ele>674.5</ele><time>2026-04-03T07:47:15.999Z</time></trkpt><trkpt lat="44.48271946082525" lon="7.993770904055379"><ele>676.0</ele><time>2026-04-03T07:47:16.999Z</time></trkpt><trkpt lat="44.48270508832433" lon="7.993955992715129"><ele>676.0</ele><time>2026-04-03T07:47:17.999Z</time></trkpt><trkpt lat="44.482684930955664" lon="7.99413163700277"><ele>676.0</ele><time>2026-04-03T07:47:18.999Z</time></trkpt><trkpt lat="44.48266244672597" lon="7.994283740214784"><ele>676.0</ele><time>2026-04-03T07:47:19.999Z</time></trkpt><trkpt lat="44.48262072955838" lon="7.994448026934176"><ele>676.0</ele><time>2026-04-03T07:47:20.999Z</time></trkpt><trkpt lat="44.48255254160577" lon="7.994614623092766"><ele>676.25</ele><time>2026-04-03T07:47:21.999Z</time></trkpt><trkpt lat="44.48247096099452" lon="7.994775079390662"><ele>676.5</ele><time>2026-04-03T07:47:22.999Z</time></trkpt><trkpt lat="44.48238099046913" lon="7.994930190291213"><ele>676.75</ele><time>2026-04-03T07:47:23.999Z</time></trkpt><trkpt lat="44.48228395443087" lon="7.995085804863015"><ele>677.0</ele><time>2026-04-03T07:47:24.999Z</time></trkpt><trkpt lat="44.48218454971912" lon="7.995258847554079"><ele>676.0</ele><time>2026-04-03T07:47:25.999Z</time></trkpt><trkpt lat="44.48207146564916" lon="7.995442867660225"><ele>675.0</ele><time>2026-04-03T07:47:26.999Z</time></trkpt><trkpt lat="44.48196215637188" lon="7.995617263916423"><ele>674.0</ele><time>2026-04-03T07:47:27.999Z</time></trkpt><trkpt lat="44.48184400628646" lon="7.995790555992021"><ele>673.0</ele><time>2026-04-03T07:47:28.999Z</time></trkpt><trkpt lat="44.48171620965919" lon="7.995960374986495"><ele>672.0</ele><time>2026-04-03T07:47:29.999Z</time></trkpt><trkpt lat="44.48157629510752" lon="7.99612269490573"><ele>671.0</ele><time>2026-04-03T07:47:30.999Z</time></trkpt><trkpt lat="44.481420149975975" lon="7.996279179773291"><ele>672.3333333333333</ele><time>2026-04-03T07:47:31.999Z</time></trkpt><trkpt lat="44.48125485667351" lon="7.996437538068134"><ele>673.6666666666666</ele><time>2026-04-03T07:47:32.999Z</time></trkpt><trkpt lat="44.48108488737129" lon="7.996600887756879"><ele>675.0</ele><time>2026-04-03T07:47:33.999Z</time></trkpt><trkpt lat="44.48091437968712" lon="7.996767125741607"><ele>676.3333333333334</ele><time>2026-04-03T07:47:34.999Z</time></trkpt><trkpt lat="44.480739621761494" lon="7.9969362159425295"><ele>677.6666666666667</ele><time>2026-04-03T07:47:35.999Z</time></trkpt><trkpt lat="44.48056479472454" lon="7.997100010631889"><ele>679.0</ele><time>2026-04-03T07:47:36.999Z</time></trkpt><trkpt lat="44.48039320438994" lon="7.997266259439436"><ele>680.0</ele><time>2026-04-03T07:47:37.999Z</time></trkpt><trkpt lat="44.480222073820904" lon="7.99742901870654"><ele>681.0</ele><time>2026-04-03T07:47:38.998Z</time></trkpt><trkpt lat="44.480053764678196" lon="7.9976002900266785"><ele>682.0</ele><time>2026-04-03T07:47:39.998Z</time></trkpt><trkpt lat="44.47990750890099" lon="7.997742768318458"><ele>684.6666666666667</ele><time>2026-04-03T07:47:40.998Z</time></trkpt><trkpt lat="44.47976546499178" lon="7.997887804602603"><ele>687.3333333333334</ele><time>2026-04-03T07:47:41.998Z</time></trkpt><trkpt lat="44.479639892412486" lon="7.998024138232978"><ele>690.0</ele><time>2026-04-03T07:47:42.998Z</time></trkpt><trkpt lat="44.47949672714826" lon="7.998137974345998"><ele>691.0</ele><time>2026-04-03T07:47:43.998Z</time></trkpt><trkpt lat="44.47935619336936" lon="7.998232995518495"><ele>692.0</ele><time>2026-04-03T07:47:44.998Z</time></trkpt><trkpt lat="44.479197612997275" lon="7.998298691601219"><ele>693.0</ele><time>2026-04-03T07:47:45.998Z</time></trkpt><trkpt lat="44.479038389359935" lon="7.9983462976852"><ele>696.6666666666666</ele><time>2026-04-03T07:47:46.998Z</time></trkpt><trkpt lat="44.47888298318432" lon="7.998391032145531"><ele>700.3333333333333</ele><time>2026-04-03T07:47:47.998Z</time></trkpt><trkpt lat="44.47872188644788" lon="7.998435996948456"><ele>704.0</ele><time>2026-04-03T07:47:48.998Z</time></trkpt><trkpt lat="44.47856776613011" lon="7.998484632927277"><ele>704.0</ele><time>2026-04-03T07:47:49.998Z</time></trkpt><trkpt lat="44.47841296793479" lon="7.998539113184424"><ele>704.0</ele><time>2026-04-03T07:47:50.998Z</time></trkpt><trkpt lat="44.478257131047066" lon="7.998595076080426"><ele>704.0</ele><time>2026-04-03T07:47:51.998Z</time></trkpt><trkpt lat="44.478109924404855" lon="7.998643697293484"><ele>704.0</ele><time>2026-04-03T07:47:52.998Z</time></trkpt><trkpt lat="44.47797785354813" lon="7.9986742332930705"><ele>704.0</ele><time>2026-04-03T07:47:53.998Z</time></trkpt><trkpt lat="44.47784772218571" lon="7.998693553811841"><ele>704.0</ele><time>2026-04-03T07:47:54.998Z</time></trkpt><trkpt lat="44.47773564462851" lon="7.9987101176588915"><ele>704.0</ele><time>2026-04-03T07:47:55.998Z</time></trkpt><trkpt lat="44.47763529847602" lon="7.9987258325822985"><ele>705.0</ele><time>2026-04-03T07:47:56.998Z</time></trkpt><trkpt lat="44.47754764514409" lon="7.9987473793096315"><ele>706.0</ele><time>2026-04-03T07:47:57.998Z</time></trkpt><trkpt lat="44.47747137460997" lon="7.998763234242365"><ele>707.0</ele><time>2026-04-03T07:47:58.998Z</time></trkpt><trkpt lat="44.47740361838747" lon="7.998781136906317"><ele>708.0</ele><time>2026-04-03T07:47:59.998Z</time></trkpt><trkpt lat="44.47730882993879" lon="7.998843951469596"><ele>709.0</ele><time>2026-04-03T07:48:01.998Z</time></trkpt><trkpt lat="44.47727665762743" lon="7.998995289090445"><ele>709.0</ele><time>2026-04-03T07:48:03.998Z</time></trkpt><trkpt lat="44.47731620000885" lon="7.999085468553212"><ele>709.0</ele><time>2026-04-03T07:48:04.998Z</time></trkpt><trkpt lat="44.477384630292484" lon="7.999146743760293"><ele>709.0</ele><time>2026-04-03T07:48:05.998Z</time></trkpt><trkpt lat="44.47745962620913" lon="7.9992095980299665"><ele>709.0</ele><time>2026-04-03T07:48:07Z</time></trkpt><trkpt lat="44.477541935238406" lon="7.999281037927557"><ele>709.0</ele><time>2026-04-03T07:48:08Z</time></trkpt><trkpt lat="44.47763414727671" lon="7.999358405147087"><ele>709.0</ele><time>2026-04-03T07:48:09Z</time></trkpt><trkpt lat="44.477726711455084" lon="7.999440187679891"><ele>710.6666666666667</ele><time>2026-04-03T07:48:10Z</time></trkpt><trkpt lat="44.47779756622176" lon="7.999517630765141"><ele>712.3333333333334</ele><time>2026-04-03T07:48:11Z</time></trkpt><trkpt lat="44.47784475345731" lon="7.999599398928304"><ele>714.0</ele><time>2026-04-03T07:48:12Z</time></trkpt><trkpt lat="44.47787914796058" lon="7.999715378555784"><ele>715.6666666666666</ele><time>2026-04-03T07:48:13Z</time></trkpt><trkpt lat="44.47788686833544" lon="7.999844981750693"><ele>717.3333333333333</ele><time>2026-04-03T07:48:14Z</time></trkpt><trkpt lat="44.47786617982912" lon="7.999982667026748"><ele>719.0</ele><time>2026-04-03T07:48:15Z</time></trkpt><trkpt lat="44.477808227376514" lon="8.00009712387405"><ele>719.0</ele><time>2026-04-03T07:48:16Z</time></trkpt><trkpt lat="44.47775042928541" lon="8.000233081631176"><ele>719.0</ele><time>2026-04-03T07:48:17Z</time></trkpt><trkpt lat="44.47767017334792" lon="8.000381957760887"><ele>719.0</ele><time>2026-04-03T07:48:18Z</time></trkpt><trkpt lat="44.47758812574937" lon="8.000528488314446"><ele>719.0</ele><time>2026-04-03T07:48:19Z</time></trkpt><trkpt lat="44.477511071249914" lon="8.000687778910521"><ele>716.6666666666666</ele><time>2026-04-03T07:48:20Z</time></trkpt><trkpt lat="44.477425620733364" lon="8.000882715876129"><ele>714.3333333333334</ele><time>2026-04-03T07:48:21Z</time></trkpt><trkpt lat="44.47734602196301" lon="8.001060122945923"><ele>712.0</ele><time>2026-04-03T07:48:22Z</time></trkpt><trkpt lat="44.47724968412805" lon="8.001260617276172"><ele>712.0</ele><time>2026-04-03T07:48:23Z</time></trkpt><trkpt lat="44.47715433680697" lon="8.001443591774914"><ele>712.0</ele><time>2026-04-03T07:48:24Z</time></trkpt><trkpt lat="44.477072940917495" lon="8.001615166284397"><ele>712.0</ele><time>2026-04-03T07:48:25Z</time></trkpt><trkpt lat="44.476990550999176" lon="8.00179352715922"><ele>711.75</ele><time>2026-04-03T07:48:26Z</time></trkpt><trkpt lat="44.476912047643346" lon="8.001948250849495"><ele>711.5</ele><time>2026-04-03T07:48:27Z</time></trkpt><trkpt lat="44.476838090245195" lon="8.00209733364385"><ele>711.25</ele><time>2026-04-03T07:48:28Z</time></trkpt><trkpt lat="44.47677818105692" lon="8.002229579886698"><ele>711.0</ele><time>2026-04-03T07:48:29Z</time></trkpt><trkpt lat="44.47672556127282" lon="8.002350149380819"><ele>711.0</ele><time>2026-04-03T07:48:30Z</time></trkpt><trkpt lat="44.47667057307893" lon="8.002497743310645"><ele>711.0</ele><time>2026-04-03T07:48:31Z</time></trkpt><trkpt lat="44.476622121276996" lon="8.002637951843148"><ele>711.0</ele><time>2026-04-03T07:48:32Z</time></trkpt><trkpt lat="44.476584771907184" lon="8.002773345017733"><ele>711.0</ele><time>2026-04-03T07:48:33Z</time></trkpt><trkpt lat="44.476553043758116" lon="8.002899270991897"><ele>711.0</ele><time>2026-04-03T07:48:34Z</time></trkpt><trkpt lat="44.47653245204063" lon="8.003054194853245"><ele>710.5999999999999</ele><time>2026-04-03T07:48:35Z</time></trkpt><trkpt lat="44.47651853012968" lon="8.00320194019844"><ele>710.2</ele><time>2026-04-03T07:48:36Z</time></trkpt><trkpt lat="44.47650568804166" lon="8.003331157368324"><ele>709.8</ele><time>2026-04-03T07:48:37Z</time></trkpt><trkpt lat="44.476487220071604" lon="8.003471466661283"><ele>709.4000000000001</ele><time>2026-04-03T07:48:38Z</time></trkpt><trkpt lat="44.47646916659559" lon="8.003609847810873"><ele>709.0</ele><time>2026-04-03T07:48:39Z</time></trkpt><trkpt lat="44.47645939800538" lon="8.0037270506939"><ele>707.6</ele><time>2026-04-03T07:48:40Z</time></trkpt><trkpt lat="44.47644561599258" lon="8.003860601217168"><ele>706.2</ele><time>2026-04-03T07:48:41Z</time></trkpt><trkpt lat="44.476432262773955" lon="8.003984283227638"><ele>704.8000000000001</ele><time>2026-04-03T07:48:42Z</time></trkpt><trkpt lat="44.476411585121554" lon="8.004124330323814"><ele>703.4000000000001</ele><time>2026-04-03T07:48:43Z</time></trkpt><trkpt lat="44.47639616735095" lon="8.004254225409522"><ele>702.0</ele><time>2026-04-03T07:48:44Z</time></trkpt><trkpt lat="44.47638089155397" lon="8.004374878431811"><ele>701.0</ele><time>2026-04-03T07:48:45Z</time></trkpt><trkpt lat="44.47636703188762" lon="8.004490433082278"><ele>700.0</ele><time>2026-04-03T07:48:46Z</time></trkpt><trkpt lat="44.476351197461156" lon="8.004619607647992"><ele>699.0</ele><time>2026-04-03T07:48:47Z</time></trkpt><trkpt lat="44.47633187157746" lon="8.00475861227223"><ele>698.0</ele><time>2026-04-03T07:48:47.999Z</time></trkpt><trkpt lat="44.47631231635414" lon="8.004908374179989"><ele>697.0</ele><time>2026-04-03T07:48:48.999Z</time></trkpt><trkpt lat="44.47628291866862" lon="8.00505127494464"><ele>697.4000000000001</ele><time>2026-04-03T07:48:49.999Z</time></trkpt><trkpt lat="44.476255062132466" lon="8.005175638546923"><ele>697.8000000000001</ele><time>2026-04-03T07:48:50.999Z</time></trkpt><trkpt lat="44.47622730784402" lon="8.005312399499742"><ele>698.2</ele><time>2026-04-03T07:48:51.999Z</time></trkpt><trkpt lat="44.476207615038014" lon="8.00544569739969"><ele>698.6</ele><time>2026-04-03T07:48:52.999Z</time></trkpt><trkpt lat="44.47618792425181" lon="8.005577331487544"><ele>699.0</ele><time>2026-04-03T07:48:53.999Z</time></trkpt><trkpt lat="44.476152618735775" lon="8.005718397054551"><ele>697.8000000000001</ele><time>2026-04-03T07:48:54.999Z</time></trkpt><trkpt lat="44.476121526005926" lon="8.005858631459018"><ele>696.6</ele><time>2026-04-03T07:48:55.999Z</time></trkpt><trkpt lat="44.47609267061371" lon="8.005997466461938"><ele>695.4</ele><time>2026-04-03T07:48:56.999Z</time></trkpt><trkpt lat="44.476061671594394" lon="8.006145720188185"><ele>694.2</ele><time>2026-04-03T07:48:57.999Z</time></trkpt><trkpt lat="44.476032191044276" lon="8.006291486699105"><ele>693.0</ele><time>2026-04-03T07:48:58.999Z</time></trkpt><trkpt lat="44.476006310053286" lon="8.006436181161726"><ele>693.0</ele><time>2026-04-03T07:48:59.999Z</time></trkpt><trkpt lat="44.475974191498786" lon="8.006585438685375"><ele>693.0</ele><time>2026-04-03T07:49:00.999Z</time></trkpt><trkpt lat="44.47594081989139" lon="8.006733284565918"><ele>693.0</ele><time>2026-04-03T07:49:01.999Z</time></trkpt><trkpt lat="44.47591036732976" lon="8.006879341989682"><ele>693.0</ele><time>2026-04-03T07:49:02.999Z</time></trkpt><trkpt lat="44.47587877971608" lon="8.007021849248789"><ele>693.0</ele><time>2026-04-03T07:49:03.999Z</time></trkpt><trkpt lat="44.475848950818616" lon="8.007163714948627"><ele>694.2</ele><time>2026-04-03T07:49:04.999Z</time></trkpt><trkpt lat="44.475823747351065" lon="8.00730960693683"><ele>695.4</ele><time>2026-04-03T07:49:05.999Z</time></trkpt><trkpt lat="44.47579901948805" lon="8.0074470016208"><ele>696.6</ele><time>2026-04-03T07:49:06.999Z</time></trkpt><trkpt lat="44.475758815529545" lon="8.007587902693516"><ele>697.8000000000001</ele><time>2026-04-03T07:49:07.999Z</time></trkpt><trkpt lat="44.47573905440586" lon="8.007739372911203"><ele>699.0</ele><time>2026-04-03T07:49:08.999Z</time></trkpt><trkpt lat="44.47572434680554" lon="8.007901413181703"><ele>700.0</ele><time>2026-04-03T07:49:09.999Z</time></trkpt><trkpt lat="44.47572730423134" lon="8.008058275208894"><ele>701.0</ele><time>2026-04-03T07:49:10.999Z</time></trkpt><trkpt lat="44.475699154192775" lon="8.008205389016139"><ele>702.0</ele><time>2026-04-03T07:49:11.999Z</time></trkpt><trkpt lat="44.47567190542939" lon="8.008350380612233"><ele>703.0</ele><time>2026-04-03T07:49:12.999Z</time></trkpt><trkpt lat="44.47563448373439" lon="8.008493157490607"><ele>704.0</ele><time>2026-04-03T07:49:13.999Z</time></trkpt><trkpt lat="44.4755909723211" lon="8.008642105911857"><ele>704.0</ele><time>2026-04-03T07:49:14.999Z</time></trkpt><trkpt lat="44.47554729307101" lon="8.008786427033026"><ele>704.0</ele><time>2026-04-03T07:49:15.999Z</time></trkpt><trkpt lat="44.47550146990515" lon="8.008926644192561"><ele>704.0</ele><time>2026-04-03T07:49:16.999Z</time></trkpt><trkpt lat="44.47545493100969" lon="8.009073338081203"><ele>704.0</ele><time>2026-04-03T07:49:17.999Z</time></trkpt><trkpt lat="44.47541119603043" lon="8.009220324511503"><ele>703.2</ele><time>2026-04-03T07:49:18.999Z</time></trkpt><trkpt lat="44.47537521458505" lon="8.009370176532352"><ele>702.4000000000001</ele><time>2026-04-03T07:49:19.999Z</time></trkpt><trkpt lat="44.47534381547749" lon="8.009526253182123"><ele>701.6</ele><time>2026-04-03T07:49:20.999Z</time></trkpt><trkpt lat="44.47531104726132" lon="8.00967111621965"><ele>700.8</ele><time>2026-04-03T07:49:21.999Z</time></trkpt><trkpt lat="44.475276584957925" lon="8.00981155173383"><ele>700.0</ele><time>2026-04-03T07:49:22.999Z</time></trkpt><trkpt lat="44.47524811801835" lon="8.009956946833398"><ele>701.4</ele><time>2026-04-03T07:49:23.999Z</time></trkpt><trkpt lat="44.475218928797595" lon="8.010105253587543"><ele>702.8</ele><time>2026-04-03T07:49:24.999Z</time></trkpt><trkpt lat="44.47518788777053" lon="8.010247189091071"><ele>704.2</ele><time>2026-04-03T07:49:25.999Z</time></trkpt><trkpt lat="44.47515919582535" lon="8.01038966261156"><ele>705.6</ele><time>2026-04-03T07:49:26.999Z</time></trkpt><trkpt lat="44.47512809019802" lon="8.010529679732295"><ele>707.0</ele><time>2026-04-03T07:49:27.999Z</time></trkpt><trkpt lat="44.47509691018703" lon="8.010666081922485"><ele>707.0</ele><time>2026-04-03T07:49:28.999Z</time></trkpt><trkpt lat="44.47506421040676" lon="8.01080790743015"><ele>707.0</ele><time>2026-04-03T07:49:29.999Z</time></trkpt><trkpt lat="44.47503036556744" lon="8.010954295461463"><ele>707.0</ele><time>2026-04-03T07:49:30.999Z</time></trkpt><trkpt lat="44.474992074981785" lon="8.011091450282446"><ele>707.0</ele><time>2026-04-03T07:49:31.999Z</time></trkpt><trkpt lat="44.4749479612951" lon="8.01123094833098"><ele>707.0</ele><time>2026-04-03T07:49:32.999Z</time></trkpt><trkpt lat="44.47490257500724" lon="8.01137024238382"><ele>707.0</ele><time>2026-04-03T07:49:33.999Z</time></trkpt><trkpt lat="44.47485185149643" lon="8.011513071112496"><ele>707.0</ele><time>2026-04-03T07:49:34.999Z</time></trkpt><trkpt lat="44.474803314246984" lon="8.01165321567017"><ele>707.0</ele><time>2026-04-03T07:49:35.999Z</time></trkpt><trkpt lat="44.47475390629199" lon="8.011792616867663"><ele>707.0</ele><time>2026-04-03T07:49:36.999Z</time></trkpt><trkpt lat="44.47470562971013" lon="8.011929341680645"><ele>707.0</ele><time>2026-04-03T07:49:37.999Z</time></trkpt><trkpt lat="44.47465099934064" lon="8.012065410564906"><ele>707.6</ele><time>2026-04-03T07:49:38.999Z</time></trkpt><trkpt lat="44.47459852493591" lon="8.012205125494592"><ele>708.2</ele><time>2026-04-03T07:49:39.999Z</time></trkpt><trkpt lat="44.47454550316244" lon="8.01233664712991"><ele>708.8</ele><time>2026-04-03T07:49:40.999Z</time></trkpt><trkpt lat="44.47449075236838" lon="8.012470996045161"><ele>709.4</ele><time>2026-04-03T07:49:41.999Z</time></trkpt><trkpt lat="44.47444076679545" lon="8.012606524028959"><ele>710.0</ele><time>2026-04-03T07:49:42.999Z</time></trkpt><trkpt lat="44.47438807167107" lon="8.012737660517264"><ele>710.0</ele><time>2026-04-03T07:49:43.998Z</time></trkpt><trkpt lat="44.47433595346448" lon="8.012866690033178"><ele>710.0</ele><time>2026-04-03T07:49:44.998Z</time></trkpt><trkpt lat="44.474288081300855" lon="8.013000806987025"><ele>710.0</ele><time>2026-04-03T07:49:45.998Z</time></trkpt><trkpt lat="44.4742422937377" lon="8.013135536013184"><ele>710.0</ele><time>2026-04-03T07:49:46.998Z</time></trkpt><trkpt lat="44.47419092061212" lon="8.01327493438193"><ele>710.0</ele><time>2026-04-03T07:49:47.998Z</time></trkpt><trkpt lat="44.47414219064395" lon="8.013395947549363"><ele>710.4</ele><time>2026-04-03T07:49:48.998Z</time></trkpt><trkpt lat="44.47409607642765" lon="8.013524597502245"><ele>710.8</ele><time>2026-04-03T07:49:49.998Z</time></trkpt><trkpt lat="44.474048507363904" lon="8.013645249087292"><ele>711.2</ele><time>2026-04-03T07:49:50.998Z</time></trkpt><trkpt lat="44.47400373787537" lon="8.013767498436698"><ele>711.6</ele><time>2026-04-03T07:49:51.998Z</time></trkpt><trkpt lat="44.473962976301124" lon="8.013878556598932"><ele>712.0</ele><time>2026-04-03T07:49:52.998Z</time></trkpt><trkpt lat="44.473931365101855" lon="8.013986277414183"><ele>712.0</ele><time>2026-04-03T07:49:53.998Z</time></trkpt><trkpt lat="44.47389817114577" lon="8.014080609548355"><ele>712.0</ele><time>2026-04-03T07:49:54.998Z</time></trkpt><trkpt lat="44.473866938797926" lon="8.014166281742842"><ele>712.0</ele><time>2026-04-03T07:49:55.998Z</time></trkpt><trkpt lat="44.47380171313933" lon="8.01432068991829"><ele>712.0</ele><time>2026-04-03T07:49:57.998Z</time></trkpt><trkpt lat="44.473746034954644" lon="8.014402618083462"><ele>712.0</ele><time>2026-04-03T07:49:58.998Z</time></trkpt><trkpt lat="44.47369508676554" lon="8.014493915244978"><ele>712.0</ele><time>2026-04-03T07:49:59.998Z</time></trkpt><trkpt lat="44.47364286284009" lon="8.014600667613411"><ele>711.4000000000001</ele><time>2026-04-03T07:50:00.998Z</time></trkpt><trkpt lat="44.473589776915766" lon="8.014718300197334"><ele>710.8000000000001</ele><time>2026-04-03T07:50:01.998Z</time></trkpt><trkpt lat="44.473544458687044" lon="8.014836048630457"><ele>710.2</ele><time>2026-04-03T07:50:02.998Z</time></trkpt><trkpt lat="44.47349960712491" lon="8.014955718522323"><ele>709.6</ele><time>2026-04-03T07:50:03.998Z</time></trkpt><trkpt lat="44.473451674096296" lon="8.015072569471338"><ele>709.0</ele><time>2026-04-03T07:50:04.998Z</time></trkpt><trkpt lat="44.47340695380455" lon="8.015182615057986"><ele>709.0</ele><time>2026-04-03T07:50:05.998Z</time></trkpt><trkpt lat="44.47336395420074" lon="8.01529585745072"><ele>709.0</ele><time>2026-04-03T07:50:06.998Z</time></trkpt><trkpt lat="44.47332621109402" lon="8.015417662204312"><ele>709.0</ele><time>2026-04-03T07:50:07.998Z</time></trkpt><trkpt lat="44.47329630437406" lon="8.015537474359673"><ele>709.0</ele><time>2026-04-03T07:50:08.998Z</time></trkpt><trkpt lat="44.47325235076061" lon="8.015663173072946"><ele>709.0</ele><time>2026-04-03T07:50:09.998Z</time></trkpt><trkpt lat="44.47323315569442" lon="8.015798255590578"><ele>709.2</ele><time>2026-04-03T07:50:10.998Z</time></trkpt><trkpt lat="44.47321901320719" lon="8.01592140461232"><ele>709.4000000000001</ele><time>2026-04-03T07:50:11.998Z</time></trkpt><trkpt lat="44.4732044035273" lon="8.016051613128512"><ele>709.6</ele><time>2026-04-03T07:50:13Z</time></trkpt><trkpt lat="44.47318862884999" lon="8.01618486009282"><ele>709.8</ele><time>2026-04-03T07:50:14Z</time></trkpt><trkpt lat="44.47317220538974" lon="8.016321635163347"><ele>710.0</ele><time>2026-04-03T07:50:15Z</time></trkpt><trkpt lat="44.47315266104961" lon="8.01646520310975"><ele>710.0</ele><time>2026-04-03T07:50:16Z</time></trkpt><trkpt lat="44.47313682308986" lon="8.016604969434864"><ele>710.0</ele><time>2026-04-03T07:50:17Z</time></trkpt><trkpt lat="44.47312365917296" lon="8.016737956580164"><ele>710.0</ele><time>2026-04-03T07:50:18Z</time></trkpt><trkpt lat="44.473110496759276" lon="8.016869520421992"><ele>710.0</ele><time>2026-04-03T07:50:19Z</time></trkpt><trkpt lat="44.473099894466685" lon="8.017005057288264"><ele>710.0</ele><time>2026-04-03T07:50:20Z</time></trkpt><trkpt lat="44.47308195885765" lon="8.017135237288045"><ele>710.0</ele><time>2026-04-03T07:50:21Z</time></trkpt><trkpt lat="44.473067190270406" lon="8.017273469296706"><ele>710.0</ele><time>2026-04-03T07:50:22Z</time></trkpt><trkpt lat="44.47304646894516" lon="8.017416324396978"><ele>710.0</ele><time>2026-04-03T07:50:23Z</time></trkpt><trkpt lat="44.47302908333485" lon="8.017562617530501"><ele>710.0</ele><time>2026-04-03T07:50:24Z</time></trkpt><trkpt lat="44.47299778837726" lon="8.01772209796921"><ele>710.0</ele><time>2026-04-03T07:50:25Z</time></trkpt><trkpt lat="44.47295766105738" lon="8.017874731463673"><ele>707.5</ele><time>2026-04-03T07:50:26Z</time></trkpt><trkpt lat="44.472909514207785" lon="8.018026639564914"><ele>705.0</ele><time>2026-04-03T07:50:27Z</time></trkpt><trkpt lat="44.47283987671897" lon="8.018174975933553"><ele>702.5</ele><time>2026-04-03T07:50:28Z</time></trkpt><trkpt lat="44.47275953076112" lon="8.018313959210655"><ele>700.0</ele><time>2026-04-03T07:50:29Z</time></trkpt><trkpt lat="44.47268133663064" lon="8.018442901859599"><ele>700.0</ele><time>2026-04-03T07:50:30Z</time></trkpt><trkpt lat="44.47260762185687" lon="8.018561242262024"><ele>700.0</ele><time>2026-04-03T07:50:31Z</time></trkpt><trkpt lat="44.472534953234025" lon="8.018663548017585"><ele>700.0</ele><time>2026-04-03T07:50:32Z</time></trkpt><trkpt lat="44.472470680097786" lon="8.018760402894095"><ele>700.0</ele><time>2026-04-03T07:50:33Z</time></trkpt><trkpt lat="44.47241178011594" lon="8.018852596729786"><ele>700.0</ele><time>2026-04-03T07:50:34Z</time></trkpt><trkpt lat="44.47235609342953" lon="8.018944015200253"><ele>700.0</ele><time>2026-04-03T07:50:35Z</time></trkpt><trkpt lat="44.47231994151956" lon="8.019051930936357"><ele>700.0</ele><time>2026-04-03T07:50:36Z</time></trkpt><trkpt lat="44.47230423120938" lon="8.01916664240523"><ele>700.0</ele><time>2026-04-03T07:50:37Z</time></trkpt><trkpt lat="44.47230812126451" lon="8.019279455528006"><ele>700.0</ele><time>2026-04-03T07:50:38Z</time></trkpt><trkpt lat="44.472328002347965" lon="8.019399184024008"><ele>700.0</ele><time>2026-04-03T07:50:39Z</time></trkpt><trkpt lat="44.47236967022994" lon="8.01951828782352"><ele>700.0</ele><time>2026-04-03T07:50:40Z</time></trkpt><trkpt lat="44.47243512062985" lon="8.019616562502701"><ele>701.3333333333334</ele><time>2026-04-03T07:50:41Z</time></trkpt><trkpt lat="44.47250803483915" lon="8.019707989705381"><ele>702.6666666666667</ele><time>2026-04-03T07:50:42Z</time></trkpt><trkpt lat="44.47256441375827" lon="8.019810728923922"><ele>704.0</ele><time>2026-04-03T07:50:43Z</time></trkpt><trkpt lat="44.47263522217391" lon="8.019880451731535"><ele>705.3333333333334</ele><time>2026-04-03T07:50:44Z</time></trkpt><trkpt lat="44.47268883540102" lon="8.019971846464449"><ele>706.6666666666666</ele><time>2026-04-03T07:50:45Z</time></trkpt><trkpt lat="44.47274003973067" lon="8.020061728995943"><ele>708.0</ele><time>2026-04-03T07:50:46Z</time></trkpt><trkpt lat="44.472782070167035" lon="8.020169569816245"><ele>708.0</ele><time>2026-04-03T07:50:47Z</time></trkpt><trkpt lat="44.472804257175724" lon="8.02029218203473"><ele>708.0</ele><time>2026-04-03T07:50:48Z</time></trkpt><trkpt lat="44.47279634326959" lon="8.020437955476732"><ele>708.0</ele><time>2026-04-03T07:50:49Z</time></trkpt><trkpt lat="44.47278454414752" lon="8.020575533197805"><ele>708.0</ele><time>2026-04-03T07:50:50Z</time></trkpt><trkpt lat="44.472757149119126" lon="8.020708697151544"><ele>708.0</ele><time>2026-04-03T07:50:51Z</time></trkpt><trkpt lat="44.47268794656164" lon="8.020822690300456"><ele>707.8</ele><time>2026-04-03T07:50:52Z</time></trkpt><trkpt lat="44.47261996676499" lon="8.020928886943548"><ele>707.5999999999999</ele><time>2026-04-03T07:50:53Z</time></trkpt><trkpt lat="44.472547064766744" lon="8.021036878960693"><ele>707.4000000000001</ele><time>2026-04-03T07:50:54Z</time></trkpt><trkpt lat="44.472478920996686" lon="8.0211387119128"><ele>707.2</ele><time>2026-04-03T07:50:54.999Z</time></trkpt><trkpt lat="44.47241235194076" lon="8.021238931904168"><ele>707.0</ele><time>2026-04-03T07:50:55.999Z</time></trkpt><trkpt lat="44.4723475826767" lon="8.021336442231378"><ele>707.0</ele><time>2026-04-03T07:50:56.999Z</time></trkpt><trkpt lat="44.47228605683037" lon="8.021429069477481"><ele>707.0</ele><time>2026-04-03T07:50:57.999Z</time></trkpt><trkpt lat="44.47222158621673" lon="8.021526130445276"><ele>707.0</ele><time>2026-04-03T07:50:58.999Z</time></trkpt><trkpt lat="44.47215370848039" lon="8.021628320180737"><ele>707.0</ele><time>2026-04-03T07:50:59.999Z</time></trkpt><trkpt lat="44.47209551046635" lon="8.021747031439027"><ele>707.0</ele><time>2026-04-03T07:51:00.999Z</time></trkpt><trkpt lat="44.472030753378924" lon="8.021847350120613"><ele>704.8333333333333</ele><time>2026-04-03T07:51:01.999Z</time></trkpt><trkpt lat="44.47196019260991" lon="8.021919658937183"><ele>702.6666666666666</ele><time>2026-04-03T07:51:02.999Z</time></trkpt><trkpt lat="44.471898334239924" lon="8.0220127868973"><ele>700.5</ele><time>2026-04-03T07:51:03.999Z</time></trkpt><trkpt lat="44.471842009262275" lon="8.0220975843548"><ele>698.3333333333334</ele><time>2026-04-03T07:51:04.999Z</time></trkpt><trkpt lat="44.471801399441944" lon="8.022203067497722"><ele>696.1666666666667</ele><time>2026-04-03T07:51:05.999Z</time></trkpt><trkpt lat="44.47174133170535" lon="8.022287062390882"><ele>694.0</ele><time>2026-04-03T07:51:06.999Z</time></trkpt><trkpt lat="44.471687924715546" lon="8.02237306314809"><ele>694.0</ele><time>2026-04-03T07:51:07.999Z</time></trkpt><trkpt lat="44.471630085652905" lon="8.022449904285782"><ele>694.0</ele><time>2026-04-03T07:51:08.999Z</time></trkpt><trkpt lat="44.471570936985195" lon="8.022528364184575"><ele>694.0</ele><time>2026-04-03T07:51:09.999Z</time></trkpt><trkpt lat="44.47150212042812" lon="8.022621130179733"><ele>694.0</ele><time>2026-04-03T07:51:10.999Z</time></trkpt><trkpt lat="44.47144567419467" lon="8.022705583629223"><ele>694.0</ele><time>2026-04-03T07:51:11.999Z</time></trkpt><trkpt lat="44.47137891842075" lon="8.022772512186974"><ele>694.0</ele><time>2026-04-03T07:51:12.999Z</time></trkpt><trkpt lat="44.47131454273931" lon="8.022865596220392"><ele>695.0</ele><time>2026-04-03T07:51:13.999Z</time></trkpt><trkpt lat="44.47125098762548" lon="8.022975897060677"><ele>696.0</ele><time>2026-04-03T07:51:14.999Z</time></trkpt><trkpt lat="44.471186339354844" lon="8.023075689580953"><ele>697.0</ele><time>2026-04-03T07:51:15.999Z</time></trkpt><trkpt lat="44.471118854355225" lon="8.023179607773605"><ele>698.0</ele><time>2026-04-03T07:51:16.999Z</time></trkpt><trkpt lat="44.47105304630531" lon="8.023280919878905"><ele>699.0</ele><time>2026-04-03T07:51:17.999Z</time></trkpt><trkpt lat="44.47098890998873" lon="8.023400255162947"><ele>699.0</ele><time>2026-04-03T07:51:18.999Z</time></trkpt><trkpt lat="44.470923129353515" lon="8.023494107133217"><ele>699.0</ele><time>2026-04-03T07:51:19.999Z</time></trkpt><trkpt lat="44.47085569780942" lon="8.023593577533164"><ele>699.0</ele><time>2026-04-03T07:51:20.999Z</time></trkpt><trkpt lat="44.47079308296475" lon="8.023698483919937"><ele>699.0</ele><time>2026-04-03T07:51:21.999Z</time></trkpt><trkpt lat="44.47074067812402" lon="8.023823097159244"><ele>699.0</ele><time>2026-04-03T07:51:22.999Z</time></trkpt><trkpt lat="44.470690035232955" lon="8.023953568201637"><ele>699.0</ele><time>2026-04-03T07:51:23.999Z</time></trkpt><trkpt lat="44.47064528213634" lon="8.024093362863686"><ele>699.0</ele><time>2026-04-03T07:51:24.999Z</time></trkpt><trkpt lat="44.47060879502727" lon="8.024224395956132"><ele>699.0</ele><time>2026-04-03T07:51:25.999Z</time></trkpt><trkpt lat="44.47057731019589" lon="8.02437182036251"><ele>699.0</ele><time>2026-04-03T07:51:26.999Z</time></trkpt><trkpt lat="44.47052251831725" lon="8.024505268704129"><ele>699.0</ele><time>2026-04-03T07:51:27.999Z</time></trkpt><trkpt lat="44.470488307097824" lon="8.024649152008022"><ele>700.0</ele><time>2026-04-03T07:51:28.999Z</time></trkpt><trkpt lat="44.47045637598921" lon="8.02478598826946"><ele>701.0</ele><time>2026-04-03T07:51:29.999Z</time></trkpt><trkpt lat="44.47042550146263" lon="8.024922719158576"><ele>702.0</ele><time>2026-04-03T07:51:30.999Z</time></trkpt><trkpt lat="44.47039241937522" lon="8.025057441293393"><ele>703.0</ele><time>2026-04-03T07:51:31.999Z</time></trkpt><trkpt lat="44.470360967304835" lon="8.025195988828024"><ele>704.0</ele><time>2026-04-03T07:51:32.999Z</time></trkpt><trkpt lat="44.47032952753648" lon="8.025336466731758"><ele>703.4000000000001</ele><time>2026-04-03T07:51:33.999Z</time></trkpt><trkpt lat="44.470282023863035" lon="8.025461051514313"><ele>702.8</ele><time>2026-04-03T07:51:34.999Z</time></trkpt><trkpt lat="44.470251860105535" lon="8.025597214684527"><ele>702.2</ele><time>2026-04-03T07:51:35.999Z</time></trkpt><trkpt lat="44.4702155946424" lon="8.02573033452024"><ele>701.5999999999999</ele><time>2026-04-03T07:51:36.999Z</time></trkpt><trkpt lat="44.470173977554865" lon="8.025863359201885"><ele>701.0</ele><time>2026-04-03T07:51:37.999Z</time></trkpt><trkpt lat="44.470125914922804" lon="8.025986820789198"><ele>701.0</ele><time>2026-04-03T07:51:38.999Z</time></trkpt><trkpt lat="44.470066442265605" lon="8.02610143022232"><ele>701.0</ele><time>2026-04-03T07:51:39.999Z</time></trkpt><trkpt lat="44.469993353504066" lon="8.026208515765559"><ele>701.0</ele><time>2026-04-03T07:51:40.999Z</time></trkpt><trkpt lat="44.469911853906794" lon="8.026311751326379"><ele>701.0</ele><time>2026-04-03T07:51:41.999Z</time></trkpt><trkpt lat="44.46982104771839" lon="8.02641827615966"><ele>701.0</ele><time>2026-04-03T07:51:42.999Z</time></trkpt><trkpt lat="44.46972376164112" lon="8.026526242347222"><ele>701.75</ele><time>2026-04-03T07:51:43.999Z</time></trkpt><trkpt lat="44.469626827422296" lon="8.026649102695727"><ele>702.5</ele><time>2026-04-03T07:51:44.999Z</time></trkpt><trkpt lat="44.46953068062046" lon="8.026784914299412"><ele>703.25</ele><time>2026-04-03T07:51:45.999Z</time></trkpt><trkpt lat="44.469446631791506" lon="8.026923930809781"><ele>704.0</ele><time>2026-04-03T07:51:46.999Z</time></trkpt><trkpt lat="44.46937386278298" lon="8.027067163339769"><ele>704.0</ele><time>2026-04-03T07:51:47.999Z</time></trkpt><trkpt lat="44.46931599484645" lon="8.027217556922627"><ele>704.0</ele><time>2026-04-03T07:51:48.999Z</time></trkpt><trkpt lat="44.46927024375866" lon="8.027377305476218"><ele>704.0</ele><time>2026-04-03T07:51:49.999Z</time></trkpt><trkpt lat="44.46923548144821" lon="8.027538477216147"><ele>704.0</ele><time>2026-04-03T07:51:50.998Z</time></trkpt><trkpt lat="44.469189848452395" lon="8.027688282083027"><ele>706.2</ele><time>2026-04-03T07:51:51.998Z</time></trkpt><trkpt lat="44.46916573728662" lon="8.027838327454713"><ele>708.4000000000001</ele><time>2026-04-03T07:51:52.998Z</time></trkpt><trkpt lat="44.46916005297016" lon="8.028005354599225"><ele>710.6</ele><time>2026-04-03T07:51:53.998Z</time></trkpt><trkpt lat="44.46913384654771" lon="8.028153256698154"><ele>712.8</ele><time>2026-04-03T07:51:54.998Z</time></trkpt><trkpt lat="44.46912484542056" lon="8.028281198327681"><ele>715.0</ele><time>2026-04-03T07:51:55.998Z</time></trkpt><trkpt lat="44.46911427979118" lon="8.02839718949217"><ele>715.5</ele><time>2026-04-03T07:51:56.998Z</time></trkpt><trkpt lat="44.469097635631776" lon="8.02850819676803"><ele>716.0</ele><time>2026-04-03T07:51:57.998Z</time></trkpt><trkpt lat="44.469048796969844" lon="8.028600795461367"><ele>716.5</ele><time>2026-04-03T07:51:58.998Z</time></trkpt><trkpt lat="44.46898315754909" lon="8.028680747837479"><ele>717.0</ele><time>2026-04-03T07:51:59.998Z</time></trkpt><trkpt lat="44.468907756244384" lon="8.028749433201783"><ele>717.5</ele><time>2026-04-03T07:52:00.998Z</time></trkpt><trkpt lat="44.46881816704829" lon="8.028781587222568"><ele>718.0</ele><time>2026-04-03T07:52:01.998Z</time></trkpt><trkpt lat="44.468729036263504" lon="8.028759369550142"><ele>718.0</ele><time>2026-04-03T07:52:02.998Z</time></trkpt><trkpt lat="44.46863481884595" lon="8.028742406792041"><ele>718.0</ele><time>2026-04-03T07:52:03.998Z</time></trkpt><trkpt lat="44.46854477946669" lon="8.028721676087944"><ele>718.0</ele><time>2026-04-03T07:52:04.998Z</time></trkpt><trkpt lat="44.468446244940914" lon="8.028709044355075"><ele>718.0</ele><time>2026-04-03T07:52:05.998Z</time></trkpt><trkpt lat="44.46834391991487" lon="8.028736066888762"><ele>718.0</ele><time>2026-04-03T07:52:06.998Z</time></trkpt><trkpt lat="44.46824976806622" lon="8.028792012351492"><ele>718.0</ele><time>2026-04-03T07:52:07.998Z</time></trkpt><trkpt lat="44.46814962513875" lon="8.028830661777404"><ele>718.0</ele><time>2026-04-03T07:52:08.998Z</time></trkpt><trkpt lat="44.468071047759345" lon="8.028915774393079"><ele>718.0</ele><time>2026-04-03T07:52:09.998Z</time></trkpt><trkpt lat="44.46799038477581" lon="8.02899183031489"><ele>718.0</ele><time>2026-04-03T07:52:10.998Z</time></trkpt><trkpt lat="44.467914338711466" lon="8.029081298431944"><ele>718.0</ele><time>2026-04-03T07:52:11.998Z</time></trkpt><trkpt lat="44.467851646788716" lon="8.029193019235336"><ele>719.8</ele><time>2026-04-03T07:52:12.998Z</time></trkpt><trkpt lat="44.467790269889164" lon="8.029306346332422"><ele>721.5999999999999</ele><time>2026-04-03T07:52:13.998Z</time></trkpt><trkpt lat="44.46773159102136" lon="8.029421550757007"><ele>723.4000000000001</ele><time>2026-04-03T07:52:14.998Z</time></trkpt><trkpt lat="44.46766973772507" lon="8.029539261178432"><ele>725.2</ele><time>2026-04-03T07:52:15.998Z</time></trkpt><trkpt lat="44.46759339091669" lon="8.029631686553484"><ele>727.0</ele><time>2026-04-03T07:52:16.998Z</time></trkpt><trkpt lat="44.467513339133575" lon="8.029704820235184"><ele>727.0</ele><time>2026-04-03T07:52:17.998Z</time></trkpt><trkpt lat="44.46741139320543" lon="8.029729660494809"><ele>727.0</ele><time>2026-04-03T07:52:19Z</time></trkpt><trkpt lat="44.46730487747194" lon="8.02974519565451"><ele>727.0</ele><time>2026-04-03T07:52:20Z</time></trkpt><trkpt lat="44.46718358097419" lon="8.029748620426435"><ele>727.0</ele><time>2026-04-03T07:52:21Z</time></trkpt><trkpt lat="44.46705235712139" lon="8.029771757053098"><ele>728.0</ele><time>2026-04-03T07:52:22Z</time></trkpt><trkpt lat="44.466914919222404" lon="8.02975380348076"><ele>729.0</ele><time>2026-04-03T07:52:23Z</time></trkpt><trkpt lat="44.466785995292945" lon="8.029763535579407"><ele>730.0</ele><time>2026-04-03T07:52:24Z</time></trkpt><trkpt lat="44.466664801242295" lon="8.029787973560564"><ele>731.0</ele><time>2026-04-03T07:52:25Z</time></trkpt><trkpt lat="44.46656267131475" lon="8.0298102088583"><ele>731.0</ele><time>2026-04-03T07:52:26Z</time></trkpt><trkpt lat="44.46645711144786" lon="8.029849058794873"><ele>731.0</ele><time>2026-04-03T07:52:27Z</time></trkpt><trkpt lat="44.46635765892372" lon="8.029906953244492"><ele>731.0</ele><time>2026-04-03T07:52:28Z</time></trkpt><trkpt lat="44.4662771806234" lon="8.029973365586613"><ele>731.0</ele><time>2026-04-03T07:52:29Z</time></trkpt><trkpt lat="44.46620912130023" lon="8.030058398585819"><ele>731.0</ele><time>2026-04-03T07:52:30Z</time></trkpt><trkpt lat="44.466159946110494" lon="8.030151076651318"><ele>731.4</ele><time>2026-04-03T07:52:31Z</time></trkpt><trkpt lat="44.46612528954242" lon="8.030263668842926"><ele>731.8</ele><time>2026-04-03T07:52:32Z</time></trkpt><trkpt lat="44.46611063276059" lon="8.030389835998156"><ele>732.1999999999999</ele><time>2026-04-03T07:52:33Z</time></trkpt><trkpt lat="44.4661147738561" lon="8.030532024078093"><ele>732.5999999999999</ele><time>2026-04-03T07:52:34Z</time></trkpt><trkpt lat="44.46613345775442" lon="8.030677525658282"><ele>733.0</ele><time>2026-04-03T07:52:35Z</time></trkpt><trkpt lat="44.466177508148604" lon="8.030815895962242"><ele>733.0</ele><time>2026-04-03T07:52:36Z</time></trkpt><trkpt lat="44.46622093031873" lon="8.03097471245063"><ele>733.0</ele><time>2026-04-03T07:52:37Z</time></trkpt><trkpt lat="44.46626327708566" lon="8.031136039281243"><ele>733.0</ele><time>2026-04-03T07:52:38Z</time></trkpt><trkpt lat="44.466304586306116" lon="8.031307378615654"><ele>733.0</ele><time>2026-04-03T07:52:39Z</time></trkpt><trkpt lat="44.466351953608" lon="8.031478635831954"><ele>737.5999999999999</ele><time>2026-04-03T07:52:40Z</time></trkpt><trkpt lat="44.46639106758494" lon="8.03162015042217"><ele>742.1999999999999</ele><time>2026-04-03T07:52:41Z</time></trkpt><trkpt lat="44.4664219709159" lon="8.031756478129713"><ele>746.8</ele><time>2026-04-03T07:52:42Z</time></trkpt><trkpt lat="44.46643943686067" lon="8.031906527501535"><ele>751.4</ele><time>2026-04-03T07:52:43Z</time></trkpt><trkpt lat="44.46643572726917" lon="8.032071549057987"><ele>756.0</ele><time>2026-04-03T07:52:44Z</time></trkpt><trkpt lat="44.466423387030794" lon="8.03223147092798"><ele>754.75</ele><time>2026-04-03T07:52:45Z</time></trkpt><trkpt lat="44.46638931922776" lon="8.032383131997763"><ele>753.5</ele><time>2026-04-03T07:52:46Z</time></trkpt><trkpt lat="44.466324885412995" lon="8.032513152797428"><ele>752.25</ele><time>2026-04-03T07:52:47Z</time></trkpt><trkpt lat="44.46621877745398" lon="8.032601227746147"><ele>751.0</ele><time>2026-04-03T07:52:48Z</time></trkpt><trkpt lat="44.46612235153003" lon="8.032686852763591"><ele>751.0</ele><time>2026-04-03T07:52:49Z</time></trkpt><trkpt lat="44.466013032427256" lon="8.03278001270759"><ele>751.0</ele><time>2026-04-03T07:52:50Z</time></trkpt><trkpt lat="44.46591797219053" lon="8.032869631388301"><ele>751.0</ele><time>2026-04-03T07:52:51Z</time></trkpt><trkpt lat="44.465824267113156" lon="8.03298245777602"><ele>751.0</ele><time>2026-04-03T07:52:52Z</time></trkpt><trkpt lat="44.465740282141134" lon="8.033127117740566"><ele>751.0</ele><time>2026-04-03T07:52:53Z</time></trkpt><trkpt lat="44.46564488940774" lon="8.033283883487279"><ele>751.0</ele><time>2026-04-03T07:52:54Z</time></trkpt><trkpt lat="44.46556557386523" lon="8.033449383941228"><ele>751.0</ele><time>2026-04-03T07:52:55Z</time></trkpt><trkpt lat="44.46547617051732" lon="8.033613679210893"><ele>751.0</ele><time>2026-04-03T07:52:56Z</time></trkpt><trkpt lat="44.465389830900975" lon="8.033769344469347"><ele>749.0</ele><time>2026-04-03T07:52:57Z</time></trkpt><trkpt lat="44.4652882155699" lon="8.033925599437145"><ele>747.0</ele><time>2026-04-03T07:52:58Z</time></trkpt><trkpt lat="44.46517226298718" lon="8.034081350593116"><ele>745.0</ele><time>2026-04-03T07:52:59Z</time></trkpt><trkpt lat="44.465041549236105" lon="8.03422660545506"><ele>750.6666666666667</ele><time>2026-04-03T07:53:00Z</time></trkpt><trkpt lat="44.464912580112546" lon="8.03436051018241"><ele>756.3333333333334</ele><time>2026-04-03T07:53:00.999Z</time></trkpt><trkpt lat="44.464778794270146" lon="8.03449014265434"><ele>762.0</ele><time>2026-04-03T07:53:01.999Z</time></trkpt><trkpt lat="44.46463200011592" lon="8.034629612104803"><ele>764.3333333333333</ele><time>2026-04-03T07:53:02.999Z</time></trkpt><trkpt lat="44.46448145001916" lon="8.034764232504871"><ele>766.6666666666666</ele><time>2026-04-03T07:53:03.999Z</time></trkpt><trkpt lat="44.46433403909945" lon="8.034893252729903"><ele>769.0</ele><time>2026-04-03T07:53:04.999Z</time></trkpt><trkpt lat="44.46418865731673" lon="8.035030281186778"><ele>769.0</ele><time>2026-04-03T07:53:05.999Z</time></trkpt><trkpt lat="44.464042314773216" lon="8.035166291966004"><ele>769.0</ele><time>2026-04-03T07:53:06.999Z</time></trkpt><trkpt lat="44.463917990088426" lon="8.035284046667751"><ele>769.0</ele><time>2026-04-03T07:53:07.999Z</time></trkpt><trkpt lat="44.463792192254466" lon="8.03539663133857"><ele>766.6666666666666</ele><time>2026-04-03T07:53:08.999Z</time></trkpt><trkpt lat="44.46365593490031" lon="8.035511580857142"><ele>764.3333333333333</ele><time>2026-04-03T07:53:09.999Z</time></trkpt><trkpt lat="44.46351414633195" lon="8.035618694664372"><ele>762.0</ele><time>2026-04-03T07:53:10.999Z</time></trkpt><trkpt lat="44.463374673993" lon="8.035699700159919"><ele>762.0</ele><time>2026-04-03T07:53:11.999Z</time></trkpt><trkpt lat="44.46321746246451" lon="8.035748114914487"><ele>762.0</ele><time>2026-04-03T07:53:12.999Z</time></trkpt><trkpt lat="44.46305476749134" lon="8.035768874965761"><ele>762.0</ele><time>2026-04-03T07:53:13.999Z</time></trkpt><trkpt lat="44.462892450663674" lon="8.035781980154459"><ele>769.3333333333333</ele><time>2026-04-03T07:53:14.999Z</time></trkpt><trkpt lat="44.4627331070728" lon="8.035807973204149"><ele>776.6666666666666</ele><time>2026-04-03T07:53:15.999Z</time></trkpt><trkpt lat="44.46257004600872" lon="8.035825564434958"><ele>784.0</ele><time>2026-04-03T07:53:16.999Z</time></trkpt><trkpt lat="44.462411224119315" lon="8.035916084890381"><ele>784.0</ele><time>2026-04-03T07:53:17.999Z</time></trkpt><trkpt lat="44.46225048948027" lon="8.036003298687746"><ele>784.0</ele><time>2026-04-03T07:53:18.999Z</time></trkpt><trkpt lat="44.46208301095707" lon="8.03608836026913"><ele>784.0</ele><time>2026-04-03T07:53:19.999Z</time></trkpt><trkpt lat="44.46191305766829" lon="8.036175580674122"><ele>783.3333333333333</ele><time>2026-04-03T07:53:20.999Z</time></trkpt><trkpt lat="44.46175358346222" lon="8.036257377160771"><ele>782.6666666666667</ele><time>2026-04-03T07:53:21.999Z</time></trkpt><trkpt lat="44.46161634712415" lon="8.03631571197874"><ele>782.0</ele><time>2026-04-03T07:53:22.999Z</time></trkpt><trkpt lat="44.461482514777316" lon="8.036361931819231"><ele>782.0</ele><time>2026-04-03T07:53:23.999Z</time></trkpt><trkpt lat="44.461357419517576" lon="8.036411292841409"><ele>782.0</ele><time>2026-04-03T07:53:24.999Z</time></trkpt><trkpt lat="44.4612465711051" lon="8.036455685170788"><ele>782.0</ele><time>2026-04-03T07:53:25.999Z</time></trkpt><trkpt lat="44.46114742579546" lon="8.036497089624334"><ele>782.0</ele><time>2026-04-03T07:53:26.999Z</time></trkpt><trkpt lat="44.46106249611637" lon="8.036540349206756"><ele>782.0</ele><time>2026-04-03T07:53:27.999Z</time></trkpt><trkpt lat="44.46098961921552" lon="8.036575722788164"><ele>782.6</ele><time>2026-04-03T07:53:28.999Z</time></trkpt><trkpt lat="44.46091769256772" lon="8.036630061445873"><ele>783.2</ele><time>2026-04-03T07:53:29.999Z</time></trkpt><trkpt lat="44.46084858533341" lon="8.036703418169198"><ele>783.8</ele><time>2026-04-03T07:53:30.999Z</time></trkpt><trkpt lat="44.46078817181319" lon="8.036802165604756"><ele>784.4</ele><time>2026-04-03T07:53:31.999Z</time></trkpt><trkpt lat="44.46073301615072" lon="8.036915675037323"><ele>785.0</ele><time>2026-04-03T07:53:32.999Z</time></trkpt><trkpt lat="44.46068809592436" lon="8.03704612407638"><ele>785.8</ele><time>2026-04-03T07:53:33.999Z</time></trkpt><trkpt lat="44.4606339110561" lon="8.037171821476145"><ele>786.6</ele><time>2026-04-03T07:53:34.999Z</time></trkpt><trkpt lat="44.46056691725493" lon="8.037289732556257"><ele>787.4000000000001</ele><time>2026-04-03T07:53:35.999Z</time></trkpt><trkpt lat="44.460491727604484" lon="8.037411736088812"><ele>788.2</ele><time>2026-04-03T07:53:36.999Z</time></trkpt><trkpt lat="44.46040638079059" lon="8.037525582087417"><ele>789.0</ele><time>2026-04-03T07:53:37.999Z</time></trkpt><trkpt lat="44.460308487702974" lon="8.037630129473134"><ele>789.0</ele><time>2026-04-03T07:53:38.999Z</time></trkpt><trkpt lat="44.460211369770725" lon="8.037729032843673"><ele>789.0</ele><time>2026-04-03T07:53:39.999Z</time></trkpt><trkpt lat="44.46009496744239" lon="8.037833354607022"><ele>789.0</ele><time>2026-04-03T07:53:40.999Z</time></trkpt><trkpt lat="44.45997327159357" lon="8.037932494996243"><ele>789.0</ele><time>2026-04-03T07:53:41.999Z</time></trkpt><trkpt lat="44.459858132366655" lon="8.038002204875104"><ele>789.0</ele><time>2026-04-03T07:53:42.999Z</time></trkpt><trkpt lat="44.45973177900828" lon="8.038062935542422"><ele>789.0</ele><time>2026-04-03T07:53:43.999Z</time></trkpt><trkpt lat="44.459599161933646" lon="8.03810411301819"><ele>789.0</ele><time>2026-04-03T07:53:44.999Z</time></trkpt><trkpt lat="44.459470512026" lon="8.038125970104986"><ele>789.0</ele><time>2026-04-03T07:53:45.999Z</time></trkpt><trkpt lat="44.459355068007376" lon="8.038140788380202"><ele>787.2</ele><time>2026-04-03T07:53:46.999Z</time></trkpt><trkpt lat="44.459238031456294" lon="8.03815849048751"><ele>785.4000000000001</ele><time>2026-04-03T07:53:47.999Z</time></trkpt><trkpt lat="44.45911987111595" lon="8.03815983685316"><ele>783.6</ele><time>2026-04-03T07:53:48.999Z</time></trkpt><trkpt lat="44.459013029970535" lon="8.038147711312016"><ele>781.8</ele><time>2026-04-03T07:53:49.999Z</time></trkpt><trkpt lat="44.45891025999581" lon="8.038126959247595"><ele>780.0</ele><time>2026-04-03T07:53:50.999Z</time></trkpt><trkpt lat="44.458818727032984" lon="8.038101350502053"><ele>779.6666666666666</ele><time>2026-04-03T07:53:51.999Z</time></trkpt><trkpt lat="44.458728268015726" lon="8.038056537296253"><ele>779.3333333333333</ele><time>2026-04-03T07:53:52.999Z</time></trkpt><trkpt lat="44.45864073202296" lon="8.03804162095686"><ele>779.0</ele><time>2026-04-03T07:53:53.999Z</time></trkpt><trkpt lat="44.458555196155125" lon="8.038032594286722"><ele>778.6666666666666</ele><time>2026-04-03T07:53:54.999Z</time></trkpt><trkpt lat="44.458481777570846" lon="8.038011360909827"><ele>778.3333333333333</ele><time>2026-04-03T07:53:55.999Z</time></trkpt><trkpt lat="44.458402620314324" lon="8.038031764804645"><ele>778.0</ele><time>2026-04-03T07:53:56.998Z</time></trkpt><trkpt lat="44.45832409947754" lon="8.03806833410722"><ele>777.9999999999999</ele><time>2026-04-03T07:53:57.998Z</time></trkpt><trkpt lat="44.45825391429502" lon="8.03812553797666"><ele>778.0</ele><time>2026-04-03T07:53:58.998Z</time></trkpt><trkpt lat="44.458188788136866" lon="8.038197830339186"><ele>778.0</ele><time>2026-04-03T07:53:59.998Z</time></trkpt><trkpt lat="44.45813326273637" lon="8.03829391393117"><ele>778.0</ele><time>2026-04-03T07:54:00.998Z</time></trkpt><trkpt lat="44.45809877751617" lon="8.038402194902956"><ele>777.9999999999999</ele><time>2026-04-03T07:54:01.998Z</time></trkpt><trkpt lat="44.45807982531728" lon="8.038521673448605"><ele>778.0</ele><time>2026-04-03T07:54:02.998Z</time></trkpt><trkpt lat="44.458054849520146" lon="8.038640680483363"><ele>780.75</ele><time>2026-04-03T07:54:03.998Z</time></trkpt><trkpt lat="44.45808818393888" lon="8.038776945040311"><ele>783.5</ele><time>2026-04-03T07:54:04.998Z</time></trkpt><trkpt lat="44.45810823639485" lon="8.038921344749426"><ele>786.25</ele><time>2026-04-03T07:54:05.998Z</time></trkpt><trkpt lat="44.45815458397808" lon="8.039080833323403"><ele>789.0</ele><time>2026-04-03T07:54:06.998Z</time></trkpt><trkpt lat="44.458203207901036" lon="8.039242757791252"><ele>789.0</ele><time>2026-04-03T07:54:07.998Z</time></trkpt><trkpt lat="44.4582489398231" lon="8.039396198907355"><ele>789.0</ele><time>2026-04-03T07:54:08.998Z</time></trkpt><trkpt lat="44.45830608733007" lon="8.039532536442323"><ele>789.0</ele><time>2026-04-03T07:54:09.998Z</time></trkpt><trkpt lat="44.458346479195" lon="8.039690691375366"><ele>789.0</ele><time>2026-04-03T07:54:10.998Z</time></trkpt><trkpt lat="44.45837875244763" lon="8.0398456517777"><ele>786.75</ele><time>2026-04-03T07:54:11.998Z</time></trkpt><trkpt lat="44.45840314443078" lon="8.040000513705476"><ele>784.5</ele><time>2026-04-03T07:54:12.998Z</time></trkpt><trkpt lat="44.45841123674117" lon="8.040163583859094"><ele>782.25</ele><time>2026-04-03T07:54:13.998Z</time></trkpt><trkpt lat="44.45839106524472" lon="8.040321973281667"><ele>780.0</ele><time>2026-04-03T07:54:14.998Z</time></trkpt><trkpt lat="44.458378753512726" lon="8.040483220050444"><ele>780.0</ele><time>2026-04-03T07:54:15.998Z</time></trkpt><trkpt lat="44.458360091880806" lon="8.040634159362057"><ele>780.0</ele><time>2026-04-03T07:54:16.998Z</time></trkpt><trkpt lat="44.4583397041711" lon="8.040786388117162"><ele>780.0</ele><time>2026-04-03T07:54:17.998Z</time></trkpt><trkpt lat="44.45831968695229" lon="8.040927409163062"><ele>780.0</ele><time>2026-04-03T07:54:18.998Z</time></trkpt><trkpt lat="44.458293888410076" lon="8.041084322482034"><ele>780.0</ele><time>2026-04-03T07:54:19.998Z</time></trkpt><trkpt lat="44.458264788573366" lon="8.041231556325616"><ele>779.4</ele><time>2026-04-03T07:54:20.998Z</time></trkpt><trkpt lat="44.45821719117073" lon="8.041374719880777"><ele>778.8</ele><time>2026-04-03T07:54:21.998Z</time></trkpt><trkpt lat="44.4581624112803" lon="8.041515708286337"><ele>778.2</ele><time>2026-04-03T07:54:22.998Z</time></trkpt><trkpt lat="44.45810703044538" lon="8.041642095145857"><ele>777.6</ele><time>2026-04-03T07:54:23.998Z</time></trkpt><trkpt lat="44.458048631393666" lon="8.041758033427175"><ele>777.0</ele><time>2026-04-03T07:54:25Z</time></trkpt><trkpt lat="44.45798846489563" lon="8.041873151139338"><ele>773.4000000000001</ele><time>2026-04-03T07:54:26Z</time></trkpt><trkpt lat="44.45792905984737" lon="8.041983575572162"><ele>769.8000000000001</ele><time>2026-04-03T07:54:27Z</time></trkpt><trkpt lat="44.457864214233126" lon="8.042080898085024"><ele>766.2</ele><time>2026-04-03T07:54:28Z</time></trkpt><trkpt lat="44.4577763119326" lon="8.042161140325165"><ele>762.6</ele><time>2026-04-03T07:54:29Z</time></trkpt><trkpt lat="44.45769986464397" lon="8.04225984581354"><ele>759.0</ele><time>2026-04-03T07:54:30Z</time></trkpt><trkpt lat="44.45762314382945" lon="8.042353796727282"><ele>759.0</ele><time>2026-04-03T07:54:31Z</time></trkpt><trkpt lat="44.457540562983255" lon="8.04245731252847"><ele>759.0</ele><time>2026-04-03T07:54:32Z</time></trkpt><trkpt lat="44.45745127302576" lon="8.042560056748007"><ele>759.0</ele><time>2026-04-03T07:54:33Z</time></trkpt><trkpt lat="44.45736759442675" lon="8.042653126472732"><ele>759.0</ele><time>2026-04-03T07:54:34Z</time></trkpt><trkpt lat="44.457290781253924" lon="8.04274860832966"><ele>759.0</ele><time>2026-04-03T07:54:35Z</time></trkpt><trkpt lat="44.45722142266744" lon="8.04284750462225"><ele>758.2</ele><time>2026-04-03T07:54:36Z</time></trkpt><trkpt lat="44.45715583046473" lon="8.042954073599125"><ele>757.4000000000001</ele><time>2026-04-03T07:54:37Z</time></trkpt><trkpt lat="44.457092923331736" lon="8.043069269785013"><ele>756.6</ele><time>2026-04-03T07:54:38Z</time></trkpt><trkpt lat="44.45703419548984" lon="8.04318274042877"><ele>755.8</ele><time>2026-04-03T07:54:39Z</time></trkpt><trkpt lat="44.4569899077455" lon="8.043308778346358"><ele>755.0</ele><time>2026-04-03T07:54:40Z</time></trkpt><trkpt lat="44.45694582006738" lon="8.043457101743144"><ele>755.0</ele><time>2026-04-03T07:54:41Z</time></trkpt><trkpt lat="44.45688424945398" lon="8.043632302855906"><ele>755.0</ele><time>2026-04-03T07:54:42Z</time></trkpt><trkpt lat="44.456842294499445" lon="8.043818080935305"><ele>755.0</ele><time>2026-04-03T07:54:43Z</time></trkpt><trkpt lat="44.456784085555114" lon="8.044009030631205"><ele>755.0</ele><time>2026-04-03T07:54:44Z</time></trkpt><trkpt lat="44.45671097226107" lon="8.044197931980404"><ele>757.3333333333333</ele><time>2026-04-03T07:54:45Z</time></trkpt><trkpt lat="44.4566187475718" lon="8.044389089427415"><ele>759.6666666666666</ele><time>2026-04-03T07:54:46Z</time></trkpt><trkpt lat="44.45651464737562" lon="8.044567869440863"><ele>762.0</ele><time>2026-04-03T07:54:47Z</time></trkpt><trkpt lat="44.45642095658265" lon="8.044738552978496"><ele>762.0</ele><time>2026-04-03T07:54:48Z</time></trkpt><trkpt lat="44.45633276969914" lon="8.044904179567343"><ele>762.0</ele><time>2026-04-03T07:54:49Z</time></trkpt><trkpt lat="44.45624926529282" lon="8.04506913844399"><ele>762.0</ele><time>2026-04-03T07:54:50Z</time></trkpt><trkpt lat="44.456165686104065" lon="8.04522751397409"><ele>762.0</ele><time>2026-04-03T07:54:51Z</time></trkpt><trkpt lat="44.45607521498098" lon="8.045399409778176"><ele>761.25</ele><time>2026-04-03T07:54:52Z</time></trkpt><trkpt lat="44.45599171766865" lon="8.045580562801838"><ele>760.5</ele><time>2026-04-03T07:54:53Z</time></trkpt><trkpt lat="44.45591981471519" lon="8.045746981344568"><ele>759.75</ele><time>2026-04-03T07:54:54Z</time></trkpt><trkpt lat="44.45584704064851" lon="8.045901560945897"><ele>759.0</ele><time>2026-04-03T07:54:55Z</time></trkpt><trkpt lat="44.45576453145423" lon="8.046052722094835"><ele>759.0</ele><time>2026-04-03T07:54:56Z</time></trkpt><trkpt lat="44.455689583325665" lon="8.046185153103856"><ele>759.0</ele><time>2026-04-03T07:54:57Z</time></trkpt><trkpt lat="44.45558207427315" lon="8.046303110653794"><ele>759.0</ele><time>2026-04-03T07:54:58Z</time></trkpt><trkpt lat="44.45546429456565" lon="8.04640300898862"><ele>759.0</ele><time>2026-04-03T07:54:59Z</time></trkpt><trkpt lat="44.45535852786692" lon="8.046478523816846"><ele>759.0</ele><time>2026-04-03T07:55:00Z</time></trkpt><trkpt lat="44.455262460914774" lon="8.046552808887329"><ele>759.0</ele><time>2026-04-03T07:55:01Z</time></trkpt><trkpt lat="44.45517365696217" lon="8.046653022025387"><ele>759.0</ele><time>2026-04-03T07:55:02Z</time></trkpt><trkpt lat="44.45509569253618" lon="8.046778356377352"><ele>759.0</ele><time>2026-04-03T07:55:03Z</time></trkpt><trkpt lat="44.45503485345126" lon="8.046931228821672"><ele>759.0</ele><time>2026-04-03T07:55:04Z</time></trkpt><trkpt lat="44.45498993968327" lon="8.047116165217558"><ele>759.0</ele><time>2026-04-03T07:55:05Z</time></trkpt><trkpt lat="44.4549707839715" lon="8.047315540653283"><ele>759.0</ele><time>2026-04-03T07:55:05.999Z</time></trkpt><trkpt lat="44.45495232475089" lon="8.047522934140861"><ele>759.0</ele><time>2026-04-03T07:55:06.999Z</time></trkpt><trkpt lat="44.45490481966542" lon="8.047741159616086"><ele>760.5</ele><time>2026-04-03T07:55:07.999Z</time></trkpt><trkpt lat="44.45485177164982" lon="8.047938061801144"><ele>762.0</ele><time>2026-04-03T07:55:08.999Z</time></trkpt><trkpt lat="44.45478906627134" lon="8.048131563371639"><ele>763.5</ele><time>2026-04-03T07:55:09.999Z</time></trkpt><trkpt lat="44.45472436542855" lon="8.048309817704236"><ele>765.0</ele><time>2026-04-03T07:55:10.999Z</time></trkpt><trkpt lat="44.45465951611022" lon="8.048465739605877"><ele>761.75</ele><time>2026-04-03T07:55:11.999Z</time></trkpt><trkpt lat="44.454579255306" lon="8.048609929144913"><ele>758.5</ele><time>2026-04-03T07:55:12.999Z</time></trkpt><trkpt lat="44.45451355107327" lon="8.048743323476527"><ele>755.25</ele><time>2026-04-03T07:55:13.999Z</time></trkpt><trkpt lat="44.454448905588265" lon="8.048882636795714"><ele>752.0</ele><time>2026-04-03T07:55:14.999Z</time></trkpt><trkpt lat="44.45439257612887" lon="8.049029906524728"><ele>754.4000000000001</ele><time>2026-04-03T07:55:15.999Z</time></trkpt><trkpt lat="44.45434305464957" lon="8.049161890746205"><ele>756.8000000000001</ele><time>2026-04-03T07:55:16.999Z</time></trkpt><trkpt lat="44.454298858714374" lon="8.049305657501876"><ele>759.2</ele><time>2026-04-03T07:55:17.999Z</time></trkpt><trkpt lat="44.45424530197603" lon="8.049442761602478"><ele>761.6</ele><time>2026-04-03T07:55:18.999Z</time></trkpt><trkpt lat="44.454196251981834" lon="8.049574834912459"><ele>764.0</ele><time>2026-04-03T07:55:19.999Z</time></trkpt><trkpt lat="44.45414631060905" lon="8.049705029945272"><ele>764.0</ele><time>2026-04-03T07:55:20.999Z</time></trkpt><trkpt lat="44.45409801940953" lon="8.049844048813886"><ele>764.0</ele><time>2026-04-03T07:55:21.999Z</time></trkpt><trkpt lat="44.45404546315336" lon="8.049971300662765"><ele>764.0</ele><time>2026-04-03T07:55:22.999Z</time></trkpt><trkpt lat="44.45398949790722" lon="8.050088094285915"><ele>764.0</ele><time>2026-04-03T07:55:23.999Z</time></trkpt><trkpt lat="44.45392846422146" lon="8.05019273632797"><ele>764.0</ele><time>2026-04-03T07:55:24.999Z</time></trkpt><trkpt lat="44.453853912731454" lon="8.050298174521464"><ele>763.0</ele><time>2026-04-03T07:55:25.999Z</time></trkpt><trkpt lat="44.45377624847041" lon="8.05040541955545"><ele>762.0</ele><time>2026-04-03T07:55:26.999Z</time></trkpt><trkpt lat="44.4536858312218" lon="8.050498932020705"><ele>761.0</ele><time>2026-04-03T07:55:27.999Z</time></trkpt><trkpt lat="44.45358841803256" lon="8.050587702460922"><ele>760.0</ele><time>2026-04-03T07:55:28.999Z</time></trkpt><trkpt lat="44.45349063104385" lon="8.050659874603937"><ele>759.0</ele><time>2026-04-03T07:55:29.999Z</time></trkpt><trkpt lat="44.453387494888034" lon="8.05071733560003"><ele>759.0</ele><time>2026-04-03T07:55:30.999Z</time></trkpt><trkpt lat="44.453283302129606" lon="8.050780331747148"><ele>759.0</ele><time>2026-04-03T07:55:31.999Z</time></trkpt><trkpt lat="44.453177121606956" lon="8.05084005971913"><ele>759.0</ele><time>2026-04-03T07:55:32.999Z</time></trkpt><trkpt lat="44.45307160229197" lon="8.050888432324479"><ele>759.0</ele><time>2026-04-03T07:55:33.999Z</time></trkpt><trkpt lat="44.45295970670477" lon="8.050912068104047"><ele>760.4000000000001</ele><time>2026-04-03T07:55:34.999Z</time></trkpt><trkpt lat="44.452856805408594" lon="8.050923514880063"><ele>761.8</ele><time>2026-04-03T07:55:35.999Z</time></trkpt><trkpt lat="44.45275213143963" lon="8.050922295869992"><ele>763.2</ele><time>2026-04-03T07:55:36.999Z</time></trkpt><trkpt lat="44.45265180447008" lon="8.050926911085192"><ele>764.5999999999999</ele><time>2026-04-03T07:55:37.999Z</time></trkpt><trkpt lat="44.45254131078567" lon="8.050943653815262"><ele>766.0</ele><time>2026-04-03T07:55:38.999Z</time></trkpt><trkpt lat="44.45243488586864" lon="8.050975544003215"><ele>766.0</ele><time>2026-04-03T07:55:39.999Z</time></trkpt><trkpt lat="44.452337499190165" lon="8.051041424683552"><ele>766.0</ele><time>2026-04-03T07:55:40.999Z</time></trkpt><trkpt lat="44.45225063134948" lon="8.051101802323828"><ele>766.0</ele><time>2026-04-03T07:55:41.999Z</time></trkpt><trkpt lat="44.45216874278308" lon="8.051176625342016"><ele>766.0</ele><time>2026-04-03T07:55:42.999Z</time></trkpt><trkpt lat="44.45208723067102" lon="8.051266158610032"><ele>766.0</ele><time>2026-04-03T07:55:43.999Z</time></trkpt><trkpt lat="44.45201633417161" lon="8.051398259038198"><ele>764.0</ele><time>2026-04-03T07:55:44.999Z</time></trkpt><trkpt lat="44.4519412526467" lon="8.051529045627838"><ele>762.0</ele><time>2026-04-03T07:55:45.999Z</time></trkpt><trkpt lat="44.45190322362891" lon="8.05170604560176"><ele>760.0</ele><time>2026-04-03T07:55:46.999Z</time></trkpt><trkpt lat="44.45184903621279" lon="8.051891723398944"><ele>758.0</ele><time>2026-04-03T07:55:47.999Z</time></trkpt><trkpt lat="44.45180257980053" lon="8.052080267348531"><ele>758.0</ele><time>2026-04-03T07:55:48.999Z</time></trkpt><trkpt lat="44.45175647653934" lon="8.052253097663199"><ele>758.0</ele><time>2026-04-03T07:55:49.999Z</time></trkpt><trkpt lat="44.45169374990753" lon="8.052405751179082"><ele>758.0</ele><time>2026-04-03T07:55:50.999Z</time></trkpt><trkpt lat="44.45163271374035" lon="8.052549613784699"><ele>758.0</ele><time>2026-04-03T07:55:51.999Z</time></trkpt><trkpt lat="44.45156961890091" lon="8.052681119820527"><ele>760.0</ele><time>2026-04-03T07:55:52.999Z</time></trkpt><trkpt lat="44.45150780759752" lon="8.0528052189231"><ele>762.0</ele><time>2026-04-03T07:55:53.999Z</time></trkpt><trkpt lat="44.45145029225811" lon="8.052924883443005"><ele>764.0</ele><time>2026-04-03T07:55:54.999Z</time></trkpt><trkpt lat="44.451390885774195" lon="8.053037058297951"><ele>766.0</ele><time>2026-04-03T07:55:55.999Z</time></trkpt><trkpt lat="44.45131516330377" lon="8.053129431293257"><ele>768.0</ele><time>2026-04-03T07:55:56.999Z</time></trkpt><trkpt lat="44.451264467611374" lon="8.053244841497744"><ele>764.5999999999999</ele><time>2026-04-03T07:55:57.999Z</time></trkpt><trkpt lat="44.45121476183053" lon="8.053371085591664"><ele>761.1999999999999</ele><time>2026-04-03T07:55:58.999Z</time></trkpt><trkpt lat="44.45116166880053" lon="8.053500837434107"><ele>757.8</ele><time>2026-04-03T07:55:59.999Z</time></trkpt><trkpt lat="44.451134185263314" lon="8.053653753186326"><ele>754.4</ele><time>2026-04-03T07:56:00.999Z</time></trkpt><trkpt lat="44.451112976801824" lon="8.053820247691206"><ele>751.0</ele><time>2026-04-03T07:56:01.998Z</time></trkpt><trkpt lat="44.451084030535014" lon="8.053983961237583"><ele>751.75</ele><time>2026-04-03T07:56:02.998Z</time></trkpt><trkpt lat="44.451055183042094" lon="8.054139208024795"><ele>752.5</ele><time>2026-04-03T07:56:03.998Z</time></trkpt><trkpt lat="44.451028528451204" lon="8.05428558378788"><ele>753.25</ele><time>2026-04-03T07:56:04.998Z</time></trkpt><trkpt lat="44.45099147646736" lon="8.054436992162488"><ele>754.0</ele><time>2026-04-03T07:56:05.998Z</time></trkpt><trkpt lat="44.450949769650485" lon="8.05459837006298"><ele>754.0</ele><time>2026-04-03T07:56:06.998Z</time></trkpt><trkpt lat="44.45090388478233" lon="8.054759097427503"><ele>754.0</ele><time>2026-04-03T07:56:07.998Z</time></trkpt><trkpt lat="44.450839187649905" lon="8.054930218982461"><ele>754.0</ele><time>2026-04-03T07:56:08.998Z</time></trkpt><trkpt lat="44.45076216184175" lon="8.055100332079734"><ele>754.0</ele><time>2026-04-03T07:56:09.998Z</time></trkpt><trkpt lat="44.45067611576534" lon="8.055258913690798"><ele>755.3333333333334</ele><time>2026-04-03T07:56:10.998Z</time></trkpt><trkpt lat="44.45056708494998" lon="8.055412963939638"><ele>756.6666666666666</ele><time>2026-04-03T07:56:11.998Z</time></trkpt><trkpt lat="44.45044453951952" lon="8.05556108347279"><ele>758.0</ele><time>2026-04-03T07:56:12.998Z</time></trkpt><trkpt lat="44.450305315110505" lon="8.055701135648489"><ele>758.6666666666666</ele><time>2026-04-03T07:56:13.998Z</time></trkpt><trkpt lat="44.45015214306543" lon="8.055821186328282"><ele>759.3333333333334</ele><time>2026-04-03T07:56:14.998Z</time></trkpt><trkpt lat="44.44999171993805" lon="8.05592092714953"><ele>760.0</ele><time>2026-04-03T07:56:15.998Z</time></trkpt><trkpt lat="44.449849583302644" lon="8.055996114180447"><ele>760.0</ele><time>2026-04-03T07:56:16.998Z</time></trkpt><trkpt lat="44.44970833080896" lon="8.05607439513536"><ele>760.0</ele><time>2026-04-03T07:56:17.998Z</time></trkpt><trkpt lat="44.44956886009824" lon="8.056151481686753"><ele>760.0</ele><time>2026-04-03T07:56:18.998Z</time></trkpt><trkpt lat="44.44944427221418" lon="8.056228000018784"><ele>760.0</ele><time>2026-04-03T07:56:19.998Z</time></trkpt><trkpt lat="44.44932257401537" lon="8.056294648222167"><ele>759.4</ele><time>2026-04-03T07:56:20.998Z</time></trkpt><trkpt lat="44.44920272300602" lon="8.05634475545514"><ele>758.8</ele><time>2026-04-03T07:56:21.998Z</time></trkpt><trkpt lat="44.44909843708073" lon="8.056376015558298"><ele>758.2</ele><time>2026-04-03T07:56:22.998Z</time></trkpt><trkpt lat="44.44899566491958" lon="8.056404638016962"><ele>757.6</ele><time>2026-04-03T07:56:23.998Z</time></trkpt><trkpt lat="44.4488871095732" lon="8.056441816858918"><ele>757.0</ele><time>2026-04-03T07:56:24.998Z</time></trkpt><trkpt lat="44.44877564518654" lon="8.056505271697498"><ele>755.75</ele><time>2026-04-03T07:56:25.998Z</time></trkpt><trkpt lat="44.448667239205164" lon="8.056574716420638"><ele>754.5</ele><time>2026-04-03T07:56:26.998Z</time></trkpt><trkpt lat="44.44856263514281" lon="8.056652079215263"><ele>753.25</ele><time>2026-04-03T07:56:27.998Z</time></trkpt><trkpt lat="44.44846542651672" lon="8.05673539323764"><ele>752.0</ele><time>2026-04-03T07:56:28.998Z</time></trkpt><trkpt lat="44.44836597029894" lon="8.056826922632649"><ele>754.75</ele><time>2026-04-03T07:56:29.998Z</time></trkpt><trkpt lat="44.44826506565129" lon="8.056933610817742"><ele>757.5</ele><time>2026-04-03T07:56:31Z</time></trkpt><trkpt lat="44.44815022082031" lon="8.05702850636666"><ele>760.25</ele><time>2026-04-03T07:56:32Z</time></trkpt><trkpt lat="44.44805472269166" lon="8.057150847511993"><ele>763.0</ele><time>2026-04-03T07:56:33Z</time></trkpt><trkpt lat="44.447956146439836" lon="8.057283604180112"><ele>763.0</ele><time>2026-04-03T07:56:34Z</time></trkpt><trkpt lat="44.44785319995947" lon="8.057423531845954"><ele>763.0</ele><time>2026-04-03T07:56:35Z</time></trkpt><trkpt lat="44.447756528855635" lon="8.057553253277602"><ele>763.0</ele><time>2026-04-03T07:56:36Z</time></trkpt><trkpt lat="44.447652374118206" lon="8.057673968341236"><ele>763.0</ele><time>2026-04-03T07:56:37Z</time></trkpt><trkpt lat="44.447541762366065" lon="8.057787120963363"><ele>766.75</ele><time>2026-04-03T07:56:38Z</time></trkpt><trkpt lat="44.447431471886944" lon="8.057896260359845"><ele>770.5</ele><time>2026-04-03T07:56:39Z</time></trkpt><trkpt lat="44.44732947790103" lon="8.058009212910427"><ele>774.25</ele><time>2026-04-03T07:56:40Z</time></trkpt><trkpt lat="44.44723743388508" lon="8.05810409910308"><ele>778.0</ele><time>2026-04-03T07:56:41Z</time></trkpt><trkpt lat="44.447151685992985" lon="8.058195497486626"><ele>779.0</ele><time>2026-04-03T07:56:42Z</time></trkpt><trkpt lat="44.44706552281566" lon="8.058281008227057"><ele>780.0</ele><time>2026-04-03T07:56:43Z</time></trkpt><trkpt lat="44.446981994388025" lon="8.058370320404759"><ele>781.0</ele><time>2026-04-03T07:56:44Z</time></trkpt><trkpt lat="44.446902023934726" lon="8.058471459366515"><ele>782.0</ele><time>2026-04-03T07:56:45Z</time></trkpt><trkpt lat="44.446833035858646" lon="8.058584554789553"><ele>783.0</ele><time>2026-04-03T07:56:46Z</time></trkpt><trkpt lat="44.446782767015655" lon="8.058705970772252"><ele>784.4</ele><time>2026-04-03T07:56:47Z</time></trkpt><trkpt lat="44.44674466973696" lon="8.05882631507424"><ele>785.8</ele><time>2026-04-03T07:56:48Z</time></trkpt><trkpt lat="44.44672016273485" lon="8.058967909827043"><ele>787.2</ele><time>2026-04-03T07:56:49Z</time></trkpt><trkpt lat="44.4467064702985" lon="8.059129444501334"><ele>788.6</ele><time>2026-04-03T07:56:50Z</time></trkpt><trkpt lat="44.446710639961495" lon="8.059300747389663"><ele>790.0</ele><time>2026-04-03T07:56:51Z</time></trkpt><trkpt lat="44.44672240949267" lon="8.059472807290017"><ele>790.5</ele><time>2026-04-03T07:56:52Z</time></trkpt><trkpt lat="44.44674171138438" lon="8.059644296948624"><ele>791.0</ele><time>2026-04-03T07:56:53Z</time></trkpt><trkpt lat="44.44675960047942" lon="8.059804131114886"><ele>791.5</ele><time>2026-04-03T07:56:54Z</time></trkpt><trkpt lat="44.446778752518036" lon="8.059957460287455"><ele>792.0</ele><time>2026-04-03T07:56:55Z</time></trkpt><trkpt lat="44.4467963041621" lon="8.060112991464798"><ele>790.75</ele><time>2026-04-03T07:56:56Z</time></trkpt><trkpt lat="44.44682490761176" lon="8.060274903130544"><ele>789.5</ele><time>2026-04-03T07:56:57Z</time></trkpt><trkpt lat="44.44685858038338" lon="8.060414560372104"><ele>788.25</ele><time>2026-04-03T07:56:58Z</time></trkpt><trkpt lat="44.44690182546295" lon="8.060556323394847"><ele>787.0</ele><time>2026-04-03T07:56:59Z</time></trkpt><trkpt lat="44.446954636218" lon="8.060702627313722"><ele>788.4000000000001</ele><time>2026-04-03T07:57:00Z</time></trkpt><trkpt lat="44.447019201564466" lon="8.060821695002714"><ele>789.8000000000001</ele><time>2026-04-03T07:57:01Z</time></trkpt><trkpt lat="44.44708040070228" lon="8.060946489472013"><ele>791.2</ele><time>2026-04-03T07:57:02Z</time></trkpt><trkpt lat="44.447140188440926" lon="8.061063941532073"><ele>792.6</ele><time>2026-04-03T07:57:03Z</time></trkpt><trkpt lat="44.44718455136376" lon="8.061210353916023"><ele>794.0</ele><time>2026-04-03T07:57:04Z</time></trkpt><trkpt lat="44.44720899309998" lon="8.061371115552438"><ele>794.0</ele><time>2026-04-03T07:57:05Z</time></trkpt><trkpt lat="44.44721223793064" lon="8.061550393735297"><ele>794.0</ele><time>2026-04-03T07:57:06Z</time></trkpt><trkpt lat="44.44720435810033" lon="8.061737723332765"><ele>794.0</ele><time>2026-04-03T07:57:07Z</time></trkpt><trkpt lat="44.44718435700251" lon="8.061937182108265"><ele>794.0</ele><time>2026-04-03T07:57:08Z</time></trkpt><trkpt lat="44.44716855434318" lon="8.062125825308277"><ele>791.75</ele><time>2026-04-03T07:57:09Z</time></trkpt><trkpt lat="44.447159404285586" lon="8.06230633485869"><ele>789.5</ele><time>2026-04-03T07:57:10Z</time></trkpt><trkpt lat="44.44714753778189" lon="8.06249010484266"><ele>787.25</ele><time>2026-04-03T07:57:11Z</time></trkpt><trkpt lat="44.44713563168469" lon="8.062677625448785"><ele>785.0</ele><time>2026-04-03T07:57:12Z</time></trkpt><trkpt lat="44.44711897352114" lon="8.062878176689665"><ele>780.5</ele><time>2026-04-03T07:57:13Z</time></trkpt><trkpt lat="44.4471023164971" lon="8.063088029309801"><ele>776.0</ele><time>2026-04-03T07:57:13.999Z</time></trkpt><trkpt lat="44.44709188925927" lon="8.06329857325962"><ele>771.5</ele><time>2026-04-03T07:57:14.999Z</time></trkpt><trkpt lat="44.44708197361557" lon="8.063485860050967"><ele>767.0</ele><time>2026-04-03T07:57:15.999Z</time></trkpt><trkpt lat="44.44707042305334" lon="8.063679910478212"><ele>767.0</ele><time>2026-04-03T07:57:16.999Z</time></trkpt><trkpt lat="44.4470569985267" lon="8.063874964696318"><ele>767.0</ele><time>2026-04-03T07:57:17.999Z</time></trkpt><trkpt lat="44.44704239438201" lon="8.064062375406467"><ele>767.0</ele><time>2026-04-03T07:57:18.999Z</time></trkpt><trkpt lat="44.44703330902441" lon="8.064216730484274"><ele>767.0</ele><time>2026-04-03T07:57:19.999Z</time></trkpt><trkpt lat="44.447010468836766" lon="8.064376016562067"><ele>768.25</ele><time>2026-04-03T07:57:20.999Z</time></trkpt><trkpt lat="44.44696516455943" lon="8.064549572695922"><ele>769.5</ele><time>2026-04-03T07:57:21.999Z</time></trkpt><trkpt lat="44.4468998197238" lon="8.064682563161476"><ele>770.75</ele><time>2026-04-03T07:57:22.999Z</time></trkpt><trkpt lat="44.44682628620911" lon="8.064831035037027"><ele>772.0</ele><time>2026-04-03T07:57:23.999Z</time></trkpt><trkpt lat="44.44676154542469" lon="8.064979936574645"><ele>773.75</ele><time>2026-04-03T07:57:24.999Z</time></trkpt><trkpt lat="44.4467036343901" lon="8.06512989674596"><ele>775.5</ele><time>2026-04-03T07:57:25.999Z</time></trkpt><trkpt lat="44.44665747720435" lon="8.065288372542048"><ele>777.25</ele><time>2026-04-03T07:57:26.999Z</time></trkpt><trkpt lat="44.44662302352385" lon="8.065459090099669"><ele>779.0</ele><time>2026-04-03T07:57:27.999Z</time></trkpt><trkpt lat="44.44660248429264" lon="8.065641278781682"><ele>779.75</ele><time>2026-04-03T07:57:28.999Z</time></trkpt><trkpt lat="44.446594754368455" lon="8.065841441288352"><ele>780.5</ele><time>2026-04-03T07:57:29.999Z</time></trkpt><trkpt lat="44.44659935515923" lon="8.06606125216116"><ele>781.25</ele><time>2026-04-03T07:57:30.999Z</time></trkpt><trkpt lat="44.446602943975684" lon="8.066258273728446"><ele>782.0</ele><time>2026-04-03T07:57:31.999Z</time></trkpt><trkpt lat="44.44660861476908" lon="8.066453992534184"><ele>780.75</ele><time>2026-04-03T07:57:32.999Z</time></trkpt><trkpt lat="44.4466156295775" lon="8.066653840063308"><ele>779.5</ele><time>2026-04-03T07:57:33.999Z</time></trkpt><trkpt lat="44.44662152057209" lon="8.06685188534212"><ele>778.25</ele><time>2026-04-03T07:57:34.999Z</time></trkpt><trkpt lat="44.44661801379733" lon="8.067030072124863"><ele>777.0</ele><time>2026-04-03T07:57:35.999Z</time></trkpt><trkpt lat="44.446610388185945" lon="8.067194936502155"><ele>777.0</ele><time>2026-04-03T07:57:36.999Z</time></trkpt><trkpt lat="44.44658180123517" lon="8.067348166865303"><ele>777.0</ele><time>2026-04-03T07:57:37.999Z</time></trkpt><trkpt lat="44.44653990557589" lon="8.067514160481245"><ele>777.0</ele><time>2026-04-03T07:57:38.999Z</time></trkpt><trkpt lat="44.44649177951182" lon="8.067687023509034"><ele>777.0</ele><time>2026-04-03T07:57:39.999Z</time></trkpt><trkpt lat="44.44643824611392" lon="8.067851393073319"><ele>777.8</ele><time>2026-04-03T07:57:40.999Z</time></trkpt><trkpt lat="44.44638289273028" lon="8.067991260072642"><ele>778.6</ele><time>2026-04-03T07:57:41.999Z</time></trkpt><trkpt lat="44.44632911383345" lon="8.068118286785944"><ele>779.4</ele><time>2026-04-03T07:57:42.999Z</time></trkpt><trkpt lat="44.446278620294905" lon="8.068246655041637"><ele>780.1999999999999</ele><time>2026-04-03T07:57:43.999Z</time></trkpt><trkpt lat="44.446229868209116" lon="8.068372445811256"><ele>781.0</ele><time>2026-04-03T07:57:44.999Z</time></trkpt><trkpt lat="44.44622112826881" lon="8.06852292562602"><ele>778.5</ele><time>2026-04-03T07:57:45.999Z</time></trkpt><trkpt lat="44.44620669645748" lon="8.068672122607198"><ele>776.0</ele><time>2026-04-03T07:57:46.999Z</time></trkpt><trkpt lat="44.44620839379942" lon="8.068825595512989"><ele>773.5</ele><time>2026-04-03T07:57:47.999Z</time></trkpt><trkpt lat="44.446209610813234" lon="8.068985011617666"><ele>771.0</ele><time>2026-04-03T07:57:48.999Z</time></trkpt><trkpt lat="44.4462233597916" lon="8.069154986548792"><ele>771.0</ele><time>2026-04-03T07:57:49.999Z</time></trkpt><trkpt lat="44.44624331703539" lon="8.06931964705746"><ele>771.0</ele><time>2026-04-03T07:57:50.999Z</time></trkpt><trkpt lat="44.44626348504166" lon="8.069492624190376"><ele>771.0</ele><time>2026-04-03T07:57:51.999Z</time></trkpt><trkpt lat="44.44628431042514" lon="8.069661736246962"><ele>771.0</ele><time>2026-04-03T07:57:52.999Z</time></trkpt><trkpt lat="44.4463080298563" lon="8.06982914567385"><ele>773.75</ele><time>2026-04-03T07:57:53.999Z</time></trkpt><trkpt lat="44.44633163776949" lon="8.06999905901754"><ele>776.5</ele><time>2026-04-03T07:57:54.999Z</time></trkpt><trkpt lat="44.44635619839538" lon="8.07016201446608"><ele>779.25</ele><time>2026-04-03T07:57:55.999Z</time></trkpt><trkpt lat="44.44637949125013" lon="8.070330697727886"><ele>782.0</ele><time>2026-04-03T07:57:56.999Z</time></trkpt><trkpt lat="44.4464089010797" lon="8.070517169673284"><ele>782.0</ele><time>2026-04-03T07:57:57.999Z</time></trkpt><trkpt lat="44.44643920932172" lon="8.07070722667482"><ele>782.0</ele><time>2026-04-03T07:57:58.999Z</time></trkpt><trkpt lat="44.44646663054561" lon="8.070914445285087"><ele>782.0</ele><time>2026-04-03T07:57:59.999Z</time></trkpt><trkpt lat="44.446495529678245" lon="8.071133083753871"><ele>782.0</ele><time>2026-04-03T07:58:00.999Z</time></trkpt><trkpt lat="44.44653079256284" lon="8.071364229811689"><ele>780.6666666666667</ele><time>2026-04-03T07:58:01.999Z</time></trkpt><trkpt lat="44.446575751251785" lon="8.071611983797823"><ele>779.3333333333333</ele><time>2026-04-03T07:58:02.999Z</time></trkpt><trkpt lat="44.44662544223255" lon="8.071857591863065"><ele>778.0</ele><time>2026-04-03T07:58:03.999Z</time></trkpt><trkpt lat="44.4466847188749" lon="8.072108253327228"><ele>778.0</ele><time>2026-04-03T07:58:04.999Z</time></trkpt><trkpt lat="44.44674449430082" lon="8.072343667866924"><ele>778.0</ele><time>2026-04-03T07:58:05.999Z</time></trkpt><trkpt lat="44.44680177107316" lon="8.072580531404448"><ele>778.0</ele><time>2026-04-03T07:58:06.999Z</time></trkpt><trkpt lat="44.44685781522199" lon="8.072819990153429"><ele>777.0</ele><time>2026-04-03T07:58:07.999Z</time></trkpt><trkpt lat="44.446876409947684" lon="8.073051985532606"><ele>776.0</ele><time>2026-04-03T07:58:08.999Z</time></trkpt><trkpt lat="44.44690321110121" lon="8.073275181247194"><ele>775.0</ele><time>2026-04-03T07:58:09.998Z</time></trkpt><trkpt lat="44.44694394961397" lon="8.07351232502306"><ele>772.6666666666666</ele><time>2026-04-03T07:58:10.998Z</time></trkpt><trkpt lat="44.4469745701143" lon="8.073732711891761"><ele>770.3333333333333</ele><time>2026-04-03T07:58:11.998Z</time></trkpt><trkpt lat="44.44700251606476" lon="8.073940921697908"><ele>768.0</ele><time>2026-04-03T07:58:12.998Z</time></trkpt><trkpt lat="44.44703075162936" lon="8.074139630774196"><ele>767.0</ele><time>2026-04-03T07:58:13.998Z</time></trkpt><trkpt lat="44.447041174869575" lon="8.074341108680938"><ele>766.0</ele><time>2026-04-03T07:58:14.998Z</time></trkpt><trkpt lat="44.44706036719629" lon="8.074516836218823"><ele>765.0</ele><time>2026-04-03T07:58:15.998Z</time></trkpt><trkpt lat="44.44709153545545" lon="8.074689113911358"><ele>764.0</ele><time>2026-04-03T07:58:16.998Z</time></trkpt><trkpt lat="44.44708677470512" lon="8.074866632126575"><ele>764.5</ele><time>2026-04-03T07:58:17.998Z</time></trkpt><trkpt lat="44.447060634295845" lon="8.075046081722197"><ele>765.0</ele><time>2026-04-03T07:58:18.998Z</time></trkpt><trkpt lat="44.44700972210278" lon="8.07522177811904"><ele>765.5</ele><time>2026-04-03T07:58:19.998Z</time></trkpt><trkpt lat="44.44694727625862" lon="8.075366937161771"><ele>766.0</ele><time>2026-04-03T07:58:20.998Z</time></trkpt><trkpt lat="44.44687912476215" lon="8.07551463194109"><ele>766.0</ele><time>2026-04-03T07:58:21.998Z</time></trkpt><trkpt lat="44.44681643785838" lon="8.07564179080772"><ele>766.0</ele><time>2026-04-03T07:58:22.998Z</time></trkpt><trkpt lat="44.44675094799614" lon="8.075748248163757"><ele>766.0</ele><time>2026-04-03T07:58:23.998Z</time></trkpt><trkpt lat="44.44670395712955" lon="8.075856471670503"><ele>766.0</ele><time>2026-04-03T07:58:24.998Z</time></trkpt><trkpt lat="44.44666223555712" lon="8.075961360973077"><ele>766.0</ele><time>2026-04-03T07:58:25.998Z</time></trkpt><trkpt lat="44.446627343632926" lon="8.076084987490137"><ele>768.25</ele><time>2026-04-03T07:58:26.998Z</time></trkpt><trkpt lat="44.446595036908604" lon="8.076217112578673"><ele>770.5</ele><time>2026-04-03T07:58:27.998Z</time></trkpt><trkpt lat="44.44657379749064" lon="8.076373723492868"><ele>772.75</ele><time>2026-04-03T07:58:28.998Z</time></trkpt><trkpt lat="44.446560998447815" lon="8.07654249108604"><ele>775.0</ele><time>2026-04-03T07:58:29.998Z</time></trkpt><trkpt lat="44.446548257507125" lon="8.076717622560038"><ele>777.0</ele><time>2026-04-03T07:58:30.998Z</time></trkpt><trkpt lat="44.446517215075104" lon="8.076909725078636"><ele>779.0</ele><time>2026-04-03T07:58:31.998Z</time></trkpt><trkpt lat="44.446488401002256" lon="8.077085608544726"><ele>781.0</ele><time>2026-04-03T07:58:32.998Z</time></trkpt><trkpt lat="44.44645538878484" lon="8.077259759342677"><ele>783.0</ele><time>2026-04-03T07:58:33.998Z</time></trkpt><trkpt lat="44.4464351363834" lon="8.077438441599503"><ele>785.25</ele><time>2026-04-03T07:58:34.998Z</time></trkpt><trkpt lat="44.44642012407549" lon="8.077617713438716"><ele>787.5</ele><time>2026-04-03T07:58:35.998Z</time></trkpt><trkpt lat="44.446402259389885" lon="8.077796788382503"><ele>789.75</ele><time>2026-04-03T07:58:37Z</time></trkpt><trkpt lat="44.446385786117965" lon="8.077956963643889"><ele>792.0</ele><time>2026-04-03T07:58:38Z</time></trkpt><trkpt lat="44.44638966586358" lon="8.078110295885978"><ele>792.25</ele><time>2026-04-03T07:58:39Z</time></trkpt><trkpt lat="44.44637817932437" lon="8.078276142913273"><ele>792.5</ele><time>2026-04-03T07:58:40Z</time></trkpt><trkpt lat="44.44633859867025" lon="8.078458380339663"><ele>792.75</ele><time>2026-04-03T07:58:41Z</time></trkpt><trkpt lat="44.44632523202741" lon="8.0786467522599"><ele>793.0</ele><time>2026-04-03T07:58:42Z</time></trkpt><trkpt lat="44.4463083526052" lon="8.078809376467822"><ele>786.75</ele><time>2026-04-03T07:58:43Z</time></trkpt><trkpt lat="44.446267510682866" lon="8.078970332203074"><ele>780.5</ele><time>2026-04-03T07:58:44Z</time></trkpt><trkpt lat="44.44620256712184" lon="8.07913507424393"><ele>774.25</ele><time>2026-04-03T07:58:45Z</time></trkpt><trkpt lat="44.44612937672107" lon="8.079311519036995"><ele>768.0</ele><time>2026-04-03T07:58:46Z</time></trkpt><trkpt lat="44.446065982472895" lon="8.079477295709308"><ele>768.0</ele><time>2026-04-03T07:58:47Z</time></trkpt><trkpt lat="44.445997811856444" lon="8.079645713396692"><ele>768.0</ele><time>2026-04-03T07:58:48Z</time></trkpt><trkpt lat="44.44592832208128" lon="8.079817981093207"><ele>768.0</ele><time>2026-04-03T07:58:49Z</time></trkpt><trkpt lat="44.44585972224913" lon="8.079985457855578"><ele>768.0</ele><time>2026-04-03T07:58:50Z</time></trkpt><trkpt lat="44.445788145234445" lon="8.080155537083815"><ele>770.5</ele><time>2026-04-03T07:58:51Z</time></trkpt><trkpt lat="44.44571869341454" lon="8.080318419661449"><ele>773.0</ele><time>2026-04-03T07:58:52Z</time></trkpt><trkpt lat="44.44564920668979" lon="8.080492195972944"><ele>775.5</ele><time>2026-04-03T07:58:53Z</time></trkpt><trkpt lat="44.44558013080474" lon="8.080658486171632"><ele>778.0</ele><time>2026-04-03T07:58:54Z</time></trkpt><trkpt lat="44.445509532480706" lon="8.080816016766514"><ele>773.75</ele><time>2026-04-03T07:58:55Z</time></trkpt><trkpt lat="44.44544509975928" lon="8.080969225024825"><ele>769.5</ele><time>2026-04-03T07:58:56Z</time></trkpt><trkpt lat="44.44538146269506" lon="8.081109024294435"><ele>765.25</ele><time>2026-04-03T07:58:57Z</time></trkpt><trkpt lat="44.44532329692764" lon="8.081249695202576"><ele>761.0</ele><time>2026-04-03T07:58:58Z</time></trkpt><trkpt lat="44.44526955789691" lon="8.081382516123133"><ele>761.0</ele><time>2026-04-03T07:58:59Z</time></trkpt><trkpt lat="44.445222354863944" lon="8.081523969933569"><ele>761.0</ele><time>2026-04-03T07:59:00Z</time></trkpt><trkpt lat="44.445183344452964" lon="8.081680208334992"><ele>761.0</ele><time>2026-04-03T07:59:01Z</time></trkpt><trkpt lat="44.44515129928708" lon="8.081863776413044"><ele>761.0</ele><time>2026-04-03T07:59:02Z</time></trkpt><trkpt lat="44.445116455997855" lon="8.082046920629296"><ele>763.0</ele><time>2026-04-03T07:59:03Z</time></trkpt><trkpt lat="44.44510939652184" lon="8.082256350143991"><ele>765.0</ele><time>2026-04-03T07:59:04Z</time></trkpt><trkpt lat="44.44508677139485" lon="8.082462987181424"><ele>767.0</ele><time>2026-04-03T07:59:05Z</time></trkpt><trkpt lat="44.445057357863" lon="8.08266926774301"><ele>769.0</ele><time>2026-04-03T07:59:06Z</time></trkpt><trkpt lat="44.445044720154954" lon="8.08286555426792"><ele>770.25</ele><time>2026-04-03T07:59:07Z</time></trkpt><trkpt lat="44.445028008213" lon="8.083079745320468"><ele>771.5</ele><time>2026-04-03T07:59:08Z</time></trkpt><trkpt lat="44.44501267972753" lon="8.083278312116702"><ele>772.75</ele><time>2026-04-03T07:59:09Z</time></trkpt><trkpt lat="44.444998302505816" lon="8.083465328839072"><ele>774.0</ele><time>2026-04-03T07:59:10Z</time></trkpt><trkpt lat="44.44498430228513" lon="8.083626681138842"><ele>774.75</ele><time>2026-04-03T07:59:11Z</time></trkpt><trkpt lat="44.44496921631864" lon="8.083786816242974"><ele>775.5</ele><time>2026-04-03T07:59:12Z</time></trkpt><trkpt lat="44.44492730813402" lon="8.083941398886218"><ele>776.25</ele><time>2026-04-03T07:59:13Z</time></trkpt><trkpt lat="44.44487192451616" lon="8.084074435179621"><ele>777.0</ele><time>2026-04-03T07:59:14Z</time></trkpt><trkpt lat="44.44480049704897" lon="8.084194246978662"><ele>778.5</ele><time>2026-04-03T07:59:15Z</time></trkpt><trkpt lat="44.44471172272453" lon="8.084309907974893"><ele>780.0</ele><time>2026-04-03T07:59:16Z</time></trkpt><trkpt lat="44.44459357778662" lon="8.08441563372599"><ele>781.5</ele><time>2026-04-03T07:59:17Z</time></trkpt><trkpt lat="44.44448350929327" lon="8.084516336552342"><ele>783.0</ele><time>2026-04-03T07:59:18Z</time></trkpt><trkpt lat="44.44438370501723" lon="8.084630029420062"><ele>781.0</ele><time>2026-04-03T07:59:19Z</time></trkpt><trkpt lat="44.44429345111522" lon="8.084763225666576"><ele>779.0</ele><time>2026-04-03T07:59:20Z</time></trkpt><trkpt lat="44.444199659474904" lon="8.084900382720623"><ele>777.0</ele><time>2026-04-03T07:59:21Z</time></trkpt><trkpt lat="44.44410352534329" lon="8.085026236512938"><ele>775.0</ele><time>2026-04-03T07:59:22Z</time></trkpt><trkpt lat="44.44402303267683" lon="8.085132598728032"><ele>775.0</ele><time>2026-04-03T07:59:23Z</time></trkpt><trkpt lat="44.443955561596724" lon="8.08522894607164"><ele>775.0</ele><time>2026-04-03T07:59:24Z</time></trkpt><trkpt lat="44.44387356778159" lon="8.08529716358411"><ele>775.0</ele><time>2026-04-03T07:59:25Z</time></trkpt><trkpt lat="44.443773602040125" lon="8.085348188173832"><ele>775.0</ele><time>2026-04-03T07:59:26Z</time></trkpt><trkpt lat="44.443660932559986" lon="8.08536566583741"><ele>775.0</ele><time>2026-04-03T07:59:27Z</time></trkpt><trkpt lat="44.44353734321824" lon="8.085382690834779"><ele>771.25</ele><time>2026-04-03T07:59:28Z</time></trkpt><trkpt lat="44.44341745709611" lon="8.085393877874575"><ele>767.5</ele><time>2026-04-03T07:59:28.999Z</time></trkpt><trkpt lat="44.44331070291812" lon="8.085412295351263"><ele>763.75</ele><time>2026-04-03T07:59:29.999Z</time></trkpt><trkpt lat="44.443194847029716" lon="8.08542833552996"><ele>760.0</ele><time>2026-04-03T07:59:30.999Z</time></trkpt><trkpt lat="44.44306504177829" lon="8.085442993157308"><ele>758.0</ele><time>2026-04-03T07:59:31.999Z</time></trkpt><trkpt lat="44.442931346459574" lon="8.085451877526435"><ele>756.0</ele><time>2026-04-03T07:59:32.999Z</time></trkpt><trkpt lat="44.44280478583019" lon="8.085518990700969"><ele>754.0</ele><time>2026-04-03T07:59:33.999Z</time></trkpt><trkpt lat="44.4426700152498" lon="8.085575738947725"><ele>752.0</ele><time>2026-04-03T07:59:34.999Z</time></trkpt><trkpt lat="44.442533561623286" lon="8.085638670341849"><ele>752.0</ele><time>2026-04-03T07:59:35.999Z</time></trkpt><trkpt lat="44.442411800949195" lon="8.085698531246589"><ele>752.0</ele><time>2026-04-03T07:59:36.999Z</time></trkpt><trkpt lat="44.44229549770306" lon="8.08576289323413"><ele>752.0</ele><time>2026-04-03T07:59:37.999Z</time></trkpt><trkpt lat="44.44217993845195" lon="8.085814344761225"><ele>752.0</ele><time>2026-04-03T07:59:38.999Z</time></trkpt><trkpt lat="44.44206492605073" lon="8.085840441100745"><ele>753.0</ele><time>2026-04-03T07:59:39.999Z</time></trkpt><trkpt lat="44.44197872941755" lon="8.08588375894074"><ele>754.0</ele><time>2026-04-03T07:59:40.999Z</time></trkpt><trkpt lat="44.44189378351539" lon="8.085934986870122"><ele>755.0</ele><time>2026-04-03T07:59:41.999Z</time></trkpt><trkpt lat="44.44181824915362" lon="8.0860126053126"><ele>756.0</ele><time>2026-04-03T07:59:42.999Z</time></trkpt><trkpt lat="44.44174494021261" lon="8.086124259051166"><ele>757.0</ele><time>2026-04-03T07:59:43.999Z</time></trkpt><trkpt lat="44.44167688062687" lon="8.086274465611037"><ele>757.0</ele><time>2026-04-03T07:59:44.999Z</time></trkpt><trkpt lat="44.441611742422666" lon="8.086446620505674"><ele>757.0</ele><time>2026-04-03T07:59:45.999Z</time></trkpt><trkpt lat="44.441543121241594" lon="8.086629660489107"><ele>757.0</ele><time>2026-04-03T07:59:46.999Z</time></trkpt><trkpt lat="44.44147380668346" lon="8.086810466948505"><ele>757.0</ele><time>2026-04-03T07:59:47.999Z</time></trkpt><trkpt lat="44.441411959699735" lon="8.08698055983252"><ele>759.5</ele><time>2026-04-03T07:59:48.999Z</time></trkpt><trkpt lat="44.44135366767692" lon="8.087151787509745"><ele>762.0</ele><time>2026-04-03T07:59:49.999Z</time></trkpt><trkpt lat="44.44129383239058" lon="8.087338214111417"><ele>764.5</ele><time>2026-04-03T07:59:50.999Z</time></trkpt><trkpt lat="44.441230979753115" lon="8.087522031652188"><ele>767.0</ele><time>2026-04-03T07:59:51.999Z</time></trkpt><trkpt lat="44.44116410670455" lon="8.087689213607996"><ele>763.25</ele><time>2026-04-03T07:59:52.999Z</time></trkpt><trkpt lat="44.44109795648034" lon="8.087853163118313"><ele>759.5</ele><time>2026-04-03T07:59:53.999Z</time></trkpt><trkpt lat="44.441043439751134" lon="8.088030733845823"><ele>755.75</ele><time>2026-04-03T07:59:54.999Z</time></trkpt><trkpt lat="44.44098563280389" lon="8.08822815985347"><ele>752.0</ele><time>2026-04-03T07:59:55.999Z</time></trkpt><trkpt lat="44.44093689429181" lon="8.088420802960885"><ele>752.0</ele><time>2026-04-03T07:59:56.999Z</time></trkpt><trkpt lat="44.440884621980835" lon="8.088610879187044"><ele>752.0</ele><time>2026-04-03T07:59:57.999Z</time></trkpt><trkpt lat="44.44082842259143" lon="8.088796730845052"><ele>752.0</ele><time>2026-04-03T07:59:58.999Z</time></trkpt><trkpt lat="44.44076799705368" lon="8.088986323441457"><ele>752.0</ele><time>2026-04-03T07:59:59.999Z</time></trkpt><trkpt lat="44.44070676633682" lon="8.089181693127012"><ele>753.0</ele><time>2026-04-03T08:00:00.999Z</time></trkpt><trkpt lat="44.44065260779643" lon="8.08937077271232"><ele>754.0</ele><time>2026-04-03T08:00:01.999Z</time></trkpt><trkpt lat="44.440599922357954" lon="8.089545642744213"><ele>755.0</ele><time>2026-04-03T08:00:02.999Z</time></trkpt><trkpt lat="44.44054372347198" lon="8.089718046987038"><ele>756.0</ele><time>2026-04-03T08:00:03.999Z</time></trkpt><trkpt lat="44.4404808109586" lon="8.089875589526175"><ele>752.75</ele><time>2026-04-03T08:00:04.999Z</time></trkpt><trkpt lat="44.4404129511813" lon="8.090023299309337"><ele>749.5</ele><time>2026-04-03T08:00:05.999Z</time></trkpt><trkpt lat="44.44034039683014" lon="8.09015748564006"><ele>746.25</ele><time>2026-04-03T08:00:06.999Z</time></trkpt><trkpt lat="44.440264111065474" lon="8.09028455001766"><ele>743.0</ele><time>2026-04-03T08:00:07.999Z</time></trkpt><trkpt lat="44.44019124203545" lon="8.090401699630853"><ele>743.0</ele><time>2026-04-03T08:00:08.999Z</time></trkpt><trkpt lat="44.44013387569902" lon="8.09050937013962"><ele>743.0</ele><time>2026-04-03T08:00:09.999Z</time></trkpt><trkpt lat="44.440079915029244" lon="8.09060651458174"><ele>743.0</ele><time>2026-04-03T08:00:10.999Z</time></trkpt><trkpt lat="44.44003802489964" lon="8.090712422041225"><ele>743.0</ele><time>2026-04-03T08:00:11.999Z</time></trkpt><trkpt lat="44.44000236901284" lon="8.090847275647278"><ele>743.0</ele><time>2026-04-03T08:00:12.999Z</time></trkpt><trkpt lat="44.43998392805687" lon="8.091007213270434"><ele>744.25</ele><time>2026-04-03T08:00:13.999Z</time></trkpt><trkpt lat="44.43997371474293" lon="8.091182770503854"><ele>745.5</ele><time>2026-04-03T08:00:14.999Z</time></trkpt><trkpt lat="44.439967656157165" lon="8.091371803856507"><ele>746.75</ele><time>2026-04-03T08:00:15.999Z</time></trkpt><trkpt lat="44.43996135823065" lon="8.091561256377288"><ele>748.0</ele><time>2026-04-03T08:00:16.999Z</time></trkpt><trkpt lat="44.43995664951671" lon="8.09173299314141"><ele>748.0</ele><time>2026-04-03T08:00:17.999Z</time></trkpt><trkpt lat="44.43995352865376" lon="8.091900982626377"><ele>748.0</ele><time>2026-04-03T08:00:18.999Z</time></trkpt><trkpt lat="44.43994667622405" lon="8.092064445662327"><ele>748.0</ele><time>2026-04-03T08:00:19.999Z</time></trkpt><trkpt lat="44.43993372216291" lon="8.092220390648265"><ele>748.0</ele><time>2026-04-03T08:00:20.999Z</time></trkpt><trkpt lat="44.43990413092123" lon="8.092379025627599"><ele>747.5</ele><time>2026-04-03T08:00:21.999Z</time></trkpt><trkpt lat="44.43985349327516" lon="8.09254469109974"><ele>747.0</ele><time>2026-04-03T08:00:22.999Z</time></trkpt><trkpt lat="44.43977801179477" lon="8.092710438923728"><ele>746.5</ele><time>2026-04-03T08:00:23.999Z</time></trkpt><trkpt lat="44.43969173351784" lon="8.092886557618668"><ele>746.0</ele><time>2026-04-03T08:00:24.999Z</time></trkpt><trkpt lat="44.43959366840895" lon="8.093063199501122"><ele>743.0</ele><time>2026-04-03T08:00:25.999Z</time></trkpt><trkpt lat="44.43949742576594" lon="8.093228189876084"><ele>740.0</ele><time>2026-04-03T08:00:26.998Z</time></trkpt><trkpt lat="44.43939360537695" lon="8.093386993225742"><ele>737.0</ele><time>2026-04-03T08:00:27.998Z</time></trkpt><trkpt lat="44.43926700239892" lon="8.093543449822505"><ele>737.0</ele><time>2026-04-03T08:00:28.998Z</time></trkpt><trkpt lat="44.43912768328808" lon="8.093701841235232"><ele>737.0</ele><time>2026-04-03T08:00:29.998Z</time></trkpt><trkpt lat="44.43899234266562" lon="8.093852917987927"><ele>737.0</ele><time>2026-04-03T08:00:30.998Z</time></trkpt><trkpt lat="44.43886435803054" lon="8.093993779266901"><ele>737.25</ele><time>2026-04-03T08:00:31.998Z</time></trkpt><trkpt lat="44.438741930023944" lon="8.094131806804743"><ele>737.5</ele><time>2026-04-03T08:00:32.998Z</time></trkpt><trkpt lat="44.43863452503133" lon="8.094253690531511"><ele>737.75</ele><time>2026-04-03T08:00:33.998Z</time></trkpt><trkpt lat="44.43852777110864" lon="8.094362258457988"><ele>738.0</ele><time>2026-04-03T08:00:34.998Z</time></trkpt><trkpt lat="44.438418323715" lon="8.094461429533014"><ele>738.0</ele><time>2026-04-03T08:00:35.998Z</time></trkpt><trkpt lat="44.43829817875204" lon="8.094544351918195"><ele>738.0</ele><time>2026-04-03T08:00:36.998Z</time></trkpt><trkpt lat="44.438167183112675" lon="8.094595618536543"><ele>738.0</ele><time>2026-04-03T08:00:37.998Z</time></trkpt><trkpt lat="44.4380267728446" lon="8.09462865119362"><ele>738.0</ele><time>2026-04-03T08:00:38.998Z</time></trkpt><trkpt lat="44.4378725839921" lon="8.094632656701855"><ele>735.6666666666666</ele><time>2026-04-03T08:00:39.998Z</time></trkpt><trkpt lat="44.43771005449255" lon="8.094623829920161"><ele>733.3333333333333</ele><time>2026-04-03T08:00:40.998Z</time></trkpt><trkpt lat="44.437545490497854" lon="8.094609407632015"><ele>731.0</ele><time>2026-04-03T08:00:41.998Z</time></trkpt><trkpt lat="44.437374159786614" lon="8.094578201311467"><ele>731.0</ele><time>2026-04-03T08:00:43Z</time></trkpt><trkpt lat="44.43721882045742" lon="8.094560055914098"><ele>731.0</ele><time>2026-04-03T08:00:44Z</time></trkpt><trkpt lat="44.43706722390672" lon="8.09454405586123"><ele>731.0</ele><time>2026-04-03T08:00:45Z</time></trkpt><trkpt lat="44.43691954624979" lon="8.094521315524752"><ele>730.75</ele><time>2026-04-03T08:00:46Z</time></trkpt><trkpt lat="44.436787361960015" lon="8.094489442094762"><ele>730.5</ele><time>2026-04-03T08:00:47Z</time></trkpt><trkpt lat="44.43666955117423" lon="8.094455033813832"><ele>730.25</ele><time>2026-04-03T08:00:48Z</time></trkpt><trkpt lat="44.43656285008863" lon="8.094420024539357"><ele>730.0</ele><time>2026-04-03T08:00:49Z</time></trkpt><trkpt lat="44.436465007275615" lon="8.094392623907034"><ele>730.0</ele><time>2026-04-03T08:00:50Z</time></trkpt><trkpt lat="44.4363746779869" lon="8.094374476341333"><ele>730.0</ele><time>2026-04-03T08:00:51Z</time></trkpt><trkpt lat="44.43628648408406" lon="8.094372112988655"><ele>730.0</ele><time>2026-04-03T08:00:52Z</time></trkpt><trkpt lat="44.43619291786352" lon="8.094398742650752"><ele>730.0</ele><time>2026-04-03T08:00:53Z</time></trkpt><trkpt lat="44.43609971082382" lon="8.094462516889399"><ele>730.0</ele><time>2026-04-03T08:00:54Z</time></trkpt><trkpt lat="44.436006111844314" lon="8.094556666925891"><ele>729.0</ele><time>2026-04-03T08:00:55Z</time></trkpt><trkpt lat="44.4359186956639" lon="8.094683412648152"><ele>728.0</ele><time>2026-04-03T08:00:56Z</time></trkpt><trkpt lat="44.43584366778918" lon="8.094844437574599"><ele>727.0</ele><time>2026-04-03T08:00:57Z</time></trkpt><trkpt lat="44.43576843259957" lon="8.095005685815186"><ele>726.0</ele><time>2026-04-03T08:00:58Z</time></trkpt><trkpt lat="44.43570032262131" lon="8.09515177446332"><ele>724.5</ele><time>2026-04-03T08:00:59Z</time></trkpt><trkpt lat="44.43562972832063" lon="8.095286761262711"><ele>723.0</ele><time>2026-04-03T08:01:00Z</time></trkpt><trkpt lat="44.43554119640064" lon="8.095409021619501"><ele>721.5</ele><time>2026-04-03T08:01:01Z</time></trkpt><trkpt lat="44.43542136947505" lon="8.095519177509262"><ele>720.0</ele><time>2026-04-03T08:01:02Z</time></trkpt><trkpt lat="44.435289341007" lon="8.09560264989621"><ele>720.0</ele><time>2026-04-03T08:01:03Z</time></trkpt><trkpt lat="44.43516648924857" lon="8.09563443397608"><ele>720.0</ele><time>2026-04-03T08:01:04Z</time></trkpt><trkpt lat="44.43505738056571" lon="8.095670901020052"><ele>720.0</ele><time>2026-04-03T08:01:05Z</time></trkpt><trkpt lat="44.43494798249813" lon="8.095726208222047"><ele>720.0</ele><time>2026-04-03T08:01:06Z</time></trkpt><trkpt lat="44.43483636204813" lon="8.095753569665366"><ele>720.0</ele><time>2026-04-03T08:01:07Z</time></trkpt><trkpt lat="44.434730273879836" lon="8.095829996717999"><ele>720.0</ele><time>2026-04-03T08:01:08Z</time></trkpt><trkpt lat="44.4346266080772" lon="8.095960195910825"><ele>720.0</ele><time>2026-04-03T08:01:09Z</time></trkpt><trkpt lat="44.43453444506496" lon="8.096103014300898"><ele>720.0</ele><time>2026-04-03T08:01:10Z</time></trkpt><trkpt lat="44.434445515805585" lon="8.096276427085991"><ele>720.0</ele><time>2026-04-03T08:01:11Z</time></trkpt><trkpt lat="44.434347949544545" lon="8.096464682532394"><ele>720.0</ele><time>2026-04-03T08:01:12Z</time></trkpt><trkpt lat="44.43425026204365" lon="8.096650344618515"><ele>720.0</ele><time>2026-04-03T08:01:13Z</time></trkpt><trkpt lat="44.434159912814806" lon="8.096822296419424"><ele>722.75</ele><time>2026-04-03T08:01:14Z</time></trkpt><trkpt lat="44.43407170677873" lon="8.096984686678244"><ele>725.5</ele><time>2026-04-03T08:01:15Z</time></trkpt><trkpt lat="44.4339878673304" lon="8.09713812745554"><ele>728.25</ele><time>2026-04-03T08:01:16Z</time></trkpt><trkpt lat="44.43390963787071" lon="8.097276400249568"><ele>731.0</ele><time>2026-04-03T08:01:17Z</time></trkpt><trkpt lat="44.43382953334307" lon="8.09740732153684"><ele>729.5</ele><time>2026-04-03T08:01:18Z</time></trkpt><trkpt lat="44.43373769220375" lon="8.097532364071766"><ele>728.0</ele><time>2026-04-03T08:01:19Z</time></trkpt><trkpt lat="44.433606596722115" lon="8.097653817136639"><ele>726.5</ele><time>2026-04-03T08:01:20Z</time></trkpt><trkpt lat="44.433463108524855" lon="8.097736065832695"><ele>725.0</ele><time>2026-04-03T08:01:21Z</time></trkpt><trkpt lat="44.43332737231357" lon="8.097788174278376"><ele>725.0</ele><time>2026-04-03T08:01:22Z</time></trkpt><trkpt lat="44.43319423659214" lon="8.09783492803851"><ele>725.0</ele><time>2026-04-03T08:01:23Z</time></trkpt><trkpt lat="44.43307393570871" lon="8.097870087955062"><ele>725.0</ele><time>2026-04-03T08:01:24Z</time></trkpt><trkpt lat="44.43294951932705" lon="8.09787764395601"><ele>725.0</ele><time>2026-04-03T08:01:25Z</time></trkpt><trkpt lat="44.43283007233112" lon="8.097859419756897"><ele>724.4</ele><time>2026-04-03T08:01:26Z</time></trkpt><trkpt lat="44.432718001510075" lon="8.097829977681924"><ele>723.8</ele><time>2026-04-03T08:01:27Z</time></trkpt><trkpt lat="44.432617871082414" lon="8.097778061896697"><ele>723.2</ele><time>2026-04-03T08:01:28Z</time></trkpt><trkpt lat="44.432520163909" lon="8.097755376581365"><ele>722.6</ele><time>2026-04-03T08:01:29Z</time></trkpt><trkpt lat="44.43241818576151" lon="8.09774544397608"><ele>722.0</ele><time>2026-04-03T08:01:29.999Z</time></trkpt><trkpt lat="44.43231401438195" lon="8.09775673593464"><ele>722.0</ele><time>2026-04-03T08:01:30.999Z</time></trkpt><trkpt lat="44.43220027867153" lon="8.097794882347818"><ele>722.0</ele><time>2026-04-03T08:01:31.999Z</time></trkpt><trkpt lat="44.432087107654596" lon="8.097874964843697"><ele>722.0</ele><time>2026-04-03T08:01:32.999Z</time></trkpt><trkpt lat="44.43197442812098" lon="8.097985421735919"><ele>722.0</ele><time>2026-04-03T08:01:33.999Z</time></trkpt><trkpt lat="44.43183071114307" lon="8.098069748984322"><ele>724.3333333333333</ele><time>2026-04-03T08:01:34.999Z</time></trkpt><trkpt lat="44.43169436548108" lon="8.098187064043591"><ele>726.6666666666666</ele><time>2026-04-03T08:01:35.999Z</time></trkpt><trkpt lat="44.431559647911044" lon="8.098310466881086"><ele>729.0</ele><time>2026-04-03T08:01:36.999Z</time></trkpt><trkpt lat="44.43143658112027" lon="8.098427854707964"><ele>729.0</ele><time>2026-04-03T08:01:37.999Z</time></trkpt><trkpt lat="44.4313159104716" lon="8.09853004901546"><ele>729.0</ele><time>2026-04-03T08:01:38.999Z</time></trkpt><trkpt lat="44.431206859538534" lon="8.098621708161623"><ele>729.0</ele><time>2026-04-03T08:01:39.999Z</time></trkpt><trkpt lat="44.43109919407053" lon="8.098699121030545"><ele>729.0</ele><time>2026-04-03T08:01:40.999Z</time></trkpt><trkpt lat="44.43099799510169" lon="8.098755599328891"><ele>727.75</ele><time>2026-04-03T08:01:41.999Z</time></trkpt><trkpt lat="44.43088067610691" lon="8.098796798470618"><ele>726.5</ele><time>2026-04-03T08:01:42.999Z</time></trkpt><trkpt lat="44.43074739048208" lon="8.09880237266105"><ele>725.25</ele><time>2026-04-03T08:01:43.999Z</time></trkpt><trkpt lat="44.4306098133588" lon="8.098780040951228"><ele>724.0</ele><time>2026-04-03T08:01:44.999Z</time></trkpt><trkpt lat="44.43047733446476" lon="8.098746359847246"><ele>725.0</ele><time>2026-04-03T08:01:45.999Z</time></trkpt><trkpt lat="44.43034911425334" lon="8.09871907131702"><ele>726.0</ele><time>2026-04-03T08:01:46.999Z</time></trkpt><trkpt lat="44.43020810030425" lon="8.09869300029811"><ele>727.0</ele><time>2026-04-03T08:01:47.999Z</time></trkpt><trkpt lat="44.430050773557" lon="8.098674934746489"><ele>728.0</ele><time>2026-04-03T08:01:48.999Z</time></trkpt><trkpt lat="44.42990448646387" lon="8.098684770392145"><ele>728.0</ele><time>2026-04-03T08:01:49.999Z</time></trkpt><trkpt lat="44.429774028887365" lon="8.098719816434269"><ele>728.0</ele><time>2026-04-03T08:01:50.999Z</time></trkpt><trkpt lat="44.429653394836535" lon="8.098755229777385"><ele>728.0</ele><time>2026-04-03T08:01:51.999Z</time></trkpt><trkpt lat="44.42954312082224" lon="8.098787335714626"><ele>728.0</ele><time>2026-04-03T08:01:52.999Z</time></trkpt><trkpt lat="44.42943203826716" lon="8.098811829313705"><ele>727.75</ele><time>2026-04-03T08:01:53.999Z</time></trkpt><trkpt lat="44.42931741342916" lon="8.098808223042582"><ele>727.5</ele><time>2026-04-03T08:01:54.999Z</time></trkpt><trkpt lat="44.42919699777461" lon="8.098774720702407"><ele>727.25</ele><time>2026-04-03T08:01:55.999Z</time></trkpt><trkpt lat="44.42907594879341" lon="8.098689724993708"><ele>727.0</ele><time>2026-04-03T08:01:56.999Z</time></trkpt><trkpt lat="44.428946617142415" lon="8.098577489451122"><ele>727.0</ele><time>2026-04-03T08:01:57.999Z</time></trkpt><trkpt lat="44.428820614534445" lon="8.098474698009047"><ele>727.0</ele><time>2026-04-03T08:01:58.999Z</time></trkpt><trkpt lat="44.42870248115796" lon="8.098359606342227"><ele>727.0</ele><time>2026-04-03T08:01:59.999Z</time></trkpt><trkpt lat="44.42857729689696" lon="8.098222679462145"><ele>727.0</ele><time>2026-04-03T08:02:00.999Z</time></trkpt><trkpt lat="44.42845925876746" lon="8.098057810039313"><ele>727.25</ele><time>2026-04-03T08:02:01.999Z</time></trkpt><trkpt lat="44.42835120056542" lon="8.097923235833244"><ele>727.5</ele><time>2026-04-03T08:02:02.999Z</time></trkpt><trkpt lat="44.42824408621879" lon="8.097785660675287"><ele>727.75</ele><time>2026-04-03T08:02:03.999Z</time></trkpt><trkpt lat="44.4281216185288" lon="8.097664587914462"><ele>728.0</ele><time>2026-04-03T08:02:04.999Z</time></trkpt><trkpt lat="44.42802019445717" lon="8.097535456203621"><ele>728.0</ele><time>2026-04-03T08:02:05.999Z</time></trkpt><trkpt lat="44.42792184510413" lon="8.097430441242004"><ele>728.0</ele><time>2026-04-03T08:02:06.999Z</time></trkpt><trkpt lat="44.4278140806916" lon="8.097340595398098"><ele>728.0</ele><time>2026-04-03T08:02:07.999Z</time></trkpt><trkpt lat="44.42769514031048" lon="8.097262350932679"><ele>728.0</ele><time>2026-04-03T08:02:08.999Z</time></trkpt><trkpt lat="44.42757701238927" lon="8.09721918866763"><ele>728.0</ele><time>2026-04-03T08:02:09.999Z</time></trkpt><trkpt lat="44.427448065419966" lon="8.097178893133213"><ele>728.0</ele><time>2026-04-03T08:02:10.999Z</time></trkpt><trkpt lat="44.427316738335705" lon="8.097142047995133"><ele>728.0</ele><time>2026-04-03T08:02:11.999Z</time></trkpt><trkpt lat="44.427195057459045" lon="8.097126768248671"><ele>728.0</ele><time>2026-04-03T08:02:12.999Z</time></trkpt><trkpt lat="44.42706213548317" lon="8.097106507140097"><ele>729.0</ele><time>2026-04-03T08:02:13.999Z</time></trkpt><trkpt lat="44.426931902414225" lon="8.097080387842334"><ele>730.0</ele><time>2026-04-03T08:02:14.999Z</time></trkpt><trkpt lat="44.426801656468" lon="8.097053170137729"><ele>731.0</ele><time>2026-04-03T08:02:15.999Z</time></trkpt><trkpt lat="44.426672189270725" lon="8.097024720169527"><ele>732.0</ele><time>2026-04-03T08:02:16.999Z</time></trkpt><trkpt lat="44.426547300788094" lon="8.097000246484848"><ele>732.0</ele><time>2026-04-03T08:02:17.999Z</time></trkpt><trkpt lat="44.42642418791908" lon="8.096965851549596"><ele>732.0</ele><time>2026-04-03T08:02:18.999Z</time></trkpt><trkpt lat="44.426320482525334" lon="8.096922995867155"><ele>732.0</ele><time>2026-04-03T08:02:19.999Z</time></trkpt><trkpt lat="44.42621455304088" lon="8.096871373844285"><ele>732.0</ele><time>2026-04-03T08:02:20.999Z</time></trkpt><trkpt lat="44.42609982644663" lon="8.096793155637835"><ele>732.4000000000001</ele><time>2026-04-03T08:02:21.999Z</time></trkpt><trkpt lat="44.425996566573815" lon="8.096706423347163"><ele>732.8000000000001</ele><time>2026-04-03T08:02:22.999Z</time></trkpt><trkpt lat="44.425896115995435" lon="8.09663198232229"><ele>733.2</ele><time>2026-04-03T08:02:23.999Z</time></trkpt><trkpt lat="44.42580827831637" lon="8.096558084419977"><ele>733.6</ele><time>2026-04-03T08:02:24.998Z</time></trkpt><trkpt lat="44.42571928160806" lon="8.09648732552263"><ele>734.0</ele><time>2026-04-03T08:02:25.998Z</time></trkpt><trkpt lat="44.42565154095226" lon="8.09643108959263"><ele>734.1428571428571</ele><time>2026-04-03T08:02:26.998Z</time></trkpt><trkpt lat="44.42558184886275" lon="8.096370400926817"><ele>734.2857142857143</ele><time>2026-04-03T08:02:27.998Z</time></trkpt><trkpt lat="44.42552222169885" lon="8.096313637412921"><ele>734.4285714285714</ele><time>2026-04-03T08:02:28.998Z</time></trkpt><trkpt lat="44.42547068119725" lon="8.096229473939601"><ele>734.5714285714286</ele><time>2026-04-03T08:02:29.998Z</time></trkpt><trkpt lat="44.42543325932189" lon="8.096146423580048"><ele>734.7142857142858</ele><time>2026-04-03T08:02:30.998Z</time></trkpt><trkpt lat="44.425391616094295" lon="8.096063917724408"><ele>734.8571428571429</ele><time>2026-04-03T08:02:31.998Z</time></trkpt><trkpt lat="44.425336431361316" lon="8.096007521388925"><ele>735.0</ele><time>2026-04-03T08:02:32.998Z</time></trkpt><trkpt lat="44.42525114607329" lon="8.095960468004286"><ele>734.6</ele><time>2026-04-03T08:02:33.998Z</time></trkpt><trkpt lat="44.42515993533155" lon="8.095939325803675"><ele>734.2</ele><time>2026-04-03T08:02:34.998Z</time></trkpt><trkpt lat="44.425055384900475" lon="8.095921052383826"><ele>733.8</ele><time>2026-04-03T08:02:35.998Z</time></trkpt><trkpt lat="44.42495540631975" lon="8.095854006479927"><ele>733.4</ele><time>2026-04-03T08:02:36.998Z</time></trkpt><trkpt lat="44.42484225544662" lon="8.095799228232702"><ele>733.0</ele><time>2026-04-03T08:02:37.998Z</time></trkpt><trkpt lat="44.424741258048435" lon="8.095750143922103"><ele>732.0</ele><time>2026-04-03T08:02:38.998Z</time></trkpt><trkpt lat="44.4246354494625" lon="8.09572159737156"><ele>731.0</ele><time>2026-04-03T08:02:39.998Z</time></trkpt><trkpt lat="44.424535484343444" lon="8.095650241492615"><ele>730.0</ele><time>2026-04-03T08:02:40.998Z</time></trkpt><trkpt lat="44.424429225904404" lon="8.09559914488898"><ele>729.0</ele><time>2026-04-03T08:02:41.998Z</time></trkpt><trkpt lat="44.42432240853354" lon="8.095534879338498"><ele>728.0</ele><time>2026-04-03T08:02:42.998Z</time></trkpt><trkpt lat="44.42420944715572" lon="8.095455131430155"><ele>728.0</ele><time>2026-04-03T08:02:43.998Z</time></trkpt><trkpt lat="44.42408831761406" lon="8.095356215221996"><ele>728.0</ele><time>2026-04-03T08:02:44.998Z</time></trkpt><trkpt lat="44.423976768559996" lon="8.095264463612112"><ele>728.0</ele><time>2026-04-03T08:02:45.998Z</time></trkpt><trkpt lat="44.423863473221644" lon="8.095170085587002"><ele>728.0</ele><time>2026-04-03T08:02:46.998Z</time></trkpt><trkpt lat="44.42373641551431" lon="8.095069294267114"><ele>727.75</ele><time>2026-04-03T08:02:47.998Z</time></trkpt><trkpt lat="44.42361976941057" lon="8.094970597815786"><ele>727.5</ele><time>2026-04-03T08:02:49Z</time></trkpt><trkpt lat="44.42351165835521" lon="8.094866056135169"><ele>727.25</ele><time>2026-04-03T08:02:50Z</time></trkpt><trkpt lat="44.423402225547406" lon="8.094727633333852"><ele>727.0</ele><time>2026-04-03T08:02:51Z</time></trkpt><trkpt lat="44.42329925077018" lon="8.094588347717266"><ele>727.0</ele><time>2026-04-03T08:02:52Z</time></trkpt><trkpt lat="44.42321307438928" lon="8.094438899547676"><ele>727.0</ele><time>2026-04-03T08:02:53Z</time></trkpt><trkpt lat="44.423134682944024" lon="8.094305715059553"><ele>727.0</ele><time>2026-04-03T08:02:54Z</time></trkpt><trkpt lat="44.42306004792916" lon="8.094177224483248"><ele>727.0</ele><time>2026-04-03T08:02:55Z</time></trkpt><trkpt lat="44.42298395637719" lon="8.094057344197395"><ele>726.8</ele><time>2026-04-03T08:02:56Z</time></trkpt><trkpt lat="44.422917834343174" lon="8.093957839614163"><ele>726.6</ele><time>2026-04-03T08:02:57Z</time></trkpt><trkpt lat="44.42284566223066" lon="8.093853097067438"><ele>726.4</ele><time>2026-04-03T08:02:58Z</time></trkpt><trkpt lat="44.42275836236877" lon="8.0937393839613"><ele>726.1999999999999</ele><time>2026-04-03T08:02:59Z</time></trkpt><trkpt lat="44.42267912291214" lon="8.093645854867596"><ele>726.0</ele><time>2026-04-03T08:03:00Z</time></trkpt><trkpt lat="44.42256544103755" lon="8.093577215065318"><ele>726.0</ele><time>2026-04-03T08:03:01Z</time></trkpt><trkpt lat="44.422450148097404" lon="8.093532924247318"><ele>726.0</ele><time>2026-04-03T08:03:02Z</time></trkpt><trkpt lat="44.422309630784696" lon="8.093518685432782"><ele>726.0</ele><time>2026-04-03T08:03:03Z</time></trkpt><trkpt lat="44.422178605442156" lon="8.093463403314447"><ele>726.0</ele><time>2026-04-03T08:03:04Z</time></trkpt><trkpt lat="44.42205222567242" lon="8.093427065906393"><ele>725.5</ele><time>2026-04-03T08:03:05Z</time></trkpt><trkpt lat="44.421928097145226" lon="8.093397432505872"><ele>725.0</ele><time>2026-04-03T08:03:06Z</time></trkpt><trkpt lat="44.42181270035525" lon="8.093363487378411"><ele>724.5</ele><time>2026-04-03T08:03:07Z</time></trkpt><trkpt lat="44.42170772006507" lon="8.093318083944784"><ele>724.0</ele><time>2026-04-03T08:03:08Z</time></trkpt><trkpt lat="44.42160814775058" lon="8.093247673054016"><ele>724.0</ele><time>2026-04-03T08:03:09Z</time></trkpt><trkpt lat="44.42151648485875" lon="8.093151013657002"><ele>724.0</ele><time>2026-04-03T08:03:10Z</time></trkpt><trkpt lat="44.42144106010824" lon="8.093038546896796"><ele>724.0</ele><time>2026-04-03T08:03:11Z</time></trkpt><trkpt lat="44.421368450549615" lon="8.092905396239649"><ele>724.0</ele><time>2026-04-03T08:03:12Z</time></trkpt><trkpt lat="44.421311853490785" lon="8.092750756702282"><ele>724.6</ele><time>2026-04-03T08:03:13Z</time></trkpt><trkpt lat="44.42127427823299" lon="8.09260407518232"><ele>725.2</ele><time>2026-04-03T08:03:14Z</time></trkpt><trkpt lat="44.421250214703186" lon="8.092466764186227"><ele>725.8000000000001</ele><time>2026-04-03T08:03:15Z</time></trkpt><trkpt lat="44.42122709132744" lon="8.092335416015125"><ele>726.4000000000001</ele><time>2026-04-03T08:03:16Z</time></trkpt><trkpt lat="44.42120220397462" lon="8.092213798861604"><ele>727.0</ele><time>2026-04-03T08:03:17Z</time></trkpt><trkpt lat="44.42116321685017" lon="8.092085635804454"><ele>727.0</ele><time>2026-04-03T08:03:18Z</time></trkpt><trkpt lat="44.421114702703775" lon="8.091977470138602"><ele>727.0</ele><time>2026-04-03T08:03:19Z</time></trkpt><trkpt lat="44.4210527518947" lon="8.091884571103735"><ele>727.0</ele><time>2026-04-03T08:03:20Z</time></trkpt><trkpt lat="44.42097256994717" lon="8.091815532016952"><ele>727.0</ele><time>2026-04-03T08:03:21Z</time></trkpt><trkpt lat="44.42087933703105" lon="8.091759131984995"><ele>727.0</ele><time>2026-04-03T08:03:22Z</time></trkpt><trkpt lat="44.42076350515202" lon="8.091760361499112"><ele>727.0</ele><time>2026-04-03T08:03:23Z</time></trkpt><trkpt lat="44.420641530911944" lon="8.091800672900437"><ele>727.0</ele><time>2026-04-03T08:03:24Z</time></trkpt><trkpt lat="44.42051936617732" lon="8.091851864521777"><ele>727.0</ele><time>2026-04-03T08:03:25Z</time></trkpt><trkpt lat="44.420391196916526" lon="8.091913350813725"><ele>727.0</ele><time>2026-04-03T08:03:26Z</time></trkpt><trkpt lat="44.42027144014469" lon="8.091973096782484"><ele>725.0</ele><time>2026-04-03T08:03:27Z</time></trkpt><trkpt lat="44.420155365733564" lon="8.092024210080842"><ele>723.0</ele><time>2026-04-03T08:03:28Z</time></trkpt><trkpt lat="44.420037067361605" lon="8.092074044461372"><ele>721.0</ele><time>2026-04-03T08:03:29Z</time></trkpt><trkpt lat="44.4199126396421" lon="8.09212571091039"><ele>719.0</ele><time>2026-04-03T08:03:30Z</time></trkpt><trkpt lat="44.419791905469914" lon="8.09217487384872"><ele>719.0</ele><time>2026-04-03T08:03:31Z</time></trkpt><trkpt lat="44.4196818051681" lon="8.092216802163122"><ele>719.0</ele><time>2026-04-03T08:03:31.999Z</time></trkpt><trkpt lat="44.41956693196472" lon="8.092240507488762"><ele>719.0</ele><time>2026-04-03T08:03:32.999Z</time></trkpt><trkpt lat="44.41944341282233" lon="8.092237229695808"><ele>719.0</ele><time>2026-04-03T08:03:33.999Z</time></trkpt><trkpt lat="44.4193212390921" lon="8.092212303584876"><ele>719.0</ele><time>2026-04-03T08:03:34.999Z</time></trkpt><trkpt lat="44.419198928414076" lon="8.092165465720418"><ele>719.0</ele><time>2026-04-03T08:03:35.999Z</time></trkpt><trkpt lat="44.41908523648813" lon="8.09210579943145"><ele>719.0</ele><time>2026-04-03T08:03:36.999Z</time></trkpt><trkpt lat="44.41897966167191" lon="8.092050257312964"><ele>719.0</ele><time>2026-04-03T08:03:37.999Z</time></trkpt><trkpt lat="44.418872641841794" lon="8.091985572248332"><ele>720.0</ele><time>2026-04-03T08:03:38.999Z</time></trkpt><trkpt lat="44.41876368683971" lon="8.091897388792646"><ele>721.0</ele><time>2026-04-03T08:03:39.999Z</time></trkpt><trkpt lat="44.4186574042103" lon="8.09178783255352"><ele>722.0</ele><time>2026-04-03T08:03:40.999Z</time></trkpt><trkpt lat="44.41855365264598" lon="8.09164930527462"><ele>723.0</ele><time>2026-04-03T08:03:41.999Z</time></trkpt><trkpt lat="44.418456861945344" lon="8.091489548191385"><ele>723.0</ele><time>2026-04-03T08:03:42.999Z</time></trkpt><trkpt lat="44.41836948328076" lon="8.091322822886386"><ele>723.0</ele><time>2026-04-03T08:03:43.999Z</time></trkpt><trkpt lat="44.418289538374296" lon="8.091171858632258"><ele>723.0</ele><time>2026-04-03T08:03:44.999Z</time></trkpt><trkpt lat="44.418226432477255" lon="8.09103977799148"><ele>723.0</ele><time>2026-04-03T08:03:45.999Z</time></trkpt><trkpt lat="44.418171774622046" lon="8.090899698340262"><ele>722.0</ele><time>2026-04-03T08:03:46.999Z</time></trkpt><trkpt lat="44.418141741847926" lon="8.09075231948529"><ele>721.0</ele><time>2026-04-03T08:03:47.999Z</time></trkpt><trkpt lat="44.418127400183145" lon="8.090577183293044"><ele>720.0</ele><time>2026-04-03T08:03:48.999Z</time></trkpt><trkpt lat="44.418133170624074" lon="8.09040609563832"><ele>719.0</ele><time>2026-04-03T08:03:49.999Z</time></trkpt><trkpt lat="44.418134300499666" lon="8.090235931412302"><ele>719.0</ele><time>2026-04-03T08:03:50.999Z</time></trkpt><trkpt lat="44.41813891878639" lon="8.090084974580332"><ele>719.0</ele><time>2026-04-03T08:03:51.999Z</time></trkpt><trkpt lat="44.418135830572254" lon="8.089938541147278"><ele>719.0</ele><time>2026-04-03T08:03:52.999Z</time></trkpt><trkpt lat="44.41812109953489" lon="8.089809360262457"><ele>719.0</ele><time>2026-04-03T08:03:53.999Z</time></trkpt><trkpt lat="44.41810366754745" lon="8.0896934183974"><ele>719.0</ele><time>2026-04-03T08:03:54.999Z</time></trkpt><trkpt lat="44.418065027456045" lon="8.089570316597726"><ele>717.0</ele><time>2026-04-03T08:03:55.999Z</time></trkpt><trkpt lat="44.41799450916447" lon="8.089463269088517"><ele>715.0</ele><time>2026-04-03T08:03:56.999Z</time></trkpt><trkpt lat="44.417912053426875" lon="8.089358753667717"><ele>713.0</ele><time>2026-04-03T08:03:57.999Z</time></trkpt><trkpt lat="44.41780843858364" lon="8.089257168230718"><ele>711.0</ele><time>2026-04-03T08:03:58.999Z</time></trkpt><trkpt lat="44.41771125952055" lon="8.089168153149181"><ele>711.5999999999999</ele><time>2026-04-03T08:03:59.999Z</time></trkpt><trkpt lat="44.41762560061636" lon="8.089079004047576"><ele>712.2</ele><time>2026-04-03T08:04:00.999Z</time></trkpt><trkpt lat="44.41754109978624" lon="8.088970139139496"><ele>712.8</ele><time>2026-04-03T08:04:01.999Z</time></trkpt><trkpt lat="44.417461909038" lon="8.088856385805505"><ele>713.4000000000001</ele><time>2026-04-03T08:04:02.999Z</time></trkpt><trkpt lat="44.41739015930906" lon="8.088744356341003"><ele>714.0</ele><time>2026-04-03T08:04:03.999Z</time></trkpt><trkpt lat="44.41731512927306" lon="8.088634770679931"><ele>714.0</ele><time>2026-04-03T08:04:04.999Z</time></trkpt><trkpt lat="44.417248696220724" lon="8.08854297592713"><ele>714.0</ele><time>2026-04-03T08:04:05.999Z</time></trkpt><trkpt lat="44.41718513517267" lon="8.088463472571949"><ele>714.0</ele><time>2026-04-03T08:04:06.999Z</time></trkpt><trkpt lat="44.41711629762113" lon="8.088414451267196"><ele>714.0</ele><time>2026-04-03T08:04:07.999Z</time></trkpt><trkpt lat="44.41703910595069" lon="8.088366833659855"><ele>714.0</ele><time>2026-04-03T08:04:08.999Z</time></trkpt><trkpt lat="44.416966579907736" lon="8.088325653583217"><ele>714.0</ele><time>2026-04-03T08:04:09.999Z</time></trkpt><trkpt lat="44.41688321569293" lon="8.088327723671982"><ele>714.5</ele><time>2026-04-03T08:04:10.999Z</time></trkpt><trkpt lat="44.41678155325734" lon="8.088365847489722"><ele>715.0</ele><time>2026-04-03T08:04:11.999Z</time></trkpt><trkpt lat="44.41667847801448" lon="8.088449568358852"><ele>715.5</ele><time>2026-04-03T08:04:12.999Z</time></trkpt><trkpt lat="44.41657827923073" lon="8.088556688243534"><ele>716.0</ele><time>2026-04-03T08:04:13.999Z</time></trkpt><trkpt lat="44.41647231911555" lon="8.088665161448446"><ele>716.0</ele><time>2026-04-03T08:04:14.999Z</time></trkpt><trkpt lat="44.41635525164861" lon="8.088773096014942"><ele>716.0</ele><time>2026-04-03T08:04:15.999Z</time></trkpt><trkpt lat="44.41625694927654" lon="8.088861980953507"><ele>716.0</ele><time>2026-04-03T08:04:16.999Z</time></trkpt><trkpt lat="44.416158371629706" lon="8.088953122959662"><ele>716.0</ele><time>2026-04-03T08:04:17.999Z</time></trkpt><trkpt lat="44.41606215057139" lon="8.089053435156112"><ele>716.0</ele><time>2026-04-03T08:04:18.999Z</time></trkpt><trkpt lat="44.415957028167234" lon="8.089168486863134"><ele>716.0</ele><time>2026-04-03T08:04:19.999Z</time></trkpt><trkpt lat="44.41587349090677" lon="8.089280660545207"><ele>716.0</ele><time>2026-04-03T08:04:20.999Z</time></trkpt><trkpt lat="44.41578379723869" lon="8.089384842221413"><ele>716.0</ele><time>2026-04-03T08:04:21.999Z</time></trkpt><trkpt lat="44.4156712090083" lon="8.089473687566326"><ele>716.0</ele><time>2026-04-03T08:04:22.999Z</time></trkpt><trkpt lat="44.415541925391366" lon="8.089545896512682"><ele>716.0</ele><time>2026-04-03T08:04:23.999Z</time></trkpt><trkpt lat="44.4154304996497" lon="8.089596388004153"><ele>716.0</ele><time>2026-04-03T08:04:24.999Z</time></trkpt><trkpt lat="44.415319892322294" lon="8.089641910785364"><ele>716.0</ele><time>2026-04-03T08:04:25.999Z</time></trkpt><trkpt lat="44.4152163863811" lon="8.089679873421407"><ele>712.8</ele><time>2026-04-03T08:04:26.998Z</time></trkpt><trkpt lat="44.41511427976534" lon="8.089709444064598"><ele>709.5999999999999</ele><time>2026-04-03T08:04:27.998Z</time></trkpt><trkpt lat="44.41500775555474" lon="8.089731377504433"><ele>706.4</ele><time>2026-04-03T08:04:28.998Z</time></trkpt><trkpt lat="44.41491125035556" lon="8.089756179849998"><ele>703.2</ele><time>2026-04-03T08:04:29.998Z</time></trkpt><trkpt lat="44.41481488605116" lon="8.089765725254194"><ele>700.0</ele><time>2026-04-03T08:04:30.998Z</time></trkpt><trkpt lat="44.4147186540487" lon="8.089815872107321"><ele>701.5</ele><time>2026-04-03T08:04:31.998Z</time></trkpt><trkpt lat="44.41462809840848" lon="8.089895949004067"><ele>703.0</ele><time>2026-04-03T08:04:32.998Z</time></trkpt><trkpt lat="44.4145379567324" lon="8.08999638603885"><ele>704.5</ele><time>2026-04-03T08:04:33.998Z</time></trkpt><trkpt lat="44.41444588070884" lon="8.090115633869118"><ele>706.0</ele><time>2026-04-03T08:04:34.998Z</time></trkpt><trkpt lat="44.41437302846493" lon="8.090234918961325"><ele>706.0</ele><time>2026-04-03T08:04:35.998Z</time></trkpt><trkpt lat="44.414276843258634" lon="8.090349616079527"><ele>706.0</ele><time>2026-04-03T08:04:36.998Z</time></trkpt><trkpt lat="44.41415723186104" lon="8.090453093210078"><ele>706.0</ele><time>2026-04-03T08:04:37.998Z</time></trkpt><trkpt lat="44.41403169838483" lon="8.090534143168275"><ele>706.0</ele><time>2026-04-03T08:04:38.998Z</time></trkpt><trkpt lat="44.413913699722606" lon="8.090592653820245"><ele>707.25</ele><time>2026-04-03T08:04:39.998Z</time></trkpt><trkpt lat="44.41380361406593" lon="8.090645153505267"><ele>708.5</ele><time>2026-04-03T08:04:40.998Z</time></trkpt><trkpt lat="44.413690585224096" lon="8.09070837295227"><ele>709.75</ele><time>2026-04-03T08:04:41.998Z</time></trkpt><trkpt lat="44.413591419473526" lon="8.090785328374778"><ele>711.0</ele><time>2026-04-03T08:04:42.998Z</time></trkpt><trkpt lat="44.41348298438844" lon="8.090873511407143"><ele>711.0</ele><time>2026-04-03T08:04:43.998Z</time></trkpt><trkpt lat="44.413383395212875" lon="8.090979645013075"><ele>711.0</ele><time>2026-04-03T08:04:44.998Z</time></trkpt><trkpt lat="44.41330044235547" lon="8.091090755490784"><ele>711.0</ele><time>2026-04-03T08:04:45.998Z</time></trkpt><trkpt lat="44.413215856725074" lon="8.091203099064083"><ele>711.0</ele><time>2026-04-03T08:04:46.998Z</time></trkpt><trkpt lat="44.41313620950878" lon="8.091311935310609"><ele>711.0</ele><time>2026-04-03T08:04:47.998Z</time></trkpt><trkpt lat="44.41303733119436" lon="8.091426221121031"><ele>711.0</ele><time>2026-04-03T08:04:48.998Z</time></trkpt><trkpt lat="44.41291608390944" lon="8.091531852368693"><ele>711.0</ele><time>2026-04-03T08:04:49.998Z</time></trkpt><trkpt lat="44.41278906619515" lon="8.09160152624497"><ele>711.0</ele><time>2026-04-03T08:04:50.998Z</time></trkpt><trkpt lat="44.41266430178298" lon="8.091630879508422"><ele>710.75</ele><time>2026-04-03T08:04:51.998Z</time></trkpt><trkpt lat="44.412538526799324" lon="8.091675252771433"><ele>710.5</ele><time>2026-04-03T08:04:52.998Z</time></trkpt><trkpt lat="44.412424731232015" lon="8.091715399707748"><ele>710.25</ele><time>2026-04-03T08:04:53.998Z</time></trkpt><trkpt lat="44.412314482988954" lon="8.091774041011078"><ele>710.0</ele><time>2026-04-03T08:04:55Z</time></trkpt><trkpt lat="44.4122065661122" lon="8.091818776448898"><ele>706.4</ele><time>2026-04-03T08:04:56Z</time></trkpt><trkpt lat="44.412109620457535" lon="8.091867111433569"><ele>702.8</ele><time>2026-04-03T08:04:57Z</time></trkpt><trkpt lat="44.412016538705124" lon="8.091918768832418"><ele>699.2</ele><time>2026-04-03T08:04:58Z</time></trkpt><trkpt lat="44.4119247338261" lon="8.091994354403717"><ele>695.6</ele><time>2026-04-03T08:04:59Z</time></trkpt><trkpt lat="44.41184689049615" lon="8.092066284423433"><ele>692.0</ele><time>2026-04-03T08:05:00Z</time></trkpt><trkpt lat="44.411774810779114" lon="8.092151625256792"><ele>692.0</ele><time>2026-04-03T08:05:01Z</time></trkpt><trkpt lat="44.411708360660846" lon="8.092257288658615"><ele>692.0</ele><time>2026-04-03T08:05:02Z</time></trkpt><trkpt lat="44.411643710381" lon="8.09239412538067"><ele>692.0</ele><time>2026-04-03T08:05:03Z</time></trkpt><trkpt lat="44.411592849425496" lon="8.092560458947126"><ele>692.0</ele><time>2026-04-03T08:05:04Z</time></trkpt><trkpt lat="44.411544222280156" lon="8.092757614473907"><ele>696.0</ele><time>2026-04-03T08:05:05Z</time></trkpt><trkpt lat="44.41149270643734" lon="8.092964666264928"><ele>700.0</ele><time>2026-04-03T08:05:06Z</time></trkpt><trkpt lat="44.411415917463316" lon="8.093173702268171"><ele>704.0</ele><time>2026-04-03T08:05:07Z</time></trkpt><trkpt lat="44.41133191075247" lon="8.093385304036065"><ele>700.0</ele><time>2026-04-03T08:05:08Z</time></trkpt><trkpt lat="44.41124890685548" lon="8.093568990630136"><ele>696.0</ele><time>2026-04-03T08:05:09Z</time></trkpt><trkpt lat="44.411155150388296" lon="8.093750451518439"><ele>692.0</ele><time>2026-04-03T08:05:10Z</time></trkpt><trkpt lat="44.41106787839939" lon="8.093933328480103"><ele>694.6666666666666</ele><time>2026-04-03T08:05:11Z</time></trkpt><trkpt lat="44.41097698363857" lon="8.094121217756262"><ele>697.3333333333334</ele><time>2026-04-03T08:05:12Z</time></trkpt><trkpt lat="44.4108718192422" lon="8.09428940038699"><ele>700.0</ele><time>2026-04-03T08:05:13Z</time></trkpt><trkpt lat="44.41077544213023" lon="8.09447671460557"><ele>700.0</ele><time>2026-04-03T08:05:14Z</time></trkpt><trkpt lat="44.41067496173811" lon="8.09467173356502"><ele>700.0</ele><time>2026-04-03T08:05:15Z</time></trkpt><trkpt lat="44.41057382609473" lon="8.094868024249925"><ele>700.0</ele><time>2026-04-03T08:05:16Z</time></trkpt><trkpt lat="44.41048226336743" lon="8.09504788922534"><ele>700.5</ele><time>2026-04-03T08:05:17Z</time></trkpt><trkpt lat="44.41039811896847" lon="8.095213612864924"><ele>701.0</ele><time>2026-04-03T08:05:18Z</time></trkpt><trkpt lat="44.41031845157053" lon="8.095371222664367"><ele>701.5</ele><time>2026-04-03T08:05:19Z</time></trkpt><trkpt lat="44.41024048601661" lon="8.095539642082645"><ele>702.0</ele><time>2026-04-03T08:05:20Z</time></trkpt><trkpt lat="44.41018465412896" lon="8.09572940241258"><ele>704.75</ele><time>2026-04-03T08:05:21Z</time></trkpt><trkpt lat="44.4101243286263" lon="8.095915480536785"><ele>707.5</ele><time>2026-04-03T08:05:22Z</time></trkpt><trkpt lat="44.41005352745538" lon="8.096095489139369"><ele>710.25</ele><time>2026-04-03T08:05:23Z</time></trkpt><trkpt lat="44.41002318341798" lon="8.096271004454966"><ele>713.0</ele><time>2026-04-03T08:05:24Z</time></trkpt><trkpt lat="44.409978594155774" lon="8.096441890108382"><ele>715.0</ele><time>2026-04-03T08:05:25Z</time></trkpt><trkpt lat="44.409942626278585" lon="8.09660350793767"><ele>717.0</ele><time>2026-04-03T08:05:26Z</time></trkpt><trkpt lat="44.409924968843036" lon="8.096766420467812"><ele>719.0</ele><time>2026-04-03T08:05:27Z</time></trkpt><trkpt lat="44.409920719739304" lon="8.096945563928776"><ele>721.0</ele><time>2026-04-03T08:05:28Z</time></trkpt><trkpt lat="44.4099390841171" lon="8.097116908648658"><ele>721.0</ele><time>2026-04-03T08:05:29Z</time></trkpt><trkpt lat="44.409975197656394" lon="8.097291862725628"><ele>721.0</ele><time>2026-04-03T08:05:30Z</time></trkpt><trkpt lat="44.41002232019966" lon="8.097464278897705"><ele>721.0</ele><time>2026-04-03T08:05:31Z</time></trkpt><trkpt lat="44.41007419970606" lon="8.097634141596618"><ele>721.0</ele><time>2026-04-03T08:05:32Z</time></trkpt><trkpt lat="44.41012432721663" lon="8.097788184499068"><ele>721.75</ele><time>2026-04-03T08:05:33Z</time></trkpt><trkpt lat="44.41017807259975" lon="8.097945236541085"><ele>722.5</ele><time>2026-04-03T08:05:34Z</time></trkpt><trkpt lat="44.41023202746453" lon="8.098090685133814"><ele>723.25</ele><time>2026-04-03T08:05:35Z</time></trkpt><trkpt lat="44.41028518943502" lon="8.09822732806107"><ele>724.0</ele><time>2026-04-03T08:05:36Z</time></trkpt><trkpt lat="44.410345597899" lon="8.098379985502563"><ele>724.0</ele><time>2026-04-03T08:05:36.999Z</time></trkpt><trkpt lat="44.41040831824429" lon="8.09854630974866"><ele>724.0</ele><time>2026-04-03T08:05:37.999Z</time></trkpt><trkpt lat="44.41046855495864" lon="8.098681453182527"><ele>724.0</ele><time>2026-04-03T08:05:38.999Z</time></trkpt><trkpt lat="44.410529652913425" lon="8.098818072511163"><ele>724.0</ele><time>2026-04-03T08:05:39.999Z</time></trkpt><trkpt lat="44.410579245597624" lon="8.098953629471486"><ele>724.75</ele><time>2026-04-03T08:05:40.999Z</time></trkpt><trkpt lat="44.4106071220376" lon="8.099112434489816"><ele>725.5</ele><time>2026-04-03T08:05:41.999Z</time></trkpt><trkpt lat="44.410616844846636" lon="8.099276130060257"><ele>726.25</ele><time>2026-04-03T08:05:42.999Z</time></trkpt><trkpt lat="44.41060475715746" lon="8.099447160819658"><ele>727.0</ele><time>2026-04-03T08:05:43.999Z</time></trkpt><trkpt lat="44.41056595907592" lon="8.099614995472884"><ele>727.0</ele><time>2026-04-03T08:05:44.999Z</time></trkpt><trkpt lat="44.41051272078846" lon="8.099773057435025"><ele>727.0</ele><time>2026-04-03T08:05:45.999Z</time></trkpt><trkpt lat="44.41046260018462" lon="8.099921510501074"><ele>727.0</ele><time>2026-04-03T08:05:46.999Z</time></trkpt><trkpt lat="44.41041577594997" lon="8.100085179147895"><ele>727.0</ele><time>2026-04-03T08:05:47.999Z</time></trkpt><trkpt lat="44.410359354709904" lon="8.100249676962617"><ele>725.75</ele><time>2026-04-03T08:05:48.999Z</time></trkpt><trkpt lat="44.41030813258165" lon="8.100418248704347"><ele>724.5</ele><time>2026-04-03T08:05:49.999Z</time></trkpt><trkpt lat="44.410251813020004" lon="8.100582323140548"><ele>723.25</ele><time>2026-04-03T08:05:50.999Z</time></trkpt><trkpt lat="44.41018961962489" lon="8.100736790018017"><ele>722.0</ele><time>2026-04-03T08:05:51.999Z</time></trkpt><trkpt lat="44.4101233258557" lon="8.100884503219127"><ele>722.0</ele><time>2026-04-03T08:05:52.999Z</time></trkpt><trkpt lat="44.410048803174625" lon="8.101024322797905"><ele>722.0</ele><time>2026-04-03T08:05:53.999Z</time></trkpt><trkpt lat="44.409972437363216" lon="8.101165233729434"><ele>722.0</ele><time>2026-04-03T08:05:54.999Z</time></trkpt><trkpt lat="44.4099061266401" lon="8.101303825365422"><ele>722.0</ele><time>2026-04-03T08:05:55.999Z</time></trkpt><trkpt lat="44.40983360345642" lon="8.101441547866914"><ele>722.25</ele><time>2026-04-03T08:05:56.999Z</time></trkpt><trkpt lat="44.409786744812344" lon="8.101603595740624"><ele>722.5</ele><time>2026-04-03T08:05:57.999Z</time></trkpt><trkpt lat="44.409752023825845" lon="8.101757302954786"><ele>722.75</ele><time>2026-04-03T08:05:58.999Z</time></trkpt><trkpt lat="44.40972817347294" lon="8.101915132905791"><ele>723.0</ele><time>2026-04-03T08:05:59.999Z</time></trkpt><trkpt lat="44.40970044808733" lon="8.10206226500649"><ele>723.0</ele><time>2026-04-03T08:06:00.999Z</time></trkpt><trkpt lat="44.409678653642004" lon="8.102213109836379"><ele>723.0</ele><time>2026-04-03T08:06:01.999Z</time></trkpt><trkpt lat="44.40965457484632" lon="8.102356897524945"><ele>723.0</ele><time>2026-04-03T08:06:02.999Z</time></trkpt><trkpt lat="44.40962893121074" lon="8.10249537107844"><ele>723.0</ele><time>2026-04-03T08:06:03.999Z</time></trkpt><trkpt lat="44.40960469832765" lon="8.1026463800531"><ele>723.0</ele><time>2026-04-03T08:06:04.999Z</time></trkpt><trkpt lat="44.409587988945226" lon="8.102800914293084"><ele>720.5999999999999</ele><time>2026-04-03T08:06:05.999Z</time></trkpt><trkpt lat="44.40957197494677" lon="8.10295076107757"><ele>718.1999999999999</ele><time>2026-04-03T08:06:06.999Z</time></trkpt><trkpt lat="44.40955713791597" lon="8.103111514078794"><ele>715.8</ele><time>2026-04-03T08:06:07.999Z</time></trkpt><trkpt lat="44.40953800636858" lon="8.10326606769269"><ele>713.4</ele><time>2026-04-03T08:06:08.999Z</time></trkpt><trkpt lat="44.40951316050211" lon="8.103411646971717"><ele>711.0</ele><time>2026-04-03T08:06:09.999Z</time></trkpt><trkpt lat="44.40947962922318" lon="8.103564437724804"><ele>711.0</ele><time>2026-04-03T08:06:10.999Z</time></trkpt><trkpt lat="44.409436182189204" lon="8.103713217277472"><ele>711.0</ele><time>2026-04-03T08:06:11.999Z</time></trkpt><trkpt lat="44.40942101781077" lon="8.103874162441954"><ele>711.0</ele><time>2026-04-03T08:06:12.999Z</time></trkpt><trkpt lat="44.409397735975155" lon="8.104025932760727"><ele>711.0</ele><time>2026-04-03T08:06:13.999Z</time></trkpt><trkpt lat="44.40939478180787" lon="8.104178214458727"><ele>712.0</ele><time>2026-04-03T08:06:14.999Z</time></trkpt><trkpt lat="44.40938614937346" lon="8.10432446853909"><ele>713.0</ele><time>2026-04-03T08:06:15.999Z</time></trkpt><trkpt lat="44.40937231736133" lon="8.104460536499785"><ele>714.0</ele><time>2026-04-03T08:06:16.999Z</time></trkpt><trkpt lat="44.40934927430391" lon="8.10460052501595"><ele>715.0</ele><time>2026-04-03T08:06:17.999Z</time></trkpt><trkpt lat="44.409322039867114" lon="8.104740625705363"><ele>716.0</ele><time>2026-04-03T08:06:18.999Z</time></trkpt><trkpt lat="44.409292537110204" lon="8.104863113155432"><ele>716.8</ele><time>2026-04-03T08:06:19.999Z</time></trkpt><trkpt lat="44.40924938732253" lon="8.104981673851817"><ele>717.5999999999999</ele><time>2026-04-03T08:06:20.999Z</time></trkpt><trkpt lat="44.40919856627019" lon="8.105077795480552"><ele>718.4</ele><time>2026-04-03T08:06:21.999Z</time></trkpt><trkpt lat="44.409137434488784" lon="8.105189884228844"><ele>719.2</ele><time>2026-04-03T08:06:22.999Z</time></trkpt><trkpt lat="44.409078837612505" lon="8.105303787906895"><ele>720.0</ele><time>2026-04-03T08:06:23.999Z</time></trkpt><trkpt lat="44.409028292567506" lon="8.105434408412739"><ele>720.0</ele><time>2026-04-03T08:06:24.999Z</time></trkpt><trkpt lat="44.40897809378725" lon="8.10556423818623"><ele>720.0</ele><time>2026-04-03T08:06:25.999Z</time></trkpt><trkpt lat="44.408920372415615" lon="8.105677447649752"><ele>720.0</ele><time>2026-04-03T08:06:26.999Z</time></trkpt><trkpt lat="44.40885174868716" lon="8.105772925943267"><ele>720.0</ele><time>2026-04-03T08:06:27.999Z</time></trkpt><trkpt lat="44.40877129536224" lon="8.105856748504653"><ele>720.0</ele><time>2026-04-03T08:06:28.999Z</time></trkpt><trkpt lat="44.40867797679322" lon="8.105935543545154"><ele>718.6</ele><time>2026-04-03T08:06:29.999Z</time></trkpt><trkpt lat="44.40858021350762" lon="8.105987947232553"><ele>717.2</ele><time>2026-04-03T08:06:30.999Z</time></trkpt><trkpt lat="44.40848394603067" lon="8.106026783146168"><ele>715.8</ele><time>2026-04-03T08:06:31.998Z</time></trkpt><trkpt lat="44.408387543219156" lon="8.106076991702382"><ele>714.4</ele><time>2026-04-03T08:06:32.998Z</time></trkpt><trkpt lat="44.408295183522625" lon="8.106141639933812"><ele>713.0</ele><time>2026-04-03T08:06:33.998Z</time></trkpt><trkpt lat="44.40820703135959" lon="8.106230277556614"><ele>713.0</ele><time>2026-04-03T08:06:34.998Z</time></trkpt><trkpt lat="44.40812608410711" lon="8.10632991338137"><ele>713.0</ele><time>2026-04-03T08:06:35.998Z</time></trkpt><trkpt lat="44.40805597725056" lon="8.106435912056115"><ele>713.0</ele><time>2026-04-03T08:06:36.998Z</time></trkpt><trkpt lat="44.40798791428622" lon="8.106533076678184"><ele>713.0</ele><time>2026-04-03T08:06:37.998Z</time></trkpt><trkpt lat="44.40791068424806" lon="8.106632067353948"><ele>713.0</ele><time>2026-04-03T08:06:38.998Z</time></trkpt><trkpt lat="44.40780989482243" lon="8.106725542874418"><ele>712.25</ele><time>2026-04-03T08:06:39.998Z</time></trkpt><trkpt lat="44.407705658033876" lon="8.106817826108252"><ele>711.5</ele><time>2026-04-03T08:06:40.998Z</time></trkpt><trkpt lat="44.40759456988264" lon="8.106900490926167"><ele>710.75</ele><time>2026-04-03T08:06:41.998Z</time></trkpt><trkpt lat="44.407484212150415" lon="8.10697210428648"><ele>710.0</ele><time>2026-04-03T08:06:42.998Z</time></trkpt><trkpt lat="44.40738283536492" lon="8.107032321316266"><ele>710.0</ele><time>2026-04-03T08:06:43.998Z</time></trkpt><trkpt lat="44.40728259876062" lon="8.107088266930383"><ele>710.0</ele><time>2026-04-03T08:06:44.998Z</time></trkpt><trkpt lat="44.40718896309273" lon="8.10714835335579"><ele>710.0</ele><time>2026-04-03T08:06:45.998Z</time></trkpt><trkpt lat="44.407091509569284" lon="8.107225103560483"><ele>710.0</ele><time>2026-04-03T08:06:46.998Z</time></trkpt><trkpt lat="44.40699120364915" lon="8.10732009575038"><ele>710.0</ele><time>2026-04-03T08:06:47.998Z</time></trkpt><trkpt lat="44.40689069353319" lon="8.10743645321749"><ele>710.3333333333333</ele><time>2026-04-03T08:06:48.998Z</time></trkpt><trkpt lat="44.4067977572973" lon="8.10758495718424"><ele>710.6666666666666</ele><time>2026-04-03T08:06:49.998Z</time></trkpt><trkpt lat="44.40670200029857" lon="8.107756828979003"><ele>711.0</ele><time>2026-04-03T08:06:50.998Z</time></trkpt><trkpt lat="44.40660272046964" lon="8.107943330312915"><ele>711.0</ele><time>2026-04-03T08:06:51.998Z</time></trkpt><trkpt lat="44.40647953996099" lon="8.108127230952512"><ele>711.0</ele><time>2026-04-03T08:06:52.998Z</time></trkpt><trkpt lat="44.40636163839135" lon="8.108326296744169"><ele>711.0</ele><time>2026-04-03T08:06:53.998Z</time></trkpt><trkpt lat="44.40624565224393" lon="8.108539268867736"><ele>711.3333333333334</ele><time>2026-04-03T08:06:54.998Z</time></trkpt><trkpt lat="44.406104632517156" lon="8.108724502376917"><ele>711.6666666666667</ele><time>2026-04-03T08:06:55.998Z</time></trkpt><trkpt lat="44.40595146253772" lon="8.108926030014402"><ele>712.0</ele><time>2026-04-03T08:06:56.998Z</time></trkpt><trkpt lat="44.405811897135244" lon="8.10912429135783"><ele>712.0</ele><time>2026-04-03T08:06:57.998Z</time></trkpt><trkpt lat="44.405665940603114" lon="8.109309070694918"><ele>712.0</ele><time>2026-04-03T08:06:58.998Z</time></trkpt><trkpt lat="44.405541656832284" lon="8.109454611432692"><ele>712.0</ele><time>2026-04-03T08:06:59.998Z</time></trkpt><trkpt lat="44.40542022623508" lon="8.109596736755586"><ele>711.0</ele><time>2026-04-03T08:07:01Z</time></trkpt><trkpt lat="44.405321392338095" lon="8.109720334881656"><ele>710.0</ele><time>2026-04-03T08:07:02Z</time></trkpt><trkpt lat="44.40521330208062" lon="8.109859797676398"><ele>709.0</ele><time>2026-04-03T08:07:03Z</time></trkpt><trkpt lat="44.40510970472975" lon="8.110034363830644"><ele>708.0</ele><time>2026-04-03T08:07:04Z</time></trkpt><trkpt lat="44.405017559111485" lon="8.11024013359826"><ele>708.0</ele><time>2026-04-03T08:07:05Z</time></trkpt><trkpt lat="44.40493097565735" lon="8.110474154464088"><ele>708.0</ele><time>2026-04-03T08:07:06Z</time></trkpt><trkpt lat="44.40485035208468" lon="8.11068675741504"><ele>708.0</ele><time>2026-04-03T08:07:07Z</time></trkpt><trkpt lat="44.40475535650867" lon="8.110898368618917"><ele>703.3333333333334</ele><time>2026-04-03T08:07:08Z</time></trkpt><trkpt lat="44.404644707318695" lon="8.111127254555"><ele>698.6666666666667</ele><time>2026-04-03T08:07:09Z</time></trkpt><trkpt lat="44.404527624775206" lon="8.11133253091875"><ele>694.0</ele><time>2026-04-03T08:07:10Z</time></trkpt><trkpt lat="44.404417580588955" lon="8.111508561837063"><ele>696.25</ele><time>2026-04-03T08:07:11Z</time></trkpt><trkpt lat="44.40431524133446" lon="8.111674174146291"><ele>698.5</ele><time>2026-04-03T08:07:12Z</time></trkpt><trkpt lat="44.404213200086204" lon="8.111837132616113"><ele>700.75</ele><time>2026-04-03T08:07:13Z</time></trkpt><trkpt lat="44.404124578181545" lon="8.111979936011693"><ele>703.0</ele><time>2026-04-03T08:07:14Z</time></trkpt><trkpt lat="44.40403022682814" lon="8.11211616391105"><ele>703.0</ele><time>2026-04-03T08:07:15Z</time></trkpt><trkpt lat="44.4039413670394" lon="8.11224784420779"><ele>703.0</ele><time>2026-04-03T08:07:16Z</time></trkpt><trkpt lat="44.40384911825819" lon="8.112369452361138"><ele>703.0</ele><time>2026-04-03T08:07:17Z</time></trkpt><trkpt lat="44.40376909180299" lon="8.11248062429765"><ele>703.0</ele><time>2026-04-03T08:07:18Z</time></trkpt><trkpt lat="44.40369178870184" lon="8.112603975143548"><ele>702.5</ele><time>2026-04-03T08:07:19Z</time></trkpt><trkpt lat="44.40362699143698" lon="8.112744309881942"><ele>702.0</ele><time>2026-04-03T08:07:20Z</time></trkpt><trkpt lat="44.403569388804826" lon="8.11291054571138"><ele>701.5</ele><time>2026-04-03T08:07:21Z</time></trkpt><trkpt lat="44.40352197234618" lon="8.113110266827459"><ele>701.0</ele><time>2026-04-03T08:07:22Z</time></trkpt><trkpt lat="44.40348137194535" lon="8.113332516075733"><ele>701.0</ele><time>2026-04-03T08:07:23Z</time></trkpt><trkpt lat="44.40344762042446" lon="8.113566743781114"><ele>701.0</ele><time>2026-04-03T08:07:24Z</time></trkpt><trkpt lat="44.40341306328461" lon="8.113829932803041"><ele>701.0</ele><time>2026-04-03T08:07:25Z</time></trkpt><trkpt lat="44.40338363483206" lon="8.11408040799419"><ele>700.3333333333333</ele><time>2026-04-03T08:07:26Z</time></trkpt><trkpt lat="44.403362908945354" lon="8.114307610731275"><ele>699.6666666666666</ele><time>2026-04-03T08:07:27Z</time></trkpt><trkpt lat="44.40334323318499" lon="8.114524286926853"><ele>699.0</ele><time>2026-04-03T08:07:28Z</time></trkpt><trkpt lat="44.40332773153108" lon="8.114716449173637"><ele>699.0</ele><time>2026-04-03T08:07:29Z</time></trkpt><trkpt lat="44.40330485248276" lon="8.114873772420193"><ele>699.0</ele><time>2026-04-03T08:07:30Z</time></trkpt><trkpt lat="44.40326906498285" lon="8.115055645968894"><ele>699.0</ele><time>2026-04-03T08:07:31Z</time></trkpt><trkpt lat="44.40319667082223" lon="8.115248007065686"><ele>699.0</ele><time>2026-04-03T08:07:32Z</time></trkpt><trkpt lat="44.40309940416827" lon="8.115426769336246"><ele>698.3333333333334</ele><time>2026-04-03T08:07:33Z</time></trkpt><trkpt lat="44.402966087464634" lon="8.115558797927951"><ele>697.6666666666667</ele><time>2026-04-03T08:07:34Z</time></trkpt><trkpt lat="44.40283920925271" lon="8.11570106734098"><ele>697.0</ele><time>2026-04-03T08:07:35Z</time></trkpt><trkpt lat="44.40273323218366" lon="8.115851487248344"><ele>697.0</ele><time>2026-04-03T08:07:36Z</time></trkpt><trkpt lat="44.402637690775094" lon="8.115979441919887"><ele>697.0</ele><time>2026-04-03T08:07:37Z</time></trkpt><trkpt lat="44.402542527065584" lon="8.116137030649524"><ele>697.0</ele><time>2026-04-03T08:07:38Z</time></trkpt><trkpt lat="44.40245438313945" lon="8.116335069557724"><ele>697.0</ele><time>2026-04-03T08:07:39Z</time></trkpt><trkpt lat="44.402371832408036" lon="8.116504855686912"><ele>697.5</ele><time>2026-04-03T08:07:40Z</time></trkpt><trkpt lat="44.40227501388266" lon="8.116668897526305"><ele>698.0</ele><time>2026-04-03T08:07:40.999Z</time></trkpt><trkpt lat="44.40217081328716" lon="8.116803565204897"><ele>698.5</ele><time>2026-04-03T08:07:41.999Z</time></trkpt><trkpt lat="44.40207053877687" lon="8.11692071284426"><ele>699.0</ele><time>2026-04-03T08:07:42.999Z</time></trkpt><trkpt lat="44.40197567911447" lon="8.11702999744266"><ele>698.2</ele><time>2026-04-03T08:07:43.999Z</time></trkpt><trkpt lat="44.40189416112772" lon="8.117134242556304"><ele>697.4000000000001</ele><time>2026-04-03T08:07:44.999Z</time></trkpt><trkpt lat="44.40181461196186" lon="8.117213948323608"><ele>696.6</ele><time>2026-04-03T08:07:45.999Z</time></trkpt><trkpt lat="44.40173695612931" lon="8.117282679549229"><ele>695.8</ele><time>2026-04-03T08:07:46.999Z</time></trkpt><trkpt lat="44.40165779367097" lon="8.117329062540863"><ele>695.0</ele><time>2026-04-03T08:07:47.999Z</time></trkpt><trkpt lat="44.40157931295212" lon="8.117356917968205"><ele>695.0</ele><time>2026-04-03T08:07:48.999Z</time></trkpt><trkpt lat="44.40149479986428" lon="8.117393275697502"><ele>695.0</ele><time>2026-04-03T08:07:49.999Z</time></trkpt><trkpt lat="44.40140738614539" lon="8.117437515424289"><ele>695.0</ele><time>2026-04-03T08:07:50.999Z</time></trkpt><trkpt lat="44.40134038017371" lon="8.11757901614674"><ele>695.0</ele><time>2026-04-03T08:07:51.999Z</time></trkpt><trkpt lat="44.40126196820822" lon="8.117697668898144"><ele>695.0</ele><time>2026-04-03T08:07:52.999Z</time></trkpt><trkpt lat="44.401152882281956" lon="8.117799258222302"><ele>696.5</ele><time>2026-04-03T08:07:53.999Z</time></trkpt><trkpt lat="44.401031001160526" lon="8.117911127488041"><ele>698.0</ele><time>2026-04-03T08:07:54.999Z</time></trkpt><trkpt lat="44.40091693924942" lon="8.11802694710574"><ele>699.5</ele><time>2026-04-03T08:07:55.999Z</time></trkpt><trkpt lat="44.40081015519158" lon="8.118156767999958"><ele>701.0</ele><time>2026-04-03T08:07:56.999Z</time></trkpt><trkpt lat="44.4007115951532" lon="8.118293582724947"><ele>701.0</ele><time>2026-04-03T08:07:57.999Z</time></trkpt><trkpt lat="44.400628686245575" lon="8.118437024902896"><ele>701.0</ele><time>2026-04-03T08:07:58.999Z</time></trkpt><trkpt lat="44.4005375882739" lon="8.118597987815868"><ele>701.0</ele><time>2026-04-03T08:07:59.999Z</time></trkpt><trkpt lat="44.40045464959731" lon="8.118786973617427"><ele>701.0</ele><time>2026-04-03T08:08:00.999Z</time></trkpt><trkpt lat="44.4003819135492" lon="8.11899627600896"><ele>706.0</ele><time>2026-04-03T08:08:01.999Z</time></trkpt><trkpt lat="44.40031630875023" lon="8.119218566406234"><ele>711.0</ele><time>2026-04-03T08:08:02.999Z</time></trkpt><trkpt lat="44.400256851077046" lon="8.119477644590079"><ele>716.0</ele><time>2026-04-03T08:08:03.999Z</time></trkpt><trkpt lat="44.40020105618748" lon="8.119740218824079"><ele>715.0</ele><time>2026-04-03T08:08:04.999Z</time></trkpt><trkpt lat="44.4001524180355" lon="8.119958694084046"><ele>714.0</ele><time>2026-04-03T08:08:05.999Z</time></trkpt><trkpt lat="44.400110203069445" lon="8.12016206919969"><ele>713.0</ele><time>2026-04-03T08:08:06.999Z</time></trkpt><trkpt lat="44.400079643517344" lon="8.120340970782815"><ele>712.0</ele><time>2026-04-03T08:08:07.999Z</time></trkpt><trkpt lat="44.40002938128126" lon="8.120545005199846"><ele>712.0</ele><time>2026-04-03T08:08:08.999Z</time></trkpt><trkpt lat="44.399976653555036" lon="8.120709418961026"><ele>712.0</ele><time>2026-04-03T08:08:09.999Z</time></trkpt><trkpt lat="44.39989574881799" lon="8.120888443509415"><ele>712.0</ele><time>2026-04-03T08:08:10.999Z</time></trkpt><trkpt lat="44.399792050513526" lon="8.121038232401345"><ele>712.0</ele><time>2026-04-03T08:08:11.999Z</time></trkpt><trkpt lat="44.39966539895958" lon="8.121193262114033"><ele>712.0</ele><time>2026-04-03T08:08:12.999Z</time></trkpt><trkpt lat="44.39954611812615" lon="8.121359728683744"><ele>712.0</ele><time>2026-04-03T08:08:13.999Z</time></trkpt><trkpt lat="44.39944730247758" lon="8.121501083134108"><ele>712.0</ele><time>2026-04-03T08:08:14.999Z</time></trkpt><trkpt lat="44.39934659171261" lon="8.121644254666974"><ele>711.0</ele><time>2026-04-03T08:08:15.999Z</time></trkpt><trkpt lat="44.399234751565494" lon="8.121786836556172"><ele>710.0</ele><time>2026-04-03T08:08:16.999Z</time></trkpt><trkpt lat="44.39912606310783" lon="8.121897398157488"><ele>709.0</ele><time>2026-04-03T08:08:17.999Z</time></trkpt><trkpt lat="44.39901300406809" lon="8.121998006933646"><ele>708.0</ele><time>2026-04-03T08:08:18.999Z</time></trkpt><trkpt lat="44.39888216682351" lon="8.122109620077731"><ele>706.0</ele><time>2026-04-03T08:08:19.999Z</time></trkpt><trkpt lat="44.39875197464744" lon="8.122232632570057"><ele>704.0</ele><time>2026-04-03T08:08:20.999Z</time></trkpt><trkpt lat="44.39863545328698" lon="8.122337255607807"><ele>702.0</ele><time>2026-04-03T08:08:21.999Z</time></trkpt><trkpt lat="44.39852309133955" lon="8.122436933643149"><ele>700.0</ele><time>2026-04-03T08:08:22.999Z</time></trkpt><trkpt lat="44.398404433184076" lon="8.122538605233334"><ele>700.0</ele><time>2026-04-03T08:08:23.999Z</time></trkpt><trkpt lat="44.39829265634724" lon="8.122642398615618"><ele>700.0</ele><time>2026-04-03T08:08:24.999Z</time></trkpt><trkpt lat="44.39819319309701" lon="8.122742872455117"><ele>700.0</ele><time>2026-04-03T08:08:25.999Z</time></trkpt><trkpt lat="44.39811321421277" lon="8.12281690161502"><ele>700.0</ele><time>2026-04-03T08:08:26.999Z</time></trkpt><trkpt lat="44.39803440096549" lon="8.12290001483674"><ele>698.2</ele><time>2026-04-03T08:08:27.999Z</time></trkpt><trkpt lat="44.39795452024221" lon="8.122971539102416"><ele>696.4</ele><time>2026-04-03T08:08:28.999Z</time></trkpt><trkpt lat="44.397884806795204" lon="8.123049430221847"><ele>694.5999999999999</ele><time>2026-04-03T08:08:29.999Z</time></trkpt><trkpt lat="44.397820494741815" lon="8.12314419780763"><ele>692.8</ele><time>2026-04-03T08:08:30.999Z</time></trkpt><trkpt lat="44.39776665501643" lon="8.123262173447776"><ele>691.0</ele><time>2026-04-03T08:08:31.999Z</time></trkpt><trkpt lat="44.39771848498449" lon="8.123384121632355"><ele>691.0</ele><time>2026-04-03T08:08:32.999Z</time></trkpt><trkpt lat="44.39769092849666" lon="8.123536032328744"><ele>691.0</ele><time>2026-04-03T08:08:33.999Z</time></trkpt><trkpt lat="44.39768030972015" lon="8.123698595325557"><ele>691.0</ele><time>2026-04-03T08:08:34.999Z</time></trkpt><trkpt lat="44.397688987044766" lon="8.123843907879937"><ele>691.0</ele><time>2026-04-03T08:08:35.999Z</time></trkpt><trkpt lat="44.39769427537398" lon="8.123983233287824"><ele>691.0</ele><time>2026-04-03T08:08:36.998Z</time></trkpt><trkpt lat="44.39768975171801" lon="8.124123201420874"><ele>690.4</ele><time>2026-04-03T08:08:37.998Z</time></trkpt><trkpt lat="44.397675688398664" lon="8.124259222693373"><ele>689.8</ele><time>2026-04-03T08:08:38.998Z</time></trkpt><trkpt lat="44.39764923314171" lon="8.12438668147374"><ele>689.1999999999999</ele><time>2026-04-03T08:08:39.998Z</time></trkpt><trkpt lat="44.39759935021354" lon="8.124513808387597"><ele>688.5999999999999</ele><time>2026-04-03T08:08:40.998Z</time></trkpt><trkpt lat="44.39752102405609" lon="8.124654563230848"><ele>688.0</ele><time>2026-04-03T08:08:41.998Z</time></trkpt><trkpt lat="44.39741254126015" lon="8.124792091972113"><ele>688.0</ele><time>2026-04-03T08:08:42.998Z</time></trkpt><trkpt lat="44.39728302878669" lon="8.124888217222642"><ele>688.0</ele><time>2026-04-03T08:08:43.998Z</time></trkpt><trkpt lat="44.39715931825885" lon="8.125015895227483"><ele>688.0</ele><time>2026-04-03T08:08:44.998Z</time></trkpt><trkpt lat="44.397010926339526" lon="8.125115251751733"><ele>686.5</ele><time>2026-04-03T08:08:45.998Z</time></trkpt><trkpt lat="44.39688239745604" lon="8.125220719973273"><ele>685.0</ele><time>2026-04-03T08:08:46.998Z</time></trkpt><trkpt lat="44.39676417642427" lon="8.12532296752236"><ele>683.5</ele><time>2026-04-03T08:08:47.998Z</time></trkpt><trkpt lat="44.39666345729655" lon="8.125416282210242"><ele>682.0</ele><time>2026-04-03T08:08:48.998Z</time></trkpt><trkpt lat="44.39657070060756" lon="8.12552877822573"><ele>682.0</ele><time>2026-04-03T08:08:49.998Z</time></trkpt><trkpt lat="44.39649128959658" lon="8.125659995081119"><ele>682.0</ele><time>2026-04-03T08:08:50.998Z</time></trkpt><trkpt lat="44.39642677592516" lon="8.125808564821149"><ele>682.0</ele><time>2026-04-03T08:08:51.998Z</time></trkpt><trkpt lat="44.39637035799118" lon="8.125976600047318"><ele>682.0</ele><time>2026-04-03T08:08:52.998Z</time></trkpt><trkpt lat="44.39632976798308" lon="8.12616473267487"><ele>681.75</ele><time>2026-04-03T08:08:53.998Z</time></trkpt><trkpt lat="44.39629902113343" lon="8.126376900226948"><ele>681.5</ele><time>2026-04-03T08:08:54.998Z</time></trkpt><trkpt lat="44.39627273418089" lon="8.126565180198146"><ele>681.25</ele><time>2026-04-03T08:08:55.998Z</time></trkpt><trkpt lat="44.396246216917795" lon="8.126755164470575"><ele>681.0</ele><time>2026-04-03T08:08:56.998Z</time></trkpt><trkpt lat="44.396218170824206" lon="8.126917407546712"><ele>681.0</ele><time>2026-04-03T08:08:57.998Z</time></trkpt><trkpt lat="44.39618269055069" lon="8.127077340713297"><ele>681.0</ele><time>2026-04-03T08:08:58.998Z</time></trkpt><trkpt lat="44.396138974043375" lon="8.127229975520422"><ele>681.0</ele><time>2026-04-03T08:08:59.998Z</time></trkpt><trkpt lat="44.396079013221424" lon="8.127391193606977"><ele>681.0</ele><time>2026-04-03T08:09:00.998Z</time></trkpt><trkpt lat="44.396001375198026" lon="8.12755289020712"><ele>680.25</ele><time>2026-04-03T08:09:01.998Z</time></trkpt><trkpt lat="44.3959177691925" lon="8.127702180724494"><ele>679.5</ele><time>2026-04-03T08:09:02.998Z</time></trkpt><trkpt lat="44.3958211221998" lon="8.12784208346914"><ele>678.75</ele><time>2026-04-03T08:09:03.998Z</time></trkpt><trkpt lat="44.39572099864313" lon="8.127963104584408"><ele>678.0</ele><time>2026-04-03T08:09:04.998Z</time></trkpt><trkpt lat="44.39560562777934" lon="8.128085313669855"><ele>674.3333333333334</ele><time>2026-04-03T08:09:05.998Z</time></trkpt><trkpt lat="44.39546365629197" lon="8.128201309062925"><ele>670.6666666666667</ele><time>2026-04-03T08:09:07Z</time></trkpt><trkpt lat="44.39531246083848" lon="8.128307166084138"><ele>667.0</ele><time>2026-04-03T08:09:08Z</time></trkpt><trkpt lat="44.39514576878034" lon="8.1284086577797"><ele>667.0</ele><time>2026-04-03T08:09:09Z</time></trkpt><trkpt lat="44.394969285670854" lon="8.128506719819288"><ele>667.0</ele><time>2026-04-03T08:09:10Z</time></trkpt><trkpt lat="44.394802733536736" lon="8.128591170396707"><ele>667.0</ele><time>2026-04-03T08:09:11Z</time></trkpt><trkpt lat="44.394643968780244" lon="8.128650373088192"><ele>668.0</ele><time>2026-04-03T08:09:12Z</time></trkpt><trkpt lat="44.39447101926022" lon="8.128674633312775"><ele>669.0</ele><time>2026-04-03T08:09:13Z</time></trkpt><trkpt lat="44.39430354565123" lon="8.128692372348192"><ele>670.0</ele><time>2026-04-03T08:09:14Z</time></trkpt><trkpt lat="44.394167732640526" lon="8.128714321488912"><ele>670.0</ele><time>2026-04-03T08:09:15Z</time></trkpt><trkpt lat="44.39404715738824" lon="8.128740417676564"><ele>670.0</ele><time>2026-04-03T08:09:16Z</time></trkpt><trkpt lat="44.393925351736705" lon="8.128776101344263"><ele>670.0</ele><time>2026-04-03T08:09:17Z</time></trkpt><trkpt lat="44.39379565337385" lon="8.128849178665366"><ele>670.0</ele><time>2026-04-03T08:09:18Z</time></trkpt><trkpt lat="44.393667831908196" lon="8.128952788956235"><ele>672.0</ele><time>2026-04-03T08:09:19Z</time></trkpt><trkpt lat="44.393531676139155" lon="8.129063270342106"><ele>674.0</ele><time>2026-04-03T08:09:20Z</time></trkpt><trkpt lat="44.393397403824515" lon="8.129195679685537"><ele>676.0</ele><time>2026-04-03T08:09:21Z</time></trkpt><trkpt lat="44.39327062202213" lon="8.129353923679467"><ele>676.0</ele><time>2026-04-03T08:09:22Z</time></trkpt><trkpt lat="44.39315633526076" lon="8.129537757806157"><ele>676.0</ele><time>2026-04-03T08:09:23Z</time></trkpt><trkpt lat="44.39304666044036" lon="8.12969888876872"><ele>676.0</ele><time>2026-04-03T08:09:24Z</time></trkpt><trkpt lat="44.39293973573291" lon="8.12982828781055"><ele>679.3333333333334</ele><time>2026-04-03T08:09:25Z</time></trkpt><trkpt lat="44.39280548316392" lon="8.129952168918972"><ele>682.6666666666666</ele><time>2026-04-03T08:09:26Z</time></trkpt><trkpt lat="44.392667556446696" lon="8.130075305641306"><ele>686.0</ele><time>2026-04-03T08:09:27Z</time></trkpt><trkpt lat="44.392523574948534" lon="8.130181145017973"><ele>686.0</ele><time>2026-04-03T08:09:28Z</time></trkpt><trkpt lat="44.392397051668226" lon="8.130276056713676"><ele>686.0</ele><time>2026-04-03T08:09:29Z</time></trkpt><trkpt lat="44.39228563926501" lon="8.13035301880255"><ele>686.0</ele><time>2026-04-03T08:09:30Z</time></trkpt><trkpt lat="44.39216757451679" lon="8.130402222459889"><ele>686.0</ele><time>2026-04-03T08:09:31Z</time></trkpt><trkpt lat="44.392037992814295" lon="8.130419386004275"><ele>687.75</ele><time>2026-04-03T08:09:32Z</time></trkpt><trkpt lat="44.391912921334466" lon="8.130412342422167"><ele>689.5</ele><time>2026-04-03T08:09:33Z</time></trkpt><trkpt lat="44.39178654572763" lon="8.130379165399006"><ele>691.25</ele><time>2026-04-03T08:09:34Z</time></trkpt><trkpt lat="44.391655560145935" lon="8.130323246121133"><ele>693.0</ele><time>2026-04-03T08:09:35Z</time></trkpt><trkpt lat="44.39152230999211" lon="8.130228099522338"><ele>693.0</ele><time>2026-04-03T08:09:36Z</time></trkpt><trkpt lat="44.391420892195754" lon="8.130137335713076"><ele>693.0</ele><time>2026-04-03T08:09:37Z</time></trkpt><trkpt lat="44.39132109827833" lon="8.130090616590728"><ele>693.0</ele><time>2026-04-03T08:09:38Z</time></trkpt><trkpt lat="44.391236430537134" lon="8.130036017048154"><ele>693.0</ele><time>2026-04-03T08:09:39Z</time></trkpt><trkpt lat="44.391156648708396" lon="8.129999034025793"><ele>693.0</ele><time>2026-04-03T08:09:40Z</time></trkpt><trkpt lat="44.391064836955934" lon="8.129999607261073"><ele>693.8</ele><time>2026-04-03T08:09:41Z</time></trkpt><trkpt lat="44.39095885913304" lon="8.130032759259832"><ele>694.5999999999999</ele><time>2026-04-03T08:09:42Z</time></trkpt><trkpt lat="44.390864064185656" lon="8.130089423953454"><ele>695.4000000000001</ele><time>2026-04-03T08:09:43Z</time></trkpt><trkpt lat="44.39077994285909" lon="8.130163887771856"><ele>696.2</ele><time>2026-04-03T08:09:44Z</time></trkpt><trkpt lat="44.3907055665801" lon="8.1302630141008"><ele>697.0</ele><time>2026-04-03T08:09:45Z</time></trkpt><trkpt lat="44.390643105508914" lon="8.130407035795848"><ele>697.0</ele><time>2026-04-03T08:09:46Z</time></trkpt><trkpt lat="44.39058097628275" lon="8.130588221295547"><ele>697.0</ele><time>2026-04-03T08:09:47Z</time></trkpt><trkpt lat="44.390497400542394" lon="8.130751672925348"><ele>697.0</ele><time>2026-04-03T08:09:48Z</time></trkpt><trkpt lat="44.39039805270904" lon="8.13088119562126"><ele>697.0</ele><time>2026-04-03T08:09:48.999Z</time></trkpt><trkpt lat="44.390288906521505" lon="8.131014875463572"><ele>698.3333333333334</ele><time>2026-04-03T08:09:49.999Z</time></trkpt><trkpt lat="44.390158260076696" lon="8.131152843364992"><ele>699.6666666666666</ele><time>2026-04-03T08:09:50.999Z</time></trkpt><trkpt lat="44.39003233597452" lon="8.131290669960888"><ele>701.0</ele><time>2026-04-03T08:09:51.999Z</time></trkpt><trkpt lat="44.38989440169741" lon="8.131421366354607"><ele>701.0</ele><time>2026-04-03T08:09:52.999Z</time></trkpt><trkpt lat="44.389756923150955" lon="8.131548991425554"><ele>701.0</ele><time>2026-04-03T08:09:53.999Z</time></trkpt><trkpt lat="44.38961510435722" lon="8.131625552215842"><ele>701.0</ele><time>2026-04-03T08:09:54.999Z</time></trkpt><trkpt lat="44.38946435919899" lon="8.131705691838214"><ele>703.3333333333333</ele><time>2026-04-03T08:09:55.999Z</time></trkpt><trkpt lat="44.38930654518209" lon="8.131806853757269"><ele>705.6666666666666</ele><time>2026-04-03T08:09:56.999Z</time></trkpt><trkpt lat="44.389124816403616" lon="8.13188687633542"><ele>708.0</ele><time>2026-04-03T08:09:57.999Z</time></trkpt><trkpt lat="44.388958851528315" lon="8.131975520263849"><ele>710.25</ele><time>2026-04-03T08:09:58.999Z</time></trkpt><trkpt lat="44.38881388064821" lon="8.13204492356295"><ele>712.5</ele><time>2026-04-03T08:09:59.999Z</time></trkpt><trkpt lat="44.388676777559844" lon="8.132123298445567"><ele>714.75</ele><time>2026-04-03T08:10:00.999Z</time></trkpt><trkpt lat="44.38855263389793" lon="8.132186933858451"><ele>717.0</ele><time>2026-04-03T08:10:01.999Z</time></trkpt><trkpt lat="44.38842665982773" lon="8.132216469481826"><ele>717.0</ele><time>2026-04-03T08:10:02.999Z</time></trkpt><trkpt lat="44.38828828604144" lon="8.13221390199468"><ele>717.0</ele><time>2026-04-03T08:10:03.999Z</time></trkpt><trkpt lat="44.38815969121327" lon="8.13215162963919"><ele>717.0</ele><time>2026-04-03T08:10:04.999Z</time></trkpt><trkpt lat="44.38801912512013" lon="8.132089694985222"><ele>717.0</ele><time>2026-04-03T08:10:05.999Z</time></trkpt><trkpt lat="44.387875464524626" lon="8.132045770445695"><ele>718.0</ele><time>2026-04-03T08:10:06.999Z</time></trkpt><trkpt lat="44.387729811844196" lon="8.131981425465945"><ele>719.0</ele><time>2026-04-03T08:10:07.999Z</time></trkpt><trkpt lat="44.38757894920177" lon="8.131920146823171"><ele>720.0</ele><time>2026-04-03T08:10:08.999Z</time></trkpt><trkpt lat="44.387419913167236" lon="8.13187530394942"><ele>720.0</ele><time>2026-04-03T08:10:09.999Z</time></trkpt><trkpt lat="44.387253201104336" lon="8.131849199620568"><ele>720.0</ele><time>2026-04-03T08:10:10.999Z</time></trkpt><trkpt lat="44.38709023225286" lon="8.131817100975914"><ele>720.0</ele><time>2026-04-03T08:10:11.999Z</time></trkpt><trkpt lat="44.3869496045921" lon="8.13178060056679"><ele>719.25</ele><time>2026-04-03T08:10:12.999Z</time></trkpt><trkpt lat="44.38682221495223" lon="8.131732945618337"><ele>718.5</ele><time>2026-04-03T08:10:13.999Z</time></trkpt><trkpt lat="44.38670703788438" lon="8.131676599932897"><ele>717.75</ele><time>2026-04-03T08:10:14.999Z</time></trkpt><trkpt lat="44.386598730244714" lon="8.13160800311995"><ele>717.0</ele><time>2026-04-03T08:10:15.999Z</time></trkpt><trkpt lat="44.38649256767567" lon="8.131509112231798"><ele>716.75</ele><time>2026-04-03T08:10:16.999Z</time></trkpt><trkpt lat="44.3863980666887" lon="8.131416470201952"><ele>716.5</ele><time>2026-04-03T08:10:17.999Z</time></trkpt><trkpt lat="44.38629322922381" lon="8.131347636653885"><ele>716.25</ele><time>2026-04-03T08:10:18.999Z</time></trkpt><trkpt lat="44.38618486044781" lon="8.13128127182929"><ele>716.0</ele><time>2026-04-03T08:10:19.999Z</time></trkpt><trkpt lat="44.38606673333242" lon="8.131263164725505"><ele>717.0</ele><time>2026-04-03T08:10:20.999Z</time></trkpt><trkpt lat="44.38596477246228" lon="8.131242020584867"><ele>718.0</ele><time>2026-04-03T08:10:21.999Z</time></trkpt><trkpt lat="44.38586984051743" lon="8.131243836849425"><ele>719.0</ele><time>2026-04-03T08:10:22.999Z</time></trkpt><trkpt lat="44.385761763787514" lon="8.131256658544526"><ele>720.0</ele><time>2026-04-03T08:10:23.999Z</time></trkpt><trkpt lat="44.385658767338995" lon="8.131272369087663"><ele>721.0</ele><time>2026-04-03T08:10:24.999Z</time></trkpt><trkpt lat="44.385549629258335" lon="8.131279837420983"><ele>723.5</ele><time>2026-04-03T08:10:25.999Z</time></trkpt><trkpt lat="44.385439533989995" lon="8.131283283629353"><ele>726.0</ele><time>2026-04-03T08:10:26.999Z</time></trkpt><trkpt lat="44.38532443174839" lon="8.131295699997255"><ele>728.5</ele><time>2026-04-03T08:10:27.999Z</time></trkpt><trkpt lat="44.38520976900306" lon="8.13128863317697"><ele>731.0</ele><time>2026-04-03T08:10:28.999Z</time></trkpt><trkpt lat="44.385090816365576" lon="8.131326433027745"><ele>731.0</ele><time>2026-04-03T08:10:29.999Z</time></trkpt><trkpt lat="44.38498411883349" lon="8.131343325032729"><ele>731.0</ele><time>2026-04-03T08:10:30.999Z</time></trkpt><trkpt lat="44.38488137836337" lon="8.131355245480648"><ele>731.0</ele><time>2026-04-03T08:10:31.999Z</time></trkpt><trkpt lat="44.384772298269034" lon="8.13137746265543"><ele>731.0</ele><time>2026-04-03T08:10:32.999Z</time></trkpt><trkpt lat="44.38466041781438" lon="8.131397641221655"><ele>731.0</ele><time>2026-04-03T08:10:33.999Z</time></trkpt><trkpt lat="44.38455248558784" lon="8.131425517519357"><ele>732.0</ele><time>2026-04-03T08:10:34.999Z</time></trkpt><trkpt lat="44.3844454151399" lon="8.131450436107903"><ele>733.0</ele><time>2026-04-03T08:10:35.999Z</time></trkpt><trkpt lat="44.384348224676245" lon="8.131472216673247"><ele>734.0</ele><time>2026-04-03T08:10:36.999Z</time></trkpt><trkpt lat="44.384261111987726" lon="8.131489732447346"><ele>735.0</ele><time>2026-04-03T08:10:37.999Z</time></trkpt><trkpt lat="44.384175201120314" lon="8.13151883665217"><ele>736.0</ele><time>2026-04-03T08:10:38.999Z</time></trkpt><trkpt lat="44.38407253340512" lon="8.131549817879131"><ele>734.25</ele><time>2026-04-03T08:10:39.999Z</time></trkpt><trkpt lat="44.38395659566001" lon="8.13159436085109"><ele>732.5</ele><time>2026-04-03T08:10:40.999Z</time></trkpt><trkpt lat="44.38383859264068" lon="8.131606409846542"><ele>730.75</ele><time>2026-04-03T08:10:41.999Z</time></trkpt><trkpt lat="44.38373360708046" lon="8.13166663469849"><ele>729.0</ele><time>2026-04-03T08:10:42.999Z</time></trkpt><trkpt lat="44.38363927392278" lon="8.131731592809038"><ele>729.0</ele><time>2026-04-03T08:10:43.999Z</time></trkpt><trkpt lat="44.3835414682683" lon="8.131782981531353"><ele>729.0</ele><time>2026-04-03T08:10:44.999Z</time></trkpt><trkpt lat="44.38343475986657" lon="8.131821431158937"><ele>729.0</ele><time>2026-04-03T08:10:45.998Z</time></trkpt><trkpt lat="44.38333526557141" lon="8.131852420509556"><ele>729.0</ele><time>2026-04-03T08:10:46.998Z</time></trkpt><trkpt lat="44.383243629309675" lon="8.131886480907607"><ele>729.0</ele><time>2026-04-03T08:10:47.998Z</time></trkpt><trkpt lat="44.383149298672826" lon="8.131925009796317"><ele>729.0</ele><time>2026-04-03T08:10:48.998Z</time></trkpt><trkpt lat="44.383046548275885" lon="8.131988230137317"><ele>729.0</ele><time>2026-04-03T08:10:49.998Z</time></trkpt><trkpt lat="44.382950793201985" lon="8.13207662868573"><ele>729.0</ele><time>2026-04-03T08:10:50.998Z</time></trkpt><trkpt lat="44.382859875854415" lon="8.132167623895585"><ele>729.0</ele><time>2026-04-03T08:10:51.998Z</time></trkpt><trkpt lat="44.38277396800674" lon="8.132251257608662"><ele>729.0</ele><time>2026-04-03T08:10:52.998Z</time></trkpt><trkpt lat="44.3826901493359" lon="8.132331821541332"><ele>729.0</ele><time>2026-04-03T08:10:53.998Z</time></trkpt><trkpt lat="44.38260559457988" lon="8.132429370979484"><ele>729.0</ele><time>2026-04-03T08:10:54.998Z</time></trkpt><trkpt lat="44.382515852986266" lon="8.132542690201397"><ele>729.0</ele><time>2026-04-03T08:10:55.998Z</time></trkpt><trkpt lat="44.38243373559066" lon="8.13267393120379"><ele>729.0</ele><time>2026-04-03T08:10:56.998Z</time></trkpt><trkpt lat="44.38236964638692" lon="8.132822331991196"><ele>729.0</ele><time>2026-04-03T08:10:57.998Z</time></trkpt><trkpt lat="44.38229921663748" lon="8.132956297202218"><ele>729.0</ele><time>2026-04-03T08:10:58.998Z</time></trkpt><trkpt lat="44.382225169026626" lon="8.133079797659818"><ele>729.0</ele><time>2026-04-03T08:10:59.998Z</time></trkpt><trkpt lat="44.38214458963958" lon="8.133190894990122"><ele>729.0</ele><time>2026-04-03T08:11:00.998Z</time></trkpt><trkpt lat="44.38205901028434" lon="8.133292595708056"><ele>728.0</ele><time>2026-04-03T08:11:01.998Z</time></trkpt><trkpt lat="44.38197831770156" lon="8.133404810330052"><ele>727.0</ele><time>2026-04-03T08:11:02.998Z</time></trkpt><trkpt lat="44.38190166580114" lon="8.13350945254474"><ele>726.0</ele><time>2026-04-03T08:11:03.998Z</time></trkpt><trkpt lat="44.381830948765526" lon="8.13361879903537"><ele>725.0</ele><time>2026-04-03T08:11:04.998Z</time></trkpt><trkpt lat="44.38175924048281" lon="8.133717808093554"><ele>724.0</ele><time>2026-04-03T08:11:05.998Z</time></trkpt><trkpt lat="44.38168351116631" lon="8.133821591268347"><ele>724.0</ele><time>2026-04-03T08:11:06.998Z</time></trkpt><trkpt lat="44.38160062136445" lon="8.13392376018167"><ele>724.0</ele><time>2026-04-03T08:11:07.998Z</time></trkpt><trkpt lat="44.38149832042481" lon="8.133959429774025"><ele>724.0</ele><time>2026-04-03T08:11:08.998Z</time></trkpt><trkpt lat="44.38139796524556" lon="8.134043642622935"><ele>724.0</ele><time>2026-04-03T08:11:09.998Z</time></trkpt><trkpt lat="44.38131255898328" lon="8.134128370360663"><ele>724.0</ele><time>2026-04-03T08:11:10.998Z</time></trkpt><trkpt lat="44.381227388381255" lon="8.134216484082922"><ele>723.8000000000001</ele><time>2026-04-03T08:11:11.998Z</time></trkpt><trkpt lat="44.381140980221254" lon="8.134298699048045"><ele>723.6</ele><time>2026-04-03T08:11:13Z</time></trkpt><trkpt lat="44.38105167426166" lon="8.13439039901321"><ele>723.4</ele><time>2026-04-03T08:11:14Z</time></trkpt><trkpt lat="44.38096994351052" lon="8.134489649553535"><ele>723.2</ele><time>2026-04-03T08:11:15Z</time></trkpt><trkpt lat="44.380906273170865" lon="8.134600485702071"><ele>723.0</ele><time>2026-04-03T08:11:16Z</time></trkpt><trkpt lat="44.380845923576025" lon="8.13472607545008"><ele>723.0</ele><time>2026-04-03T08:11:17Z</time></trkpt><trkpt lat="44.38079174734734" lon="8.1348626375776"><ele>723.0</ele><time>2026-04-03T08:11:18Z</time></trkpt><trkpt lat="44.3807410077184" lon="8.134990518994544"><ele>723.0</ele><time>2026-04-03T08:11:19Z</time></trkpt><trkpt lat="44.38070211666654" lon="8.135127053418648"><ele>723.0</ele><time>2026-04-03T08:11:20Z</time></trkpt><trkpt lat="44.380670330636285" lon="8.135259780354717"><ele>723.0</ele><time>2026-04-03T08:11:21Z</time></trkpt><trkpt lat="44.380648577417034" lon="8.135412143355726"><ele>725.5</ele><time>2026-04-03T08:11:22Z</time></trkpt><trkpt lat="44.380654800757355" lon="8.135554455852418"><ele>728.0</ele><time>2026-04-03T08:11:23Z</time></trkpt><trkpt lat="44.38064982465595" lon="8.135700532643042"><ele>730.5</ele><time>2026-04-03T08:11:24Z</time></trkpt><trkpt lat="44.3806056099955" lon="8.135868946910806"><ele>733.0</ele><time>2026-04-03T08:11:25Z</time></trkpt><trkpt lat="44.3805936823998" lon="8.136031819582229"><ele>734.5999999999999</ele><time>2026-04-03T08:11:26Z</time></trkpt><trkpt lat="44.38058085755903" lon="8.13617196817331"><ele>736.1999999999999</ele><time>2026-04-03T08:11:27Z</time></trkpt><trkpt lat="44.38056760589898" lon="8.136321299057531"><ele>737.8</ele><time>2026-04-03T08:11:28Z</time></trkpt><trkpt lat="44.38054921823871" lon="8.136468933659206"><ele>739.4</ele><time>2026-04-03T08:11:29Z</time></trkpt><trkpt lat="44.38052208898318" lon="8.1366102759352"><ele>741.0</ele><time>2026-04-03T08:11:30Z</time></trkpt><trkpt lat="44.38047579371982" lon="8.13674886547903"><ele>739.1999999999999</ele><time>2026-04-03T08:11:31Z</time></trkpt><trkpt lat="44.38042505560556" lon="8.136883189947769"><ele>737.4</ele><time>2026-04-03T08:11:32Z</time></trkpt><trkpt lat="44.3803694793086" lon="8.137012109438018"><ele>735.6</ele><time>2026-04-03T08:11:33Z</time></trkpt><trkpt lat="44.38031456015629" lon="8.13714013543384"><ele>733.8</ele><time>2026-04-03T08:11:34Z</time></trkpt><trkpt lat="44.38026803318851" lon="8.137272710147597"><ele>732.0</ele><time>2026-04-03T08:11:35Z</time></trkpt><trkpt lat="44.38022896705031" lon="8.137425046505674"><ele>732.0</ele><time>2026-04-03T08:11:36Z</time></trkpt><trkpt lat="44.380193682181364" lon="8.137561622312745"><ele>732.0</ele><time>2026-04-03T08:11:37Z</time></trkpt><trkpt lat="44.38015218732044" lon="8.137701363082614"><ele>732.0</ele><time>2026-04-03T08:11:38Z</time></trkpt><trkpt lat="44.38010991320061" lon="8.137840424576794"><ele>732.0</ele><time>2026-04-03T08:11:39Z</time></trkpt><trkpt lat="44.380065914571" lon="8.137968129688906"><ele>732.0</ele><time>2026-04-03T08:11:40Z</time></trkpt><trkpt lat="44.38000780313608" lon="8.138091371853566"><ele>732.0</ele><time>2026-04-03T08:11:41Z</time></trkpt><trkpt lat="44.37993152863032" lon="8.138202497189663"><ele>732.0</ele><time>2026-04-03T08:11:42Z</time></trkpt><trkpt lat="44.37984253052886" lon="8.1383002568212"><ele>732.0</ele><time>2026-04-03T08:11:43Z</time></trkpt><trkpt lat="44.379747221513995" lon="8.13838186602899"><ele>732.0</ele><time>2026-04-03T08:11:44Z</time></trkpt><trkpt lat="44.37964057649914" lon="8.13845174055257"><ele>731.6</ele><time>2026-04-03T08:11:45Z</time></trkpt><trkpt lat="44.37953626074249" lon="8.138508767130105"><ele>731.2</ele><time>2026-04-03T08:11:46Z</time></trkpt><trkpt lat="44.37943807878256" lon="8.138550620786427"><ele>730.8</ele><time>2026-04-03T08:11:47Z</time></trkpt><trkpt lat="44.379340350095696" lon="8.138589342467967"><ele>730.4</ele><time>2026-04-03T08:11:48Z</time></trkpt><trkpt lat="44.37924593399282" lon="8.13863386567966"><ele>730.0</ele><time>2026-04-03T08:11:49Z</time></trkpt><trkpt lat="44.379154545224395" lon="8.138699061797048"><ele>730.0</ele><time>2026-04-03T08:11:50Z</time></trkpt><trkpt lat="44.379069189471224" lon="8.138797692954352"><ele>730.0</ele><time>2026-04-03T08:11:51Z</time></trkpt><trkpt lat="44.37899546535031" lon="8.138908546966904"><ele>730.0</ele><time>2026-04-03T08:11:52Z</time></trkpt><trkpt lat="44.378934866754875" lon="8.139037364601101"><ele>730.0</ele><time>2026-04-03T08:11:53Z</time></trkpt><trkpt lat="44.37887549431571" lon="8.139177294034738"><ele>730.0</ele><time>2026-04-03T08:11:54Z</time></trkpt><trkpt lat="44.3788209298992" lon="8.139316649307649"><ele>730.0</ele><time>2026-04-03T08:11:54.999Z</time></trkpt><trkpt lat="44.37877601663577" lon="8.139457082959645"><ele>730.0</ele><time>2026-04-03T08:11:55.999Z</time></trkpt><trkpt lat="44.37873792106711" lon="8.139600001459755"><ele>730.0</ele><time>2026-04-03T08:11:56.999Z</time></trkpt><trkpt lat="44.37870728813024" lon="8.139755091458774"><ele>730.0</ele><time>2026-04-03T08:11:57.999Z</time></trkpt><trkpt lat="44.378685230408074" lon="8.139896786438843"><ele>730.0</ele><time>2026-04-03T08:11:58.999Z</time></trkpt><trkpt lat="44.37866841035958" lon="8.140045561776919"><ele>730.0</ele><time>2026-04-03T08:11:59.999Z</time></trkpt><trkpt lat="44.37864364780802" lon="8.140193825162433"><ele>730.0</ele><time>2026-04-03T08:12:00.999Z</time></trkpt><trkpt lat="44.37861438458082" lon="8.14034908018568"><ele>730.0</ele><time>2026-04-03T08:12:01.999Z</time></trkpt><trkpt lat="44.378583188703765" lon="8.140488982734594"><ele>730.0</ele><time>2026-04-03T08:12:02.999Z</time></trkpt><trkpt lat="44.37855156318333" lon="8.140637959334011"><ele>730.0</ele><time>2026-04-03T08:12:03.999Z</time></trkpt><trkpt lat="44.37850362065672" lon="8.14077663415485"><ele>731.8</ele><time>2026-04-03T08:12:04.999Z</time></trkpt><trkpt lat="44.378454103847695" lon="8.140906705042514"><ele>733.6</ele><time>2026-04-03T08:12:05.999Z</time></trkpt><trkpt lat="44.37838920441557" lon="8.141015795876651"><ele>735.4000000000001</ele><time>2026-04-03T08:12:06.999Z</time></trkpt><trkpt lat="44.378335909429424" lon="8.141129168290451"><ele>737.2</ele><time>2026-04-03T08:12:07.999Z</time></trkpt><trkpt lat="44.37828329647053" lon="8.14121855329206"><ele>739.0</ele><time>2026-04-03T08:12:08.999Z</time></trkpt><trkpt lat="44.37824072094104" lon="8.14129967722688"><ele>739.0</ele><time>2026-04-03T08:12:09.999Z</time></trkpt><trkpt lat="44.37814899003199" lon="8.141406588759992"><ele>739.0</ele><time>2026-04-03T08:12:11.999Z</time></trkpt><trkpt lat="44.378078069206715" lon="8.14142164959474"><ele>739.0</ele><time>2026-04-03T08:12:12.999Z</time></trkpt><trkpt lat="44.37799719274424" lon="8.141427556033936"><ele>739.0</ele><time>2026-04-03T08:12:13.999Z</time></trkpt><trkpt lat="44.37791227253393" lon="8.141441366207689"><ele>739.0</ele><time>2026-04-03T08:12:14.999Z</time></trkpt><trkpt lat="44.37781402238" lon="8.141449250535876"><ele>737.8000000000001</ele><time>2026-04-03T08:12:15.999Z</time></trkpt><trkpt lat="44.37772387966796" lon="8.141462826720955"><ele>736.6</ele><time>2026-04-03T08:12:16.999Z</time></trkpt><trkpt lat="44.377616948913136" lon="8.141478931437362"><ele>735.4</ele><time>2026-04-03T08:12:17.999Z</time></trkpt><trkpt lat="44.37750693332357" lon="8.141491560019556"><ele>734.2</ele><time>2026-04-03T08:12:18.999Z</time></trkpt><trkpt lat="44.377407830304264" lon="8.141503164530656"><ele>733.0</ele><time>2026-04-03T08:12:19.999Z</time></trkpt><trkpt lat="44.37730609770267" lon="8.14148337981925"><ele>733.0</ele><time>2026-04-03T08:12:20.999Z</time></trkpt><trkpt lat="44.377204492681884" lon="8.14143630660473"><ele>733.0</ele><time>2026-04-03T08:12:21.999Z</time></trkpt><trkpt lat="44.37708957536787" lon="8.141374399132989"><ele>733.0</ele><time>2026-04-03T08:12:22.999Z</time></trkpt><trkpt lat="44.37698344006422" lon="8.14131833684859"><ele>733.0</ele><time>2026-04-03T08:12:23.999Z</time></trkpt><trkpt lat="44.37686741039449" lon="8.14131021361029"><ele>733.2</ele><time>2026-04-03T08:12:24.999Z</time></trkpt><trkpt lat="44.376776158550165" lon="8.141248271605374"><ele>733.4</ele><time>2026-04-03T08:12:25.999Z</time></trkpt><trkpt lat="44.3766724001113" lon="8.141184956012474"><ele>733.6</ele><time>2026-04-03T08:12:26.999Z</time></trkpt><trkpt lat="44.37656570866407" lon="8.141114442687488"><ele>733.8000000000001</ele><time>2026-04-03T08:12:27.999Z</time></trkpt><trkpt lat="44.376479420890014" lon="8.141067893496725"><ele>734.0</ele><time>2026-04-03T08:12:28.999Z</time></trkpt><trkpt lat="44.376395136974345" lon="8.140997609048856"><ele>734.0</ele><time>2026-04-03T08:12:29.999Z</time></trkpt><trkpt lat="44.376291168673795" lon="8.140929861768713"><ele>734.0</ele><time>2026-04-03T08:12:30.999Z</time></trkpt><trkpt lat="44.376191130718965" lon="8.14087887974082"><ele>734.0</ele><time>2026-04-03T08:12:31.999Z</time></trkpt><trkpt lat="44.37609763747249" lon="8.140790383492783"><ele>734.0</ele><time>2026-04-03T08:12:32.999Z</time></trkpt><trkpt lat="44.37601926392345" lon="8.140664169359784"><ele>733.8000000000001</ele><time>2026-04-03T08:12:33.999Z</time></trkpt><trkpt lat="44.37594607914337" lon="8.140592337168336"><ele>733.6</ele><time>2026-04-03T08:12:34.999Z</time></trkpt><trkpt lat="44.37586715590838" lon="8.140510042087962"><ele>733.4</ele><time>2026-04-03T08:12:35.999Z</time></trkpt><trkpt lat="44.37578400129786" lon="8.140432286258731"><ele>733.2</ele><time>2026-04-03T08:12:36.999Z</time></trkpt><trkpt lat="44.37570630378727" lon="8.140360206067585"><ele>733.0</ele><time>2026-04-03T08:12:37.999Z</time></trkpt><trkpt lat="44.375629804143514" lon="8.140289099351191"><ele>733.0</ele><time>2026-04-03T08:12:38.999Z</time></trkpt><trkpt lat="44.375558328814414" lon="8.140215035370359"><ele>733.0</ele><time>2026-04-03T08:12:39.999Z</time></trkpt><trkpt lat="44.375486626084566" lon="8.140142900209616"><ele>733.0</ele><time>2026-04-03T08:12:40.999Z</time></trkpt><trkpt lat="44.37542293425883" lon="8.140073150039001"><ele>733.0</ele><time>2026-04-03T08:12:41.999Z</time></trkpt><trkpt lat="44.375357147817866" lon="8.140006176151651"><ele>733.0</ele><time>2026-04-03T08:12:42.999Z</time></trkpt><trkpt lat="44.37529371398155" lon="8.139939855765604"><ele>733.0</ele><time>2026-04-03T08:12:43.999Z</time></trkpt><trkpt lat="44.375228096684914" lon="8.13985974919921"><ele>731.8</ele><time>2026-04-03T08:12:44.999Z</time></trkpt><trkpt lat="44.37515010300784" lon="8.139758504609475"><ele>730.5999999999999</ele><time>2026-04-03T08:12:46.999Z</time></trkpt><trkpt lat="44.375106575002874" lon="8.139624659005078"><ele>729.4000000000001</ele><time>2026-04-03T08:12:48.999Z</time></trkpt><trkpt lat="44.37509028960417" lon="8.139533323618652"><ele>728.2</ele><time>2026-04-03T08:12:49.999Z</time></trkpt><trkpt lat="44.37501952349696" lon="8.139460987144307"><ele>727.0</ele><time>2026-04-03T08:12:51.998Z</time></trkpt><trkpt lat="44.37494273028604" lon="8.139410232107402"><ele>727.0</ele><time>2026-04-03T08:12:53.998Z</time></trkpt><trkpt lat="44.37490040444662" lon="8.139480338707793"><ele>727.0</ele><time>2026-04-03T08:12:56.998Z</time></trkpt><trkpt lat="44.37490641556393" lon="8.139591478992026"><ele>727.0</ele><time>2026-04-03T08:12:58.998Z</time></trkpt><trkpt lat="44.37485661642514" lon="8.139692052810839"><ele>727.0</ele><time>2026-04-03T08:13:01.998Z</time></trkpt><trkpt lat="44.37474879904282" lon="8.139747648003828"><ele>727.0</ele><time>2026-04-03T08:14:16.999Z</time></trkpt><trkpt lat="44.37479629141709" lon="8.139681575736903"><ele>727.0</ele><time>2026-04-03T08:33:05.999Z</time></trkpt><trkpt lat="44.37471557507578" lon="8.139707404059251"><ele>727.0</ele><time>2026-04-03T08:43:05Z</time></trkpt><trkpt lat="44.37480619589181" lon="8.139698696204771"><ele>727.0</ele><time>2026-04-03T08:43:47.999Z</time></trkpt><trkpt lat="44.37472199396776" lon="8.13967491170782"><ele>727.0</ele><time>2026-04-03T08:44:07.999Z</time></trkpt><trkpt lat="44.37476356296037" lon="8.139748432534276"><ele>727.0</ele><time>2026-04-03T08:45:05Z</time></trkpt><trkpt lat="44.374799248564486" lon="8.139837323203295"><ele>727.0</ele><time>2026-04-03T08:46:23.998Z</time></trkpt><trkpt lat="44.374807763202064" lon="8.139935502237785"><ele>727.0</ele><time>2026-04-03T08:46:24.998Z</time></trkpt><trkpt lat="44.374820688903" lon="8.14012156290037"><ele>726.5</ele><time>2026-04-03T08:46:26.998Z</time></trkpt><trkpt lat="44.37483939561949" lon="8.140269615807565"><ele>726.0</ele><time>2026-04-03T08:46:27.998Z</time></trkpt><trkpt lat="44.374884057818726" lon="8.14041424479752"><ele>725.5</ele><time>2026-04-03T08:46:28.998Z</time></trkpt><trkpt lat="44.374925144754634" lon="8.140588423075352"><ele>725.0</ele><time>2026-04-03T08:46:29.998Z</time></trkpt><trkpt lat="44.3749855587218" lon="8.140760230213942"><ele>725.0</ele><time>2026-04-03T08:46:30.998Z</time></trkpt><trkpt lat="44.375034842807416" lon="8.140930776355896"><ele>725.0</ele><time>2026-04-03T08:46:31.998Z</time></trkpt><trkpt lat="44.37510066193368" lon="8.141095092138613"><ele>725.0</ele><time>2026-04-03T08:46:32.998Z</time></trkpt><trkpt lat="44.37515350799205" lon="8.141236111951127"><ele>725.0</ele><time>2026-04-03T08:46:33.998Z</time></trkpt><trkpt lat="44.37521213803014" lon="8.141412805064329"><ele>721.75</ele><time>2026-04-03T08:46:34.998Z</time></trkpt><trkpt lat="44.3752624761763" lon="8.141549461211588"><ele>718.5</ele><time>2026-04-03T08:46:35.998Z</time></trkpt><trkpt lat="44.375313000894224" lon="8.141695274078407"><ele>715.25</ele><time>2026-04-03T08:46:36.998Z</time></trkpt><trkpt lat="44.37536302056502" lon="8.141838742097024"><ele>712.0</ele><time>2026-04-03T08:46:37.998Z</time></trkpt><trkpt lat="44.37541422131137" lon="8.141975943926703"><ele>712.0</ele><time>2026-04-03T08:46:39Z</time></trkpt><trkpt lat="44.37546082683481" lon="8.142122904891712"><ele>712.0</ele><time>2026-04-03T08:46:40Z</time></trkpt><trkpt lat="44.375507502822536" lon="8.14226396053368"><ele>712.0</ele><time>2026-04-03T08:46:41Z</time></trkpt><trkpt lat="44.37555749574169" lon="8.14240855373473"><ele>712.0</ele><time>2026-04-03T08:46:42Z</time></trkpt><trkpt lat="44.37559683624953" lon="8.14254311383136"><ele>712.0</ele><time>2026-04-03T08:46:43Z</time></trkpt><trkpt lat="44.37564063053548" lon="8.142700587010593"><ele>712.25</ele><time>2026-04-03T08:46:44Z</time></trkpt><trkpt lat="44.375677853489954" lon="8.142857153710102"><ele>712.5</ele><time>2026-04-03T08:46:45Z</time></trkpt><trkpt lat="44.37571241653922" lon="8.143026299445468"><ele>712.75</ele><time>2026-04-03T08:46:46Z</time></trkpt><trkpt lat="44.37573770449572" lon="8.143183788731038"><ele>713.0</ele><time>2026-04-03T08:46:47Z</time></trkpt><trkpt lat="44.375761367961516" lon="8.143347914742295"><ele>710.25</ele><time>2026-04-03T08:46:48Z</time></trkpt><trkpt lat="44.37577959089796" lon="8.143491251587964"><ele>707.5</ele><time>2026-04-03T08:46:49Z</time></trkpt><trkpt lat="44.375797392047716" lon="8.143657649879229"><ele>704.75</ele><time>2026-04-03T08:46:50Z</time></trkpt><trkpt lat="44.375813133417836" lon="8.1438462419621"><ele>702.0</ele><time>2026-04-03T08:46:51Z</time></trkpt><trkpt lat="44.37582485435562" lon="8.144023096070143"><ele>702.25</ele><time>2026-04-03T08:46:52Z</time></trkpt><trkpt lat="44.37582232829362" lon="8.144202453513158"><ele>702.5</ele><time>2026-04-03T08:46:53Z</time></trkpt><trkpt lat="44.37582703976887" lon="8.144378269495322"><ele>702.75</ele><time>2026-04-03T08:46:54Z</time></trkpt><trkpt lat="44.375827516836665" lon="8.144544570179786"><ele>703.0</ele><time>2026-04-03T08:46:55Z</time></trkpt><trkpt lat="44.37581632301477" lon="8.144723232768238"><ele>701.75</ele><time>2026-04-03T08:46:56Z</time></trkpt><trkpt lat="44.375802719102076" lon="8.144890793848239"><ele>700.5</ele><time>2026-04-03T08:46:57Z</time></trkpt><trkpt lat="44.375788659419875" lon="8.145047446714882"><ele>699.25</ele><time>2026-04-03T08:46:58Z</time></trkpt><trkpt lat="44.37576707170657" lon="8.145200211311947"><ele>698.0</ele><time>2026-04-03T08:46:59Z</time></trkpt><trkpt lat="44.37573907825024" lon="8.145366687034114"><ele>698.0</ele><time>2026-04-03T08:47:00Z</time></trkpt><trkpt lat="44.37571131079262" lon="8.145533100310509"><ele>698.0</ele><time>2026-04-03T08:47:01Z</time></trkpt><trkpt lat="44.37567990403561" lon="8.145703749049973"><ele>698.0</ele><time>2026-04-03T08:47:02Z</time></trkpt><trkpt lat="44.37564060397699" lon="8.145875815416277"><ele>698.0</ele><time>2026-04-03T08:47:03Z</time></trkpt><trkpt lat="44.37560045364668" lon="8.146032276641645"><ele>697.75</ele><time>2026-04-03T08:47:04Z</time></trkpt><trkpt lat="44.3755613283178" lon="8.146197484943984"><ele>697.5</ele><time>2026-04-03T08:47:05Z</time></trkpt><trkpt lat="44.3755095259669" lon="8.146362284279274"><ele>697.25</ele><time>2026-04-03T08:47:06Z</time></trkpt><trkpt lat="44.37546035320211" lon="8.146518712014284"><ele>697.0</ele><time>2026-04-03T08:47:07Z</time></trkpt><trkpt lat="44.37540964487564" lon="8.146663383596273"><ele>692.0</ele><time>2026-04-03T08:47:08Z</time></trkpt><trkpt lat="44.375349065881124" lon="8.146809655316682"><ele>687.0</ele><time>2026-04-03T08:47:09Z</time></trkpt><trkpt lat="44.375288151858946" lon="8.146957271322925"><ele>682.0</ele><time>2026-04-03T08:47:10Z</time></trkpt><trkpt lat="44.37522082055059" lon="8.147104969206575"><ele>677.0</ele><time>2026-04-03T08:47:11Z</time></trkpt><trkpt lat="44.375153650265" lon="8.14724619146215"><ele>677.0</ele><time>2026-04-03T08:47:12Z</time></trkpt><trkpt lat="44.37508108508711" lon="8.14737736051197"><ele>677.0</ele><time>2026-04-03T08:47:13Z</time></trkpt><trkpt lat="44.375001727360804" lon="8.14752225264375"><ele>677.0</ele><time>2026-04-03T08:47:14Z</time></trkpt><trkpt lat="44.37491758031676" lon="8.14764888368902"><ele>677.0</ele><time>2026-04-03T08:47:15Z</time></trkpt><trkpt lat="44.37483774318989" lon="8.147761406163397"><ele>677.0</ele><time>2026-04-03T08:47:16Z</time></trkpt><trkpt lat="44.37475557690328" lon="8.147881967992559"><ele>677.0</ele><time>2026-04-03T08:47:17Z</time></trkpt><trkpt lat="44.37466990666184" lon="8.147997736269515"><ele>677.0</ele><time>2026-04-03T08:47:18Z</time></trkpt><trkpt lat="44.37458209169541" lon="8.148108624140493"><ele>677.0</ele><time>2026-04-03T08:47:19Z</time></trkpt><trkpt lat="44.37449399804264" lon="8.148205500607569"><ele>676.5</ele><time>2026-04-03T08:47:20Z</time></trkpt><trkpt lat="44.37439300118028" lon="8.14831870170021"><ele>676.0</ele><time>2026-04-03T08:47:21Z</time></trkpt><trkpt lat="44.37430841119391" lon="8.148407741772324"><ele>675.5</ele><time>2026-04-03T08:47:22Z</time></trkpt><trkpt lat="44.37420844866812" lon="8.148492793339296"><ele>675.0</ele><time>2026-04-03T08:47:23Z</time></trkpt><trkpt lat="44.37410167269679" lon="8.148582273400665"><ele>675.0</ele><time>2026-04-03T08:47:24Z</time></trkpt><trkpt lat="44.374003574408775" lon="8.148658523752124"><ele>675.0</ele><time>2026-04-03T08:47:24.999Z</time></trkpt><trkpt lat="44.37389984062457" lon="8.148738558397147"><ele>675.0</ele><time>2026-04-03T08:47:25.999Z</time></trkpt><trkpt lat="44.37379251528832" lon="8.148812036785616"><ele>675.0</ele><time>2026-04-03T08:47:26.999Z</time></trkpt><trkpt lat="44.37369376596296" lon="8.14887361884131"><ele>676.25</ele><time>2026-04-03T08:47:27.999Z</time></trkpt><trkpt lat="44.373592395735024" lon="8.148937994211753"><ele>677.5</ele><time>2026-04-03T08:47:28.999Z</time></trkpt><trkpt lat="44.37347626163058" lon="8.149003368190556"><ele>678.75</ele><time>2026-04-03T08:47:29.999Z</time></trkpt><trkpt lat="44.37336637993269" lon="8.149056830792597"><ele>680.0</ele><time>2026-04-03T08:47:30.999Z</time></trkpt><trkpt lat="44.37325052777388" lon="8.149112242071498"><ele>677.75</ele><time>2026-04-03T08:47:31.999Z</time></trkpt><trkpt lat="44.37313720431401" lon="8.149178450992487"><ele>675.5</ele><time>2026-04-03T08:47:32.999Z</time></trkpt><trkpt lat="44.37302668707325" lon="8.149250286609474"><ele>673.25</ele><time>2026-04-03T08:47:33.999Z</time></trkpt><trkpt lat="44.37292168948477" lon="8.149324760147383"><ele>671.0</ele><time>2026-04-03T08:47:34.999Z</time></trkpt><trkpt lat="44.37282685978938" lon="8.149396525088324"><ele>671.0</ele><time>2026-04-03T08:47:35.999Z</time></trkpt><trkpt lat="44.37272780669774" lon="8.149462079164762"><ele>671.0</ele><time>2026-04-03T08:47:36.999Z</time></trkpt><trkpt lat="44.3726441803181" lon="8.149527663995757"><ele>671.0</ele><time>2026-04-03T08:47:37.999Z</time></trkpt><trkpt lat="44.37254956539427" lon="8.149590075824436"><ele>671.0</ele><time>2026-04-03T08:47:38.999Z</time></trkpt><trkpt lat="44.372446866189826" lon="8.149656622823215"><ele>671.0</ele><time>2026-04-03T08:47:39.999Z</time></trkpt><trkpt lat="44.37235106078012" lon="8.149729897751016"><ele>671.0</ele><time>2026-04-03T08:47:40.999Z</time></trkpt><trkpt lat="44.3722497087926" lon="8.149801856183014"><ele>671.0</ele><time>2026-04-03T08:47:41.999Z</time></trkpt><trkpt lat="44.372134549822626" lon="8.149882912879598"><ele>671.0</ele><time>2026-04-03T08:47:42.999Z</time></trkpt><trkpt lat="44.37200378596241" lon="8.149974663229838"><ele>671.0</ele><time>2026-04-03T08:47:43.999Z</time></trkpt><trkpt lat="44.371874328677805" lon="8.15005292290461"><ele>670.0</ele><time>2026-04-03T08:47:44.999Z</time></trkpt><trkpt lat="44.371730324386725" lon="8.1501534206423"><ele>669.0</ele><time>2026-04-03T08:47:45.999Z</time></trkpt><trkpt lat="44.37158881672819" lon="8.15025118294506"><ele>668.0</ele><time>2026-04-03T08:47:46.999Z</time></trkpt><trkpt lat="44.371458914883455" lon="8.150347064940917"><ele>669.0</ele><time>2026-04-03T08:47:47.999Z</time></trkpt><trkpt lat="44.37133466055235" lon="8.150440684281719"><ele>670.0</ele><time>2026-04-03T08:47:48.999Z</time></trkpt><trkpt lat="44.371200290497704" lon="8.15051805447627"><ele>671.0</ele><time>2026-04-03T08:47:49.999Z</time></trkpt><trkpt lat="44.37106894269989" lon="8.150608127742123"><ele>672.0</ele><time>2026-04-03T08:47:50.999Z</time></trkpt><trkpt lat="44.37095207124106" lon="8.150678562054129"><ele>668.25</ele><time>2026-04-03T08:47:51.999Z</time></trkpt><trkpt lat="44.37083783298469" lon="8.150757218792018"><ele>664.5</ele><time>2026-04-03T08:47:52.999Z</time></trkpt><trkpt lat="44.370720117653775" lon="8.150834869866095"><ele>660.75</ele><time>2026-04-03T08:47:53.999Z</time></trkpt><trkpt lat="44.37060350945238" lon="8.150907955818628"><ele>657.0</ele><time>2026-04-03T08:47:54.999Z</time></trkpt><trkpt lat="44.37049011215707" lon="8.150990701496362"><ele>653.25</ele><time>2026-04-03T08:47:55.999Z</time></trkpt><trkpt lat="44.37037653489802" lon="8.15106148688733"><ele>649.5</ele><time>2026-04-03T08:47:56.999Z</time></trkpt><trkpt lat="44.37026736602616" lon="8.151125437913038"><ele>645.75</ele><time>2026-04-03T08:47:57.999Z</time></trkpt><trkpt lat="44.37015522661754" lon="8.151200751905703"><ele>642.0</ele><time>2026-04-03T08:47:58.999Z</time></trkpt><trkpt lat="44.3700382374536" lon="8.151269712874855"><ele>642.0</ele><time>2026-04-03T08:47:59.999Z</time></trkpt><trkpt lat="44.369925616743686" lon="8.151349753303826"><ele>642.0</ele><time>2026-04-03T08:48:00.999Z</time></trkpt><trkpt lat="44.369816765500914" lon="8.15142683063809"><ele>642.0</ele><time>2026-04-03T08:48:01.999Z</time></trkpt><trkpt lat="44.369708722314364" lon="8.151508040728919"><ele>642.0</ele><time>2026-04-03T08:48:02.999Z</time></trkpt><trkpt lat="44.3696007819994" lon="8.151587980466854"><ele>639.5</ele><time>2026-04-03T08:48:04.012Z</time></trkpt><trkpt lat="44.369492229620214" lon="8.151668449237903"><ele>637.0</ele><time>2026-04-03T08:48:05.013Z</time></trkpt><trkpt lat="44.36938445660759" lon="8.151748546651161"><ele>634.5</ele><time>2026-04-03T08:48:06.017Z</time></trkpt><trkpt lat="44.36926792796191" lon="8.151802851240179"><ele>632.0</ele><time>2026-04-03T08:48:06.999Z</time></trkpt><trkpt lat="44.36916888938535" lon="8.151853242276507"><ele>632.0</ele><time>2026-04-03T08:48:07.999Z</time></trkpt><trkpt lat="44.369060854516206" lon="8.151921801567235"><ele>632.0</ele><time>2026-04-03T08:48:08.999Z</time></trkpt><trkpt lat="44.3689604879725" lon="8.151985446726082"><ele>632.0</ele><time>2026-04-03T08:48:09.999Z</time></trkpt><trkpt lat="44.368861291884016" lon="8.152064988892798"><ele>632.0</ele><time>2026-04-03T08:48:10.999Z</time></trkpt><trkpt lat="44.36875708181806" lon="8.15213206553127"><ele>633.0</ele><time>2026-04-03T08:48:11.999Z</time></trkpt><trkpt lat="44.36865831682109" lon="8.15219450529263"><ele>634.0</ele><time>2026-04-03T08:48:12.999Z</time></trkpt><trkpt lat="44.36856378598216" lon="8.15225823593389"><ele>635.0</ele><time>2026-04-03T08:48:13.999Z</time></trkpt><trkpt lat="44.36846643098832" lon="8.152320658435107"><ele>636.0</ele><time>2026-04-03T08:48:14.999Z</time></trkpt><trkpt lat="44.36837584706299" lon="8.152381885059997"><ele>637.0</ele><time>2026-04-03T08:48:15.999Z</time></trkpt><trkpt lat="44.368279217525945" lon="8.152443877712543"><ele>637.0</ele><time>2026-04-03T08:48:16.999Z</time></trkpt><trkpt lat="44.36818099716073" lon="8.152514086642341"><ele>637.0</ele><time>2026-04-03T08:48:17.999Z</time></trkpt><trkpt lat="44.368079596112196" lon="8.152583769888917"><ele>637.0</ele><time>2026-04-03T08:48:18.999Z</time></trkpt><trkpt lat="44.367974031320266" lon="8.15266022595693"><ele>637.0</ele><time>2026-04-03T08:48:19.999Z</time></trkpt><trkpt lat="44.367871329355694" lon="8.152744757099246"><ele>641.25</ele><time>2026-04-03T08:48:20.999Z</time></trkpt><trkpt lat="44.367762444588315" lon="8.152833305273655"><ele>645.5</ele><time>2026-04-03T08:48:22.016Z</time></trkpt><trkpt lat="44.367653548719105" lon="8.152925096292797"><ele>649.75</ele><time>2026-04-03T08:48:23.015Z</time></trkpt><trkpt lat="44.36754784448496" lon="8.153019140070697"><ele>654.0</ele><time>2026-04-03T08:48:24.013Z</time></trkpt><trkpt lat="44.36744061894958" lon="8.15311344732561"><ele>713.0</ele><time>2026-04-03T08:48:25.014Z</time></trkpt><trkpt lat="44.36593947302146" lon="8.154876320234328"><ele>713.0</ele><time>2026-04-03T08:48:29.38Z</time></trkpt><trkpt lat="44.365642005782895" lon="8.155346739952742"><ele>713.0</ele><time>2026-04-03T08:48:30.38Z</time></trkpt><trkpt lat="44.3653663160238" lon="8.155842418912808"><ele>715.5</ele><time>2026-04-03T08:48:31.38Z</time></trkpt><trkpt lat="44.36511130473374" lon="8.156359103526132"><ele>718.0</ele><time>2026-04-03T08:48:32.38Z</time></trkpt><trkpt lat="44.364877674108676" lon="8.156895099107334"><ele>707.0</ele><time>2026-04-03T08:48:33.38Z</time></trkpt><trkpt lat="44.36466903756602" lon="8.157450806082565"><ele>696.0</ele><time>2026-04-03T08:48:34.38Z</time></trkpt><trkpt lat="44.364484153403396" lon="8.15802259543667"><ele>698.0</ele><time>2026-04-03T08:48:35.38Z</time></trkpt><trkpt lat="44.36432364185242" lon="8.158608314374145"><ele>700.0</ele><time>2026-04-03T08:48:36.38Z</time></trkpt><trkpt lat="44.36418592324328" lon="8.159205558793442"><ele>692.0</ele><time>2026-04-03T08:48:37.38Z</time></trkpt><trkpt lat="44.364076763867075" lon="8.159814048053189"><ele>684.0</ele><time>2026-04-03T08:48:38.38Z</time></trkpt><trkpt lat="44.36399184063698" lon="8.160429950140074"><ele>675.0</ele><time>2026-04-03T08:48:39.38Z</time></trkpt><trkpt lat="44.363933033524425" lon="8.161051708102782"><ele>666.0</ele><time>2026-04-03T08:48:40.38Z</time></trkpt><trkpt lat="44.36390065667605" lon="8.161677244867906"><ele>661.5</ele><time>2026-04-03T08:48:41.38Z</time></trkpt><trkpt lat="44.363894304049055" lon="8.162304299713027"><ele>657.0</ele><time>2026-04-03T08:48:42.38Z</time></trkpt><trkpt lat="44.363905" lon="8.1627492"><ele>621.0</ele><time>2026-04-03T08:48:43.38Z</time></trkpt><trkpt lat="44.36381312656133" lon="8.163906631637957"><ele>621.25</ele><time>2026-04-03T08:49:28.997Z</time></trkpt><trkpt lat="44.36393231993257" lon="8.16396896665936"><ele>621.5</ele><time>2026-04-03T08:49:29.997Z</time></trkpt><trkpt lat="44.36394490976898" lon="8.164107015868048"><ele>621.75</ele><time>2026-04-03T08:49:30.997Z</time></trkpt><trkpt lat="44.36394424511071" lon="8.164306559597986"><ele>622.0</ele><time>2026-04-03T08:49:31.997Z</time></trkpt><trkpt lat="44.363963007591586" lon="8.164477676710153"><ele>622.0</ele><time>2026-04-03T08:49:32.997Z</time></trkpt><trkpt lat="44.36398699956734" lon="8.164660149839413"><ele>622.0</ele><time>2026-04-03T08:49:33.997Z</time></trkpt><trkpt lat="44.363990937554156" lon="8.164867401720844"><ele>622.0</ele><time>2026-04-03T08:49:35Z</time></trkpt><trkpt lat="44.36400344783857" lon="8.165099981573606"><ele>622.0</ele><time>2026-04-03T08:49:36Z</time></trkpt><trkpt lat="44.36402628519521" lon="8.165263305727443"><ele>621.5</ele><time>2026-04-03T08:49:37Z</time></trkpt><trkpt lat="44.36403867218645" lon="8.16545693296276"><ele>621.0</ele><time>2026-04-03T08:49:38Z</time></trkpt><trkpt lat="44.3640619287228" lon="8.165661994603395"><ele>620.5</ele><time>2026-04-03T08:49:39Z</time></trkpt><trkpt lat="44.364082671222505" lon="8.165873198761155"><ele>620.0</ele><time>2026-04-03T08:49:40Z</time></trkpt><trkpt lat="44.364098475191845" lon="8.1660725882945"><ele>617.6666666666666</ele><time>2026-04-03T08:49:41Z</time></trkpt><trkpt lat="44.36411566531475" lon="8.166277631538062"><ele>615.3333333333334</ele><time>2026-04-03T08:49:42Z</time></trkpt><trkpt lat="44.364131236352954" lon="8.166491429734013"><ele>613.0</ele><time>2026-04-03T08:49:43Z</time></trkpt><trkpt lat="44.36414434696452" lon="8.166716532470831"><ele>611.6666666666667</ele><time>2026-04-03T08:49:44Z</time></trkpt><trkpt lat="44.36416083676456" lon="8.166933784474685"><ele>610.3333333333334</ele><time>2026-04-03T08:49:45Z</time></trkpt><trkpt lat="44.36418196566097" lon="8.16716280401707"><ele>609.0</ele><time>2026-04-03T08:49:46Z</time></trkpt><trkpt lat="44.36418962584852" lon="8.167383595065402"><ele>607.25</ele><time>2026-04-03T08:49:47Z</time></trkpt><trkpt lat="44.36420397975711" lon="8.167594000221404"><ele>605.5</ele><time>2026-04-03T08:49:48Z</time></trkpt><trkpt lat="44.3642171944889" lon="8.167791009839572"><ele>603.75</ele><time>2026-04-03T08:49:49Z</time></trkpt><trkpt lat="44.364244040239946" lon="8.167997199791829"><ele>602.0</ele><time>2026-04-03T08:49:50Z</time></trkpt><trkpt lat="44.364256135909926" lon="8.168199607323453"><ele>600.25</ele><time>2026-04-03T08:49:51Z</time></trkpt><trkpt lat="44.36426537813248" lon="8.168376018435179"><ele>598.5</ele><time>2026-04-03T08:49:52Z</time></trkpt><trkpt lat="44.364275708862834" lon="8.168580179802287"><ele>596.75</ele><time>2026-04-03T08:49:53Z</time></trkpt><trkpt lat="44.36429330832511" lon="8.168802544678263"><ele>595.0</ele><time>2026-04-03T08:49:54Z</time></trkpt><trkpt lat="44.364287849401485" lon="8.16900651333352"><ele>595.0</ele><time>2026-04-03T08:49:55Z</time></trkpt><trkpt lat="44.36428588472226" lon="8.169223971355583"><ele>595.0</ele><time>2026-04-03T08:49:56Z</time></trkpt><trkpt lat="44.36427501313092" lon="8.169442804040795"><ele>595.0</ele><time>2026-04-03T08:49:57Z</time></trkpt><trkpt lat="44.3642629812722" lon="8.169643123849534"><ele>595.0</ele><time>2026-04-03T08:49:58Z</time></trkpt><trkpt lat="44.36424719325865" lon="8.169834624033205"><ele>595.0</ele><time>2026-04-03T08:49:59Z</time></trkpt><trkpt lat="44.36421962604102" lon="8.17005137683031"><ele>595.0</ele><time>2026-04-03T08:50:00Z</time></trkpt><trkpt lat="44.364181839810165" lon="8.170258246142817"><ele>595.0</ele><time>2026-04-03T08:50:01Z</time></trkpt><trkpt lat="44.364140759743954" lon="8.170463172231127"><ele>593.0</ele><time>2026-04-03T08:50:02Z</time></trkpt><trkpt lat="44.36409392294392" lon="8.170641194320325"><ele>591.0</ele><time>2026-04-03T08:50:03Z</time></trkpt><trkpt lat="44.36404083836271" lon="8.170858347288398"><ele>589.0</ele><time>2026-04-03T08:50:04Z</time></trkpt><trkpt lat="44.36397995983258" lon="8.171049857989724"><ele>585.0</ele><time>2026-04-03T08:50:05Z</time></trkpt><trkpt lat="44.36391058984143" lon="8.171240866872955"><ele>581.0</ele><time>2026-04-03T08:50:06Z</time></trkpt><trkpt lat="44.36383684702199" lon="8.17142827272651"><ele>577.0</ele><time>2026-04-03T08:50:07Z</time></trkpt><trkpt lat="44.36375276399458" lon="8.17160855683166"><ele>575.0</ele><time>2026-04-03T08:50:08Z</time></trkpt><trkpt lat="44.3636671303885" lon="8.171770149249474"><ele>573.0</ele><time>2026-04-03T08:50:09Z</time></trkpt><trkpt lat="44.363577724124156" lon="8.171932391452037"><ele>571.0</ele><time>2026-04-03T08:50:10Z</time></trkpt><trkpt lat="44.36348582858745" lon="8.172091872364728"><ele>569.0</ele><time>2026-04-03T08:50:11Z</time></trkpt><trkpt lat="44.36338464760069" lon="8.17224626824234"><ele>568.0</ele><time>2026-04-03T08:50:12Z</time></trkpt><trkpt lat="44.363276435813766" lon="8.17239638775718"><ele>567.0</ele><time>2026-04-03T08:50:13Z</time></trkpt><trkpt lat="44.36316458362862" lon="8.172528750008768"><ele>566.0</ele><time>2026-04-03T08:50:14Z</time></trkpt><trkpt lat="44.363051862681125" lon="8.172657482241863"><ele>565.0</ele><time>2026-04-03T08:50:15Z</time></trkpt><trkpt lat="44.36293513265784" lon="8.172775777910676"><ele>562.0</ele><time>2026-04-03T08:50:16Z</time></trkpt><trkpt lat="44.36281957749745" lon="8.172881108768516"><ele>559.0</ele><time>2026-04-03T08:50:17Z</time></trkpt><trkpt lat="44.36270665888476" lon="8.172978241456041"><ele>556.0</ele><time>2026-04-03T08:50:18Z</time></trkpt><trkpt lat="44.36260337962742" lon="8.173051215124298"><ele>553.0</ele><time>2026-04-03T08:50:19Z</time></trkpt><trkpt lat="44.36249397930285" lon="8.173130767865855"><ele>551.0</ele><time>2026-04-03T08:50:20Z</time></trkpt><trkpt lat="44.36239225838553" lon="8.173202411866953"><ele>549.0</ele><time>2026-04-03T08:50:21Z</time></trkpt><trkpt lat="44.362289427003404" lon="8.173273023881398"><ele>547.0</ele><time>2026-04-03T08:50:21.999Z</time></trkpt><trkpt lat="44.36218861712041" lon="8.173342450396659"><ele>545.0</ele><time>2026-04-03T08:50:22.999Z</time></trkpt><trkpt lat="44.36209597213448" lon="8.173412182935483"><ele>543.0</ele><time>2026-04-03T08:50:23.999Z</time></trkpt><trkpt lat="44.36200472795408" lon="8.173479169442386"><ele>542.1666666666666</ele><time>2026-04-03T08:50:24.999Z</time></trkpt><trkpt lat="44.36192347642584" lon="8.173544123886904"><ele>541.3333333333334</ele><time>2026-04-03T08:50:25.999Z</time></trkpt><trkpt lat="44.36184228570354" lon="8.173614056123608"><ele>540.5</ele><time>2026-04-03T08:50:26.999Z</time></trkpt><trkpt lat="44.361769278682985" lon="8.173678343897503"><ele>539.6666666666667</ele><time>2026-04-03T08:50:27.999Z</time></trkpt><trkpt lat="44.36170058995022" lon="8.173738790523366"><ele>538.8333333333334</ele><time>2026-04-03T08:50:28.999Z</time></trkpt><trkpt lat="44.361633459006946" lon="8.173801352119403"><ele>538.0</ele><time>2026-04-03T08:50:29.999Z</time></trkpt><trkpt lat="44.36156559520779" lon="8.17386622916144"><ele>538.0</ele><time>2026-04-03T08:50:30.999Z</time></trkpt><trkpt lat="44.361493539750505" lon="8.173937192516112"><ele>538.0</ele><time>2026-04-03T08:50:31.999Z</time></trkpt><trkpt lat="44.36141892298974" lon="8.17402242892888"><ele>538.0</ele><time>2026-04-03T08:50:32.999Z</time></trkpt><trkpt lat="44.36134760272287" lon="8.174131855944907"><ele>538.0</ele><time>2026-04-03T08:50:33.999Z</time></trkpt><trkpt lat="44.361283404567835" lon="8.17423803078528"><ele>538.0</ele><time>2026-04-03T08:50:34.999Z</time></trkpt><trkpt lat="44.36122420084914" lon="8.174349170547798"><ele>537.6</ele><time>2026-04-03T08:50:35.999Z</time></trkpt><trkpt lat="44.361168447726996" lon="8.174463798928372"><ele>537.1999999999999</ele><time>2026-04-03T08:50:36.999Z</time></trkpt><trkpt lat="44.36110951768532" lon="8.17457687811031"><ele>536.8</ele><time>2026-04-03T08:50:37.999Z</time></trkpt><trkpt lat="44.36105216202113" lon="8.174690298981844"><ele>536.4</ele><time>2026-04-03T08:50:38.999Z</time></trkpt><trkpt lat="44.36099731205935" lon="8.174799502708963"><ele>536.0</ele><time>2026-04-03T08:50:39.999Z</time></trkpt><trkpt lat="44.36094581248776" lon="8.174908340893836"><ele>536.0</ele><time>2026-04-03T08:50:40.999Z</time></trkpt><trkpt lat="44.36089285128979" lon="8.17502587354169"><ele>536.0</ele><time>2026-04-03T08:50:41.999Z</time></trkpt><trkpt lat="44.36083991497399" lon="8.175138595060002"><ele>536.0</ele><time>2026-04-03T08:50:42.999Z</time></trkpt><trkpt lat="44.36079033766655" lon="8.175257855155227"><ele>536.0</ele><time>2026-04-03T08:50:43.999Z</time></trkpt><trkpt lat="44.36074347035654" lon="8.175380864103962"><ele>536.0</ele><time>2026-04-03T08:50:44.999Z</time></trkpt><trkpt lat="44.360704383904135" lon="8.175507103132611"><ele>536.0</ele><time>2026-04-03T08:50:45.999Z</time></trkpt><trkpt lat="44.360671885663045" lon="8.175638742009891"><ele>536.0</ele><time>2026-04-03T08:50:46.999Z</time></trkpt><trkpt lat="44.36065355180417" lon="8.175768713572399"><ele>536.0</ele><time>2026-04-03T08:50:47.999Z</time></trkpt><trkpt lat="44.36063488628813" lon="8.175902007685206"><ele>536.0</ele><time>2026-04-03T08:50:48.999Z</time></trkpt><trkpt lat="44.36061654661713" lon="8.176043748587508"><ele>536.0</ele><time>2026-04-03T08:50:49.999Z</time></trkpt><trkpt lat="44.36059692506881" lon="8.176184088208972"><ele>537.0</ele><time>2026-04-03T08:50:50.999Z</time></trkpt><trkpt lat="44.36057151025046" lon="8.176310716401343"><ele>538.0</ele><time>2026-04-03T08:50:51.999Z</time></trkpt><trkpt lat="44.360539092454005" lon="8.176441509654003"><ele>539.0</ele><time>2026-04-03T08:50:52.999Z</time></trkpt><trkpt lat="44.36050320076201" lon="8.176567371177821"><ele>540.0</ele><time>2026-04-03T08:50:53.999Z</time></trkpt><trkpt lat="44.36046952237817" lon="8.176691742648389"><ele>541.0</ele><time>2026-04-03T08:50:54.999Z</time></trkpt><trkpt lat="44.36044111232173" lon="8.17681200558566"><ele>535.3333333333334</ele><time>2026-04-03T08:50:55.999Z</time></trkpt><trkpt lat="44.36042096730584" lon="8.17693813468269"><ele>529.6666666666667</ele><time>2026-04-03T08:50:56.999Z</time></trkpt><trkpt lat="44.36039964036363" lon="8.177064573925676"><ele>524.0</ele><time>2026-04-03T08:50:57.999Z</time></trkpt><trkpt lat="44.36038319372454" lon="8.177180432541668"><ele>518.3333333333334</ele><time>2026-04-03T08:50:58.999Z</time></trkpt><trkpt lat="44.36036995404942" lon="8.177281446434385"><ele>512.6666666666666</ele><time>2026-04-03T08:50:59.999Z</time></trkpt><trkpt lat="44.36036221470853" lon="8.17739598187249"><ele>507.0</ele><time>2026-04-03T08:51:00.999Z</time></trkpt><trkpt lat="44.36034697696956" lon="8.177524050553536"><ele>506.40000000000003</ele><time>2026-04-03T08:51:01.999Z</time></trkpt><trkpt lat="44.3603694145647" lon="8.177671762241786"><ele>505.80000000000007</ele><time>2026-04-03T08:51:02.999Z</time></trkpt><trkpt lat="44.36041461940433" lon="8.177800623488528"><ele>505.2</ele><time>2026-04-03T08:51:03.999Z</time></trkpt><trkpt lat="44.36045361220802" lon="8.177925560511994"><ele>504.6</ele><time>2026-04-03T08:51:04.999Z</time></trkpt><trkpt lat="44.36049510693619" lon="8.17804727555277"><ele>504.0</ele><time>2026-04-03T08:51:05.999Z</time></trkpt><trkpt lat="44.36051278124409" lon="8.178194258539113"><ele>503.6</ele><time>2026-04-03T08:51:06.999Z</time></trkpt><trkpt lat="44.36051030767328" lon="8.178354195109211"><ele>503.2</ele><time>2026-04-03T08:51:07.999Z</time></trkpt><trkpt lat="44.36051010773715" lon="8.178497609130334"><ele>502.80000000000007</ele><time>2026-04-03T08:51:08.999Z</time></trkpt><trkpt lat="44.36051050531854" lon="8.178632831754767"><ele>502.40000000000003</ele><time>2026-04-03T08:51:09.999Z</time></trkpt><trkpt lat="44.360491246764276" lon="8.178794746893029"><ele>502.0</ele><time>2026-04-03T08:51:10.999Z</time></trkpt><trkpt lat="44.36049015350712" lon="8.178929439885149"><ele>501.0</ele><time>2026-04-03T08:51:11.999Z</time></trkpt><trkpt lat="44.36049614502586" lon="8.179077686247997"><ele>500.00000000000006</ele><time>2026-04-03T08:51:12.999Z</time></trkpt><trkpt lat="44.36049405255298" lon="8.17921217878304"><ele>499.00000000000006</ele><time>2026-04-03T08:51:13.999Z</time></trkpt><trkpt lat="44.36048861380828" lon="8.179355188189604"><ele>498.0</ele><time>2026-04-03T08:51:14.999Z</time></trkpt><trkpt lat="44.36048797591552" lon="8.179485309217783"><ele>497.0</ele><time>2026-04-03T08:51:15.999Z</time></trkpt><trkpt lat="44.36048254956233" lon="8.179621150135706"><ele>497.0</ele><time>2026-04-03T08:51:16.999Z</time></trkpt><trkpt lat="44.36048732889062" lon="8.17975454920366"><ele>497.00000000000006</ele><time>2026-04-03T08:51:17.999Z</time></trkpt><trkpt lat="44.36049431726032" lon="8.179885065652014"><ele>497.00000000000006</ele><time>2026-04-03T08:51:18.999Z</time></trkpt><trkpt lat="44.3605071429618" lon="8.180023216010044"><ele>497.0</ele><time>2026-04-03T08:51:19.999Z</time></trkpt><trkpt lat="44.360524632006936" lon="8.180145772699403"><ele>497.0</ele><time>2026-04-03T08:51:20.998Z</time></trkpt><trkpt lat="44.36051761079836" lon="8.180294435760342"><ele>502.40000000000003</ele><time>2026-04-03T08:51:21.998Z</time></trkpt><trkpt lat="44.360541792092896" lon="8.180439622475154"><ele>507.80000000000007</ele><time>2026-04-03T08:51:22.998Z</time></trkpt><trkpt lat="44.36058098123228" lon="8.180580477724769"><ele>513.2</ele><time>2026-04-03T08:51:23.998Z</time></trkpt><trkpt lat="44.36062654364756" lon="8.180718171052943"><ele>518.6</ele><time>2026-04-03T08:51:24.998Z</time></trkpt><trkpt lat="44.36068364041925" lon="8.180842118041122"><ele>524.0</ele><time>2026-04-03T08:51:25.998Z</time></trkpt><trkpt lat="44.360711280145956" lon="8.180983913159999"><ele>524.0</ele><time>2026-04-03T08:51:26.998Z</time></trkpt><trkpt lat="44.360735866402486" lon="8.18110584434336"><ele>524.0</ele><time>2026-04-03T08:51:27.998Z</time></trkpt><trkpt lat="44.3607507957791" lon="8.181242287965008"><ele>524.0</ele><time>2026-04-03T08:51:28.998Z</time></trkpt><trkpt lat="44.3607520798214" lon="8.181384175756271"><ele>524.0</ele><time>2026-04-03T08:51:29.998Z</time></trkpt><trkpt lat="44.36075341730353" lon="8.1815389227534"><ele>524.0</ele><time>2026-04-03T08:51:30.998Z</time></trkpt><trkpt lat="44.36075060284428" lon="8.181673741294338"><ele>522.0</ele><time>2026-04-03T08:51:31.998Z</time></trkpt><trkpt lat="44.360747728283" lon="8.18181625909161"><ele>520.0</ele><time>2026-04-03T08:51:32.998Z</time></trkpt><trkpt lat="44.360743468407" lon="8.181959738042377"><ele>518.0</ele><time>2026-04-03T08:51:33.998Z</time></trkpt><trkpt lat="44.36073870236901" lon="8.182095412163102"><ele>516.0</ele><time>2026-04-03T08:51:34.998Z</time></trkpt><trkpt lat="44.36073332554598" lon="8.182233570601701"><ele>514.0</ele><time>2026-04-03T08:51:35.998Z</time></trkpt><trkpt lat="44.36072394714491" lon="8.182362809027913"><ele>513.4</ele><time>2026-04-03T08:51:36.998Z</time></trkpt><trkpt lat="44.36071520242625" lon="8.182490038317285"><ele>512.8</ele><time>2026-04-03T08:51:37.998Z</time></trkpt><trkpt lat="44.36070232626617" lon="8.182630490051274"><ele>512.2</ele><time>2026-04-03T08:51:38.998Z</time></trkpt><trkpt lat="44.36068378721915" lon="8.182776098229887"><ele>511.6</ele><time>2026-04-03T08:51:39.998Z</time></trkpt><trkpt lat="44.36066119965471" lon="8.182903673056057"><ele>511.0</ele><time>2026-04-03T08:51:41Z</time></trkpt><trkpt lat="44.36063609780459" lon="8.183049601422592"><ele>510.4</ele><time>2026-04-03T08:51:42Z</time></trkpt><trkpt lat="44.36060668216594" lon="8.183192355208892"><ele>509.8</ele><time>2026-04-03T08:51:43Z</time></trkpt><trkpt lat="44.360575009104785" lon="8.18332583370171"><ele>509.19999999999993</ele><time>2026-04-03T08:51:44Z</time></trkpt><trkpt lat="44.360538371389865" lon="8.183472676315944"><ele>508.59999999999997</ele><time>2026-04-03T08:51:45Z</time></trkpt><trkpt lat="44.36050273982608" lon="8.183600458181603"><ele>508.0</ele><time>2026-04-03T08:51:46Z</time></trkpt><trkpt lat="44.3604638276242" lon="8.183727169300456"><ele>502.79999999999995</ele><time>2026-04-03T08:51:47Z</time></trkpt><trkpt lat="44.3604232455767" lon="8.183851326345847"><ele>497.59999999999997</ele><time>2026-04-03T08:51:48Z</time></trkpt><trkpt lat="44.36037999530998" lon="8.183979455867414"><ele>492.40000000000003</ele><time>2026-04-03T08:51:49Z</time></trkpt><trkpt lat="44.360346000892264" lon="8.184107511155489"><ele>487.20000000000005</ele><time>2026-04-03T08:51:50Z</time></trkpt><trkpt lat="44.360316152675665" lon="8.184221894720277"><ele>482.0</ele><time>2026-04-03T08:51:51Z</time></trkpt><trkpt lat="44.36029244624675" lon="8.184337879986048"><ele>482.0</ele><time>2026-04-03T08:51:52Z</time></trkpt><trkpt lat="44.36027991375975" lon="8.184466455890105"><ele>482.00000000000006</ele><time>2026-04-03T08:51:53Z</time></trkpt><trkpt lat="44.360281353432605" lon="8.184595469005917"><ele>482.00000000000006</ele><time>2026-04-03T08:51:54Z</time></trkpt><trkpt lat="44.36031055714866" lon="8.18473273836348"><ele>482.0</ele><time>2026-04-03T08:51:55Z</time></trkpt><trkpt lat="44.360349859218104" lon="8.184860497977503"><ele>482.0</ele><time>2026-04-03T08:51:56Z</time></trkpt><trkpt lat="44.360363520709925" lon="8.185007163696277"><ele>482.0</ele><time>2026-04-03T08:51:57Z</time></trkpt><trkpt lat="44.360401427973194" lon="8.185131836501567"><ele>482.00000000000006</ele><time>2026-04-03T08:51:58Z</time></trkpt><trkpt lat="44.36045226319265" lon="8.18524949398655"><ele>482.00000000000006</ele><time>2026-04-03T08:51:59Z</time></trkpt><trkpt lat="44.36048118509039" lon="8.185387959071731"><ele>482.0</ele><time>2026-04-03T08:52:00Z</time></trkpt><trkpt lat="44.360521213541105" lon="8.18550953077786"><ele>482.0</ele><time>2026-04-03T08:52:01Z</time></trkpt><trkpt lat="44.36056723054164" lon="8.185619724713275"><ele>482.8</ele><time>2026-04-03T08:52:02Z</time></trkpt><trkpt lat="44.360608951670876" lon="8.185735431737118"><ele>483.6</ele><time>2026-04-03T08:52:03Z</time></trkpt><trkpt lat="44.360695367554456" lon="8.185818833317217"><ele>484.40000000000003</ele><time>2026-04-03T08:52:04Z</time></trkpt><trkpt lat="44.36076325372474" lon="8.185907383431063"><ele>485.20000000000005</ele><time>2026-04-03T08:52:05Z</time></trkpt><trkpt lat="44.36082932537674" lon="8.186004981736852"><ele>486.0</ele><time>2026-04-03T08:52:06Z</time></trkpt><trkpt lat="44.3608885636065" lon="8.186115822517513"><ele>486.0</ele><time>2026-04-03T08:52:07Z</time></trkpt><trkpt lat="44.3609358363124" lon="8.186219290052005"><ele>486.0</ele><time>2026-04-03T08:52:08Z</time></trkpt><trkpt lat="44.36096336064685" lon="8.186339980771411"><ele>486.0</ele><time>2026-04-03T08:52:09Z</time></trkpt><trkpt lat="44.360990647584586" lon="8.186468930981409"><ele>486.0</ele><time>2026-04-03T08:52:10Z</time></trkpt><trkpt lat="44.36100578090346" lon="8.186598441891071"><ele>486.0</ele><time>2026-04-03T08:52:11Z</time></trkpt><trkpt lat="44.36100855077717" lon="8.186730728527182"><ele>483.8</ele><time>2026-04-03T08:52:12Z</time></trkpt><trkpt lat="44.361009623500024" lon="8.186871171501378"><ele>481.6</ele><time>2026-04-03T08:52:13Z</time></trkpt><trkpt lat="44.360998086669944" lon="8.186997323005894"><ele>479.4</ele><time>2026-04-03T08:52:14Z</time></trkpt><trkpt lat="44.360978939424015" lon="8.187137168943835"><ele>477.2</ele><time>2026-04-03T08:52:15Z</time></trkpt><trkpt lat="44.360969279335876" lon="8.187255518852243"><ele>475.0</ele><time>2026-04-03T08:52:16Z</time></trkpt><trkpt lat="44.36094503269568" lon="8.187369221922014"><ele>474.4</ele><time>2026-04-03T08:52:17Z</time></trkpt><trkpt lat="44.36090571682124" lon="8.187498196527326"><ele>473.8</ele><time>2026-04-03T08:52:18Z</time></trkpt><trkpt lat="44.36085706039348" lon="8.187634898517604"><ele>473.20000000000005</ele><time>2026-04-03T08:52:19Z</time></trkpt><trkpt lat="44.36079500534476" lon="8.187759530335592"><ele>472.6</ele><time>2026-04-03T08:52:20Z</time></trkpt><trkpt lat="44.36072960805533" lon="8.187855143409973"><ele>472.0</ele><time>2026-04-03T08:52:21Z</time></trkpt><trkpt lat="44.36067102144825" lon="8.187950707781528"><ele>472.0</ele><time>2026-04-03T08:52:22Z</time></trkpt><trkpt lat="44.36061899155952" lon="8.188032501907776"><ele>472.00000000000006</ele><time>2026-04-03T08:52:23Z</time></trkpt><trkpt lat="44.360574780508244" lon="8.1881277308647"><ele>472.00000000000006</ele><time>2026-04-03T08:52:24Z</time></trkpt><trkpt lat="44.36054398728322" lon="8.188248132838412"><ele>472.0</ele><time>2026-04-03T08:52:25Z</time></trkpt><trkpt lat="44.360537506591186" lon="8.188391944119129"><ele>472.0</ele><time>2026-04-03T08:52:26Z</time></trkpt><trkpt lat="44.36055240737314" lon="8.188553018663189"><ele>472.40000000000003</ele><time>2026-04-03T08:52:27Z</time></trkpt><trkpt lat="44.360575896293255" lon="8.188692239578973"><ele>472.80000000000007</ele><time>2026-04-03T08:52:27.999Z</time></trkpt><trkpt lat="44.36058752201035" lon="8.18884342367591"><ele>473.2</ele><time>2026-04-03T08:52:28.999Z</time></trkpt><trkpt lat="44.360586578305934" lon="8.188987659650921"><ele>473.6</ele><time>2026-04-03T08:52:29.999Z</time></trkpt><trkpt lat="44.36058694461294" lon="8.189126862441142"><ele>474.0</ele><time>2026-04-03T08:52:30.999Z</time></trkpt><trkpt lat="44.36059492738795" lon="8.189257574536123"><ele>473.0</ele><time>2026-04-03T08:52:31.999Z</time></trkpt><trkpt lat="44.360612908024095" lon="8.189387518450358"><ele>472.0</ele><time>2026-04-03T08:52:32.999Z</time></trkpt><trkpt lat="44.36063616944297" lon="8.189511503976311"><ele>471.0</ele><time>2026-04-03T08:52:33.999Z</time></trkpt><trkpt lat="44.36067023447439" lon="8.189613812047744"><ele>470.0</ele><time>2026-04-03T08:52:34.999Z</time></trkpt><trkpt lat="44.3607021489578" lon="8.18972019711705"><ele>469.0</ele><time>2026-04-03T08:52:35.999Z</time></trkpt><trkpt lat="44.36072534171964" lon="8.189834654643438"><ele>468.0</ele><time>2026-04-03T08:52:36.999Z</time></trkpt><trkpt lat="44.360731510202875" lon="8.189946438019298"><ele>466.8571428571429</ele><time>2026-04-03T08:52:37.999Z</time></trkpt><trkpt lat="44.36073030625254" lon="8.190056148346034"><ele>465.7142857142858</ele><time>2026-04-03T08:52:38.999Z</time></trkpt><trkpt lat="44.360718940194914" lon="8.190162828557458"><ele>464.57142857142856</ele><time>2026-04-03T08:52:39.999Z</time></trkpt><trkpt lat="44.36070952434155" lon="8.190266946335814"><ele>463.42857142857144</ele><time>2026-04-03T08:52:40.999Z</time></trkpt><trkpt lat="44.36070280224408" lon="8.190370749134763"><ele>462.2857142857143</ele><time>2026-04-03T08:52:41.999Z</time></trkpt><trkpt lat="44.36070830964057" lon="8.190466841500312"><ele>461.1428571428571</ele><time>2026-04-03T08:52:42.999Z</time></trkpt><trkpt lat="44.36073108906858" lon="8.190549128009605"><ele>459.99999999999994</ele><time>2026-04-03T08:52:43.999Z</time></trkpt><trkpt lat="44.36077327638358" lon="8.190641201481585"><ele>458.50000000000006</ele><time>2026-04-03T08:52:44.999Z</time></trkpt><trkpt lat="44.36082428775296" lon="8.190712377758887"><ele>457.0</ele><time>2026-04-03T08:52:45.999Z</time></trkpt><trkpt lat="44.36087944770163" lon="8.190765894284896"><ele>455.5</ele><time>2026-04-03T08:52:46.999Z</time></trkpt><trkpt lat="44.36093906881638" lon="8.190798590469695"><ele>454.0</ele><time>2026-04-03T08:52:47.999Z</time></trkpt><trkpt lat="44.36100087922735" lon="8.190822050738797"><ele>452.50000000000006</ele><time>2026-04-03T08:52:48.999Z</time></trkpt><trkpt lat="44.36112196031929" lon="8.190777799520543"><ele>451.0</ele><time>2026-04-03T08:52:50.999Z</time></trkpt><trkpt lat="44.361178227939966" lon="8.1907248711546"><ele>451.50000000000006</ele><time>2026-04-03T08:52:51.999Z</time></trkpt><trkpt lat="44.36123954782842" lon="8.190666926248094"><ele>452.0</ele><time>2026-04-03T08:52:52.999Z</time></trkpt><trkpt lat="44.36136198203143" lon="8.190629532837114"><ele>452.5</ele><time>2026-04-03T08:52:54.999Z</time></trkpt><trkpt lat="44.36143344355633" lon="8.190660489398043"><ele>453.0</ele><time>2026-04-03T08:52:55.999Z</time></trkpt><trkpt lat="44.36150529669957" lon="8.190736298778392"><ele>453.50000000000006</ele><time>2026-04-03T08:52:56.999Z</time></trkpt><trkpt lat="44.36156027827053" lon="8.19081760878205"><ele>454.0</ele><time>2026-04-03T08:52:57.999Z</time></trkpt><trkpt lat="44.36162213396288" lon="8.190894038829818"><ele>454.00000000000006</ele><time>2026-04-03T08:52:58.999Z</time></trkpt><trkpt lat="44.36168655188927" lon="8.19096336852191"><ele>454.0</ele><time>2026-04-03T08:52:59.999Z</time></trkpt><trkpt lat="44.361740983196476" lon="8.19104586204119"><ele>454.0</ele><time>2026-04-03T08:53:00.999Z</time></trkpt><trkpt lat="44.361776234835816" lon="8.191141035194354"><ele>454.0</ele><time>2026-04-03T08:53:01.999Z</time></trkpt><trkpt lat="44.36178023657065" lon="8.191252570318518"><ele>454.00000000000006</ele><time>2026-04-03T08:53:02.999Z</time></trkpt><trkpt lat="44.361775907876606" lon="8.191356529157147"><ele>454.0</ele><time>2026-04-03T08:53:03.999Z</time></trkpt><trkpt lat="44.36175368743008" lon="8.191454172249614"><ele>452.50000000000006</ele><time>2026-04-03T08:53:04.999Z</time></trkpt><trkpt lat="44.361729821169966" lon="8.19156625293056"><ele>451.0</ele><time>2026-04-03T08:53:05.999Z</time></trkpt><trkpt lat="44.36170275917937" lon="8.191672901794385"><ele>449.5</ele><time>2026-04-03T08:53:06.999Z</time></trkpt><trkpt lat="44.36167899912984" lon="8.19176892114096"><ele>448.0</ele><time>2026-04-03T08:53:07.999Z</time></trkpt><trkpt lat="44.361656128464695" lon="8.191877790246576"><ele>446.50000000000006</ele><time>2026-04-03T08:53:08.999Z</time></trkpt><trkpt lat="44.36163277770134" lon="8.19198567161998"><ele>445.0</ele><time>2026-04-03T08:53:09.999Z</time></trkpt><trkpt lat="44.36161093574204" lon="8.192090477287111"><ele>445.00000000000006</ele><time>2026-04-03T08:53:10.999Z</time></trkpt><trkpt lat="44.36158824167194" lon="8.19220144263344"><ele>445.0</ele><time>2026-04-03T08:53:11.999Z</time></trkpt><trkpt lat="44.361570664080624" lon="8.192302897075331"><ele>445.0</ele><time>2026-04-03T08:53:12.999Z</time></trkpt><trkpt lat="44.36155534847704" lon="8.192421484664274"><ele>445.0</ele><time>2026-04-03T08:53:13.999Z</time></trkpt><trkpt lat="44.36155473642295" lon="8.192532897788865"><ele>445.00000000000006</ele><time>2026-04-03T08:53:14.999Z</time></trkpt><trkpt lat="44.361570654188796" lon="8.192649361568447"><ele>445.0</ele><time>2026-04-03T08:53:15.999Z</time></trkpt><trkpt lat="44.36160001555127" lon="8.192763970426611"><ele>444.1666666666667</ele><time>2026-04-03T08:53:16.999Z</time></trkpt><trkpt lat="44.36164439000327" lon="8.192862204571314"><ele>443.33333333333337</ele><time>2026-04-03T08:53:17.999Z</time></trkpt><trkpt lat="44.36169952551417" lon="8.192955129744625"><ele>442.5</ele><time>2026-04-03T08:53:18.999Z</time></trkpt><trkpt lat="44.361753865537636" lon="8.193034759805851"><ele>441.66666666666663</ele><time>2026-04-03T08:53:19.999Z</time></trkpt><trkpt lat="44.361818448108316" lon="8.193092117316315"><ele>440.8333333333333</ele><time>2026-04-03T08:53:20.999Z</time></trkpt><trkpt lat="44.361897927763174" lon="8.193139582857187"><ele>440.0</ele><time>2026-04-03T08:53:21.999Z</time></trkpt><trkpt lat="44.361984155719135" lon="8.193168580375435"><ele>439.2</ele><time>2026-04-03T08:53:22.999Z</time></trkpt><trkpt lat="44.362071546171435" lon="8.193187957688753"><ele>438.4</ele><time>2026-04-03T08:53:23.999Z</time></trkpt><trkpt lat="44.36216084897296" lon="8.193194434461635"><ele>437.6</ele><time>2026-04-03T08:53:24.999Z</time></trkpt><trkpt lat="44.36226208395518" lon="8.193187581431381"><ele>436.8</ele><time>2026-04-03T08:53:25.998Z</time></trkpt><trkpt lat="44.36236593215021" lon="8.19317315766802"><ele>436.0</ele><time>2026-04-03T08:53:26.998Z</time></trkpt><trkpt lat="44.36247039975253" lon="8.19316084237734"><ele>436.0</ele><time>2026-04-03T08:53:27.998Z</time></trkpt><trkpt lat="44.36256481787694" lon="8.193151920187754"><ele>436.0</ele><time>2026-04-03T08:53:28.998Z</time></trkpt><trkpt lat="44.362668006251475" lon="8.193142786116862"><ele>436.0</ele><time>2026-04-03T08:53:29.998Z</time></trkpt><trkpt lat="44.362774561371296" lon="8.193133490542614"><ele>436.0</ele><time>2026-04-03T08:53:30.998Z</time></trkpt><trkpt lat="44.362879815007254" lon="8.193117781281488"><ele>436.0</ele><time>2026-04-03T08:53:31.998Z</time></trkpt><trkpt lat="44.36299214310794" lon="8.19311216740006"><ele>437.0</ele><time>2026-04-03T08:53:32.998Z</time></trkpt><trkpt lat="44.36309214096653" lon="8.193110948130427"><ele>438.0</ele><time>2026-04-03T08:53:33.998Z</time></trkpt><trkpt lat="44.36318655670745" lon="8.193121687615227"><ele>439.0</ele><time>2026-04-03T08:53:34.998Z</time></trkpt><trkpt lat="44.36329029039474" lon="8.193140113903679"><ele>440.0</ele><time>2026-04-03T08:53:35.998Z</time></trkpt><trkpt lat="44.36339047496066" lon="8.193164547328259"><ele>441.0</ele><time>2026-04-03T08:53:36.998Z</time></trkpt><trkpt lat="44.363488261314814" lon="8.193185558717044"><ele>440.6</ele><time>2026-04-03T08:53:37.998Z</time></trkpt><trkpt lat="44.363577967075415" lon="8.193210854883526"><ele>440.20000000000005</ele><time>2026-04-03T08:53:38.998Z</time></trkpt><trkpt lat="44.36367507507194" lon="8.193239214325876"><ele>439.79999999999995</ele><time>2026-04-03T08:53:39.998Z</time></trkpt><trkpt lat="44.36377613455771" lon="8.19327474314022"><ele>439.4</ele><time>2026-04-03T08:53:40.998Z</time></trkpt><trkpt lat="44.363879119376946" lon="8.193309514479875"><ele>439.0</ele><time>2026-04-03T08:53:41.998Z</time></trkpt><trkpt lat="44.36397741958992" lon="8.193335686774903"><ele>439.0</ele><time>2026-04-03T08:53:42.998Z</time></trkpt><trkpt lat="44.36406821614333" lon="8.193383750119413"><ele>439.0</ele><time>2026-04-03T08:53:43.998Z</time></trkpt><trkpt lat="44.36415860363944" lon="8.193450380325476"><ele>439.0</ele><time>2026-04-03T08:53:44.998Z</time></trkpt><trkpt lat="44.36423640091803" lon="8.193528297777814"><ele>439.0</ele><time>2026-04-03T08:53:45.998Z</time></trkpt><trkpt lat="44.364311184610614" lon="8.193625970119477"><ele>439.0</ele><time>2026-04-03T08:53:47Z</time></trkpt><trkpt lat="44.36438197226405" lon="8.193734157171356"><ele>439.0</ele><time>2026-04-03T08:53:48Z</time></trkpt><trkpt lat="44.36444555723917" lon="8.193853225077426"><ele>439.0</ele><time>2026-04-03T08:53:49Z</time></trkpt><trkpt lat="44.36451845809011" lon="8.193965018530948"><ele>439.0</ele><time>2026-04-03T08:53:50Z</time></trkpt><trkpt lat="44.364594913474384" lon="8.194071777176452"><ele>439.0</ele><time>2026-04-03T08:53:51Z</time></trkpt><trkpt lat="44.364669863421796" lon="8.194189847303065"><ele>439.0</ele><time>2026-04-03T08:53:52Z</time></trkpt><trkpt lat="44.36473964915277" lon="8.194314781907833"><ele>438.79999999999995</ele><time>2026-04-03T08:53:53Z</time></trkpt><trkpt lat="44.36479952736344" lon="8.194430779406614"><ele>438.59999999999997</ele><time>2026-04-03T08:53:54Z</time></trkpt><trkpt lat="44.364859917577526" lon="8.19455100181924"><ele>438.4</ele><time>2026-04-03T08:53:55Z</time></trkpt><trkpt lat="44.3649290827483" lon="8.194665266512867"><ele>438.2</ele><time>2026-04-03T08:53:56Z</time></trkpt><trkpt lat="44.36499692795888" lon="8.194791765124123"><ele>438.0</ele><time>2026-04-03T08:53:57Z</time></trkpt><trkpt lat="44.36506399745952" lon="8.194912825316898"><ele>439.0</ele><time>2026-04-03T08:53:58Z</time></trkpt><trkpt lat="44.36512491252158" lon="8.195027126408473"><ele>439.99999999999994</ele><time>2026-04-03T08:53:59Z</time></trkpt><trkpt lat="44.36518796851936" lon="8.195136147058722"><ele>440.99999999999994</ele><time>2026-04-03T08:54:00Z</time></trkpt><trkpt lat="44.36525573947827" lon="8.19525450869616"><ele>442.0</ele><time>2026-04-03T08:54:01Z</time></trkpt><trkpt lat="44.36532128468324" lon="8.195375454289712"><ele>443.0</ele><time>2026-04-03T08:54:02Z</time></trkpt><trkpt lat="44.36538388302312" lon="8.195499040293885"><ele>443.0</ele><time>2026-04-03T08:54:03Z</time></trkpt><trkpt lat="44.3654341116791" lon="8.195617873851674"><ele>442.99999999999994</ele><time>2026-04-03T08:54:04Z</time></trkpt><trkpt lat="44.365481327440946" lon="8.195744555330386"><ele>442.99999999999994</ele><time>2026-04-03T08:54:05Z</time></trkpt><trkpt lat="44.3655270173367" lon="8.19586660759924"><ele>443.0</ele><time>2026-04-03T08:54:06Z</time></trkpt><trkpt lat="44.3655654289786" lon="8.196004687905816"><ele>443.0</ele><time>2026-04-03T08:54:07Z</time></trkpt><trkpt lat="44.36560500186641" lon="8.196131170651334"><ele>441.59999999999997</ele><time>2026-04-03T08:54:08Z</time></trkpt><trkpt lat="44.36563682805422" lon="8.196251608229792"><ele>440.19999999999993</ele><time>2026-04-03T08:54:09Z</time></trkpt><trkpt lat="44.365669311091004" lon="8.196382070980425"><ele>438.8</ele><time>2026-04-03T08:54:10Z</time></trkpt><trkpt lat="44.365695091538264" lon="8.196496807994437"><ele>437.4</ele><time>2026-04-03T08:54:11Z</time></trkpt><trkpt lat="44.365715636807124" lon="8.196615079278248"><ele>436.0</ele><time>2026-04-03T08:54:12Z</time></trkpt><trkpt lat="44.36572863650694" lon="8.196743433947306"><ele>436.0</ele><time>2026-04-03T08:54:13Z</time></trkpt><trkpt lat="44.365734182392565" lon="8.196883830675011"><ele>436.0</ele><time>2026-04-03T08:54:14Z</time></trkpt><trkpt lat="44.36572393665785" lon="8.197023781800034"><ele>436.0</ele><time>2026-04-03T08:54:15Z</time></trkpt><trkpt lat="44.36571888197422" lon="8.197171569298668"><ele>436.0</ele><time>2026-04-03T08:54:16Z</time></trkpt><trkpt lat="44.365705353928576" lon="8.197300762490274"><ele>436.0</ele><time>2026-04-03T08:54:17Z</time></trkpt><trkpt lat="44.36569233892097" lon="8.197428445744643"><ele>436.20000000000005</ele><time>2026-04-03T08:54:18Z</time></trkpt><trkpt lat="44.365679317652095" lon="8.197562923148771"><ele>436.40000000000003</ele><time>2026-04-03T08:54:19Z</time></trkpt><trkpt lat="44.365665462563996" lon="8.19769063791686"><ele>436.6</ele><time>2026-04-03T08:54:20Z</time></trkpt><trkpt lat="44.365646620107995" lon="8.197806796006423"><ele>436.8</ele><time>2026-04-03T08:54:21Z</time></trkpt><trkpt lat="44.36562779059294" lon="8.197931508626022"><ele>437.0</ele><time>2026-04-03T08:54:22Z</time></trkpt><trkpt lat="44.365607257182845" lon="8.198054878010616"><ele>436.99999999999994</ele><time>2026-04-03T08:54:23Z</time></trkpt><trkpt lat="44.36558294047368" lon="8.198166491075261"><ele>437.0</ele><time>2026-04-03T08:54:24Z</time></trkpt><trkpt lat="44.36554135511845" lon="8.198263598963283"><ele>437.0</ele><time>2026-04-03T08:54:25Z</time></trkpt><trkpt lat="44.36549529894885" lon="8.19837338881221"><ele>437.0</ele><time>2026-04-03T08:54:26Z</time></trkpt><trkpt lat="44.365432409152675" lon="8.198476848640665"><ele>436.99999999999994</ele><time>2026-04-03T08:54:27Z</time></trkpt><trkpt lat="44.36535730978641" lon="8.198555045566037"><ele>437.0</ele><time>2026-04-03T08:54:28Z</time></trkpt><trkpt lat="44.36528674690108" lon="8.198654532337844"><ele>436.6</ele><time>2026-04-03T08:54:29Z</time></trkpt><trkpt lat="44.365217620588055" lon="8.198747987570053"><ele>436.20000000000005</ele><time>2026-04-03T08:54:30Z</time></trkpt><trkpt lat="44.365148981999724" lon="8.198834285052376"><ele>435.8</ele><time>2026-04-03T08:54:31Z</time></trkpt><trkpt lat="44.36507745145659" lon="8.198938553250946"><ele>435.4</ele><time>2026-04-03T08:54:32Z</time></trkpt><trkpt lat="44.365011298743475" lon="8.199035872764249"><ele>435.0</ele><time>2026-04-03T08:54:32.999Z</time></trkpt><trkpt lat="44.364959246437664" lon="8.199133480241883"><ele>435.0</ele><time>2026-04-03T08:54:33.999Z</time></trkpt><trkpt lat="44.36491286855326" lon="8.199230610269082"><ele>435.0</ele><time>2026-04-03T08:54:34.999Z</time></trkpt><trkpt lat="44.364869864677296" lon="8.199337332408984"><ele>435.0</ele><time>2026-04-03T08:54:35.999Z</time></trkpt><trkpt lat="44.36482643913289" lon="8.19944637381148"><ele>435.0</ele><time>2026-04-03T08:54:36.999Z</time></trkpt><trkpt lat="44.36478955108825" lon="8.199565258043005"><ele>435.0</ele><time>2026-04-03T08:54:37.999Z</time></trkpt><trkpt lat="44.364744818392765" lon="8.199703571530122"><ele>434.0</ele><time>2026-04-03T08:54:38.999Z</time></trkpt><trkpt lat="44.364700621841294" lon="8.199836950100867"><ele>433.0</ele><time>2026-04-03T08:54:39.999Z</time></trkpt><trkpt lat="44.36465799414775" lon="8.19996555184961"><ele>432.0</ele><time>2026-04-03T08:54:40.999Z</time></trkpt><trkpt lat="44.36461501092255" lon="8.200098874343503"><ele>431.0</ele><time>2026-04-03T08:54:41.999Z</time></trkpt><trkpt lat="44.36457509352279" lon="8.200221567969995"><ele>430.0</ele><time>2026-04-03T08:54:42.999Z</time></trkpt><trkpt lat="44.36453881490455" lon="8.200342909795285"><ele>431.0</ele><time>2026-04-03T08:54:43.999Z</time></trkpt><trkpt lat="44.36449979301825" lon="8.200469364077398"><ele>432.0</ele><time>2026-04-03T08:54:44.999Z</time></trkpt><trkpt lat="44.364454733213705" lon="8.200599620887994"><ele>433.0</ele><time>2026-04-03T08:54:45.999Z</time></trkpt><trkpt lat="44.3644099939846" lon="8.20073228426269"><ele>434.0</ele><time>2026-04-03T08:54:46.999Z</time></trkpt><trkpt lat="44.364367419332616" lon="8.200858577841046"><ele>435.0</ele><time>2026-04-03T08:54:47.999Z</time></trkpt><trkpt lat="44.36432304783026" lon="8.200986336231173"><ele>435.0</ele><time>2026-04-03T08:54:48.999Z</time></trkpt><trkpt lat="44.364284401287314" lon="8.201107221409838"><ele>435.0</ele><time>2026-04-03T08:54:49.999Z</time></trkpt><trkpt lat="44.364241277856905" lon="8.201230813650536"><ele>435.0</ele><time>2026-04-03T08:54:50.999Z</time></trkpt><trkpt lat="44.364197153184534" lon="8.201364583154628"><ele>435.0</ele><time>2026-04-03T08:54:51.999Z</time></trkpt><trkpt lat="44.364153067958824" lon="8.201483227246683"><ele>435.0</ele><time>2026-04-03T08:54:52.999Z</time></trkpt><trkpt lat="44.364104829031355" lon="8.201609491854274"><ele>434.2</ele><time>2026-04-03T08:54:53.999Z</time></trkpt><trkpt lat="44.36405264324116" lon="8.20173817095599"><ele>433.4</ele><time>2026-04-03T08:54:54.999Z</time></trkpt><trkpt lat="44.364008110298" lon="8.201855521480303"><ele>432.6</ele><time>2026-04-03T08:54:55.999Z</time></trkpt><trkpt lat="44.36395437564109" lon="8.20197350877355"><ele>431.8</ele><time>2026-04-03T08:54:56.999Z</time></trkpt><trkpt lat="44.36389796294919" lon="8.202094138427682"><ele>431.0</ele><time>2026-04-03T08:54:58.016Z</time></trkpt><trkpt lat="44.36383924565574" lon="8.202223656034874"><ele>431.75</ele><time>2026-04-03T08:54:59.017Z</time></trkpt><trkpt lat="44.363776313422655" lon="8.202341907279378"><ele>432.5</ele><time>2026-04-03T08:55:00.018Z</time></trkpt><trkpt lat="44.36371102300672" lon="8.202462921049962"><ele>433.25</ele><time>2026-04-03T08:55:01.016Z</time></trkpt><trkpt lat="44.36364446800497" lon="8.20258437364096"><ele>434.0</ele><time>2026-04-03T08:55:02.013Z</time></trkpt><trkpt lat="44.36317862015624" lon="8.203214323155771"><ele>434.0</ele><time>2026-04-03T08:55:07.999Z</time></trkpt><trkpt lat="44.36310196458918" lon="8.203307645669346"><ele>434.0</ele><time>2026-04-03T08:55:08.999Z</time></trkpt><trkpt lat="44.36301136415762" lon="8.203393606056682"><ele>434.0</ele><time>2026-04-03T08:55:09.999Z</time></trkpt><trkpt lat="44.36293535152616" lon="8.203485938236495"><ele>434.0</ele><time>2026-04-03T08:55:10.999Z</time></trkpt><trkpt lat="44.362825758160916" lon="8.203558190044943"><ele>434.0</ele><time>2026-04-03T08:55:11.999Z</time></trkpt><trkpt lat="44.362760809086076" lon="8.203663740764695"><ele>435.6</ele><time>2026-04-03T08:55:12.999Z</time></trkpt><trkpt lat="44.36267378444075" lon="8.203750664859015"><ele>437.2</ele><time>2026-04-03T08:55:13.999Z</time></trkpt><trkpt lat="44.362586314981435" lon="8.203859836437275"><ele>438.80000000000007</ele><time>2026-04-03T08:55:15.016Z</time></trkpt><trkpt lat="44.362501654271696" lon="8.203958355081378"><ele>440.40000000000003</ele><time>2026-04-03T08:55:16.018Z</time></trkpt><trkpt lat="44.362416793097985" lon="8.20405282464612"><ele>442.0</ele><time>2026-04-03T08:55:17.016Z</time></trkpt><trkpt lat="44.36233198627983" lon="8.204148035247695"><ele>454.0</ele><time>2026-04-03T08:55:18.015Z</time></trkpt><trkpt lat="44.35976556730953" lon="8.206984256063537"><ele>454.0</ele><time>2026-04-03T08:55:47.998Z</time></trkpt><trkpt lat="44.35975580443274" lon="8.207128314447575"><ele>454.0</ele><time>2026-04-03T08:55:49.998Z</time></trkpt><trkpt lat="44.35971454217233" lon="8.207263764509776"><ele>454.0</ele><time>2026-04-03T08:55:50.998Z</time></trkpt><trkpt lat="44.35966465106587" lon="8.207395589101253"><ele>454.0</ele><time>2026-04-03T08:55:51.998Z</time></trkpt><trkpt lat="44.35962648769619" lon="8.207559553983035"><ele>454.0</ele><time>2026-04-03T08:55:52.998Z</time></trkpt><trkpt lat="44.35958142561636" lon="8.207688943324246"><ele>451.5</ele><time>2026-04-03T08:55:54Z</time></trkpt><trkpt lat="44.35954303194504" lon="8.207845889522199"><ele>449.0</ele><time>2026-04-03T08:55:55Z</time></trkpt><trkpt lat="44.359511476403135" lon="8.207994529607832"><ele>446.5</ele><time>2026-04-03T08:55:56Z</time></trkpt><trkpt lat="44.35947343263952" lon="8.208131513135593"><ele>444.0</ele><time>2026-04-03T08:55:57Z</time></trkpt><trkpt lat="44.35944705836812" lon="8.208298259305243"><ele>444.0</ele><time>2026-04-03T08:55:58Z</time></trkpt><trkpt lat="44.359424609370485" lon="8.208485431214667"><ele>444.0</ele><time>2026-04-03T08:55:59Z</time></trkpt><trkpt lat="44.35941649540056" lon="8.208627679718266"><ele>444.0</ele><time>2026-04-03T08:56:00Z</time></trkpt><trkpt lat="44.35941559041671" lon="8.208796026236381"><ele>444.0</ele><time>2026-04-03T08:56:01Z</time></trkpt><trkpt lat="44.35942696114143" lon="8.20895806010458"><ele>446.6</ele><time>2026-04-03T08:56:02Z</time></trkpt><trkpt lat="44.359443783023146" lon="8.209109915424008"><ele>449.2</ele><time>2026-04-03T08:56:03Z</time></trkpt><trkpt lat="44.35948610662159" lon="8.209265148054335"><ele>451.80000000000007</ele><time>2026-04-03T08:56:04Z</time></trkpt><trkpt lat="44.35952801940904" lon="8.209396655166396"><ele>454.40000000000003</ele><time>2026-04-03T08:56:05Z</time></trkpt><trkpt lat="44.35957687752735" lon="8.20951755204602"><ele>457.0</ele><time>2026-04-03T08:56:06Z</time></trkpt><trkpt lat="44.35963466999464" lon="8.209642542055043"><ele>454.8</ele><time>2026-04-03T08:56:07Z</time></trkpt><trkpt lat="44.35971106036532" lon="8.209764073928477"><ele>452.6</ele><time>2026-04-03T08:56:08Z</time></trkpt><trkpt lat="44.35978511460675" lon="8.209864950394364"><ele>450.40000000000003</ele><time>2026-04-03T08:56:09Z</time></trkpt><trkpt lat="44.35986456601452" lon="8.209968460888254"><ele>448.20000000000005</ele><time>2026-04-03T08:56:10Z</time></trkpt><trkpt lat="44.35992038302674" lon="8.210079456178773"><ele>446.0</ele><time>2026-04-03T08:56:11Z</time></trkpt><trkpt lat="44.359964861901766" lon="8.210212538684019"><ele>446.0</ele><time>2026-04-03T08:56:12Z</time></trkpt><trkpt lat="44.35999406077312" lon="8.210367143662511"><ele>446.0</ele><time>2026-04-03T08:56:13Z</time></trkpt><trkpt lat="44.36000744546684" lon="8.210514494988548"><ele>446.0</ele><time>2026-04-03T08:56:14.012Z</time></trkpt><trkpt lat="44.36001650174887" lon="8.210651393732297"><ele>446.0</ele><time>2026-04-03T08:56:15.013Z</time></trkpt><trkpt lat="44.36005722367229" lon="8.210777203636082"><ele>446.0</ele><time>2026-04-03T08:56:16.014Z</time></trkpt><trkpt lat="44.3600999758477" lon="8.210896008709886"><ele>443.0</ele><time>2026-04-03T08:56:17.018Z</time></trkpt><trkpt lat="44.36061530843783" lon="8.211290789775747"><ele>443.0</ele><time>2026-04-03T08:56:22Z</time></trkpt><trkpt lat="44.36057312305276" lon="8.21137453823282"><ele>442.99999999999994</ele><time>2026-04-03T08:56:23Z</time></trkpt><trkpt lat="44.360654780815395" lon="8.211500119777487"><ele>442.99999999999994</ele><time>2026-04-03T08:56:25Z</time></trkpt><trkpt lat="44.36071213104919" lon="8.211561724994247"><ele>443.0</ele><time>2026-04-03T08:56:28Z</time></trkpt><trkpt lat="44.36082492515653" lon="8.211391202845027"><ele>443.0</ele><time>2026-04-03T08:56:29Z</time></trkpt><trkpt lat="44.360846028596654" lon="8.211300200795295"><ele>443.0</ele><time>2026-04-03T08:56:30Z</time></trkpt><trkpt lat="44.360874615084974" lon="8.211195062908224"><ele>442.99999999999994</ele><time>2026-04-03T08:56:31Z</time></trkpt><trkpt lat="44.36089377676024" lon="8.211052483509324"><ele>442.99999999999994</ele><time>2026-04-03T08:56:32Z</time></trkpt><trkpt lat="44.360892943645105" lon="8.210905586300694"><ele>443.0</ele><time>2026-04-03T08:56:33Z</time></trkpt><trkpt lat="44.36089411701018" lon="8.210772340628036"><ele>443.0</ele><time>2026-04-03T08:56:34Z</time></trkpt><trkpt lat="44.360925119502426" lon="8.210647134856458"><ele>442.16666666666663</ele><time>2026-04-03T08:56:35Z</time></trkpt><trkpt lat="44.360919032621595" lon="8.210522635336554"><ele>441.3333333333333</ele><time>2026-04-03T08:56:36Z</time></trkpt><trkpt lat="44.360916970047626" lon="8.210405508249549"><ele>440.5</ele><time>2026-04-03T08:56:37Z</time></trkpt><trkpt lat="44.36091632804359" lon="8.210309935482321"><ele>439.66666666666663</ele><time>2026-04-03T08:56:38Z</time></trkpt><trkpt lat="44.36092366900425" lon="8.210146317847993"><ele>438.8333333333333</ele><time>2026-04-03T08:56:39.999Z</time></trkpt><trkpt lat="44.36090413443048" lon="8.210035395052667"><ele>438.0</ele><time>2026-04-03T08:56:41.999Z</time></trkpt><trkpt lat="44.360809132550116" lon="8.209981494516509"><ele>438.0</ele><time>2026-04-03T08:56:43.999Z</time></trkpt><trkpt lat="44.360732025788515" lon="8.209977238470126"><ele>438.0</ele><time>2026-04-03T08:56:44.999Z</time></trkpt><trkpt lat="44.36065142293464" lon="8.209987610528065"><ele>438.0</ele><time>2026-04-03T08:56:45.999Z</time></trkpt><trkpt lat="44.36057049405919" lon="8.209985579655658"><ele>438.0</ele><time>2026-04-03T08:56:46.999Z</time></trkpt><trkpt lat="44.36050717613712" lon="8.209959147687739"><ele>438.0</ele><time>2026-04-03T08:56:47.999Z</time></trkpt><trkpt lat="44.36043559759267" lon="8.209914287057499"><ele>438.0</ele><time>2026-04-03T08:56:48.999Z</time></trkpt><trkpt lat="44.36036613471032" lon="8.209858760999518"><ele>437.1666666666667</ele><time>2026-04-03T08:56:49.999Z</time></trkpt><trkpt lat="44.36030127613848" lon="8.209798360254966"><ele>436.33333333333337</ele><time>2026-04-03T08:56:50.999Z</time></trkpt><trkpt lat="44.360233979086836" lon="8.209728213764873"><ele>435.5</ele><time>2026-04-03T08:56:51.999Z</time></trkpt><trkpt lat="44.36016782802195" lon="8.209670195426913"><ele>434.6666666666667</ele><time>2026-04-03T08:56:52.999Z</time></trkpt><trkpt lat="44.36011036655317" lon="8.209604566775308"><ele>433.83333333333337</ele><time>2026-04-03T08:56:53.999Z</time></trkpt><trkpt lat="44.36004194339691" lon="8.209534814816022"><ele>433.0</ele><time>2026-04-03T08:56:54.999Z</time></trkpt><trkpt lat="44.35997552370135" lon="8.20945613452591"><ele>433.00000000000006</ele><time>2026-04-03T08:56:55.999Z</time></trkpt><trkpt lat="44.359910549650955" lon="8.209372397813988"><ele>433.0</ele><time>2026-04-03T08:56:56.999Z</time></trkpt><trkpt lat="44.359843273664374" lon="8.209311418415002"><ele>433.0</ele><time>2026-04-03T08:56:57.999Z</time></trkpt><trkpt lat="44.35978413240812" lon="8.209258332264753"><ele>433.0</ele><time>2026-04-03T08:56:58.999Z</time></trkpt><trkpt lat="44.35971341536286" lon="8.20919606260224"><ele>433.00000000000006</ele><time>2026-04-03T08:56:59.999Z</time></trkpt><trkpt lat="44.359648306359034" lon="8.209120952664996"><ele>433.0</ele><time>2026-04-03T08:57:00.999Z</time></trkpt><trkpt lat="44.359596674699134" lon="8.209047766852832"><ele>434.57142857142856</ele><time>2026-04-03T08:57:01.999Z</time></trkpt><trkpt lat="44.359552334828216" lon="8.208981131151106"><ele>436.1428571428571</ele><time>2026-04-03T08:57:02.999Z</time></trkpt><trkpt lat="44.3595019088518" lon="8.208913484926002"><ele>437.71428571428567</ele><time>2026-04-03T08:57:03.999Z</time></trkpt><trkpt lat="44.35946139531425" lon="8.20884304759409"><ele>439.2857142857143</ele><time>2026-04-03T08:57:04.999Z</time></trkpt><trkpt lat="44.35942684145591" lon="8.208764419833436"><ele>440.8571428571429</ele><time>2026-04-03T08:57:05.999Z</time></trkpt><trkpt lat="44.359363906662" lon="8.208702505855252"><ele>442.4285714285714</ele><time>2026-04-03T08:57:06.999Z</time></trkpt><trkpt lat="44.35931329528232" lon="8.208623504729134"><ele>444.0</ele><time>2026-04-03T08:57:07.999Z</time></trkpt><trkpt lat="44.35924646774606" lon="8.208512831228683"><ele>444.0</ele><time>2026-04-03T08:57:09.999Z</time></trkpt><trkpt lat="44.35912175453283" lon="8.208408521193181"><ele>444.0</ele><time>2026-04-03T08:57:11.999Z</time></trkpt><trkpt lat="44.35905527090216" lon="8.208348812801049"><ele>444.0</ele><time>2026-04-03T08:57:12.999Z</time></trkpt><trkpt lat="44.35900191449861" lon="8.208263816649799"><ele>444.0</ele><time>2026-04-03T08:57:13.999Z</time></trkpt><trkpt lat="44.35894756699724" lon="8.208187365219265"><ele>444.0</ele><time>2026-04-03T08:57:14.999Z</time></trkpt><trkpt lat="44.35888683891193" lon="8.208118146961004"><ele>442.8333333333333</ele><time>2026-04-03T08:57:15.999Z</time></trkpt><trkpt lat="44.35883619128867" lon="8.20804346230766"><ele>441.66666666666663</ele><time>2026-04-03T08:57:16.999Z</time></trkpt><trkpt lat="44.35876992076325" lon="8.207971081293616"><ele>440.5</ele><time>2026-04-03T08:57:17.999Z</time></trkpt><trkpt lat="44.358704793443124" lon="8.207905336271047"><ele>439.3333333333333</ele><time>2026-04-03T08:57:18.999Z</time></trkpt><trkpt lat="44.358629727824486" lon="8.207850460016349"><ele>438.16666666666663</ele><time>2026-04-03T08:57:19.999Z</time></trkpt><trkpt lat="44.35854707320381" lon="8.207804679268104"><ele>437.0</ele><time>2026-04-03T08:57:20.999Z</time></trkpt><trkpt lat="44.35846909149586" lon="8.207750574992195"><ele>437.0</ele><time>2026-04-03T08:57:21.999Z</time></trkpt><trkpt lat="44.3583965252849" lon="8.207698973581751"><ele>437.0</ele><time>2026-04-03T08:57:22.999Z</time></trkpt><trkpt lat="44.35832862619831" lon="8.207653989258631"><ele>437.0</ele><time>2026-04-03T08:57:23.999Z</time></trkpt><trkpt lat="44.35826720629696" lon="8.207618150547232"><ele>437.0</ele><time>2026-04-03T08:57:24.999Z</time></trkpt><trkpt lat="44.358203357306806" lon="8.207582764451013"><ele>437.0</ele><time>2026-04-03T08:57:25.999Z</time></trkpt><trkpt lat="44.35813927603656" lon="8.207540258750777"><ele>437.0</ele><time>2026-04-03T08:57:26.999Z</time></trkpt><trkpt lat="44.35807617340488" lon="8.207501993647718"><ele>437.0</ele><time>2026-04-03T08:57:27.999Z</time></trkpt><trkpt lat="44.35801358699362" lon="8.20746423388586"><ele>436.6</ele><time>2026-04-03T08:57:28.999Z</time></trkpt><trkpt lat="44.35790306081712" lon="8.207400350543244"><ele>436.20000000000005</ele><time>2026-04-03T08:57:30.999Z</time></trkpt><trkpt lat="44.357791378058735" lon="8.207341351572218"><ele>435.8</ele><time>2026-04-03T08:57:32.999Z</time></trkpt><trkpt lat="44.35772265418912" lon="8.207323342252034"><ele>435.4</ele><time>2026-04-03T08:57:33.999Z</time></trkpt><trkpt lat="44.35761463738585" lon="8.207276696970968"><ele>435.0</ele><time>2026-04-03T08:57:35.998Z</time></trkpt><trkpt lat="44.35749572128504" lon="8.207223867233372"><ele>435.0</ele><time>2026-04-03T08:57:37.998Z</time></trkpt><trkpt lat="44.35738183632109" lon="8.20718607698764"><ele>435.0</ele><time>2026-04-03T08:57:39.998Z</time></trkpt><trkpt lat="44.3572638712848" lon="8.207143121059095"><ele>435.0</ele><time>2026-04-03T08:57:41.998Z</time></trkpt><trkpt lat="44.35720177015893" lon="8.207123848448592"><ele>435.0</ele><time>2026-04-03T08:57:42.998Z</time></trkpt><trkpt lat="44.3570733869682" lon="8.207085112600472"><ele>435.0</ele><time>2026-04-03T08:57:44.998Z</time></trkpt><trkpt lat="44.356951129032495" lon="8.207039355491005"><ele>435.3333333333333</ele><time>2026-04-03T08:57:46.998Z</time></trkpt><trkpt lat="44.35688243844753" lon="8.20700888133316"><ele>435.66666666666663</ele><time>2026-04-03T08:57:47.998Z</time></trkpt><trkpt lat="44.35681655858539" lon="8.206983960278066"><ele>436.0</ele><time>2026-04-03T08:57:48.998Z</time></trkpt><trkpt lat="44.35675033870527" lon="8.206959347484208"><ele>436.3333333333333</ele><time>2026-04-03T08:57:49.998Z</time></trkpt><trkpt lat="44.35661410878289" lon="8.206906061961671"><ele>436.66666666666663</ele><time>2026-04-03T08:57:51.998Z</time></trkpt><trkpt lat="44.3565451069844" lon="8.206878104492171"><ele>437.0</ele><time>2026-04-03T08:57:52.998Z</time></trkpt><trkpt lat="44.356484180694196" lon="8.20685103760468"><ele>437.0</ele><time>2026-04-03T08:57:53.998Z</time></trkpt><trkpt lat="44.356415029723564" lon="8.206823397126326"><ele>437.00000000000006</ele><time>2026-04-03T08:57:54.998Z</time></trkpt><trkpt lat="44.35634812057057" lon="8.206801279221866"><ele>437.00000000000006</ele><time>2026-04-03T08:57:55.998Z</time></trkpt><trkpt lat="44.35622206483703" lon="8.206764076943184"><ele>437.0</ele><time>2026-04-03T08:57:57.998Z</time></trkpt><trkpt lat="44.3561582356653" lon="8.206739475920479"><ele>437.0</ele><time>2026-04-03T08:57:58.998Z</time></trkpt><trkpt lat="44.35603563779077" lon="8.206685330265246"><ele>437.49999999999994</ele><time>2026-04-03T08:58:01Z</time></trkpt><trkpt lat="44.35596398382015" lon="8.206658554687609"><ele>438.0</ele><time>2026-04-03T08:58:02Z</time></trkpt><trkpt lat="44.355893368848406" lon="8.206628938812914"><ele>438.5</ele><time>2026-04-03T08:58:03Z</time></trkpt><trkpt lat="44.35582073304639" lon="8.206603515409997"><ele>439.0</ele><time>2026-04-03T08:58:04Z</time></trkpt><trkpt lat="44.35574861344345" lon="8.20657737970052"><ele>439.49999999999994</ele><time>2026-04-03T08:58:05Z</time></trkpt><trkpt lat="44.35564554471958" lon="8.206541069056131"><ele>440.0</ele><time>2026-04-03T08:58:07Z</time></trkpt><trkpt lat="44.35558338375101" lon="8.20651515736232"><ele>440.99999999999994</ele><time>2026-04-03T08:58:08Z</time></trkpt><trkpt lat="44.355512225286816" lon="8.206497172617013"><ele>442.0</ele><time>2026-04-03T08:58:09Z</time></trkpt><trkpt lat="44.35544588517924" lon="8.206474592182214"><ele>443.0</ele><time>2026-04-03T08:58:10Z</time></trkpt><trkpt lat="44.355378385820394" lon="8.206458830260976"><ele>444.0</ele><time>2026-04-03T08:58:11Z</time></trkpt><trkpt lat="44.3553112554688" lon="8.206441423417672"><ele>445.0</ele><time>2026-04-03T08:58:12Z</time></trkpt><trkpt lat="44.35523751758643" lon="8.206436027205115"><ele>445.99999999999994</ele><time>2026-04-03T08:58:13Z</time></trkpt><trkpt lat="44.355170061920994" lon="8.20643102506341"><ele>447.0</ele><time>2026-04-03T08:58:14Z</time></trkpt><trkpt lat="44.35506288139368" lon="8.206436725409803"><ele>447.0</ele><time>2026-04-03T08:58:16Z</time></trkpt><trkpt lat="44.35492919747379" lon="8.206445662437716"><ele>447.00000000000006</ele><time>2026-04-03T08:58:18Z</time></trkpt><trkpt lat="44.35482120256064" lon="8.206403780561773"><ele>447.00000000000006</ele><time>2026-04-03T08:58:20Z</time></trkpt><trkpt lat="44.354765835939496" lon="8.206360961628652"><ele>447.0</ele><time>2026-04-03T08:58:21Z</time></trkpt><trkpt lat="44.35471810632158" lon="8.20629035050422"><ele>447.0</ele><time>2026-04-03T08:58:22Z</time></trkpt><trkpt lat="44.35465888804466" lon="8.206202987097617"><ele>445.6</ele><time>2026-04-03T08:58:23Z</time></trkpt><trkpt lat="44.354608909755875" lon="8.206098580470528"><ele>444.20000000000005</ele><time>2026-04-03T08:58:24Z</time></trkpt><trkpt lat="44.354551233867575" lon="8.205980891398676"><ele>442.8</ele><time>2026-04-03T08:58:25Z</time></trkpt><trkpt lat="44.354479469623605" lon="8.20585223186613"><ele>441.4</ele><time>2026-04-03T08:58:26Z</time></trkpt><trkpt lat="44.35440980885976" lon="8.20571322549279"><ele>440.0</ele><time>2026-04-03T08:58:27Z</time></trkpt><trkpt lat="44.35434725506278" lon="8.20559513083716"><ele>440.0</ele><time>2026-04-03T08:58:28Z</time></trkpt><trkpt lat="44.35429192685612" lon="8.205481289501733"><ele>440.0</ele><time>2026-04-03T08:58:29Z</time></trkpt><trkpt lat="44.35423604150828" lon="8.205384745947748"><ele>440.0</ele><time>2026-04-03T08:58:30Z</time></trkpt><trkpt lat="44.354163357939726" lon="8.20531291428478"><ele>440.0</ele><time>2026-04-03T08:58:31Z</time></trkpt><trkpt lat="44.35408036794188" lon="8.205263572424405"><ele>440.0</ele><time>2026-04-03T08:58:32Z</time></trkpt><trkpt lat="44.3539877738748" lon="8.20523077513687"><ele>440.0</ele><time>2026-04-03T08:58:33Z</time></trkpt><trkpt lat="44.353889245594985" lon="8.20521492025065"><ele>440.0</ele><time>2026-04-03T08:58:34Z</time></trkpt><trkpt lat="44.353780849151015" lon="8.205220673262993"><ele>440.0</ele><time>2026-04-03T08:58:35Z</time></trkpt><trkpt lat="44.3536770792158" lon="8.205255092288354"><ele>440.0</ele><time>2026-04-03T08:58:36Z</time></trkpt><trkpt lat="44.353561031799856" lon="8.205287414304525"><ele>440.0</ele><time>2026-04-03T08:58:37Z</time></trkpt><trkpt lat="44.353439629713414" lon="8.20532853415709"><ele>443.75</ele><time>2026-04-03T08:58:38Z</time></trkpt><trkpt lat="44.35332309459603" lon="8.205380131732303"><ele>447.5</ele><time>2026-04-03T08:58:39Z</time></trkpt><trkpt lat="44.35320010095722" lon="8.205455823156974"><ele>451.25</ele><time>2026-04-03T08:58:40Z</time></trkpt><trkpt lat="44.3530717150521" lon="8.20554800597002"><ele>455.0</ele><time>2026-04-03T08:58:41Z</time></trkpt><trkpt lat="44.35293451554375" lon="8.205654362672343"><ele>455.66666666666663</ele><time>2026-04-03T08:58:42Z</time></trkpt><trkpt lat="44.352792839057436" lon="8.20576055100749"><ele>456.33333333333337</ele><time>2026-04-03T08:58:42.999Z</time></trkpt><trkpt lat="44.35265623782888" lon="8.205872955481519"><ele>457.0</ele><time>2026-04-03T08:58:43.999Z</time></trkpt><trkpt lat="44.35252392800838" lon="8.205986724622946"><ele>457.0</ele><time>2026-04-03T08:58:44.999Z</time></trkpt><trkpt lat="44.35239306666764" lon="8.206086391201763"><ele>457.0</ele><time>2026-04-03T08:58:45.999Z</time></trkpt><trkpt lat="44.35228894767723" lon="8.206165599636641"><ele>457.0</ele><time>2026-04-03T08:58:46.999Z</time></trkpt><trkpt lat="44.352199020096045" lon="8.206248821040981"><ele>457.0</ele><time>2026-04-03T08:58:47.999Z</time></trkpt><trkpt lat="44.352103922410336" lon="8.206341550703277"><ele>457.25</ele><time>2026-04-03T08:58:48.999Z</time></trkpt><trkpt lat="44.35198962613244" lon="8.206446422404893"><ele>457.5</ele><time>2026-04-03T08:58:49.999Z</time></trkpt><trkpt lat="44.35188627362073" lon="8.206584662909789"><ele>457.75</ele><time>2026-04-03T08:58:50.999Z</time></trkpt><trkpt lat="44.35180213720885" lon="8.206755589320942"><ele>458.0</ele><time>2026-04-03T08:58:51.999Z</time></trkpt><trkpt lat="44.35173058858223" lon="8.206951650687317"><ele>458.0</ele><time>2026-04-03T08:58:52.999Z</time></trkpt><trkpt lat="44.35167838100869" lon="8.207127075392943"><ele>458.0</ele><time>2026-04-03T08:58:53.999Z</time></trkpt><trkpt lat="44.35162391773539" lon="8.207287576688262"><ele>458.0</ele><time>2026-04-03T08:58:54.999Z</time></trkpt><trkpt lat="44.35156743262431" lon="8.207417428413686"><ele>458.0</ele><time>2026-04-03T08:58:55.999Z</time></trkpt><trkpt lat="44.35150516842916" lon="8.2075360358813"><ele>455.75</ele><time>2026-04-03T08:58:56.999Z</time></trkpt><trkpt lat="44.351427481281554" lon="8.207662026496047"><ele>453.5</ele><time>2026-04-03T08:58:57.999Z</time></trkpt><trkpt lat="44.351324297491345" lon="8.207758724984101"><ele>451.25</ele><time>2026-04-03T08:58:58.999Z</time></trkpt><trkpt lat="44.351205629543294" lon="8.207845167238593"><ele>449.0</ele><time>2026-04-03T08:58:59.999Z</time></trkpt><trkpt lat="44.35107476300669" lon="8.207934684027236"><ele>458.0</ele><time>2026-04-03T08:59:00.999Z</time></trkpt><trkpt lat="44.350928000223725" lon="8.20798705792675"><ele>467.0</ele><time>2026-04-03T08:59:01.999Z</time></trkpt><trkpt lat="44.35077236608006" lon="8.208066897078533"><ele>476.0</ele><time>2026-04-03T08:59:02.999Z</time></trkpt><trkpt lat="44.35061971141919" lon="8.208147624559038"><ele>472.0</ele><time>2026-04-03T08:59:03.999Z</time></trkpt><trkpt lat="44.35046217342082" lon="8.208234019813577"><ele>468.0</ele><time>2026-04-03T08:59:04.999Z</time></trkpt><trkpt lat="44.350293239451766" lon="8.208325572294626"><ele>464.0</ele><time>2026-04-03T08:59:05.999Z</time></trkpt><trkpt lat="44.350129340173396" lon="8.208411380661627"><ele>464.0</ele><time>2026-04-03T08:59:06.999Z</time></trkpt><trkpt lat="44.349969126968425" lon="8.208494771903876"><ele>464.0</ele><time>2026-04-03T08:59:07.999Z</time></trkpt><trkpt lat="44.349816316218785" lon="8.208580370391863"><ele>464.0</ele><time>2026-04-03T08:59:08.999Z</time></trkpt><trkpt lat="44.349676813139226" lon="8.20865386828399"><ele>465.25</ele><time>2026-04-03T08:59:09.999Z</time></trkpt><trkpt lat="44.34954992643041" lon="8.20871152433603"><ele>466.5</ele><time>2026-04-03T08:59:10.999Z</time></trkpt><trkpt lat="44.349428129566576" lon="8.208775999289976"><ele>467.75</ele><time>2026-04-03T08:59:11.999Z</time></trkpt><trkpt lat="44.34930910148999" lon="8.208818105140827"><ele>469.0</ele><time>2026-04-03T08:59:12.999Z</time></trkpt><trkpt lat="44.34919825681214" lon="8.208831815736279"><ele>469.0</ele><time>2026-04-03T08:59:13.999Z</time></trkpt><trkpt lat="44.349071071737" lon="8.20881107954242"><ele>469.0</ele><time>2026-04-03T08:59:14.999Z</time></trkpt><trkpt lat="44.348947746315226" lon="8.208791839886828"><ele>469.0</ele><time>2026-04-03T08:59:15.999Z</time></trkpt><trkpt lat="44.34883321292937" lon="8.208757185363272"><ele>469.0</ele><time>2026-04-03T08:59:16.999Z</time></trkpt><trkpt lat="44.348713429230344" lon="8.208757525801438"><ele>470.5</ele><time>2026-04-03T08:59:17.999Z</time></trkpt><trkpt lat="44.34858226639532" lon="8.208814650686852"><ele>472.0</ele><time>2026-04-03T08:59:18.999Z</time></trkpt><trkpt lat="44.3484520726677" lon="8.208882841854882"><ele>473.5</ele><time>2026-04-03T08:59:19.999Z</time></trkpt><trkpt lat="44.34832335060883" lon="8.208987316068733"><ele>475.0</ele><time>2026-04-03T08:59:20.999Z</time></trkpt><trkpt lat="44.348192403723935" lon="8.209096414612045"><ele>471.33333333333337</ele><time>2026-04-03T08:59:21.999Z</time></trkpt><trkpt lat="44.34805405020279" lon="8.209215013308347"><ele>467.66666666666663</ele><time>2026-04-03T08:59:22.999Z</time></trkpt><trkpt lat="44.34791057571039" lon="8.209326606839628"><ele>464.0</ele><time>2026-04-03T08:59:23.999Z</time></trkpt><trkpt lat="44.34777884684757" lon="8.209443516849817"><ele>464.0</ele><time>2026-04-03T08:59:24.999Z</time></trkpt><trkpt lat="44.347654847391404" lon="8.209541918527263"><ele>464.0</ele><time>2026-04-03T08:59:25.999Z</time></trkpt><trkpt lat="44.34754513068528" lon="8.209629653425093"><ele>464.0</ele><time>2026-04-03T08:59:26.999Z</time></trkpt><trkpt lat="44.34743747622899" lon="8.209719490213526"><ele>464.0</ele><time>2026-04-03T08:59:27.999Z</time></trkpt><trkpt lat="44.34733809016944" lon="8.209810350975715"><ele>461.0</ele><time>2026-04-03T08:59:28.999Z</time></trkpt><trkpt lat="44.347246578992134" lon="8.209887709738982"><ele>458.0</ele><time>2026-04-03T08:59:29.999Z</time></trkpt><trkpt lat="44.347155444132135" lon="8.209957878999797"><ele>455.0</ele><time>2026-04-03T08:59:30.999Z</time></trkpt><trkpt lat="44.347066092327935" lon="8.210019173825069"><ele>452.0</ele><time>2026-04-03T08:59:31.999Z</time></trkpt><trkpt lat="44.34698658354077" lon="8.21006739281414"><ele>449.0</ele><time>2026-04-03T08:59:32.999Z</time></trkpt><trkpt lat="44.34690556087847" lon="8.21009488231087"><ele>449.0</ele><time>2026-04-03T08:59:33.999Z</time></trkpt><trkpt lat="44.34681882758911" lon="8.21008814018361"><ele>449.0</ele><time>2026-04-03T08:59:34.999Z</time></trkpt><trkpt lat="44.34673153506792" lon="8.210041153925339"><ele>449.0</ele><time>2026-04-03T08:59:35.999Z</time></trkpt><trkpt lat="44.34664612457911" lon="8.209963951210867"><ele>449.0</ele><time>2026-04-03T08:59:36.999Z</time></trkpt><trkpt lat="44.34657061766697" lon="8.209861874312658"><ele>449.0</ele><time>2026-04-03T08:59:37.999Z</time></trkpt><trkpt lat="44.34650664841649" lon="8.209727272353025"><ele>448.75</ele><time>2026-04-03T08:59:38.998Z</time></trkpt><trkpt lat="44.34642482691436" lon="8.209595826231462"><ele>448.5</ele><time>2026-04-03T08:59:39.998Z</time></trkpt><trkpt lat="44.346347461947666" lon="8.209464117560163"><ele>448.25</ele><time>2026-04-03T08:59:40.998Z</time></trkpt><trkpt lat="44.346282634405625" lon="8.20935014601129"><ele>448.0</ele><time>2026-04-03T08:59:41.998Z</time></trkpt><trkpt lat="44.346249153962724" lon="8.209215559670454"><ele>448.0</ele><time>2026-04-03T08:59:42.998Z</time></trkpt><trkpt lat="44.34624014085712" lon="8.209057349584828"><ele>448.0</ele><time>2026-04-03T08:59:43.998Z</time></trkpt><trkpt lat="44.34624153283231" lon="8.208888049681631"><ele>448.0</ele><time>2026-04-03T08:59:44.998Z</time></trkpt><trkpt lat="44.346230952996294" lon="8.208714114547591"><ele>448.0</ele><time>2026-04-03T08:59:45.998Z</time></trkpt><trkpt lat="44.346223875204316" lon="8.208554376753725"><ele>448.0</ele><time>2026-04-03T08:59:46.998Z</time></trkpt><trkpt lat="44.34621718574265" lon="8.208395662968751"><ele>447.99999999999994</ele><time>2026-04-03T08:59:47.998Z</time></trkpt><trkpt lat="44.34620300783095" lon="8.208246888683497"><ele>447.99999999999994</ele><time>2026-04-03T08:59:48.998Z</time></trkpt><trkpt lat="44.346193436496186" lon="8.208098797303425"><ele>448.0</ele><time>2026-04-03T08:59:49.998Z</time></trkpt><trkpt lat="44.3461807851131" lon="8.207947957342707"><ele>448.0</ele><time>2026-04-03T08:59:50.998Z</time></trkpt><trkpt lat="44.34616390594754" lon="8.207798116986266"><ele>448.4</ele><time>2026-04-03T08:59:51.998Z</time></trkpt><trkpt lat="44.34615029001977" lon="8.207646334117877"><ele>448.79999999999995</ele><time>2026-04-03T08:59:52.998Z</time></trkpt><trkpt lat="44.346138814963645" lon="8.207499377262504"><ele>449.2</ele><time>2026-04-03T08:59:53.998Z</time></trkpt><trkpt lat="44.3461216585816" lon="8.207347345396373"><ele>449.6</ele><time>2026-04-03T08:59:54.998Z</time></trkpt><trkpt lat="44.346103577986" lon="8.207197375575914"><ele>450.0</ele><time>2026-04-03T08:59:55.998Z</time></trkpt><trkpt lat="44.34608715995909" lon="8.207044875274772"><ele>451.6</ele><time>2026-04-03T08:59:56.998Z</time></trkpt><trkpt lat="44.3460699156238" lon="8.206892578345807"><ele>453.2</ele><time>2026-04-03T08:59:57.998Z</time></trkpt><trkpt lat="44.34605712846413" lon="8.206750274576587"><ele>454.79999999999995</ele><time>2026-04-03T08:59:58.998Z</time></trkpt><trkpt lat="44.3460363998227" lon="8.206612823460539"><ele>456.4</ele><time>2026-04-03T08:59:59.998Z</time></trkpt><trkpt lat="44.346011321433366" lon="8.206486738986815"><ele>458.0</ele><time>2026-04-03T09:00:00.998Z</time></trkpt><trkpt lat="44.3459858572606" lon="8.206369725596597"><ele>459.79999999999995</ele><time>2026-04-03T09:00:01.998Z</time></trkpt><trkpt lat="44.3459494296563" lon="8.206260383772868"><ele>461.59999999999997</ele><time>2026-04-03T09:00:02.998Z</time></trkpt><trkpt lat="44.34589704161031" lon="8.206152925018584"><ele>463.40000000000003</ele><time>2026-04-03T09:00:03.998Z</time></trkpt><trkpt lat="44.345828792171" lon="8.206053305632524"><ele>465.20000000000005</ele><time>2026-04-03T09:00:04.998Z</time></trkpt><trkpt lat="44.345750586062664" lon="8.205957837078827"><ele>467.0</ele><time>2026-04-03T09:00:06Z</time></trkpt><trkpt lat="44.34567050248577" lon="8.205892542868458"><ele>467.0</ele><time>2026-04-03T09:00:07Z</time></trkpt><trkpt lat="44.345584740170324" lon="8.205855727170462"><ele>467.00000000000006</ele><time>2026-04-03T09:00:08Z</time></trkpt><trkpt lat="44.34549260431055" lon="8.205835688049225"><ele>467.00000000000006</ele><time>2026-04-03T09:00:09Z</time></trkpt><trkpt lat="44.3453925660245" lon="8.20581449352697"><ele>467.0</ele><time>2026-04-03T09:00:10Z</time></trkpt><trkpt lat="44.3452964330048" lon="8.205778095639333"><ele>467.0</ele><time>2026-04-03T09:00:11Z</time></trkpt><trkpt lat="44.34519902001204" lon="8.205747994119235"><ele>464.0</ele><time>2026-04-03T09:00:12Z</time></trkpt><trkpt lat="44.34509912096887" lon="8.205701849906823"><ele>461.00000000000006</ele><time>2026-04-03T09:00:13Z</time></trkpt><trkpt lat="44.34499728523761" lon="8.205632484983456"><ele>458.00000000000006</ele><time>2026-04-03T09:00:14Z</time></trkpt><trkpt lat="44.34490111994245" lon="8.205559234461008"><ele>455.0</ele><time>2026-04-03T09:00:15Z</time></trkpt><trkpt lat="44.344815708455535" lon="8.205483981035151"><ele>452.0</ele><time>2026-04-03T09:00:16Z</time></trkpt><trkpt lat="44.34472507349376" lon="8.205409722727685"><ele>454.0</ele><time>2026-04-03T09:00:17Z</time></trkpt><trkpt lat="44.34463344052108" lon="8.205328837673305"><ele>456.00000000000006</ele><time>2026-04-03T09:00:18Z</time></trkpt><trkpt lat="44.34454006832719" lon="8.205243667542698"><ele>458.00000000000006</ele><time>2026-04-03T09:00:19Z</time></trkpt><trkpt lat="44.34444827644139" lon="8.205154793532062"><ele>460.0</ele><time>2026-04-03T09:00:20Z</time></trkpt><trkpt lat="44.3443647728976" lon="8.205086498894119"><ele>462.0</ele><time>2026-04-03T09:00:21Z</time></trkpt><trkpt lat="44.34427948029707" lon="8.205002507273438"><ele>462.0</ele><time>2026-04-03T09:00:22Z</time></trkpt><trkpt lat="44.344190044640015" lon="8.204916967248726"><ele>462.00000000000006</ele><time>2026-04-03T09:00:23Z</time></trkpt><trkpt lat="44.344097955585816" lon="8.204826248307285"><ele>462.00000000000006</ele><time>2026-04-03T09:00:24Z</time></trkpt><trkpt lat="44.34400363484148" lon="8.204750893954682"><ele>462.0</ele><time>2026-04-03T09:00:25Z</time></trkpt><trkpt lat="44.34389675183907" lon="8.204686214014103"><ele>462.0</ele><time>2026-04-03T09:00:26Z</time></trkpt><trkpt lat="44.34379368564619" lon="8.204624962739382"><ele>462.5</ele><time>2026-04-03T09:00:27Z</time></trkpt><trkpt lat="44.34367819287938" lon="8.204544416550926"><ele>463.0</ele><time>2026-04-03T09:00:28Z</time></trkpt><trkpt lat="44.343567966015144" lon="8.204438154591982"><ele>463.5</ele><time>2026-04-03T09:00:29Z</time></trkpt><trkpt lat="44.343463832199035" lon="8.20431168878653"><ele>464.0</ele><time>2026-04-03T09:00:30Z</time></trkpt><trkpt lat="44.343361121658134" lon="8.204168044043895"><ele>464.0</ele><time>2026-04-03T09:00:31Z</time></trkpt><trkpt lat="44.343263954745645" lon="8.204030827044345"><ele>464.0</ele><time>2026-04-03T09:00:32Z</time></trkpt><trkpt lat="44.34317493061625" lon="8.203902453525332"><ele>464.0</ele><time>2026-04-03T09:00:33Z</time></trkpt><trkpt lat="44.343112092223336" lon="8.203793798696344"><ele>464.0</ele><time>2026-04-03T09:00:34Z</time></trkpt><trkpt lat="44.343050858970784" lon="8.20367853496951"><ele>461.75</ele><time>2026-04-03T09:00:35Z</time></trkpt><trkpt lat="44.34300433089412" lon="8.203544262146634"><ele>459.5</ele><time>2026-04-03T09:00:36Z</time></trkpt><trkpt lat="44.3429692994028" lon="8.203373721642661"><ele>457.25</ele><time>2026-04-03T09:00:37Z</time></trkpt><trkpt lat="44.34295898438899" lon="8.2031895917922"><ele>455.0</ele><time>2026-04-03T09:00:38Z</time></trkpt><trkpt lat="44.34295739997905" lon="8.202993974671172"><ele>455.0</ele><time>2026-04-03T09:00:39Z</time></trkpt><trkpt lat="44.34295700893146" lon="8.202821493920355"><ele>455.0</ele><time>2026-04-03T09:00:40Z</time></trkpt><trkpt lat="44.342948171614246" lon="8.2026675164521"><ele>455.0</ele><time>2026-04-03T09:00:41Z</time></trkpt><trkpt lat="44.34291163259487" lon="8.202520406170562"><ele>455.0</ele><time>2026-04-03T09:00:42Z</time></trkpt><trkpt lat="44.3428552488585" lon="8.20237731737922"><ele>458.75</ele><time>2026-04-03T09:00:43Z</time></trkpt><trkpt lat="44.34278322129361" lon="8.202248032705086"><ele>462.5</ele><time>2026-04-03T09:00:44Z</time></trkpt><trkpt lat="44.342703515670266" lon="8.202129386332091"><ele>466.25</ele><time>2026-04-03T09:00:45Z</time></trkpt><trkpt lat="44.342594376897424" lon="8.202025000998578"><ele>470.0</ele><time>2026-04-03T09:00:46Z</time></trkpt><trkpt lat="44.34246850203097" lon="8.201935533560908"><ele>470.0</ele><time>2026-04-03T09:00:47Z</time></trkpt><trkpt lat="44.34235788759209" lon="8.201856345613399"><ele>470.0</ele><time>2026-04-03T09:00:48Z</time></trkpt><trkpt lat="44.34228270978527" lon="8.201782434237531"><ele>470.0</ele><time>2026-04-03T09:00:49Z</time></trkpt><trkpt lat="44.342208388214175" lon="8.201729921290251"><ele>470.0</ele><time>2026-04-03T09:00:50Z</time></trkpt><trkpt lat="44.342130432897875" lon="8.201682673316343"><ele>470.0</ele><time>2026-04-03T09:00:50.999Z</time></trkpt><trkpt lat="44.34205918687424" lon="8.201644453534652"><ele>466.8333333333333</ele><time>2026-04-03T09:00:51.999Z</time></trkpt><trkpt lat="44.34198983585693" lon="8.201612640650728"><ele>463.66666666666663</ele><time>2026-04-03T09:00:52.999Z</time></trkpt><trkpt lat="44.341922604868266" lon="8.201601702135678"><ele>460.5</ele><time>2026-04-03T09:00:53.999Z</time></trkpt><trkpt lat="44.34185740237419" lon="8.201607060848204"><ele>457.33333333333337</ele><time>2026-04-03T09:00:54.999Z</time></trkpt><trkpt lat="44.341794921508075" lon="8.201654628863134"><ele>454.1666666666667</ele><time>2026-04-03T09:00:55.999Z</time></trkpt><trkpt lat="44.34172642775803" lon="8.201728094213493"><ele>451.0</ele><time>2026-04-03T09:00:56.999Z</time></trkpt><trkpt lat="44.34165778332334" lon="8.201824474192124"><ele>451.0</ele><time>2026-04-03T09:00:57.999Z</time></trkpt><trkpt lat="44.34158421238829" lon="8.201933050103692"><ele>451.0</ele><time>2026-04-03T09:00:58.999Z</time></trkpt><trkpt lat="44.341504193564994" lon="8.202054957860401"><ele>451.0</ele><time>2026-04-03T09:00:59.999Z</time></trkpt><trkpt lat="44.34142442531079" lon="8.202168778898718"><ele>451.0</ele><time>2026-04-03T09:01:00.999Z</time></trkpt><trkpt lat="44.34135355444022" lon="8.20226747859927"><ele>451.0</ele><time>2026-04-03T09:01:01.999Z</time></trkpt><trkpt lat="44.3412822724093" lon="8.202355126339162"><ele>452.0</ele><time>2026-04-03T09:01:02.999Z</time></trkpt><trkpt lat="44.341208486450284" lon="8.202435001112972"><ele>453.0</ele><time>2026-04-03T09:01:03.999Z</time></trkpt><trkpt lat="44.34111727096587" lon="8.202510070712243"><ele>454.0</ele><time>2026-04-03T09:01:04.999Z</time></trkpt><trkpt lat="44.341014449951466" lon="8.202566612813177"><ele>455.0</ele><time>2026-04-03T09:01:05.999Z</time></trkpt><trkpt lat="44.340911109410904" lon="8.202607431253996"><ele>456.0</ele><time>2026-04-03T09:01:06.999Z</time></trkpt><trkpt lat="44.340818954471004" lon="8.202645621218133"><ele>456.0</ele><time>2026-04-03T09:01:07.999Z</time></trkpt><trkpt lat="44.3407203726967" lon="8.202689156365574"><ele>456.0</ele><time>2026-04-03T09:01:08.999Z</time></trkpt><trkpt lat="44.34062065887917" lon="8.202740115287947"><ele>456.0</ele><time>2026-04-03T09:01:09.999Z</time></trkpt><trkpt lat="44.34053409315056" lon="8.202797925928714"><ele>456.0</ele><time>2026-04-03T09:01:10.999Z</time></trkpt><trkpt lat="44.3404463684157" lon="8.20286676038533"><ele>456.0</ele><time>2026-04-03T09:01:11.999Z</time></trkpt><trkpt lat="44.34036094201372" lon="8.20293982901879"><ele>455.20000000000005</ele><time>2026-04-03T09:01:12.999Z</time></trkpt><trkpt lat="44.340284486723995" lon="8.203026254147389"><ele>454.40000000000003</ele><time>2026-04-03T09:01:13.999Z</time></trkpt><trkpt lat="44.34020150211141" lon="8.203118934987115"><ele>453.6</ele><time>2026-04-03T09:01:14.999Z</time></trkpt><trkpt lat="44.34011843242491" lon="8.203220388094088"><ele>452.8</ele><time>2026-04-03T09:01:15.999Z</time></trkpt><trkpt lat="44.340044958746226" lon="8.203319905922616"><ele>452.0</ele><time>2026-04-03T09:01:16.999Z</time></trkpt><trkpt lat="44.33998079692953" lon="8.203414165193054"><ele>452.40000000000003</ele><time>2026-04-03T09:01:17.999Z</time></trkpt><trkpt lat="44.33991552926977" lon="8.203502097130873"><ele>452.80000000000007</ele><time>2026-04-03T09:01:18.999Z</time></trkpt><trkpt lat="44.33984882686401" lon="8.203598124741903"><ele>453.2</ele><time>2026-04-03T09:01:19.999Z</time></trkpt><trkpt lat="44.339776250617376" lon="8.203686988395633"><ele>453.6</ele><time>2026-04-03T09:01:20.999Z</time></trkpt><trkpt lat="44.33969445411223" lon="8.203767977097622"><ele>454.0</ele><time>2026-04-03T09:01:21.999Z</time></trkpt><trkpt lat="44.339612394014516" lon="8.203843131262639"><ele>454.0</ele><time>2026-04-03T09:01:22.999Z</time></trkpt><trkpt lat="44.339511322298115" lon="8.203901164691812"><ele>454.0</ele><time>2026-04-03T09:01:23.999Z</time></trkpt><trkpt lat="44.33942711835136" lon="8.20398174006572"><ele>454.0</ele><time>2026-04-03T09:01:24.999Z</time></trkpt><trkpt lat="44.33934744806202" lon="8.204059663096613"><ele>454.0</ele><time>2026-04-03T09:01:25.999Z</time></trkpt><trkpt lat="44.33926140656107" lon="8.204137693705393"><ele>454.0</ele><time>2026-04-03T09:01:26.999Z</time></trkpt><trkpt lat="44.339182766235076" lon="8.204214705928871"><ele>454.0</ele><time>2026-04-03T09:01:27.999Z</time></trkpt><trkpt lat="44.339096028521496" lon="8.204291666146135"><ele>454.0</ele><time>2026-04-03T09:01:28.999Z</time></trkpt><trkpt lat="44.33900801957731" lon="8.204368334996378"><ele>454.0</ele><time>2026-04-03T09:01:29.999Z</time></trkpt><trkpt lat="44.3389211069347" lon="8.20444734836925"><ele>454.0</ele><time>2026-04-03T09:01:30.999Z</time></trkpt><trkpt lat="44.338833768424465" lon="8.20452941337296"><ele>454.0</ele><time>2026-04-03T09:01:31.999Z</time></trkpt><trkpt lat="44.33874545738003" lon="8.20461493252224"><ele>454.0</ele><time>2026-04-03T09:01:32.999Z</time></trkpt><trkpt lat="44.3386578458588" lon="8.204693921615815"><ele>454.0</ele><time>2026-04-03T09:01:33.999Z</time></trkpt><trkpt lat="44.33857526894255" lon="8.204775551788329"><ele>454.0</ele><time>2026-04-03T09:01:34.999Z</time></trkpt><trkpt lat="44.3384910740749" lon="8.20484745829835"><ele>454.0</ele><time>2026-04-03T09:01:35.999Z</time></trkpt><trkpt lat="44.338401011004926" lon="8.20492273399979"><ele>454.0</ele><time>2026-04-03T09:01:36.999Z</time></trkpt><trkpt lat="44.338305128502796" lon="8.205003408563112"><ele>454.0</ele><time>2026-04-03T09:01:37.999Z</time></trkpt><trkpt lat="44.338203431613515" lon="8.205081301380059"><ele>454.0</ele><time>2026-04-03T09:01:38.999Z</time></trkpt><trkpt lat="44.33811231223581" lon="8.205150361368675"><ele>454.0</ele><time>2026-04-03T09:01:39.999Z</time></trkpt><trkpt lat="44.33802468980232" lon="8.205218469890267"><ele>454.0</ele><time>2026-04-03T09:01:40.999Z</time></trkpt><trkpt lat="44.33793798825368" lon="8.205289025197139"><ele>454.0</ele><time>2026-04-03T09:01:41.999Z</time></trkpt><trkpt lat="44.33785444504366" lon="8.205349687003658"><ele>454.0</ele><time>2026-04-03T09:01:42.999Z</time></trkpt><trkpt lat="44.33776693127543" lon="8.205422189894552"><ele>454.0</ele><time>2026-04-03T09:01:43.999Z</time></trkpt><trkpt lat="44.337686035124456" lon="8.205512022882864"><ele>454.0</ele><time>2026-04-03T09:01:44.999Z</time></trkpt><trkpt lat="44.33761681044848" lon="8.205612163158543"><ele>454.0</ele><time>2026-04-03T09:01:45.999Z</time></trkpt><trkpt lat="44.33755775581259" lon="8.205734522382228"><ele>454.0</ele><time>2026-04-03T09:01:46.999Z</time></trkpt><trkpt lat="44.33750586472178" lon="8.205875479169531"><ele>455.0</ele><time>2026-04-03T09:01:47.998Z</time></trkpt><trkpt lat="44.3374646473829" lon="8.20601646717326"><ele>456.0</ele><time>2026-04-03T09:01:48.998Z</time></trkpt><trkpt lat="44.3374299417586" lon="8.206153566640982"><ele>457.0</ele><time>2026-04-03T09:01:49.998Z</time></trkpt><trkpt lat="44.33740458166714" lon="8.206298680148182"><ele>458.0</ele><time>2026-04-03T09:01:50.998Z</time></trkpt><trkpt lat="44.33738640542267" lon="8.20645641502584"><ele>459.0</ele><time>2026-04-03T09:01:51.998Z</time></trkpt><trkpt lat="44.33737514136256" lon="8.206597605691087"><ele>459.2</ele><time>2026-04-03T09:01:52.998Z</time></trkpt><trkpt lat="44.33736575330961" lon="8.20673969748969"><ele>459.4</ele><time>2026-04-03T09:01:53.998Z</time></trkpt><trkpt lat="44.3373572813397" lon="8.206883818530173"><ele>459.6</ele><time>2026-04-03T09:01:54.998Z</time></trkpt><trkpt lat="44.337347369871104" lon="8.207034243643536"><ele>459.8</ele><time>2026-04-03T09:01:55.998Z</time></trkpt><trkpt lat="44.33733718581376" lon="8.207174095780726"><ele>460.0</ele><time>2026-04-03T09:01:56.998Z</time></trkpt><trkpt lat="44.33732325927098" lon="8.20732434604532"><ele>460.0</ele><time>2026-04-03T09:01:57.998Z</time></trkpt><trkpt lat="44.337304182253234" lon="8.207472782683055"><ele>460.0</ele><time>2026-04-03T09:01:58.998Z</time></trkpt><trkpt lat="44.33728470593268" lon="8.207630951762766"><ele>460.0</ele><time>2026-04-03T09:01:59.998Z</time></trkpt><trkpt lat="44.33725766725228" lon="8.207790248229559"><ele>460.0</ele><time>2026-04-03T09:02:00.998Z</time></trkpt><trkpt lat="44.33723566364903" lon="8.20794436439505"><ele>459.4</ele><time>2026-04-03T09:02:01.998Z</time></trkpt><trkpt lat="44.33721101617843" lon="8.208099001245424"><ele>458.8</ele><time>2026-04-03T09:02:02.998Z</time></trkpt><trkpt lat="44.33718466152407" lon="8.208250788883676"><ele>458.20000000000005</ele><time>2026-04-03T09:02:03.998Z</time></trkpt><trkpt lat="44.337156850319005" lon="8.20840718556335"><ele>457.6</ele><time>2026-04-03T09:02:04.998Z</time></trkpt><trkpt lat="44.337129825979936" lon="8.208554024433042"><ele>457.0</ele><time>2026-04-03T09:02:05.998Z</time></trkpt><trkpt lat="44.33710278709897" lon="8.208702846345984"><ele>457.0</ele><time>2026-04-03T09:02:06.998Z</time></trkpt><trkpt lat="44.337075539438516" lon="8.208836717694387"><ele>457.00000000000006</ele><time>2026-04-03T09:02:07.998Z</time></trkpt><trkpt lat="44.337044321448914" lon="8.208981293764664"><ele>457.00000000000006</ele><time>2026-04-03T09:02:08.998Z</time></trkpt><trkpt lat="44.3370176376601" lon="8.209121003589793"><ele>457.0</ele><time>2026-04-03T09:02:09.998Z</time></trkpt><trkpt lat="44.33698951165078" lon="8.209268452448711"><ele>457.0</ele><time>2026-04-03T09:02:10.998Z</time></trkpt><trkpt lat="44.33696182250125" lon="8.209410591755482"><ele>457.6</ele><time>2026-04-03T09:02:12Z</time></trkpt><trkpt lat="44.33693413189647" lon="8.209554774671643"><ele>458.20000000000005</ele><time>2026-04-03T09:02:13Z</time></trkpt><trkpt lat="44.336909062292456" lon="8.209702109209392"><ele>458.8</ele><time>2026-04-03T09:02:14Z</time></trkpt><trkpt lat="44.336880498839726" lon="8.20985483530306"><ele>459.4</ele><time>2026-04-03T09:02:15Z</time></trkpt><trkpt lat="44.336849086129675" lon="8.210005266538932"><ele>460.0</ele><time>2026-04-03T09:02:16Z</time></trkpt><trkpt lat="44.33682223049685" lon="8.210160931696928"><ele>460.4</ele><time>2026-04-03T09:02:17Z</time></trkpt><trkpt lat="44.33679475209638" lon="8.210314043953272"><ele>460.8</ele><time>2026-04-03T09:02:18Z</time></trkpt><trkpt lat="44.33676679447666" lon="8.210461418262234"><ele>461.20000000000005</ele><time>2026-04-03T09:02:19Z</time></trkpt><trkpt lat="44.33674097655787" lon="8.210606487963384"><ele>461.6</ele><time>2026-04-03T09:02:20Z</time></trkpt><trkpt lat="44.336714107841374" lon="8.21074703085373"><ele>462.0</ele><time>2026-04-03T09:02:21Z</time></trkpt><trkpt lat="44.33668859555708" lon="8.210894658931899"><ele>463.40000000000003</ele><time>2026-04-03T09:02:22Z</time></trkpt><trkpt lat="44.33666157572508" lon="8.211039823715032"><ele>464.80000000000007</ele><time>2026-04-03T09:02:23Z</time></trkpt><trkpt lat="44.336638233621564" lon="8.21117070372416"><ele>466.2</ele><time>2026-04-03T09:02:24Z</time></trkpt><trkpt lat="44.33661544038999" lon="8.211305368851713"><ele>467.6</ele><time>2026-04-03T09:02:25Z</time></trkpt><trkpt lat="44.33657749558336" lon="8.211433736843706"><ele>469.0</ele><time>2026-04-03T09:02:26Z</time></trkpt><trkpt lat="44.336520883223905" lon="8.211558263897556"><ele>470.6</ele><time>2026-04-03T09:02:27Z</time></trkpt><trkpt lat="44.336451848853876" lon="8.211673183571794"><ele>472.2</ele><time>2026-04-03T09:02:28Z</time></trkpt><trkpt lat="44.33637117277425" lon="8.211784571031064"><ele>473.80000000000007</ele><time>2026-04-03T09:02:29Z</time></trkpt><trkpt lat="44.33629061490187" lon="8.2118795208605"><ele>475.40000000000003</ele><time>2026-04-03T09:02:30Z</time></trkpt><trkpt lat="44.336213727359855" lon="8.211963333400247"><ele>477.0</ele><time>2026-04-03T09:02:31Z</time></trkpt><trkpt lat="44.33612975053844" lon="8.212057164656978"><ele>474.8</ele><time>2026-04-03T09:02:32Z</time></trkpt><trkpt lat="44.33604137706328" lon="8.212141771011549"><ele>472.6</ele><time>2026-04-03T09:02:33Z</time></trkpt><trkpt lat="44.335952283523575" lon="8.212220224381333"><ele>470.40000000000003</ele><time>2026-04-03T09:02:34Z</time></trkpt><trkpt lat="44.335865831196976" lon="8.21230202824305"><ele>468.20000000000005</ele><time>2026-04-03T09:02:35Z</time></trkpt><trkpt lat="44.3357761957291" lon="8.212375091956938"><ele>466.0</ele><time>2026-04-03T09:02:36Z</time></trkpt><trkpt lat="44.335684770198306" lon="8.212427168464712"><ele>466.0</ele><time>2026-04-03T09:02:37Z</time></trkpt><trkpt lat="44.3355896524387" lon="8.212458939193406"><ele>466.0</ele><time>2026-04-03T09:02:38Z</time></trkpt><trkpt lat="44.33548672187167" lon="8.212456031622885"><ele>466.0</ele><time>2026-04-03T09:02:39Z</time></trkpt><trkpt lat="44.335385044041864" lon="8.212434230976813"><ele>466.0</ele><time>2026-04-03T09:02:40Z</time></trkpt><trkpt lat="44.33528414398388" lon="8.212395367326812"><ele>466.0</ele><time>2026-04-03T09:02:41Z</time></trkpt><trkpt lat="44.33518615824771" lon="8.212345042628533"><ele>465.8</ele><time>2026-04-03T09:02:42Z</time></trkpt><trkpt lat="44.33508459094392" lon="8.212289618466619"><ele>465.6</ele><time>2026-04-03T09:02:43Z</time></trkpt><trkpt lat="44.33498264201293" lon="8.212229045361651"><ele>465.4</ele><time>2026-04-03T09:02:44Z</time></trkpt><trkpt lat="44.334881273582994" lon="8.212171312849101"><ele>465.2</ele><time>2026-04-03T09:02:45Z</time></trkpt><trkpt lat="44.33478311153701" lon="8.21211637987458"><ele>465.0</ele><time>2026-04-03T09:02:46Z</time></trkpt><trkpt lat="44.33468131333026" lon="8.212058474418516"><ele>465.0</ele><time>2026-04-03T09:02:47Z</time></trkpt><trkpt lat="44.33458367967002" lon="8.212004845623044"><ele>465.0</ele><time>2026-04-03T09:02:48Z</time></trkpt><trkpt lat="44.3344810570902" lon="8.211949842077793"><ele>465.0</ele><time>2026-04-03T09:02:49Z</time></trkpt><trkpt lat="44.33438105611514" lon="8.211894077000151"><ele>465.0</ele><time>2026-04-03T09:02:50Z</time></trkpt><trkpt lat="44.33428396130317" lon="8.211843825743815"><ele>465.0</ele><time>2026-04-03T09:02:51Z</time></trkpt><trkpt lat="44.33418282987976" lon="8.211793289050817"><ele>465.0</ele><time>2026-04-03T09:02:52Z</time></trkpt><trkpt lat="44.33409157249846" lon="8.21174653323795"><ele>465.0</ele><time>2026-04-03T09:02:53Z</time></trkpt><trkpt lat="44.334011157118574" lon="8.211701831672816"><ele>465.0</ele><time>2026-04-03T09:02:54Z</time></trkpt><trkpt lat="44.33393583902819" lon="8.211636315271267"><ele>465.0</ele><time>2026-04-03T09:02:55Z</time></trkpt><trkpt lat="44.333875278821345" lon="8.21156522113699"><ele>465.0</ele><time>2026-04-03T09:02:55.999Z</time></trkpt><trkpt lat="44.33382164532418" lon="8.211475358230208"><ele>465.0</ele><time>2026-04-03T09:02:56.999Z</time></trkpt><trkpt lat="44.3337737877688" lon="8.211361551027247"><ele>468.4</ele><time>2026-04-03T09:02:57.999Z</time></trkpt><trkpt lat="44.3337231047822" lon="8.211226252608897"><ele>471.8</ele><time>2026-04-03T09:02:58.999Z</time></trkpt><trkpt lat="44.33367096353397" lon="8.211083423192887"><ele>475.20000000000005</ele><time>2026-04-03T09:02:59.999Z</time></trkpt><trkpt lat="44.33362505042746" lon="8.210957087810515"><ele>478.6</ele><time>2026-04-03T09:03:00.999Z</time></trkpt><trkpt lat="44.333592991288334" lon="8.210812607076395"><ele>482.0</ele><time>2026-04-03T09:03:01.999Z</time></trkpt><trkpt lat="44.33353423348068" lon="8.21069881114324"><ele>479.66666666666663</ele><time>2026-04-03T09:03:02.999Z</time></trkpt><trkpt lat="44.3335027166943" lon="8.210569350722272"><ele>477.3333333333333</ele><time>2026-04-03T09:03:03.999Z</time></trkpt><trkpt lat="44.33346355271025" lon="8.210462165148043"><ele>475.0</ele><time>2026-04-03T09:03:04.999Z</time></trkpt><trkpt lat="44.3334256034019" lon="8.210358303889352"><ele>472.66666666666663</ele><time>2026-04-03T09:03:05.999Z</time></trkpt><trkpt lat="44.333391562388" lon="8.210259096172566"><ele>470.3333333333333</ele><time>2026-04-03T09:03:06.999Z</time></trkpt><trkpt lat="44.333359584969195" lon="8.210159772334748"><ele>468.0</ele><time>2026-04-03T09:03:07.999Z</time></trkpt><trkpt lat="44.333328605607456" lon="8.210059166252451"><ele>468.0</ele><time>2026-04-03T09:03:08.999Z</time></trkpt><trkpt lat="44.33332605912804" lon="8.209946490001066"><ele>468.0</ele><time>2026-04-03T09:03:09.999Z</time></trkpt><trkpt lat="44.333339025844786" lon="8.209828917419301"><ele>468.0</ele><time>2026-04-03T09:03:10.999Z</time></trkpt><trkpt lat="44.33340157141624" lon="8.209740836180263"><ele>468.0</ele><time>2026-04-03T09:03:11.999Z</time></trkpt><trkpt lat="44.33344899068303" lon="8.209638569334547"><ele>468.0</ele><time>2026-04-03T09:03:12.999Z</time></trkpt><trkpt lat="44.333506731850036" lon="8.209524008660766"><ele>468.0</ele><time>2026-04-03T09:03:13.999Z</time></trkpt><trkpt lat="44.33356395654474" lon="8.209413526107838"><ele>468.0</ele><time>2026-04-03T09:03:14.999Z</time></trkpt><trkpt lat="44.33361391001996" lon="8.209311285948916"><ele>468.0</ele><time>2026-04-03T09:03:15.999Z</time></trkpt><trkpt lat="44.33364756101508" lon="8.209206250939669"><ele>468.0</ele><time>2026-04-03T09:03:16.999Z</time></trkpt><trkpt lat="44.33368506249042" lon="8.209115741097296"><ele>468.0</ele><time>2026-04-03T09:03:17.999Z</time></trkpt><trkpt lat="44.33370687081831" lon="8.209021980292036"><ele>468.0</ele><time>2026-04-03T09:03:18.999Z</time></trkpt><trkpt lat="44.33372994763062" lon="8.208910765658864"><ele>468.0</ele><time>2026-04-03T09:03:19.999Z</time></trkpt><trkpt lat="44.333711420011646" lon="8.208797646223005"><ele>468.0</ele><time>2026-04-03T09:03:20.999Z</time></trkpt><trkpt lat="44.33366854569776" lon="8.208691634945549"><ele>467.99999999999994</ele><time>2026-04-03T09:03:21.999Z</time></trkpt><trkpt lat="44.333585392988624" lon="8.208613040268327"><ele>467.99999999999994</ele><time>2026-04-03T09:03:22.999Z</time></trkpt><trkpt lat="44.33351463159895" lon="8.208512704093197"><ele>468.0</ele><time>2026-04-03T09:03:23.999Z</time></trkpt><trkpt lat="44.33343762596071" lon="8.208398099274962"><ele>468.0</ele><time>2026-04-03T09:03:24.999Z</time></trkpt><trkpt lat="44.33335292800966" lon="8.208282122894131"><ele>468.0</ele><time>2026-04-03T09:03:25.999Z</time></trkpt><trkpt lat="44.33327114877801" lon="8.208160044257108"><ele>467.99999999999994</ele><time>2026-04-03T09:03:26.999Z</time></trkpt><trkpt lat="44.33319567319878" lon="8.208054266405005"><ele>467.99999999999994</ele><time>2026-04-03T09:03:27.999Z</time></trkpt><trkpt lat="44.333123574774355" lon="8.207939665292116"><ele>468.0</ele><time>2026-04-03T09:03:28.999Z</time></trkpt><trkpt lat="44.333051049498515" lon="8.207820118548806"><ele>468.0</ele><time>2026-04-03T09:03:29.999Z</time></trkpt><trkpt lat="44.33297906225032" lon="8.2077029267825"><ele>467.4</ele><time>2026-04-03T09:03:30.999Z</time></trkpt><trkpt lat="44.332924809744505" lon="8.207575911741353"><ele>466.79999999999995</ele><time>2026-04-03T09:03:31.999Z</time></trkpt><trkpt lat="44.33286516410291" lon="8.207441388818733"><ele>466.2</ele><time>2026-04-03T09:03:32.999Z</time></trkpt><trkpt lat="44.332816851359794" lon="8.207313704788445"><ele>465.6</ele><time>2026-04-03T09:03:33.999Z</time></trkpt><trkpt lat="44.33276365462954" lon="8.207178087417397"><ele>465.0</ele><time>2026-04-03T09:03:34.999Z</time></trkpt><trkpt lat="44.332718303882984" lon="8.207043796018358"><ele>465.0</ele><time>2026-04-03T09:03:35.999Z</time></trkpt><trkpt lat="44.332671068981476" lon="8.206903987247982"><ele>465.0</ele><time>2026-04-03T09:03:36.999Z</time></trkpt><trkpt lat="44.332640184787294" lon="8.206763865361873"><ele>465.0</ele><time>2026-04-03T09:03:37.999Z</time></trkpt><trkpt lat="44.332586496652674" lon="8.206626663115863"><ele>465.0</ele><time>2026-04-03T09:03:38.999Z</time></trkpt><trkpt lat="44.33252587884074" lon="8.206489709981406"><ele>465.0</ele><time>2026-04-03T09:03:39.999Z</time></trkpt><trkpt lat="44.33245543178304" lon="8.206353665736764"><ele>466.0</ele><time>2026-04-03T09:03:40.999Z</time></trkpt><trkpt lat="44.332385457545904" lon="8.20623131846976"><ele>467.0</ele><time>2026-04-03T09:03:41.999Z</time></trkpt><trkpt lat="44.3323101493318" lon="8.206109201837076"><ele>468.0</ele><time>2026-04-03T09:03:42.999Z</time></trkpt><trkpt lat="44.332234009606076" lon="8.205996635776467"><ele>469.0</ele><time>2026-04-03T09:03:43.999Z</time></trkpt><trkpt lat="44.33215274065129" lon="8.205894628076694"><ele>470.0</ele><time>2026-04-03T09:03:44.999Z</time></trkpt><trkpt lat="44.33207460946288" lon="8.205807424959701"><ele>470.0</ele><time>2026-04-03T09:03:45.999Z</time></trkpt><trkpt lat="44.33199457721998" lon="8.20572361308385"><ele>470.0</ele><time>2026-04-03T09:03:46.999Z</time></trkpt><trkpt lat="44.331919427367836" lon="8.205652136031947"><ele>470.0</ele><time>2026-04-03T09:03:47.999Z</time></trkpt><trkpt lat="44.33184319879975" lon="8.205577762809662"><ele>470.0</ele><time>2026-04-03T09:03:48.999Z</time></trkpt><trkpt lat="44.33176304851744" lon="8.205503671229405"><ele>470.0</ele><time>2026-04-03T09:03:49.999Z</time></trkpt><trkpt lat="44.331678935376594" lon="8.20542582858015"><ele>469.2</ele><time>2026-04-03T09:03:50.999Z</time></trkpt><trkpt lat="44.33159968580326" lon="8.20536942398613"><ele>468.4</ele><time>2026-04-03T09:03:51.998Z</time></trkpt><trkpt lat="44.33150317780686" lon="8.205318404923922"><ele>467.6</ele><time>2026-04-03T09:03:52.998Z</time></trkpt><trkpt lat="44.33139580287386" lon="8.205265625606398"><ele>466.8</ele><time>2026-04-03T09:03:53.998Z</time></trkpt><trkpt lat="44.3312771674419" lon="8.205203980572152"><ele>466.0</ele><time>2026-04-03T09:03:54.998Z</time></trkpt><trkpt lat="44.33115526129976" lon="8.205145000561583"><ele>465.75</ele><time>2026-04-03T09:03:55.998Z</time></trkpt><trkpt lat="44.331024774760294" lon="8.205082460064826"><ele>465.5</ele><time>2026-04-03T09:03:56.998Z</time></trkpt><trkpt lat="44.33089638068087" lon="8.205018428051925"><ele>465.25</ele><time>2026-04-03T09:03:57.998Z</time></trkpt><trkpt lat="44.33078205968664" lon="8.204962177975938"><ele>465.0</ele><time>2026-04-03T09:03:58.998Z</time></trkpt><trkpt lat="44.33066740750749" lon="8.204908533670475"><ele>467.25</ele><time>2026-04-03T09:03:59.998Z</time></trkpt><trkpt lat="44.33054217303959" lon="8.204852098697604"><ele>469.5</ele><time>2026-04-03T09:04:00.998Z</time></trkpt><trkpt lat="44.330430415610124" lon="8.20479319135813"><ele>471.75</ele><time>2026-04-03T09:04:01.998Z</time></trkpt><trkpt lat="44.330304433264565" lon="8.204731062013023"><ele>474.0</ele><time>2026-04-03T09:04:02.998Z</time></trkpt><trkpt lat="44.330195853855344" lon="8.204665038678936"><ele>475.1666666666667</ele><time>2026-04-03T09:04:03.998Z</time></trkpt><trkpt lat="44.33010092562298" lon="8.20461132466397"><ele>476.33333333333337</ele><time>2026-04-03T09:04:04.998Z</time></trkpt><trkpt lat="44.33001605732625" lon="8.204568347498821"><ele>477.5</ele><time>2026-04-03T09:04:05.998Z</time></trkpt><trkpt lat="44.329940298068806" lon="8.20452565270686"><ele>478.6666666666667</ele><time>2026-04-03T09:04:06.998Z</time></trkpt><trkpt lat="44.3298815171488" lon="8.204492133807202"><ele>479.83333333333337</ele><time>2026-04-03T09:04:07.998Z</time></trkpt><trkpt lat="44.32983357528383" lon="8.204425532875002"><ele>481.0</ele><time>2026-04-03T09:04:09.998Z</time></trkpt><trkpt lat="44.32975696070709" lon="8.204392002096535"><ele>481.0</ele><time>2026-04-03T09:04:13.998Z</time></trkpt><trkpt lat="44.32979450644721" lon="8.204466254839938"><ele>481.0</ele><time>2026-04-03T09:04:24Z</time></trkpt><trkpt lat="44.32991152651517" lon="8.204531478804839"><ele>481.0</ele><time>2026-04-03T09:04:26Z</time></trkpt><trkpt lat="44.33002900169404" lon="8.20465705749937"><ele>481.0</ele><time>2026-04-03T09:04:27Z</time></trkpt><trkpt lat="44.33015149552092" lon="8.20470440400231"><ele>481.0</ele><time>2026-04-03T09:04:28Z</time></trkpt><trkpt lat="44.330271000352425" lon="8.20475899060051"><ele>481.0</ele><time>2026-04-03T09:04:29Z</time></trkpt><trkpt lat="44.33040093918251" lon="8.204815800384086"><ele>481.0</ele><time>2026-04-03T09:04:30Z</time></trkpt><trkpt lat="44.33053795841699" lon="8.204887371734635"><ele>481.0</ele><time>2026-04-03T09:04:31Z</time></trkpt><trkpt lat="44.33067227668554" lon="8.204940919443478"><ele>477.0</ele><time>2026-04-03T09:04:32Z</time></trkpt><trkpt lat="44.330804208277414" lon="8.205007819978604"><ele>473.0</ele><time>2026-04-03T09:04:33Z</time></trkpt><trkpt lat="44.33093551525909" lon="8.205086013367161"><ele>469.0</ele><time>2026-04-03T09:04:34Z</time></trkpt><trkpt lat="44.33105287968012" lon="8.205142119891487"><ele>465.0</ele><time>2026-04-03T09:04:35Z</time></trkpt><trkpt lat="44.33116289698059" lon="8.205195565905312"><ele>465.0</ele><time>2026-04-03T09:04:36Z</time></trkpt><trkpt lat="44.331264626841275" lon="8.20525343121034"><ele>465.0</ele><time>2026-04-03T09:04:37Z</time></trkpt><trkpt lat="44.331355715606996" lon="8.205293646833898"><ele>465.0</ele><time>2026-04-03T09:04:38Z</time></trkpt><trkpt lat="44.33143972720696" lon="8.205338544962915"><ele>465.0</ele><time>2026-04-03T09:04:39Z</time></trkpt><trkpt lat="44.33152039460078" lon="8.205391612205325"><ele>465.0</ele><time>2026-04-03T09:04:40Z</time></trkpt><trkpt lat="44.331588875152335" lon="8.205433112298433"><ele>465.2</ele><time>2026-04-03T09:04:41Z</time></trkpt><trkpt lat="44.33168694303787" lon="8.205505620745722"><ele>465.4</ele><time>2026-04-03T09:04:43Z</time></trkpt><trkpt lat="44.33172582583406" lon="8.205628339287863"><ele>465.6</ele><time>2026-04-03T09:04:45Z</time></trkpt><trkpt lat="44.33167629251829" lon="8.205783889533626"><ele>465.8</ele><time>2026-04-03T09:04:47Z</time></trkpt><trkpt lat="44.33161982809338" lon="8.205844474081236"><ele>466.0</ele><time>2026-04-03T09:04:48Z</time></trkpt><trkpt lat="44.33155060450527" lon="8.205874448935619"><ele>466.50000000000006</ele><time>2026-04-03T09:04:49Z</time></trkpt><trkpt lat="44.33147366464359" lon="8.205897549031082"><ele>467.0</ele><time>2026-04-03T09:04:50Z</time></trkpt><trkpt lat="44.33139427383592" lon="8.205908421305896"><ele>467.5</ele><time>2026-04-03T09:04:51Z</time></trkpt><trkpt lat="44.33131358935875" lon="8.205905601757543"><ele>468.0</ele><time>2026-04-03T09:04:52Z</time></trkpt><trkpt lat="44.331245811343024" lon="8.205894266189478"><ele>468.50000000000006</ele><time>2026-04-03T09:04:53Z</time></trkpt><trkpt lat="44.33117704840454" lon="8.205884448950004"><ele>469.0</ele><time>2026-04-03T09:04:54Z</time></trkpt><trkpt lat="44.33110086991268" lon="8.205902090995268"><ele>469.0</ele><time>2026-04-03T09:04:55Z</time></trkpt><trkpt lat="44.33102930229378" lon="8.205965528181986"><ele>469.0</ele><time>2026-04-03T09:04:56Z</time></trkpt><trkpt lat="44.330958414612425" lon="8.206060417454003"><ele>469.0</ele><time>2026-04-03T09:04:57Z</time></trkpt><trkpt lat="44.33088841850646" lon="8.206180494866473"><ele>469.0</ele><time>2026-04-03T09:04:58Z</time></trkpt><trkpt lat="44.33081175086188" lon="8.206312972117948"><ele>469.0</ele><time>2026-04-03T09:04:59Z</time></trkpt><trkpt lat="44.330751629633205" lon="8.206445675834575"><ele>468.5</ele><time>2026-04-03T09:04:59.999Z</time></trkpt><trkpt lat="44.33067721267322" lon="8.206572077605037"><ele>468.0</ele><time>2026-04-03T09:05:00.999Z</time></trkpt><trkpt lat="44.3306013819106" lon="8.20668489839847"><ele>467.5</ele><time>2026-04-03T09:05:01.999Z</time></trkpt><trkpt lat="44.33052211235862" lon="8.206792376850373"><ele>467.0</ele><time>2026-04-03T09:05:02.999Z</time></trkpt><trkpt lat="44.33043101977771" lon="8.20689535229136"><ele>467.0</ele><time>2026-04-03T09:05:03.999Z</time></trkpt><trkpt lat="44.33033190319308" lon="8.206999246975991"><ele>467.0</ele><time>2026-04-03T09:05:04.999Z</time></trkpt><trkpt lat="44.33022624486092" lon="8.207084974544225"><ele>467.0</ele><time>2026-04-03T09:05:05.999Z</time></trkpt><trkpt lat="44.330111230936936" lon="8.207160629947742"><ele>467.0</ele><time>2026-04-03T09:05:06.999Z</time></trkpt><trkpt lat="44.33000342735507" lon="8.207207958244885"><ele>467.0</ele><time>2026-04-03T09:05:07.999Z</time></trkpt><trkpt lat="44.32988163953074" lon="8.207243376542769"><ele>467.0</ele><time>2026-04-03T09:05:08.999Z</time></trkpt><trkpt lat="44.32973568999389" lon="8.2072676224632"><ele>467.0</ele><time>2026-04-03T09:05:09.999Z</time></trkpt><trkpt lat="44.3296169271336" lon="8.207296008267324"><ele>467.0</ele><time>2026-04-03T09:05:10.999Z</time></trkpt><trkpt lat="44.32950648686467" lon="8.207325276289978"><ele>468.0</ele><time>2026-04-03T09:05:11.999Z</time></trkpt><trkpt lat="44.329391276519274" lon="8.207343603396453"><ele>469.0</ele><time>2026-04-03T09:05:12.999Z</time></trkpt><trkpt lat="44.32927637877149" lon="8.207339438661213"><ele>470.0</ele><time>2026-04-03T09:05:13.999Z</time></trkpt><trkpt lat="44.32915843927664" lon="8.207324163429963"><ele>471.0</ele><time>2026-04-03T09:05:14.999Z</time></trkpt><trkpt lat="44.329025835109626" lon="8.207284540582592"><ele>471.5</ele><time>2026-04-03T09:05:15.999Z</time></trkpt><trkpt lat="44.32888305997324" lon="8.207258809508694"><ele>472.0</ele><time>2026-04-03T09:05:16.999Z</time></trkpt><trkpt lat="44.32875614282612" lon="8.207235529882334"><ele>472.5</ele><time>2026-04-03T09:05:17.999Z</time></trkpt><trkpt lat="44.328636463333254" lon="8.207215953235865"><ele>473.0</ele><time>2026-04-03T09:05:18.999Z</time></trkpt><trkpt lat="44.32853194807826" lon="8.207194530868685"><ele>473.0</ele><time>2026-04-03T09:05:19.999Z</time></trkpt><trkpt lat="44.32841933580209" lon="8.207171007540962"><ele>473.0</ele><time>2026-04-03T09:05:20.999Z</time></trkpt><trkpt lat="44.32830312982816" lon="8.207141077970553"><ele>473.0</ele><time>2026-04-03T09:05:21.999Z</time></trkpt><trkpt lat="44.32817835375474" lon="8.207088087196329"><ele>473.0</ele><time>2026-04-03T09:05:22.999Z</time></trkpt><trkpt lat="44.328051450533714" lon="8.207030574222147"><ele>475.25</ele><time>2026-04-03T09:05:23.999Z</time></trkpt><trkpt lat="44.32791328722952" lon="8.206959770520125"><ele>477.5</ele><time>2026-04-03T09:05:24.999Z</time></trkpt><trkpt lat="44.327782686595825" lon="8.20688820161092"><ele>479.75</ele><time>2026-04-03T09:05:25.999Z</time></trkpt><trkpt lat="44.32766481792118" lon="8.206821142391236"><ele>482.0</ele><time>2026-04-03T09:05:26.999Z</time></trkpt><trkpt lat="44.327551189184696" lon="8.206758127869762"><ele>482.0</ele><time>2026-04-03T09:05:27.999Z</time></trkpt><trkpt lat="44.32744583183105" lon="8.20670181796633"><ele>482.0</ele><time>2026-04-03T09:05:28.999Z</time></trkpt><trkpt lat="44.327334719477925" lon="8.206626869147224"><ele>482.0</ele><time>2026-04-03T09:05:29.999Z</time></trkpt><trkpt lat="44.32720771312387" lon="8.20658561495124"><ele>482.0</ele><time>2026-04-03T09:05:30.999Z</time></trkpt><trkpt lat="44.32707369886582" lon="8.206559548012061"><ele>483.25</ele><time>2026-04-03T09:05:31.999Z</time></trkpt><trkpt lat="44.32693688482357" lon="8.20654580652179"><ele>484.5</ele><time>2026-04-03T09:05:32.999Z</time></trkpt><trkpt lat="44.32678767785846" lon="8.206541618102325"><ele>485.75</ele><time>2026-04-03T09:05:33.999Z</time></trkpt><trkpt lat="44.326635178284995" lon="8.206540028109618"><ele>487.0</ele><time>2026-04-03T09:05:34.999Z</time></trkpt><trkpt lat="44.32650204710826" lon="8.206536095803015"><ele>486.6</ele><time>2026-04-03T09:05:35.999Z</time></trkpt><trkpt lat="44.32637520542693" lon="8.206534214656019"><ele>486.20000000000005</ele><time>2026-04-03T09:05:36.999Z</time></trkpt><trkpt lat="44.32626049139954" lon="8.206540087887065"><ele>485.8</ele><time>2026-04-03T09:05:37.999Z</time></trkpt><trkpt lat="44.326166307387716" lon="8.206545081114152"><ele>485.4</ele><time>2026-04-03T09:05:38.999Z</time></trkpt><trkpt lat="44.32607392580285" lon="8.206556169615437"><ele>485.0</ele><time>2026-04-03T09:05:39.999Z</time></trkpt><trkpt lat="44.32598880286201" lon="8.206584666639907"><ele>485.0</ele><time>2026-04-03T09:05:40.999Z</time></trkpt><trkpt lat="44.32589848756284" lon="8.206633691087895"><ele>485.0</ele><time>2026-04-03T09:05:41.999Z</time></trkpt><trkpt lat="44.325798281844285" lon="8.206713261741312"><ele>485.0</ele><time>2026-04-03T09:05:42.999Z</time></trkpt><trkpt lat="44.32570254691314" lon="8.206809757153287"><ele>485.0</ele><time>2026-04-03T09:05:43.999Z</time></trkpt><trkpt lat="44.325595661063915" lon="8.206917911671008"><ele>486.25</ele><time>2026-04-03T09:05:44.999Z</time></trkpt><trkpt lat="44.325480665558295" lon="8.207033574760107"><ele>487.5</ele><time>2026-04-03T09:05:45.999Z</time></trkpt><trkpt lat="44.32536828129737" lon="8.207147549078332"><ele>488.75</ele><time>2026-04-03T09:05:46.999Z</time></trkpt><trkpt lat="44.3252535354887" lon="8.207271167517703"><ele>490.0</ele><time>2026-04-03T09:05:47.999Z</time></trkpt><trkpt lat="44.32514282770059" lon="8.207376123249475"><ele>490.0</ele><time>2026-04-03T09:05:48.999Z</time></trkpt><trkpt lat="44.32503837841395" lon="8.207470294161846"><ele>490.0</ele><time>2026-04-03T09:05:49.999Z</time></trkpt><trkpt lat="44.32494087489449" lon="8.207560549538945"><ele>490.0</ele><time>2026-04-03T09:05:50.999Z</time></trkpt><trkpt lat="44.32484623336724" lon="8.207643919956043"><ele>490.0</ele><time>2026-04-03T09:05:51.999Z</time></trkpt><trkpt lat="44.32476518905203" lon="8.207726674936184"><ele>489.6666666666667</ele><time>2026-04-03T09:05:52.999Z</time></trkpt><trkpt lat="44.324689203198524" lon="8.207807973877262"><ele>489.33333333333337</ele><time>2026-04-03T09:05:53.999Z</time></trkpt><trkpt lat="44.32462170141657" lon="8.207880436073877"><ele>489.0</ele><time>2026-04-03T09:05:54.999Z</time></trkpt><trkpt lat="44.32456652396295" lon="8.207969643707148"><ele>488.66666666666663</ele><time>2026-04-03T09:05:55.998Z</time></trkpt><trkpt lat="44.324529988500814" lon="8.2080681174585"><ele>488.3333333333333</ele><time>2026-04-03T09:05:56.998Z</time></trkpt><trkpt lat="44.32451012637099" lon="8.208170718395325"><ele>488.0</ele><time>2026-04-03T09:05:57.998Z</time></trkpt><trkpt lat="44.324508627740784" lon="8.208281714639119"><ele>488.0</ele><time>2026-04-03T09:05:58.998Z</time></trkpt><trkpt lat="44.32453559577944" lon="8.208383784311478"><ele>487.99999999999994</ele><time>2026-04-03T09:05:59.998Z</time></trkpt><trkpt lat="44.32458818615766" lon="8.208489470301053"><ele>487.99999999999994</ele><time>2026-04-03T09:06:00.998Z</time></trkpt><trkpt lat="44.32466742230587" lon="8.208590923062973"><ele>488.0</ele><time>2026-04-03T09:06:01.998Z</time></trkpt><trkpt lat="44.32474964392607" lon="8.208701693889855"><ele>488.0</ele><time>2026-04-03T09:06:02.998Z</time></trkpt><trkpt lat="44.324822838122344" lon="8.20879750409624"><ele>490.2</ele><time>2026-04-03T09:06:03.998Z</time></trkpt><trkpt lat="44.3248887356803" lon="8.208893630860272"><ele>492.4</ele><time>2026-04-03T09:06:04.998Z</time></trkpt><trkpt lat="44.3249407839053" lon="8.208982625182605"><ele>494.59999999999997</ele><time>2026-04-03T09:06:05.998Z</time></trkpt><trkpt lat="44.32498139898424" lon="8.20908253534665"><ele>496.79999999999995</ele><time>2026-04-03T09:06:06.998Z</time></trkpt><trkpt lat="44.32500944167684" lon="8.209202628937376"><ele>499.0</ele><time>2026-04-03T09:06:07.998Z</time></trkpt><trkpt lat="44.32502045158519" lon="8.20934400658205"><ele>499.0</ele><time>2026-04-03T09:06:08.998Z</time></trkpt><trkpt lat="44.32500058012875" lon="8.209490685273735"><ele>499.0</ele><time>2026-04-03T09:06:09.998Z</time></trkpt><trkpt lat="44.32495540520894" lon="8.209626763700625"><ele>499.0</ele><time>2026-04-03T09:06:10.998Z</time></trkpt><trkpt lat="44.324877434581744" lon="8.209752603185091"><ele>499.0</ele><time>2026-04-03T09:06:11.998Z</time></trkpt><trkpt lat="44.32479387716879" lon="8.209896097664567"><ele>497.5</ele><time>2026-04-03T09:06:12.998Z</time></trkpt><trkpt lat="44.324698745423476" lon="8.21004586937876"><ele>496.0</ele><time>2026-04-03T09:06:13.998Z</time></trkpt><trkpt lat="44.324612237698574" lon="8.210185563568915"><ele>494.5</ele><time>2026-04-03T09:06:14.998Z</time></trkpt><trkpt lat="44.324513396581956" lon="8.21034275742926"><ele>493.0</ele><time>2026-04-03T09:06:15.998Z</time></trkpt><trkpt lat="44.32441154944916" lon="8.210503935842812"><ele>493.75</ele><time>2026-04-03T09:06:16.998Z</time></trkpt><trkpt lat="44.32430753136984" lon="8.210666300607153"><ele>494.5</ele><time>2026-04-03T09:06:17.998Z</time></trkpt><trkpt lat="44.32422014998989" lon="8.210820478787857"><ele>495.25</ele><time>2026-04-03T09:06:18.998Z</time></trkpt><trkpt lat="44.32412241522037" lon="8.210983200199927"><ele>496.0</ele><time>2026-04-03T09:06:19.998Z</time></trkpt><trkpt lat="44.32402046915337" lon="8.211146574240091"><ele>496.0</ele><time>2026-04-03T09:06:20.998Z</time></trkpt><trkpt lat="44.323929006369625" lon="8.211289704302729"><ele>496.0</ele><time>2026-04-03T09:06:21.998Z</time></trkpt><trkpt lat="44.323845762590345" lon="8.211412213308764"><ele>496.0</ele><time>2026-04-03T09:06:22.998Z</time></trkpt><trkpt lat="44.323761215835" lon="8.21152252795173"><ele>496.0</ele><time>2026-04-03T09:06:24Z</time></trkpt><trkpt lat="44.32367087414782" lon="8.211618640575846"><ele>496.25</ele><time>2026-04-03T09:06:25Z</time></trkpt><trkpt lat="44.32356342542031" lon="8.211696847391803"><ele>496.5</ele><time>2026-04-03T09:06:26Z</time></trkpt><trkpt lat="44.32345442639719" lon="8.21175836630429"><ele>496.75</ele><time>2026-04-03T09:06:27Z</time></trkpt><trkpt lat="44.32333967781759" lon="8.211800459907938"><ele>497.0</ele><time>2026-04-03T09:06:28Z</time></trkpt><trkpt lat="44.32321074522553" lon="8.211817110744597"><ele>497.0</ele><time>2026-04-03T09:06:29Z</time></trkpt><trkpt lat="44.32311082657038" lon="8.21182564755413"><ele>497.00000000000006</ele><time>2026-04-03T09:06:30Z</time></trkpt><trkpt lat="44.32299592302162" lon="8.21180220765827"><ele>497.00000000000006</ele><time>2026-04-03T09:06:31Z</time></trkpt><trkpt lat="44.32288104259883" lon="8.211757375699184"><ele>497.0</ele><time>2026-04-03T09:06:32Z</time></trkpt><trkpt lat="44.322782171039414" lon="8.211713189812707"><ele>497.0</ele><time>2026-04-03T09:06:33Z</time></trkpt><trkpt lat="44.322688925732926" lon="8.211677982866702"><ele>496.8</ele><time>2026-04-03T09:06:34Z</time></trkpt><trkpt lat="44.322595071065805" lon="8.211663517489992"><ele>496.6</ele><time>2026-04-03T09:06:35Z</time></trkpt><trkpt lat="44.32249429501719" lon="8.21167157263724"><ele>496.40000000000003</ele><time>2026-04-03T09:06:36Z</time></trkpt><trkpt lat="44.32241591272921" lon="8.211726844530792"><ele>496.20000000000005</ele><time>2026-04-03T09:06:37Z</time></trkpt><trkpt lat="44.322317019222446" lon="8.211764452438908"><ele>496.0</ele><time>2026-04-03T09:06:38Z</time></trkpt><trkpt lat="44.32222896805973" lon="8.211856287291852"><ele>497.4</ele><time>2026-04-03T09:06:39Z</time></trkpt><trkpt lat="44.32215763666123" lon="8.211946925294445"><ele>498.8</ele><time>2026-04-03T09:06:40Z</time></trkpt><trkpt lat="44.322088509699086" lon="8.212063276676448"><ele>500.19999999999993</ele><time>2026-04-03T09:06:41Z</time></trkpt><trkpt lat="44.32203471956034" lon="8.21220115202736"><ele>501.59999999999997</ele><time>2026-04-03T09:06:42Z</time></trkpt><trkpt lat="44.32199282086989" lon="8.212368767526106"><ele>503.0</ele><time>2026-04-03T09:06:43Z</time></trkpt><trkpt lat="44.3219601893732" lon="8.212549578823928"><ele>503.0</ele><time>2026-04-03T09:06:44Z</time></trkpt><trkpt lat="44.3219268959926" lon="8.21274403379107"><ele>503.0</ele><time>2026-04-03T09:06:45Z</time></trkpt><trkpt lat="44.32190228667946" lon="8.212940512185897"><ele>503.0</ele><time>2026-04-03T09:06:46Z</time></trkpt><trkpt lat="44.32187275213263" lon="8.21315091190996"><ele>503.0</ele><time>2026-04-03T09:06:47Z</time></trkpt><trkpt lat="44.32184575605769" lon="8.213370164816931"><ele>502.66666666666663</ele><time>2026-04-03T09:06:48Z</time></trkpt><trkpt lat="44.32181724165603" lon="8.213577499457902"><ele>502.33333333333337</ele><time>2026-04-03T09:06:49Z</time></trkpt><trkpt lat="44.3217816736647" lon="8.213799907648122"><ele>502.0</ele><time>2026-04-03T09:06:50Z</time></trkpt><trkpt lat="44.32175039992418" lon="8.214028915377899"><ele>502.6666666666667</ele><time>2026-04-03T09:06:51Z</time></trkpt><trkpt lat="44.32171248405182" lon="8.214268284644815"><ele>503.33333333333337</ele><time>2026-04-03T09:06:52Z</time></trkpt><trkpt lat="44.3216769952721" lon="8.214494058895605"><ele>504.0</ele><time>2026-04-03T09:06:53Z</time></trkpt><trkpt lat="44.32164178277869" lon="8.214698122401813"><ele>505.0</ele><time>2026-04-03T09:06:54Z</time></trkpt><trkpt lat="44.3216067254401" lon="8.214887338623303"><ele>506.0</ele><time>2026-04-03T09:06:55Z</time></trkpt><trkpt lat="44.321574625900936" lon="8.215066332984962"><ele>507.0</ele><time>2026-04-03T09:06:56Z</time></trkpt><trkpt lat="44.32155222875778" lon="8.215243261006815"><ele>508.0</ele><time>2026-04-03T09:06:57Z</time></trkpt><trkpt lat="44.32153302833533" lon="8.21539077804655"><ele>508.0</ele><time>2026-04-03T09:06:58Z</time></trkpt><trkpt lat="44.321509937495414" lon="8.21555451010156"><ele>507.99999999999994</ele><time>2026-04-03T09:06:59Z</time></trkpt><trkpt lat="44.32148830431367" lon="8.215690240268271"><ele>507.99999999999994</ele><time>2026-04-03T09:07:00Z</time></trkpt><trkpt lat="44.32146935848157" lon="8.215814695824413"><ele>508.0</ele><time>2026-04-03T09:07:01Z</time></trkpt><trkpt lat="44.321440206649214" lon="8.215927206382787"><ele>508.0</ele><time>2026-04-03T09:07:02Z</time></trkpt><trkpt lat="44.32140101419859" lon="8.216041919414257"><ele>508.2</ele><time>2026-04-03T09:07:03Z</time></trkpt><trkpt lat="44.321348081326434" lon="8.2161386094976"><ele>508.4</ele><time>2026-04-03T09:07:04Z</time></trkpt><trkpt lat="44.32126815372421" lon="8.216216047708016"><ele>508.59999999999997</ele><time>2026-04-03T09:07:04.999Z</time></trkpt><trkpt lat="44.32117117649522" lon="8.216276902962953"><ele>508.79999999999995</ele><time>2026-04-03T09:07:05.999Z</time></trkpt><trkpt lat="44.321084228180595" lon="8.216294423378276"><ele>509.0</ele><time>2026-04-03T09:07:06.999Z</time></trkpt><trkpt lat="44.32100600000006" lon="8.216295989443202"><ele>509.0</ele><time>2026-04-03T09:07:07.999Z</time></trkpt><trkpt lat="44.320898814924114" lon="8.216292542119128"><ele>509.0</ele><time>2026-04-03T09:07:08.999Z</time></trkpt><trkpt lat="44.32078500139468" lon="8.216285387370073"><ele>509.0</ele><time>2026-04-03T09:07:09.999Z</time></trkpt><trkpt lat="44.3206671238546" lon="8.216281967350692"><ele>509.0</ele><time>2026-04-03T09:07:10.999Z</time></trkpt><trkpt lat="44.32053510783676" lon="8.216280016774697"><ele>509.25</ele><time>2026-04-03T09:07:11.999Z</time></trkpt><trkpt lat="44.320403750125514" lon="8.216276123217748"><ele>509.5</ele><time>2026-04-03T09:07:12.999Z</time></trkpt><trkpt lat="44.32025590233154" lon="8.21627051132406"><ele>509.75</ele><time>2026-04-03T09:07:13.999Z</time></trkpt><trkpt lat="44.320110221467885" lon="8.216264186843182"><ele>510.0</ele><time>2026-04-03T09:07:14.999Z</time></trkpt><trkpt lat="44.31997291103816" lon="8.21626031457392"><ele>510.0</ele><time>2026-04-03T09:07:15.999Z</time></trkpt><trkpt lat="44.31984933254744" lon="8.216258049410888"><ele>510.0</ele><time>2026-04-03T09:07:16.999Z</time></trkpt><trkpt lat="44.319719833578176" lon="8.216248202818468"><ele>510.0</ele><time>2026-04-03T09:07:17.999Z</time></trkpt><trkpt lat="44.319588687176406" lon="8.216247267471276"><ele>510.0</ele><time>2026-04-03T09:07:18.999Z</time></trkpt><trkpt lat="44.3194507821966" lon="8.216246910162084"><ele>508.75</ele><time>2026-04-03T09:07:19.999Z</time></trkpt><trkpt lat="44.31931386216827" lon="8.216264074764206"><ele>507.5</ele><time>2026-04-03T09:07:20.999Z</time></trkpt><trkpt lat="44.319169203078744" lon="8.216295692993619"><ele>506.25</ele><time>2026-04-03T09:07:21.999Z</time></trkpt><trkpt lat="44.31902967079429" lon="8.216339909680734"><ele>505.0</ele><time>2026-04-03T09:07:22.999Z</time></trkpt><trkpt lat="44.31888619008757" lon="8.216377788278463"><ele>505.0</ele><time>2026-04-03T09:07:23.999Z</time></trkpt><trkpt lat="44.31875956671442" lon="8.216408034645623"><ele>505.0</ele><time>2026-04-03T09:07:24.999Z</time></trkpt><trkpt lat="44.31864510559424" lon="8.216439891146027"><ele>505.0</ele><time>2026-04-03T09:07:25.999Z</time></trkpt><trkpt lat="44.31852416851723" lon="8.216463972312155"><ele>505.0</ele><time>2026-04-03T09:07:26.999Z</time></trkpt><trkpt lat="44.318390969549" lon="8.216482636007438"><ele>506.75</ele><time>2026-04-03T09:07:27.999Z</time></trkpt><trkpt lat="44.31825700329609" lon="8.216500331570403"><ele>508.5</ele><time>2026-04-03T09:07:28.999Z</time></trkpt><trkpt lat="44.31811646144554" lon="8.216501371417634"><ele>510.25</ele><time>2026-04-03T09:07:29.999Z</time></trkpt><trkpt lat="44.317987203030306" lon="8.216489453835127"><ele>512.0</ele><time>2026-04-03T09:07:30.999Z</time></trkpt><trkpt lat="44.31784662275771" lon="8.216459408003715"><ele>512.0</ele><time>2026-04-03T09:07:31.999Z</time></trkpt><trkpt lat="44.3177087881024" lon="8.21641572343236"><ele>512.0</ele><time>2026-04-03T09:07:32.999Z</time></trkpt><trkpt lat="44.31756259480424" lon="8.216362628198365"><ele>512.0</ele><time>2026-04-03T09:07:33.999Z</time></trkpt><trkpt lat="44.31741669710671" lon="8.216298546498171"><ele>512.0</ele><time>2026-04-03T09:07:34.999Z</time></trkpt><trkpt lat="44.31726379617079" lon="8.216222772831674"><ele>512.0</ele><time>2026-04-03T09:07:35.999Z</time></trkpt><trkpt lat="44.31710528987471" lon="8.216143963837219"><ele>512.0</ele><time>2026-04-03T09:07:36.999Z</time></trkpt><trkpt lat="44.31696217047278" lon="8.216081319769502"><ele>512.0</ele><time>2026-04-03T09:07:37.999Z</time></trkpt><trkpt lat="44.31682981884253" lon="8.216022631940222"><ele>512.0</ele><time>2026-04-03T09:07:38.999Z</time></trkpt><trkpt lat="44.316699658988604" lon="8.21596778025578"><ele>512.0</ele><time>2026-04-03T09:07:39.999Z</time></trkpt><trkpt lat="44.3165501013003" lon="8.215923870239916"><ele>512.0</ele><time>2026-04-03T09:07:40.999Z</time></trkpt><trkpt lat="44.31639765863725" lon="8.215891136447667"><ele>512.0</ele><time>2026-04-03T09:07:41.999Z</time></trkpt><trkpt lat="44.316261832133435" lon="8.215860143986191"><ele>514.25</ele><time>2026-04-03T09:07:42.999Z</time></trkpt><trkpt lat="44.31613203510162" lon="8.215830784720769"><ele>516.5</ele><time>2026-04-03T09:07:43.999Z</time></trkpt><trkpt lat="44.316012153504104" lon="8.215807864818157"><ele>518.75</ele><time>2026-04-03T09:07:44.999Z</time></trkpt><trkpt lat="44.31588680555736" lon="8.215766505663478"><ele>521.0</ele><time>2026-04-03T09:07:45.999Z</time></trkpt><trkpt lat="44.31575779323029" lon="8.215707641322185"><ele>520.25</ele><time>2026-04-03T09:07:46.999Z</time></trkpt><trkpt lat="44.31562745337786" lon="8.215647831602663"><ele>519.5</ele><time>2026-04-03T09:07:47.999Z</time></trkpt><trkpt lat="44.31551386255523" lon="8.215582574534759"><ele>518.75</ele><time>2026-04-03T09:07:48.999Z</time></trkpt><trkpt lat="44.31540467776653" lon="8.215509527145578"><ele>518.0</ele><time>2026-04-03T09:07:49.999Z</time></trkpt><trkpt lat="44.31530249946429" lon="8.21545281243628"><ele>518.0</ele><time>2026-04-03T09:07:50.999Z</time></trkpt><trkpt lat="44.31521199337729" lon="8.215384773810571"><ele>518.0</ele><time>2026-04-03T09:07:51.999Z</time></trkpt><trkpt lat="44.315127947041226" lon="8.215295086088751"><ele>518.0</ele><time>2026-04-03T09:07:52.999Z</time></trkpt><trkpt lat="44.31505701091036" lon="8.215199599083896"><ele>518.0</ele><time>2026-04-03T09:07:53.999Z</time></trkpt><trkpt lat="44.314987995622914" lon="8.215086406404064"><ele>518.0</ele><time>2026-04-03T09:07:54.999Z</time></trkpt><trkpt lat="44.31493812343363" lon="8.214938582578078"><ele>516.75</ele><time>2026-04-03T09:07:55.999Z</time></trkpt><trkpt lat="44.31486338785215" lon="8.21479737476642"><ele>515.5</ele><time>2026-04-03T09:07:56.999Z</time></trkpt><trkpt lat="44.314817073751534" lon="8.214626008767596"><ele>514.25</ele><time>2026-04-03T09:07:57.999Z</time></trkpt><trkpt lat="44.31476372474897" lon="8.21445951831931"><ele>513.0</ele><time>2026-04-03T09:07:58.999Z</time></trkpt><trkpt lat="44.314723952297314" lon="8.21428724328019"><ele>519.0</ele><time>2026-04-03T09:07:59.999Z</time></trkpt><trkpt lat="44.31469750108421" lon="8.21409697079573"><ele>525.0</ele><time>2026-04-03T09:08:00.999Z</time></trkpt><trkpt lat="44.31467461335695" lon="8.213886033000618"><ele>531.0</ele><time>2026-04-03T09:08:01.998Z</time></trkpt><trkpt lat="44.31465937770122" lon="8.213690403434866"><ele>537.0</ele><time>2026-04-03T09:08:02.998Z</time></trkpt><trkpt lat="44.31464992591977" lon="8.213519106695326"><ele>537.0</ele><time>2026-04-03T09:08:03.998Z</time></trkpt><trkpt lat="44.31463398543502" lon="8.213355902966043"><ele>537.0</ele><time>2026-04-03T09:08:04.998Z</time></trkpt><trkpt lat="44.31460723441735" lon="8.213190592427987"><ele>537.0</ele><time>2026-04-03T09:08:05.998Z</time></trkpt><trkpt lat="44.31456515804789" lon="8.213012712551746"><ele>537.0</ele><time>2026-04-03T09:08:06.998Z</time></trkpt><trkpt lat="44.31449973696164" lon="8.21284074135632"><ele>533.5</ele><time>2026-04-03T09:08:07.998Z</time></trkpt><trkpt lat="44.31442789367562" lon="8.212669935523863"><ele>530.0</ele><time>2026-04-03T09:08:08.998Z</time></trkpt><trkpt lat="44.31436501881144" lon="8.212522773099547"><ele>526.5</ele><time>2026-04-03T09:08:09.998Z</time></trkpt><trkpt lat="44.31430863967758" lon="8.212377286910824"><ele>523.0</ele><time>2026-04-03T09:08:10.998Z</time></trkpt><trkpt lat="44.31426349938356" lon="8.212246449228397"><ele>523.0</ele><time>2026-04-03T09:08:11.998Z</time></trkpt><trkpt lat="44.31421233435334" lon="8.21210157933653"><ele>523.0</ele><time>2026-04-03T09:08:12.998Z</time></trkpt><trkpt lat="44.314155263535035" lon="8.2119539728982"><ele>523.0</ele><time>2026-04-03T09:08:13.998Z</time></trkpt><trkpt lat="44.314099586074235" lon="8.211814948452925"><ele>523.0</ele><time>2026-04-03T09:08:14.998Z</time></trkpt><trkpt lat="44.31405164852443" lon="8.211680416062974"><ele>523.0</ele><time>2026-04-03T09:08:15.998Z</time></trkpt><trkpt lat="44.31399301064425" lon="8.211540395148074"><ele>523.0</ele><time>2026-04-03T09:08:16.998Z</time></trkpt><trkpt lat="44.31393774790403" lon="8.211406561199315"><ele>523.0</ele><time>2026-04-03T09:08:17.998Z</time></trkpt><trkpt lat="44.31388695009478" lon="8.21127305736066"><ele>523.0</ele><time>2026-04-03T09:08:18.998Z</time></trkpt><trkpt lat="44.313831922255126" lon="8.211134342787279"><ele>523.0</ele><time>2026-04-03T09:08:19.998Z</time></trkpt><trkpt lat="44.31377131678168" lon="8.210993244467799"><ele>523.6</ele><time>2026-04-03T09:08:20.998Z</time></trkpt><trkpt lat="44.31371286482748" lon="8.210851243959462"><ele>524.1999999999999</ele><time>2026-04-03T09:08:21.998Z</time></trkpt><trkpt lat="44.313657980605" lon="8.210719805235584"><ele>524.8</ele><time>2026-04-03T09:08:22.998Z</time></trkpt><trkpt lat="44.31361160612499" lon="8.21061406573541"><ele>525.4</ele><time>2026-04-03T09:08:23.998Z</time></trkpt><trkpt lat="44.31357149331981" lon="8.210510899209131"><ele>526.0</ele><time>2026-04-03T09:08:24.998Z</time></trkpt><trkpt lat="44.31352893192684" lon="8.210423687877793"><ele>526.0</ele><time>2026-04-03T09:08:25.998Z</time></trkpt><trkpt lat="44.31347373025913" lon="8.210357115138729"><ele>526.0</ele><time>2026-04-03T09:08:26.998Z</time></trkpt><trkpt lat="44.313398938060026" lon="8.210299994375863"><ele>526.0</ele><time>2026-04-03T09:08:27.998Z</time></trkpt><trkpt lat="44.3133186896778" lon="8.210282936763033"><ele>526.0</ele><time>2026-04-03T09:08:28.998Z</time></trkpt><trkpt lat="44.3132386859246" lon="8.210301929951813"><ele>526.0</ele><time>2026-04-03T09:08:30Z</time></trkpt><trkpt lat="44.313166156690976" lon="8.210362462686394"><ele>526.0</ele><time>2026-04-03T09:08:31Z</time></trkpt><trkpt lat="44.31309676255363" lon="8.210446998027654"><ele>526.8</ele><time>2026-04-03T09:08:32Z</time></trkpt><trkpt lat="44.31303799428904" lon="8.210565809739693"><ele>527.6</ele><time>2026-04-03T09:08:33Z</time></trkpt><trkpt lat="44.312998390234085" lon="8.210714877962735"><ele>528.4</ele><time>2026-04-03T09:08:34Z</time></trkpt><trkpt lat="44.31296240181901" lon="8.210868856191668"><ele>529.2</ele><time>2026-04-03T09:08:35Z</time></trkpt><trkpt lat="44.31293383384778" lon="8.210998542461246"><ele>530.0</ele><time>2026-04-03T09:08:36Z</time></trkpt><trkpt lat="44.312902074375515" lon="8.211112103214468"><ele>530.0</ele><time>2026-04-03T09:08:37Z</time></trkpt><trkpt lat="44.31286048139991" lon="8.211206385402267"><ele>530.0</ele><time>2026-04-03T09:08:38Z</time></trkpt><trkpt lat="44.31278923925629" lon="8.211290456913718"><ele>530.0</ele><time>2026-04-03T09:08:39Z</time></trkpt><trkpt lat="44.31270065497784" lon="8.211345365428377"><ele>530.0</ele><time>2026-04-03T09:08:40Z</time></trkpt><trkpt lat="44.31260259974443" lon="8.21137024552629"><ele>530.0</ele><time>2026-04-03T09:08:41Z</time></trkpt><trkpt lat="44.31250054817948" lon="8.211376987828762"><ele>530.0</ele><time>2026-04-03T09:08:42Z</time></trkpt><trkpt lat="44.31240448127147" lon="8.21133536282312"><ele>530.0</ele><time>2026-04-03T09:08:43Z</time></trkpt><trkpt lat="44.312313161949746" lon="8.211272890018995"><ele>530.0</ele><time>2026-04-03T09:08:44Z</time></trkpt><trkpt lat="44.3122213640273" lon="8.211180202583932"><ele>530.0</ele><time>2026-04-03T09:08:45Z</time></trkpt><trkpt lat="44.3121317897392" lon="8.21105848246804"><ele>530.0</ele><time>2026-04-03T09:08:46Z</time></trkpt><trkpt lat="44.312052882114784" lon="8.210907810024855"><ele>535.5</ele><time>2026-04-03T09:08:47Z</time></trkpt><trkpt lat="44.3119929886547" lon="8.210768626608596"><ele>541.0</ele><time>2026-04-03T09:08:48Z</time></trkpt><trkpt lat="44.311940437323294" lon="8.210623715887271"><ele>546.5</ele><time>2026-04-03T09:08:49Z</time></trkpt><trkpt lat="44.311891078778245" lon="8.210460954906287"><ele>552.0</ele><time>2026-04-03T09:08:50Z</time></trkpt><trkpt lat="44.311854927215975" lon="8.210284357390364"><ele>552.0</ele><time>2026-04-03T09:08:51Z</time></trkpt><trkpt lat="44.311816771075904" lon="8.210102131916669"><ele>552.0</ele><time>2026-04-03T09:08:52Z</time></trkpt><trkpt lat="44.311783673648925" lon="8.209903748669607"><ele>552.0</ele><time>2026-04-03T09:08:53Z</time></trkpt><trkpt lat="44.31175586761598" lon="8.20972879680663"><ele>552.0</ele><time>2026-04-03T09:08:54Z</time></trkpt><trkpt lat="44.31172796415835" lon="8.209570442323875"><ele>550.25</ele><time>2026-04-03T09:08:55Z</time></trkpt><trkpt lat="44.31169725944799" lon="8.20940885521388"><ele>548.5</ele><time>2026-04-03T09:08:56Z</time></trkpt><trkpt lat="44.3116676388556" lon="8.209258019005373"><ele>546.75</ele><time>2026-04-03T09:08:57Z</time></trkpt><trkpt lat="44.311635619911605" lon="8.209095709235317"><ele>545.0</ele><time>2026-04-03T09:08:58Z</time></trkpt><trkpt lat="44.311604862553715" lon="8.208923740000568"><ele>544.25</ele><time>2026-04-03T09:08:59Z</time></trkpt><trkpt lat="44.31155655731366" lon="8.208747739744028"><ele>543.5</ele><time>2026-04-03T09:09:00Z</time></trkpt><trkpt lat="44.3115517589434" lon="8.208585537854562"><ele>542.75</ele><time>2026-04-03T09:09:01Z</time></trkpt><trkpt lat="44.311522290510275" lon="8.208417104090511"><ele>542.0</ele><time>2026-04-03T09:09:02Z</time></trkpt><trkpt lat="44.3114913818138" lon="8.208238700341672"><ele>541.5</ele><time>2026-04-03T09:09:03Z</time></trkpt><trkpt lat="44.311452681182715" lon="8.208041107361394"><ele>541.0</ele><time>2026-04-03T09:09:04Z</time></trkpt><trkpt lat="44.31142398939086" lon="8.207859119880865"><ele>540.5</ele><time>2026-04-03T09:09:05Z</time></trkpt><trkpt lat="44.311394186583975" lon="8.207668712285905"><ele>540.0</ele><time>2026-04-03T09:09:06Z</time></trkpt><trkpt lat="44.31135932343012" lon="8.207468893610825"><ele>549.25</ele><time>2026-04-03T09:09:07Z</time></trkpt><trkpt lat="44.311327778221376" lon="8.207273015865667"><ele>558.5</ele><time>2026-04-03T09:09:08Z</time></trkpt><trkpt lat="44.31129284045994" lon="8.20707568089933"><ele>567.75</ele><time>2026-04-03T09:09:09Z</time></trkpt><trkpt lat="44.31126264726154" lon="8.206902074976503"><ele>577.0</ele><time>2026-04-03T09:09:10Z</time></trkpt><trkpt lat="44.31123458017246" lon="8.206746165287445"><ele>577.0</ele><time>2026-04-03T09:09:11Z</time></trkpt><trkpt lat="44.31120851284189" lon="8.206600602720126"><ele>577.0</ele><time>2026-04-03T09:09:11.999Z</time></trkpt><trkpt lat="44.311182718789105" lon="8.206438638458971"><ele>577.0</ele><time>2026-04-03T09:09:12.999Z</time></trkpt><trkpt lat="44.31117158404608" lon="8.206299485715947"><ele>577.0</ele><time>2026-04-03T09:09:13.999Z</time></trkpt><trkpt lat="44.311180106078616" lon="8.206149993260762"><ele>577.0</ele><time>2026-04-03T09:09:14.999Z</time></trkpt><trkpt lat="44.31122649514001" lon="8.205989841662323"><ele>576.25</ele><time>2026-04-03T09:09:15.999Z</time></trkpt><trkpt lat="44.311287972835494" lon="8.2058425854774"><ele>575.5</ele><time>2026-04-03T09:09:16.999Z</time></trkpt><trkpt lat="44.31137578643498" lon="8.205711864664687"><ele>574.75</ele><time>2026-04-03T09:09:17.999Z</time></trkpt><trkpt lat="44.31147539816378" lon="8.20560519084359"><ele>574.0</ele><time>2026-04-03T09:09:18.999Z</time></trkpt><trkpt lat="44.311587199715014" lon="8.205507571406828"><ele>576.0</ele><time>2026-04-03T09:09:19.999Z</time></trkpt><trkpt lat="44.31172619353923" lon="8.205448031484908"><ele>578.0</ele><time>2026-04-03T09:09:20.999Z</time></trkpt><trkpt lat="44.31185858821573" lon="8.205364512211927"><ele>580.0</ele><time>2026-04-03T09:09:21.999Z</time></trkpt><trkpt lat="44.31199204710153" lon="8.205286626547606"><ele>582.0</ele><time>2026-04-03T09:09:22.999Z</time></trkpt><trkpt lat="44.31212396441037" lon="8.205213545481687"><ele>578.0</ele><time>2026-04-03T09:09:23.999Z</time></trkpt><trkpt lat="44.31224832550322" lon="8.205147726042457"><ele>574.0</ele><time>2026-04-03T09:09:24.999Z</time></trkpt><trkpt lat="44.31235636106716" lon="8.205094747212499"><ele>570.0</ele><time>2026-04-03T09:09:25.999Z</time></trkpt><trkpt lat="44.31244375328726" lon="8.205061126352481"><ele>566.0</ele><time>2026-04-03T09:09:26.999Z</time></trkpt><trkpt lat="44.31253031040182" lon="8.20501108827687"><ele>562.0</ele><time>2026-04-03T09:09:27.999Z</time></trkpt><trkpt lat="44.31259563227967" lon="8.204965868357881"><ele>562.0</ele><time>2026-04-03T09:09:28.999Z</time></trkpt><trkpt lat="44.312666091089234" lon="8.204912896347505"><ele>562.0</ele><time>2026-04-03T09:09:29.999Z</time></trkpt><trkpt lat="44.312773206780186" lon="8.20482890871344"><ele>562.0</ele><time>2026-04-03T09:09:31.999Z</time></trkpt><trkpt lat="44.31281385426504" lon="8.204733162405164"><ele>562.0</ele><time>2026-04-03T09:09:32.999Z</time></trkpt><trkpt lat="44.312827980110754" lon="8.204620434864674"><ele>562.0</ele><time>2026-04-03T09:09:33.999Z</time></trkpt><trkpt lat="44.31277315906647" lon="8.204502296066345"><ele>563.2</ele><time>2026-04-03T09:09:34.999Z</time></trkpt><trkpt lat="44.312731209389376" lon="8.204379699133442"><ele>564.4000000000001</ele><time>2026-04-03T09:09:35.999Z</time></trkpt><trkpt lat="44.31267710078816" lon="8.204253547591064"><ele>565.5999999999999</ele><time>2026-04-03T09:09:36.999Z</time></trkpt><trkpt lat="44.31262203532672" lon="8.204120918513716"><ele>566.8</ele><time>2026-04-03T09:09:37.999Z</time></trkpt><trkpt lat="44.3125625158953" lon="8.20396521267666"><ele>568.0</ele><time>2026-04-03T09:09:38.999Z</time></trkpt><trkpt lat="44.312501576357135" lon="8.20381378681818"><ele>568.0</ele><time>2026-04-03T09:09:39.999Z</time></trkpt><trkpt lat="44.31243300820934" lon="8.203656178193912"><ele>568.0</ele><time>2026-04-03T09:09:40.999Z</time></trkpt><trkpt lat="44.31236131001226" lon="8.203484977487975"><ele>568.0</ele><time>2026-04-03T09:09:41.999Z</time></trkpt><trkpt lat="44.31228369047238" lon="8.203304822654346"><ele>568.0</ele><time>2026-04-03T09:09:42.999Z</time></trkpt><trkpt lat="44.31221152214692" lon="8.203131037120905"><ele>574.1999999999999</ele><time>2026-04-03T09:09:43.999Z</time></trkpt><trkpt lat="44.312152106199655" lon="8.20297767965178"><ele>580.4</ele><time>2026-04-03T09:09:44.999Z</time></trkpt><trkpt lat="44.31209426786005" lon="8.202829229740194"><ele>586.5999999999999</ele><time>2026-04-03T09:09:45.999Z</time></trkpt><trkpt lat="44.31205787606716" lon="8.202720533871126"><ele>592.8</ele><time>2026-04-03T09:09:46.999Z</time></trkpt><trkpt lat="44.3120297035494" lon="8.202609850552793"><ele>599.0</ele><time>2026-04-03T09:09:47.999Z</time></trkpt><trkpt lat="44.31200296635079" lon="8.202486173958297"><ele>599.0</ele><time>2026-04-03T09:09:48.999Z</time></trkpt><trkpt lat="44.31199087635974" lon="8.202340969454925"><ele>599.0</ele><time>2026-04-03T09:09:49.999Z</time></trkpt><trkpt lat="44.311991505543006" lon="8.202183865988745"><ele>599.0</ele><time>2026-04-03T09:09:50.999Z</time></trkpt><trkpt lat="44.312026477095614" lon="8.202034394682846"><ele>599.0</ele><time>2026-04-03T09:09:51.999Z</time></trkpt><trkpt lat="44.31205392407166" lon="8.201877245818615"><ele>599.0</ele><time>2026-04-03T09:09:52.999Z</time></trkpt><trkpt lat="44.31207802295052" lon="8.201715430864073"><ele>599.2</ele><time>2026-04-03T09:09:53.999Z</time></trkpt><trkpt lat="44.31209924468128" lon="8.201563822435846"><ele>599.4</ele><time>2026-04-03T09:09:54.999Z</time></trkpt><trkpt lat="44.312118523919764" lon="8.201419464731668"><ele>599.6</ele><time>2026-04-03T09:09:55.999Z</time></trkpt><trkpt lat="44.31211679965551" lon="8.20128685682577"><ele>599.8</ele><time>2026-04-03T09:09:56.999Z</time></trkpt><trkpt lat="44.31212419769762" lon="8.20116755678105"><ele>600.0</ele><time>2026-04-03T09:09:57.999Z</time></trkpt><trkpt lat="44.31212272583961" lon="8.201065928429776"><ele>598.6</ele><time>2026-04-03T09:09:58.999Z</time></trkpt><trkpt lat="44.31206551081942" lon="8.20092136887977"><ele>597.2</ele><time>2026-04-03T09:10:00.999Z</time></trkpt><trkpt lat="44.31200551930179" lon="8.200894440633844"><ele>595.8</ele><time>2026-04-03T09:10:01.999Z</time></trkpt><trkpt lat="44.31190675492101" lon="8.200983218899061"><ele>594.4</ele><time>2026-04-03T09:10:03.999Z</time></trkpt><trkpt lat="44.311882069115285" lon="8.201090300683582"><ele>593.0</ele><time>2026-04-03T09:10:04.999Z</time></trkpt><trkpt lat="44.311879258927135" lon="8.201209125566887"><ele>593.0</ele><time>2026-04-03T09:10:05.999Z</time></trkpt><trkpt lat="44.31186891910911" lon="8.201338602879211"><ele>593.0</ele><time>2026-04-03T09:10:06.999Z</time></trkpt><trkpt lat="44.31184314569953" lon="8.201474317330874"><ele>593.0</ele><time>2026-04-03T09:10:07.998Z</time></trkpt><trkpt lat="44.311795767181934" lon="8.201606637188526"><ele>593.0</ele><time>2026-04-03T09:10:08.998Z</time></trkpt><trkpt lat="44.31174191675714" lon="8.201754683581543"><ele>593.0</ele><time>2026-04-03T09:10:09.998Z</time></trkpt><trkpt lat="44.311693569440365" lon="8.201894636176698"><ele>594.5</ele><time>2026-04-03T09:10:10.998Z</time></trkpt><trkpt lat="44.31164179315978" lon="8.20203911574251"><ele>596.0</ele><time>2026-04-03T09:10:11.998Z</time></trkpt><trkpt lat="44.31158516186365" lon="8.20219475086305"><ele>597.5</ele><time>2026-04-03T09:10:12.998Z</time></trkpt><trkpt lat="44.31153979577875" lon="8.202355032983004"><ele>599.0</ele><time>2026-04-03T09:10:13.998Z</time></trkpt><trkpt lat="44.31149626849011" lon="8.20252097056911"><ele>599.0</ele><time>2026-04-03T09:10:14.998Z</time></trkpt><trkpt lat="44.31145967253063" lon="8.202663096002473"><ele>599.0</ele><time>2026-04-03T09:10:15.998Z</time></trkpt><trkpt lat="44.311441029819605" lon="8.202834689620415"><ele>599.0</ele><time>2026-04-03T09:10:16.998Z</time></trkpt><trkpt lat="44.31144220077201" lon="8.202974395876849"><ele>599.0</ele><time>2026-04-03T09:10:17.998Z</time></trkpt><trkpt lat="44.31145301632668" lon="8.203112580939685"><ele>599.0</ele><time>2026-04-03T09:10:18.998Z</time></trkpt><trkpt lat="44.311480355352224" lon="8.2032399020694"><ele>599.8</ele><time>2026-04-03T09:10:19.998Z</time></trkpt><trkpt lat="44.311521406798526" lon="8.203375907479707"><ele>600.5999999999999</ele><time>2026-04-03T09:10:20.998Z</time></trkpt><trkpt lat="44.31158499625234" lon="8.203517934890591"><ele>601.4</ele><time>2026-04-03T09:10:21.998Z</time></trkpt><trkpt lat="44.311653989589125" lon="8.203629449291686"><ele>602.1999999999999</ele><time>2026-04-03T09:10:22.998Z</time></trkpt><trkpt lat="44.31170881703582" lon="8.203729216773546"><ele>603.0</ele><time>2026-04-03T09:10:23.998Z</time></trkpt><trkpt lat="44.31174257572744" lon="8.203827304371377"><ele>603.0</ele><time>2026-04-03T09:10:24.998Z</time></trkpt><trkpt lat="44.31178263631691" lon="8.203904185892085"><ele>603.0</ele><time>2026-04-03T09:10:25.998Z</time></trkpt><trkpt lat="44.311846465111586" lon="8.204020398887145"><ele>603.0</ele><time>2026-04-03T09:10:27.998Z</time></trkpt><trkpt lat="44.311798381894" lon="8.204171590418856"><ele>603.0</ele><time>2026-04-03T09:10:29.998Z</time></trkpt><trkpt lat="44.311741405228275" lon="8.204215668674706"><ele>603.0</ele><time>2026-04-03T09:10:30.998Z</time></trkpt><trkpt lat="44.31163162880152" lon="8.204174564344825"><ele>603.0</ele><time>2026-04-03T09:10:32.998Z</time></trkpt><trkpt lat="44.31162364553569" lon="8.20406505256038"><ele>603.0</ele><time>2026-04-03T09:10:33.998Z</time></trkpt><trkpt lat="44.31161025863609" lon="8.203961042669636"><ele>603.0</ele><time>2026-04-03T09:10:34.998Z</time></trkpt><trkpt lat="44.31158839271812" lon="8.203834168150722"><ele>603.0</ele><time>2026-04-03T09:10:36Z</time></trkpt><trkpt lat="44.311551733264096" lon="8.203717890034198"><ele>603.0</ele><time>2026-04-03T09:10:37Z</time></trkpt><trkpt lat="44.31149874330209" lon="8.203624840976579"><ele>603.0</ele><time>2026-04-03T09:10:38Z</time></trkpt><trkpt lat="44.31140963278079" lon="8.20354119587819"><ele>609.5</ele><time>2026-04-03T09:10:39Z</time></trkpt><trkpt lat="44.31132970668417" lon="8.203496460205152"><ele>616.0</ele><time>2026-04-03T09:10:40Z</time></trkpt><trkpt lat="44.31126301776976" lon="8.203422259467523"><ele>622.5</ele><time>2026-04-03T09:10:41Z</time></trkpt><trkpt lat="44.31121266800829" lon="8.203336290277495"><ele>629.0</ele><time>2026-04-03T09:10:42Z</time></trkpt><trkpt lat="44.31117871103983" lon="8.203217410368108"><ele>635.5</ele><time>2026-04-03T09:10:43Z</time></trkpt><trkpt lat="44.311153457052185" lon="8.2030882944739"><ele>642.0</ele><time>2026-04-03T09:10:44Z</time></trkpt><trkpt lat="44.31113463023633" lon="8.20293295071023"><ele>642.0</ele><time>2026-04-03T09:10:45Z</time></trkpt><trkpt lat="44.31113802793443" lon="8.202782075466505"><ele>642.0</ele><time>2026-04-03T09:10:46Z</time></trkpt><trkpt lat="44.311151949645556" lon="8.202604907269864"><ele>642.0</ele><time>2026-04-03T09:10:47Z</time></trkpt><trkpt lat="44.31118898652503" lon="8.202426503169555"><ele>642.0</ele><time>2026-04-03T09:10:48Z</time></trkpt><trkpt lat="44.311237712454655" lon="8.202250475914532"><ele>642.25</ele><time>2026-04-03T09:10:49Z</time></trkpt><trkpt lat="44.311261329375554" lon="8.202072242478069"><ele>642.5</ele><time>2026-04-03T09:10:50Z</time></trkpt><trkpt lat="44.31127567959151" lon="8.201905528809448"><ele>642.75</ele><time>2026-04-03T09:10:51Z</time></trkpt><trkpt lat="44.31129408406213" lon="8.201775383893928"><ele>643.0</ele><time>2026-04-03T09:10:52Z</time></trkpt><trkpt lat="44.31134862329427" lon="8.201649765756736"><ele>643.0</ele><time>2026-04-03T09:10:53Z</time></trkpt><trkpt lat="44.311381980789385" lon="8.201552582666455"><ele>643.0</ele><time>2026-04-03T09:10:54Z</time></trkpt><trkpt lat="44.311396986274296" lon="8.201402580008274"><ele>643.0</ele><time>2026-04-03T09:10:56Z</time></trkpt><trkpt lat="44.31136859909255" lon="8.201316786945341"><ele>643.0</ele><time>2026-04-03T09:10:57Z</time></trkpt><trkpt lat="44.31130757586915" lon="8.201250929269525"><ele>643.0</ele><time>2026-04-03T09:10:58Z</time></trkpt><trkpt lat="44.3112313007164" lon="8.20119836052197"><ele>643.0</ele><time>2026-04-03T09:10:59Z</time></trkpt><trkpt lat="44.311138147290734" lon="8.201151460237512"><ele>640.8333333333334</ele><time>2026-04-03T09:11:00Z</time></trkpt><trkpt lat="44.311055760546914" lon="8.201117735956199"><ele>638.6666666666667</ele><time>2026-04-03T09:11:01Z</time></trkpt><trkpt lat="44.31097795974664" lon="8.201081276301426"><ele>636.5</ele><time>2026-04-03T09:11:02Z</time></trkpt><trkpt lat="44.3108856024665" lon="8.20106551439804"><ele>634.3333333333334</ele><time>2026-04-03T09:11:03Z</time></trkpt><trkpt lat="44.31079544969478" lon="8.20104782839024"><ele>632.1666666666666</ele><time>2026-04-03T09:11:04Z</time></trkpt><trkpt lat="44.31070372369541" lon="8.201041254434067"><ele>630.0</ele><time>2026-04-03T09:11:05Z</time></trkpt><trkpt lat="44.31062446762809" lon="8.201035383065678"><ele>637.8</ele><time>2026-04-03T09:11:06Z</time></trkpt><trkpt lat="44.310555783066434" lon="8.201030376445525"><ele>645.6</ele><time>2026-04-03T09:11:07Z</time></trkpt><trkpt lat="44.31044614904987" lon="8.201007073537003"><ele>653.4000000000001</ele><time>2026-04-03T09:11:09Z</time></trkpt><trkpt lat="44.31038329451165" lon="8.200877772059288"><ele>661.2</ele><time>2026-04-03T09:11:11Z</time></trkpt><trkpt lat="44.31039317741115" lon="8.20076521302214"><ele>669.0</ele><time>2026-04-03T09:11:12Z</time></trkpt><trkpt lat="44.31042960048272" lon="8.200651901057944"><ele>670.4000000000001</ele><time>2026-04-03T09:11:13Z</time></trkpt><trkpt lat="44.310466038606585" lon="8.200537745133873"><ele>671.8</ele><time>2026-04-03T09:11:14Z</time></trkpt><trkpt lat="44.31053271276855" lon="8.200449293260304"><ele>673.2</ele><time>2026-04-03T09:11:15Z</time></trkpt><trkpt lat="44.31058273748407" lon="8.20032889312977"><ele>674.5999999999999</ele><time>2026-04-03T09:11:16Z</time></trkpt><trkpt lat="44.31063494464097" lon="8.20019125193514"><ele>676.0</ele><time>2026-04-03T09:11:17Z</time></trkpt><trkpt lat="44.310674284771714" lon="8.200040480241194"><ele>669.0</ele><time>2026-04-03T09:11:17.999Z</time></trkpt><trkpt lat="44.31070984099618" lon="8.199922923217319"><ele>662.0</ele><time>2026-04-03T09:11:18.999Z</time></trkpt><trkpt lat="44.310730941612434" lon="8.199826490319829"><ele>655.0</ele><time>2026-04-03T09:11:19.999Z</time></trkpt><trkpt lat="44.310762011879014" lon="8.199734753338344"><ele>648.0</ele><time>2026-04-03T09:11:20.999Z</time></trkpt><trkpt lat="44.31078195238467" lon="8.19964177587581"><ele>641.0</ele><time>2026-04-03T09:11:21.999Z</time></trkpt><trkpt lat="44.310792756221424" lon="8.199539333619972"><ele>634.0</ele><time>2026-04-03T09:11:22.999Z</time></trkpt><trkpt lat="44.31077649236387" lon="8.199430017262117"><ele>632.8333333333334</ele><time>2026-04-03T09:11:23.999Z</time></trkpt><trkpt lat="44.31073673655509" lon="8.199325380479884"><ele>631.6666666666667</ele><time>2026-04-03T09:11:24.999Z</time></trkpt><trkpt lat="44.31069797542383" lon="8.199236276828913"><ele>630.5</ele><time>2026-04-03T09:11:25.999Z</time></trkpt><trkpt lat="44.31063936451" lon="8.199164284711244"><ele>629.3333333333334</ele><time>2026-04-03T09:11:26.999Z</time></trkpt><trkpt lat="44.31057321619815" lon="8.199113685022548"><ele>628.1666666666666</ele><time>2026-04-03T09:11:27.999Z</time></trkpt><trkpt lat="44.310484420899186" lon="8.199098704259331"><ele>627.0</ele><time>2026-04-03T09:11:28.999Z</time></trkpt><trkpt lat="44.31039564273535" lon="8.19910275330784"><ele>628.25</ele><time>2026-04-03T09:11:29.999Z</time></trkpt><trkpt lat="44.31030391845375" lon="8.199059583741086"><ele>629.5</ele><time>2026-04-03T09:11:30.999Z</time></trkpt><trkpt lat="44.31018654916732" lon="8.199027121913156"><ele>630.75</ele><time>2026-04-03T09:11:31.999Z</time></trkpt><trkpt lat="44.3100651366528" lon="8.198964022296867"><ele>632.0</ele><time>2026-04-03T09:11:32.999Z</time></trkpt><trkpt lat="44.30994875048182" lon="8.198901203758055"><ele>632.0</ele><time>2026-04-03T09:11:33.999Z</time></trkpt><trkpt lat="44.30983127736575" lon="8.198806381978684"><ele>632.0</ele><time>2026-04-03T09:11:34.999Z</time></trkpt><trkpt lat="44.309715233891055" lon="8.198685996143611"><ele>632.0</ele><time>2026-04-03T09:11:35.999Z</time></trkpt><trkpt lat="44.309618439814166" lon="8.198583811420786"><ele>632.0</ele><time>2026-04-03T09:11:36.999Z</time></trkpt><trkpt lat="44.30952769320871" lon="8.198482536595897"><ele>632.75</ele><time>2026-04-03T09:11:37.999Z</time></trkpt><trkpt lat="44.30944269997646" lon="8.198375716686112"><ele>633.5</ele><time>2026-04-03T09:11:38.999Z</time></trkpt><trkpt lat="44.30936085716325" lon="8.198277619516336"><ele>634.25</ele><time>2026-04-03T09:11:39.999Z</time></trkpt><trkpt lat="44.30927500457328" lon="8.198173188200592"><ele>635.0</ele><time>2026-04-03T09:11:40.999Z</time></trkpt><trkpt lat="44.30918544075634" lon="8.198070206686726"><ele>635.0</ele><time>2026-04-03T09:11:41.999Z</time></trkpt><trkpt lat="44.30908918582432" lon="8.19796543956752"><ele>635.0</ele><time>2026-04-03T09:11:42.999Z</time></trkpt><trkpt lat="44.30898784528375" lon="8.197854464742628"><ele>635.0</ele><time>2026-04-03T09:11:43.999Z</time></trkpt><trkpt lat="44.308887401430496" lon="8.19774999722974"><ele>635.0</ele><time>2026-04-03T09:11:44.999Z</time></trkpt><trkpt lat="44.30878540444496" lon="8.197642254635905"><ele>635.25</ele><time>2026-04-03T09:11:45.999Z</time></trkpt><trkpt lat="44.30867890282801" lon="8.197525101723807"><ele>635.5</ele><time>2026-04-03T09:11:46.999Z</time></trkpt><trkpt lat="44.308565478541865" lon="8.197399432529052"><ele>635.75</ele><time>2026-04-03T09:11:47.999Z</time></trkpt><trkpt lat="44.30844522858211" lon="8.197269582922633"><ele>636.0</ele><time>2026-04-03T09:11:48.999Z</time></trkpt><trkpt lat="44.30831338129802" lon="8.197129604341448"><ele>636.0</ele><time>2026-04-03T09:11:49.999Z</time></trkpt><trkpt lat="44.30817842913888" lon="8.196995809167202"><ele>636.0</ele><time>2026-04-03T09:11:50.999Z</time></trkpt><trkpt lat="44.30804879622046" lon="8.196831934627497"><ele>636.0</ele><time>2026-04-03T09:11:51.999Z</time></trkpt><trkpt lat="44.307923481239996" lon="8.19669931151561"><ele>637.5</ele><time>2026-04-03T09:11:52.999Z</time></trkpt><trkpt lat="44.30780728489564" lon="8.196574040241087"><ele>639.0</ele><time>2026-04-03T09:11:53.999Z</time></trkpt><trkpt lat="44.30769732014646" lon="8.196480740481771"><ele>640.5</ele><time>2026-04-03T09:11:54.999Z</time></trkpt><trkpt lat="44.30762347888311" lon="8.196375266051676"><ele>642.0</ele><time>2026-04-03T09:11:55.999Z</time></trkpt><trkpt lat="44.30756228135949" lon="8.196257908073472"><ele>642.0</ele><time>2026-04-03T09:11:56.999Z</time></trkpt><trkpt lat="44.30750458975364" lon="8.196152965964776"><ele>642.0</ele><time>2026-04-03T09:11:57.999Z</time></trkpt><trkpt lat="44.30744247067826" lon="8.196052980230307"><ele>642.0</ele><time>2026-04-03T09:11:58.999Z</time></trkpt><trkpt lat="44.30737358607735" lon="8.195925152159932"><ele>642.0</ele><time>2026-04-03T09:11:59.999Z</time></trkpt><trkpt lat="44.307255085578745" lon="8.195847494902514"><ele>642.0</ele><time>2026-04-03T09:12:00.999Z</time></trkpt><trkpt lat="44.30713399422968" lon="8.195775482744683"><ele>641.25</ele><time>2026-04-03T09:12:01.999Z</time></trkpt><trkpt lat="44.3070093592469" lon="8.195707474101415"><ele>640.5</ele><time>2026-04-03T09:12:02.999Z</time></trkpt><trkpt lat="44.306888170025694" lon="8.195631531021391"><ele>639.75</ele><time>2026-04-03T09:12:03.999Z</time></trkpt><trkpt lat="44.30675927840872" lon="8.195550156414457"><ele>639.0</ele><time>2026-04-03T09:12:04.999Z</time></trkpt><trkpt lat="44.30664989729762" lon="8.19547271905351"><ele>639.0</ele><time>2026-04-03T09:12:05.999Z</time></trkpt><trkpt lat="44.3065520188167" lon="8.19538790878052"><ele>639.0</ele><time>2026-04-03T09:12:06.999Z</time></trkpt><trkpt lat="44.30647080717295" lon="8.195281143176368"><ele>639.0</ele><time>2026-04-03T09:12:07.999Z</time></trkpt><trkpt lat="44.30638826626008" lon="8.195209326588287"><ele>639.0</ele><time>2026-04-03T09:12:08.999Z</time></trkpt><trkpt lat="44.30630862502275" lon="8.195153377279683"><ele>639.0</ele><time>2026-04-03T09:12:09.999Z</time></trkpt><trkpt lat="44.306216730737894" lon="8.195103924974854"><ele>640.2</ele><time>2026-04-03T09:12:10.999Z</time></trkpt><trkpt lat="44.306126956116906" lon="8.19507879319482"><ele>641.4</ele><time>2026-04-03T09:12:11.999Z</time></trkpt><trkpt lat="44.30601779295597" lon="8.195075677235936"><ele>642.6</ele><time>2026-04-03T09:12:12.999Z</time></trkpt><trkpt lat="44.30590456515696" lon="8.195106541656061"><ele>643.8</ele><time>2026-04-03T09:12:13.998Z</time></trkpt><trkpt lat="44.305785995308554" lon="8.19517951685509"><ele>645.0</ele><time>2026-04-03T09:12:14.998Z</time></trkpt><trkpt lat="44.30566900005378" lon="8.195281721856952"><ele>646.0</ele><time>2026-04-03T09:12:15.998Z</time></trkpt><trkpt lat="44.30553876664678" lon="8.195371782289122"><ele>647.0</ele><time>2026-04-03T09:12:16.998Z</time></trkpt><trkpt lat="44.30540517153954" lon="8.195461122121461"><ele>648.0</ele><time>2026-04-03T09:12:17.998Z</time></trkpt><trkpt lat="44.30526965795458" lon="8.19556525850985"><ele>649.0</ele><time>2026-04-03T09:12:18.998Z</time></trkpt><trkpt lat="44.30512711795726" lon="8.195674376094752"><ele>649.0</ele><time>2026-04-03T09:12:19.998Z</time></trkpt><trkpt lat="44.30498238638524" lon="8.195795989081029"><ele>649.0</ele><time>2026-04-03T09:12:20.998Z</time></trkpt><trkpt lat="44.3048238805372" lon="8.195906299080283"><ele>649.0</ele><time>2026-04-03T09:12:21.998Z</time></trkpt><trkpt lat="44.30469548247007" lon="8.196050063936866"><ele>648.0</ele><time>2026-04-03T09:12:22.998Z</time></trkpt><trkpt lat="44.30457970207446" lon="8.196201624576128"><ele>647.0</ele><time>2026-04-03T09:12:23.998Z</time></trkpt><trkpt lat="44.30447493662112" lon="8.196333955745558"><ele>646.0</ele><time>2026-04-03T09:12:24.998Z</time></trkpt><trkpt lat="44.30437770620691" lon="8.196448667928308"><ele>645.0</ele><time>2026-04-03T09:12:25.998Z</time></trkpt><trkpt lat="44.30428576757594" lon="8.1965594844416"><ele>645.0</ele><time>2026-04-03T09:12:26.998Z</time></trkpt><trkpt lat="44.304186147859006" lon="8.196660709537793"><ele>645.0</ele><time>2026-04-03T09:12:27.998Z</time></trkpt><trkpt lat="44.30406711489198" lon="8.196759532244993"><ele>645.0</ele><time>2026-04-03T09:12:28.998Z</time></trkpt><trkpt lat="44.30394165898987" lon="8.196854862848033"><ele>645.0</ele><time>2026-04-03T09:12:29.998Z</time></trkpt><trkpt lat="44.30380792956149" lon="8.196928699232801"><ele>642.0</ele><time>2026-04-03T09:12:30.998Z</time></trkpt><trkpt lat="44.303670631279175" lon="8.196989410995863"><ele>639.0</ele><time>2026-04-03T09:12:31.998Z</time></trkpt><trkpt lat="44.30352062146914" lon="8.197043327943232"><ele>636.0</ele><time>2026-04-03T09:12:32.998Z</time></trkpt><trkpt lat="44.30338528602654" lon="8.19708299060407"><ele>633.0</ele><time>2026-04-03T09:12:33.998Z</time></trkpt><trkpt lat="44.30324306547014" lon="8.197125969983514"><ele>633.0</ele><time>2026-04-03T09:12:34.998Z</time></trkpt><trkpt lat="44.3031174777689" lon="8.19717175833197"><ele>633.0</ele><time>2026-04-03T09:12:35.998Z</time></trkpt><trkpt lat="44.30299669756888" lon="8.197211986568336"><ele>633.0</ele><time>2026-04-03T09:12:36.998Z</time></trkpt><trkpt lat="44.302891621755855" lon="8.197249351828802"><ele>633.0</ele><time>2026-04-03T09:12:37.998Z</time></trkpt><trkpt lat="44.30279373214904" lon="8.197294498078575"><ele>635.0</ele><time>2026-04-03T09:12:38.998Z</time></trkpt><trkpt lat="44.30268011610917" lon="8.197365674627545"><ele>637.0</ele><time>2026-04-03T09:12:39.998Z</time></trkpt><trkpt lat="44.30257253336028" lon="8.197463397975712"><ele>639.0</ele><time>2026-04-03T09:12:40.998Z</time></trkpt><trkpt lat="44.3024824111621" lon="8.197561527020031"><ele>641.0</ele><time>2026-04-03T09:12:42Z</time></trkpt><trkpt lat="44.302394013347346" lon="8.197681221045006"><ele>641.0</ele><time>2026-04-03T09:12:43Z</time></trkpt><trkpt lat="44.30231892783589" lon="8.19782558150756"><ele>641.0</ele><time>2026-04-03T09:12:44Z</time></trkpt><trkpt lat="44.3022476635693" lon="8.19797740701758"><ele>641.0</ele><time>2026-04-03T09:12:45Z</time></trkpt><trkpt lat="44.30218767653576" lon="8.198122898233887"><ele>641.0</ele><time>2026-04-03T09:12:46Z</time></trkpt><trkpt lat="44.3021433919129" lon="8.198265728683921"><ele>639.5999999999999</ele><time>2026-04-03T09:12:47Z</time></trkpt><trkpt lat="44.30209177928035" lon="8.19839429553624"><ele>638.1999999999999</ele><time>2026-04-03T09:12:48Z</time></trkpt><trkpt lat="44.302030952811585" lon="8.198520378746565"><ele>636.8</ele><time>2026-04-03T09:12:49Z</time></trkpt><trkpt lat="44.3019551222584" lon="8.198637316129425"><ele>635.4</ele><time>2026-04-03T09:12:50Z</time></trkpt><trkpt lat="44.30187533564222" lon="8.198742226939018"><ele>634.0</ele><time>2026-04-03T09:12:51Z</time></trkpt><trkpt lat="44.301788728980966" lon="8.198840885856653"><ele>634.0</ele><time>2026-04-03T09:12:52Z</time></trkpt><trkpt lat="44.30169576077147" lon="8.198928590985629"><ele>634.0</ele><time>2026-04-03T09:12:53Z</time></trkpt><trkpt lat="44.30159182464331" lon="8.19900476734494"><ele>634.0</ele><time>2026-04-03T09:12:54Z</time></trkpt><trkpt lat="44.30149048636865" lon="8.199069932317457"><ele>634.0</ele><time>2026-04-03T09:12:55Z</time></trkpt><trkpt lat="44.30137832204687" lon="8.199128909567415"><ele>636.2</ele><time>2026-04-03T09:12:56Z</time></trkpt><trkpt lat="44.301268724503714" lon="8.199176289200048"><ele>638.4</ele><time>2026-04-03T09:12:57Z</time></trkpt><trkpt lat="44.30117815051502" lon="8.199210215609119"><ele>640.6</ele><time>2026-04-03T09:12:58Z</time></trkpt><trkpt lat="44.301090863255084" lon="8.199231308359115"><ele>642.8</ele><time>2026-04-03T09:12:59Z</time></trkpt><trkpt lat="44.30099108651247" lon="8.199226317450409"><ele>645.0</ele><time>2026-04-03T09:13:00Z</time></trkpt><trkpt lat="44.30089169017553" lon="8.199171532819179"><ele>645.0</ele><time>2026-04-03T09:13:01Z</time></trkpt><trkpt lat="44.300801402029975" lon="8.19914916232358"><ele>645.0</ele><time>2026-04-03T09:13:02Z</time></trkpt><trkpt lat="44.30071769411004" lon="8.199128422266941"><ele>645.0</ele><time>2026-04-03T09:13:03Z</time></trkpt><trkpt lat="44.30062463068393" lon="8.199114124845634"><ele>645.0</ele><time>2026-04-03T09:13:04Z</time></trkpt><trkpt lat="44.30051927694897" lon="8.199142028314172"><ele>645.0</ele><time>2026-04-03T09:13:05Z</time></trkpt><trkpt lat="44.300426312032656" lon="8.19918549348169"><ele>643.1666666666666</ele><time>2026-04-03T09:13:06Z</time></trkpt><trkpt lat="44.300342810448804" lon="8.199232920674087"><ele>641.3333333333334</ele><time>2026-04-03T09:13:07Z</time></trkpt><trkpt lat="44.300267968051465" lon="8.199276937073577"><ele>639.5</ele><time>2026-04-03T09:13:08Z</time></trkpt><trkpt lat="44.300198784405595" lon="8.199326484342716"><ele>637.6666666666667</ele><time>2026-04-03T09:13:09Z</time></trkpt><trkpt lat="44.30014139114694" lon="8.199370746904801"><ele>635.8333333333334</ele><time>2026-04-03T09:13:10Z</time></trkpt><trkpt lat="44.30004594115427" lon="8.199494473533775"><ele>634.0</ele><time>2026-04-03T09:13:12Z</time></trkpt><trkpt lat="44.29998862823875" lon="8.199565458471051"><ele>634.0</ele><time>2026-04-03T09:13:13Z</time></trkpt><trkpt lat="44.2999238063669" lon="8.199653215855344"><ele>634.0</ele><time>2026-04-03T09:13:14Z</time></trkpt><trkpt lat="44.299860375696376" lon="8.199758612726635"><ele>634.0</ele><time>2026-04-03T09:13:15Z</time></trkpt><trkpt lat="44.29979296594187" lon="8.19987117130237"><ele>634.0</ele><time>2026-04-03T09:13:16Z</time></trkpt><trkpt lat="44.299719585701965" lon="8.199990782718578"><ele>634.0</ele><time>2026-04-03T09:13:17Z</time></trkpt><trkpt lat="44.29966037607157" lon="8.200097920991869"><ele>633.8</ele><time>2026-04-03T09:13:18Z</time></trkpt><trkpt lat="44.29957728706552" lon="8.200198559784459"><ele>633.5999999999999</ele><time>2026-04-03T09:13:19Z</time></trkpt><trkpt lat="44.29951043497936" lon="8.200305633957349"><ele>633.4</ele><time>2026-04-03T09:13:20Z</time></trkpt><trkpt lat="44.299453231459935" lon="8.200405187469213"><ele>633.1999999999999</ele><time>2026-04-03T09:13:21Z</time></trkpt><trkpt lat="44.299392337648534" lon="8.200509230241712"><ele>633.0</ele><time>2026-04-03T09:13:22Z</time></trkpt><trkpt lat="44.299320750248675" lon="8.200614691311406"><ele>634.0</ele><time>2026-04-03T09:13:23Z</time></trkpt><trkpt lat="44.299253016772354" lon="8.200707908941503"><ele>635.0</ele><time>2026-04-03T09:13:23.999Z</time></trkpt><trkpt lat="44.2991817795522" lon="8.200794959041572"><ele>636.0</ele><time>2026-04-03T09:13:24.999Z</time></trkpt><trkpt lat="44.29909980157276" lon="8.200865682240657"><ele>637.0</ele><time>2026-04-03T09:13:25.999Z</time></trkpt><trkpt lat="44.29900549142782" lon="8.20092452937545"><ele>638.0</ele><time>2026-04-03T09:13:26.999Z</time></trkpt><trkpt lat="44.298903163703635" lon="8.200971963299434"><ele>638.0</ele><time>2026-04-03T09:13:27.999Z</time></trkpt><trkpt lat="44.29880112711454" lon="8.201030628364219"><ele>638.0</ele><time>2026-04-03T09:13:28.999Z</time></trkpt><trkpt lat="44.2986912879683" lon="8.2010942513471"><ele>638.0</ele><time>2026-04-03T09:13:29.999Z</time></trkpt><trkpt lat="44.29859059598429" lon="8.201142172573391"><ele>638.0</ele><time>2026-04-03T09:13:30.999Z</time></trkpt><trkpt lat="44.29848669517784" lon="8.201194544652072"><ele>638.0</ele><time>2026-04-03T09:13:31.999Z</time></trkpt><trkpt lat="44.29838589108666" lon="8.201246917272888"><ele>638.0</ele><time>2026-04-03T09:13:32.999Z</time></trkpt><trkpt lat="44.29829080487157" lon="8.20130312694244"><ele>638.0</ele><time>2026-04-03T09:13:33.999Z</time></trkpt><trkpt lat="44.29819275085237" lon="8.201363501844043"><ele>638.0</ele><time>2026-04-03T09:13:34.999Z</time></trkpt><trkpt lat="44.298095061725064" lon="8.201425726985292"><ele>638.0</ele><time>2026-04-03T09:13:35.999Z</time></trkpt><trkpt lat="44.297989001675035" lon="8.201470756058033"><ele>638.0</ele><time>2026-04-03T09:13:36.999Z</time></trkpt><trkpt lat="44.297883852767356" lon="8.20151415821151"><ele>639.4</ele><time>2026-04-03T09:13:37.999Z</time></trkpt><trkpt lat="44.29777667351285" lon="8.201557109406957"><ele>640.8</ele><time>2026-04-03T09:13:38.999Z</time></trkpt><trkpt lat="44.29767201878117" lon="8.201597144359564"><ele>642.2</ele><time>2026-04-03T09:13:39.999Z</time></trkpt><trkpt lat="44.29756290538203" lon="8.201629673749082"><ele>643.6</ele><time>2026-04-03T09:13:40.999Z</time></trkpt><trkpt lat="44.29745447627096" lon="8.201658557050838"><ele>645.0</ele><time>2026-04-03T09:13:41.999Z</time></trkpt><trkpt lat="44.297339643913496" lon="8.201662344487733"><ele>643.8</ele><time>2026-04-03T09:13:42.999Z</time></trkpt><trkpt lat="44.297233452026305" lon="8.20169111360991"><ele>642.6</ele><time>2026-04-03T09:13:43.999Z</time></trkpt><trkpt lat="44.297127654214684" lon="8.201726560945962"><ele>641.4</ele><time>2026-04-03T09:13:44.999Z</time></trkpt><trkpt lat="44.29701692234896" lon="8.201777064044743"><ele>640.2</ele><time>2026-04-03T09:13:45.999Z</time></trkpt><trkpt lat="44.29690595422291" lon="8.201820144491812"><ele>639.0</ele><time>2026-04-03T09:13:46.999Z</time></trkpt><trkpt lat="44.29680128457353" lon="8.201856966357829"><ele>639.0</ele><time>2026-04-03T09:13:47.999Z</time></trkpt><trkpt lat="44.2966944081328" lon="8.201891439392263"><ele>639.0</ele><time>2026-04-03T09:13:48.999Z</time></trkpt><trkpt lat="44.29658562869748" lon="8.201922025689537"><ele>639.0</ele><time>2026-04-03T09:13:49.999Z</time></trkpt><trkpt lat="44.296475312164276" lon="8.201945353093896"><ele>639.0</ele><time>2026-04-03T09:13:50.999Z</time></trkpt><trkpt lat="44.29636108433335" lon="8.201949713313859"><ele>639.0</ele><time>2026-04-03T09:13:51.999Z</time></trkpt><trkpt lat="44.29624818355958" lon="8.201948249172624"><ele>639.6</ele><time>2026-04-03T09:13:52.999Z</time></trkpt><trkpt lat="44.29613323989785" lon="8.201943469656756"><ele>640.2</ele><time>2026-04-03T09:13:53.999Z</time></trkpt><trkpt lat="44.29602787667563" lon="8.201936021392324"><ele>640.8000000000001</ele><time>2026-04-03T09:13:54.999Z</time></trkpt><trkpt lat="44.2959285038283" lon="8.201921255623093"><ele>641.4</ele><time>2026-04-03T09:13:55.999Z</time></trkpt><trkpt lat="44.29582237791902" lon="8.201907881718542"><ele>642.0</ele><time>2026-04-03T09:13:56.999Z</time></trkpt><trkpt lat="44.29571045658364" lon="8.201896278327984"><ele>642.0</ele><time>2026-04-03T09:13:57.999Z</time></trkpt><trkpt lat="44.29559192528458" lon="8.20189305513679"><ele>642.0</ele><time>2026-04-03T09:13:58.999Z</time></trkpt><trkpt lat="44.295470569586804" lon="8.20186844112752"><ele>642.0</ele><time>2026-04-03T09:13:59.999Z</time></trkpt><trkpt lat="44.29535351757078" lon="8.201869377397006"><ele>642.0</ele><time>2026-04-03T09:14:00.999Z</time></trkpt><trkpt lat="44.29523689838241" lon="8.201856458127178"><ele>641.0</ele><time>2026-04-03T09:14:01.999Z</time></trkpt><trkpt lat="44.29512963211254" lon="8.201855615272857"><ele>640.0</ele><time>2026-04-03T09:14:02.999Z</time></trkpt><trkpt lat="44.29500896036297" lon="8.201840769504953"><ele>639.0</ele><time>2026-04-03T09:14:03.999Z</time></trkpt><trkpt lat="44.29488930946217" lon="8.20183597444285"><ele>638.0</ele><time>2026-04-03T09:14:04.999Z</time></trkpt><trkpt lat="44.294767736018706" lon="8.201835309964208"><ele>637.0</ele><time>2026-04-03T09:14:05.999Z</time></trkpt><trkpt lat="44.29464431730425" lon="8.201841694457714"><ele>636.0</ele><time>2026-04-03T09:14:06.999Z</time></trkpt><trkpt lat="44.29452411406713" lon="8.201846322672194"><ele>635.0</ele><time>2026-04-03T09:14:07.999Z</time></trkpt><trkpt lat="44.29440049138051" lon="8.20184971521605"><ele>634.0</ele><time>2026-04-03T09:14:08.999Z</time></trkpt><trkpt lat="44.29428954911707" lon="8.201851799047441"><ele>634.0</ele><time>2026-04-03T09:14:09.999Z</time></trkpt><trkpt lat="44.29418115168949" lon="8.201859219695471"><ele>634.0</ele><time>2026-04-03T09:14:10.999Z</time></trkpt><trkpt lat="44.294072888939" lon="8.201861121282874"><ele>634.0</ele><time>2026-04-03T09:14:11.999Z</time></trkpt><trkpt lat="44.293972765293915" lon="8.201865131473788"><ele>634.0</ele><time>2026-04-03T09:14:12.999Z</time></trkpt><trkpt lat="44.29386233867968" lon="8.201868794317852"><ele>634.0</ele><time>2026-04-03T09:14:13.999Z</time></trkpt><trkpt lat="44.29374972778251" lon="8.201875748741053"><ele>635.0</ele><time>2026-04-03T09:14:14.999Z</time></trkpt><trkpt lat="44.293631733971885" lon="8.2018756782401"><ele>636.0</ele><time>2026-04-03T09:14:15.999Z</time></trkpt><trkpt lat="44.29351546019273" lon="8.201880242441362"><ele>637.0</ele><time>2026-04-03T09:14:16.999Z</time></trkpt><trkpt lat="44.29339885633606" lon="8.201892845144059"><ele>638.0</ele><time>2026-04-03T09:14:17.999Z</time></trkpt><trkpt lat="44.29327909528202" lon="8.201896113653165"><ele>638.0</ele><time>2026-04-03T09:14:18.999Z</time></trkpt><trkpt lat="44.29315970863323" lon="8.201900838436087"><ele>638.0</ele><time>2026-04-03T09:14:19.998Z</time></trkpt><trkpt lat="44.293033907662824" lon="8.201917325303992"><ele>638.0</ele><time>2026-04-03T09:14:20.998Z</time></trkpt><trkpt lat="44.29291556429944" lon="8.201930343041873"><ele>638.0</ele><time>2026-04-03T09:14:21.998Z</time></trkpt><trkpt lat="44.292798499568335" lon="8.201933463065108"><ele>639.0</ele><time>2026-04-03T09:14:22.998Z</time></trkpt><trkpt lat="44.29267861627772" lon="8.20193223806383"><ele>640.0</ele><time>2026-04-03T09:14:23.998Z</time></trkpt><trkpt lat="44.29256673421236" lon="8.201911957496504"><ele>641.0</ele><time>2026-04-03T09:14:24.998Z</time></trkpt><trkpt lat="44.29244570227919" lon="8.201882706442442"><ele>642.0</ele><time>2026-04-03T09:14:25.998Z</time></trkpt><trkpt lat="44.29232724358253" lon="8.201840132199596"><ele>642.5</ele><time>2026-04-03T09:14:26.998Z</time></trkpt><trkpt lat="44.29221663846876" lon="8.201797823120543"><ele>643.0</ele><time>2026-04-03T09:14:27.998Z</time></trkpt><trkpt lat="44.292096344858855" lon="8.201764934715587"><ele>643.5</ele><time>2026-04-03T09:14:28.998Z</time></trkpt><trkpt lat="44.291980953195036" lon="8.201732572098019"><ele>644.0</ele><time>2026-04-03T09:14:29.998Z</time></trkpt><trkpt lat="44.29186965025388" lon="8.20167894919738"><ele>644.0</ele><time>2026-04-03T09:14:30.998Z</time></trkpt><trkpt lat="44.29175758123726" lon="8.201666168960186"><ele>644.0</ele><time>2026-04-03T09:14:31.998Z</time></trkpt><trkpt lat="44.29164792579471" lon="8.201662359437126"><ele>644.0</ele><time>2026-04-03T09:14:32.998Z</time></trkpt><trkpt lat="44.291541575803656" lon="8.20165650101308"><ele>644.0</ele><time>2026-04-03T09:14:33.998Z</time></trkpt><trkpt lat="44.2914307735009" lon="8.201647526568594"><ele>644.0</ele><time>2026-04-03T09:14:34.998Z</time></trkpt><trkpt lat="44.291327137071384" lon="8.201643330403074"><ele>643.4000000000001</ele><time>2026-04-03T09:14:35.998Z</time></trkpt><trkpt lat="44.291228994993226" lon="8.201644838465368"><ele>642.8</ele><time>2026-04-03T09:14:36.998Z</time></trkpt><trkpt lat="44.291137391385" lon="8.201647731741016"><ele>642.2</ele><time>2026-04-03T09:14:37.998Z</time></trkpt><trkpt lat="44.29105173175552" lon="8.201656331118214"><ele>641.5999999999999</ele><time>2026-04-03T09:14:38.998Z</time></trkpt><trkpt lat="44.2909679032731" lon="8.20167039434619"><ele>641.0</ele><time>2026-04-03T09:14:39.998Z</time></trkpt><trkpt lat="44.29087575099528" lon="8.201691037830333"><ele>641.0</ele><time>2026-04-03T09:14:40.998Z</time></trkpt><trkpt lat="44.29078127850908" lon="8.201739951524967"><ele>641.0</ele><time>2026-04-03T09:14:41.998Z</time></trkpt><trkpt lat="44.290690742633366" lon="8.201793228439804"><ele>641.0</ele><time>2026-04-03T09:14:42.998Z</time></trkpt><trkpt lat="44.29060788082648" lon="8.20183396650587"><ele>641.0</ele><time>2026-04-03T09:14:43.998Z</time></trkpt><trkpt lat="44.290528176320855" lon="8.20185084729764"><ele>641.0</ele><time>2026-04-03T09:14:44.998Z</time></trkpt><trkpt lat="44.29044768518108" lon="8.201925357600526"><ele>640.0</ele><time>2026-04-03T09:14:45.998Z</time></trkpt><trkpt lat="44.290359467004464" lon="8.2019671535476"><ele>639.0</ele><time>2026-04-03T09:14:46.998Z</time></trkpt><trkpt lat="44.29026955703611" lon="8.202009390054615"><ele>638.0</ele><time>2026-04-03T09:14:48Z</time></trkpt><trkpt lat="44.2901739834922" lon="8.202050483996505"><ele>637.0</ele><time>2026-04-03T09:14:49Z</time></trkpt><trkpt lat="44.29006605731973" lon="8.202067133000687"><ele>636.0</ele><time>2026-04-03T09:14:50Z</time></trkpt><trkpt lat="44.28996683734682" lon="8.202113570962085"><ele>636.0</ele><time>2026-04-03T09:14:51Z</time></trkpt><trkpt lat="44.289861970816126" lon="8.20216052087612"><ele>636.0</ele><time>2026-04-03T09:14:52Z</time></trkpt><trkpt lat="44.289755587498995" lon="8.20220780790198"><ele>636.0</ele><time>2026-04-03T09:14:53Z</time></trkpt><trkpt lat="44.289657738054984" lon="8.20225130171016"><ele>636.0</ele><time>2026-04-03T09:14:54Z</time></trkpt><trkpt lat="44.289555214174754" lon="8.202296873266041"><ele>636.0</ele><time>2026-04-03T09:14:55Z</time></trkpt><trkpt lat="44.28944803758846" lon="8.20236760820101"><ele>637.2</ele><time>2026-04-03T09:14:56Z</time></trkpt><trkpt lat="44.28933770977125" lon="8.202402523665368"><ele>638.4000000000001</ele><time>2026-04-03T09:14:57Z</time></trkpt><trkpt lat="44.28923666814472" lon="8.2024560095523"><ele>639.6</ele><time>2026-04-03T09:14:58Z</time></trkpt><trkpt lat="44.28914411742188" lon="8.202525699717999"><ele>640.8000000000001</ele><time>2026-04-03T09:14:59Z</time></trkpt><trkpt lat="44.28905624056994" lon="8.202624818438613"><ele>642.0</ele><time>2026-04-03T09:15:00Z</time></trkpt><trkpt lat="44.28895918304888" lon="8.202728483548025"><ele>639.75</ele><time>2026-04-03T09:15:01Z</time></trkpt><trkpt lat="44.28886989693204" lon="8.202824172844661"><ele>637.5</ele><time>2026-04-03T09:15:02Z</time></trkpt><trkpt lat="44.288774436865765" lon="8.202918971798551"><ele>635.25</ele><time>2026-04-03T09:15:03Z</time></trkpt><trkpt lat="44.28867291053277" lon="8.20300973647581"><ele>633.0</ele><time>2026-04-03T09:15:04Z</time></trkpt><trkpt lat="44.28857143147863" lon="8.203089649315572"><ele>635.4</ele><time>2026-04-03T09:15:05Z</time></trkpt><trkpt lat="44.28848823389808" lon="8.20317267700667"><ele>637.8</ele><time>2026-04-03T09:15:06Z</time></trkpt><trkpt lat="44.288395425699676" lon="8.203255461068927"><ele>640.2</ele><time>2026-04-03T09:15:07Z</time></trkpt><trkpt lat="44.28828973336266" lon="8.203302737042346"><ele>642.6</ele><time>2026-04-03T09:15:08Z</time></trkpt><trkpt lat="44.28818312587897" lon="8.203345512132744"><ele>645.0</ele><time>2026-04-03T09:15:09Z</time></trkpt><trkpt lat="44.28807797765171" lon="8.203374060904327"><ele>645.0</ele><time>2026-04-03T09:15:10Z</time></trkpt><trkpt lat="44.28794711694562" lon="8.20339150816232"><ele>645.0</ele><time>2026-04-03T09:15:11Z</time></trkpt><trkpt lat="44.287835454123424" lon="8.203424246338184"><ele>645.0</ele><time>2026-04-03T09:15:12Z</time></trkpt><trkpt lat="44.2877201810856" lon="8.20342169687468"><ele>645.0</ele><time>2026-04-03T09:15:13Z</time></trkpt><trkpt lat="44.287597929201624" lon="8.20344720846356"><ele>645.0</ele><time>2026-04-03T09:15:14Z</time></trkpt><trkpt lat="44.287497756286285" lon="8.203487130107519"><ele>645.0</ele><time>2026-04-03T09:15:15Z</time></trkpt><trkpt lat="44.28740293732526" lon="8.203523154338175"><ele>645.0</ele><time>2026-04-03T09:15:16Z</time></trkpt><trkpt lat="44.28730481556265" lon="8.20358098282192"><ele>645.0</ele><time>2026-04-03T09:15:17Z</time></trkpt><trkpt lat="44.287199073614204" lon="8.203673328740658"><ele>645.0</ele><time>2026-04-03T09:15:18Z</time></trkpt><trkpt lat="44.287110198527465" lon="8.203792332846124"><ele>644.0</ele><time>2026-04-03T09:15:19Z</time></trkpt><trkpt lat="44.28702533093362" lon="8.203894306928564"><ele>643.0</ele><time>2026-04-03T09:15:20Z</time></trkpt><trkpt lat="44.286934193307815" lon="8.203960372107227"><ele>642.0</ele><time>2026-04-03T09:15:21Z</time></trkpt><trkpt lat="44.28683553131011" lon="8.204000240836201"><ele>641.0</ele><time>2026-04-03T09:15:22Z</time></trkpt><trkpt lat="44.286718744990395" lon="8.204018513137152"><ele>640.0</ele><time>2026-04-03T09:15:23Z</time></trkpt><trkpt lat="44.286614496020476" lon="8.20403237684187"><ele>641.4</ele><time>2026-04-03T09:15:24Z</time></trkpt><trkpt lat="44.28651718064901" lon="8.204053383623705"><ele>642.8</ele><time>2026-04-03T09:15:25Z</time></trkpt><trkpt lat="44.28641471993585" lon="8.204063187456656"><ele>644.2</ele><time>2026-04-03T09:15:26Z</time></trkpt><trkpt lat="44.286309740408086" lon="8.204079159627618"><ele>645.6</ele><time>2026-04-03T09:15:27Z</time></trkpt><trkpt lat="44.28620835586699" lon="8.204097695770127"><ele>647.0</ele><time>2026-04-03T09:15:28Z</time></trkpt><trkpt lat="44.28610197042291" lon="8.204116972629564"><ele>647.0</ele><time>2026-04-03T09:15:29Z</time></trkpt><trkpt lat="44.28599003863287" lon="8.204144097474204"><ele>647.0</ele><time>2026-04-03T09:15:30Z</time></trkpt><trkpt lat="44.28589158351017" lon="8.204170992556385"><ele>647.0</ele><time>2026-04-03T09:15:30.999Z</time></trkpt><trkpt lat="44.28578314497915" lon="8.204174448101877"><ele>647.0</ele><time>2026-04-03T09:15:31.999Z</time></trkpt><trkpt lat="44.28568435930665" lon="8.204195631612127"><ele>647.0</ele><time>2026-04-03T09:15:32.999Z</time></trkpt><trkpt lat="44.28559457374016" lon="8.204206547962672"><ele>646.5</ele><time>2026-04-03T09:15:33.999Z</time></trkpt><trkpt lat="44.28550967010144" lon="8.204204777882817"><ele>646.0</ele><time>2026-04-03T09:15:34.999Z</time></trkpt><trkpt lat="44.28543191439106" lon="8.204203582173106"><ele>645.5</ele><time>2026-04-03T09:15:35.999Z</time></trkpt><trkpt lat="44.285359798700895" lon="8.204194397094653"><ele>645.0</ele><time>2026-04-03T09:15:36.999Z</time></trkpt><trkpt lat="44.28529496122254" lon="8.204162240578729"><ele>644.5</ele><time>2026-04-03T09:15:37.999Z</time></trkpt><trkpt lat="44.28523014353351" lon="8.204105733672948"><ele>644.0</ele><time>2026-04-03T09:15:38.999Z</time></trkpt><trkpt lat="44.28517389029183" lon="8.204009638249902"><ele>643.8333333333333</ele><time>2026-04-03T09:15:39.999Z</time></trkpt><trkpt lat="44.285126284524644" lon="8.203902771684215"><ele>643.6666666666666</ele><time>2026-04-03T09:15:40.999Z</time></trkpt><trkpt lat="44.28508310682341" lon="8.20378642987446"><ele>643.5</ele><time>2026-04-03T09:15:41.999Z</time></trkpt><trkpt lat="44.285040054911605" lon="8.203676246963683"><ele>643.3333333333334</ele><time>2026-04-03T09:15:42.999Z</time></trkpt><trkpt lat="44.285001467139416" lon="8.203580919719888"><ele>643.1666666666667</ele><time>2026-04-03T09:15:43.999Z</time></trkpt><trkpt lat="44.28496499286958" lon="8.203484495187608"><ele>643.0</ele><time>2026-04-03T09:15:44.999Z</time></trkpt><trkpt lat="44.28493288090564" lon="8.203397851828834"><ele>643.0</ele><time>2026-04-03T09:15:45.999Z</time></trkpt><trkpt lat="44.28489896747" lon="8.20331969445548"><ele>643.0</ele><time>2026-04-03T09:15:46.999Z</time></trkpt><trkpt lat="44.28485798828323" lon="8.203209683311849"><ele>643.0</ele><time>2026-04-03T09:15:48.999Z</time></trkpt><trkpt lat="44.28506140691911" lon="8.20313602851094"><ele>643.0</ele><time>2026-04-03T09:15:55.999Z</time></trkpt><trkpt lat="44.28518648595976" lon="8.203053814361365"><ele>644.5999999999999</ele><time>2026-04-03T09:15:57.999Z</time></trkpt><trkpt lat="44.28525967133347" lon="8.203010912006922"><ele>646.1999999999999</ele><time>2026-04-03T09:15:58.999Z</time></trkpt><trkpt lat="44.28533665887822" lon="8.202971258581485"><ele>647.8</ele><time>2026-04-03T09:15:59.999Z</time></trkpt><trkpt lat="44.285427125135755" lon="8.202923114773416"><ele>649.4</ele><time>2026-04-03T09:16:00.999Z</time></trkpt><trkpt lat="44.2855241087573" lon="8.202867504696643"><ele>651.0</ele><time>2026-04-03T09:16:01.999Z</time></trkpt><trkpt lat="44.28561555753697" lon="8.202810139408175"><ele>651.0</ele><time>2026-04-03T09:16:02.999Z</time></trkpt><trkpt lat="44.28569435643234" lon="8.202758252083491"><ele>651.0</ele><time>2026-04-03T09:16:03.999Z</time></trkpt><trkpt lat="44.285775868457776" lon="8.202719460537079"><ele>651.0</ele><time>2026-04-03T09:16:04.999Z</time></trkpt><trkpt lat="44.285859685667" lon="8.202657836750387"><ele>651.0</ele><time>2026-04-03T09:16:05.999Z</time></trkpt><trkpt lat="44.28593588720636" lon="8.202593102076492"><ele>651.0</ele><time>2026-04-03T09:16:06.999Z</time></trkpt><trkpt lat="44.28600593790934" lon="8.202545204583071"><ele>651.0</ele><time>2026-04-03T09:16:07.999Z</time></trkpt><trkpt lat="44.28611700331018" lon="8.202495969962479"><ele>651.0</ele><time>2026-04-03T09:16:09.999Z</time></trkpt><trkpt lat="44.28621149491078" lon="8.2024358792348"><ele>651.0</ele><time>2026-04-03T09:16:11.999Z</time></trkpt><trkpt lat="44.28628901207443" lon="8.202407491359208"><ele>651.0</ele><time>2026-04-03T09:16:13.999Z</time></trkpt><trkpt lat="44.28635708198678" lon="8.202401187842458"><ele>651.0</ele><time>2026-04-03T09:16:16.999Z</time></trkpt><trkpt lat="44.28629347699441" lon="8.202382001157595"><ele>651.0</ele><time>2026-04-03T09:17:03Z</time></trkpt><trkpt lat="44.286355127549115" lon="8.202355941294078"><ele>651.0</ele><time>2026-04-03T09:17:38.999Z</time></trkpt><trkpt lat="44.286296459130334" lon="8.202401970240507"><ele>651.0</ele><time>2026-04-03T09:17:43.999Z</time></trkpt><trkpt lat="44.28622834841819" lon="8.202448077069144"><ele>651.0</ele><time>2026-04-03T09:17:49.999Z</time></trkpt><trkpt lat="44.28619309617171" lon="8.202522520597991"><ele>651.0</ele><time>2026-04-03T09:17:53.999Z</time></trkpt><trkpt lat="44.286177151150106" lon="8.202608594835452"><ele>651.0</ele><time>2026-04-03T09:17:57.999Z</time></trkpt><trkpt lat="44.28618776873202" lon="8.202697949444914"><ele>651.0</ele><time>2026-04-03T09:18:01.999Z</time></trkpt><trkpt lat="44.28626546304558" lon="8.202700763039541"><ele>651.0</ele><time>2026-04-03T09:18:05.999Z</time></trkpt><trkpt lat="44.28632924329457" lon="8.202640387890591"><ele>651.0</ele><time>2026-04-03T09:18:15.999Z</time></trkpt><trkpt lat="44.28638852727979" lon="8.202553242041002"><ele>651.0</ele><time>2026-04-03T09:18:20.999Z</time></trkpt><trkpt lat="44.28647821762583" lon="8.202531763588132"><ele>652.1428571428571</ele><time>2026-04-03T09:18:24.999Z</time></trkpt><trkpt lat="44.28654201930892" lon="8.202531605975162"><ele>653.2857142857142</ele><time>2026-04-03T09:18:28.999Z</time></trkpt><trkpt lat="44.28654956731391" lon="8.202643139175136"><ele>654.4285714285714</ele><time>2026-04-03T09:18:37.998Z</time></trkpt><trkpt lat="44.28659344008222" lon="8.20254795013405"><ele>655.5714285714286</ele><time>2026-04-03T09:18:42.998Z</time></trkpt><trkpt lat="44.28663775298671" lon="8.202475926617328"><ele>656.7142857142857</ele><time>2026-04-03T09:18:46.998Z</time></trkpt><trkpt lat="44.2865618146911" lon="8.2024468402587"><ele>657.8571428571429</ele><time>2026-04-03T09:18:54.998Z</time></trkpt><trkpt lat="44.286551101914334" lon="8.202352303463345"><ele>659.0</ele><time>2026-04-03T09:19:03Z</time></trkpt><trkpt lat="44.28661092126691" lon="8.202324212633275"><ele>659.0</ele><time>2026-04-03T09:19:08Z</time></trkpt><trkpt lat="44.2865469582419" lon="8.202311798623795"><ele>659.0</ele><time>2026-04-03T09:19:56.999Z</time></trkpt><trkpt lat="44.286535412023255" lon="8.20241748583971"><ele>659.0</ele><time>2026-04-03T09:20:04.999Z</time></trkpt><trkpt lat="44.28653712537983" lon="8.202518726412837"><ele>659.0</ele><time>2026-04-03T09:20:09.999Z</time></trkpt><trkpt lat="44.28652143629132" lon="8.202424224673424"><ele>659.0</ele><time>2026-04-03T09:20:24.999Z</time></trkpt><trkpt lat="44.286527729891624" lon="8.202336223508885"><ele>659.0</ele><time>2026-04-03T09:20:33.999Z</time></trkpt><trkpt lat="44.28659202412975" lon="8.202338670744398"><ele>659.0</ele><time>2026-04-03T09:20:49.998Z</time></trkpt><trkpt lat="44.2865208591455" lon="8.202327687021567"><ele>657.8571428571429</ele><time>2026-04-03T09:21:09Z</time></trkpt><trkpt lat="44.286464531559695" lon="8.202387326488724"><ele>656.7142857142857</ele><time>2026-04-03T09:21:13Z</time></trkpt><trkpt lat="44.286403660937424" lon="8.202445527956117"><ele>655.5714285714286</ele><time>2026-04-03T09:21:18Z</time></trkpt><trkpt lat="44.286348648353304" lon="8.20249282706077"><ele>654.4285714285714</ele><time>2026-04-03T09:21:22Z</time></trkpt><trkpt lat="44.28629515433908" lon="8.202561991435688"><ele>653.2857142857142</ele><time>2026-04-03T09:21:27Z</time></trkpt><trkpt lat="44.28623900389658" lon="8.202622526791963"><ele>652.1428571428571</ele><time>2026-04-03T09:21:32Z</time></trkpt><trkpt lat="44.286304949075515" lon="8.202673911959502"><ele>651.0</ele><time>2026-04-03T09:24:21.999Z</time></trkpt><trkpt lat="44.28627415417529" lon="8.202751886924355"><ele>651.0</ele><time>2026-04-03T09:31:54.999Z</time></trkpt><trkpt lat="44.286247532515105" lon="8.202671763979778"><ele>651.0</ele><time>2026-04-03T09:32:05.999Z</time></trkpt><trkpt lat="44.28625582772549" lon="8.202768213372446"><ele>651.0</ele><time>2026-04-03T09:32:45.999Z</time></trkpt><trkpt lat="44.28627305863918" lon="8.202677845131168"><ele>651.0</ele><time>2026-04-03T09:32:56.999Z</time></trkpt><trkpt lat="44.28620527597667" lon="8.202637067178053"><ele>651.0</ele><time>2026-04-03T09:33:13.998Z</time></trkpt><trkpt lat="44.28616040348868" lon="8.202552897533671"><ele>651.0</ele><time>2026-04-03T09:33:17.998Z</time></trkpt><trkpt lat="44.286168571352626" lon="8.2024345071078"><ele>651.0</ele><time>2026-04-03T09:33:20.998Z</time></trkpt><trkpt lat="44.28619649309427" lon="8.202355037979359"><ele>651.0</ele><time>2026-04-03T09:33:25.998Z</time></trkpt><trkpt lat="44.28626810759103" lon="8.20235090527303"><ele>651.0</ele><time>2026-04-03T09:33:30.998Z</time></trkpt><trkpt lat="44.286332859573704" lon="8.202345904451114"><ele>651.0</ele><time>2026-04-03T09:33:36.998Z</time></trkpt><trkpt lat="44.286394885473904" lon="8.202321423240456"><ele>651.0</ele><time>2026-04-03T09:33:40.998Z</time></trkpt><trkpt lat="44.28635046161731" lon="8.20238980271085"><ele>651.0</ele><time>2026-04-03T09:33:46Z</time></trkpt><trkpt lat="44.28636337856157" lon="8.202285113069884"><ele>651.0</ele><time>2026-04-03T09:36:23Z</time></trkpt><trkpt lat="44.286297454708475" lon="8.202288888682773"><ele>651.0</ele><time>2026-04-03T09:36:26Z</time></trkpt><trkpt lat="44.28621129813877" lon="8.20236440760007"><ele>651.0</ele><time>2026-04-03T09:36:28Z</time></trkpt><trkpt lat="44.2861040059794" lon="8.20243684553501"><ele>651.0</ele><time>2026-04-03T09:36:30Z</time></trkpt><trkpt lat="44.28602938410833" lon="8.202479120167512"><ele>651.0</ele><time>2026-04-03T09:36:31Z</time></trkpt><trkpt lat="44.28591730903578" lon="8.20252834855408"><ele>651.0</ele><time>2026-04-03T09:36:33Z</time></trkpt><trkpt lat="44.28582088741238" lon="8.202594278170647"><ele>651.0</ele><time>2026-04-03T09:36:35Z</time></trkpt><trkpt lat="44.285761428623154" lon="8.202634933960164"><ele>651.0</ele><time>2026-04-03T09:36:36Z</time></trkpt><trkpt lat="44.285658133337236" lon="8.202705563449898"><ele>651.0</ele><time>2026-04-03T09:36:37.999Z</time></trkpt><trkpt lat="44.28556252545927" lon="8.202783286300292"><ele>651.0</ele><time>2026-04-03T09:36:39.999Z</time></trkpt><trkpt lat="44.28549446114926" lon="8.202822134813255"><ele>651.0</ele><time>2026-04-03T09:36:40.999Z</time></trkpt><trkpt lat="44.2854034567835" lon="8.202871289648424"><ele>651.0</ele><time>2026-04-03T09:36:41.999Z</time></trkpt><trkpt lat="44.28532217420039" lon="8.202911547583971"><ele>652.0</ele><time>2026-04-03T09:36:42.999Z</time></trkpt><trkpt lat="44.28525472618444" lon="8.20295248366541"><ele>653.0</ele><time>2026-04-03T09:36:43.999Z</time></trkpt><trkpt lat="44.28512140097055" lon="8.203020843033405"><ele>654.0</ele><time>2026-04-03T09:36:45.999Z</time></trkpt><trkpt lat="44.285058433984474" lon="8.203062343506671"><ele>655.0</ele><time>2026-04-03T09:36:46.999Z</time></trkpt><trkpt lat="44.28496019073357" lon="8.203091034277305"><ele>656.0</ele><time>2026-04-03T09:36:48.999Z</time></trkpt><trkpt lat="44.284891917327386" lon="8.203130005095987"><ele>653.4</ele><time>2026-04-03T09:36:50.999Z</time></trkpt><trkpt lat="44.28480533670908" lon="8.203178176771413"><ele>650.8</ele><time>2026-04-03T09:36:56.999Z</time></trkpt><trkpt lat="44.28479353033573" lon="8.203324523188929"><ele>648.1999999999999</ele><time>2026-04-03T09:37:02.999Z</time></trkpt><trkpt lat="44.28485862969409" lon="8.203398622134547"><ele>645.5999999999999</ele><time>2026-04-03T09:37:05.999Z</time></trkpt><trkpt lat="44.2849261441803" lon="8.203572406872002"><ele>643.0</ele><time>2026-04-03T09:37:07.999Z</time></trkpt><trkpt lat="44.28496615572523" lon="8.203652088591076"><ele>643.0</ele><time>2026-04-03T09:37:08.999Z</time></trkpt><trkpt lat="44.28499515353726" lon="8.203739962310872"><ele>643.0</ele><time>2026-04-03T09:37:09.999Z</time></trkpt><trkpt lat="44.28502170496447" lon="8.203863542598164"><ele>643.0</ele><time>2026-04-03T09:37:10.999Z</time></trkpt><trkpt lat="44.285070810709016" lon="8.203979699039701"><ele>643.0</ele><time>2026-04-03T09:37:11.999Z</time></trkpt><trkpt lat="44.285100367460714" lon="8.204087792703554"><ele>643.0</ele><time>2026-04-03T09:37:12.999Z</time></trkpt><trkpt lat="44.285147280955265" lon="8.204154716604595"><ele>643.0</ele><time>2026-04-03T09:37:13.999Z</time></trkpt><trkpt lat="44.28525634077676" lon="8.204244365431993"><ele>643.1666666666667</ele><time>2026-04-03T09:37:15.999Z</time></trkpt><trkpt lat="44.285309280399716" lon="8.20429650331393"><ele>643.3333333333334</ele><time>2026-04-03T09:37:16.999Z</time></trkpt><trkpt lat="44.28541284405723" lon="8.204304564788126"><ele>643.5</ele><time>2026-04-03T09:37:18.999Z</time></trkpt><trkpt lat="44.28549232197471" lon="8.20429178732025"><ele>643.6666666666666</ele><time>2026-04-03T09:37:19.999Z</time></trkpt><trkpt lat="44.28556503754063" lon="8.204285367265461"><ele>643.8333333333333</ele><time>2026-04-03T09:37:20.999Z</time></trkpt><trkpt lat="44.28565366399904" lon="8.20427410587171"><ele>644.0</ele><time>2026-04-03T09:37:21.999Z</time></trkpt><trkpt lat="44.28578787135354" lon="8.204266463896628"><ele>644.6</ele><time>2026-04-03T09:37:22.999Z</time></trkpt><trkpt lat="44.285859122915745" lon="8.204232624015003"><ele>645.2</ele><time>2026-04-03T09:37:23.999Z</time></trkpt><trkpt lat="44.2859607976811" lon="8.204207206451992"><ele>645.8000000000001</ele><time>2026-04-03T09:37:24.999Z</time></trkpt><trkpt lat="44.28608789537789" lon="8.204170320764973"><ele>646.4000000000001</ele><time>2026-04-03T09:37:26.999Z</time></trkpt><trkpt lat="44.28616215516411" lon="8.20417989841175"><ele>647.0</ele><time>2026-04-03T09:37:27.999Z</time></trkpt><trkpt lat="44.28627309118284" lon="8.204175207055583"><ele>647.0</ele><time>2026-04-03T09:37:28.999Z</time></trkpt><trkpt lat="44.286352331287574" lon="8.204154921362505"><ele>647.0</ele><time>2026-04-03T09:37:29.999Z</time></trkpt><trkpt lat="44.286467094520674" lon="8.204140794175089"><ele>647.0</ele><time>2026-04-03T09:37:30.999Z</time></trkpt><trkpt lat="44.28653957715026" lon="8.204127323572258"><ele>647.0</ele><time>2026-04-03T09:37:31.999Z</time></trkpt><trkpt lat="44.28662772384966" lon="8.2041112662818"><ele>647.0</ele><time>2026-04-03T09:37:32.999Z</time></trkpt><trkpt lat="44.286729174627055" lon="8.204077876105625"><ele>645.6</ele><time>2026-04-03T09:37:33.999Z</time></trkpt><trkpt lat="44.28679529177359" lon="8.204059631532887"><ele>644.2</ele><time>2026-04-03T09:37:34.999Z</time></trkpt><trkpt lat="44.28693407717666" lon="8.204024314784306"><ele>642.8</ele><time>2026-04-03T09:37:36.999Z</time></trkpt><trkpt lat="44.287032037094804" lon="8.203994521057258"><ele>641.4</ele><time>2026-04-03T09:37:37.999Z</time></trkpt><trkpt lat="44.287116030968086" lon="8.203952185308024"><ele>640.0</ele><time>2026-04-03T09:37:38.999Z</time></trkpt><trkpt lat="44.28715722078963" lon="8.203863423882682"><ele>640.0</ele><time>2026-04-03T09:37:39.999Z</time></trkpt><trkpt lat="44.287216719690456" lon="8.203758822201804"><ele>640.0</ele><time>2026-04-03T09:37:40.999Z</time></trkpt><trkpt lat="44.28727817882378" lon="8.20365878386785"><ele>640.0</ele><time>2026-04-03T09:37:41.999Z</time></trkpt><trkpt lat="44.287337891473356" lon="8.203603677827504"><ele>640.0</ele><time>2026-04-03T09:37:42.999Z</time></trkpt><trkpt lat="44.2874267693781" lon="8.203559092795112"><ele>640.0</ele><time>2026-04-03T09:37:43.999Z</time></trkpt><trkpt lat="44.28752549979349" lon="8.20352534136739"><ele>641.0</ele><time>2026-04-03T09:37:44.999Z</time></trkpt><trkpt lat="44.28762419611729" lon="8.203479815670796"><ele>642.0</ele><time>2026-04-03T09:37:45.999Z</time></trkpt><trkpt lat="44.287723688752045" lon="8.203468548124462"><ele>643.0</ele><time>2026-04-03T09:37:46.999Z</time></trkpt><trkpt lat="44.28782257949464" lon="8.2034467499574"><ele>644.0</ele><time>2026-04-03T09:37:47.999Z</time></trkpt><trkpt lat="44.28790719582618" lon="8.203443871544671"><ele>645.0</ele><time>2026-04-03T09:37:48.999Z</time></trkpt><trkpt lat="44.28798369130124" lon="8.203432825871545"><ele>645.6</ele><time>2026-04-03T09:37:49.999Z</time></trkpt><trkpt lat="44.28809507509946" lon="8.203416892599405"><ele>646.2</ele><time>2026-04-03T09:37:50.999Z</time></trkpt><trkpt lat="44.28816736640352" lon="8.203398911014055"><ele>646.8</ele><time>2026-04-03T09:37:51.999Z</time></trkpt><trkpt lat="44.28827500236659" lon="8.203357404327233"><ele>647.4</ele><time>2026-04-03T09:37:52.999Z</time></trkpt><trkpt lat="44.28838002057339" lon="8.203339860839575"><ele>648.0</ele><time>2026-04-03T09:37:54Z</time></trkpt><trkpt lat="44.28847786433096" lon="8.20331414823284"><ele>648.0</ele><time>2026-04-03T09:37:55Z</time></trkpt><trkpt lat="44.28856523667096" lon="8.20324006036454"><ele>648.0</ele><time>2026-04-03T09:37:56Z</time></trkpt><trkpt lat="44.28864537376666" lon="8.203150356295053"><ele>648.0</ele><time>2026-04-03T09:37:57Z</time></trkpt><trkpt lat="44.28869322200699" lon="8.20307091844926"><ele>648.0</ele><time>2026-04-03T09:37:58Z</time></trkpt><trkpt lat="44.288773620908316" lon="8.203007209816425"><ele>648.0</ele><time>2026-04-03T09:37:59Z</time></trkpt><trkpt lat="44.28886907268213" lon="8.202926340070464"><ele>646.8</ele><time>2026-04-03T09:38:00Z</time></trkpt><trkpt lat="44.28892290205599" lon="8.202833907490902"><ele>645.5999999999999</ele><time>2026-04-03T09:38:01Z</time></trkpt><trkpt lat="44.28902408227065" lon="8.202775761560755"><ele>644.4000000000001</ele><time>2026-04-03T09:38:02Z</time></trkpt><trkpt lat="44.28909843500089" lon="8.202691871576274"><ele>643.2</ele><time>2026-04-03T09:38:03Z</time></trkpt><trkpt lat="44.28917934379184" lon="8.202614239515203"><ele>642.0</ele><time>2026-04-03T09:38:04Z</time></trkpt><trkpt lat="44.28926326080963" lon="8.20255637155689"><ele>642.0</ele><time>2026-04-03T09:38:05Z</time></trkpt><trkpt lat="44.289339617687276" lon="8.20251359236221"><ele>642.0</ele><time>2026-04-03T09:38:06Z</time></trkpt><trkpt lat="44.28941599405657" lon="8.202445196170146"><ele>642.0</ele><time>2026-04-03T09:38:07Z</time></trkpt><trkpt lat="44.28952242148117" lon="8.202393479756902"><ele>642.0</ele><time>2026-04-03T09:38:08Z</time></trkpt><trkpt lat="44.28962650288523" lon="8.202355935687137"><ele>642.0</ele><time>2026-04-03T09:38:09Z</time></trkpt><trkpt lat="44.289740486909096" lon="8.202334267542469"><ele>640.8000000000001</ele><time>2026-04-03T09:38:10Z</time></trkpt><trkpt lat="44.28984878508034" lon="8.202274242562108"><ele>639.6</ele><time>2026-04-03T09:38:11Z</time></trkpt><trkpt lat="44.28992268928198" lon="8.202231233864707"><ele>638.4000000000001</ele><time>2026-04-03T09:38:12Z</time></trkpt><trkpt lat="44.29002595690443" lon="8.202176980661802"><ele>637.2</ele><time>2026-04-03T09:38:13Z</time></trkpt><trkpt lat="44.29014275496124" lon="8.202141266310626"><ele>636.0</ele><time>2026-04-03T09:38:14Z</time></trkpt><trkpt lat="44.2902490891816" lon="8.202091498704315"><ele>636.0</ele><time>2026-04-03T09:38:15Z</time></trkpt><trkpt lat="44.2903146582188" lon="8.20205390275652"><ele>636.0</ele><time>2026-04-03T09:38:16Z</time></trkpt><trkpt lat="44.290387162435124" lon="8.202042444685347"><ele>636.0</ele><time>2026-04-03T09:38:17Z</time></trkpt><trkpt lat="44.290472642266195" lon="8.201957618078838"><ele>636.0</ele><time>2026-04-03T09:38:18Z</time></trkpt><trkpt lat="44.29056178188911" lon="8.201910463511078"><ele>636.0</ele><time>2026-04-03T09:38:19Z</time></trkpt><trkpt lat="44.29066681459449" lon="8.201860152349303"><ele>637.0</ele><time>2026-04-03T09:38:20Z</time></trkpt><trkpt lat="44.29073684100435" lon="8.20183359805107"><ele>638.0</ele><time>2026-04-03T09:38:21Z</time></trkpt><trkpt lat="44.290834565358985" lon="8.20179718374305"><ele>639.0</ele><time>2026-04-03T09:38:22Z</time></trkpt><trkpt lat="44.290928226955224" lon="8.20176078858968"><ele>640.0</ele><time>2026-04-03T09:38:23Z</time></trkpt><trkpt lat="44.291009786530424" lon="8.201706984298035"><ele>641.0</ele><time>2026-04-03T09:38:24Z</time></trkpt><trkpt lat="44.291101691979414" lon="8.201705687804914"><ele>641.0</ele><time>2026-04-03T09:38:25Z</time></trkpt><trkpt lat="44.291201832309035" lon="8.20171079319389"><ele>641.0</ele><time>2026-04-03T09:38:26Z</time></trkpt><trkpt lat="44.291295567362816" lon="8.201707999394557"><ele>641.0</ele><time>2026-04-03T09:38:27Z</time></trkpt><trkpt lat="44.291399402206004" lon="8.201723434196294"><ele>641.0</ele><time>2026-04-03T09:38:28Z</time></trkpt><trkpt lat="44.29150265830247" lon="8.201738537501454"><ele>641.0</ele><time>2026-04-03T09:38:29Z</time></trkpt><trkpt lat="44.291584380447965" lon="8.201741177816714"><ele>641.5999999999999</ele><time>2026-04-03T09:38:30Z</time></trkpt><trkpt lat="44.291684561605194" lon="8.20174020598938"><ele>642.2</ele><time>2026-04-03T09:38:31Z</time></trkpt><trkpt lat="44.29180731462119" lon="8.201749516234637"><ele>642.8</ele><time>2026-04-03T09:38:32Z</time></trkpt><trkpt lat="44.291915250518045" lon="8.201768963737262"><ele>643.4000000000001</ele><time>2026-04-03T09:38:33Z</time></trkpt><trkpt lat="44.29201331720238" lon="8.201806412340275"><ele>644.0</ele><time>2026-04-03T09:38:34Z</time></trkpt><trkpt lat="44.29211246086027" lon="8.20183528735981"><ele>644.0</ele><time>2026-04-03T09:38:35Z</time></trkpt><trkpt lat="44.29220856979192" lon="8.201869231382362"><ele>644.0</ele><time>2026-04-03T09:38:36Z</time></trkpt><trkpt lat="44.292307499685855" lon="8.20189662988496"><ele>644.0</ele><time>2026-04-03T09:38:37Z</time></trkpt><trkpt lat="44.29240224654981" lon="8.20192554706584"><ele>644.0</ele><time>2026-04-03T09:38:38Z</time></trkpt><trkpt lat="44.292521083599446" lon="8.201955981078585"><ele>644.0</ele><time>2026-04-03T09:38:39Z</time></trkpt><trkpt lat="44.29262489983232" lon="8.201986945767402"><ele>643.5</ele><time>2026-04-03T09:38:40Z</time></trkpt><trkpt lat="44.2927215697964" lon="8.201984914542818"><ele>643.0</ele><time>2026-04-03T09:38:41Z</time></trkpt><trkpt lat="44.292882937568024" lon="8.201990278717117"><ele>642.5</ele><time>2026-04-03T09:38:42Z</time></trkpt><trkpt lat="44.29300416747018" lon="8.201973441149109"><ele>642.0</ele><time>2026-04-03T09:38:43Z</time></trkpt><trkpt lat="44.29310135900326" lon="8.2019689373341"><ele>641.2</ele><time>2026-04-03T09:38:44Z</time></trkpt><trkpt lat="44.293165677482015" lon="8.201968813946364"><ele>640.4000000000001</ele><time>2026-04-03T09:38:45Z</time></trkpt><trkpt lat="44.293282083304526" lon="8.201967186769606"><ele>639.5999999999999</ele><time>2026-04-03T09:38:46Z</time></trkpt><trkpt lat="44.29342234869198" lon="8.201949435346426"><ele>638.8</ele><time>2026-04-03T09:38:47Z</time></trkpt><trkpt lat="44.29351296484317" lon="8.201942070708554"><ele>638.0</ele><time>2026-04-03T09:38:48Z</time></trkpt><trkpt lat="44.293637976288906" lon="8.201939717107567"><ele>638.0</ele><time>2026-04-03T09:38:49Z</time></trkpt><trkpt lat="44.29373179463827" lon="8.201937011771571"><ele>638.0</ele><time>2026-04-03T09:38:50Z</time></trkpt><trkpt lat="44.29382716651793" lon="8.201934143942777"><ele>638.0</ele><time>2026-04-03T09:38:51Z</time></trkpt><trkpt lat="44.293911094183805" lon="8.201923339134293"><ele>638.0</ele><time>2026-04-03T09:38:52Z</time></trkpt><trkpt lat="44.29402312332498" lon="8.201928256614924"><ele>638.0</ele><time>2026-04-03T09:38:53Z</time></trkpt><trkpt lat="44.29414662928005" lon="8.201927116188104"><ele>637.1999999999999</ele><time>2026-04-03T09:38:53.999Z</time></trkpt><trkpt lat="44.29425833157844" lon="8.201924400442136"><ele>636.4</ele><time>2026-04-03T09:38:54.999Z</time></trkpt><trkpt lat="44.29435092734436" lon="8.201917130774614"><ele>635.5999999999999</ele><time>2026-04-03T09:38:55.999Z</time></trkpt><trkpt lat="44.29443020842539" lon="8.201910307597467"><ele>634.8</ele><time>2026-04-03T09:38:56.999Z</time></trkpt><trkpt lat="44.29452101086447" lon="8.201904727437059"><ele>634.0</ele><time>2026-04-03T09:38:57.999Z</time></trkpt><trkpt lat="44.29460570557174" lon="8.20190422108434"><ele>634.0</ele><time>2026-04-03T09:38:58.999Z</time></trkpt><trkpt lat="44.294702840219045" lon="8.201893909190215"><ele>634.0</ele><time>2026-04-03T09:38:59.999Z</time></trkpt><trkpt lat="44.294813164005355" lon="8.20188794022661"><ele>634.0</ele><time>2026-04-03T09:39:00.999Z</time></trkpt><trkpt lat="44.29493372468597" lon="8.20188346917493"><ele>634.0</ele><time>2026-04-03T09:39:01.999Z</time></trkpt><trkpt lat="44.295024284514625" lon="8.20188509989286"><ele>634.0</ele><time>2026-04-03T09:39:02.999Z</time></trkpt><trkpt lat="44.29511499360867" lon="8.20189050065673"><ele>634.8</ele><time>2026-04-03T09:39:03.999Z</time></trkpt><trkpt lat="44.295209393827676" lon="8.201896784814059"><ele>635.5999999999999</ele><time>2026-04-03T09:39:04.999Z</time></trkpt><trkpt lat="44.29531159055473" lon="8.201910980629368"><ele>636.4</ele><time>2026-04-03T09:39:05.999Z</time></trkpt><trkpt lat="44.29539314962269" lon="8.201922228295116"><ele>637.1999999999999</ele><time>2026-04-03T09:39:06.999Z</time></trkpt><trkpt lat="44.29548276077062" lon="8.20193272475791"><ele>638.0</ele><time>2026-04-03T09:39:07.999Z</time></trkpt><trkpt lat="44.29559299815649" lon="8.201944612898007"><ele>638.8</ele><time>2026-04-03T09:39:08.999Z</time></trkpt><trkpt lat="44.295700484465804" lon="8.201947919996067"><ele>639.5999999999999</ele><time>2026-04-03T09:39:09.999Z</time></trkpt><trkpt lat="44.295797134632444" lon="8.20195615046707"><ele>640.4000000000001</ele><time>2026-04-03T09:39:10.999Z</time></trkpt><trkpt lat="44.29587273897853" lon="8.201972906711235"><ele>641.2</ele><time>2026-04-03T09:39:11.999Z</time></trkpt><trkpt lat="44.29596388656819" lon="8.201984620050448"><ele>642.0</ele><time>2026-04-03T09:39:12.999Z</time></trkpt><trkpt lat="44.29606744997965" lon="8.201990883465598"><ele>642.0</ele><time>2026-04-03T09:39:13.999Z</time></trkpt><trkpt lat="44.29617704450115" lon="8.202007282695568"><ele>642.0</ele><time>2026-04-03T09:39:14.999Z</time></trkpt><trkpt lat="44.29629812224819" lon="8.202016456450123"><ele>642.0</ele><time>2026-04-03T09:39:15.999Z</time></trkpt><trkpt lat="44.29639726675205" lon="8.202016178910107"><ele>642.0</ele><time>2026-04-03T09:39:16.999Z</time></trkpt><trkpt lat="44.29649440651087" lon="8.202008262900554"><ele>642.0</ele><time>2026-04-03T09:39:17.999Z</time></trkpt><trkpt lat="44.29660267262695" lon="8.201983473528268"><ele>641.25</ele><time>2026-04-03T09:39:18.999Z</time></trkpt><trkpt lat="44.29670938042304" lon="8.201941030437244"><ele>640.5</ele><time>2026-04-03T09:39:19.999Z</time></trkpt><trkpt lat="44.296826878375576" lon="8.201892694447153"><ele>639.75</ele><time>2026-04-03T09:39:20.999Z</time></trkpt><trkpt lat="44.29693532148187" lon="8.201860160754267"><ele>639.0</ele><time>2026-04-03T09:39:21.999Z</time></trkpt><trkpt lat="44.29704958485358" lon="8.201836704415554"><ele>639.0</ele><time>2026-04-03T09:39:22.999Z</time></trkpt><trkpt lat="44.297147820918205" lon="8.201805970076814"><ele>639.0</ele><time>2026-04-03T09:39:23.999Z</time></trkpt><trkpt lat="44.29725100017743" lon="8.201769109814647"><ele>639.0</ele><time>2026-04-03T09:39:24.999Z</time></trkpt><trkpt lat="44.29735546055872" lon="8.201731307335153"><ele>639.0</ele><time>2026-04-03T09:39:25.999Z</time></trkpt><trkpt lat="44.297457998751646" lon="8.201706974052394"><ele>639.0</ele><time>2026-04-03T09:39:26.999Z</time></trkpt><trkpt lat="44.297569296496704" lon="8.201679068623331"><ele>640.2</ele><time>2026-04-03T09:39:27.999Z</time></trkpt><trkpt lat="44.29767336836899" lon="8.201654117547374"><ele>641.4</ele><time>2026-04-03T09:39:28.999Z</time></trkpt><trkpt lat="44.29777483923107" lon="8.201625110849374"><ele>642.6</ele><time>2026-04-03T09:39:29.999Z</time></trkpt><trkpt lat="44.29787422370119" lon="8.201590639528641"><ele>643.8</ele><time>2026-04-03T09:39:30.999Z</time></trkpt><trkpt lat="44.29797548341096" lon="8.201551281480489"><ele>645.0</ele><time>2026-04-03T09:39:31.999Z</time></trkpt><trkpt lat="44.29807320508711" lon="8.201504990117426"><ele>643.25</ele><time>2026-04-03T09:39:32.999Z</time></trkpt><trkpt lat="44.2981792457496" lon="8.201446911858888"><ele>641.5</ele><time>2026-04-03T09:39:33.999Z</time></trkpt><trkpt lat="44.2982772269401" lon="8.201386938291998"><ele>639.75</ele><time>2026-04-03T09:39:34.999Z</time></trkpt><trkpt lat="44.29839067069362" lon="8.201327974383306"><ele>638.0</ele><time>2026-04-03T09:39:35.999Z</time></trkpt><trkpt lat="44.298508149410736" lon="8.201271548681438"><ele>638.0</ele><time>2026-04-03T09:39:36.999Z</time></trkpt><trkpt lat="44.29862571266894" lon="8.201208607165404"><ele>638.0</ele><time>2026-04-03T09:39:37.999Z</time></trkpt><trkpt lat="44.298738003717794" lon="8.201143969365864"><ele>638.0</ele><time>2026-04-03T09:39:38.999Z</time></trkpt><trkpt lat="44.29883670888471" lon="8.2010628463923"><ele>638.0</ele><time>2026-04-03T09:39:39.999Z</time></trkpt><trkpt lat="44.298941428391856" lon="8.201013276883717"><ele>637.0</ele><time>2026-04-03T09:39:40.999Z</time></trkpt><trkpt lat="44.299047370490854" lon="8.200948987685567"><ele>636.0</ele><time>2026-04-03T09:39:41.999Z</time></trkpt><trkpt lat="44.2991426332977" lon="8.20088487059093"><ele>635.0</ele><time>2026-04-03T09:39:42.999Z</time></trkpt><trkpt lat="44.299259302017475" lon="8.200838016887907"><ele>634.0</ele><time>2026-04-03T09:39:43.999Z</time></trkpt><trkpt lat="44.29933997998005" lon="8.200746377367617"><ele>633.0</ele><time>2026-04-03T09:39:44.999Z</time></trkpt><trkpt lat="44.299408111077604" lon="8.20063844082974"><ele>633.0</ele><time>2026-04-03T09:39:45.999Z</time></trkpt><trkpt lat="44.29946901690059" lon="8.200533851972722"><ele>633.0</ele><time>2026-04-03T09:39:46.999Z</time></trkpt><trkpt lat="44.29953536090254" lon="8.200412401100582"><ele>633.0</ele><time>2026-04-03T09:39:47.999Z</time></trkpt><trkpt lat="44.29960255506829" lon="8.200294089567596"><ele>633.0</ele><time>2026-04-03T09:39:48.999Z</time></trkpt><trkpt lat="44.29967858378274" lon="8.20016197252857"><ele>633.0</ele><time>2026-04-03T09:39:49.999Z</time></trkpt><trkpt lat="44.29974086517699" lon="8.200046239443777"><ele>633.1999999999999</ele><time>2026-04-03T09:39:50.999Z</time></trkpt><trkpt lat="44.29980800965703" lon="8.199931118799178"><ele>633.4</ele><time>2026-04-03T09:39:51.999Z</time></trkpt><trkpt lat="44.29986707531663" lon="8.199832754797443"><ele>633.5999999999999</ele><time>2026-04-03T09:39:52.999Z</time></trkpt><trkpt lat="44.29992684198856" lon="8.199742281678065"><ele>633.8</ele><time>2026-04-03T09:39:53.999Z</time></trkpt><trkpt lat="44.29999229727523" lon="8.199639227163823"><ele>634.0</ele><time>2026-04-03T09:39:54.999Z</time></trkpt><trkpt lat="44.30005482755014" lon="8.19954324369315"><ele>634.0</ele><time>2026-04-03T09:39:55.999Z</time></trkpt><trkpt lat="44.30011353165449" lon="8.199459091789446"><ele>634.0</ele><time>2026-04-03T09:39:56.999Z</time></trkpt><trkpt lat="44.30017611712214" lon="8.199377843796725"><ele>634.0</ele><time>2026-04-03T09:39:57.999Z</time></trkpt><trkpt lat="44.30025781218895" lon="8.199312422062917"><ele>634.0</ele><time>2026-04-03T09:39:58.999Z</time></trkpt><trkpt lat="44.300351007667885" lon="8.1992784270138"><ele>634.0</ele><time>2026-04-03T09:40:00Z</time></trkpt><trkpt lat="44.30041596787464" lon="8.199241816177008"><ele>634.0</ele><time>2026-04-03T09:40:01Z</time></trkpt><trkpt lat="44.3004981305973" lon="8.199201534780684"><ele>634.0</ele><time>2026-04-03T09:40:02Z</time></trkpt><trkpt lat="44.30057553492096" lon="8.199170106775107"><ele>634.0</ele><time>2026-04-03T09:40:03Z</time></trkpt><trkpt lat="44.300671843404665" lon="8.19916368000299"><ele>634.0</ele><time>2026-04-03T09:40:04Z</time></trkpt><trkpt lat="44.30074987855453" lon="8.199183486503813"><ele>634.0</ele><time>2026-04-03T09:40:05Z</time></trkpt><trkpt lat="44.30085190686705" lon="8.199208765702263"><ele>634.0</ele><time>2026-04-03T09:40:06Z</time></trkpt><trkpt lat="44.30094020153979" lon="8.1992399907569"><ele>636.2</ele><time>2026-04-03T09:40:07Z</time></trkpt><trkpt lat="44.301003276143135" lon="8.199263131766505"><ele>638.4</ele><time>2026-04-03T09:40:08Z</time></trkpt><trkpt lat="44.3010884221939" lon="8.199261407304727"><ele>640.6</ele><time>2026-04-03T09:40:09Z</time></trkpt><trkpt lat="44.30121978410088" lon="8.199238073738686"><ele>642.8</ele><time>2026-04-03T09:40:10Z</time></trkpt><trkpt lat="44.30131458210918" lon="8.1992064674934"><ele>645.0</ele><time>2026-04-03T09:40:11Z</time></trkpt><trkpt lat="44.301425219042045" lon="8.199154314130409"><ele>647.0</ele><time>2026-04-03T09:40:12Z</time></trkpt><trkpt lat="44.30151089343558" lon="8.199113291042277"><ele>649.0</ele><time>2026-04-03T09:40:13Z</time></trkpt><trkpt lat="44.30159246039009" lon="8.19906591532627"><ele>651.0</ele><time>2026-04-03T09:40:14Z</time></trkpt><trkpt lat="44.30168112211853" lon="8.199008107598102"><ele>653.0</ele><time>2026-04-03T09:40:15Z</time></trkpt><trkpt lat="44.30178216709626" lon="8.198946737087653"><ele>655.0</ele><time>2026-04-03T09:40:16Z</time></trkpt><trkpt lat="44.30187007337135" lon="8.198862718644925"><ele>650.8</ele><time>2026-04-03T09:40:17Z</time></trkpt><trkpt lat="44.30196263805296" lon="8.198771960563546"><ele>646.6</ele><time>2026-04-03T09:40:18Z</time></trkpt><trkpt lat="44.30200345469648" lon="8.198653370762628"><ele>642.4</ele><time>2026-04-03T09:40:19Z</time></trkpt><trkpt lat="44.302061594691196" lon="8.198545477263211"><ele>638.2</ele><time>2026-04-03T09:40:20Z</time></trkpt><trkpt lat="44.302110441413724" lon="8.198419619403733"><ele>634.0</ele><time>2026-04-03T09:40:21Z</time></trkpt><trkpt lat="44.30214922328464" lon="8.198325812045447"><ele>634.0</ele><time>2026-04-03T09:40:22Z</time></trkpt><trkpt lat="44.30220720098412" lon="8.198216298547981"><ele>634.0</ele><time>2026-04-03T09:40:23Z</time></trkpt><trkpt lat="44.30225885014649" lon="8.198104775743468"><ele>634.0</ele><time>2026-04-03T09:40:24Z</time></trkpt><trkpt lat="44.30229619192347" lon="8.197982507549268"><ele>634.0</ele><time>2026-04-03T09:40:25Z</time></trkpt><trkpt lat="44.30233906459077" lon="8.197862668333737"><ele>634.0</ele><time>2026-04-03T09:40:26Z</time></trkpt><trkpt lat="44.30240033263469" lon="8.197756929894645"><ele>635.4</ele><time>2026-04-03T09:40:27Z</time></trkpt><trkpt lat="44.30246971786637" lon="8.197640684042502"><ele>636.8</ele><time>2026-04-03T09:40:28Z</time></trkpt><trkpt lat="44.30255253111698" lon="8.197531951992984"><ele>638.1999999999999</ele><time>2026-04-03T09:40:29Z</time></trkpt><trkpt lat="44.30264567218038" lon="8.19743723160639"><ele>639.5999999999999</ele><time>2026-04-03T09:40:30Z</time></trkpt><trkpt lat="44.30274963377525" lon="8.197399054229836"><ele>641.0</ele><time>2026-04-03T09:40:31Z</time></trkpt><trkpt lat="44.302848559886485" lon="8.197361798219827"><ele>639.4</ele><time>2026-04-03T09:40:32Z</time></trkpt><trkpt lat="44.30294112906491" lon="8.197275518572512"><ele>637.8</ele><time>2026-04-03T09:40:33Z</time></trkpt><trkpt lat="44.30304802135965" lon="8.197247660856965"><ele>636.1999999999999</ele><time>2026-04-03T09:40:34Z</time></trkpt><trkpt lat="44.30315804522782" lon="8.197214260782486"><ele>634.5999999999999</ele><time>2026-04-03T09:40:35Z</time></trkpt><trkpt lat="44.30326211068164" lon="8.197183228369544"><ele>633.0</ele><time>2026-04-03T09:40:36Z</time></trkpt><trkpt lat="44.30336616254116" lon="8.197150939717716"><ele>633.0</ele><time>2026-04-03T09:40:37Z</time></trkpt><trkpt lat="44.30346577661916" lon="8.197095553007133"><ele>633.0</ele><time>2026-04-03T09:40:38Z</time></trkpt><trkpt lat="44.303586626992775" lon="8.197104420856094"><ele>633.0</ele><time>2026-04-03T09:40:39Z</time></trkpt><trkpt lat="44.30371744097816" lon="8.197072595199014"><ele>633.0</ele><time>2026-04-03T09:40:40Z</time></trkpt><trkpt lat="44.303811615381576" lon="8.197048280882496"><ele>633.0</ele><time>2026-04-03T09:40:41Z</time></trkpt><trkpt lat="44.30390938271978" lon="8.197019220836356"><ele>633.0</ele><time>2026-04-03T09:40:42Z</time></trkpt><trkpt lat="44.304028464454504" lon="8.196921974120292"><ele>633.0</ele><time>2026-04-03T09:40:43Z</time></trkpt><trkpt lat="44.30411428217863" lon="8.196835997599896"><ele>633.0</ele><time>2026-04-03T09:40:44Z</time></trkpt><trkpt lat="44.304198075285015" lon="8.196757622661062"><ele>633.0</ele><time>2026-04-03T09:40:45Z</time></trkpt><trkpt lat="44.30427780092567" lon="8.196678446587201"><ele>632.6</ele><time>2026-04-03T09:40:46Z</time></trkpt><trkpt lat="44.304363417231016" lon="8.196588312639793"><ele>632.1999999999999</ele><time>2026-04-03T09:40:47Z</time></trkpt><trkpt lat="44.304441287932804" lon="8.19648713165813"><ele>631.8</ele><time>2026-04-03T09:40:48Z</time></trkpt><trkpt lat="44.304523403937644" lon="8.196379880818643"><ele>631.4</ele><time>2026-04-03T09:40:49Z</time></trkpt><trkpt lat="44.30460574280776" lon="8.196276060613005"><ele>631.0</ele><time>2026-04-03T09:40:50Z</time></trkpt><trkpt lat="44.304687242371095" lon="8.196179149223715"><ele>634.6</ele><time>2026-04-03T09:40:51Z</time></trkpt><trkpt lat="44.3047708637012" lon="8.196089833099288"><ele>638.2</ele><time>2026-04-03T09:40:52Z</time></trkpt><trkpt lat="44.304860695905504" lon="8.196000611132094"><ele>641.8000000000001</ele><time>2026-04-03T09:40:53Z</time></trkpt><trkpt lat="44.30494192053765" lon="8.195913347307194"><ele>645.4000000000001</ele><time>2026-04-03T09:40:54Z</time></trkpt><trkpt lat="44.30504152645986" lon="8.195825023917031"><ele>649.0</ele><time>2026-04-03T09:40:55Z</time></trkpt><trkpt lat="44.30514445693707" lon="8.195742937684226"><ele>648.2</ele><time>2026-04-03T09:40:56Z</time></trkpt><trkpt lat="44.30524668717014" lon="8.195652627366298"><ele>647.4000000000001</ele><time>2026-04-03T09:40:57Z</time></trkpt><trkpt lat="44.305342573239166" lon="8.195581261946197"><ele>646.6</ele><time>2026-04-03T09:40:58Z</time></trkpt><trkpt lat="44.3054363677843" lon="8.195507538971707"><ele>645.8</ele><time>2026-04-03T09:40:59Z</time></trkpt><trkpt lat="44.30551913249313" lon="8.195447063001936"><ele>645.0</ele><time>2026-04-03T09:41:00Z</time></trkpt><trkpt lat="44.3056057046703" lon="8.195367997505837"><ele>645.0</ele><time>2026-04-03T09:41:01Z</time></trkpt><trkpt lat="44.30569746769627" lon="8.195302614276779"><ele>645.0</ele><time>2026-04-03T09:41:02Z</time></trkpt><trkpt lat="44.30578426262391" lon="8.19523495315798"><ele>645.0</ele><time>2026-04-03T09:41:03Z</time></trkpt><trkpt lat="44.305869499091706" lon="8.195189449691204"><ele>645.0</ele><time>2026-04-03T09:41:03.999Z</time></trkpt><trkpt lat="44.30595314203892" lon="8.195146331630069"><ele>645.0</ele><time>2026-04-03T09:41:04.999Z</time></trkpt><trkpt lat="44.30604837558656" lon="8.195154100206967"><ele>645.0</ele><time>2026-04-03T09:41:05.999Z</time></trkpt><trkpt lat="44.30612251163713" lon="8.195150572312778"><ele>645.0</ele><time>2026-04-03T09:41:06.999Z</time></trkpt><trkpt lat="44.306199540653786" lon="8.19514838296873"><ele>645.0</ele><time>2026-04-03T09:41:07.999Z</time></trkpt><trkpt lat="44.3062872729063" lon="8.195209656057889"><ele>645.0</ele><time>2026-04-03T09:41:08.999Z</time></trkpt><trkpt lat="44.30638178711366" lon="8.195270295834518"><ele>645.0</ele><time>2026-04-03T09:41:09.999Z</time></trkpt><trkpt lat="44.306501964801875" lon="8.195375694974103"><ele>643.8</ele><time>2026-04-03T09:41:10.999Z</time></trkpt><trkpt lat="44.306593831446456" lon="8.195432812255694"><ele>642.6</ele><time>2026-04-03T09:41:11.999Z</time></trkpt><trkpt lat="44.3066773884657" lon="8.195510360887937"><ele>641.4</ele><time>2026-04-03T09:41:12.999Z</time></trkpt><trkpt lat="44.30678046820457" lon="8.195597397332914"><ele>640.2</ele><time>2026-04-03T09:41:13.999Z</time></trkpt><trkpt lat="44.306874972313835" lon="8.195663276947505"><ele>639.0</ele><time>2026-04-03T09:41:14.999Z</time></trkpt><trkpt lat="44.30696351055578" lon="8.195744919508332"><ele>639.6</ele><time>2026-04-03T09:41:15.999Z</time></trkpt><trkpt lat="44.30708195143246" lon="8.19580075977056"><ele>640.2</ele><time>2026-04-03T09:41:16.999Z</time></trkpt><trkpt lat="44.30718680071996" lon="8.195845121173745"><ele>640.8000000000001</ele><time>2026-04-03T09:41:17.999Z</time></trkpt><trkpt lat="44.30725903630927" lon="8.19589350091755"><ele>641.4</ele><time>2026-04-03T09:41:18.999Z</time></trkpt><trkpt lat="44.307341742148246" lon="8.195951787182702"><ele>642.0</ele><time>2026-04-03T09:41:19.999Z</time></trkpt><trkpt lat="44.307417742870676" lon="8.196036141762404"><ele>642.0</ele><time>2026-04-03T09:41:20.999Z</time></trkpt><trkpt lat="44.30748031561302" lon="8.196152156596785"><ele>642.0</ele><time>2026-04-03T09:41:21.999Z</time></trkpt><trkpt lat="44.30754634281419" lon="8.196274322866568"><ele>642.0</ele><time>2026-04-03T09:41:22.999Z</time></trkpt><trkpt lat="44.307617656151955" lon="8.196402174780523"><ele>642.0</ele><time>2026-04-03T09:41:23.999Z</time></trkpt><trkpt lat="44.30770216279902" lon="8.196522973496988"><ele>640.5</ele><time>2026-04-03T09:41:24.999Z</time></trkpt><trkpt lat="44.30779857687268" lon="8.196640211253795"><ele>639.0</ele><time>2026-04-03T09:41:25.999Z</time></trkpt><trkpt lat="44.30790207546617" lon="8.196744548195534"><ele>637.5</ele><time>2026-04-03T09:41:26.999Z</time></trkpt><trkpt lat="44.30799430821031" lon="8.196848863626178"><ele>636.0</ele><time>2026-04-03T09:41:27.999Z</time></trkpt><trkpt lat="44.308091892178595" lon="8.196951283170447"><ele>636.0</ele><time>2026-04-03T09:41:28.999Z</time></trkpt><trkpt lat="44.308196275467445" lon="8.197062846832328"><ele>636.0</ele><time>2026-04-03T09:41:29.999Z</time></trkpt><trkpt lat="44.30830695136172" lon="8.19717571322868"><ele>636.0</ele><time>2026-04-03T09:41:30.999Z</time></trkpt><trkpt lat="44.308399006848255" lon="8.197284892985563"><ele>636.0</ele><time>2026-04-03T09:41:31.999Z</time></trkpt><trkpt lat="44.30850205264694" lon="8.197397115897886"><ele>641.25</ele><time>2026-04-03T09:41:32.999Z</time></trkpt><trkpt lat="44.30859741227454" lon="8.1974991587949"><ele>646.5</ele><time>2026-04-03T09:41:33.999Z</time></trkpt><trkpt lat="44.30870210308247" lon="8.197604090997933"><ele>651.75</ele><time>2026-04-03T09:41:34.999Z</time></trkpt><trkpt lat="44.30880517416902" lon="8.197703938791353"><ele>657.0</ele><time>2026-04-03T09:41:35.999Z</time></trkpt><trkpt lat="44.30890728778325" lon="8.19782323966521"><ele>657.75</ele><time>2026-04-03T09:41:36.999Z</time></trkpt><trkpt lat="44.30900680046899" lon="8.197936622458165"><ele>658.5</ele><time>2026-04-03T09:41:37.999Z</time></trkpt><trkpt lat="44.309100262329764" lon="8.198047025083174"><ele>659.25</ele><time>2026-04-03T09:41:38.999Z</time></trkpt><trkpt lat="44.30919838325606" lon="8.198159846490777"><ele>660.0</ele><time>2026-04-03T09:41:39.999Z</time></trkpt><trkpt lat="44.309292601894086" lon="8.198268764919423"><ele>660.0</ele><time>2026-04-03T09:41:40.999Z</time></trkpt><trkpt lat="44.30938156779064" lon="8.198373138168467"><ele>660.0</ele><time>2026-04-03T09:41:41.999Z</time></trkpt><trkpt lat="44.30946995647114" lon="8.198480043499838"><ele>660.0</ele><time>2026-04-03T09:41:42.999Z</time></trkpt><trkpt lat="44.309563267153486" lon="8.198588790470282"><ele>660.0</ele><time>2026-04-03T09:41:43.999Z</time></trkpt><trkpt lat="44.30964403450034" lon="8.198694386829809"><ele>660.0</ele><time>2026-04-03T09:41:44.999Z</time></trkpt><trkpt lat="44.30973936394612" lon="8.198794675481913"><ele>660.0</ele><time>2026-04-03T09:41:45.999Z</time></trkpt><trkpt lat="44.309793743249" lon="8.198895186240215"><ele>660.0</ele><time>2026-04-03T09:41:46.999Z</time></trkpt><trkpt lat="44.30988522172318" lon="8.198970019420916"><ele>660.0</ele><time>2026-04-03T09:41:47.999Z</time></trkpt><trkpt lat="44.30998039638787" lon="8.199030181094797"><ele>660.0</ele><time>2026-04-03T09:41:48.999Z</time></trkpt><trkpt lat="44.31006808138073" lon="8.199068067345324"><ele>659.3333333333334</ele><time>2026-04-03T09:41:49.999Z</time></trkpt><trkpt lat="44.31016293732777" lon="8.199112204828158"><ele>658.6666666666666</ele><time>2026-04-03T09:41:50.999Z</time></trkpt><trkpt lat="44.31024072860857" lon="8.199131550820242"><ele>658.0</ele><time>2026-04-03T09:41:51.999Z</time></trkpt><trkpt lat="44.31031748434046" lon="8.199149355080056"><ele>657.3333333333333</ele><time>2026-04-03T09:41:52.999Z</time></trkpt><trkpt lat="44.31038541615492" lon="8.19915377853692"><ele>656.6666666666666</ele><time>2026-04-03T09:41:53.999Z</time></trkpt><trkpt lat="44.310451345009085" lon="8.199157182987516"><ele>656.0</ele><time>2026-04-03T09:41:54.999Z</time></trkpt><trkpt lat="44.31052120066157" lon="8.199165070767963"><ele>651.1666666666666</ele><time>2026-04-03T09:41:55.999Z</time></trkpt><trkpt lat="44.31059173512707" lon="8.199200843619034"><ele>646.3333333333333</ele><time>2026-04-03T09:41:56.999Z</time></trkpt><trkpt lat="44.310652775183954" lon="8.19925713957469"><ele>641.5</ele><time>2026-04-03T09:41:57.999Z</time></trkpt><trkpt lat="44.31068977129617" lon="8.19933377991354"><ele>636.6666666666666</ele><time>2026-04-03T09:41:58.999Z</time></trkpt><trkpt lat="44.31072263499013" lon="8.199500612358158"><ele>631.8333333333334</ele><time>2026-04-03T09:42:00.999Z</time></trkpt><trkpt lat="44.31072057273912" lon="8.199600619218623"><ele>627.0</ele><time>2026-04-03T09:42:01.999Z</time></trkpt><trkpt lat="44.310696163908105" lon="8.199715539233718"><ele>627.0</ele><time>2026-04-03T09:42:02.999Z</time></trkpt><trkpt lat="44.31068952063929" lon="8.199831800195437"><ele>627.0</ele><time>2026-04-03T09:42:03.999Z</time></trkpt><trkpt lat="44.31065691228597" lon="8.199955742784477"><ele>627.0</ele><time>2026-04-03T09:42:04.999Z</time></trkpt><trkpt lat="44.31062186723731" lon="8.200084957975392"><ele>627.0</ele><time>2026-04-03T09:42:06.001Z</time></trkpt><trkpt lat="44.3105843092601" lon="8.20020547354754"><ele>627.0</ele><time>2026-04-03T09:42:07.001Z</time></trkpt><trkpt lat="44.31051484088369" lon="8.200304469868264"><ele>634.0</ele><time>2026-04-03T09:42:08Z</time></trkpt><trkpt lat="44.31047038361856" lon="8.200428555887179"><ele>641.0</ele><time>2026-04-03T09:42:09Z</time></trkpt><trkpt lat="44.310432599791355" lon="8.200526293473422"><ele>648.0</ele><time>2026-04-03T09:42:10Z</time></trkpt><trkpt lat="44.310401478454814" lon="8.200609709565107"><ele>655.0</ele><time>2026-04-03T09:42:11Z</time></trkpt><trkpt lat="44.31036856376866" lon="8.200704226186152"><ele>662.0</ele><time>2026-04-03T09:42:12Z</time></trkpt><trkpt lat="44.31032208869589" lon="8.200812767720954"><ele>669.0</ele><time>2026-04-03T09:42:14Z</time></trkpt><trkpt lat="44.310341452489276" lon="8.200918492817596"><ele>669.0</ele><time>2026-04-03T09:42:16Z</time></trkpt><trkpt lat="44.310425952864975" lon="8.201038868065018"><ele>669.0</ele><time>2026-04-03T09:42:18Z</time></trkpt><trkpt lat="44.31048317114672" lon="8.201102410097384"><ele>669.0</ele><time>2026-04-03T09:42:19Z</time></trkpt><trkpt lat="44.31056512644738" lon="8.201086472060286"><ele>669.0</ele><time>2026-04-03T09:42:20Z</time></trkpt><trkpt lat="44.31064952010861" lon="8.20107505336447"><ele>669.0</ele><time>2026-04-03T09:42:21Z</time></trkpt><trkpt lat="44.31074286869659" lon="8.20108574070045"><ele>662.5</ele><time>2026-04-03T09:42:22Z</time></trkpt><trkpt lat="44.31085088816896" lon="8.201091150379355"><ele>656.0</ele><time>2026-04-03T09:42:23Z</time></trkpt><trkpt lat="44.31092828950739" lon="8.20112274867189"><ele>649.5</ele><time>2026-04-03T09:42:24Z</time></trkpt><trkpt lat="44.31099969649141" lon="8.20113631674538"><ele>643.0</ele><time>2026-04-03T09:42:25Z</time></trkpt><trkpt lat="44.31107027749211" lon="8.20119235582151"><ele>636.5</ele><time>2026-04-03T09:42:26Z</time></trkpt><trkpt lat="44.31114223991084" lon="8.201220774116832"><ele>630.0</ele><time>2026-04-03T09:42:27Z</time></trkpt><trkpt lat="44.31126191170024" lon="8.201296755722376"><ele>630.0</ele><time>2026-04-03T09:42:29Z</time></trkpt><trkpt lat="44.311301018707475" lon="8.201378070640361"><ele>630.0</ele><time>2026-04-03T09:42:30Z</time></trkpt><trkpt lat="44.31133815780275" lon="8.201569038424052"><ele>630.0</ele><time>2026-04-03T09:42:32Z</time></trkpt><trkpt lat="44.311298831436126" lon="8.201667473051481"><ele>630.0</ele><time>2026-04-03T09:42:33Z</time></trkpt><trkpt lat="44.31127015132215" lon="8.201777173860128"><ele>630.0</ele><time>2026-04-03T09:42:34Z</time></trkpt><trkpt lat="44.31124448731191" lon="8.201929149775228"><ele>632.4</ele><time>2026-04-03T09:42:35Z</time></trkpt><trkpt lat="44.31119316831782" lon="8.202063173653313"><ele>634.8</ele><time>2026-04-03T09:42:36Z</time></trkpt><trkpt lat="44.31116613326715" lon="8.202175074378973"><ele>637.2</ele><time>2026-04-03T09:42:37Z</time></trkpt><trkpt lat="44.311139272610085" lon="8.202295048606448"><ele>639.6</ele><time>2026-04-03T09:42:38Z</time></trkpt><trkpt lat="44.31110978494535" lon="8.202419644510874"><ele>642.0</ele><time>2026-04-03T09:42:39Z</time></trkpt><trkpt lat="44.31108720545506" lon="8.202553251698376"><ele>642.0</ele><time>2026-04-03T09:42:40Z</time></trkpt><trkpt lat="44.31106589879326" lon="8.202684416048621"><ele>642.0</ele><time>2026-04-03T09:42:41Z</time></trkpt><trkpt lat="44.31106220239355" lon="8.202819467854559"><ele>642.0</ele><time>2026-04-03T09:42:42Z</time></trkpt><trkpt lat="44.31107311982125" lon="8.202961119553247"><ele>642.0</ele><time>2026-04-03T09:42:43Z</time></trkpt><trkpt lat="44.311103863326494" lon="8.20308188891545"><ele>642.0</ele><time>2026-04-03T09:42:44Z</time></trkpt><trkpt lat="44.311123307633004" lon="8.203201205136043"><ele>642.3333333333334</ele><time>2026-04-03T09:42:45Z</time></trkpt><trkpt lat="44.31115495931509" lon="8.203300079328999"><ele>642.6666666666666</ele><time>2026-04-03T09:42:46Z</time></trkpt><trkpt lat="44.31119395396749" lon="8.2033797958175"><ele>643.0</ele><time>2026-04-03T09:42:47Z</time></trkpt><trkpt lat="44.31124599019129" lon="8.203481182425945"><ele>643.3333333333333</ele><time>2026-04-03T09:42:48Z</time></trkpt><trkpt lat="44.311319975251685" lon="8.203541849384957"><ele>643.6666666666666</ele><time>2026-04-03T09:42:49Z</time></trkpt><trkpt lat="44.31138683514854" lon="8.203598494130222"><ele>644.0</ele><time>2026-04-03T09:42:50Z</time></trkpt><trkpt lat="44.31144274650899" lon="8.203725564850094"><ele>637.3333333333333</ele><time>2026-04-03T09:42:51Z</time></trkpt><trkpt lat="44.31149275765617" lon="8.203815145631653"><ele>630.6666666666666</ele><time>2026-04-03T09:42:52Z</time></trkpt><trkpt lat="44.311529120545444" lon="8.203900258667545"><ele>624.0</ele><time>2026-04-03T09:42:53Z</time></trkpt><trkpt lat="44.31155194322756" lon="8.204000023174313"><ele>617.3333333333334</ele><time>2026-04-03T09:42:54Z</time></trkpt><trkpt lat="44.31156663156456" lon="8.204090784854822"><ele>610.6666666666667</ele><time>2026-04-03T09:42:55Z</time></trkpt><trkpt lat="44.31160199248185" lon="8.204229736963384"><ele>604.0</ele><time>2026-04-03T09:42:57Z</time></trkpt><trkpt lat="44.31167151724147" lon="8.204324136264235"><ele>604.0</ele><time>2026-04-03T09:42:59Z</time></trkpt><trkpt lat="44.311764962766134" lon="8.204280668845817"><ele>604.0</ele><time>2026-04-03T09:43:01Z</time></trkpt><trkpt lat="44.311873797481084" lon="8.204165739601848"><ele>604.0</ele><time>2026-04-03T09:43:03Z</time></trkpt><trkpt lat="44.31186717054249" lon="8.203985109037415"><ele>604.0</ele><time>2026-04-03T09:43:05Z</time></trkpt><trkpt lat="44.31181409565078" lon="8.203875617816204"><ele>603.8</ele><time>2026-04-03T09:43:05.999Z</time></trkpt><trkpt lat="44.3117528952186" lon="8.203771379902935"><ele>603.5999999999999</ele><time>2026-04-03T09:43:06.999Z</time></trkpt><trkpt lat="44.311693639258785" lon="8.203677391483678"><ele>603.4</ele><time>2026-04-03T09:43:07.999Z</time></trkpt><trkpt lat="44.311639559265274" lon="8.203566007844968"><ele>603.1999999999999</ele><time>2026-04-03T09:43:08.999Z</time></trkpt><trkpt lat="44.31158819970591" lon="8.203479901117033"><ele>603.0</ele><time>2026-04-03T09:43:09.999Z</time></trkpt><trkpt lat="44.31153038799004" lon="8.203359792807415"><ele>603.0</ele><time>2026-04-03T09:43:10.999Z</time></trkpt><trkpt lat="44.311510631886385" lon="8.203244344795099"><ele>603.0</ele><time>2026-04-03T09:43:11.999Z</time></trkpt><trkpt lat="44.311494689622506" lon="8.20315814143232"><ele>603.0</ele><time>2026-04-03T09:43:12.999Z</time></trkpt><trkpt lat="44.3114834983019" lon="8.202923423648654"><ele>603.0</ele><time>2026-04-03T09:43:14.999Z</time></trkpt><trkpt lat="44.31148652779225" lon="8.20275542031174"><ele>603.0</ele><time>2026-04-03T09:43:15.999Z</time></trkpt><trkpt lat="44.31151853839502" lon="8.202601999441141"><ele>602.25</ele><time>2026-04-03T09:43:16.999Z</time></trkpt><trkpt lat="44.311548467987365" lon="8.20243191919445"><ele>601.5</ele><time>2026-04-03T09:43:17.999Z</time></trkpt><trkpt lat="44.311601621581225" lon="8.20228298139798"><ele>600.75</ele><time>2026-04-03T09:43:18.999Z</time></trkpt><trkpt lat="44.31165948974841" lon="8.202117239462883"><ele>600.0</ele><time>2026-04-03T09:43:19.999Z</time></trkpt><trkpt lat="44.31169500148004" lon="8.20197782814665"><ele>600.0</ele><time>2026-04-03T09:43:20.999Z</time></trkpt><trkpt lat="44.31175146542743" lon="8.201838939305889"><ele>600.0</ele><time>2026-04-03T09:43:21.999Z</time></trkpt><trkpt lat="44.31179841420104" lon="8.20168821882207"><ele>600.0</ele><time>2026-04-03T09:43:22.999Z</time></trkpt><trkpt lat="44.31184426320411" lon="8.201578876462367"><ele>600.0</ele><time>2026-04-03T09:43:23.999Z</time></trkpt><trkpt lat="44.311884081649225" lon="8.201482188229702"><ele>600.0</ele><time>2026-04-03T09:43:24.999Z</time></trkpt><trkpt lat="44.31190447371347" lon="8.201370982977933"><ele>598.6</ele><time>2026-04-03T09:43:25.999Z</time></trkpt><trkpt lat="44.311922107185794" lon="8.201245664101446"><ele>597.2</ele><time>2026-04-03T09:43:26.999Z</time></trkpt><trkpt lat="44.311922094872244" lon="8.201083887170874"><ele>595.8</ele><time>2026-04-03T09:43:28.999Z</time></trkpt><trkpt lat="44.31197028372276" lon="8.200989417887346"><ele>594.4</ele><time>2026-04-03T09:43:30.999Z</time></trkpt><trkpt lat="44.31205505299518" lon="8.200960839844667"><ele>593.0</ele><time>2026-04-03T09:43:32.999Z</time></trkpt><trkpt lat="44.31211365170891" lon="8.201123648836468"><ele>593.0</ele><time>2026-04-03T09:43:34.999Z</time></trkpt><trkpt lat="44.31211360850659" lon="8.201242093323714"><ele>593.0</ele><time>2026-04-03T09:43:35.999Z</time></trkpt><trkpt lat="44.3120919778203" lon="8.201332606809855"><ele>593.0</ele><time>2026-04-03T09:43:36.999Z</time></trkpt><trkpt lat="44.31208044756013" lon="8.201458186302176"><ele>593.0</ele><time>2026-04-03T09:43:37.999Z</time></trkpt><trkpt lat="44.31205341408716" lon="8.201619316719128"><ele>593.0</ele><time>2026-04-03T09:43:38.999Z</time></trkpt><trkpt lat="44.31203643276205" lon="8.201761349996849"><ele>594.0</ele><time>2026-04-03T09:43:39.999Z</time></trkpt><trkpt lat="44.312017509163894" lon="8.201892713932494"><ele>595.0</ele><time>2026-04-03T09:43:40.999Z</time></trkpt><trkpt lat="44.31199511926623" lon="8.202008820998683"><ele>596.0</ele><time>2026-04-03T09:43:41.999Z</time></trkpt><trkpt lat="44.31198277670121" lon="8.202119196489356"><ele>597.0</ele><time>2026-04-03T09:43:42.999Z</time></trkpt><trkpt lat="44.31197148626969" lon="8.202215967436343"><ele>598.0</ele><time>2026-04-03T09:43:43.999Z</time></trkpt><trkpt lat="44.31196235378864" lon="8.202349097467126"><ele>599.0</ele><time>2026-04-03T09:43:44.999Z</time></trkpt><trkpt lat="44.31197941074138" lon="8.202540179538458"><ele>599.0</ele><time>2026-04-03T09:43:46.999Z</time></trkpt><trkpt lat="44.31201403251438" lon="8.20267085725167"><ele>599.0</ele><time>2026-04-03T09:43:47.999Z</time></trkpt><trkpt lat="44.31207284690195" lon="8.202881591390632"><ele>599.0</ele><time>2026-04-03T09:43:48.999Z</time></trkpt><trkpt lat="44.312131442786864" lon="8.203006118224613"><ele>599.0</ele><time>2026-04-03T09:43:49.999Z</time></trkpt><trkpt lat="44.312193314543215" lon="8.203147905073052"><ele>591.25</ele><time>2026-04-03T09:43:50.999Z</time></trkpt><trkpt lat="44.31224638121611" lon="8.203262824433828"><ele>583.5</ele><time>2026-04-03T09:43:51.999Z</time></trkpt><trkpt lat="44.312287214544575" lon="8.203430665438436"><ele>575.75</ele><time>2026-04-03T09:43:52.999Z</time></trkpt><trkpt lat="44.31234107782763" lon="8.203580692577201"><ele>568.0</ele><time>2026-04-03T09:43:53.999Z</time></trkpt><trkpt lat="44.312395149195915" lon="8.203707562297586"><ele>568.0</ele><time>2026-04-03T09:43:54.999Z</time></trkpt><trkpt lat="44.31244261707639" lon="8.20383619728902"><ele>568.0</ele><time>2026-04-03T09:43:55.999Z</time></trkpt><trkpt lat="44.312491651422334" lon="8.203963754825502"><ele>568.0</ele><time>2026-04-03T09:43:56.999Z</time></trkpt><trkpt lat="44.312544607589224" lon="8.204058932492288"><ele>568.0</ele><time>2026-04-03T09:43:57.999Z</time></trkpt><trkpt lat="44.31259775071432" lon="8.204178877817712"><ele>568.0</ele><time>2026-04-03T09:43:58.999Z</time></trkpt><trkpt lat="44.3126474738088" lon="8.20429934188524"><ele>568.6666666666667</ele><time>2026-04-03T09:43:59.999Z</time></trkpt><trkpt lat="44.312689260483246" lon="8.204387380366374"><ele>569.3333333333334</ele><time>2026-04-03T09:44:00.999Z</time></trkpt><trkpt lat="44.31272622772278" lon="8.204480458573634"><ele>570.0</ele><time>2026-04-03T09:44:01.999Z</time></trkpt><trkpt lat="44.3127627548445" lon="8.204578104241866"><ele>570.6666666666666</ele><time>2026-04-03T09:44:02.999Z</time></trkpt><trkpt lat="44.31276825622318" lon="8.204735363945735"><ele>571.3333333333333</ele><time>2026-04-03T09:44:04.999Z</time></trkpt><trkpt lat="44.31273953724987" lon="8.204822687950099"><ele>572.0</ele><time>2026-04-03T09:44:05.999Z</time></trkpt><trkpt lat="44.31267531883836" lon="8.204887837839646"><ele>569.5</ele><time>2026-04-03T09:44:06.999Z</time></trkpt><trkpt lat="44.31257876921457" lon="8.204883611562028"><ele>567.0</ele><time>2026-04-03T09:44:07.999Z</time></trkpt><trkpt lat="44.312470480360716" lon="8.204937270453485"><ele>564.5</ele><time>2026-04-03T09:44:08.999Z</time></trkpt><trkpt lat="44.312365723836514" lon="8.204996714934055"><ele>562.0</ele><time>2026-04-03T09:44:09.999Z</time></trkpt><trkpt lat="44.31224565234439" lon="8.205063718709615"><ele>567.0</ele><time>2026-04-03T09:44:10.998Z</time></trkpt><trkpt lat="44.312126610315865" lon="8.205130437539282"><ele>572.0</ele><time>2026-04-03T09:44:12Z</time></trkpt><trkpt lat="44.312018208681764" lon="8.20519149014373"><ele>577.0</ele><time>2026-04-03T09:44:13Z</time></trkpt><trkpt lat="44.31191364616828" lon="8.205256110431353"><ele>582.0</ele><time>2026-04-03T09:44:14Z</time></trkpt><trkpt lat="44.311808123271504" lon="8.205315478232606"><ele>582.0</ele><time>2026-04-03T09:44:15Z</time></trkpt><trkpt lat="44.31170446590394" lon="8.205378241092493"><ele>582.0</ele><time>2026-04-03T09:44:16Z</time></trkpt><trkpt lat="44.31161163514624" lon="8.205422738772175"><ele>582.0</ele><time>2026-04-03T09:44:17Z</time></trkpt><trkpt lat="44.31152840627935" lon="8.20548317166267"><ele>582.0</ele><time>2026-04-03T09:44:18Z</time></trkpt><trkpt lat="44.311438206275426" lon="8.205549977057517"><ele>582.0</ele><time>2026-04-03T09:44:19Z</time></trkpt><trkpt lat="44.31136540082667" lon="8.20564049067014"><ele>580.4</ele><time>2026-04-03T09:44:20Z</time></trkpt><trkpt lat="44.31129825512111" lon="8.20575616694322"><ele>578.8000000000001</ele><time>2026-04-03T09:44:21Z</time></trkpt><trkpt lat="44.3112343507813" lon="8.205882531023255"><ele>577.2</ele><time>2026-04-03T09:44:22Z</time></trkpt><trkpt lat="44.31118536503517" lon="8.20597954521847"><ele>575.6</ele><time>2026-04-03T09:44:23Z</time></trkpt><trkpt lat="44.31115003353125" lon="8.206099565022367"><ele>574.0</ele><time>2026-04-03T09:44:24Z</time></trkpt><trkpt lat="44.31111691369596" lon="8.206239570127897"><ele>574.0</ele><time>2026-04-03T09:44:25Z</time></trkpt><trkpt lat="44.31112923951447" lon="8.206425440094678"><ele>574.0</ele><time>2026-04-03T09:44:26Z</time></trkpt><trkpt lat="44.31115474851233" lon="8.206622876362655"><ele>574.0</ele><time>2026-04-03T09:44:27Z</time></trkpt><trkpt lat="44.31118184721602" lon="8.206813147297032"><ele>574.0</ele><time>2026-04-03T09:44:28Z</time></trkpt><trkpt lat="44.31121572059788" lon="8.207016828811094"><ele>575.0</ele><time>2026-04-03T09:44:29Z</time></trkpt><trkpt lat="44.31125053192672" lon="8.207215062133075"><ele>576.0</ele><time>2026-04-03T09:44:30Z</time></trkpt><trkpt lat="44.31130203171462" lon="8.207465360969765"><ele>577.0</ele><time>2026-04-03T09:44:31Z</time></trkpt><trkpt lat="44.31134587672834" lon="8.207723076068975"><ele>579.3333333333334</ele><time>2026-04-03T09:44:32Z</time></trkpt><trkpt lat="44.311388298440846" lon="8.207962055892148"><ele>581.6666666666666</ele><time>2026-04-03T09:44:33Z</time></trkpt><trkpt lat="44.311443286056196" lon="8.208221612488785"><ele>584.0</ele><time>2026-04-03T09:44:34Z</time></trkpt><trkpt lat="44.31148455847587" lon="8.208474716345886"><ele>571.0</ele><time>2026-04-03T09:44:35Z</time></trkpt><trkpt lat="44.3115290076047" lon="8.208701152793832"><ele>558.0</ele><time>2026-04-03T09:44:36Z</time></trkpt><trkpt lat="44.31156891103872" lon="8.208935425296547"><ele>545.0</ele><time>2026-04-03T09:44:37Z</time></trkpt><trkpt lat="44.311605295525055" lon="8.209143207787763"><ele>545.0</ele><time>2026-04-03T09:44:38Z</time></trkpt><trkpt lat="44.3116369821774" lon="8.209328521976362"><ele>545.0</ele><time>2026-04-03T09:44:39Z</time></trkpt><trkpt lat="44.31167966377067" lon="8.209538088264617"><ele>545.0</ele><time>2026-04-03T09:44:40Z</time></trkpt><trkpt lat="44.31171546422259" lon="8.209722675331715"><ele>545.0</ele><time>2026-04-03T09:44:41Z</time></trkpt><trkpt lat="44.3117464851278" lon="8.209910722720549"><ele>546.4</ele><time>2026-04-03T09:44:42Z</time></trkpt><trkpt lat="44.31176829115966" lon="8.21007432843346"><ele>547.8</ele><time>2026-04-03T09:44:43Z</time></trkpt><trkpt lat="44.31179250549034" lon="8.210213394115813"><ele>549.2</ele><time>2026-04-03T09:44:44Z</time></trkpt><trkpt lat="44.311820303036235" lon="8.210353963429224"><ele>550.6</ele><time>2026-04-03T09:44:45Z</time></trkpt><trkpt lat="44.31185587311435" lon="8.210479952088212"><ele>552.0</ele><time>2026-04-03T09:44:46Z</time></trkpt><trkpt lat="44.31188172144085" lon="8.210598381103997"><ele>554.8000000000001</ele><time>2026-04-03T09:44:47Z</time></trkpt><trkpt lat="44.31193110959825" lon="8.21075241377462"><ele>557.6</ele><time>2026-04-03T09:44:48Z</time></trkpt><trkpt lat="44.31200143385543" lon="8.210893041516027"><ele>560.4000000000001</ele><time>2026-04-03T09:44:49Z</time></trkpt><trkpt lat="44.312048002783015" lon="8.21100838128286"><ele>563.2</ele><time>2026-04-03T09:44:50Z</time></trkpt><trkpt lat="44.31210658545031" lon="8.211111577183848"><ele>566.0</ele><time>2026-04-03T09:44:51Z</time></trkpt><trkpt lat="44.312160550958176" lon="8.211216280262576"><ele>566.0</ele><time>2026-04-03T09:44:52Z</time></trkpt><trkpt lat="44.31222629295959" lon="8.211289355256698"><ele>566.0</ele><time>2026-04-03T09:44:53Z</time></trkpt><trkpt lat="44.3122977498394" lon="8.211344379688242"><ele>566.0</ele><time>2026-04-03T09:44:54Z</time></trkpt><trkpt lat="44.312373566760066" lon="8.211381679154503"><ele>566.0</ele><time>2026-04-03T09:44:55Z</time></trkpt><trkpt lat="44.31246660565928" lon="8.211404788043467"><ele>566.0</ele><time>2026-04-03T09:44:56Z</time></trkpt><trkpt lat="44.31254955521038" lon="8.211425000920206"><ele>566.0</ele><time>2026-04-03T09:44:57Z</time></trkpt><trkpt lat="44.312632174932716" lon="8.21141260872727"><ele>558.8</ele><time>2026-04-03T09:44:58Z</time></trkpt><trkpt lat="44.31271791095453" lon="8.211375610280818"><ele>551.6</ele><time>2026-04-03T09:44:59Z</time></trkpt><trkpt lat="44.3128018612295" lon="8.211323356994079"><ele>544.4</ele><time>2026-04-03T09:45:00Z</time></trkpt><trkpt lat="44.31287750994268" lon="8.21124986559902"><ele>537.2</ele><time>2026-04-03T09:45:01Z</time></trkpt><trkpt lat="44.31295200610096" lon="8.211169081921026"><ele>530.0</ele><time>2026-04-03T09:45:02Z</time></trkpt><trkpt lat="44.313002353990086" lon="8.211032987212903"><ele>530.0</ele><time>2026-04-03T09:45:03Z</time></trkpt><trkpt lat="44.313001364225855" lon="8.210893401055067"><ele>530.0</ele><time>2026-04-03T09:45:04Z</time></trkpt><trkpt lat="44.31303743510762" lon="8.210754094318354"><ele>530.0</ele><time>2026-04-03T09:45:05Z</time></trkpt><trkpt lat="44.31307139818521" lon="8.21065768346555"><ele>530.0</ele><time>2026-04-03T09:45:06Z</time></trkpt><trkpt lat="44.31311252809517" lon="8.21057122573524"><ele>530.0</ele><time>2026-04-03T09:45:06.999Z</time></trkpt><trkpt lat="44.31315924281849" lon="8.210497482480706"><ele>530.0</ele><time>2026-04-03T09:45:07.999Z</time></trkpt><trkpt lat="44.3132174996062" lon="8.210413558203124"><ele>529.0</ele><time>2026-04-03T09:45:08.999Z</time></trkpt><trkpt lat="44.31334851047309" lon="8.210366637537394"><ele>528.0</ele><time>2026-04-03T09:45:10.999Z</time></trkpt><trkpt lat="44.31345498000988" lon="8.210328138498738"><ele>527.0</ele><time>2026-04-03T09:45:12.999Z</time></trkpt><trkpt lat="44.313537893485766" lon="8.210482906769693"><ele>526.0</ele><time>2026-04-03T09:45:14.999Z</time></trkpt><trkpt lat="44.313578553239445" lon="8.210563961708818"><ele>526.4</ele><time>2026-04-03T09:45:15.999Z</time></trkpt><trkpt lat="44.31360787532955" lon="8.210700961163997"><ele>526.8</ele><time>2026-04-03T09:45:16.999Z</time></trkpt><trkpt lat="44.31367592649019" lon="8.210837998409627"><ele>527.1999999999999</ele><time>2026-04-03T09:45:17.999Z</time></trkpt><trkpt lat="44.31370861039301" lon="8.2109658159559"><ele>527.6</ele><time>2026-04-03T09:45:18.999Z</time></trkpt><trkpt lat="44.3137520103088" lon="8.211075402898759"><ele>528.0</ele><time>2026-04-03T09:45:19.999Z</time></trkpt><trkpt lat="44.313800888311654" lon="8.21119177134549"><ele>528.0</ele><time>2026-04-03T09:45:20.999Z</time></trkpt><trkpt lat="44.313848943523496" lon="8.211317329835701"><ele>528.0</ele><time>2026-04-03T09:45:21.999Z</time></trkpt><trkpt lat="44.31390411516791" lon="8.211425704871228"><ele>528.0</ele><time>2026-04-03T09:45:22.999Z</time></trkpt><trkpt lat="44.313955687746194" lon="8.211582549193105"><ele>528.0</ele><time>2026-04-03T09:45:23.999Z</time></trkpt><trkpt lat="44.314016368405724" lon="8.211740133325295"><ele>528.0</ele><time>2026-04-03T09:45:24.999Z</time></trkpt><trkpt lat="44.3140804126945" lon="8.211899872325036"><ele>526.75</ele><time>2026-04-03T09:45:25.999Z</time></trkpt><trkpt lat="44.3141504125981" lon="8.212064953717443"><ele>525.5</ele><time>2026-04-03T09:45:26.999Z</time></trkpt><trkpt lat="44.314215426617274" lon="8.212221408374706"><ele>524.25</ele><time>2026-04-03T09:45:27.999Z</time></trkpt><trkpt lat="44.3142820705793" lon="8.21238951399714"><ele>523.0</ele><time>2026-04-03T09:45:28.999Z</time></trkpt><trkpt lat="44.31435364616721" lon="8.21257514052634"><ele>523.0</ele><time>2026-04-03T09:45:29.999Z</time></trkpt><trkpt lat="44.314408187674566" lon="8.212709431657093"><ele>523.0</ele><time>2026-04-03T09:45:30.999Z</time></trkpt><trkpt lat="44.3144567706441" lon="8.212806286949558"><ele>523.0</ele><time>2026-04-03T09:45:31.999Z</time></trkpt><trkpt lat="44.31449686154753" lon="8.21294269248913"><ele>523.0</ele><time>2026-04-03T09:45:32.999Z</time></trkpt><trkpt lat="44.31453192782989" lon="8.213058414894629"><ele>523.0</ele><time>2026-04-03T09:45:33.999Z</time></trkpt><trkpt lat="44.31457301457202" lon="8.213188205500469"><ele>526.5</ele><time>2026-04-03T09:45:34.999Z</time></trkpt><trkpt lat="44.3146015387027" lon="8.213351398654408"><ele>530.0</ele><time>2026-04-03T09:45:35.999Z</time></trkpt><trkpt lat="44.31462160840703" lon="8.21351698359084"><ele>533.5</ele><time>2026-04-03T09:45:36.999Z</time></trkpt><trkpt lat="44.31462085801203" lon="8.213669905276193"><ele>537.0</ele><time>2026-04-03T09:45:37.999Z</time></trkpt><trkpt lat="44.314646866730676" lon="8.213835150989118"><ele>537.0</ele><time>2026-04-03T09:45:38.999Z</time></trkpt><trkpt lat="44.31465820739178" lon="8.213971681198469"><ele>537.0</ele><time>2026-04-03T09:45:39.999Z</time></trkpt><trkpt lat="44.31467308113502" lon="8.214144920407328"><ele>537.0</ele><time>2026-04-03T09:45:40.999Z</time></trkpt><trkpt lat="44.314665792120124" lon="8.214344588689135"><ele>537.0</ele><time>2026-04-03T09:45:41.999Z</time></trkpt><trkpt lat="44.314707980673745" lon="8.214515846663183"><ele>532.25</ele><time>2026-04-03T09:45:42.999Z</time></trkpt><trkpt lat="44.31475677242212" lon="8.214654689957962"><ele>527.5</ele><time>2026-04-03T09:45:43.999Z</time></trkpt><trkpt lat="44.3148207410743" lon="8.214819039144176"><ele>522.75</ele><time>2026-04-03T09:45:44.999Z</time></trkpt><trkpt lat="44.31487856348627" lon="8.214951896864518"><ele>518.0</ele><time>2026-04-03T09:45:45.999Z</time></trkpt><trkpt lat="44.314931508882225" lon="8.215062385980625"><ele>518.0</ele><time>2026-04-03T09:45:46.999Z</time></trkpt><trkpt lat="44.31498099396425" lon="8.215155697691058"><ele>518.0</ele><time>2026-04-03T09:45:47.999Z</time></trkpt><trkpt lat="44.31504721337609" lon="8.215271036926676"><ele>518.0</ele><time>2026-04-03T09:45:48.999Z</time></trkpt><trkpt lat="44.31512087780872" lon="8.215362595780674"><ele>518.0</ele><time>2026-04-03T09:45:49.999Z</time></trkpt><trkpt lat="44.31521974767622" lon="8.215432848297278"><ele>518.0</ele><time>2026-04-03T09:45:50.999Z</time></trkpt><trkpt lat="44.3153258300892" lon="8.215524940578677"><ele>518.0</ele><time>2026-04-03T09:45:51.999Z</time></trkpt><trkpt lat="44.315444856714876" lon="8.215591974738734"><ele>518.0</ele><time>2026-04-03T09:45:52.999Z</time></trkpt><trkpt lat="44.31555050197868" lon="8.215655136799347"><ele>518.0</ele><time>2026-04-03T09:45:53.999Z</time></trkpt><trkpt lat="44.315663873081654" lon="8.215729456435236"><ele>518.0</ele><time>2026-04-03T09:45:54.999Z</time></trkpt><trkpt lat="44.31578420365231" lon="8.215781437827383"><ele>518.75</ele><time>2026-04-03T09:45:55.999Z</time></trkpt><trkpt lat="44.315907040668" lon="8.215839511248031"><ele>519.5</ele><time>2026-04-03T09:45:56.999Z</time></trkpt><trkpt lat="44.31602799394957" lon="8.215873161223215"><ele>520.25</ele><time>2026-04-03T09:45:57.999Z</time></trkpt><trkpt lat="44.31615847784355" lon="8.215895825366093"><ele>521.0</ele><time>2026-04-03T09:45:58.999Z</time></trkpt><trkpt lat="44.31627542633476" lon="8.215929145464454"><ele>518.75</ele><time>2026-04-03T09:45:59.999Z</time></trkpt><trkpt lat="44.31640687950548" lon="8.21594896665611"><ele>516.5</ele><time>2026-04-03T09:46:00.999Z</time></trkpt><trkpt lat="44.31651418753553" lon="8.215972938790141"><ele>514.25</ele><time>2026-04-03T09:46:01.999Z</time></trkpt><trkpt lat="44.316638714079104" lon="8.21600135443778"><ele>512.0</ele><time>2026-04-03T09:46:02.999Z</time></trkpt><trkpt lat="44.316755823441554" lon="8.216053399672733"><ele>512.0</ele><time>2026-04-03T09:46:03.999Z</time></trkpt><trkpt lat="44.316867868896665" lon="8.216106132229577"><ele>512.0</ele><time>2026-04-03T09:46:04.999Z</time></trkpt><trkpt lat="44.31697217916055" lon="8.216145466873659"><ele>512.0</ele><time>2026-04-03T09:46:05.999Z</time></trkpt><trkpt lat="44.31708490954353" lon="8.216186636554474"><ele>512.0</ele><time>2026-04-03T09:46:06.999Z</time></trkpt><trkpt lat="44.317197383133724" lon="8.21622907684342"><ele>512.0</ele><time>2026-04-03T09:46:07.998Z</time></trkpt><trkpt lat="44.31730486476723" lon="8.216277789561236"><ele>512.0</ele><time>2026-04-03T09:46:08.998Z</time></trkpt><trkpt lat="44.317398478681135" lon="8.216320711825885"><ele>512.0</ele><time>2026-04-03T09:46:09.998Z</time></trkpt><trkpt lat="44.31749538291289" lon="8.216363039379365"><ele>512.0</ele><time>2026-04-03T09:46:10.998Z</time></trkpt><trkpt lat="44.31759953766996" lon="8.216409916891593"><ele>512.0</ele><time>2026-04-03T09:46:11.998Z</time></trkpt><trkpt lat="44.31769987081627" lon="8.216445141669436"><ele>512.0</ele><time>2026-04-03T09:46:12.998Z</time></trkpt><trkpt lat="44.31781532393777" lon="8.216482188267545"><ele>512.0</ele><time>2026-04-03T09:46:13.998Z</time></trkpt><trkpt lat="44.31790535360815" lon="8.216501291296305"><ele>512.0</ele><time>2026-04-03T09:46:14.998Z</time></trkpt><trkpt lat="44.317993535692636" lon="8.216536805240121"><ele>512.0</ele><time>2026-04-03T09:46:15.998Z</time></trkpt><trkpt lat="44.318124697120204" lon="8.216568592746787"><ele>512.0</ele><time>2026-04-03T09:46:16.998Z</time></trkpt><trkpt lat="44.31825760992802" lon="8.216606975671281"><ele>512.0</ele><time>2026-04-03T09:46:18Z</time></trkpt><trkpt lat="44.318387624662144" lon="8.216581787689353"><ele>512.0</ele><time>2026-04-03T09:46:19Z</time></trkpt><trkpt lat="44.31852369349879" lon="8.21655278170126"><ele>512.0</ele><time>2026-04-03T09:46:20Z</time></trkpt><trkpt lat="44.318630283312565" lon="8.2165231301658"><ele>512.0</ele><time>2026-04-03T09:46:21Z</time></trkpt><trkpt lat="44.31874709179881" lon="8.216498779869477"><ele>510.25</ele><time>2026-04-03T09:46:22Z</time></trkpt><trkpt lat="44.31885991551967" lon="8.21647009357932"><ele>508.5</ele><time>2026-04-03T09:46:23Z</time></trkpt><trkpt lat="44.31897318955017" lon="8.21642937570931"><ele>506.75</ele><time>2026-04-03T09:46:24Z</time></trkpt><trkpt lat="44.319100272874735" lon="8.216393850528092"><ele>505.0</ele><time>2026-04-03T09:46:25Z</time></trkpt><trkpt lat="44.31921369334093" lon="8.216366499563636"><ele>504.75</ele><time>2026-04-03T09:46:26Z</time></trkpt><trkpt lat="44.31932500453942" lon="8.21633450821478"><ele>504.5</ele><time>2026-04-03T09:46:27Z</time></trkpt><trkpt lat="44.31943836273873" lon="8.216307070173128"><ele>504.25</ele><time>2026-04-03T09:46:28Z</time></trkpt><trkpt lat="44.31955686569991" lon="8.216286175640915"><ele>504.0</ele><time>2026-04-03T09:46:29Z</time></trkpt><trkpt lat="44.31967651691616" lon="8.216295018457327"><ele>505.5</ele><time>2026-04-03T09:46:30Z</time></trkpt><trkpt lat="44.31980352250087" lon="8.216282438369786"><ele>507.0</ele><time>2026-04-03T09:46:31Z</time></trkpt><trkpt lat="44.31992974377908" lon="8.21629172182202"><ele>508.5</ele><time>2026-04-03T09:46:32Z</time></trkpt><trkpt lat="44.3200698837668" lon="8.21630436344068"><ele>510.0</ele><time>2026-04-03T09:46:33Z</time></trkpt><trkpt lat="44.32018361002962" lon="8.216310557929653"><ele>510.0</ele><time>2026-04-03T09:46:34Z</time></trkpt><trkpt lat="44.320327330897335" lon="8.216315497514307"><ele>510.0</ele><time>2026-04-03T09:46:35Z</time></trkpt><trkpt lat="44.320451776194766" lon="8.216296587687271"><ele>510.0</ele><time>2026-04-03T09:46:36Z</time></trkpt><trkpt lat="44.32056567171553" lon="8.216324601605447"><ele>510.0</ele><time>2026-04-03T09:46:37Z</time></trkpt><trkpt lat="44.32068407784177" lon="8.216342269335362"><ele>509.8</ele><time>2026-04-03T09:46:38Z</time></trkpt><trkpt lat="44.32075491759366" lon="8.216344274796175"><ele>509.6</ele><time>2026-04-03T09:46:39Z</time></trkpt><trkpt lat="44.320864571694884" lon="8.216345681248143"><ele>509.4</ele><time>2026-04-03T09:46:40Z</time></trkpt><trkpt lat="44.32095908318509" lon="8.21634809727352"><ele>509.2</ele><time>2026-04-03T09:46:41Z</time></trkpt><trkpt lat="44.32105258838546" lon="8.216349494961383"><ele>509.0</ele><time>2026-04-03T09:46:42Z</time></trkpt><trkpt lat="44.32115746691603" lon="8.21633159977213"><ele>509.0</ele><time>2026-04-03T09:46:43Z</time></trkpt><trkpt lat="44.32125357847576" lon="8.216300825124392"><ele>509.0</ele><time>2026-04-03T09:46:44Z</time></trkpt><trkpt lat="44.32135919081429" lon="8.216243428267813"><ele>509.0</ele><time>2026-04-03T09:46:45Z</time></trkpt><trkpt lat="44.32142009503038" lon="8.216145613488273"><ele>509.0</ele><time>2026-04-03T09:46:46Z</time></trkpt><trkpt lat="44.32146840512821" lon="8.216039413757068"><ele>509.0</ele><time>2026-04-03T09:46:47Z</time></trkpt><trkpt lat="44.32152956585295" lon="8.21589992989253"><ele>508.75</ele><time>2026-04-03T09:46:48Z</time></trkpt><trkpt lat="44.32155599609615" lon="8.21573425278282"><ele>508.5</ele><time>2026-04-03T09:46:49Z</time></trkpt><trkpt lat="44.321589505302306" lon="8.21555017341465"><ele>508.25</ele><time>2026-04-03T09:46:50Z</time></trkpt><trkpt lat="44.321610215384254" lon="8.215356651532016"><ele>508.0</ele><time>2026-04-03T09:46:51Z</time></trkpt><trkpt lat="44.32163475927888" lon="8.215169639880385"><ele>508.0</ele><time>2026-04-03T09:46:52Z</time></trkpt><trkpt lat="44.321648519338154" lon="8.215013771765314"><ele>507.99999999999994</ele><time>2026-04-03T09:46:53Z</time></trkpt><trkpt lat="44.32167346665855" lon="8.214862515740924"><ele>507.99999999999994</ele><time>2026-04-03T09:46:54Z</time></trkpt><trkpt lat="44.32169802236377" lon="8.214713466938814"><ele>508.0</ele><time>2026-04-03T09:46:55Z</time></trkpt><trkpt lat="44.32172516433053" lon="8.214571704008828"><ele>508.0</ele><time>2026-04-03T09:46:56Z</time></trkpt><trkpt lat="44.32175336211049" lon="8.21445888600566"><ele>507.33333333333337</ele><time>2026-04-03T09:46:57Z</time></trkpt><trkpt lat="44.321773881755206" lon="8.214331847523386"><ele>506.6666666666667</ele><time>2026-04-03T09:46:58Z</time></trkpt><trkpt lat="44.321792152515755" lon="8.214199440107093"><ele>506.0</ele><time>2026-04-03T09:46:59Z</time></trkpt><trkpt lat="44.321801943174556" lon="8.214084842422993"><ele>505.33333333333337</ele><time>2026-04-03T09:47:00Z</time></trkpt><trkpt lat="44.32181996568982" lon="8.213991934365673"><ele>504.6666666666667</ele><time>2026-04-03T09:47:01Z</time></trkpt><trkpt lat="44.321839411073945" lon="8.213879718752604"><ele>504.0</ele><time>2026-04-03T09:47:02Z</time></trkpt><trkpt lat="44.32185545180641" lon="8.213753589175738"><ele>503.79999999999995</ele><time>2026-04-03T09:47:03Z</time></trkpt><trkpt lat="44.32188518451733" lon="8.213640586845136"><ele>503.59999999999997</ele><time>2026-04-03T09:47:04Z</time></trkpt><trkpt lat="44.32191338358354" lon="8.213505513824785"><ele>503.4</ele><time>2026-04-03T09:47:05Z</time></trkpt><trkpt lat="44.3219291187936" lon="8.213383739252839"><ele>503.2</ele><time>2026-04-03T09:47:06Z</time></trkpt><trkpt lat="44.32196580171832" lon="8.213236334682332"><ele>503.0</ele><time>2026-04-03T09:47:06.999Z</time></trkpt><trkpt lat="44.32197158548564" lon="8.213075982689919"><ele>502.99999999999994</ele><time>2026-04-03T09:47:07.999Z</time></trkpt><trkpt lat="44.32198709280789" lon="8.212946841480893"><ele>503.0</ele><time>2026-04-03T09:47:08.999Z</time></trkpt><trkpt lat="44.322005535954816" lon="8.212821163148995"><ele>503.0</ele><time>2026-04-03T09:47:09.999Z</time></trkpt><trkpt lat="44.32202965327981" lon="8.21270676032248"><ele>503.0</ele><time>2026-04-03T09:47:10.999Z</time></trkpt><trkpt lat="44.3220405677547" lon="8.212618752425302"><ele>502.99999999999994</ele><time>2026-04-03T09:47:11.999Z</time></trkpt><trkpt lat="44.3220648880797" lon="8.212495991020205"><ele>503.0</ele><time>2026-04-03T09:47:12.999Z</time></trkpt><trkpt lat="44.32208618474752" lon="8.212376557016222"><ele>501.59999999999997</ele><time>2026-04-03T09:47:13.999Z</time></trkpt><trkpt lat="44.3221102948965" lon="8.212254869497755"><ele>500.19999999999993</ele><time>2026-04-03T09:47:14.999Z</time></trkpt><trkpt lat="44.32214272325707" lon="8.212128788744254"><ele>498.8</ele><time>2026-04-03T09:47:15.999Z</time></trkpt><trkpt lat="44.32218281361304" lon="8.21200472466137"><ele>497.4</ele><time>2026-04-03T09:47:16.999Z</time></trkpt><trkpt lat="44.32223284939768" lon="8.211903269384223"><ele>496.0</ele><time>2026-04-03T09:47:17.999Z</time></trkpt><trkpt lat="44.322285322916684" lon="8.21180817205939"><ele>496.0</ele><time>2026-04-03T09:47:18.999Z</time></trkpt><trkpt lat="44.322398161240244" lon="8.211750648219134"><ele>496.0</ele><time>2026-04-03T09:47:19.999Z</time></trkpt><trkpt lat="44.322482442761995" lon="8.211702486642633"><ele>496.0</ele><time>2026-04-03T09:47:20.999Z</time></trkpt><trkpt lat="44.32257437818506" lon="8.211674613163392"><ele>496.0</ele><time>2026-04-03T09:47:21.999Z</time></trkpt><trkpt lat="44.322661652386735" lon="8.211703277488805"><ele>496.0</ele><time>2026-04-03T09:47:22.999Z</time></trkpt><trkpt lat="44.32274837201404" lon="8.211717057769865"><ele>496.0</ele><time>2026-04-03T09:47:23.999Z</time></trkpt><trkpt lat="44.32283608713195" lon="8.211764900711579"><ele>496.0</ele><time>2026-04-03T09:47:24.999Z</time></trkpt><trkpt lat="44.32295470132683" lon="8.211810642355138"><ele>496.0</ele><time>2026-04-03T09:47:25.999Z</time></trkpt><trkpt lat="44.32305686572109" lon="8.211849342717835"><ele>496.0</ele><time>2026-04-03T09:47:26.999Z</time></trkpt><trkpt lat="44.32315135695644" lon="8.211882136097135"><ele>496.0</ele><time>2026-04-03T09:47:27.999Z</time></trkpt><trkpt lat="44.32325176095698" lon="8.211911799659553"><ele>496.25</ele><time>2026-04-03T09:47:28.999Z</time></trkpt><trkpt lat="44.323343737243306" lon="8.211892581999493"><ele>496.5</ele><time>2026-04-03T09:47:29.999Z</time></trkpt><trkpt lat="44.32347919718788" lon="8.211851884932177"><ele>496.75</ele><time>2026-04-03T09:47:30.999Z</time></trkpt><trkpt lat="44.323585499354834" lon="8.21180485053579"><ele>497.0</ele><time>2026-04-03T09:47:31.999Z</time></trkpt><trkpt lat="44.323690196027805" lon="8.211707497119258"><ele>497.0</ele><time>2026-04-03T09:47:32.999Z</time></trkpt><trkpt lat="44.32376795529481" lon="8.211620907306978"><ele>497.00000000000006</ele><time>2026-04-03T09:47:33.999Z</time></trkpt><trkpt lat="44.323849118848784" lon="8.21153048688636"><ele>497.00000000000006</ele><time>2026-04-03T09:47:34.999Z</time></trkpt><trkpt lat="44.323927328575586" lon="8.211423114458933"><ele>497.0</ele><time>2026-04-03T09:47:35.999Z</time></trkpt><trkpt lat="44.324010213530194" lon="8.211306649963705"><ele>497.0</ele><time>2026-04-03T09:47:36.999Z</time></trkpt><trkpt lat="44.324086595095906" lon="8.211177684655933"><ele>496.8</ele><time>2026-04-03T09:47:37.999Z</time></trkpt><trkpt lat="44.32414367048056" lon="8.211056121994844"><ele>496.6</ele><time>2026-04-03T09:47:38.999Z</time></trkpt><trkpt lat="44.32421153668834" lon="8.210949709056669"><ele>496.40000000000003</ele><time>2026-04-03T09:47:39.999Z</time></trkpt><trkpt lat="44.324283653406404" lon="8.210824673635871"><ele>496.20000000000005</ele><time>2026-04-03T09:47:40.999Z</time></trkpt><trkpt lat="44.32434733143056" lon="8.210708003219368"><ele>496.0</ele><time>2026-04-03T09:47:41.999Z</time></trkpt><trkpt lat="44.324406525027484" lon="8.21061867045535"><ele>495.50000000000006</ele><time>2026-04-03T09:47:42.999Z</time></trkpt><trkpt lat="44.324458010250346" lon="8.210525325051545"><ele>495.0</ele><time>2026-04-03T09:47:43.999Z</time></trkpt><trkpt lat="44.32450705620861" lon="8.210441540406169"><ele>494.5</ele><time>2026-04-03T09:47:44.999Z</time></trkpt><trkpt lat="44.32455573156076" lon="8.2103694873783"><ele>494.0</ele><time>2026-04-03T09:47:45.999Z</time></trkpt><trkpt lat="44.324599048072066" lon="8.210294202384443"><ele>493.50000000000006</ele><time>2026-04-03T09:47:46.999Z</time></trkpt><trkpt lat="44.324674538578336" lon="8.210151812117514"><ele>493.0</ele><time>2026-04-03T09:47:48.999Z</time></trkpt><trkpt lat="44.32473147672334" lon="8.210078836605076"><ele>494.00000000000006</ele><time>2026-04-03T09:47:49.999Z</time></trkpt><trkpt lat="44.324783350732325" lon="8.209994936337463"><ele>495.0</ele><time>2026-04-03T09:47:50.999Z</time></trkpt><trkpt lat="44.324832033915996" lon="8.209902111847832"><ele>496.0</ele><time>2026-04-03T09:47:51.999Z</time></trkpt><trkpt lat="44.32488666703034" lon="8.209811271268574"><ele>497.0</ele><time>2026-04-03T09:47:52.999Z</time></trkpt><trkpt lat="44.324942907468845" lon="8.209722337566436"><ele>498.00000000000006</ele><time>2026-04-03T09:47:53.999Z</time></trkpt><trkpt lat="44.32498889639033" lon="8.209651412166664"><ele>499.0</ele><time>2026-04-03T09:47:54.999Z</time></trkpt><trkpt lat="44.32503770941434" lon="8.209560841345143"><ele>499.00000000000006</ele><time>2026-04-03T09:47:55.999Z</time></trkpt><trkpt lat="44.3250717072245" lon="8.209472041773127"><ele>499.0</ele><time>2026-04-03T09:47:56.999Z</time></trkpt><trkpt lat="44.32508945013465" lon="8.2093591175822"><ele>499.0</ele><time>2026-04-03T09:47:57.999Z</time></trkpt><trkpt lat="44.325082589128186" lon="8.20925308153364"><ele>499.0</ele><time>2026-04-03T09:47:58.999Z</time></trkpt><trkpt lat="44.3250640914286" lon="8.209125012283568"><ele>499.00000000000006</ele><time>2026-04-03T09:47:59.999Z</time></trkpt><trkpt lat="44.32502081898699" lon="8.208998183447664"><ele>499.0</ele><time>2026-04-03T09:48:00.999Z</time></trkpt><trkpt lat="44.32495974804142" lon="8.208876585699082"><ele>500.4</ele><time>2026-04-03T09:48:01.999Z</time></trkpt><trkpt lat="44.3248783352545" lon="8.208729679293754"><ele>501.79999999999995</ele><time>2026-04-03T09:48:02.999Z</time></trkpt><trkpt lat="44.32480336044361" lon="8.208642036384369"><ele>503.20000000000005</ele><time>2026-04-03T09:48:03.999Z</time></trkpt><trkpt lat="44.32473487281925" lon="8.208558551417351"><ele>504.6</ele><time>2026-04-03T09:48:04.999Z</time></trkpt><trkpt lat="44.32468338279418" lon="8.20847201394256"><ele>506.0</ele><time>2026-04-03T09:48:05.998Z</time></trkpt><trkpt lat="44.32463756001347" lon="8.20840283690618"><ele>502.4</ele><time>2026-04-03T09:48:06.998Z</time></trkpt><trkpt lat="44.32457142487228" lon="8.208257917298184"><ele>498.8</ele><time>2026-04-03T09:48:08.998Z</time></trkpt><trkpt lat="44.32452745655108" lon="8.208193801208644"><ele>495.19999999999993</ele><time>2026-04-03T09:48:09.998Z</time></trkpt><trkpt lat="44.324586132451415" lon="8.20802003847781"><ele>491.59999999999997</ele><time>2026-04-03T09:48:10.998Z</time></trkpt><trkpt lat="44.3246252247489" lon="8.207891481609371"><ele>488.0</ele><time>2026-04-03T09:48:11.998Z</time></trkpt><trkpt lat="44.32469466821658" lon="8.207800913062307"><ele>488.5</ele><time>2026-04-03T09:48:12.998Z</time></trkpt><trkpt lat="44.32478438512918" lon="8.20776998930124"><ele>489.0</ele><time>2026-04-03T09:48:13.998Z</time></trkpt><trkpt lat="44.32487876739136" lon="8.20768224068597"><ele>489.5</ele><time>2026-04-03T09:48:14.998Z</time></trkpt><trkpt lat="44.324999886494034" lon="8.207567115970601"><ele>490.0</ele><time>2026-04-03T09:48:15.998Z</time></trkpt><trkpt lat="44.32510951236124" lon="8.207460759126642"><ele>490.0</ele><time>2026-04-03T09:48:16.998Z</time></trkpt><trkpt lat="44.32523822764179" lon="8.207335882082784"><ele>490.0</ele><time>2026-04-03T09:48:17.998Z</time></trkpt><trkpt lat="44.32533555949876" lon="8.207239529087628"><ele>490.0</ele><time>2026-04-03T09:48:18.998Z</time></trkpt><trkpt lat="44.32542589251801" lon="8.207121934204302"><ele>490.0</ele><time>2026-04-03T09:48:19.998Z</time></trkpt><trkpt lat="44.32551676231694" lon="8.207039141355857"><ele>489.0</ele><time>2026-04-03T09:48:20.998Z</time></trkpt><trkpt lat="44.325606301700226" lon="8.206958762686943"><ele>488.0</ele><time>2026-04-03T09:48:21.998Z</time></trkpt><trkpt lat="44.32569106307406" lon="8.206880677021633"><ele>487.0</ele><time>2026-04-03T09:48:22.998Z</time></trkpt><trkpt lat="44.32576835357011" lon="8.20680651885894"><ele>486.0</ele><time>2026-04-03T09:48:24Z</time></trkpt><trkpt lat="44.325845392090294" lon="8.206727294848653"><ele>485.0</ele><time>2026-04-03T09:48:25Z</time></trkpt><trkpt lat="44.32593524924127" lon="8.206657000775683"><ele>485.0</ele><time>2026-04-03T09:48:26Z</time></trkpt><trkpt lat="44.3260291852572" lon="8.20661837877925"><ele>485.0</ele><time>2026-04-03T09:48:27Z</time></trkpt><trkpt lat="44.32613278578908" lon="8.206592185847011"><ele>485.0</ele><time>2026-04-03T09:48:28Z</time></trkpt><trkpt lat="44.3262315800137" lon="8.20658528554987"><ele>485.0</ele><time>2026-04-03T09:48:29Z</time></trkpt><trkpt lat="44.32635178156337" lon="8.206609675898578"><ele>485.0</ele><time>2026-04-03T09:48:30Z</time></trkpt><trkpt lat="44.32648083967845" lon="8.206622369094127"><ele>485.5</ele><time>2026-04-03T09:48:31Z</time></trkpt><trkpt lat="44.32662686419255" lon="8.206630829350075"><ele>486.0</ele><time>2026-04-03T09:48:32Z</time></trkpt><trkpt lat="44.32670505582287" lon="8.206634606481341"><ele>486.5</ele><time>2026-04-03T09:48:33Z</time></trkpt><trkpt lat="44.32682623536092" lon="8.206621637254655"><ele>487.0</ele><time>2026-04-03T09:48:34Z</time></trkpt><trkpt lat="44.3269708380402" lon="8.206636643043428"><ele>487.0</ele><time>2026-04-03T09:48:35Z</time></trkpt><trkpt lat="44.32709747752476" lon="8.206655064408224"><ele>487.0</ele><time>2026-04-03T09:48:36Z</time></trkpt><trkpt lat="44.32721389569785" lon="8.206687729382274"><ele>487.0</ele><time>2026-04-03T09:48:37Z</time></trkpt><trkpt lat="44.3273480819138" lon="8.206720785519337"><ele>487.0</ele><time>2026-04-03T09:48:38Z</time></trkpt><trkpt lat="44.32746959273281" lon="8.20673484425587"><ele>485.33333333333337</ele><time>2026-04-03T09:48:39Z</time></trkpt><trkpt lat="44.32763394647821" lon="8.206815820675398"><ele>483.66666666666663</ele><time>2026-04-03T09:48:40Z</time></trkpt><trkpt lat="44.32776873702561" lon="8.206916456150443"><ele>482.0</ele><time>2026-04-03T09:48:41Z</time></trkpt><trkpt lat="44.32791888913996" lon="8.207000215527188"><ele>479.75</ele><time>2026-04-03T09:48:42Z</time></trkpt><trkpt lat="44.32806380145178" lon="8.207077456303548"><ele>477.5</ele><time>2026-04-03T09:48:43Z</time></trkpt><trkpt lat="44.328179754397546" lon="8.207134534949027"><ele>475.25</ele><time>2026-04-03T09:48:44Z</time></trkpt><trkpt lat="44.32831851996627" lon="8.207190694480602"><ele>473.0</ele><time>2026-04-03T09:48:45Z</time></trkpt><trkpt lat="44.328464853493294" lon="8.207217406830155"><ele>473.0</ele><time>2026-04-03T09:48:46Z</time></trkpt><trkpt lat="44.3286153673256" lon="8.207251068118108"><ele>473.0</ele><time>2026-04-03T09:48:47Z</time></trkpt><trkpt lat="44.32878384598393" lon="8.207281126765817"><ele>473.0</ele><time>2026-04-03T09:48:48Z</time></trkpt><trkpt lat="44.328910087788465" lon="8.207300991670158"><ele>473.0</ele><time>2026-04-03T09:48:49Z</time></trkpt><trkpt lat="44.32903838114529" lon="8.207327040416905"><ele>478.0</ele><time>2026-04-03T09:48:50Z</time></trkpt><trkpt lat="44.32918829157554" lon="8.207356958587683"><ele>483.0</ele><time>2026-04-03T09:48:51Z</time></trkpt><trkpt lat="44.32932116848518" lon="8.207379254455912"><ele>488.0</ele><time>2026-04-03T09:48:52Z</time></trkpt><trkpt lat="44.329446469970826" lon="8.207384600959134"><ele>493.0</ele><time>2026-04-03T09:48:53Z</time></trkpt><trkpt lat="44.32955180536493" lon="8.207370870124208"><ele>493.0</ele><time>2026-04-03T09:48:54Z</time></trkpt><trkpt lat="44.329666827037975" lon="8.207340273005206"><ele>492.99999999999994</ele><time>2026-04-03T09:48:55Z</time></trkpt><trkpt lat="44.32976696856519" lon="8.207321302140723"><ele>492.99999999999994</ele><time>2026-04-03T09:48:56Z</time></trkpt><trkpt lat="44.329879542478416" lon="8.20728207082996"><ele>493.0</ele><time>2026-04-03T09:48:57Z</time></trkpt><trkpt lat="44.32997314545255" lon="8.20725507110561"><ele>493.0</ele><time>2026-04-03T09:48:58Z</time></trkpt><trkpt lat="44.33006866261893" lon="8.20722970509245"><ele>486.5</ele><time>2026-04-03T09:48:59Z</time></trkpt><trkpt lat="44.33018216757457" lon="8.207185690498571"><ele>480.0</ele><time>2026-04-03T09:49:00Z</time></trkpt><trkpt lat="44.33027605983503" lon="8.207116686150261"><ele>473.5</ele><time>2026-04-03T09:49:01Z</time></trkpt><trkpt lat="44.33037424140461" lon="8.207020796785953"><ele>467.0</ele><time>2026-04-03T09:49:02Z</time></trkpt><trkpt lat="44.3304717252928" lon="8.206917455298228"><ele>467.40000000000003</ele><time>2026-04-03T09:49:03Z</time></trkpt><trkpt lat="44.330558074845314" lon="8.206816556012665"><ele>467.80000000000007</ele><time>2026-04-03T09:49:04Z</time></trkpt><trkpt lat="44.33064326159917" lon="8.206710939500867"><ele>468.2</ele><time>2026-04-03T09:49:05Z</time></trkpt><trkpt lat="44.33071052991263" lon="8.206596098746003"><ele>468.6</ele><time>2026-04-03T09:49:06Z</time></trkpt><trkpt lat="44.33078136386409" lon="8.206482167563838"><ele>469.0</ele><time>2026-04-03T09:49:07Z</time></trkpt><trkpt lat="44.33083698030064" lon="8.206369627903998"><ele>469.00000000000006</ele><time>2026-04-03T09:49:08Z</time></trkpt><trkpt lat="44.3308885641275" lon="8.206261928764212"><ele>469.0</ele><time>2026-04-03T09:49:09Z</time></trkpt><trkpt lat="44.33094665953025" lon="8.20616655305817"><ele>469.0</ele><time>2026-04-03T09:49:09.999Z</time></trkpt><trkpt lat="44.3309968267406" lon="8.206083054531318"><ele>469.0</ele><time>2026-04-03T09:49:10.999Z</time></trkpt><trkpt lat="44.33104633335053" lon="8.206009573189416"><ele>469.00000000000006</ele><time>2026-04-03T09:49:11.999Z</time></trkpt><trkpt lat="44.33111709584108" lon="8.205948609620727"><ele>469.0</ele><time>2026-04-03T09:49:12.999Z</time></trkpt><trkpt lat="44.33120647694325" lon="8.205919808886847"><ele>469.00000000000006</ele><time>2026-04-03T09:49:13.999Z</time></trkpt><trkpt lat="44.331291016829404" lon="8.205955265621741"><ele>469.0</ele><time>2026-04-03T09:49:14.999Z</time></trkpt><trkpt lat="44.331381945952415" lon="8.205952034532805"><ele>469.0</ele><time>2026-04-03T09:49:15.999Z</time></trkpt><trkpt lat="44.331467331181564" lon="8.205958790638956"><ele>469.0</ele><time>2026-04-03T09:49:16.999Z</time></trkpt><trkpt lat="44.33153763043298" lon="8.205952987490207"><ele>469.00000000000006</ele><time>2026-04-03T09:49:17.999Z</time></trkpt><trkpt lat="44.331608329416234" lon="8.205921603941135"><ele>469.0</ele><time>2026-04-03T09:49:18.999Z</time></trkpt><trkpt lat="44.33166773288352" lon="8.205857766754146"><ele>469.1666666666667</ele><time>2026-04-03T09:49:19.999Z</time></trkpt><trkpt lat="44.33175330199154" lon="8.2057458872482"><ele>469.33333333333337</ele><time>2026-04-03T09:49:21.999Z</time></trkpt><trkpt lat="44.33181070874883" lon="8.205707471989337"><ele>469.5</ele><time>2026-04-03T09:49:22.999Z</time></trkpt><trkpt lat="44.33188132271159" lon="8.205687753861806"><ele>469.66666666666663</ele><time>2026-04-03T09:49:24.999Z</time></trkpt><trkpt lat="44.33196885261805" lon="8.20575041222235"><ele>469.8333333333333</ele><time>2026-04-03T09:49:27.999Z</time></trkpt><trkpt lat="44.332029053041225" lon="8.205816581528747"><ele>470.0</ele><time>2026-04-03T09:49:28.999Z</time></trkpt><trkpt lat="44.332110091997755" lon="8.20591270819478"><ele>470.0</ele><time>2026-04-03T09:49:29.999Z</time></trkpt><trkpt lat="44.33218995246148" lon="8.206017852213806"><ele>470.0</ele><time>2026-04-03T09:49:30.999Z</time></trkpt><trkpt lat="44.33226829627381" lon="8.206130693855158"><ele>470.0</ele><time>2026-04-03T09:49:31.999Z</time></trkpt><trkpt lat="44.33233966906373" lon="8.2062458332022"><ele>470.0</ele><time>2026-04-03T09:49:32.999Z</time></trkpt><trkpt lat="44.33240970087085" lon="8.206367735341255"><ele>470.0</ele><time>2026-04-03T09:49:33.999Z</time></trkpt><trkpt lat="44.33247326348117" lon="8.206487929747071"><ele>469.16666666666663</ele><time>2026-04-03T09:49:34.999Z</time></trkpt><trkpt lat="44.33252380336385" lon="8.206590298670546"><ele>468.3333333333333</ele><time>2026-04-03T09:49:35.999Z</time></trkpt><trkpt lat="44.332588130797625" lon="8.206701829614943"><ele>467.5</ele><time>2026-04-03T09:49:36.999Z</time></trkpt><trkpt lat="44.33262536642504" lon="8.20684464775584"><ele>466.66666666666663</ele><time>2026-04-03T09:49:37.999Z</time></trkpt><trkpt lat="44.33265537859859" lon="8.206928718789566"><ele>465.8333333333333</ele><time>2026-04-03T09:49:38.999Z</time></trkpt><trkpt lat="44.3326863841612" lon="8.207015809990876"><ele>465.0</ele><time>2026-04-03T09:49:39.999Z</time></trkpt><trkpt lat="44.332733994000485" lon="8.20714930578102"><ele>465.0</ele><time>2026-04-03T09:49:40.999Z</time></trkpt><trkpt lat="44.33279353560262" lon="8.207261976116891"><ele>465.0</ele><time>2026-04-03T09:49:41.999Z</time></trkpt><trkpt lat="44.33282201646638" lon="8.207388102978692"><ele>465.0</ele><time>2026-04-03T09:49:42.999Z</time></trkpt><trkpt lat="44.33286280995642" lon="8.207493461597581"><ele>465.0</ele><time>2026-04-03T09:49:43.999Z</time></trkpt><trkpt lat="44.33293227737518" lon="8.207611938827334"><ele>465.0</ele><time>2026-04-03T09:49:44.999Z</time></trkpt><trkpt lat="44.33299114422837" lon="8.207730842791195"><ele>464.4</ele><time>2026-04-03T09:49:45.999Z</time></trkpt><trkpt lat="44.33304885106711" lon="8.207866641281482"><ele>463.8</ele><time>2026-04-03T09:49:46.999Z</time></trkpt><trkpt lat="44.33312367013202" lon="8.20795934730208"><ele>463.20000000000005</ele><time>2026-04-03T09:49:47.999Z</time></trkpt><trkpt lat="44.33317200904837" lon="8.208062780164395"><ele>462.6</ele><time>2026-04-03T09:49:48.999Z</time></trkpt><trkpt lat="44.33324282661341" lon="8.208172142505676"><ele>462.0</ele><time>2026-04-03T09:49:49.999Z</time></trkpt><trkpt lat="44.333302965897026" lon="8.208260033479766"><ele>463.20000000000005</ele><time>2026-04-03T09:49:50.999Z</time></trkpt><trkpt lat="44.33337307054042" lon="8.208364237169627"><ele>464.40000000000003</ele><time>2026-04-03T09:49:51.999Z</time></trkpt><trkpt lat="44.33343331691829" lon="8.208448051180577"><ele>465.59999999999997</ele><time>2026-04-03T09:49:52.999Z</time></trkpt><trkpt lat="44.33350403138735" lon="8.208546428214593"><ele>466.79999999999995</ele><time>2026-04-03T09:49:53.999Z</time></trkpt><trkpt lat="44.333567303656814" lon="8.208634451667345"><ele>468.0</ele><time>2026-04-03T09:49:54.999Z</time></trkpt><trkpt lat="44.3336185661353" lon="8.208716561502222"><ele>468.0</ele><time>2026-04-03T09:49:55.999Z</time></trkpt><trkpt lat="44.33366545883234" lon="8.208795149635717"><ele>468.0</ele><time>2026-04-03T09:49:56.999Z</time></trkpt><trkpt lat="44.33370360599921" lon="8.208865645494368"><ele>468.0</ele><time>2026-04-03T09:49:57.999Z</time></trkpt><trkpt lat="44.33370286727999" lon="8.208969179182715"><ele>468.0</ele><time>2026-04-03T09:49:58.999Z</time></trkpt><trkpt lat="44.33369029511104" lon="8.209083086476188"><ele>468.0</ele><time>2026-04-03T09:49:59.999Z</time></trkpt><trkpt lat="44.333643438778914" lon="8.209168947664704"><ele>468.0</ele><time>2026-04-03T09:50:00.999Z</time></trkpt><trkpt lat="44.333594629997165" lon="8.209268309905472"><ele>468.0</ele><time>2026-04-03T09:50:01.999Z</time></trkpt><trkpt lat="44.33354188611863" lon="8.209390265049992"><ele>468.0</ele><time>2026-04-03T09:50:02.999Z</time></trkpt><trkpt lat="44.33348865478343" lon="8.209496875477354"><ele>468.0</ele><time>2026-04-03T09:50:03.999Z</time></trkpt><trkpt lat="44.333440384407815" lon="8.209590750317494"><ele>468.0</ele><time>2026-04-03T09:50:04.999Z</time></trkpt><trkpt lat="44.333396880761164" lon="8.209682234859855"><ele>468.0</ele><time>2026-04-03T09:50:05.999Z</time></trkpt><trkpt lat="44.333347662718325" lon="8.209773812105079"><ele>468.0</ele><time>2026-04-03T09:50:06.998Z</time></trkpt><trkpt lat="44.33331265259124" lon="8.209866651537794"><ele>468.0</ele><time>2026-04-03T09:50:07.998Z</time></trkpt><trkpt lat="44.33329093370576" lon="8.20998572142302"><ele>467.99999999999994</ele><time>2026-04-03T09:50:08.998Z</time></trkpt><trkpt lat="44.333225552356595" lon="8.210092550906912"><ele>467.99999999999994</ele><time>2026-04-03T09:50:09.998Z</time></trkpt><trkpt lat="44.333330480792895" lon="8.210208408055378"><ele>468.0</ele><time>2026-04-03T09:50:10.998Z</time></trkpt><trkpt lat="44.33336038817084" lon="8.210338244560457"><ele>468.0</ele><time>2026-04-03T09:50:11.998Z</time></trkpt><trkpt lat="44.333408694209794" lon="8.21047865873382"><ele>468.0</ele><time>2026-04-03T09:50:12.998Z</time></trkpt><trkpt lat="44.333465746877536" lon="8.210618446342291"><ele>467.99999999999994</ele><time>2026-04-03T09:50:13.998Z</time></trkpt><trkpt lat="44.33350843338118" lon="8.210740752213166"><ele>467.99999999999994</ele><time>2026-04-03T09:50:14.998Z</time></trkpt><trkpt lat="44.333561652506866" lon="8.21084879233611"><ele>468.0</ele><time>2026-04-03T09:50:15.998Z</time></trkpt><trkpt lat="44.33360170140668" lon="8.210988315691752"><ele>468.0</ele><time>2026-04-03T09:50:16.998Z</time></trkpt><trkpt lat="44.33364228369045" lon="8.21111915811821"><ele>467.4</ele><time>2026-04-03T09:50:17.998Z</time></trkpt><trkpt lat="44.3336886433222" lon="8.211230630542541"><ele>466.79999999999995</ele><time>2026-04-03T09:50:18.998Z</time></trkpt><trkpt lat="44.333738065402265" lon="8.21134419232647"><ele>466.2</ele><time>2026-04-03T09:50:19.998Z</time></trkpt><trkpt lat="44.33378750236955" lon="8.211461355763204"><ele>465.6</ele><time>2026-04-03T09:50:20.998Z</time></trkpt><trkpt lat="44.33385064207379" lon="8.211548543628489"><ele>465.0</ele><time>2026-04-03T09:50:21.998Z</time></trkpt><trkpt lat="44.33393139203312" lon="8.211647151951166"><ele>465.0</ele><time>2026-04-03T09:50:22.998Z</time></trkpt><trkpt lat="44.33402143365064" lon="8.211731869295948"><ele>465.0</ele><time>2026-04-03T09:50:23.998Z</time></trkpt><trkpt lat="44.33410534183262" lon="8.21178539396242"><ele>465.0</ele><time>2026-04-03T09:50:24.998Z</time></trkpt><trkpt lat="44.334191130450286" lon="8.211840820973723"><ele>465.0</ele><time>2026-04-03T09:50:25.998Z</time></trkpt><trkpt lat="44.33427953814128" lon="8.211893873821618"><ele>465.0</ele><time>2026-04-03T09:50:26.998Z</time></trkpt><trkpt lat="44.334368055633135" lon="8.211944016390573"><ele>465.0</ele><time>2026-04-03T09:50:27.998Z</time></trkpt><trkpt lat="44.33445116205609" lon="8.211991712965757"><ele>465.0</ele><time>2026-04-03T09:50:28.998Z</time></trkpt><trkpt lat="44.33454097150406" lon="8.212027548105654"><ele>465.0</ele><time>2026-04-03T09:50:30Z</time></trkpt><trkpt lat="44.33463526329896" lon="8.212073616715177"><ele>465.0</ele><time>2026-04-03T09:50:31Z</time></trkpt><trkpt lat="44.334726342692456" lon="8.21212419480662"><ele>465.0</ele><time>2026-04-03T09:50:32Z</time></trkpt><trkpt lat="44.33481555586727" lon="8.212179349074377"><ele>465.0</ele><time>2026-04-03T09:50:33Z</time></trkpt><trkpt lat="44.33492152602703" lon="8.212233165850348"><ele>465.0</ele><time>2026-04-03T09:50:34Z</time></trkpt><trkpt lat="44.33501578943893" lon="8.212289996559276"><ele>465.0</ele><time>2026-04-03T09:50:35Z</time></trkpt><trkpt lat="44.33509994621201" lon="8.212342461988761"><ele>465.0</ele><time>2026-04-03T09:50:36Z</time></trkpt><trkpt lat="44.335194695246756" lon="8.212383804282672"><ele>465.0</ele><time>2026-04-03T09:50:37Z</time></trkpt><trkpt lat="44.33528624069363" lon="8.212428903632231"><ele>465.0</ele><time>2026-04-03T09:50:38Z</time></trkpt><trkpt lat="44.33538080012151" lon="8.212462273711468"><ele>465.0</ele><time>2026-04-03T09:50:39Z</time></trkpt><trkpt lat="44.33548238452197" lon="8.21247354833606"><ele>465.0</ele><time>2026-04-03T09:50:40Z</time></trkpt><trkpt lat="44.33558946855481" lon="8.212471518305609"><ele>465.0</ele><time>2026-04-03T09:50:41Z</time></trkpt><trkpt lat="44.33570432979817" lon="8.212463312481535"><ele>465.0</ele><time>2026-04-03T09:50:42Z</time></trkpt><trkpt lat="44.3358055442235" lon="8.212390333123382"><ele>463.8</ele><time>2026-04-03T09:50:43Z</time></trkpt><trkpt lat="44.335910058647556" lon="8.212322454572295"><ele>462.6</ele><time>2026-04-03T09:50:44Z</time></trkpt><trkpt lat="44.33601325979536" lon="8.212239715284758"><ele>461.4</ele><time>2026-04-03T09:50:45Z</time></trkpt><trkpt lat="44.33609594658992" lon="8.212174231888223"><ele>460.2</ele><time>2026-04-03T09:50:46Z</time></trkpt><trkpt lat="44.33617024905219" lon="8.212096221350208"><ele>459.0</ele><time>2026-04-03T09:50:47Z</time></trkpt><trkpt lat="44.33625770807443" lon="8.212001194322601"><ele>459.0</ele><time>2026-04-03T09:50:48Z</time></trkpt><trkpt lat="44.336340953386525" lon="8.21189884267829"><ele>459.0</ele><time>2026-04-03T09:50:49Z</time></trkpt><trkpt lat="44.336417966766035" lon="8.211806286162012"><ele>459.0</ele><time>2026-04-03T09:50:50Z</time></trkpt><trkpt lat="44.336478485887646" lon="8.211708913903772"><ele>459.0</ele><time>2026-04-03T09:50:51Z</time></trkpt><trkpt lat="44.33655717953624" lon="8.211605941087436"><ele>459.0</ele><time>2026-04-03T09:50:52Z</time></trkpt><trkpt lat="44.336622029310234" lon="8.211487434724113"><ele>461.0</ele><time>2026-04-03T09:50:53Z</time></trkpt><trkpt lat="44.336673071098545" lon="8.211341833763555"><ele>463.0</ele><time>2026-04-03T09:50:54Z</time></trkpt><trkpt lat="44.33668749119749" lon="8.21117200095096"><ele>465.0</ele><time>2026-04-03T09:50:55Z</time></trkpt><trkpt lat="44.336709957679666" lon="8.211031266712629"><ele>467.0</ele><time>2026-04-03T09:50:56Z</time></trkpt><trkpt lat="44.33674080933713" lon="8.210887848060452"><ele>469.0</ele><time>2026-04-03T09:50:57Z</time></trkpt><trkpt lat="44.33676488792755" lon="8.210759262591505"><ele>467.6</ele><time>2026-04-03T09:50:58Z</time></trkpt><trkpt lat="44.33679003762766" lon="8.210626883321401"><ele>466.2</ele><time>2026-04-03T09:50:59Z</time></trkpt><trkpt lat="44.33681809000346" lon="8.210492729148022"><ele>464.80000000000007</ele><time>2026-04-03T09:51:00Z</time></trkpt><trkpt lat="44.33684940148656" lon="8.21036495481222"><ele>463.40000000000003</ele><time>2026-04-03T09:51:01Z</time></trkpt><trkpt lat="44.33687284806495" lon="8.210210387721046"><ele>462.0</ele><time>2026-04-03T09:51:02Z</time></trkpt><trkpt lat="44.33689656751265" lon="8.210067199343387"><ele>462.0</ele><time>2026-04-03T09:51:03Z</time></trkpt><trkpt lat="44.33692300440194" lon="8.209916003094218"><ele>462.00000000000006</ele><time>2026-04-03T09:51:04Z</time></trkpt><trkpt lat="44.33694899956703" lon="8.209784893761745"><ele>462.00000000000006</ele><time>2026-04-03T09:51:05Z</time></trkpt><trkpt lat="44.33697208723005" lon="8.209656173588648"><ele>462.0</ele><time>2026-04-03T09:51:06Z</time></trkpt><trkpt lat="44.33700273674788" lon="8.20951102876776"><ele>462.0</ele><time>2026-04-03T09:51:07Z</time></trkpt><trkpt lat="44.33702649327134" lon="8.209382021200028"><ele>461.6</ele><time>2026-04-03T09:51:08Z</time></trkpt><trkpt lat="44.33705686892663" lon="8.209228949354578"><ele>461.20000000000005</ele><time>2026-04-03T09:51:09Z</time></trkpt><trkpt lat="44.337086687528874" lon="8.209082915301565"><ele>460.8</ele><time>2026-04-03T09:51:10Z</time></trkpt><trkpt lat="44.33711902978503" lon="8.208939721415955"><ele>460.4</ele><time>2026-04-03T09:51:11Z</time></trkpt><trkpt lat="44.33713762399766" lon="8.208790559738526"><ele>460.0</ele><time>2026-04-03T09:51:12Z</time></trkpt><trkpt lat="44.33716632890009" lon="8.208644801008342"><ele>460.0</ele><time>2026-04-03T09:51:13Z</time></trkpt><trkpt lat="44.33719544801343" lon="8.208495912343917"><ele>460.0</ele><time>2026-04-03T09:51:14Z</time></trkpt><trkpt lat="44.33721218972653" lon="8.208331065504627"><ele>460.0</ele><time>2026-04-03T09:51:14.999Z</time></trkpt><trkpt lat="44.337243379517794" lon="8.208179290991659"><ele>460.0</ele><time>2026-04-03T09:51:15.999Z</time></trkpt><trkpt lat="44.3372692224735" lon="8.20807793418946"><ele>460.0</ele><time>2026-04-03T09:51:16.999Z</time></trkpt><trkpt lat="44.33729695943411" lon="8.207929719044415"><ele>460.0</ele><time>2026-04-03T09:51:17.999Z</time></trkpt><trkpt lat="44.33731854506399" lon="8.2077923048435"><ele>460.0</ele><time>2026-04-03T09:51:18.999Z</time></trkpt><trkpt lat="44.337341090077565" lon="8.20765484326682"><ele>460.0</ele><time>2026-04-03T09:51:19.999Z</time></trkpt><trkpt lat="44.33736658947699" lon="8.207497616209057"><ele>460.0</ele><time>2026-04-03T09:51:20.999Z</time></trkpt><trkpt lat="44.33738033186817" lon="8.207369410590353"><ele>460.0</ele><time>2026-04-03T09:51:21.999Z</time></trkpt><trkpt lat="44.337394824187044" lon="8.20721119561887"><ele>460.0</ele><time>2026-04-03T09:51:22.999Z</time></trkpt><trkpt lat="44.33739925403039" lon="8.207063824401832"><ele>460.0</ele><time>2026-04-03T09:51:23.999Z</time></trkpt><trkpt lat="44.33740092380711" lon="8.206919707133588"><ele>460.0</ele><time>2026-04-03T09:51:24.999Z</time></trkpt><trkpt lat="44.33741035135159" lon="8.206795992967496"><ele>460.0</ele><time>2026-04-03T09:51:25.999Z</time></trkpt><trkpt lat="44.337418330786974" lon="8.206685303717498"><ele>460.0</ele><time>2026-04-03T09:51:26.999Z</time></trkpt><trkpt lat="44.337428360094044" lon="8.206537227255572"><ele>459.8</ele><time>2026-04-03T09:51:27.999Z</time></trkpt><trkpt lat="44.33744488858304" lon="8.206370851584044"><ele>459.6</ele><time>2026-04-03T09:51:28.999Z</time></trkpt><trkpt lat="44.33745817591494" lon="8.206247750862952"><ele>459.4</ele><time>2026-04-03T09:51:29.999Z</time></trkpt><trkpt lat="44.33747657092738" lon="8.206122440329034"><ele>459.2</ele><time>2026-04-03T09:51:30.999Z</time></trkpt><trkpt lat="44.33750762891246" lon="8.206005831458754"><ele>459.0</ele><time>2026-04-03T09:51:31.999Z</time></trkpt><trkpt lat="44.33754910615646" lon="8.205879842498195"><ele>459.0</ele><time>2026-04-03T09:51:32.999Z</time></trkpt><trkpt lat="44.33759387519421" lon="8.205743338140268"><ele>459.0</ele><time>2026-04-03T09:51:33.999Z</time></trkpt><trkpt lat="44.33764093182067" lon="8.205638308078017"><ele>459.0</ele><time>2026-04-03T09:51:34.999Z</time></trkpt><trkpt lat="44.33769510528084" lon="8.205548850366167"><ele>459.0</ele><time>2026-04-03T09:51:35.999Z</time></trkpt><trkpt lat="44.337757301733305" lon="8.205477248961936"><ele>459.0</ele><time>2026-04-03T09:51:36.999Z</time></trkpt><trkpt lat="44.337840512881726" lon="8.205418048036979"><ele>459.2</ele><time>2026-04-03T09:51:37.999Z</time></trkpt><trkpt lat="44.33792162833131" lon="8.205337399902001"><ele>459.4</ele><time>2026-04-03T09:51:38.999Z</time></trkpt><trkpt lat="44.33801305932556" lon="8.20526673250179"><ele>459.6</ele><time>2026-04-03T09:51:39.999Z</time></trkpt><trkpt lat="44.33810533689415" lon="8.205196466262656"><ele>459.8</ele><time>2026-04-03T09:51:40.999Z</time></trkpt><trkpt lat="44.33820034445322" lon="8.205123142490294"><ele>460.0</ele><time>2026-04-03T09:51:41.999Z</time></trkpt><trkpt lat="44.338302009448334" lon="8.205052001081032"><ele>460.0</ele><time>2026-04-03T09:51:42.999Z</time></trkpt><trkpt lat="44.33840651587535" lon="8.204972397165545"><ele>460.0</ele><time>2026-04-03T09:51:43.999Z</time></trkpt><trkpt lat="44.33850237785368" lon="8.204892960080429"><ele>460.0</ele><time>2026-04-03T09:51:44.999Z</time></trkpt><trkpt lat="44.338595135121466" lon="8.204833439625876"><ele>460.0</ele><time>2026-04-03T09:51:45.999Z</time></trkpt><trkpt lat="44.338682532068056" lon="8.204762334449255"><ele>460.0</ele><time>2026-04-03T09:51:46.999Z</time></trkpt><trkpt lat="44.33877449831859" lon="8.20467503703142"><ele>460.2</ele><time>2026-04-03T09:51:47.999Z</time></trkpt><trkpt lat="44.33886295801828" lon="8.204591172281217"><ele>460.4</ele><time>2026-04-03T09:51:48.999Z</time></trkpt><trkpt lat="44.338945404903974" lon="8.204508209843647"><ele>460.6</ele><time>2026-04-03T09:51:49.999Z</time></trkpt><trkpt lat="44.339033299781335" lon="8.204428358802387"><ele>460.8</ele><time>2026-04-03T09:51:50.999Z</time></trkpt><trkpt lat="44.339111902442674" lon="8.20434863775664"><ele>461.0</ele><time>2026-04-03T09:51:51.999Z</time></trkpt><trkpt lat="44.33919792358118" lon="8.204270339653299"><ele>461.0</ele><time>2026-04-03T09:51:52.999Z</time></trkpt><trkpt lat="44.33931122909543" lon="8.204210341484249"><ele>461.0</ele><time>2026-04-03T09:51:53.999Z</time></trkpt><trkpt lat="44.33940356774661" lon="8.204129281045471"><ele>461.0</ele><time>2026-04-03T09:51:54.999Z</time></trkpt><trkpt lat="44.339486684502766" lon="8.204052859055018"><ele>461.0</ele><time>2026-04-03T09:51:55.999Z</time></trkpt><trkpt lat="44.33957394598395" lon="8.203974310224488"><ele>461.0</ele><time>2026-04-03T09:51:56.999Z</time></trkpt><trkpt lat="44.33965533816973" lon="8.203890139537043"><ele>461.5</ele><time>2026-04-03T09:51:57.999Z</time></trkpt><trkpt lat="44.339752538576455" lon="8.203802312564525"><ele>462.0</ele><time>2026-04-03T09:51:58.999Z</time></trkpt><trkpt lat="44.33984207451151" lon="8.203716111170431"><ele>462.5</ele><time>2026-04-03T09:51:59.999Z</time></trkpt><trkpt lat="44.33992798940758" lon="8.203620531478439"><ele>463.0</ele><time>2026-04-03T09:52:00.999Z</time></trkpt><trkpt lat="44.34001242712467" lon="8.203507720573826"><ele>463.0</ele><time>2026-04-03T09:52:01.999Z</time></trkpt><trkpt lat="44.34010536687185" lon="8.20337120950157"><ele>462.99999999999994</ele><time>2026-04-03T09:52:02.999Z</time></trkpt><trkpt lat="44.340180190279945" lon="8.203264397145151"><ele>462.99999999999994</ele><time>2026-04-03T09:52:03.999Z</time></trkpt><trkpt lat="44.34025264169169" lon="8.203160838444907"><ele>463.0</ele><time>2026-04-03T09:52:04.999Z</time></trkpt><trkpt lat="44.34032541724683" lon="8.203068322528653"><ele>463.0</ele><time>2026-04-03T09:52:05.999Z</time></trkpt><trkpt lat="44.34039715795335" lon="8.20298159626421"><ele>461.59999999999997</ele><time>2026-04-03T09:52:06.999Z</time></trkpt><trkpt lat="44.34049341689425" lon="8.202912728076214"><ele>460.19999999999993</ele><time>2026-04-03T09:52:07.999Z</time></trkpt><trkpt lat="44.340583787393385" lon="8.202846520661758"><ele>458.8</ele><time>2026-04-03T09:52:08.999Z</time></trkpt><trkpt lat="44.34068542735113" lon="8.202784856376907"><ele>457.4</ele><time>2026-04-03T09:52:09.999Z</time></trkpt><trkpt lat="44.34077568590917" lon="8.20273962771234"><ele>456.0</ele><time>2026-04-03T09:52:10.999Z</time></trkpt><trkpt lat="44.34086819287745" lon="8.20270234233596"><ele>456.0</ele><time>2026-04-03T09:52:11.998Z</time></trkpt><trkpt lat="44.34095522066491" lon="8.202663064558323"><ele>456.0</ele><time>2026-04-03T09:52:12.998Z</time></trkpt><trkpt lat="44.34104283805045" lon="8.202620193826808"><ele>456.0</ele><time>2026-04-03T09:52:13.998Z</time></trkpt><trkpt lat="44.341128687140326" lon="8.202579078377834"><ele>456.0</ele><time>2026-04-03T09:52:14.998Z</time></trkpt><trkpt lat="44.3412281767389" lon="8.202508045601878"><ele>456.0</ele><time>2026-04-03T09:52:15.998Z</time></trkpt><trkpt lat="44.34130803034725" lon="8.202403779074418"><ele>454.75</ele><time>2026-04-03T09:52:16.998Z</time></trkpt><trkpt lat="44.34140325566632" lon="8.202287621277398"><ele>453.5</ele><time>2026-04-03T09:52:17.998Z</time></trkpt><trkpt lat="44.341483513311175" lon="8.202154396640287"><ele>452.25</ele><time>2026-04-03T09:52:18.998Z</time></trkpt><trkpt lat="44.341561954155985" lon="8.202047146618241"><ele>451.0</ele><time>2026-04-03T09:52:19.998Z</time></trkpt><trkpt lat="44.341627086428986" lon="8.201961986660905"><ele>451.00000000000006</ele><time>2026-04-03T09:52:20.998Z</time></trkpt><trkpt lat="44.34168543991456" lon="8.20187487184706"><ele>451.0</ele><time>2026-04-03T09:52:21.998Z</time></trkpt><trkpt lat="44.341741015606566" lon="8.20178912175987"><ele>451.0</ele><time>2026-04-03T09:52:22.998Z</time></trkpt><trkpt lat="44.34179547377281" lon="8.201723102600818"><ele>451.0</ele><time>2026-04-03T09:52:23.998Z</time></trkpt><trkpt lat="44.341865724822355" lon="8.201673530847355"><ele>451.00000000000006</ele><time>2026-04-03T09:52:24.998Z</time></trkpt><trkpt lat="44.34196138030375" lon="8.201652459365638"><ele>451.0</ele><time>2026-04-03T09:52:25.998Z</time></trkpt><trkpt lat="44.34206155726722" lon="8.201676004585204"><ele>451.0</ele><time>2026-04-03T09:52:26.998Z</time></trkpt><trkpt lat="44.34215035673625" lon="8.201752277142184"><ele>451.0</ele><time>2026-04-03T09:52:27.998Z</time></trkpt><trkpt lat="44.342252799213945" lon="8.20180315213689"><ele>451.0</ele><time>2026-04-03T09:52:28.998Z</time></trkpt><trkpt lat="44.342356522638546" lon="8.20186795637451"><ele>451.0</ele><time>2026-04-03T09:52:29.998Z</time></trkpt><trkpt lat="44.34246013442833" lon="8.201937318303504"><ele>451.0</ele><time>2026-04-03T09:52:30.998Z</time></trkpt><trkpt lat="44.342527342256865" lon="8.202023122370171"><ele>451.8</ele><time>2026-04-03T09:52:31.998Z</time></trkpt><trkpt lat="44.34261168915601" lon="8.20208849186008"><ele>452.6</ele><time>2026-04-03T09:52:32.998Z</time></trkpt><trkpt lat="44.342695651072155" lon="8.20217791392958"><ele>453.4</ele><time>2026-04-03T09:52:33.998Z</time></trkpt><trkpt lat="44.34276279352018" lon="8.202284615473578"><ele>454.2</ele><time>2026-04-03T09:52:34.998Z</time></trkpt><trkpt lat="44.342826408607266" lon="8.202421600264621"><ele>455.0</ele><time>2026-04-03T09:52:36Z</time></trkpt><trkpt lat="44.342880405523" lon="8.20256055478632"><ele>455.0</ele><time>2026-04-03T09:52:37Z</time></trkpt><trkpt lat="44.342908017867636" lon="8.202689451376681"><ele>455.0</ele><time>2026-04-03T09:52:38Z</time></trkpt><trkpt lat="44.34291502471869" lon="8.202843760523503"><ele>455.0</ele><time>2026-04-03T09:52:39Z</time></trkpt><trkpt lat="44.34291847839615" lon="8.20301116944534"><ele>455.0</ele><time>2026-04-03T09:52:40Z</time></trkpt><trkpt lat="44.342916606037576" lon="8.203146814035748"><ele>455.0</ele><time>2026-04-03T09:52:41Z</time></trkpt><trkpt lat="44.3429144571563" lon="8.203281251876517"><ele>454.2</ele><time>2026-04-03T09:52:42Z</time></trkpt><trkpt lat="44.34292343372409" lon="8.20340741604965"><ele>453.4</ele><time>2026-04-03T09:52:43Z</time></trkpt><trkpt lat="44.34293722260904" lon="8.203532067232864"><ele>452.6</ele><time>2026-04-03T09:52:44Z</time></trkpt><trkpt lat="44.34296638884957" lon="8.20364603817141"><ele>451.8</ele><time>2026-04-03T09:52:45Z</time></trkpt><trkpt lat="44.34301646735151" lon="8.203758857093693"><ele>451.0</ele><time>2026-04-03T09:52:46Z</time></trkpt><trkpt lat="44.34308513077745" lon="8.20385364759832"><ele>453.6</ele><time>2026-04-03T09:52:47Z</time></trkpt><trkpt lat="44.34313946138672" lon="8.203965194428026"><ele>456.20000000000005</ele><time>2026-04-03T09:52:48Z</time></trkpt><trkpt lat="44.34320043377806" lon="8.204038909129277"><ele>458.79999999999995</ele><time>2026-04-03T09:52:49Z</time></trkpt><trkpt lat="44.34326168818927" lon="8.204140454528607"><ele>461.4</ele><time>2026-04-03T09:52:50Z</time></trkpt><trkpt lat="44.3433258958535" lon="8.204233692893235"><ele>464.0</ele><time>2026-04-03T09:52:51Z</time></trkpt><trkpt lat="44.343391351694535" lon="8.204329967730537"><ele>464.0</ele><time>2026-04-03T09:52:52Z</time></trkpt><trkpt lat="44.34345822568314" lon="8.2044192472436"><ele>464.0</ele><time>2026-04-03T09:52:53Z</time></trkpt><trkpt lat="44.343525916738706" lon="8.204488078805074"><ele>464.0</ele><time>2026-04-03T09:52:54Z</time></trkpt><trkpt lat="44.343610916185995" lon="8.204565568416605"><ele>464.0</ele><time>2026-04-03T09:52:55Z</time></trkpt><trkpt lat="44.34371290643257" lon="8.204630464206344"><ele>464.0</ele><time>2026-04-03T09:52:56Z</time></trkpt><trkpt lat="44.34383804592461" lon="8.204691455039756"><ele>463.6</ele><time>2026-04-03T09:52:57Z</time></trkpt><trkpt lat="44.34395540072944" lon="8.20478826660584"><ele>463.2</ele><time>2026-04-03T09:52:58Z</time></trkpt><trkpt lat="44.34404431998956" lon="8.204858142271338"><ele>462.80000000000007</ele><time>2026-04-03T09:52:59Z</time></trkpt><trkpt lat="44.344130527565476" lon="8.204941229106613"><ele>462.40000000000003</ele><time>2026-04-03T09:53:00Z</time></trkpt><trkpt lat="44.344215338178316" lon="8.205012076965168"><ele>462.0</ele><time>2026-04-03T09:53:01Z</time></trkpt><trkpt lat="44.34430647363406" lon="8.205099773678507"><ele>462.0</ele><time>2026-04-03T09:53:02Z</time></trkpt><trkpt lat="44.34439747298979" lon="8.205172712409558"><ele>462.00000000000006</ele><time>2026-04-03T09:53:03Z</time></trkpt><trkpt lat="44.34448283979433" lon="8.205266838608166"><ele>462.00000000000006</ele><time>2026-04-03T09:53:04Z</time></trkpt><trkpt lat="44.34457258526193" lon="8.205346183344348"><ele>462.0</ele><time>2026-04-03T09:53:05Z</time></trkpt><trkpt lat="44.34464916181432" lon="8.205414105812013"><ele>462.0</ele><time>2026-04-03T09:53:06Z</time></trkpt><trkpt lat="44.34473118881475" lon="8.205495331338627"><ele>460.0</ele><time>2026-04-03T09:53:07Z</time></trkpt><trkpt lat="44.344830233079584" lon="8.205572686819727"><ele>458.00000000000006</ele><time>2026-04-03T09:53:08Z</time></trkpt><trkpt lat="44.34491909956557" lon="8.205639310860128"><ele>456.00000000000006</ele><time>2026-04-03T09:53:09Z</time></trkpt><trkpt lat="44.34501742381032" lon="8.205685987744396"><ele>454.0</ele><time>2026-04-03T09:53:10Z</time></trkpt><trkpt lat="44.345105978530135" lon="8.20573222595175"><ele>452.0</ele><time>2026-04-03T09:53:11Z</time></trkpt><trkpt lat="44.345179147199545" lon="8.2058053227124"><ele>451.99999999999994</ele><time>2026-04-03T09:53:12Z</time></trkpt><trkpt lat="44.34527492217751" lon="8.205838233841979"><ele>452.0</ele><time>2026-04-03T09:53:13Z</time></trkpt><trkpt lat="44.345371150330806" lon="8.205862352455537"><ele>452.0</ele><time>2026-04-03T09:53:14Z</time></trkpt><trkpt lat="44.34544311805846" lon="8.205883295279312"><ele>452.0</ele><time>2026-04-03T09:53:15Z</time></trkpt><trkpt lat="44.34551931093097" lon="8.205910116926727"><ele>451.99999999999994</ele><time>2026-04-03T09:53:16Z</time></trkpt><trkpt lat="44.34560199098664" lon="8.205950408256047"><ele>452.0</ele><time>2026-04-03T09:53:17Z</time></trkpt><trkpt lat="44.34568705228836" lon="8.20602287600303"><ele>453.20000000000005</ele><time>2026-04-03T09:53:18Z</time></trkpt><trkpt lat="44.34575875088024" lon="8.206070697649487"><ele>454.40000000000003</ele><time>2026-04-03T09:53:18.999Z</time></trkpt><trkpt lat="44.34583268198751" lon="8.206171662987932"><ele>455.59999999999997</ele><time>2026-04-03T09:53:19.999Z</time></trkpt><trkpt lat="44.345890785571385" lon="8.206267436657903"><ele>456.79999999999995</ele><time>2026-04-03T09:53:20.999Z</time></trkpt><trkpt lat="44.34593255401396" lon="8.206396307973403"><ele>458.0</ele><time>2026-04-03T09:53:21.999Z</time></trkpt><trkpt lat="44.34596241344566" lon="8.206541718063239"><ele>458.0</ele><time>2026-04-03T09:53:22.999Z</time></trkpt><trkpt lat="44.34599400030321" lon="8.206689831596858"><ele>457.99999999999994</ele><time>2026-04-03T09:53:23.999Z</time></trkpt><trkpt lat="44.34601566311496" lon="8.206846704253246"><ele>457.99999999999994</ele><time>2026-04-03T09:53:24.999Z</time></trkpt><trkpt lat="44.34603760720272" lon="8.206987566530545"><ele>458.0</ele><time>2026-04-03T09:53:25.999Z</time></trkpt><trkpt lat="44.34604843300219" lon="8.207105800787412"><ele>458.0</ele><time>2026-04-03T09:53:26.999Z</time></trkpt><trkpt lat="44.34606517750065" lon="8.207224702695061"><ele>456.4</ele><time>2026-04-03T09:53:27.999Z</time></trkpt><trkpt lat="44.346077248490836" lon="8.207402762730508"><ele>454.79999999999995</ele><time>2026-04-03T09:53:28.999Z</time></trkpt><trkpt lat="44.3460943615683" lon="8.207537977054908"><ele>453.2</ele><time>2026-04-03T09:53:29.999Z</time></trkpt><trkpt lat="44.34610822762445" lon="8.20770163355366"><ele>451.6</ele><time>2026-04-03T09:53:30.999Z</time></trkpt><trkpt lat="44.34612845663522" lon="8.207842907601234"><ele>450.0</ele><time>2026-04-03T09:53:31.999Z</time></trkpt><trkpt lat="44.34613952650137" lon="8.208013145443799"><ele>450.0</ele><time>2026-04-03T09:53:32.999Z</time></trkpt><trkpt lat="44.34615281070714" lon="8.208150907345411"><ele>450.0</ele><time>2026-04-03T09:53:33.999Z</time></trkpt><trkpt lat="44.346165686498274" lon="8.20828558139409"><ele>450.0</ele><time>2026-04-03T09:53:34.999Z</time></trkpt><trkpt lat="44.34617681261523" lon="8.208422326659534"><ele>450.0</ele><time>2026-04-03T09:53:35.999Z</time></trkpt><trkpt lat="44.3461863126144" lon="8.208572208299113"><ele>450.0</ele><time>2026-04-03T09:53:36.999Z</time></trkpt><trkpt lat="44.34619802076877" lon="8.208697771850497"><ele>449.6</ele><time>2026-04-03T09:53:37.999Z</time></trkpt><trkpt lat="44.346202153334204" lon="8.208816525045718"><ele>449.2</ele><time>2026-04-03T09:53:38.999Z</time></trkpt><trkpt lat="44.346205778468835" lon="8.208944416244904"><ele>448.79999999999995</ele><time>2026-04-03T09:53:39.999Z</time></trkpt><trkpt lat="44.34620909266636" lon="8.209075980236763"><ele>448.4</ele><time>2026-04-03T09:53:40.999Z</time></trkpt><trkpt lat="44.34622303632542" lon="8.209207779893958"><ele>448.0</ele><time>2026-04-03T09:53:41.999Z</time></trkpt><trkpt lat="44.34624489553732" lon="8.209348310028544"><ele>448.0</ele><time>2026-04-03T09:53:42.999Z</time></trkpt><trkpt lat="44.346305383932716" lon="8.209469773758212"><ele>448.0</ele><time>2026-04-03T09:53:43.999Z</time></trkpt><trkpt lat="44.346381832961356" lon="8.209593904121135"><ele>448.0</ele><time>2026-04-03T09:53:44.999Z</time></trkpt><trkpt lat="44.34646685319847" lon="8.209738688516852"><ele>448.0</ele><time>2026-04-03T09:53:45.999Z</time></trkpt><trkpt lat="44.34654553173183" lon="8.209859848039258"><ele>448.1666666666667</ele><time>2026-04-03T09:53:46.999Z</time></trkpt><trkpt lat="44.34660549825446" lon="8.209945377198494"><ele>448.33333333333337</ele><time>2026-04-03T09:53:47.999Z</time></trkpt><trkpt lat="44.34666043552169" lon="8.210009913685584"><ele>448.5</ele><time>2026-04-03T09:53:48.999Z</time></trkpt><trkpt lat="44.346726988186596" lon="8.210082582206745"><ele>448.66666666666663</ele><time>2026-04-03T09:53:49.999Z</time></trkpt><trkpt lat="44.34681011073269" lon="8.210126437687192"><ele>448.8333333333333</ele><time>2026-04-03T09:53:50.999Z</time></trkpt><trkpt lat="44.3469035982401" lon="8.210149410031567"><ele>449.0</ele><time>2026-04-03T09:53:51.999Z</time></trkpt><trkpt lat="44.34699773189077" lon="8.210095594019085"><ele>449.0</ele><time>2026-04-03T09:53:52.999Z</time></trkpt><trkpt lat="44.347109487769984" lon="8.210038635204796"><ele>449.0</ele><time>2026-04-03T09:53:53.999Z</time></trkpt><trkpt lat="44.34725096342799" lon="8.209946836433357"><ele>449.0</ele><time>2026-04-03T09:53:54.999Z</time></trkpt><trkpt lat="44.347368474393654" lon="8.209836935279323"><ele>449.0</ele><time>2026-04-03T09:53:55.999Z</time></trkpt><trkpt lat="44.347512135555135" lon="8.209730447040341"><ele>452.75</ele><time>2026-04-03T09:53:56.999Z</time></trkpt><trkpt lat="44.34764385214212" lon="8.209620718519583"><ele>456.5</ele><time>2026-04-03T09:53:57.999Z</time></trkpt><trkpt lat="44.3477650391133" lon="8.20951909636849"><ele>460.25</ele><time>2026-04-03T09:53:58.999Z</time></trkpt><trkpt lat="44.34787394234049" lon="8.20943139470051"><ele>464.0</ele><time>2026-04-03T09:53:59.999Z</time></trkpt><trkpt lat="44.347960977866826" lon="8.20934823849534"><ele>461.79999999999995</ele><time>2026-04-03T09:54:00.999Z</time></trkpt><trkpt lat="44.34804629607844" lon="8.209271958068245"><ele>459.59999999999997</ele><time>2026-04-03T09:54:01.999Z</time></trkpt><trkpt lat="44.348123758304496" lon="8.209195821473271"><ele>457.4</ele><time>2026-04-03T09:54:02.999Z</time></trkpt><trkpt lat="44.34822060071723" lon="8.209113057344078"><ele>455.2</ele><time>2026-04-03T09:54:03.999Z</time></trkpt><trkpt lat="44.3483335884448" lon="8.209030740688824"><ele>453.0</ele><time>2026-04-03T09:54:04.999Z</time></trkpt><trkpt lat="44.348425808930436" lon="8.208956188992591"><ele>458.5</ele><time>2026-04-03T09:54:05.999Z</time></trkpt><trkpt lat="44.348529076228054" lon="8.208888451887557"><ele>464.0</ele><time>2026-04-03T09:54:06.999Z</time></trkpt><trkpt lat="44.34862773119773" lon="8.208826119822975"><ele>469.5</ele><time>2026-04-03T09:54:07.999Z</time></trkpt><trkpt lat="44.34874224923408" lon="8.20877393229538"><ele>475.0</ele><time>2026-04-03T09:54:08.999Z</time></trkpt><trkpt lat="44.348870029644445" lon="8.208806668784266"><ele>473.5</ele><time>2026-04-03T09:54:09.999Z</time></trkpt><trkpt lat="44.34898218033442" lon="8.208814810991312"><ele>472.0</ele><time>2026-04-03T09:54:10.999Z</time></trkpt><trkpt lat="44.349090890256456" lon="8.208841068968493"><ele>470.5</ele><time>2026-04-03T09:54:11.999Z</time></trkpt><trkpt lat="44.349211872977094" lon="8.208857746936593"><ele>469.0</ele><time>2026-04-03T09:54:12.999Z</time></trkpt><trkpt lat="44.34933527062287" lon="8.208855721367849"><ele>469.0</ele><time>2026-04-03T09:54:13.999Z</time></trkpt><trkpt lat="44.34946393508983" lon="8.208800392045434"><ele>469.0</ele><time>2026-04-03T09:54:14.999Z</time></trkpt><trkpt lat="44.349594999024035" lon="8.208729399828004"><ele>469.0</ele><time>2026-04-03T09:54:15.998Z</time></trkpt><trkpt lat="44.34974140417637" lon="8.208653988043125"><ele>469.0</ele><time>2026-04-03T09:54:16.998Z</time></trkpt><trkpt lat="44.349892636938804" lon="8.208574927740468"><ele>467.33333333333337</ele><time>2026-04-03T09:54:17.998Z</time></trkpt><trkpt lat="44.35004842269896" lon="8.208493008783616"><ele>465.66666666666663</ele><time>2026-04-03T09:54:18.998Z</time></trkpt><trkpt lat="44.35020273821674" lon="8.208414938000995"><ele>464.0</ele><time>2026-04-03T09:54:19.998Z</time></trkpt><trkpt lat="44.350362769638004" lon="8.208333550189503"><ele>464.0</ele><time>2026-04-03T09:54:20.998Z</time></trkpt><trkpt lat="44.350526542528954" lon="8.208240881504397"><ele>464.0</ele><time>2026-04-03T09:54:21.998Z</time></trkpt><trkpt lat="44.35068193644948" lon="8.208154542295851"><ele>464.0</ele><time>2026-04-03T09:54:22.998Z</time></trkpt><trkpt lat="44.35080309809433" lon="8.20808515851755"><ele>466.4</ele><time>2026-04-03T09:54:23.998Z</time></trkpt><trkpt lat="44.350923199459764" lon="8.208028579743349"><ele>468.79999999999995</ele><time>2026-04-03T09:54:24.998Z</time></trkpt><trkpt lat="44.35106750666706" lon="8.207976404588036"><ele>471.20000000000005</ele><time>2026-04-03T09:54:25.998Z</time></trkpt><trkpt lat="44.35115127913336" lon="8.2079266689273"><ele>473.6</ele><time>2026-04-03T09:54:26.998Z</time></trkpt><trkpt lat="44.35121454230368" lon="8.2078821101611"><ele>476.0</ele><time>2026-04-03T09:54:27.998Z</time></trkpt><trkpt lat="44.351284775035815" lon="8.207824822200413"><ele>476.0</ele><time>2026-04-03T09:54:28.998Z</time></trkpt><trkpt lat="44.35135890106801" lon="8.20776274776763"><ele>476.0</ele><time>2026-04-03T09:54:29.998Z</time></trkpt><trkpt lat="44.351447149820764" lon="8.207699569335276"><ele>476.0</ele><time>2026-04-03T09:54:30.998Z</time></trkpt><trkpt lat="44.35154496836303" lon="8.207602896624367"><ele>476.0</ele><time>2026-04-03T09:54:31.998Z</time></trkpt><trkpt lat="44.351633176518824" lon="8.207475944215261"><ele>476.0</ele><time>2026-04-03T09:54:32.998Z</time></trkpt><trkpt lat="44.35170668014301" lon="8.207328039768123"><ele>472.4</ele><time>2026-04-03T09:54:33.998Z</time></trkpt><trkpt lat="44.3517583431543" lon="8.207177441209788"><ele>468.8</ele><time>2026-04-03T09:54:34.998Z</time></trkpt><trkpt lat="44.35178051163264" lon="8.207013076735052"><ele>465.19999999999993</ele><time>2026-04-03T09:54:35.998Z</time></trkpt><trkpt lat="44.35182873048223" lon="8.206888840274132"><ele>461.59999999999997</ele><time>2026-04-03T09:54:36.998Z</time></trkpt><trkpt lat="44.35188022198726" lon="8.20676844059162"><ele>458.0</ele><time>2026-04-03T09:54:37.998Z</time></trkpt><trkpt lat="44.35193570857588" lon="8.206653826485404"><ele>458.0</ele><time>2026-04-03T09:54:38.998Z</time></trkpt><trkpt lat="44.352006500101666" lon="8.206530299202228"><ele>457.99999999999994</ele><time>2026-04-03T09:54:39.998Z</time></trkpt><trkpt lat="44.3520658667368" lon="8.206439691390214"><ele>457.99999999999994</ele><time>2026-04-03T09:54:40.998Z</time></trkpt><trkpt lat="44.352150186181284" lon="8.206344135427418"><ele>458.0</ele><time>2026-04-03T09:54:42Z</time></trkpt><trkpt lat="44.35223839006358" lon="8.206270153255305"><ele>458.0</ele><time>2026-04-03T09:54:43Z</time></trkpt><trkpt lat="44.352339197801186" lon="8.206202712783874"><ele>457.79999999999995</ele><time>2026-04-03T09:54:44Z</time></trkpt><trkpt lat="44.352434563041385" lon="8.206123883584864"><ele>457.59999999999997</ele><time>2026-04-03T09:54:45Z</time></trkpt><trkpt lat="44.3525322825094" lon="8.20604490438494"><ele>457.40000000000003</ele><time>2026-04-03T09:54:46Z</time></trkpt><trkpt lat="44.35262029946219" lon="8.205971962912903"><ele>457.20000000000005</ele><time>2026-04-03T09:54:47Z</time></trkpt><trkpt lat="44.35270279727613" lon="8.20589345771513"><ele>457.0</ele><time>2026-04-03T09:54:48Z</time></trkpt><trkpt lat="44.35278474905762" lon="8.205819710325308"><ele>457.0</ele><time>2026-04-03T09:54:49Z</time></trkpt><trkpt lat="44.35287705872543" lon="8.205751809820157"><ele>457.00000000000006</ele><time>2026-04-03T09:54:50Z</time></trkpt><trkpt lat="44.35296211303718" lon="8.205688721234395"><ele>457.00000000000006</ele><time>2026-04-03T09:54:51Z</time></trkpt><trkpt lat="44.35304426460359" lon="8.205614908432855"><ele>457.0</ele><time>2026-04-03T09:54:52Z</time></trkpt><trkpt lat="44.35312570275261" lon="8.205550412261708"><ele>457.0</ele><time>2026-04-03T09:54:53Z</time></trkpt><trkpt lat="44.35321489131228" lon="8.20548639112098"><ele>456.6</ele><time>2026-04-03T09:54:54Z</time></trkpt><trkpt lat="44.353309319319145" lon="8.205425010238063"><ele>456.20000000000005</ele><time>2026-04-03T09:54:55Z</time></trkpt><trkpt lat="44.35340504313193" lon="8.205383286244015"><ele>455.8</ele><time>2026-04-03T09:54:56Z</time></trkpt><trkpt lat="44.353509320948696" lon="8.205344981739978"><ele>455.4</ele><time>2026-04-03T09:54:57Z</time></trkpt><trkpt lat="44.35360251255553" lon="8.20532111004083"><ele>455.0</ele><time>2026-04-03T09:54:58Z</time></trkpt><trkpt lat="44.35370291483607" lon="8.205302200984264"><ele>454.99999999999994</ele><time>2026-04-03T09:54:59Z</time></trkpt><trkpt lat="44.35380638653049" lon="8.205282517308435"><ele>455.0</ele><time>2026-04-03T09:55:00Z</time></trkpt><trkpt lat="44.35389180340067" lon="8.205264570823154"><ele>455.0</ele><time>2026-04-03T09:55:01Z</time></trkpt><trkpt lat="44.35397246909569" lon="8.20525931051118"><ele>455.0</ele><time>2026-04-03T09:55:02Z</time></trkpt><trkpt lat="44.35404195156417" lon="8.20527050319275"><ele>454.99999999999994</ele><time>2026-04-03T09:55:03Z</time></trkpt><trkpt lat="44.3541269049689" lon="8.205302955605616"><ele>455.0</ele><time>2026-04-03T09:55:04Z</time></trkpt><trkpt lat="44.35420582268737" lon="8.205356872451649"><ele>452.0</ele><time>2026-04-03T09:55:05Z</time></trkpt><trkpt lat="44.354249415478975" lon="8.20547570341597"><ele>449.0</ele><time>2026-04-03T09:55:06Z</time></trkpt><trkpt lat="44.35431067617424" lon="8.205589529894922"><ele>446.0</ele><time>2026-04-03T09:55:07Z</time></trkpt><trkpt lat="44.35436523349231" lon="8.20569665520743"><ele>443.0</ele><time>2026-04-03T09:55:08Z</time></trkpt><trkpt lat="44.35441599960347" lon="8.205798740969614"><ele>440.0</ele><time>2026-04-03T09:55:09Z</time></trkpt><trkpt lat="44.35446882308314" lon="8.205888725023364"><ele>439.4285714285714</ele><time>2026-04-03T09:55:10Z</time></trkpt><trkpt lat="44.35452071870799" lon="8.205986449063992"><ele>438.85714285714283</ele><time>2026-04-03T09:55:11Z</time></trkpt><trkpt lat="44.35456324600136" lon="8.206062208888882"><ele>438.2857142857143</ele><time>2026-04-03T09:55:12Z</time></trkpt><trkpt lat="44.35460748953295" lon="8.20614838373749"><ele>437.71428571428567</ele><time>2026-04-03T09:55:13Z</time></trkpt><trkpt lat="44.35464695604185" lon="8.206227483054931"><ele>437.14285714285717</ele><time>2026-04-03T09:55:14Z</time></trkpt><trkpt lat="44.35468736947346" lon="8.206295719044075"><ele>436.57142857142856</ele><time>2026-04-03T09:55:15Z</time></trkpt><trkpt lat="44.3547320271748" lon="8.206391226834247"><ele>436.0</ele><time>2026-04-03T09:55:16Z</time></trkpt><trkpt lat="44.35480261341521" lon="8.206447316153168"><ele>437.57142857142856</ele><time>2026-04-03T09:55:17Z</time></trkpt><trkpt lat="44.354867263584914" lon="8.206484696718697"><ele>439.14285714285717</ele><time>2026-04-03T09:55:18Z</time></trkpt><trkpt lat="44.354934804394944" lon="8.206511218573615"><ele>440.71428571428567</ele><time>2026-04-03T09:55:19Z</time></trkpt><trkpt lat="44.35501711325299" lon="8.206540555573682"><ele>442.2857142857143</ele><time>2026-04-03T09:55:20Z</time></trkpt><trkpt lat="44.35508741988497" lon="8.206541643042701"><ele>443.85714285714283</ele><time>2026-04-03T09:55:21Z</time></trkpt><trkpt lat="44.35515550465968" lon="8.206558180703073"><ele>445.4285714285714</ele><time>2026-04-03T09:55:22Z</time></trkpt><trkpt lat="44.35521606110741" lon="8.206529910154538"><ele>447.0</ele><time>2026-04-03T09:55:23Z</time></trkpt><trkpt lat="44.3552995716588" lon="8.206523557531039"><ele>447.40000000000003</ele><time>2026-04-03T09:55:23.999Z</time></trkpt><trkpt lat="44.35537695376526" lon="8.20654121184832"><ele>447.80000000000007</ele><time>2026-04-03T09:55:24.999Z</time></trkpt><trkpt lat="44.355477670589885" lon="8.206548981676782"><ele>448.2</ele><time>2026-04-03T09:55:25.999Z</time></trkpt><trkpt lat="44.35554873455478" lon="8.206565542394246"><ele>448.6</ele><time>2026-04-03T09:55:26.999Z</time></trkpt><trkpt lat="44.35567815085448" lon="8.206634203297416"><ele>449.0</ele><time>2026-04-03T09:55:28.999Z</time></trkpt><trkpt lat="44.355805139752924" lon="8.20667823746194"><ele>447.2</ele><time>2026-04-03T09:55:30.999Z</time></trkpt><trkpt lat="44.35587634775674" lon="8.206702352742266"><ele>445.4</ele><time>2026-04-03T09:55:31.999Z</time></trkpt><trkpt lat="44.35600526601137" lon="8.206725788497279"><ele>443.6</ele><time>2026-04-03T09:55:33.999Z</time></trkpt><trkpt lat="44.35608665356514" lon="8.206775372591968"><ele>441.8</ele><time>2026-04-03T09:55:34.999Z</time></trkpt><trkpt lat="44.35616621369309" lon="8.20680611687057"><ele>440.0</ele><time>2026-04-03T09:55:35.999Z</time></trkpt><trkpt lat="44.356233456408106" lon="8.20685871649443"><ele>439.99999999999994</ele><time>2026-04-03T09:55:36.999Z</time></trkpt><trkpt lat="44.356310921461706" lon="8.206876292194309"><ele>440.0</ele><time>2026-04-03T09:55:37.999Z</time></trkpt><trkpt lat="44.356382351964086" lon="8.20691888148422"><ele>440.0</ele><time>2026-04-03T09:55:38.999Z</time></trkpt><trkpt lat="44.35645446058739" lon="8.206955043805818"><ele>440.0</ele><time>2026-04-03T09:55:39.999Z</time></trkpt><trkpt lat="44.356555610065165" lon="8.206997851864172"><ele>439.99999999999994</ele><time>2026-04-03T09:55:40.999Z</time></trkpt><trkpt lat="44.356632784253456" lon="8.207021168850686"><ele>440.0</ele><time>2026-04-03T09:55:41.999Z</time></trkpt><trkpt lat="44.356704349092816" lon="8.207041045832087"><ele>439.4</ele><time>2026-04-03T09:55:42.999Z</time></trkpt><trkpt lat="44.35677402732593" lon="8.207068991852273"><ele>438.8</ele><time>2026-04-03T09:55:43.999Z</time></trkpt><trkpt lat="44.35692010637583" lon="8.207141406366379"><ele>438.20000000000005</ele><time>2026-04-03T09:55:46.999Z</time></trkpt><trkpt lat="44.35698973532878" lon="8.20715970102597"><ele>437.6</ele><time>2026-04-03T09:55:47.999Z</time></trkpt><trkpt lat="44.35708016057491" lon="8.207210335296997"><ele>437.0</ele><time>2026-04-03T09:55:48.999Z</time></trkpt><trkpt lat="44.35714517537449" lon="8.20722814406165"><ele>436.66666666666663</ele><time>2026-04-03T09:55:49.999Z</time></trkpt><trkpt lat="44.357219355283625" lon="8.207243825124237"><ele>436.3333333333333</ele><time>2026-04-03T09:55:50.999Z</time></trkpt><trkpt lat="44.35728278473248" lon="8.20728622739199"><ele>436.0</ele><time>2026-04-03T09:55:51.999Z</time></trkpt><trkpt lat="44.3573742839466" lon="8.207301314671625"><ele>435.66666666666663</ele><time>2026-04-03T09:55:52.999Z</time></trkpt><trkpt lat="44.357475202645844" lon="8.207320116197739"><ele>435.3333333333333</ele><time>2026-04-03T09:55:53.999Z</time></trkpt><trkpt lat="44.357548718183224" lon="8.207368754094341"><ele>435.0</ele><time>2026-04-03T09:55:54.999Z</time></trkpt><trkpt lat="44.357627507022556" lon="8.207398071847496"><ele>435.3333333333333</ele><time>2026-04-03T09:55:55.999Z</time></trkpt><trkpt lat="44.35773477385892" lon="8.207443631006196"><ele>435.66666666666663</ele><time>2026-04-03T09:55:57.999Z</time></trkpt><trkpt lat="44.357808899284926" lon="8.20746906797523"><ele>436.0</ele><time>2026-04-03T09:55:58.999Z</time></trkpt><trkpt lat="44.357889587029184" lon="8.20751156226519"><ele>436.3333333333333</ele><time>2026-04-03T09:55:59.999Z</time></trkpt><trkpt lat="44.35797376366815" lon="8.207536657620242"><ele>436.66666666666663</ele><time>2026-04-03T09:56:00.999Z</time></trkpt><trkpt lat="44.358053372675045" lon="8.207588532946735"><ele>437.0</ele><time>2026-04-03T09:56:01.999Z</time></trkpt><trkpt lat="44.35813541010982" lon="8.207625380666888"><ele>437.0</ele><time>2026-04-03T09:56:02.999Z</time></trkpt><trkpt lat="44.35820291258389" lon="8.207664193579683"><ele>437.0</ele><time>2026-04-03T09:56:03.999Z</time></trkpt><trkpt lat="44.35827268533019" lon="8.207720202312025"><ele>437.0</ele><time>2026-04-03T09:56:04.999Z</time></trkpt><trkpt lat="44.35834542165833" lon="8.20775780370606"><ele>437.0</ele><time>2026-04-03T09:56:05.999Z</time></trkpt><trkpt lat="44.35840185194333" lon="8.207800124156801"><ele>437.0</ele><time>2026-04-03T09:56:06.999Z</time></trkpt><trkpt lat="44.358454851899964" lon="8.207852698963036"><ele>437.0</ele><time>2026-04-03T09:56:07.999Z</time></trkpt><trkpt lat="44.35852941262438" lon="8.207896302494914"><ele>437.0</ele><time>2026-04-03T09:56:08.999Z</time></trkpt><trkpt lat="44.35860222145069" lon="8.207940154227881"><ele>436.99999999999994</ele><time>2026-04-03T09:56:09.999Z</time></trkpt><trkpt lat="44.35866137340662" lon="8.207982972041444"><ele>437.0</ele><time>2026-04-03T09:56:10.999Z</time></trkpt><trkpt lat="44.35872617876096" lon="8.208027738885184"><ele>437.0</ele><time>2026-04-03T09:56:11.999Z</time></trkpt><trkpt lat="44.35878426348858" lon="8.208087395283385"><ele>437.0</ele><time>2026-04-03T09:56:12.999Z</time></trkpt><trkpt lat="44.35884950105874" lon="8.20816547672382"><ele>436.99999999999994</ele><time>2026-04-03T09:56:13.999Z</time></trkpt><trkpt lat="44.35890479965175" lon="8.208248195236138"><ele>437.0</ele><time>2026-04-03T09:56:14.999Z</time></trkpt><trkpt lat="44.35901450521114" lon="8.208374971958664"><ele>438.16666666666663</ele><time>2026-04-03T09:56:16.999Z</time></trkpt><trkpt lat="44.359071633582936" lon="8.208451777371954"><ele>439.3333333333333</ele><time>2026-04-03T09:56:17.999Z</time></trkpt><trkpt lat="44.359134082130716" lon="8.208543734233425"><ele>440.5</ele><time>2026-04-03T09:56:18.999Z</time></trkpt><trkpt lat="44.35919907576262" lon="8.208639528644573"><ele>441.66666666666663</ele><time>2026-04-03T09:56:19.999Z</time></trkpt><trkpt lat="44.35924801668237" lon="8.208712874563842"><ele>442.8333333333333</ele><time>2026-04-03T09:56:20.998Z</time></trkpt><trkpt lat="44.35931202547189" lon="8.208791370663135"><ele>444.0</ele><time>2026-04-03T09:56:21.998Z</time></trkpt><trkpt lat="44.35936888301685" lon="8.208866701194127"><ele>444.0</ele><time>2026-04-03T09:56:22.998Z</time></trkpt><trkpt lat="44.359434072145646" lon="8.208934603042465"><ele>444.0</ele><time>2026-04-03T09:56:23.998Z</time></trkpt><trkpt lat="44.359491028459644" lon="8.209007736878451"><ele>444.0</ele><time>2026-04-03T09:56:24.998Z</time></trkpt><trkpt lat="44.35954768309764" lon="8.209081484263905"><ele>444.0</ele><time>2026-04-03T09:56:25.998Z</time></trkpt><trkpt lat="44.3595973931864" lon="8.209156607255832"><ele>444.0</ele><time>2026-04-03T09:56:26.998Z</time></trkpt><trkpt lat="44.35970674633748" lon="8.209248363177341"><ele>444.0</ele><time>2026-04-03T09:56:28.998Z</time></trkpt><trkpt lat="44.35976257416989" lon="8.209302986419965"><ele>442.1666666666667</ele><time>2026-04-03T09:56:29.998Z</time></trkpt><trkpt lat="44.3598031703619" lon="8.20937197752867"><ele>440.33333333333337</ele><time>2026-04-03T09:56:30.998Z</time></trkpt><trkpt lat="44.35985376792101" lon="8.2094393596281"><ele>438.5</ele><time>2026-04-03T09:56:31.998Z</time></trkpt><trkpt lat="44.359932913923984" lon="8.209524560414984"><ele>436.6666666666667</ele><time>2026-04-03T09:56:32.998Z</time></trkpt><trkpt lat="44.360001765954586" lon="8.209597078224848"><ele>434.83333333333337</ele><time>2026-04-03T09:56:33.998Z</time></trkpt><trkpt lat="44.36006490644701" lon="8.209655520047093"><ele>433.0</ele><time>2026-04-03T09:56:34.998Z</time></trkpt><trkpt lat="44.3601235821782" lon="8.209718830218147"><ele>433.00000000000006</ele><time>2026-04-03T09:56:35.998Z</time></trkpt><trkpt lat="44.36019651794023" lon="8.209784868212186"><ele>433.0</ele><time>2026-04-03T09:56:36.998Z</time></trkpt><trkpt lat="44.360264426667" lon="8.209843827774579"><ele>433.0</ele><time>2026-04-03T09:56:37.998Z</time></trkpt><trkpt lat="44.360328539661246" lon="8.209905844396607"><ele>433.0</ele><time>2026-04-03T09:56:38.998Z</time></trkpt><trkpt lat="44.36042693622012" lon="8.21000345767388"><ele>433.00000000000006</ele><time>2026-04-03T09:56:40.998Z</time></trkpt><trkpt lat="44.360492925506726" lon="8.21006991531329"><ele>433.0</ele><time>2026-04-03T09:56:42.998Z</time></trkpt><trkpt lat="44.36056552433634" lon="8.21007391382751"><ele>434.0</ele><time>2026-04-03T09:56:49Z</time></trkpt><trkpt lat="44.36069247076678" lon="8.210089088271065"><ele>434.99999999999994</ele><time>2026-04-03T09:56:55Z</time></trkpt><trkpt lat="44.36077793560596" lon="8.210142108131976"><ele>435.99999999999994</ele><time>2026-04-03T09:56:57Z</time></trkpt><trkpt lat="44.36085535454726" lon="8.21014665128139"><ele>437.0</ele><time>2026-04-03T09:56:59Z</time></trkpt><trkpt lat="44.360845164523624" lon="8.21031402119387"><ele>438.0</ele><time>2026-04-03T09:57:00Z</time></trkpt><trkpt lat="44.360857461539226" lon="8.210400897313955"><ele>438.0</ele><time>2026-04-03T09:57:01Z</time></trkpt><trkpt lat="44.36086064821916" lon="8.210502913905724"><ele>438.0</ele><time>2026-04-03T09:57:02Z</time></trkpt><trkpt lat="44.360866547180656" lon="8.210596083686287"><ele>438.0</ele><time>2026-04-03T09:57:03Z</time></trkpt><trkpt lat="44.360870333261666" lon="8.210752608973765"><ele>438.0</ele><time>2026-04-03T09:57:05Z</time></trkpt><trkpt lat="44.36087606678802" lon="8.210917380970473"><ele>438.0</ele><time>2026-04-03T09:57:07Z</time></trkpt><trkpt lat="44.360859187021425" lon="8.211008143723657"><ele>438.0</ele><time>2026-04-03T09:57:08Z</time></trkpt><trkpt lat="44.36084505838233" lon="8.211100438628355"><ele>439.25</ele><time>2026-04-03T09:57:09Z</time></trkpt><trkpt lat="44.36081164326055" lon="8.211241848217677"><ele>440.5</ele><time>2026-04-03T09:57:11Z</time></trkpt><trkpt lat="44.36075487774413" lon="8.211326598081275"><ele>441.75</ele><time>2026-04-03T09:57:13Z</time></trkpt><trkpt lat="44.36069741320809" lon="8.211419571220079"><ele>443.0</ele><time>2026-04-03T09:57:15Z</time></trkpt><trkpt lat="44.360534503366004" lon="8.211313257695055"><ele>446.16666666666663</ele><time>2026-04-03T09:57:17Z</time></trkpt><trkpt lat="44.36045680270116" lon="8.211251947704795"><ele>449.3333333333333</ele><time>2026-04-03T09:57:18Z</time></trkpt><trkpt lat="44.36037168775464" lon="8.21118806311347"><ele>452.5</ele><time>2026-04-03T09:57:19Z</time></trkpt><trkpt lat="44.36030254920255" lon="8.211131652909936"><ele>455.66666666666663</ele><time>2026-04-03T09:57:20Z</time></trkpt><trkpt lat="44.36023842099652" lon="8.211065756170083"><ele>458.8333333333333</ele><time>2026-04-03T09:57:21Z</time></trkpt><trkpt lat="44.360173491022195" lon="8.210985638845406"><ele>462.0</ele><time>2026-04-03T09:57:22.016Z</time></trkpt><trkpt lat="44.36013331527069" lon="8.210916772916207"><ele>462.0</ele><time>2026-04-03T09:57:23.018Z</time></trkpt><trkpt lat="44.36009384625202" lon="8.210807726059153"><ele>462.0</ele><time>2026-04-03T09:57:25.017Z</time></trkpt><trkpt lat="44.35980406593937" lon="8.209841810174481"><ele>461.1666666666667</ele><time>2026-04-03T09:57:30.999Z</time></trkpt><trkpt lat="44.3597501103259" lon="8.209746650889402"><ele>460.33333333333337</ele><time>2026-04-03T09:57:31.999Z</time></trkpt><trkpt lat="44.359711867129036" lon="8.209650971415607"><ele>459.5</ele><time>2026-04-03T09:57:32.999Z</time></trkpt><trkpt lat="44.35966288106939" lon="8.209574817563675"><ele>458.6666666666667</ele><time>2026-04-03T09:57:33.999Z</time></trkpt><trkpt lat="44.359602132543" lon="8.209474526917584"><ele>457.83333333333337</ele><time>2026-04-03T09:57:34.999Z</time></trkpt><trkpt lat="44.35956652790052" lon="8.20935760392032"><ele>457.0</ele><time>2026-04-03T09:57:35.999Z</time></trkpt><trkpt lat="44.3595298298148" lon="8.209234352534443"><ele>457.0</ele><time>2026-04-03T09:57:36.999Z</time></trkpt><trkpt lat="44.35950389632145" lon="8.209104435848971"><ele>457.0</ele><time>2026-04-03T09:57:37.999Z</time></trkpt><trkpt lat="44.35946830587624" lon="8.20894983459476"><ele>457.0</ele><time>2026-04-03T09:57:38.999Z</time></trkpt><trkpt lat="44.359450024932876" lon="8.208790695666734"><ele>457.0</ele><time>2026-04-03T09:57:39.999Z</time></trkpt><trkpt lat="44.35946429614152" lon="8.208600806647958"><ele>453.75</ele><time>2026-04-03T09:57:40.999Z</time></trkpt><trkpt lat="44.359478736003815" lon="8.208411151097359"><ele>450.5</ele><time>2026-04-03T09:57:41.999Z</time></trkpt><trkpt lat="44.35950848455738" lon="8.208222881484637"><ele>447.25</ele><time>2026-04-03T09:57:42.999Z</time></trkpt><trkpt lat="44.359557673595326" lon="8.208020109564375"><ele>444.0</ele><time>2026-04-03T09:57:43.999Z</time></trkpt><trkpt lat="44.359618772162506" lon="8.207823633737027"><ele>442.0</ele><time>2026-04-03T09:57:44.999Z</time></trkpt><trkpt lat="44.35968053121852" lon="8.207621230090796"><ele>440.0</ele><time>2026-04-03T09:57:45.999Z</time></trkpt><trkpt lat="44.359745713271785" lon="8.207409850702332"><ele>438.0</ele><time>2026-04-03T09:57:46.999Z</time></trkpt><trkpt lat="44.35981429195313" lon="8.207227976573968"><ele>442.0</ele><time>2026-04-03T09:57:47.999Z</time></trkpt><trkpt lat="44.359885497073556" lon="8.207065337113265"><ele>446.0</ele><time>2026-04-03T09:57:48.999Z</time></trkpt><trkpt lat="44.35995892681628" lon="8.206915857786557"><ele>450.0</ele><time>2026-04-03T09:57:49.999Z</time></trkpt><trkpt lat="44.3600296033294" lon="8.206787481250746"><ele>454.0</ele><time>2026-04-03T09:57:50.999Z</time></trkpt><trkpt lat="44.360095675653035" lon="8.206649247008388"><ele>454.0</ele><time>2026-04-03T09:57:51.999Z</time></trkpt><trkpt lat="44.36015812738774" lon="8.20654690686252"><ele>454.0</ele><time>2026-04-03T09:57:52.999Z</time></trkpt><trkpt lat="44.36023460710984" lon="8.206467629554323"><ele>454.0</ele><time>2026-04-03T09:57:53.999Z</time></trkpt><trkpt lat="44.36030773053496" lon="8.206371440841988"><ele>454.0</ele><time>2026-04-03T09:57:54.999Z</time></trkpt><trkpt lat="44.36039493622173" lon="8.206260671195185"><ele>454.0</ele><time>2026-04-03T09:57:56.012Z</time></trkpt><trkpt lat="44.36048717059504" lon="8.206153135285152"><ele>454.0</ele><time>2026-04-03T09:57:57.015Z</time></trkpt><trkpt lat="44.36058103215793" lon="8.206046315332056"><ele>454.0</ele><time>2026-04-03T09:57:58.017Z</time></trkpt><trkpt lat="44.360681801777154" lon="8.205934678098483"><ele>454.0</ele><time>2026-04-03T09:57:59.013Z</time></trkpt><trkpt lat="44.36279130806927" lon="8.2036929911903"><ele>445.0</ele><time>2026-04-03T09:58:03.31Z</time></trkpt><trkpt lat="44.36370834411235" lon="8.202496421296166"><ele>439.5</ele><time>2026-04-03T09:58:05.31Z</time></trkpt><trkpt lat="44.363972867246275" lon="8.201989429290677"><ele>434.0</ele><time>2026-04-03T09:58:06.31Z</time></trkpt><trkpt lat="44.36310431431045" lon="8.203198001751685"><ele>436.75</ele><time>2026-04-03T09:58:25.998Z</time></trkpt><trkpt lat="44.36325152838718" lon="8.20311679487066"><ele>439.5</ele><time>2026-04-03T09:58:26.998Z</time></trkpt><trkpt lat="44.36336355785991" lon="8.2030590318867"><ele>442.25</ele><time>2026-04-03T09:58:27.998Z</time></trkpt><trkpt lat="44.363449228513424" lon="8.202939795070739"><ele>445.0</ele><time>2026-04-03T09:58:28.998Z</time></trkpt><trkpt lat="44.363527402011606" lon="8.202823462515095"><ele>445.0</ele><time>2026-04-03T09:58:29.998Z</time></trkpt><trkpt lat="44.363594171961694" lon="8.202719585406768"><ele>445.0</ele><time>2026-04-03T09:58:30.998Z</time></trkpt><trkpt lat="44.36366222900396" lon="8.202609791563079"><ele>445.0</ele><time>2026-04-03T09:58:32.012Z</time></trkpt><trkpt lat="44.36372523250144" lon="8.20250442101227"><ele>445.0</ele><time>2026-04-03T09:58:33.015Z</time></trkpt><trkpt lat="44.3637825043236" lon="8.20240306605578"><ele>445.0</ele><time>2026-04-03T09:58:34.016Z</time></trkpt><trkpt lat="44.36383658345271" lon="8.202304082704826"><ele>440.0</ele><time>2026-04-03T09:58:35.011Z</time></trkpt><trkpt lat="44.363882128439904" lon="8.202216944170758"><ele>435.0</ele><time>2026-04-03T09:58:36.013Z</time></trkpt><trkpt lat="44.36425242577155" lon="8.201477676637658"><ele>435.0</ele><time>2026-04-03T09:58:42.998Z</time></trkpt><trkpt lat="44.364299104395855" lon="8.201369115399977"><ele>435.0</ele><time>2026-04-03T09:58:43.998Z</time></trkpt><trkpt lat="44.36436070174098" lon="8.201274003340005"><ele>435.0</ele><time>2026-04-03T09:58:44.998Z</time></trkpt><trkpt lat="44.364394589928274" lon="8.20114511307796"><ele>435.0</ele><time>2026-04-03T09:58:45.998Z</time></trkpt><trkpt lat="44.364410052204185" lon="8.201022529815685"><ele>435.0</ele><time>2026-04-03T09:58:46.998Z</time></trkpt><trkpt lat="44.364452043849255" lon="8.200880904346324"><ele>435.0</ele><time>2026-04-03T09:58:47.998Z</time></trkpt><trkpt lat="44.36445515485587" lon="8.200742206803815"><ele>435.0</ele><time>2026-04-03T09:58:48.998Z</time></trkpt><trkpt lat="44.364500775473395" lon="8.20062994965559"><ele>435.0</ele><time>2026-04-03T09:58:49.998Z</time></trkpt><trkpt lat="44.364537618529404" lon="8.200505689047013"><ele>435.0</ele><time>2026-04-03T09:58:50.998Z</time></trkpt><trkpt lat="44.364567056582565" lon="8.200392519593185"><ele>435.0</ele><time>2026-04-03T09:58:51.998Z</time></trkpt><trkpt lat="44.364612381576755" lon="8.200276060238659"><ele>435.0</ele><time>2026-04-03T09:58:52.998Z</time></trkpt><trkpt lat="44.36465489638299" lon="8.20015792574568"><ele>435.0</ele><time>2026-04-03T09:58:54Z</time></trkpt><trkpt lat="44.364688614552534" lon="8.200037239621235"><ele>435.0</ele><time>2026-04-03T09:58:55Z</time></trkpt><trkpt lat="44.36472871716182" lon="8.199920112815619"><ele>435.0</ele><time>2026-04-03T09:58:56Z</time></trkpt><trkpt lat="44.364765778887666" lon="8.19980775501814"><ele>435.0</ele><time>2026-04-03T09:58:57Z</time></trkpt><trkpt lat="44.36480382717426" lon="8.199693460870838"><ele>435.0</ele><time>2026-04-03T09:58:58Z</time></trkpt><trkpt lat="44.36484722247614" lon="8.199572324280817"><ele>435.0</ele><time>2026-04-03T09:58:59Z</time></trkpt><trkpt lat="44.36489183406437" lon="8.199456441076327"><ele>435.0</ele><time>2026-04-03T09:59:00Z</time></trkpt><trkpt lat="44.364944430504025" lon="8.19933754237195"><ele>435.0</ele><time>2026-04-03T09:59:01Z</time></trkpt><trkpt lat="44.365007760445316" lon="8.199223119636493"><ele>435.0</ele><time>2026-04-03T09:59:02Z</time></trkpt><trkpt lat="44.36506553476515" lon="8.199102743643989"><ele>436.4</ele><time>2026-04-03T09:59:03Z</time></trkpt><trkpt lat="44.36513562141923" lon="8.198982814654643"><ele>437.8</ele><time>2026-04-03T09:59:04Z</time></trkpt><trkpt lat="44.36520322592373" lon="8.198882242842044"><ele>439.20000000000005</ele><time>2026-04-03T09:59:05Z</time></trkpt><trkpt lat="44.3652794287359" lon="8.198780634087036"><ele>440.6</ele><time>2026-04-03T09:59:06Z</time></trkpt><trkpt lat="44.365352619099816" lon="8.198688546095417"><ele>442.0</ele><time>2026-04-03T09:59:07Z</time></trkpt><trkpt lat="44.36542014316718" lon="8.198596352804284"><ele>442.0</ele><time>2026-04-03T09:59:08Z</time></trkpt><trkpt lat="44.36548416885987" lon="8.19850345398"><ele>442.00000000000006</ele><time>2026-04-03T09:59:09Z</time></trkpt><trkpt lat="44.3655521944248" lon="8.198406904863747"><ele>442.00000000000006</ele><time>2026-04-03T09:59:10Z</time></trkpt><trkpt lat="44.36560765279958" lon="8.198292500741676"><ele>442.0</ele><time>2026-04-03T09:59:11Z</time></trkpt><trkpt lat="44.36565136022815" lon="8.198137412815617"><ele>442.0</ele><time>2026-04-03T09:59:12Z</time></trkpt><trkpt lat="44.36567664805056" lon="8.197981153066427"><ele>441.0</ele><time>2026-04-03T09:59:13Z</time></trkpt><trkpt lat="44.36569765074968" lon="8.197817678254475"><ele>440.00000000000006</ele><time>2026-04-03T09:59:14Z</time></trkpt><trkpt lat="44.36571280619745" lon="8.197669288761897"><ele>439.00000000000006</ele><time>2026-04-03T09:59:15Z</time></trkpt><trkpt lat="44.36572683065322" lon="8.19753750963586"><ele>438.0</ele><time>2026-04-03T09:59:16Z</time></trkpt><trkpt lat="44.36574521193025" lon="8.197400669383091"><ele>437.0</ele><time>2026-04-03T09:59:17Z</time></trkpt><trkpt lat="44.36575525669921" lon="8.19726860500068"><ele>436.8</ele><time>2026-04-03T09:59:18Z</time></trkpt><trkpt lat="44.36576916368271" lon="8.197122660039941"><ele>436.6</ele><time>2026-04-03T09:59:19Z</time></trkpt><trkpt lat="44.365780630547185" lon="8.196992616552798"><ele>436.40000000000003</ele><time>2026-04-03T09:59:20Z</time></trkpt><trkpt lat="44.36578830034654" lon="8.196861711482148"><ele>436.20000000000005</ele><time>2026-04-03T09:59:21Z</time></trkpt><trkpt lat="44.36577613139338" lon="8.196720770885719"><ele>436.0</ele><time>2026-04-03T09:59:22Z</time></trkpt><trkpt lat="44.36575713438487" lon="8.196571792357915"><ele>434.75</ele><time>2026-04-03T09:59:23Z</time></trkpt><trkpt lat="44.36571806519213" lon="8.19640658431607"><ele>433.5</ele><time>2026-04-03T09:59:24Z</time></trkpt><trkpt lat="44.365682058929075" lon="8.196256900168878"><ele>432.25</ele><time>2026-04-03T09:59:25Z</time></trkpt><trkpt lat="44.36567799277874" lon="8.19609793277151"><ele>431.0</ele><time>2026-04-03T09:59:26Z</time></trkpt><trkpt lat="44.36564124953993" lon="8.195957407509"><ele>431.0</ele><time>2026-04-03T09:59:27Z</time></trkpt><trkpt lat="44.36559568736999" lon="8.195814171773685"><ele>431.0</ele><time>2026-04-03T09:59:28Z</time></trkpt><trkpt lat="44.365549422243646" lon="8.195670970286118"><ele>431.0</ele><time>2026-04-03T09:59:29Z</time></trkpt><trkpt lat="44.36550157912609" lon="8.195529710767886"><ele>431.0</ele><time>2026-04-03T09:59:30Z</time></trkpt><trkpt lat="44.36545340762439" lon="8.19541628549646"><ele>431.0</ele><time>2026-04-03T09:59:31Z</time></trkpt><trkpt lat="44.36538934825677" lon="8.195282254634115"><ele>432.4</ele><time>2026-04-03T09:59:32Z</time></trkpt><trkpt lat="44.36532109048886" lon="8.195157930629076"><ele>433.8</ele><time>2026-04-03T09:59:33Z</time></trkpt><trkpt lat="44.365251416749075" lon="8.195027620083994"><ele>435.19999999999993</ele><time>2026-04-03T09:59:34Z</time></trkpt><trkpt lat="44.36519006341669" lon="8.19492047754229"><ele>436.59999999999997</ele><time>2026-04-03T09:59:35Z</time></trkpt><trkpt lat="44.36512688305227" lon="8.194809456394653"><ele>438.0</ele><time>2026-04-03T09:59:35.999Z</time></trkpt><trkpt lat="44.36506117768404" lon="8.19469400398266"><ele>438.0</ele><time>2026-04-03T09:59:36.999Z</time></trkpt><trkpt lat="44.36499315079005" lon="8.194577901540853"><ele>437.99999999999994</ele><time>2026-04-03T09:59:37.999Z</time></trkpt><trkpt lat="44.36492298127577" lon="8.1944567442598"><ele>437.99999999999994</ele><time>2026-04-03T09:59:38.999Z</time></trkpt><trkpt lat="44.36485788467169" lon="8.194347045856908"><ele>438.0</ele><time>2026-04-03T09:59:39.999Z</time></trkpt><trkpt lat="44.36479254497024" lon="8.194232332120233"><ele>438.0</ele><time>2026-04-03T09:59:40.999Z</time></trkpt><trkpt lat="44.3647128269623" lon="8.194113220315527"><ele>438.2</ele><time>2026-04-03T09:59:41.999Z</time></trkpt><trkpt lat="44.36464316537016" lon="8.194017784741654"><ele>438.4</ele><time>2026-04-03T09:59:42.999Z</time></trkpt><trkpt lat="44.364568052733254" lon="8.193921688668263"><ele>438.59999999999997</ele><time>2026-04-03T09:59:43.999Z</time></trkpt><trkpt lat="44.364497943301" lon="8.193818715721985"><ele>438.79999999999995</ele><time>2026-04-03T09:59:44.999Z</time></trkpt><trkpt lat="44.364435256163716" lon="8.193701381269433"><ele>439.0</ele><time>2026-04-03T09:59:45.999Z</time></trkpt><trkpt lat="44.364374254622525" lon="8.193581760210558"><ele>439.0</ele><time>2026-04-03T09:59:46.999Z</time></trkpt><trkpt lat="44.36429512395521" lon="8.19346471301311"><ele>439.0</ele><time>2026-04-03T09:59:47.999Z</time></trkpt><trkpt lat="44.36420147036598" lon="8.193378100722937"><ele>439.0</ele><time>2026-04-03T09:59:48.999Z</time></trkpt><trkpt lat="44.364112378322055" lon="8.19330959523768"><ele>439.0</ele><time>2026-04-03T09:59:49.999Z</time></trkpt><trkpt lat="44.364016183359674" lon="8.193251903372364"><ele>439.0</ele><time>2026-04-03T09:59:50.999Z</time></trkpt><trkpt lat="44.36392334657485" lon="8.193201706435158"><ele>439.4</ele><time>2026-04-03T09:59:51.999Z</time></trkpt><trkpt lat="44.36383149441978" lon="8.193183596370428"><ele>439.79999999999995</ele><time>2026-04-03T09:59:52.999Z</time></trkpt><trkpt lat="44.363727744747585" lon="8.19316019930223"><ele>440.20000000000005</ele><time>2026-04-03T09:59:53.999Z</time></trkpt><trkpt lat="44.36363456294827" lon="8.193137588373727"><ele>440.6</ele><time>2026-04-03T09:59:54.999Z</time></trkpt><trkpt lat="44.36354522007255" lon="8.193122161473097"><ele>441.0</ele><time>2026-04-03T09:59:55.999Z</time></trkpt><trkpt lat="44.363449273061484" lon="8.193091839068938"><ele>441.0</ele><time>2026-04-03T09:59:56.999Z</time></trkpt><trkpt lat="44.363359872768186" lon="8.193074303305604"><ele>441.0</ele><time>2026-04-03T09:59:57.999Z</time></trkpt><trkpt lat="44.36326652717934" lon="8.193056935463003"><ele>441.0</ele><time>2026-04-03T09:59:58.999Z</time></trkpt><trkpt lat="44.36317317757061" lon="8.193039890261339"><ele>441.0</ele><time>2026-04-03T09:59:59.999Z</time></trkpt><trkpt lat="44.36307361402538" lon="8.193035890736692"><ele>441.0</ele><time>2026-04-03T10:00:00.999Z</time></trkpt><trkpt lat="44.36296841130474" lon="8.19302094743484"><ele>440.0</ele><time>2026-04-03T10:00:01.999Z</time></trkpt><trkpt lat="44.36286456055068" lon="8.19303575781268"><ele>439.0</ele><time>2026-04-03T10:00:02.999Z</time></trkpt><trkpt lat="44.36276678448423" lon="8.19304809954777"><ele>438.0</ele><time>2026-04-03T10:00:03.999Z</time></trkpt><trkpt lat="44.36266269404076" lon="8.193056388618471"><ele>437.0</ele><time>2026-04-03T10:00:04.999Z</time></trkpt><trkpt lat="44.36257512967286" lon="8.193070273369727"><ele>436.0</ele><time>2026-04-03T10:00:05.999Z</time></trkpt><trkpt lat="44.362493125533184" lon="8.19308051336718"><ele>436.00000000000006</ele><time>2026-04-03T10:00:06.999Z</time></trkpt><trkpt lat="44.36241674165455" lon="8.193089868310931"><ele>436.0</ele><time>2026-04-03T10:00:07.999Z</time></trkpt><trkpt lat="44.36233216599701" lon="8.193096636395008"><ele>436.0</ele><time>2026-04-03T10:00:08.999Z</time></trkpt><trkpt lat="44.36223981948253" lon="8.193097614011483"><ele>436.0</ele><time>2026-04-03T10:00:09.999Z</time></trkpt><trkpt lat="44.36214801916326" lon="8.193101587848355"><ele>436.00000000000006</ele><time>2026-04-03T10:00:10.999Z</time></trkpt><trkpt lat="44.36206563162523" lon="8.193103059687713"><ele>436.0</ele><time>2026-04-03T10:00:11.999Z</time></trkpt><trkpt lat="44.36198846395804" lon="8.193093176231962"><ele>436.6666666666667</ele><time>2026-04-03T10:00:12.999Z</time></trkpt><trkpt lat="44.36190834315288" lon="8.193065875355202"><ele>437.33333333333337</ele><time>2026-04-03T10:00:13.999Z</time></trkpt><trkpt lat="44.36182891611439" lon="8.193018286209847"><ele>438.0</ele><time>2026-04-03T10:00:14.999Z</time></trkpt><trkpt lat="44.36174760943747" lon="8.192950831703682"><ele>438.66666666666663</ele><time>2026-04-03T10:00:15.999Z</time></trkpt><trkpt lat="44.36168256980718" lon="8.192859450136464"><ele>439.3333333333333</ele><time>2026-04-03T10:00:16.999Z</time></trkpt><trkpt lat="44.36163330744365" lon="8.192758132893568"><ele>440.0</ele><time>2026-04-03T10:00:17.999Z</time></trkpt><trkpt lat="44.361605875849634" lon="8.192625845818172"><ele>440.0</ele><time>2026-04-03T10:00:18.999Z</time></trkpt><trkpt lat="44.36158994362254" lon="8.192492179329175"><ele>440.0</ele><time>2026-04-03T10:00:19.999Z</time></trkpt><trkpt lat="44.36159462913002" lon="8.192346585862728"><ele>440.0</ele><time>2026-04-03T10:00:20.999Z</time></trkpt><trkpt lat="44.361614744046506" lon="8.19220139573767"><ele>440.0</ele><time>2026-04-03T10:00:21.999Z</time></trkpt><trkpt lat="44.36164691218597" lon="8.192083470191726"><ele>440.0</ele><time>2026-04-03T10:00:22.999Z</time></trkpt><trkpt lat="44.36168187759622" lon="8.191961428227323"><ele>441.0</ele><time>2026-04-03T10:00:23.999Z</time></trkpt><trkpt lat="44.36171418383582" lon="8.191831040807223"><ele>442.0</ele><time>2026-04-03T10:00:24.999Z</time></trkpt><trkpt lat="44.36174157467066" lon="8.191699640506659"><ele>443.0</ele><time>2026-04-03T10:00:25.999Z</time></trkpt><trkpt lat="44.36176857061112" lon="8.191586472873254"><ele>444.0</ele><time>2026-04-03T10:00:26.999Z</time></trkpt><trkpt lat="44.36179469677714" lon="8.191467891715297"><ele>445.0</ele><time>2026-04-03T10:00:27.999Z</time></trkpt><trkpt lat="44.36180829063886" lon="8.191355381075553"><ele>446.50000000000006</ele><time>2026-04-03T10:00:28.999Z</time></trkpt><trkpt lat="44.36181795983386" lon="8.191251933234021"><ele>448.0</ele><time>2026-04-03T10:00:29.999Z</time></trkpt><trkpt lat="44.361803926771096" lon="8.191138471860024"><ele>449.5</ele><time>2026-04-03T10:00:30.999Z</time></trkpt><trkpt lat="44.361769521078166" lon="8.191026251993016"><ele>451.0</ele><time>2026-04-03T10:00:31.999Z</time></trkpt><trkpt lat="44.36172189266184" lon="8.190917927881815"><ele>452.50000000000006</ele><time>2026-04-03T10:00:32.998Z</time></trkpt><trkpt lat="44.36165638364781" lon="8.190836391726993"><ele>454.0</ele><time>2026-04-03T10:00:33.998Z</time></trkpt><trkpt lat="44.36157984708634" lon="8.190757693250704"><ele>454.00000000000006</ele><time>2026-04-03T10:00:34.998Z</time></trkpt><trkpt lat="44.36152317390359" lon="8.190683516735035"><ele>454.0</ele><time>2026-04-03T10:00:35.998Z</time></trkpt><trkpt lat="44.361464857814326" lon="8.190617981898942"><ele>454.0</ele><time>2026-04-03T10:00:36.998Z</time></trkpt><trkpt lat="44.361411383669164" lon="8.190565729086796"><ele>454.0</ele><time>2026-04-03T10:00:37.998Z</time></trkpt><trkpt lat="44.3613398190247" lon="8.190536881679796"><ele>454.00000000000006</ele><time>2026-04-03T10:00:38.998Z</time></trkpt><trkpt lat="44.361250901641306" lon="8.190568999560009"><ele>454.0</ele><time>2026-04-03T10:00:39.998Z</time></trkpt><trkpt lat="44.36117371752276" lon="8.190657575259442"><ele>453.50000000000006</ele><time>2026-04-03T10:00:40.998Z</time></trkpt><trkpt lat="44.36110675972062" lon="8.190730949744282"><ele>453.0</ele><time>2026-04-03T10:00:41.998Z</time></trkpt><trkpt lat="44.361041741892265" lon="8.19076863646235"><ele>452.5</ele><time>2026-04-03T10:00:42.998Z</time></trkpt><trkpt lat="44.36096683624126" lon="8.190769141977546"><ele>452.0</ele><time>2026-04-03T10:00:43.998Z</time></trkpt><trkpt lat="44.36089508065149" lon="8.190696904553313"><ele>451.50000000000006</ele><time>2026-04-03T10:00:44.998Z</time></trkpt><trkpt lat="44.360820557609955" lon="8.1906212991923"><ele>451.0</ele><time>2026-04-03T10:00:45.998Z</time></trkpt><trkpt lat="44.36075456613772" lon="8.190530820682985"><ele>452.50000000000006</ele><time>2026-04-03T10:00:46.998Z</time></trkpt><trkpt lat="44.36071566130784" lon="8.190426850735964"><ele>454.0</ele><time>2026-04-03T10:00:47.998Z</time></trkpt><trkpt lat="44.36072725459472" lon="8.190314123108775"><ele>455.5</ele><time>2026-04-03T10:00:48.998Z</time></trkpt><trkpt lat="44.36073050322319" lon="8.190185266578375"><ele>457.0</ele><time>2026-04-03T10:00:49.998Z</time></trkpt><trkpt lat="44.36074495756984" lon="8.190043426244946"><ele>458.50000000000006</ele><time>2026-04-03T10:00:50.998Z</time></trkpt><trkpt lat="44.36075737216041" lon="8.18993348750995"><ele>460.0</ele><time>2026-04-03T10:00:51.998Z</time></trkpt><trkpt lat="44.36075586160948" lon="8.189812191334774"><ele>461.6</ele><time>2026-04-03T10:00:52.998Z</time></trkpt><trkpt lat="44.360729382259855" lon="8.189687506714371"><ele>463.2</ele><time>2026-04-03T10:00:53.998Z</time></trkpt><trkpt lat="44.360685875856845" lon="8.189549933590744"><ele>464.79999999999995</ele><time>2026-04-03T10:00:54.998Z</time></trkpt><trkpt lat="44.36064693611187" lon="8.189402809281878"><ele>466.4</ele><time>2026-04-03T10:00:55.998Z</time></trkpt><trkpt lat="44.36063103480063" lon="8.189268190234248"><ele>468.0</ele><time>2026-04-03T10:00:56.998Z</time></trkpt><trkpt lat="44.36062211409452" lon="8.18914175722244"><ele>468.0</ele><time>2026-04-03T10:00:57.998Z</time></trkpt><trkpt lat="44.36062091879624" lon="8.189011789710838"><ele>467.99999999999994</ele><time>2026-04-03T10:00:58.998Z</time></trkpt><trkpt lat="44.360624879031285" lon="8.1888823251713"><ele>467.99999999999994</ele><time>2026-04-03T10:01:00Z</time></trkpt><trkpt lat="44.36061234333175" lon="8.188741185926466"><ele>468.0</ele><time>2026-04-03T10:01:01Z</time></trkpt><trkpt lat="44.36060008894111" lon="8.188586714451016"><ele>468.0</ele><time>2026-04-03T10:01:02Z</time></trkpt><trkpt lat="44.360560383134064" lon="8.188439728254403"><ele>469.0</ele><time>2026-04-03T10:01:03Z</time></trkpt><trkpt lat="44.360557360597014" lon="8.188313462697417"><ele>470.0</ele><time>2026-04-03T10:01:04Z</time></trkpt><trkpt lat="44.36064770719462" lon="8.188033359758299"><ele>471.0</ele><time>2026-04-03T10:01:06Z</time></trkpt><trkpt lat="44.36073022532892" lon="8.187925522570511"><ele>472.0</ele><time>2026-04-03T10:01:07Z</time></trkpt><trkpt lat="44.36081028609681" lon="8.187841092607133"><ele>472.0</ele><time>2026-04-03T10:01:08Z</time></trkpt><trkpt lat="44.36085448123611" lon="8.187768877462949"><ele>472.00000000000006</ele><time>2026-04-03T10:01:09Z</time></trkpt><trkpt lat="44.36090290100694" lon="8.187674660602736"><ele>472.00000000000006</ele><time>2026-04-03T10:01:10Z</time></trkpt><trkpt lat="44.360940944227714" lon="8.187538823366918"><ele>472.0</ele><time>2026-04-03T10:01:11Z</time></trkpt><trkpt lat="44.36098892002495" lon="8.187382582465284"><ele>472.0</ele><time>2026-04-03T10:01:12Z</time></trkpt><trkpt lat="44.361006527589154" lon="8.187246046419169"><ele>472.50000000000006</ele><time>2026-04-03T10:01:13Z</time></trkpt><trkpt lat="44.36102178308231" lon="8.187119582350721"><ele>473.0</ele><time>2026-04-03T10:01:14Z</time></trkpt><trkpt lat="44.361030723005825" lon="8.18700236686791"><ele>473.5</ele><time>2026-04-03T10:01:15Z</time></trkpt><trkpt lat="44.361040692400074" lon="8.18691007368611"><ele>474.0</ele><time>2026-04-03T10:01:16Z</time></trkpt><trkpt lat="44.36105505939278" lon="8.186800460379056"><ele>474.50000000000006</ele><time>2026-04-03T10:01:17Z</time></trkpt><trkpt lat="44.36105984448817" lon="8.186650671675483"><ele>475.0</ele><time>2026-04-03T10:01:18Z</time></trkpt><trkpt lat="44.361051488094105" lon="8.18651100899168"><ele>477.2</ele><time>2026-04-03T10:01:19Z</time></trkpt><trkpt lat="44.361025328593875" lon="8.186367520389263"><ele>479.4</ele><time>2026-04-03T10:01:20Z</time></trkpt><trkpt lat="44.360998963329465" lon="8.186242475634423"><ele>481.6</ele><time>2026-04-03T10:01:21Z</time></trkpt><trkpt lat="44.36092877710887" lon="8.18609748303957"><ele>483.8</ele><time>2026-04-03T10:01:22Z</time></trkpt><trkpt lat="44.36086890589644" lon="8.185979380315294"><ele>486.0</ele><time>2026-04-03T10:01:23Z</time></trkpt><trkpt lat="44.360794808886006" lon="8.185881067094016"><ele>486.0</ele><time>2026-04-03T10:01:24Z</time></trkpt><trkpt lat="44.36072163548691" lon="8.185794468956008"><ele>486.0</ele><time>2026-04-03T10:01:25Z</time></trkpt><trkpt lat="44.36067100124177" lon="8.185714031950388"><ele>486.0</ele><time>2026-04-03T10:01:26Z</time></trkpt><trkpt lat="44.36064095240588" lon="8.185631728287886"><ele>486.0</ele><time>2026-04-03T10:01:27Z</time></trkpt><trkpt lat="44.360622436883595" lon="8.185545351950008"><ele>486.0</ele><time>2026-04-03T10:01:30Z</time></trkpt><trkpt lat="44.36058729251578" lon="8.185458384075215"><ele>486.0</ele><time>2026-04-03T10:02:19.999Z</time></trkpt><trkpt lat="44.36053943206016" lon="8.185318700818984"><ele>485.20000000000005</ele><time>2026-04-03T10:02:21.999Z</time></trkpt><trkpt lat="44.360504395246856" lon="8.185225541299314"><ele>484.40000000000003</ele><time>2026-04-03T10:02:22.999Z</time></trkpt><trkpt lat="44.360463738720114" lon="8.185104917791548"><ele>483.6</ele><time>2026-04-03T10:02:23.999Z</time></trkpt><trkpt lat="44.360428787881254" lon="8.184995525043833"><ele>482.8</ele><time>2026-04-03T10:02:24.999Z</time></trkpt><trkpt lat="44.360387652438526" lon="8.184875134963514"><ele>482.0</ele><time>2026-04-03T10:02:25.999Z</time></trkpt><trkpt lat="44.36035086747485" lon="8.184743794034462"><ele>482.0</ele><time>2026-04-03T10:02:26.999Z</time></trkpt><trkpt lat="44.3603172660975" lon="8.184637444497447"><ele>482.00000000000006</ele><time>2026-04-03T10:02:27.999Z</time></trkpt><trkpt lat="44.36030051885214" lon="8.184519023644093"><ele>482.00000000000006</ele><time>2026-04-03T10:02:28.999Z</time></trkpt><trkpt lat="44.360312141962766" lon="8.184387642617546"><ele>482.0</ele><time>2026-04-03T10:02:29.999Z</time></trkpt><trkpt lat="44.36034894224199" lon="8.184241784390037"><ele>482.0</ele><time>2026-04-03T10:02:30.999Z</time></trkpt><trkpt lat="44.36040116035714" lon="8.18412105773635"><ele>481.0</ele><time>2026-04-03T10:02:31.999Z</time></trkpt><trkpt lat="44.360447228130184" lon="8.183973885270577"><ele>480.00000000000006</ele><time>2026-04-03T10:02:32.999Z</time></trkpt><trkpt lat="44.360490191255174" lon="8.183819587369074"><ele>479.00000000000006</ele><time>2026-04-03T10:02:33.999Z</time></trkpt><trkpt lat="44.36052988183989" lon="8.183670103424266"><ele>478.0</ele><time>2026-04-03T10:02:34.999Z</time></trkpt><trkpt lat="44.36057192613469" lon="8.183555117729137"><ele>477.0</ele><time>2026-04-03T10:02:35.999Z</time></trkpt><trkpt lat="44.360603765246395" lon="8.183432113066385"><ele>483.20000000000005</ele><time>2026-04-03T10:02:36.999Z</time></trkpt><trkpt lat="44.36063615662299" lon="8.183303421508734"><ele>489.40000000000003</ele><time>2026-04-03T10:02:37.999Z</time></trkpt><trkpt lat="44.3606684757375" lon="8.183167067654797"><ele>495.59999999999997</ele><time>2026-04-03T10:02:38.999Z</time></trkpt><trkpt lat="44.36069371223515" lon="8.183022127805222"><ele>501.79999999999995</ele><time>2026-04-03T10:02:39.999Z</time></trkpt><trkpt lat="44.36071599532269" lon="8.182889540111882"><ele>508.0</ele><time>2026-04-03T10:02:40.999Z</time></trkpt><trkpt lat="44.360732096626535" lon="8.18276476344341"><ele>508.59999999999997</ele><time>2026-04-03T10:02:41.999Z</time></trkpt><trkpt lat="44.36074675259842" lon="8.182645302519216"><ele>509.19999999999993</ele><time>2026-04-03T10:02:42.999Z</time></trkpt><trkpt lat="44.36075805394586" lon="8.18251343248894"><ele>509.8</ele><time>2026-04-03T10:02:43.998Z</time></trkpt><trkpt lat="44.360773963153584" lon="8.182382147251984"><ele>510.4</ele><time>2026-04-03T10:02:44.998Z</time></trkpt><trkpt lat="44.360786079065406" lon="8.182245409256451"><ele>511.0</ele><time>2026-04-03T10:02:45.998Z</time></trkpt><trkpt lat="44.36078662779902" lon="8.182103506162903"><ele>511.6</ele><time>2026-04-03T10:02:46.998Z</time></trkpt><trkpt lat="44.36079723756983" lon="8.181952128404387"><ele>512.2</ele><time>2026-04-03T10:02:47.998Z</time></trkpt><trkpt lat="44.36080413588836" lon="8.181805623681958"><ele>512.8</ele><time>2026-04-03T10:02:48.998Z</time></trkpt><trkpt lat="44.36080693115597" lon="8.181671384674349"><ele>513.4</ele><time>2026-04-03T10:02:49.998Z</time></trkpt><trkpt lat="44.3608051467781" lon="8.181532082799967"><ele>514.0</ele><time>2026-04-03T10:02:50.998Z</time></trkpt><trkpt lat="44.360804719505715" lon="8.1813884446599"><ele>516.0</ele><time>2026-04-03T10:02:51.998Z</time></trkpt><trkpt lat="44.3608004403272" lon="8.181255894334779"><ele>518.0</ele><time>2026-04-03T10:02:52.998Z</time></trkpt><trkpt lat="44.360784279433425" lon="8.181123712855742"><ele>520.0</ele><time>2026-04-03T10:02:53.998Z</time></trkpt><trkpt lat="44.36075682598239" lon="8.180993359741676"><ele>522.0</ele><time>2026-04-03T10:02:54.998Z</time></trkpt><trkpt lat="44.36072261533092" lon="8.1808680863201"><ele>524.0</ele><time>2026-04-03T10:02:55.998Z</time></trkpt><trkpt lat="44.360690379479465" lon="8.180746151267638"><ele>525.6</ele><time>2026-04-03T10:02:56.998Z</time></trkpt><trkpt lat="44.360652335854816" lon="8.180621980315554"><ele>527.2</ele><time>2026-04-03T10:02:57.998Z</time></trkpt><trkpt lat="44.360611935721465" lon="8.18048471753199"><ele>528.8000000000001</ele><time>2026-04-03T10:02:58.998Z</time></trkpt><trkpt lat="44.36058104362042" lon="8.180347640960731"><ele>530.4</ele><time>2026-04-03T10:02:59.998Z</time></trkpt><trkpt lat="44.36055781265638" lon="8.180209830686735"><ele>532.0</ele><time>2026-04-03T10:03:00.998Z</time></trkpt><trkpt lat="44.36055361463398" lon="8.180062089327544"><ele>532.0</ele><time>2026-04-03T10:03:01.998Z</time></trkpt><trkpt lat="44.36054413285857" lon="8.179901288185965"><ele>532.0</ele><time>2026-04-03T10:03:02.998Z</time></trkpt><trkpt lat="44.3605384522022" lon="8.179740555765532"><ele>532.0</ele><time>2026-04-03T10:03:03.998Z</time></trkpt><trkpt lat="44.36052848691633" lon="8.179585419945608"><ele>532.0</ele><time>2026-04-03T10:03:04.998Z</time></trkpt><trkpt lat="44.360530709421816" lon="8.179448982267507"><ele>532.0</ele><time>2026-04-03T10:03:06Z</time></trkpt><trkpt lat="44.3605420748492" lon="8.179327334577794"><ele>532.0</ele><time>2026-04-03T10:03:07Z</time></trkpt><trkpt lat="44.360553446319415" lon="8.17919577879694"><ele>532.0</ele><time>2026-04-03T10:03:08Z</time></trkpt><trkpt lat="44.36055758252536" lon="8.179070980128774"><ele>532.0</ele><time>2026-04-03T10:03:09Z</time></trkpt><trkpt lat="44.36055431525115" lon="8.178951466652356"><ele>532.0</ele><time>2026-04-03T10:03:10Z</time></trkpt><trkpt lat="44.36054965076176" lon="8.178835433666555"><ele>532.0</ele><time>2026-04-03T10:03:11Z</time></trkpt><trkpt lat="44.360546473480774" lon="8.178704914986684"><ele>532.0</ele><time>2026-04-03T10:03:12Z</time></trkpt><trkpt lat="44.36054601172966" lon="8.178570655553777"><ele>531.8000000000001</ele><time>2026-04-03T10:03:13Z</time></trkpt><trkpt lat="44.36054082674677" lon="8.178427793572661"><ele>531.6</ele><time>2026-04-03T10:03:14Z</time></trkpt><trkpt lat="44.360539973478744" lon="8.178287056841535"><ele>531.4000000000001</ele><time>2026-04-03T10:03:15Z</time></trkpt><trkpt lat="44.360546580898024" lon="8.178160201748025"><ele>531.2</ele><time>2026-04-03T10:03:16Z</time></trkpt><trkpt lat="44.36053566313491" lon="8.178023541826343"><ele>531.0</ele><time>2026-04-03T10:03:17Z</time></trkpt><trkpt lat="44.36049737500617" lon="8.177890809164003"><ele>526.2</ele><time>2026-04-03T10:03:18Z</time></trkpt><trkpt lat="44.36045886179699" lon="8.177758765245489"><ele>521.4000000000001</ele><time>2026-04-03T10:03:19Z</time></trkpt><trkpt lat="44.360427833745845" lon="8.177641332080213"><ele>516.6</ele><time>2026-04-03T10:03:20Z</time></trkpt><trkpt lat="44.36039492047903" lon="8.177513106421603"><ele>511.8</ele><time>2026-04-03T10:03:21Z</time></trkpt><trkpt lat="44.36039362658377" lon="8.177368843286079"><ele>507.0</ele><time>2026-04-03T10:03:22Z</time></trkpt><trkpt lat="44.36041827389343" lon="8.17719332276892"><ele>507.0</ele><time>2026-04-03T10:03:23Z</time></trkpt><trkpt lat="44.36045293001201" lon="8.177037959627171"><ele>507.00000000000006</ele><time>2026-04-03T10:03:24Z</time></trkpt><trkpt lat="44.36047923266877" lon="8.176880765602224"><ele>507.00000000000006</ele><time>2026-04-03T10:03:25Z</time></trkpt><trkpt lat="44.36050466281526" lon="8.176739542854612"><ele>507.0</ele><time>2026-04-03T10:03:26Z</time></trkpt><trkpt lat="44.36054345767163" lon="8.176617762210102"><ele>507.0</ele><time>2026-04-03T10:03:27Z</time></trkpt><trkpt lat="44.36058874841648" lon="8.176504191257685"><ele>513.8000000000001</ele><time>2026-04-03T10:03:28Z</time></trkpt><trkpt lat="44.36063042417169" lon="8.176377389604083"><ele>520.6</ele><time>2026-04-03T10:03:29Z</time></trkpt><trkpt lat="44.3606410108319" lon="8.176236855651634"><ele>527.4000000000001</ele><time>2026-04-03T10:03:30Z</time></trkpt><trkpt lat="44.3606460529904" lon="8.176065305247317"><ele>534.2</ele><time>2026-04-03T10:03:31Z</time></trkpt><trkpt lat="44.360670787430635" lon="8.175905901921269"><ele>541.0</ele><time>2026-04-03T10:03:32Z</time></trkpt><trkpt lat="44.360681498707216" lon="8.175768032462884"><ele>540.0</ele><time>2026-04-03T10:03:33Z</time></trkpt><trkpt lat="44.360684469022445" lon="8.175646484055587"><ele>539.0</ele><time>2026-04-03T10:03:34Z</time></trkpt><trkpt lat="44.36073979880487" lon="8.175538204537245"><ele>538.0</ele><time>2026-04-03T10:03:35Z</time></trkpt><trkpt lat="44.36080237009572" lon="8.175433443502207"><ele>537.0</ele><time>2026-04-03T10:03:36Z</time></trkpt><trkpt lat="44.360864407664444" lon="8.175324640982492"><ele>536.0</ele><time>2026-04-03T10:03:36.999Z</time></trkpt><trkpt lat="44.360912879612926" lon="8.175203357001932"><ele>536.0</ele><time>2026-04-03T10:03:37.999Z</time></trkpt><trkpt lat="44.36096905963103" lon="8.175085948508384"><ele>536.0</ele><time>2026-04-03T10:03:38.999Z</time></trkpt><trkpt lat="44.361022657848864" lon="8.17496708101111"><ele>536.0</ele><time>2026-04-03T10:03:39.999Z</time></trkpt><trkpt lat="44.36108806866619" lon="8.174851529134529"><ele>536.0</ele><time>2026-04-03T10:03:40.999Z</time></trkpt><trkpt lat="44.361145687562555" lon="8.17473175812844"><ele>536.0</ele><time>2026-04-03T10:03:41.999Z</time></trkpt><trkpt lat="44.36119222299932" lon="8.174633318812523"><ele>533.8</ele><time>2026-04-03T10:03:42.999Z</time></trkpt><trkpt lat="44.36123881462644" lon="8.174535174655079"><ele>531.6</ele><time>2026-04-03T10:03:43.999Z</time></trkpt><trkpt lat="44.36129703127466" lon="8.174447297245624"><ele>529.4</ele><time>2026-04-03T10:03:44.999Z</time></trkpt><trkpt lat="44.361349046849334" lon="8.174386122664458"><ele>527.2</ele><time>2026-04-03T10:03:45.999Z</time></trkpt><trkpt lat="44.36144000545252" lon="8.174231921841443"><ele>525.0</ele><time>2026-04-03T10:03:47.999Z</time></trkpt><trkpt lat="44.36149745741695" lon="8.17413331196278"><ele>527.1666666666666</ele><time>2026-04-03T10:03:48.999Z</time></trkpt><trkpt lat="44.361548426274034" lon="8.174040016635791"><ele>529.3333333333334</ele><time>2026-04-03T10:03:49.999Z</time></trkpt><trkpt lat="44.36160761015192" lon="8.17395898923293"><ele>531.5</ele><time>2026-04-03T10:03:50.999Z</time></trkpt><trkpt lat="44.361667288851" lon="8.1738734468823"><ele>533.6666666666667</ele><time>2026-04-03T10:03:51.999Z</time></trkpt><trkpt lat="44.36173619411846" lon="8.173797296837163"><ele>535.8333333333334</ele><time>2026-04-03T10:03:52.999Z</time></trkpt><trkpt lat="44.361811570380006" lon="8.173723154775015"><ele>538.0</ele><time>2026-04-03T10:03:53.999Z</time></trkpt><trkpt lat="44.36188855902247" lon="8.173662321952236"><ele>538.0</ele><time>2026-04-03T10:03:54.999Z</time></trkpt><trkpt lat="44.3619691193732" lon="8.173596419823554"><ele>538.0</ele><time>2026-04-03T10:03:55.999Z</time></trkpt><trkpt lat="44.362058033893504" lon="8.17352353147833"><ele>538.0</ele><time>2026-04-03T10:03:56.999Z</time></trkpt><trkpt lat="44.36214889192615" lon="8.173449946420744"><ele>538.0</ele><time>2026-04-03T10:03:57.999Z</time></trkpt><trkpt lat="44.362245335721425" lon="8.173384102211523"><ele>538.0</ele><time>2026-04-03T10:03:58.999Z</time></trkpt><trkpt lat="44.362345683497765" lon="8.173317048394274"><ele>539.25</ele><time>2026-04-03T10:03:59.999Z</time></trkpt><trkpt lat="44.362447438366445" lon="8.17324287459309"><ele>540.5</ele><time>2026-04-03T10:04:00.999Z</time></trkpt><trkpt lat="44.36255417618057" lon="8.173163607095155"><ele>541.75</ele><time>2026-04-03T10:04:01.999Z</time></trkpt><trkpt lat="44.362666934005006" lon="8.173075045284014"><ele>543.0</ele><time>2026-04-03T10:04:02.999Z</time></trkpt><trkpt lat="44.36277837445894" lon="8.172977692785413"><ele>545.5</ele><time>2026-04-03T10:04:03.999Z</time></trkpt><trkpt lat="44.362886312211884" lon="8.172868800183316"><ele>548.0</ele><time>2026-04-03T10:04:04.999Z</time></trkpt><trkpt lat="44.362998054552655" lon="8.172751132050273"><ele>550.5</ele><time>2026-04-03T10:04:05.999Z</time></trkpt><trkpt lat="44.36311168147252" lon="8.172627284373004"><ele>553.0</ele><time>2026-04-03T10:04:06.999Z</time></trkpt><trkpt lat="44.363224345250735" lon="8.172512650403755"><ele>556.0</ele><time>2026-04-03T10:04:07.999Z</time></trkpt><trkpt lat="44.36333825051759" lon="8.172388151223005"><ele>559.0</ele><time>2026-04-03T10:04:08.999Z</time></trkpt><trkpt lat="44.36344964205691" lon="8.172253811754732"><ele>562.0</ele><time>2026-04-03T10:04:09.999Z</time></trkpt><trkpt lat="44.36354216067853" lon="8.172103000292744"><ele>565.0</ele><time>2026-04-03T10:04:10.999Z</time></trkpt><trkpt lat="44.363627243071704" lon="8.171944590272817"><ele>566.0</ele><time>2026-04-03T10:04:11.999Z</time></trkpt><trkpt lat="44.36371766773534" lon="8.171775896548597"><ele>567.0</ele><time>2026-04-03T10:04:12.999Z</time></trkpt><trkpt lat="44.36380067552592" lon="8.171605382708"><ele>568.0</ele><time>2026-04-03T10:04:13.999Z</time></trkpt><trkpt lat="44.36387421238238" lon="8.171451966118223"><ele>569.0</ele><time>2026-04-03T10:04:14.999Z</time></trkpt><trkpt lat="44.36394399988997" lon="8.171285064143259"><ele>571.0</ele><time>2026-04-03T10:04:15.999Z</time></trkpt><trkpt lat="44.364014955272744" lon="8.17110821229138"><ele>573.0</ele><time>2026-04-03T10:04:16.999Z</time></trkpt><trkpt lat="44.364073369067484" lon="8.170924597139551"><ele>575.0</ele><time>2026-04-03T10:04:17.999Z</time></trkpt><trkpt lat="44.36412447592463" lon="8.170736049027576"><ele>577.0</ele><time>2026-04-03T10:04:18.999Z</time></trkpt><trkpt lat="44.36417365643245" lon="8.170538517988444"><ele>580.0</ele><time>2026-04-03T10:04:19.999Z</time></trkpt><trkpt lat="44.36420813679372" lon="8.17037010059425"><ele>583.0</ele><time>2026-04-03T10:04:20.999Z</time></trkpt><trkpt lat="44.36423834482707" lon="8.170215093355624"><ele>586.0</ele><time>2026-04-03T10:04:21.999Z</time></trkpt><trkpt lat="44.36426599232412" lon="8.170067749023914"><ele>589.0</ele><time>2026-04-03T10:04:22.999Z</time></trkpt><trkpt lat="44.36428893642269" lon="8.169910882845885"><ele>590.5</ele><time>2026-04-03T10:04:23.999Z</time></trkpt><trkpt lat="44.36430936552515" lon="8.169754186916366"><ele>592.0</ele><time>2026-04-03T10:04:24.999Z</time></trkpt><trkpt lat="44.36432637321674" lon="8.169592789792938"><ele>593.5</ele><time>2026-04-03T10:04:25.999Z</time></trkpt><trkpt lat="44.364337447892616" lon="8.169432044787637"><ele>595.0</ele><time>2026-04-03T10:04:26.999Z</time></trkpt><trkpt lat="44.364349468471616" lon="8.169263780552493"><ele>595.0</ele><time>2026-04-03T10:04:27.999Z</time></trkpt><trkpt lat="44.36435522625809" lon="8.169091511887439"><ele>595.0</ele><time>2026-04-03T10:04:28.999Z</time></trkpt><trkpt lat="44.36435486224836" lon="8.168919488913367"><ele>595.0</ele><time>2026-04-03T10:04:29.999Z</time></trkpt><trkpt lat="44.36434866113042" lon="8.168742706680575"><ele>595.0</ele><time>2026-04-03T10:04:30.999Z</time></trkpt><trkpt lat="44.364339899367906" lon="8.168573461546718"><ele>595.0</ele><time>2026-04-03T10:04:31.999Z</time></trkpt><trkpt lat="44.36432561384541" lon="8.168398375376453"><ele>595.0</ele><time>2026-04-03T10:04:32.999Z</time></trkpt><trkpt lat="44.36430926148043" lon="8.168222763641703"><ele>595.0</ele><time>2026-04-03T10:04:33.999Z</time></trkpt><trkpt lat="44.364295954824485" lon="8.168043438045403"><ele>595.0</ele><time>2026-04-03T10:04:34.999Z</time></trkpt><trkpt lat="44.36428506627152" lon="8.167863337763162"><ele>596.75</ele><time>2026-04-03T10:04:35.999Z</time></trkpt><trkpt lat="44.36427152240375" lon="8.167678764959186"><ele>598.5</ele><time>2026-04-03T10:04:36.999Z</time></trkpt><trkpt lat="44.364257170169" lon="8.167487965747972"><ele>600.25</ele><time>2026-04-03T10:04:37.999Z</time></trkpt><trkpt lat="44.364241429020055" lon="8.167300729270499"><ele>602.0</ele><time>2026-04-03T10:04:38.999Z</time></trkpt><trkpt lat="44.36423002585649" lon="8.167130557305114"><ele>603.75</ele><time>2026-04-03T10:04:39.999Z</time></trkpt><trkpt lat="44.36421764804947" lon="8.166951731881275"><ele>605.5</ele><time>2026-04-03T10:04:40.999Z</time></trkpt><trkpt lat="44.364205440859955" lon="8.166765658390082"><ele>607.25</ele><time>2026-04-03T10:04:41.999Z</time></trkpt><trkpt lat="44.36419496353229" lon="8.166578440126258"><ele>609.0</ele><time>2026-04-03T10:04:42.998Z</time></trkpt><trkpt lat="44.364182100648826" lon="8.166408261091918"><ele>610.0</ele><time>2026-04-03T10:04:43.998Z</time></trkpt><trkpt lat="44.36416737137034" lon="8.166241225163873"><ele>611.0</ele><time>2026-04-03T10:04:44.998Z</time></trkpt><trkpt lat="44.36415294858526" lon="8.166060618487231"><ele>612.0</ele><time>2026-04-03T10:04:45.998Z</time></trkpt><trkpt lat="44.36413997793696" lon="8.165885504838247"><ele>613.0</ele><time>2026-04-03T10:04:46.998Z</time></trkpt><trkpt lat="44.36412667247429" lon="8.165706020674348"><ele>614.75</ele><time>2026-04-03T10:04:47.998Z</time></trkpt><trkpt lat="44.36411451407211" lon="8.165532811924484"><ele>616.5</ele><time>2026-04-03T10:04:48.998Z</time></trkpt><trkpt lat="44.364097954156534" lon="8.165352245077266"><ele>618.25</ele><time>2026-04-03T10:04:49.998Z</time></trkpt><trkpt lat="44.364081908112915" lon="8.165171306685227"><ele>620.0</ele><time>2026-04-03T10:04:50.998Z</time></trkpt><trkpt lat="44.364066713196394" lon="8.164988457392605"><ele>620.5</ele><time>2026-04-03T10:04:51.998Z</time></trkpt><trkpt lat="44.36405460537732" lon="8.164802490806258"><ele>621.0</ele><time>2026-04-03T10:04:52.998Z</time></trkpt><trkpt lat="44.36404426371539" lon="8.164625683348381"><ele>621.5</ele><time>2026-04-03T10:04:53.998Z</time></trkpt><trkpt lat="44.36403563405137" lon="8.164461583712173"><ele>622.0</ele><time>2026-04-03T10:04:54.998Z</time></trkpt><trkpt lat="44.3640262758636" lon="8.164295463088562"><ele>622.0</ele><time>2026-04-03T10:04:55.998Z</time></trkpt><trkpt lat="44.364014406206124" lon="8.164123845059208"><ele>622.0</ele><time>2026-04-03T10:04:56.998Z</time></trkpt><trkpt lat="44.364003352274246" lon="8.163957140678777"><ele>622.0</ele><time>2026-04-03T10:04:57.998Z</time></trkpt><trkpt lat="44.363990238613056" lon="8.163785411441747"><ele>622.0</ele><time>2026-04-03T10:04:58.998Z</time></trkpt><trkpt lat="44.36398184232526" lon="8.16360816720308"><ele>624.0</ele><time>2026-04-03T10:04:59.998Z</time></trkpt><trkpt lat="44.36396869215794" lon="8.163432217589841"><ele>626.0</ele><time>2026-04-03T10:05:00.998Z</time></trkpt><trkpt lat="44.36395377589134" lon="8.163264862221917"><ele>628.0</ele><time>2026-04-03T10:05:01.998Z</time></trkpt><trkpt lat="44.36394335721376" lon="8.163094751572874"><ele>630.0</ele><time>2026-04-03T10:05:02.998Z</time></trkpt><trkpt lat="44.363934264030284" lon="8.162919121232589"><ele>634.0</ele><time>2026-04-03T10:05:03.998Z</time></trkpt><trkpt lat="44.36392884199999" lon="8.162751615712805"><ele>638.0</ele><time>2026-04-03T10:05:05.016Z</time></trkpt><trkpt lat="44.36392445122707" lon="8.162594952576718"><ele>642.0</ele><time>2026-04-03T10:05:06.02Z</time></trkpt><trkpt lat="44.36392126469255" lon="8.162442587025755"><ele>646.0</ele><time>2026-04-03T10:05:07.02Z</time></trkpt><trkpt lat="44.36391795801565" lon="8.162266048412993"><ele>651.5</ele><time>2026-04-03T10:05:08.016Z</time></trkpt><trkpt lat="44.36391601679369" lon="8.162079694817312"><ele>657.0</ele><time>2026-04-03T10:05:09.018Z</time></trkpt><trkpt lat="44.36414455386535" lon="8.159427849436993"><ele>678.5</ele><time>2026-04-03T10:05:13.303Z</time></trkpt><trkpt lat="44.36427072728134" lon="8.1588260733037"><ele>700.0</ele><time>2026-04-03T10:05:14.303Z</time></trkpt><trkpt lat="44.36442254026609" lon="8.158235749714835"><ele>698.0</ele><time>2026-04-03T10:05:15.303Z</time></trkpt><trkpt lat="44.36459886328304" lon="8.1576587875391"><ele>696.0</ele><time>2026-04-03T10:05:16.303Z</time></trkpt><trkpt lat="44.36479894945173" lon="8.157097030002141"><ele>699.0</ele><time>2026-04-03T10:05:17.303Z</time></trkpt><trkpt lat="44.36502297094284" lon="8.156553279339505"><ele>702.0</ele><time>2026-04-03T10:05:18.303Z</time></trkpt><trkpt lat="44.36527024759487" lon="8.156029340155444"><ele>707.5</ele><time>2026-04-03T10:05:19.303Z</time></trkpt><trkpt lat="44.36553890065319" lon="8.155526248409954"><ele>713.0</ele><time>2026-04-03T10:05:20.303Z</time></trkpt><trkpt lat="44.36582752492455" lon="8.155045248745987"><ele>711.0</ele><time>2026-04-03T10:05:21.303Z</time></trkpt><trkpt lat="44.36613901252774" lon="8.154591971470474"><ele>709.0</ele><time>2026-04-03T10:05:22.304Z</time></trkpt><trkpt lat="44.36646556498885" lon="8.154161561343631"><ele>700.0</ele><time>2026-04-03T10:05:23.303Z</time></trkpt><trkpt lat="44.366811522403694" lon="8.153760547177415"><ele>691.0</ele><time>2026-04-03T10:05:24.303Z</time></trkpt><trkpt lat="44.36717264284542" lon="8.153385576299073"><ele>672.5</ele><time>2026-04-03T10:05:25.304Z</time></trkpt><trkpt lat="44.367549470397286" lon="8.153044000093782"><ele>654.0</ele><time>2026-04-03T10:05:26.303Z</time></trkpt><trkpt lat="44.367940589393704" lon="8.15273416039033"><ele>648.3333333333334</ele><time>2026-04-03T10:05:27.303Z</time></trkpt><trkpt lat="44.3681815" lon="8.1525623"><ele>642.6666666666667</ele><time>2026-04-03T10:05:28.303Z</time></trkpt><trkpt lat="44.36809481627714" lon="8.152523674263474"><ele>637.0</ele><time>2026-04-03T10:06:16.997Z</time></trkpt><trkpt lat="44.368314346644055" lon="8.152507678891375"><ele>637.0</ele><time>2026-04-03T10:06:17.997Z</time></trkpt><trkpt lat="44.3684194017274" lon="8.152454860596215"><ele>637.0</ele><time>2026-04-03T10:06:18.997Z</time></trkpt><trkpt lat="44.36850667139152" lon="8.152390779591302"><ele>637.0</ele><time>2026-04-03T10:06:19.997Z</time></trkpt><trkpt lat="44.368616594243015" lon="8.152315804380823"><ele>637.0</ele><time>2026-04-03T10:06:20.997Z</time></trkpt><trkpt lat="44.36870900650769" lon="8.152256075969206"><ele>637.0</ele><time>2026-04-03T10:06:21.997Z</time></trkpt><trkpt lat="44.36880880867745" lon="8.152191338541902"><ele>636.0</ele><time>2026-04-03T10:06:23Z</time></trkpt><trkpt lat="44.368901963502154" lon="8.152128620732158"><ele>635.0</ele><time>2026-04-03T10:06:24Z</time></trkpt><trkpt lat="44.36900158589623" lon="8.152062256278564"><ele>634.0</ele><time>2026-04-03T10:06:25Z</time></trkpt><trkpt lat="44.36909614611291" lon="8.151994596748843"><ele>633.0</ele><time>2026-04-03T10:06:26Z</time></trkpt><trkpt lat="44.369187596945984" lon="8.15192976962167"><ele>632.0</ele><time>2026-04-03T10:06:27Z</time></trkpt><trkpt lat="44.36927497158284" lon="8.151865707676702"><ele>632.0</ele><time>2026-04-03T10:06:28Z</time></trkpt><trkpt lat="44.369372396622055" lon="8.151807698401285"><ele>632.0</ele><time>2026-04-03T10:06:29Z</time></trkpt><trkpt lat="44.36946887323112" lon="8.151743754537907"><ele>632.0</ele><time>2026-04-03T10:06:30Z</time></trkpt><trkpt lat="44.36957223172288" lon="8.15167303620162"><ele>632.0</ele><time>2026-04-03T10:06:31Z</time></trkpt><trkpt lat="44.36967937609243" lon="8.151602046058722"><ele>632.0</ele><time>2026-04-03T10:06:32Z</time></trkpt><trkpt lat="44.36979116178457" lon="8.151532925688175"><ele>634.5</ele><time>2026-04-03T10:06:33Z</time></trkpt><trkpt lat="44.36991221776786" lon="8.151458861731264"><ele>637.0</ele><time>2026-04-03T10:06:34.017Z</time></trkpt><trkpt lat="44.370016277664774" lon="8.151394537838314"><ele>639.5</ele><time>2026-04-03T10:06:35.018Z</time></trkpt><trkpt lat="44.370136397340524" lon="8.151318245776078"><ele>642.0</ele><time>2026-04-03T10:06:36.018Z</time></trkpt><trkpt lat="44.37024720379037" lon="8.151240038227296"><ele>642.0</ele><time>2026-04-03T10:06:37.018Z</time></trkpt><trkpt lat="44.37037089468565" lon="8.151200824285567"><ele>642.0</ele><time>2026-04-03T10:06:38.018Z</time></trkpt><trkpt lat="44.37043092282189" lon="8.15111645527226"><ele>642.0</ele><time>2026-04-03T10:06:39Z</time></trkpt><trkpt lat="44.37051779937812" lon="8.151058277592115"><ele>642.0</ele><time>2026-04-03T10:06:40Z</time></trkpt><trkpt lat="44.37060477987247" lon="8.150989317383594"><ele>642.0</ele><time>2026-04-03T10:06:41Z</time></trkpt><trkpt lat="44.37069820048352" lon="8.150924120918088"><ele>645.75</ele><time>2026-04-03T10:06:42Z</time></trkpt><trkpt lat="44.37080235428988" lon="8.150857799897112"><ele>649.5</ele><time>2026-04-03T10:06:43Z</time></trkpt><trkpt lat="44.370904478716895" lon="8.15078501907229"><ele>653.25</ele><time>2026-04-03T10:06:44Z</time></trkpt><trkpt lat="44.371011347522035" lon="8.150713316449137"><ele>657.0</ele><time>2026-04-03T10:06:45Z</time></trkpt><trkpt lat="44.371124031229584" lon="8.150641003920462"><ele>659.75</ele><time>2026-04-03T10:06:46Z</time></trkpt><trkpt lat="44.37123408908344" lon="8.150565992716743"><ele>662.5</ele><time>2026-04-03T10:06:47Z</time></trkpt><trkpt lat="44.3713560829221" lon="8.150487689704281"><ele>665.25</ele><time>2026-04-03T10:06:48Z</time></trkpt><trkpt lat="44.371475419776495" lon="8.150409167552882"><ele>668.0</ele><time>2026-04-03T10:06:49Z</time></trkpt><trkpt lat="44.371579974871864" lon="8.150342488214411"><ele>668.0</ele><time>2026-04-03T10:06:50Z</time></trkpt><trkpt lat="44.37168905147944" lon="8.150275193593021"><ele>668.0</ele><time>2026-04-03T10:06:51Z</time></trkpt><trkpt lat="44.37179381889406" lon="8.150209461632482"><ele>668.0</ele><time>2026-04-03T10:06:52Z</time></trkpt><trkpt lat="44.37189660034804" lon="8.150139166596421"><ele>668.0</ele><time>2026-04-03T10:06:53Z</time></trkpt><trkpt lat="44.3720004457274" lon="8.150070682294654"><ele>668.0</ele><time>2026-04-03T10:06:54Z</time></trkpt><trkpt lat="44.37209679346695" lon="8.150009311390564"><ele>668.0</ele><time>2026-04-03T10:06:55Z</time></trkpt><trkpt lat="44.37218934797179" lon="8.149950384055005"><ele>668.0</ele><time>2026-04-03T10:06:56Z</time></trkpt><trkpt lat="44.37228472255531" lon="8.149891656776562"><ele>668.0</ele><time>2026-04-03T10:06:57Z</time></trkpt><trkpt lat="44.37238195389333" lon="8.14983532915546"><ele>668.0</ele><time>2026-04-03T10:06:58Z</time></trkpt><trkpt lat="44.37246734783062" lon="8.149775394132721"><ele>668.5999999999999</ele><time>2026-04-03T10:06:59Z</time></trkpt><trkpt lat="44.37255198246096" lon="8.149715700792843"><ele>669.1999999999999</ele><time>2026-04-03T10:07:00Z</time></trkpt><trkpt lat="44.372632778099046" lon="8.149657196152326"><ele>669.8</ele><time>2026-04-03T10:07:01Z</time></trkpt><trkpt lat="44.372719108300096" lon="8.1496067226843"><ele>670.4</ele><time>2026-04-03T10:07:02Z</time></trkpt><trkpt lat="44.372801833722356" lon="8.149553408071416"><ele>671.0</ele><time>2026-04-03T10:07:02.999Z</time></trkpt><trkpt lat="44.37288353051226" lon="8.149488218660041"><ele>671.0</ele><time>2026-04-03T10:07:03.999Z</time></trkpt><trkpt lat="44.372965573393834" lon="8.149426734915226"><ele>671.0</ele><time>2026-04-03T10:07:04.999Z</time></trkpt><trkpt lat="44.373045223112655" lon="8.149368551053348"><ele>671.0</ele><time>2026-04-03T10:07:05.999Z</time></trkpt><trkpt lat="44.37313748375975" lon="8.149310285387225"><ele>671.0</ele><time>2026-04-03T10:07:06.999Z</time></trkpt><trkpt lat="44.373228996677895" lon="8.149249791021417"><ele>671.0</ele><time>2026-04-03T10:07:07.999Z</time></trkpt><trkpt lat="44.373320473952305" lon="8.14918910329707"><ele>670.8</ele><time>2026-04-03T10:07:08.999Z</time></trkpt><trkpt lat="44.37341591055996" lon="8.149129346818402"><ele>670.5999999999999</ele><time>2026-04-03T10:07:09.999Z</time></trkpt><trkpt lat="44.37351202100078" lon="8.149066990212813"><ele>670.4</ele><time>2026-04-03T10:07:10.999Z</time></trkpt><trkpt lat="44.37361034522253" lon="8.148997161137798"><ele>670.2</ele><time>2026-04-03T10:07:11.999Z</time></trkpt><trkpt lat="44.37371490692843" lon="8.148920677425048"><ele>670.0</ele><time>2026-04-03T10:07:12.999Z</time></trkpt><trkpt lat="44.37382021171549" lon="8.148848264489951"><ele>671.25</ele><time>2026-04-03T10:07:13.999Z</time></trkpt><trkpt lat="44.37392870687484" lon="8.148773209954241"><ele>672.5</ele><time>2026-04-03T10:07:14.999Z</time></trkpt><trkpt lat="44.37403358980329" lon="8.14869986542199"><ele>673.75</ele><time>2026-04-03T10:07:15.999Z</time></trkpt><trkpt lat="44.374127916879424" lon="8.148624200011886"><ele>675.0</ele><time>2026-04-03T10:07:16.999Z</time></trkpt><trkpt lat="44.37422494788802" lon="8.14853960477821"><ele>675.0</ele><time>2026-04-03T10:07:17.999Z</time></trkpt><trkpt lat="44.374321750488406" lon="8.148448980565982"><ele>675.0</ele><time>2026-04-03T10:07:18.999Z</time></trkpt><trkpt lat="44.37441861568237" lon="8.1483519603354"><ele>675.0</ele><time>2026-04-03T10:07:19.999Z</time></trkpt><trkpt lat="44.37451124180164" lon="8.14824881473353"><ele>675.0</ele><time>2026-04-03T10:07:20.999Z</time></trkpt><trkpt lat="44.37460374875374" lon="8.14814099828798"><ele>675.5</ele><time>2026-04-03T10:07:21.999Z</time></trkpt><trkpt lat="44.37469146869892" lon="8.148026371653458"><ele>676.0</ele><time>2026-04-03T10:07:22.999Z</time></trkpt><trkpt lat="44.37478319233158" lon="8.147900803833984"><ele>676.5</ele><time>2026-04-03T10:07:23.999Z</time></trkpt><trkpt lat="44.37486766895263" lon="8.147773849447349"><ele>677.0</ele><time>2026-04-03T10:07:24.999Z</time></trkpt><trkpt lat="44.374958049810175" lon="8.147640232321429"><ele>677.0</ele><time>2026-04-03T10:07:25.999Z</time></trkpt><trkpt lat="44.37505097179052" lon="8.147502907598343"><ele>677.0</ele><time>2026-04-03T10:07:26.999Z</time></trkpt><trkpt lat="44.37514473094597" lon="8.147353844525503"><ele>677.0</ele><time>2026-04-03T10:07:27.999Z</time></trkpt><trkpt lat="44.37523387475625" lon="8.147191048326537"><ele>677.0</ele><time>2026-04-03T10:07:28.999Z</time></trkpt><trkpt lat="44.37531375367226" lon="8.147015621647109"><ele>677.0</ele><time>2026-04-03T10:07:29.999Z</time></trkpt><trkpt lat="44.37538836901766" lon="8.146835350337982"><ele>677.0</ele><time>2026-04-03T10:07:30.999Z</time></trkpt><trkpt lat="44.37546190294567" lon="8.146653458742254"><ele>677.0</ele><time>2026-04-03T10:07:31.999Z</time></trkpt><trkpt lat="44.3755321991579" lon="8.146468254147923"><ele>677.0</ele><time>2026-04-03T10:07:32.999Z</time></trkpt><trkpt lat="44.375593859939215" lon="8.14627417495716"><ele>683.6666666666666</ele><time>2026-04-03T10:07:33.999Z</time></trkpt><trkpt lat="44.37565127947931" lon="8.146073037930352"><ele>690.3333333333334</ele><time>2026-04-03T10:07:34.999Z</time></trkpt><trkpt lat="44.375701515392095" lon="8.145860595216249"><ele>697.0</ele><time>2026-04-03T10:07:35.999Z</time></trkpt><trkpt lat="44.37574680809461" lon="8.145644938536844"><ele>697.3333333333334</ele><time>2026-04-03T10:07:36.999Z</time></trkpt><trkpt lat="44.37578701173183" lon="8.145419322384843"><ele>697.6666666666666</ele><time>2026-04-03T10:07:37.999Z</time></trkpt><trkpt lat="44.37581991105636" lon="8.145190464038485"><ele>698.0</ele><time>2026-04-03T10:07:38.999Z</time></trkpt><trkpt lat="44.37584218274339" lon="8.144952777103974"><ele>699.6666666666666</ele><time>2026-04-03T10:07:39.999Z</time></trkpt><trkpt lat="44.37586293649986" lon="8.144714687386726"><ele>701.3333333333334</ele><time>2026-04-03T10:07:40.999Z</time></trkpt><trkpt lat="44.37586908496474" lon="8.144466945158959"><ele>703.0</ele><time>2026-04-03T10:07:41.999Z</time></trkpt><trkpt lat="44.375868055514516" lon="8.144214289848136"><ele>702.6666666666667</ele><time>2026-04-03T10:07:42.999Z</time></trkpt><trkpt lat="44.37586570789755" lon="8.143956330052129"><ele>702.3333333333334</ele><time>2026-04-03T10:07:43.999Z</time></trkpt><trkpt lat="44.37584708853881" lon="8.143705441347516"><ele>702.0</ele><time>2026-04-03T10:07:44.999Z</time></trkpt><trkpt lat="44.37582246696885" lon="8.143454552747405"><ele>705.6666666666666</ele><time>2026-04-03T10:07:45.999Z</time></trkpt><trkpt lat="44.37578968107707" lon="8.143195558260286"><ele>709.3333333333333</ele><time>2026-04-03T10:07:46.999Z</time></trkpt><trkpt lat="44.37575124229815" lon="8.14293900268195"><ele>713.0</ele><time>2026-04-03T10:07:47.999Z</time></trkpt><trkpt lat="44.37570040246712" lon="8.142685543340315"><ele>713.0</ele><time>2026-04-03T10:07:48.999Z</time></trkpt><trkpt lat="44.37563801879141" lon="8.142446328909156"><ele>713.0</ele><time>2026-04-03T10:07:49.999Z</time></trkpt><trkpt lat="44.375561463556274" lon="8.142200742656751"><ele>713.0</ele><time>2026-04-03T10:07:50.999Z</time></trkpt><trkpt lat="44.37548251436803" lon="8.141962073197906"><ele>712.6666666666666</ele><time>2026-04-03T10:07:51.999Z</time></trkpt><trkpt lat="44.37540419982348" lon="8.1417414893382"><ele>712.3333333333334</ele><time>2026-04-03T10:07:52.999Z</time></trkpt><trkpt lat="44.37532942022271" lon="8.141534418397486"><ele>712.0</ele><time>2026-04-03T10:07:53.999Z</time></trkpt><trkpt lat="44.375258614391" lon="8.141358230482062"><ele>714.6</ele><time>2026-04-03T10:07:54.999Z</time></trkpt><trkpt lat="44.37519910623862" lon="8.141198923872794"><ele>717.2</ele><time>2026-04-03T10:07:55.999Z</time></trkpt><trkpt lat="44.37515065590883" lon="8.14105985442907"><ele>719.8</ele><time>2026-04-03T10:07:56.999Z</time></trkpt><trkpt lat="44.3751084550986" lon="8.140928834107827"><ele>722.4</ele><time>2026-04-03T10:07:57.999Z</time></trkpt><trkpt lat="44.37506671939466" lon="8.1408036789809"><ele>725.0</ele><time>2026-04-03T10:07:58.999Z</time></trkpt><trkpt lat="44.37502751028071" lon="8.14067191084188"><ele>726.0</ele><time>2026-04-03T10:07:59.999Z</time></trkpt><trkpt lat="44.374995535891024" lon="8.14056148180066"><ele>727.0</ele><time>2026-04-03T10:08:00.999Z</time></trkpt><trkpt lat="44.374964792943885" lon="8.14044242653352"><ele>728.0</ele><time>2026-04-03T10:08:01.999Z</time></trkpt><trkpt lat="44.374938159155015" lon="8.140331580210086"><ele>729.0</ele><time>2026-04-03T10:08:02.999Z</time></trkpt><trkpt lat="44.37492072174059" lon="8.140227630946558"><ele>730.0</ele><time>2026-04-03T10:08:03.999Z</time></trkpt><trkpt lat="44.37491489783143" lon="8.140128401992191"><ele>731.0</ele><time>2026-04-03T10:08:04.999Z</time></trkpt><trkpt lat="44.374921992231904" lon="8.14003801489028"><ele>731.0</ele><time>2026-04-03T10:08:05.999Z</time></trkpt><trkpt lat="44.3749529892864" lon="8.139944306828978"><ele>731.0</ele><time>2026-04-03T10:08:06.998Z</time></trkpt><trkpt lat="44.3750332877766" lon="8.139793337010317"><ele>731.0</ele><time>2026-04-03T10:08:08.998Z</time></trkpt><trkpt lat="44.375084792453855" lon="8.139689733048781"><ele>731.0</ele><time>2026-04-03T10:08:09.998Z</time></trkpt><trkpt lat="44.37512219600906" lon="8.139595600956621"><ele>731.0</ele><time>2026-04-03T10:08:10.998Z</time></trkpt><trkpt lat="44.375164111954966" lon="8.139512676716432"><ele>731.0</ele><time>2026-04-03T10:08:11.998Z</time></trkpt><trkpt lat="44.37521872214378" lon="8.13943799729219"><ele>730.1999999999999</ele><time>2026-04-03T10:08:12.998Z</time></trkpt><trkpt lat="44.37528260537054" lon="8.13939070284248"><ele>729.4</ele><time>2026-04-03T10:08:13.998Z</time></trkpt><trkpt lat="44.37536135841085" lon="8.139359557706378"><ele>728.6</ele><time>2026-04-03T10:08:14.998Z</time></trkpt><trkpt lat="44.37545588241321" lon="8.139342481599671"><ele>727.8</ele><time>2026-04-03T10:08:15.998Z</time></trkpt><trkpt lat="44.37556425678488" lon="8.13934227360674"><ele>727.0</ele><time>2026-04-03T10:08:16.998Z</time></trkpt><trkpt lat="44.375681655081934" lon="8.139358126807"><ele>726.0</ele><time>2026-04-03T10:08:17.998Z</time></trkpt><trkpt lat="44.37578485555499" lon="8.139373255180098"><ele>725.0</ele><time>2026-04-03T10:08:18.998Z</time></trkpt><trkpt lat="44.37589483074479" lon="8.139401575093038"><ele>724.0</ele><time>2026-04-03T10:08:19.998Z</time></trkpt><trkpt lat="44.3759902799651" lon="8.139446252947257"><ele>723.0</ele><time>2026-04-03T10:08:20.998Z</time></trkpt><trkpt lat="44.37608070998887" lon="8.139503981079041"><ele>722.0</ele><time>2026-04-03T10:08:21.998Z</time></trkpt><trkpt lat="44.37616619552696" lon="8.13956596667857"><ele>722.0</ele><time>2026-04-03T10:08:22.998Z</time></trkpt><trkpt lat="44.37624257944624" lon="8.139620200954953"><ele>722.0</ele><time>2026-04-03T10:08:23.998Z</time></trkpt><trkpt lat="44.376325790932746" lon="8.139677275556833"><ele>722.0</ele><time>2026-04-03T10:08:24.998Z</time></trkpt><trkpt lat="44.37643323559288" lon="8.139746171775"><ele>722.0</ele><time>2026-04-03T10:08:25.998Z</time></trkpt><trkpt lat="44.3765344754555" lon="8.139807247647383"><ele>722.0</ele><time>2026-04-03T10:08:26.998Z</time></trkpt><trkpt lat="44.376634726736306" lon="8.13986491487851"><ele>721.4000000000001</ele><time>2026-04-03T10:08:27.998Z</time></trkpt><trkpt lat="44.376728102348295" lon="8.139921339419326"><ele>720.8000000000001</ele><time>2026-04-03T10:08:29Z</time></trkpt><trkpt lat="44.37682278003991" lon="8.139969973142666"><ele>720.2</ele><time>2026-04-03T10:08:30Z</time></trkpt><trkpt lat="44.37690887735944" lon="8.140004365304952"><ele>719.6</ele><time>2026-04-03T10:08:31Z</time></trkpt><trkpt lat="44.376997317735196" lon="8.140005305795405"><ele>719.0</ele><time>2026-04-03T10:08:32Z</time></trkpt><trkpt lat="44.377081136172364" lon="8.139997766286998"><ele>719.0</ele><time>2026-04-03T10:08:33Z</time></trkpt><trkpt lat="44.37716756381991" lon="8.139980815369054"><ele>719.0</ele><time>2026-04-03T10:08:34Z</time></trkpt><trkpt lat="44.37724948230028" lon="8.13997236052444"><ele>719.0</ele><time>2026-04-03T10:08:35Z</time></trkpt><trkpt lat="44.377315196050766" lon="8.139964459966658"><ele>719.0</ele><time>2026-04-03T10:08:36Z</time></trkpt><trkpt lat="44.37740596856188" lon="8.13991558892742"><ele>719.0</ele><time>2026-04-03T10:08:38Z</time></trkpt><trkpt lat="44.377462869532344" lon="8.139835187769117"><ele>719.0</ele><time>2026-04-03T10:08:41Z</time></trkpt><trkpt lat="44.377496735029325" lon="8.13974643349333"><ele>717.6</ele><time>2026-04-03T10:11:38.999Z</time></trkpt><trkpt lat="44.37753674245702" lon="8.139675224208121"><ele>716.2</ele><time>2026-04-03T10:11:42.999Z</time></trkpt><trkpt lat="44.37754435514729" lon="8.139526882598041"><ele>714.8000000000001</ele><time>2026-04-03T10:11:46.999Z</time></trkpt><trkpt lat="44.37754339292059" lon="8.139371862400983"><ele>713.4000000000001</ele><time>2026-04-03T10:11:48.999Z</time></trkpt><trkpt lat="44.37754334997866" lon="8.139246490023048"><ele>712.0</ele><time>2026-04-03T10:11:49.999Z</time></trkpt><trkpt lat="44.37756383716602" lon="8.139117942637998"><ele>710.2</ele><time>2026-04-03T10:11:50.999Z</time></trkpt><trkpt lat="44.3775750915364" lon="8.138977010298852"><ele>708.4000000000001</ele><time>2026-04-03T10:11:51.999Z</time></trkpt><trkpt lat="44.37758427466126" lon="8.1388502488986"><ele>706.5999999999999</ele><time>2026-04-03T10:11:52.999Z</time></trkpt><trkpt lat="44.37759810971554" lon="8.138725909736007"><ele>704.8</ele><time>2026-04-03T10:11:53.999Z</time></trkpt><trkpt lat="44.377622086857244" lon="8.138597524036498"><ele>703.0</ele><time>2026-04-03T10:11:54.999Z</time></trkpt><trkpt lat="44.377654532535466" lon="8.13847738952792"><ele>703.0</ele><time>2026-04-03T10:11:55.999Z</time></trkpt><trkpt lat="44.37770597361258" lon="8.138341441475557"><ele>703.0</ele><time>2026-04-03T10:11:56.999Z</time></trkpt><trkpt lat="44.37778101768274" lon="8.138212949551226"><ele>703.0</ele><time>2026-04-03T10:11:57.999Z</time></trkpt><trkpt lat="44.377878304051016" lon="8.138067612681375"><ele>703.0</ele><time>2026-04-03T10:11:58.999Z</time></trkpt><trkpt lat="44.37800219106069" lon="8.137959685732344"><ele>701.0</ele><time>2026-04-03T10:11:59.999Z</time></trkpt><trkpt lat="44.37812201949836" lon="8.137865308863788"><ele>699.0</ele><time>2026-04-03T10:12:00.999Z</time></trkpt><trkpt lat="44.37825637528869" lon="8.137775061988885"><ele>697.0</ele><time>2026-04-03T10:12:01.999Z</time></trkpt><trkpt lat="44.378391415090945" lon="8.137682782931055"><ele>695.0</ele><time>2026-04-03T10:12:02.999Z</time></trkpt><trkpt lat="44.37851248195614" lon="8.137595375137007"><ele>695.0</ele><time>2026-04-03T10:12:03.999Z</time></trkpt><trkpt lat="44.37862547544201" lon="8.137484835611687"><ele>695.0</ele><time>2026-04-03T10:12:04.999Z</time></trkpt><trkpt lat="44.378727291908675" lon="8.137397982423709"><ele>695.0</ele><time>2026-04-03T10:12:05.999Z</time></trkpt><trkpt lat="44.37883138939286" lon="8.137295810483586"><ele>695.0</ele><time>2026-04-03T10:12:06.999Z</time></trkpt><trkpt lat="44.37892451279826" lon="8.137150903266724"><ele>694.0</ele><time>2026-04-03T10:12:07.999Z</time></trkpt><trkpt lat="44.37900546359079" lon="8.1370306627888"><ele>693.0</ele><time>2026-04-03T10:12:08.999Z</time></trkpt><trkpt lat="44.37907794219705" lon="8.136913577461684"><ele>692.0</ele><time>2026-04-03T10:12:09.999Z</time></trkpt><trkpt lat="44.37914232019168" lon="8.13676025897674"><ele>691.0</ele><time>2026-04-03T10:12:10.999Z</time></trkpt><trkpt lat="44.37920363537898" lon="8.136632469468706"><ele>688.5</ele><time>2026-04-03T10:12:11.999Z</time></trkpt><trkpt lat="44.37924562436262" lon="8.136473104401768"><ele>686.0</ele><time>2026-04-03T10:12:12.999Z</time></trkpt><trkpt lat="44.37928173023852" lon="8.136294945911013"><ele>683.5</ele><time>2026-04-03T10:12:13.999Z</time></trkpt><trkpt lat="44.37930897831128" lon="8.136139382078476"><ele>681.0</ele><time>2026-04-03T10:12:14.999Z</time></trkpt><trkpt lat="44.37932817687235" lon="8.135979146092257"><ele>681.0</ele><time>2026-04-03T10:12:15.999Z</time></trkpt><trkpt lat="44.37933256390024" lon="8.135821311216901"><ele>681.0</ele><time>2026-04-03T10:12:16.999Z</time></trkpt><trkpt lat="44.37933372370865" lon="8.13566157537337"><ele>681.0</ele><time>2026-04-03T10:12:17.999Z</time></trkpt><trkpt lat="44.379331305784696" lon="8.135505409726642"><ele>681.0</ele><time>2026-04-03T10:12:18.999Z</time></trkpt><trkpt lat="44.37931472144504" lon="8.135323338968249"><ele>680.75</ele><time>2026-04-03T10:12:19.999Z</time></trkpt><trkpt lat="44.379283642430444" lon="8.135159047384294"><ele>680.5</ele><time>2026-04-03T10:12:20.999Z</time></trkpt><trkpt lat="44.37926114904101" lon="8.134992969286174"><ele>680.25</ele><time>2026-04-03T10:12:21.999Z</time></trkpt><trkpt lat="44.37923727678084" lon="8.134811963531698"><ele>680.0</ele><time>2026-04-03T10:12:22.999Z</time></trkpt><trkpt lat="44.37921234133857" lon="8.134635215179259"><ele>678.75</ele><time>2026-04-03T10:12:23.999Z</time></trkpt><trkpt lat="44.379185104170745" lon="8.134463090678262"><ele>677.5</ele><time>2026-04-03T10:12:24.999Z</time></trkpt><trkpt lat="44.379166806334446" lon="8.134292433873831"><ele>676.25</ele><time>2026-04-03T10:12:25.999Z</time></trkpt><trkpt lat="44.37915886905984" lon="8.134105588934107"><ele>675.0</ele><time>2026-04-03T10:12:26.999Z</time></trkpt><trkpt lat="44.379172400344814" lon="8.13389180990483"><ele>672.3333333333334</ele><time>2026-04-03T10:12:27.999Z</time></trkpt><trkpt lat="44.379205915496556" lon="8.133677587796882"><ele>669.6666666666667</ele><time>2026-04-03T10:12:28.998Z</time></trkpt><trkpt lat="44.379258432832344" lon="8.133478095505103"><ele>667.0</ele><time>2026-04-03T10:12:29.998Z</time></trkpt><trkpt lat="44.37931088150538" lon="8.133284344849747"><ele>664.6</ele><time>2026-04-03T10:12:30.998Z</time></trkpt><trkpt lat="44.3793579057669" lon="8.13314322530375"><ele>662.2</ele><time>2026-04-03T10:12:31.998Z</time></trkpt><trkpt lat="44.37939281630756" lon="8.132987261018947"><ele>659.8</ele><time>2026-04-03T10:12:32.998Z</time></trkpt><trkpt lat="44.379426364592646" lon="8.132858395707656"><ele>657.4</ele><time>2026-04-03T10:12:33.998Z</time></trkpt><trkpt lat="44.37945557450165" lon="8.132747981569976"><ele>655.0</ele><time>2026-04-03T10:12:34.998Z</time></trkpt><trkpt lat="44.37947217110865" lon="8.13263473168667"><ele>655.0</ele><time>2026-04-03T10:12:35.998Z</time></trkpt><trkpt lat="44.37947604091261" lon="8.132523529910706"><ele>655.0</ele><time>2026-04-03T10:12:36.998Z</time></trkpt><trkpt lat="44.37946560844401" lon="8.132404024425448"><ele>655.0</ele><time>2026-04-03T10:12:37.998Z</time></trkpt><trkpt lat="44.37943079757507" lon="8.132289043299046"><ele>655.0</ele><time>2026-04-03T10:12:38.998Z</time></trkpt><trkpt lat="44.37937258881103" lon="8.132188673885796"><ele>655.0</ele><time>2026-04-03T10:12:39.998Z</time></trkpt><trkpt lat="44.37930492386722" lon="8.132123728608095"><ele>655.0</ele><time>2026-04-03T10:12:41Z</time></trkpt><trkpt lat="44.379225414692435" lon="8.132075884610916"><ele>651.4</ele><time>2026-04-03T10:12:42Z</time></trkpt><trkpt lat="44.379130169012505" lon="8.132068155405905"><ele>647.8</ele><time>2026-04-03T10:12:43Z</time></trkpt><trkpt lat="44.37903656822892" lon="8.13208339145299"><ele>644.2</ele><time>2026-04-03T10:12:44Z</time></trkpt><trkpt lat="44.3789523771056" lon="8.132128507403879"><ele>640.6</ele><time>2026-04-03T10:12:45Z</time></trkpt><trkpt lat="44.378877762157536" lon="8.132210400965459"><ele>637.0</ele><time>2026-04-03T10:12:46Z</time></trkpt><trkpt lat="44.3788199449813" lon="8.132331577832367"><ele>637.5</ele><time>2026-04-03T10:12:47Z</time></trkpt><trkpt lat="44.378792842939056" lon="8.132484351626193"><ele>638.0</ele><time>2026-04-03T10:12:48Z</time></trkpt><trkpt lat="44.37877116088436" lon="8.132651651837067"><ele>638.5</ele><time>2026-04-03T10:12:49Z</time></trkpt><trkpt lat="44.37875137913623" lon="8.132830175598803"><ele>639.0</ele><time>2026-04-03T10:12:50Z</time></trkpt><trkpt lat="44.378726320351305" lon="8.133021970439893"><ele>640.75</ele><time>2026-04-03T10:12:51Z</time></trkpt><trkpt lat="44.37869969192044" lon="8.133231887601115"><ele>642.5</ele><time>2026-04-03T10:12:52Z</time></trkpt><trkpt lat="44.378676369342685" lon="8.133433989874627"><ele>644.25</ele><time>2026-04-03T10:12:53Z</time></trkpt><trkpt lat="44.37865511968994" lon="8.13362259331812"><ele>646.0</ele><time>2026-04-03T10:12:54Z</time></trkpt><trkpt lat="44.378630902423716" lon="8.133804204203829"><ele>646.0</ele><time>2026-04-03T10:12:55Z</time></trkpt><trkpt lat="44.378605169316806" lon="8.133979511236163"><ele>646.0</ele><time>2026-04-03T10:12:56Z</time></trkpt><trkpt lat="44.37858681855333" lon="8.134112261518988"><ele>646.0</ele><time>2026-04-03T10:12:57Z</time></trkpt><trkpt lat="44.37856793099561" lon="8.1342374474601"><ele>646.0</ele><time>2026-04-03T10:12:58Z</time></trkpt><trkpt lat="44.37854372729348" lon="8.134359335523603"><ele>646.0</ele><time>2026-04-03T10:12:59Z</time></trkpt><trkpt lat="44.37851527841815" lon="8.134471039169988"><ele>646.8333333333334</ele><time>2026-04-03T10:13:00Z</time></trkpt><trkpt lat="44.378479493086694" lon="8.134565799141402"><ele>647.6666666666667</ele><time>2026-04-03T10:13:01Z</time></trkpt><trkpt lat="44.3784237787371" lon="8.134642087732763"><ele>648.5</ele><time>2026-04-03T10:13:02Z</time></trkpt><trkpt lat="44.37836512790162" lon="8.13471026200452"><ele>649.3333333333334</ele><time>2026-04-03T10:13:03Z</time></trkpt><trkpt lat="44.37829996855082" lon="8.13475050206273"><ele>650.1666666666666</ele><time>2026-04-03T10:13:04Z</time></trkpt><trkpt lat="44.378227251257414" lon="8.134777734282874"><ele>651.0</ele><time>2026-04-03T10:13:05Z</time></trkpt><trkpt lat="44.378147659593466" lon="8.134779695332227"><ele>651.0</ele><time>2026-04-03T10:13:06Z</time></trkpt><trkpt lat="44.378072945855905" lon="8.134747142414055"><ele>651.0</ele><time>2026-04-03T10:13:07Z</time></trkpt><trkpt lat="44.37800950780497" lon="8.134687265032623"><ele>651.0</ele><time>2026-04-03T10:13:08Z</time></trkpt><trkpt lat="44.37793540427051" lon="8.13461546980505"><ele>651.0</ele><time>2026-04-03T10:13:09Z</time></trkpt><trkpt lat="44.377889152425084" lon="8.134510021013927"><ele>651.0</ele><time>2026-04-03T10:13:10Z</time></trkpt><trkpt lat="44.3778625279977" lon="8.134386240525055"><ele>651.0</ele><time>2026-04-03T10:13:11Z</time></trkpt><trkpt lat="44.37784520748363" lon="8.134228625552122"><ele>649.25</ele><time>2026-04-03T10:13:12Z</time></trkpt><trkpt lat="44.37785536466441" lon="8.134059890196434"><ele>647.5</ele><time>2026-04-03T10:13:13Z</time></trkpt><trkpt lat="44.37788067204681" lon="8.13386861672282"><ele>645.75</ele><time>2026-04-03T10:13:14Z</time></trkpt><trkpt lat="44.37791274996433" lon="8.133686193514224"><ele>644.0</ele><time>2026-04-03T10:13:15Z</time></trkpt><trkpt lat="44.377932824092326" lon="8.133483985575134"><ele>642.75</ele><time>2026-04-03T10:13:16Z</time></trkpt><trkpt lat="44.37796346388732" lon="8.133310852056331"><ele>641.5</ele><time>2026-04-03T10:13:17Z</time></trkpt><trkpt lat="44.37798677260604" lon="8.133131914748358"><ele>640.25</ele><time>2026-04-03T10:13:18Z</time></trkpt><trkpt lat="44.37801125701965" lon="8.13295710333199"><ele>639.0</ele><time>2026-04-03T10:13:19Z</time></trkpt><trkpt lat="44.378030847975744" lon="8.1327978954126"><ele>639.0</ele><time>2026-04-03T10:13:20Z</time></trkpt><trkpt lat="44.378053585238625" lon="8.132655261712511"><ele>639.0</ele><time>2026-04-03T10:13:21Z</time></trkpt><trkpt lat="44.37808221024789" lon="8.132523587148752"><ele>639.0</ele><time>2026-04-03T10:13:22Z</time></trkpt><trkpt lat="44.37811586708891" lon="8.132387898305538"><ele>639.0</ele><time>2026-04-03T10:13:23Z</time></trkpt><trkpt lat="44.37816815772532" lon="8.132263668819482"><ele>639.0</ele><time>2026-04-03T10:13:24Z</time></trkpt><trkpt lat="44.37824552105571" lon="8.13213425559714"><ele>635.5</ele><time>2026-04-03T10:13:25Z</time></trkpt><trkpt lat="44.37834645763493" lon="8.132011891749269"><ele>632.0</ele><time>2026-04-03T10:13:26Z</time></trkpt><trkpt lat="44.37845546050344" lon="8.131889160705276"><ele>628.5</ele><time>2026-04-03T10:13:27Z</time></trkpt><trkpt lat="44.3785676044261" lon="8.13178862766584"><ele>625.0</ele><time>2026-04-03T10:13:28Z</time></trkpt><trkpt lat="44.37867149199642" lon="8.131679272733022"><ele>625.0</ele><time>2026-04-03T10:13:29Z</time></trkpt><trkpt lat="44.37877611540779" lon="8.131583037509824"><ele>625.0</ele><time>2026-04-03T10:13:30Z</time></trkpt><trkpt lat="44.378877716918446" lon="8.131507827093252"><ele>625.0</ele><time>2026-04-03T10:13:30.999Z</time></trkpt><trkpt lat="44.378985280489914" lon="8.131433534471732"><ele>625.0</ele><time>2026-04-03T10:13:31.999Z</time></trkpt><trkpt lat="44.37908905262072" lon="8.131370034002549"><ele>623.8</ele><time>2026-04-03T10:13:32.999Z</time></trkpt><trkpt lat="44.379200574389486" lon="8.131331895182278"><ele>622.6</ele><time>2026-04-03T10:13:33.999Z</time></trkpt><trkpt lat="44.379307749814494" lon="8.131306298296026"><ele>621.4</ele><time>2026-04-03T10:13:34.999Z</time></trkpt><trkpt lat="44.37940819003757" lon="8.131289138737241"><ele>620.2</ele><time>2026-04-03T10:13:35.999Z</time></trkpt><trkpt lat="44.3795061832743" lon="8.131273682473283"><ele>619.0</ele><time>2026-04-03T10:13:36.999Z</time></trkpt><trkpt lat="44.379592190401205" lon="8.131255892643487"><ele>619.0</ele><time>2026-04-03T10:13:37.999Z</time></trkpt><trkpt lat="44.37966469231933" lon="8.131219140345321"><ele>619.0</ele><time>2026-04-03T10:13:38.999Z</time></trkpt><trkpt lat="44.37974480894492" lon="8.131156898640802"><ele>619.0</ele><time>2026-04-03T10:13:39.999Z</time></trkpt><trkpt lat="44.379819379626966" lon="8.13104484974743"><ele>619.0</ele><time>2026-04-03T10:13:40.999Z</time></trkpt><trkpt lat="44.37988514774018" lon="8.130895414542078"><ele>619.0</ele><time>2026-04-03T10:13:41.999Z</time></trkpt><trkpt lat="44.37994657052893" lon="8.130726886568274"><ele>617.6666666666667</ele><time>2026-04-03T10:13:42.999Z</time></trkpt><trkpt lat="44.37999690372851" lon="8.13053508288041"><ele>616.3333333333334</ele><time>2026-04-03T10:13:43.999Z</time></trkpt><trkpt lat="44.380057338423654" lon="8.130328306876425"><ele>615.0</ele><time>2026-04-03T10:13:44.999Z</time></trkpt><trkpt lat="44.38012518388394" lon="8.13012124723501"><ele>615.0</ele><time>2026-04-03T10:13:45.999Z</time></trkpt><trkpt lat="44.38019005708212" lon="8.129893235515848"><ele>615.0</ele><time>2026-04-03T10:13:46.999Z</time></trkpt><trkpt lat="44.38025103733602" lon="8.129670405442292"><ele>615.0</ele><time>2026-04-03T10:13:47.999Z</time></trkpt><trkpt lat="44.38031473984071" lon="8.129460476833463"><ele>610.6666666666666</ele><time>2026-04-03T10:13:48.999Z</time></trkpt><trkpt lat="44.38037448722877" lon="8.12925611718222"><ele>606.3333333333333</ele><time>2026-04-03T10:13:49.999Z</time></trkpt><trkpt lat="44.38043470383853" lon="8.129072513654448"><ele>602.0</ele><time>2026-04-03T10:13:50.999Z</time></trkpt><trkpt lat="44.38050107518324" lon="8.128883892593326"><ele>603.0</ele><time>2026-04-03T10:13:51.999Z</time></trkpt><trkpt lat="44.38058796058122" lon="8.128678376459943"><ele>604.0</ele><time>2026-04-03T10:13:52.999Z</time></trkpt><trkpt lat="44.3806865987276" lon="8.128469062815254"><ele>605.0</ele><time>2026-04-03T10:13:53.999Z</time></trkpt><trkpt lat="44.380798932275" lon="8.128251013504853"><ele>599.6666666666666</ele><time>2026-04-03T10:13:54.999Z</time></trkpt><trkpt lat="44.38092128776612" lon="8.128027256061502"><ele>594.3333333333334</ele><time>2026-04-03T10:13:55.999Z</time></trkpt><trkpt lat="44.381048281370155" lon="8.127792328266667"><ele>589.0</ele><time>2026-04-03T10:13:56.999Z</time></trkpt><trkpt lat="44.381183087326846" lon="8.12754777268752"><ele>587.5</ele><time>2026-04-03T10:13:57.999Z</time></trkpt><trkpt lat="44.38131978072317" lon="8.127283343125045"><ele>586.0</ele><time>2026-04-03T10:13:58.999Z</time></trkpt><trkpt lat="44.3814616048674" lon="8.127010874589844"><ele>584.6666666666667</ele><time>2026-04-03T10:13:59.999Z</time></trkpt><trkpt lat="44.38159748327471" lon="8.12675414856902"><ele>583.3333333333334</ele><time>2026-04-03T10:14:00.999Z</time></trkpt><trkpt lat="44.381724368647156" lon="8.12650731687957"><ele>582.0</ele><time>2026-04-03T10:14:01.999Z</time></trkpt><trkpt lat="44.38184365473021" lon="8.1262711488412"><ele>582.0</ele><time>2026-04-03T10:14:02.999Z</time></trkpt><trkpt lat="44.38195957838664" lon="8.126038824686155"><ele>582.0</ele><time>2026-04-03T10:14:03.999Z</time></trkpt><trkpt lat="44.382069772105076" lon="8.12581651155233"><ele>582.0</ele><time>2026-04-03T10:14:04.999Z</time></trkpt><trkpt lat="44.38217040071715" lon="8.125611060978635"><ele>584.0</ele><time>2026-04-03T10:14:05.999Z</time></trkpt><trkpt lat="44.38225182229586" lon="8.125440960159395"><ele>586.0</ele><time>2026-04-03T10:14:06.999Z</time></trkpt><trkpt lat="44.382330368405974" lon="8.125266547443228"><ele>588.0</ele><time>2026-04-03T10:14:07.999Z</time></trkpt><trkpt lat="44.382412232702585" lon="8.125073531809209"><ele>583.3333333333334</ele><time>2026-04-03T10:14:08.999Z</time></trkpt><trkpt lat="44.382486525006705" lon="8.12484856459452"><ele>578.6666666666667</ele><time>2026-04-03T10:14:09.999Z</time></trkpt><trkpt lat="44.3825569705807" lon="8.124648460881557"><ele>574.0</ele><time>2026-04-03T10:14:10.999Z</time></trkpt><trkpt lat="44.38263726842072" lon="8.124457067944412"><ele>574.0</ele><time>2026-04-03T10:14:11.999Z</time></trkpt><trkpt lat="44.382709227601126" lon="8.124273704169212"><ele>574.0</ele><time>2026-04-03T10:14:12.999Z</time></trkpt><trkpt lat="44.382772202743794" lon="8.124051874935665"><ele>574.0</ele><time>2026-04-03T10:14:13.999Z</time></trkpt><trkpt lat="44.38281412472813" lon="8.123796285441873"><ele>572.6666666666667</ele><time>2026-04-03T10:14:14.999Z</time></trkpt><trkpt lat="44.38286547935102" lon="8.123563223588512"><ele>571.3333333333334</ele><time>2026-04-03T10:14:15.999Z</time></trkpt><trkpt lat="44.3829145539733" lon="8.123333601035199"><ele>570.0</ele><time>2026-04-03T10:14:16.999Z</time></trkpt><trkpt lat="44.382961062924785" lon="8.123126046754221"><ele>569.0</ele><time>2026-04-03T10:14:17.999Z</time></trkpt><trkpt lat="44.38300944802724" lon="8.12291271435837"><ele>568.0</ele><time>2026-04-03T10:14:18.999Z</time></trkpt><trkpt lat="44.38306847343869" lon="8.12271571501644"><ele>567.0</ele><time>2026-04-03T10:14:19.999Z</time></trkpt><trkpt lat="44.383128467898196" lon="8.122522570665469"><ele>565.5</ele><time>2026-04-03T10:14:20.999Z</time></trkpt><trkpt lat="44.38319201438297" lon="8.12234782259344"><ele>564.0</ele><time>2026-04-03T10:14:21.999Z</time></trkpt><trkpt lat="44.383252920161844" lon="8.122179085461475"><ele>562.5</ele><time>2026-04-03T10:14:22.999Z</time></trkpt><trkpt lat="44.383318137823444" lon="8.122034148118106"><ele>561.0</ele><time>2026-04-03T10:14:23.999Z</time></trkpt><trkpt lat="44.38339778563668" lon="8.121885437761344"><ele>561.0</ele><time>2026-04-03T10:14:24.999Z</time></trkpt><trkpt lat="44.38350437425428" lon="8.121732454479263"><ele>561.0</ele><time>2026-04-03T10:14:25.999Z</time></trkpt><trkpt lat="44.38362314766812" lon="8.12157912520834"><ele>561.0</ele><time>2026-04-03T10:14:26.999Z</time></trkpt><trkpt lat="44.38373818113078" lon="8.121427606587732"><ele>560.0</ele><time>2026-04-03T10:14:27.999Z</time></trkpt><trkpt lat="44.38384930358254" lon="8.121283621496438"><ele>559.0</ele><time>2026-04-03T10:14:28.999Z</time></trkpt><trkpt lat="44.3839562022928" lon="8.121145997508792"><ele>558.0</ele><time>2026-04-03T10:14:29.999Z</time></trkpt><trkpt lat="44.3840654952265" lon="8.121009773957274"><ele>557.0</ele><time>2026-04-03T10:14:30.999Z</time></trkpt><trkpt lat="44.38416356144673" lon="8.120855267820152"><ele>554.5</ele><time>2026-04-03T10:14:31.998Z</time></trkpt><trkpt lat="44.384262016323646" lon="8.120710332493756"><ele>552.0</ele><time>2026-04-03T10:14:32.998Z</time></trkpt><trkpt lat="44.384359445683586" lon="8.120552306669428"><ele>549.5</ele><time>2026-04-03T10:14:33.998Z</time></trkpt><trkpt lat="44.384454364002366" lon="8.120380505927097"><ele>547.0</ele><time>2026-04-03T10:14:34.998Z</time></trkpt><trkpt lat="44.38454458640883" lon="8.120212293329237"><ele>547.0</ele><time>2026-04-03T10:14:35.998Z</time></trkpt><trkpt lat="44.38462379166265" lon="8.12004066137254"><ele>547.0</ele><time>2026-04-03T10:14:36.998Z</time></trkpt><trkpt lat="44.38469995976403" lon="8.119855290767376"><ele>547.0</ele><time>2026-04-03T10:14:37.998Z</time></trkpt><trkpt lat="44.384770674021986" lon="8.119648990678042"><ele>546.6666666666667</ele><time>2026-04-03T10:14:38.998Z</time></trkpt><trkpt lat="44.384830859995596" lon="8.119435494267895"><ele>546.3333333333334</ele><time>2026-04-03T10:14:39.998Z</time></trkpt><trkpt lat="44.384876886884" lon="8.119234852832653"><ele>546.0</ele><time>2026-04-03T10:14:40.998Z</time></trkpt><trkpt lat="44.38491215840877" lon="8.119019566647385"><ele>546.6666666666666</ele><time>2026-04-03T10:14:41.998Z</time></trkpt><trkpt lat="44.38493963277101" lon="8.118799578709357"><ele>547.3333333333333</ele><time>2026-04-03T10:14:42.998Z</time></trkpt><trkpt lat="44.38495408080127" lon="8.118572340217575"><ele>548.0</ele><time>2026-04-03T10:14:43.998Z</time></trkpt><trkpt lat="44.38495015922122" lon="8.118328061623528"><ele>549.3333333333333</ele><time>2026-04-03T10:14:44.998Z</time></trkpt><trkpt lat="44.38493452226362" lon="8.118099457869537"><ele>550.6666666666666</ele><time>2026-04-03T10:14:45.998Z</time></trkpt><trkpt lat="44.38492050998745" lon="8.117889902153925"><ele>552.0</ele><time>2026-04-03T10:14:47Z</time></trkpt><trkpt lat="44.384900901071035" lon="8.117680948219759"><ele>552.0</ele><time>2026-04-03T10:14:48Z</time></trkpt><trkpt lat="44.384876633984945" lon="8.11747103873073"><ele>552.0</ele><time>2026-04-03T10:14:49Z</time></trkpt><trkpt lat="44.384854958957376" lon="8.117275416869386"><ele>552.0</ele><time>2026-04-03T10:14:50Z</time></trkpt><trkpt lat="44.38482581669997" lon="8.11707896771677"><ele>552.0</ele><time>2026-04-03T10:14:51Z</time></trkpt><trkpt lat="44.38478659448752" lon="8.116879927703842"><ele>553.25</ele><time>2026-04-03T10:14:52Z</time></trkpt><trkpt lat="44.38474699385815" lon="8.116693630537224"><ele>554.5</ele><time>2026-04-03T10:14:53Z</time></trkpt><trkpt lat="44.384704939699326" lon="8.116513147027451"><ele>555.75</ele><time>2026-04-03T10:14:54Z</time></trkpt><trkpt lat="44.38466355164957" lon="8.11634609790352"><ele>557.0</ele><time>2026-04-03T10:14:55Z</time></trkpt><trkpt lat="44.38462350691814" lon="8.116185424095544"><ele>551.75</ele><time>2026-04-03T10:14:56Z</time></trkpt><trkpt lat="44.384585471709826" lon="8.11602673919722"><ele>546.5</ele><time>2026-04-03T10:14:57Z</time></trkpt><trkpt lat="44.38454642688658" lon="8.115875720608877"><ele>541.25</ele><time>2026-04-03T10:14:58Z</time></trkpt><trkpt lat="44.38450215689307" lon="8.115739494893877"><ele>536.0</ele><time>2026-04-03T10:14:59Z</time></trkpt><trkpt lat="44.38444222039366" lon="8.115598160548899"><ele>536.0</ele><time>2026-04-03T10:15:00Z</time></trkpt><trkpt lat="44.384356101247725" lon="8.115466185909748"><ele>536.0</ele><time>2026-04-03T10:15:01Z</time></trkpt><trkpt lat="44.38426206064714" lon="8.115355572801947"><ele>536.0</ele><time>2026-04-03T10:15:02Z</time></trkpt><trkpt lat="44.38414172140648" lon="8.11526453808516"><ele>536.0</ele><time>2026-04-03T10:15:03Z</time></trkpt><trkpt lat="44.384024167339895" lon="8.115202076565293"><ele>536.0</ele><time>2026-04-03T10:15:04Z</time></trkpt><trkpt lat="44.38392330576338" lon="8.115146242679568"><ele>536.0</ele><time>2026-04-03T10:15:05Z</time></trkpt><trkpt lat="44.38382971162766" lon="8.115090155678445"><ele>536.0</ele><time>2026-04-03T10:15:06Z</time></trkpt><trkpt lat="44.38373810020275" lon="8.115031507181625"><ele>536.0</ele><time>2026-04-03T10:15:07Z</time></trkpt><trkpt lat="44.38366080822773" lon="8.114961008606087"><ele>536.0</ele><time>2026-04-03T10:15:08Z</time></trkpt><trkpt lat="44.383590676859015" lon="8.114873737315635"><ele>533.2</ele><time>2026-04-03T10:15:09Z</time></trkpt><trkpt lat="44.3835279183931" lon="8.114761305324365"><ele>530.4000000000001</ele><time>2026-04-03T10:15:10Z</time></trkpt><trkpt lat="44.38347765385682" lon="8.114634662312008"><ele>527.6</ele><time>2026-04-03T10:15:11Z</time></trkpt><trkpt lat="44.38344433272594" lon="8.114505424855706"><ele>524.8000000000001</ele><time>2026-04-03T10:15:12Z</time></trkpt><trkpt lat="44.383423533112094" lon="8.114363337387433"><ele>522.0</ele><time>2026-04-03T10:15:13Z</time></trkpt><trkpt lat="44.38341932372945" lon="8.114202577554863"><ele>522.75</ele><time>2026-04-03T10:15:14Z</time></trkpt><trkpt lat="44.383438515502625" lon="8.114028190903614"><ele>523.5</ele><time>2026-04-03T10:15:15Z</time></trkpt><trkpt lat="44.383473495801" lon="8.113841788675698"><ele>524.25</ele><time>2026-04-03T10:15:16Z</time></trkpt><trkpt lat="44.38351874117121" lon="8.113658138637973"><ele>525.0</ele><time>2026-04-03T10:15:17Z</time></trkpt><trkpt lat="44.38357277777351" lon="8.11346698170635"><ele>525.0</ele><time>2026-04-03T10:15:18Z</time></trkpt><trkpt lat="44.38362353544217" lon="8.113263399892796"><ele>525.0</ele><time>2026-04-03T10:15:19Z</time></trkpt><trkpt lat="44.38366817331649" lon="8.113050964079859"><ele>525.0</ele><time>2026-04-03T10:15:20Z</time></trkpt><trkpt lat="44.38370330727671" lon="8.11283838767663"><ele>524.5</ele><time>2026-04-03T10:15:21Z</time></trkpt><trkpt lat="44.38373708533198" lon="8.11264218027466"><ele>524.0</ele><time>2026-04-03T10:15:22Z</time></trkpt><trkpt lat="44.3837618709788" lon="8.112478414938549"><ele>523.5</ele><time>2026-04-03T10:15:23Z</time></trkpt><trkpt lat="44.38378653537077" lon="8.112331279094398"><ele>523.0</ele><time>2026-04-03T10:15:24Z</time></trkpt><trkpt lat="44.383804264424846" lon="8.112171111092612"><ele>523.0</ele><time>2026-04-03T10:15:25Z</time></trkpt><trkpt lat="44.38380316160234" lon="8.111987212087357"><ele>523.0</ele><time>2026-04-03T10:15:26Z</time></trkpt><trkpt lat="44.38378271242997" lon="8.1117954135051"><ele>523.0</ele><time>2026-04-03T10:15:27Z</time></trkpt><trkpt lat="44.38373550486082" lon="8.111602453048297"><ele>523.0</ele><time>2026-04-03T10:15:28Z</time></trkpt><trkpt lat="44.383677451990614" lon="8.111430458049387"><ele>523.0</ele><time>2026-04-03T10:15:29Z</time></trkpt><trkpt lat="44.38361414520604" lon="8.111262123116555"><ele>523.0</ele><time>2026-04-03T10:15:30Z</time></trkpt><trkpt lat="44.383525881951634" lon="8.111081827029013"><ele>523.0</ele><time>2026-04-03T10:15:31Z</time></trkpt><trkpt lat="44.38342139555572" lon="8.110917762865187"><ele>523.0</ele><time>2026-04-03T10:15:32Z</time></trkpt><trkpt lat="44.38333357379044" lon="8.110786175986473"><ele>524.4</ele><time>2026-04-03T10:15:33Z</time></trkpt><trkpt lat="44.38325918750128" lon="8.110666553222497"><ele>525.8</ele><time>2026-04-03T10:15:34Z</time></trkpt><trkpt lat="44.38320024972606" lon="8.110533299200727"><ele>527.2</ele><time>2026-04-03T10:15:35Z</time></trkpt><trkpt lat="44.38316483704176" lon="8.110396480905026"><ele>528.6</ele><time>2026-04-03T10:15:35.999Z</time></trkpt><trkpt lat="44.383143317184754" lon="8.110234183103325"><ele>530.0</ele><time>2026-04-03T10:15:36.999Z</time></trkpt><trkpt lat="44.38313712040714" lon="8.110059707366759"><ele>532.25</ele><time>2026-04-03T10:15:37.999Z</time></trkpt><trkpt lat="44.38312014396027" lon="8.109874866401013"><ele>534.5</ele><time>2026-04-03T10:15:38.999Z</time></trkpt><trkpt lat="44.3830997946563" lon="8.109679193857607"><ele>536.75</ele><time>2026-04-03T10:15:39.999Z</time></trkpt><trkpt lat="44.383076952284384" lon="8.10947780337624"><ele>539.0</ele><time>2026-04-03T10:15:40.999Z</time></trkpt><trkpt lat="44.38304406575038" lon="8.109268804257857"><ele>529.3333333333333</ele><time>2026-04-03T10:15:41.999Z</time></trkpt><trkpt lat="44.383005970528004" lon="8.109067642964652"><ele>519.6666666666666</ele><time>2026-04-03T10:15:42.999Z</time></trkpt><trkpt lat="44.3829295724505" lon="8.108856955079562"><ele>510.0</ele><time>2026-04-03T10:15:43.999Z</time></trkpt><trkpt lat="44.38284917828546" lon="8.108661781259768"><ele>510.0</ele><time>2026-04-03T10:15:44.999Z</time></trkpt><trkpt lat="44.38278972170262" lon="8.108492682176234"><ele>510.0</ele><time>2026-04-03T10:15:45.999Z</time></trkpt><trkpt lat="44.38273249007144" lon="8.108335934745028"><ele>510.0</ele><time>2026-04-03T10:15:46.999Z</time></trkpt><trkpt lat="44.38267475978463" lon="8.108166048290602"><ele>510.0</ele><time>2026-04-03T10:15:47.999Z</time></trkpt><trkpt lat="44.3826049536099" lon="8.107990460939028"><ele>514.6666666666666</ele><time>2026-04-03T10:15:48.999Z</time></trkpt><trkpt lat="44.382515784563815" lon="8.107809578308565"><ele>519.3333333333333</ele><time>2026-04-03T10:15:49.999Z</time></trkpt><trkpt lat="44.38240136531099" lon="8.107649794776806"><ele>524.0</ele><time>2026-04-03T10:15:50.999Z</time></trkpt><trkpt lat="44.38227721836803" lon="8.107481180092773"><ele>520.6666666666666</ele><time>2026-04-03T10:15:51.999Z</time></trkpt><trkpt lat="44.38215559078036" lon="8.107312569629531"><ele>517.3333333333334</ele><time>2026-04-03T10:15:52.999Z</time></trkpt><trkpt lat="44.38203059010884" lon="8.107142931578325"><ele>514.0</ele><time>2026-04-03T10:15:53.999Z</time></trkpt><trkpt lat="44.381914558671845" lon="8.106986999036351"><ele>514.0</ele><time>2026-04-03T10:15:54.999Z</time></trkpt><trkpt lat="44.381801527999336" lon="8.106829194403808"><ele>514.0</ele><time>2026-04-03T10:15:55.999Z</time></trkpt><trkpt lat="44.38168228313623" lon="8.106661799349851"><ele>514.0</ele><time>2026-04-03T10:15:56.999Z</time></trkpt><trkpt lat="44.38156232699802" lon="8.106487980013561"><ele>512.0</ele><time>2026-04-03T10:15:57.999Z</time></trkpt><trkpt lat="44.38145196976216" lon="8.1063264926889"><ele>510.0</ele><time>2026-04-03T10:15:58.999Z</time></trkpt><trkpt lat="44.381355655855664" lon="8.106171935409742"><ele>508.0</ele><time>2026-04-03T10:15:59.999Z</time></trkpt><trkpt lat="44.3812673322351" lon="8.106025504717355"><ele>506.0</ele><time>2026-04-03T10:16:00.999Z</time></trkpt><trkpt lat="44.38118124665145" lon="8.105885390218848"><ele>506.0</ele><time>2026-04-03T10:16:01.999Z</time></trkpt><trkpt lat="44.38110281634461" lon="8.105755852317138"><ele>506.0</ele><time>2026-04-03T10:16:02.999Z</time></trkpt><trkpt lat="44.3810280996851" lon="8.105635433445562"><ele>506.0</ele><time>2026-04-03T10:16:03.999Z</time></trkpt><trkpt lat="44.38096178354982" lon="8.10551797743548"><ele>506.0</ele><time>2026-04-03T10:16:04.999Z</time></trkpt><trkpt lat="44.3808956036245" lon="8.105409224004589"><ele>506.0</ele><time>2026-04-03T10:16:05.999Z</time></trkpt><trkpt lat="44.38083809633635" lon="8.105281723805646"><ele>507.75</ele><time>2026-04-03T10:16:06.999Z</time></trkpt><trkpt lat="44.38079369095822" lon="8.105134049346791"><ele>509.5</ele><time>2026-04-03T10:16:07.999Z</time></trkpt><trkpt lat="44.38076580224361" lon="8.104954894582217"><ele>511.25</ele><time>2026-04-03T10:16:08.999Z</time></trkpt><trkpt lat="44.38075376973668" lon="8.104756225632432"><ele>513.0</ele><time>2026-04-03T10:16:09.999Z</time></trkpt><trkpt lat="44.38073021061429" lon="8.104560185676071"><ele>516.0</ele><time>2026-04-03T10:16:10.999Z</time></trkpt><trkpt lat="44.38068734454626" lon="8.104355843205788"><ele>519.0</ele><time>2026-04-03T10:16:11.999Z</time></trkpt><trkpt lat="44.38061637604216" lon="8.104155462830606"><ele>522.0</ele><time>2026-04-03T10:16:12.999Z</time></trkpt><trkpt lat="44.38054937025549" lon="8.103964849217272"><ele>516.5</ele><time>2026-04-03T10:16:13.999Z</time></trkpt><trkpt lat="44.380485053500166" lon="8.10377806559295"><ele>511.0</ele><time>2026-04-03T10:16:14.999Z</time></trkpt><trkpt lat="44.38042113314402" lon="8.103607393603193"><ele>505.5</ele><time>2026-04-03T10:16:15.999Z</time></trkpt><trkpt lat="44.38035654442258" lon="8.10343375742037"><ele>500.0</ele><time>2026-04-03T10:16:16.999Z</time></trkpt><trkpt lat="44.380268195834354" lon="8.103251896099314"><ele>504.3333333333333</ele><time>2026-04-03T10:16:17.999Z</time></trkpt><trkpt lat="44.38015844189016" lon="8.103074542158371"><ele>508.66666666666663</ele><time>2026-04-03T10:16:18.999Z</time></trkpt><trkpt lat="44.38003575381623" lon="8.102907576250471"><ele>513.0</ele><time>2026-04-03T10:16:19.999Z</time></trkpt><trkpt lat="44.37989715543954" lon="8.102744375746552"><ele>513.0</ele><time>2026-04-03T10:16:20.999Z</time></trkpt><trkpt lat="44.3797687603938" lon="8.102601065849836"><ele>513.0</ele><time>2026-04-03T10:16:21.999Z</time></trkpt><trkpt lat="44.3796422621628" lon="8.102460895358172"><ele>513.0</ele><time>2026-04-03T10:16:22.999Z</time></trkpt><trkpt lat="44.379509431843275" lon="8.102326829694919"><ele>510.33333333333337</ele><time>2026-04-03T10:16:23.999Z</time></trkpt><trkpt lat="44.3793734453598" lon="8.102189216233363"><ele>507.6666666666667</ele><time>2026-04-03T10:16:24.999Z</time></trkpt><trkpt lat="44.3792424296475" lon="8.102054794898443"><ele>505.0</ele><time>2026-04-03T10:16:25.999Z</time></trkpt><trkpt lat="44.37911965901672" lon="8.101928659337753"><ele>505.0</ele><time>2026-04-03T10:16:26.999Z</time></trkpt><trkpt lat="44.378990773899574" lon="8.101797988731596"><ele>505.0</ele><time>2026-04-03T10:16:27.999Z</time></trkpt><trkpt lat="44.378855575678216" lon="8.101661325952412"><ele>505.0</ele><time>2026-04-03T10:16:28.999Z</time></trkpt><trkpt lat="44.37872832051635" lon="8.101536737825207"><ele>502.25</ele><time>2026-04-03T10:16:29.999Z</time></trkpt><trkpt lat="44.37861096276198" lon="8.101420682061464"><ele>499.5</ele><time>2026-04-03T10:16:30.999Z</time></trkpt><trkpt lat="44.37850117312116" lon="8.101302242637393"><ele>496.75</ele><time>2026-04-03T10:16:31.999Z</time></trkpt><trkpt lat="44.37838849527896" lon="8.101153876625688"><ele>494.0</ele><time>2026-04-03T10:16:32.999Z</time></trkpt><trkpt lat="44.37827810896044" lon="8.100979799967368"><ele>494.0</ele><time>2026-04-03T10:16:33.999Z</time></trkpt><trkpt lat="44.37818578396545" lon="8.100814458195027"><ele>494.0</ele><time>2026-04-03T10:16:34.998Z</time></trkpt><trkpt lat="44.37809805035804" lon="8.100665623823392"><ele>494.0</ele><time>2026-04-03T10:16:35.998Z</time></trkpt><trkpt lat="44.37800724490291" lon="8.100508639328625"><ele>494.0</ele><time>2026-04-03T10:16:36.998Z</time></trkpt><trkpt lat="44.377891135801654" lon="8.100351303806072"><ele>493.0</ele><time>2026-04-03T10:16:37.998Z</time></trkpt><trkpt lat="44.377750959060094" lon="8.100211493349091"><ele>492.0</ele><time>2026-04-03T10:16:38.998Z</time></trkpt><trkpt lat="44.377613645173184" lon="8.10007904356263"><ele>491.0</ele><time>2026-04-03T10:16:39.998Z</time></trkpt><trkpt lat="44.37748845854636" lon="8.099972642378676"><ele>490.75</ele><time>2026-04-03T10:16:40.998Z</time></trkpt><trkpt lat="44.37736685314273" lon="8.099862017946885"><ele>490.5</ele><time>2026-04-03T10:16:41.998Z</time></trkpt><trkpt lat="44.37725384520161" lon="8.099747223174214"><ele>490.25</ele><time>2026-04-03T10:16:42.998Z</time></trkpt><trkpt lat="44.377148042203586" lon="8.099640043025762"><ele>490.0</ele><time>2026-04-03T10:16:43.998Z</time></trkpt><trkpt lat="44.37705853231914" lon="8.099561968609768"><ele>490.0</ele><time>2026-04-03T10:16:44.998Z</time></trkpt><trkpt lat="44.37696828876019" lon="8.09947782610855"><ele>490.0</ele><time>2026-04-03T10:16:45.998Z</time></trkpt><trkpt lat="44.3768913511533" lon="8.09940396313947"><ele>490.0</ele><time>2026-04-03T10:16:46.998Z</time></trkpt><trkpt lat="44.37682332778295" lon="8.099330085084368"><ele>490.0</ele><time>2026-04-03T10:16:47.998Z</time></trkpt><trkpt lat="44.37675775619383" lon="8.09926015991523"><ele>490.0</ele><time>2026-04-03T10:16:48.998Z</time></trkpt><trkpt lat="44.376676640831626" lon="8.0991713633284"><ele>490.4</ele><time>2026-04-03T10:16:49.998Z</time></trkpt><trkpt lat="44.37660979724474" lon="8.099070456410084"><ele>490.8</ele><time>2026-04-03T10:16:50.998Z</time></trkpt><trkpt lat="44.376540451115865" lon="8.099012822426085"><ele>491.20000000000005</ele><time>2026-04-03T10:16:51.998Z</time></trkpt><trkpt lat="44.37650309701338" lon="8.098885692086236"><ele>491.6</ele><time>2026-04-03T10:16:53Z</time></trkpt><trkpt lat="44.37645485367837" lon="8.098764961522601"><ele>492.0</ele><time>2026-04-03T10:16:54Z</time></trkpt><trkpt lat="44.37641577156287" lon="8.098633967978328"><ele>492.0</ele><time>2026-04-03T10:16:55Z</time></trkpt><trkpt lat="44.37638763786046" lon="8.098508070311917"><ele>492.00000000000006</ele><time>2026-04-03T10:16:56Z</time></trkpt><trkpt lat="44.3763743361068" lon="8.098384933170067"><ele>492.00000000000006</ele><time>2026-04-03T10:16:57Z</time></trkpt><trkpt lat="44.376373330790116" lon="8.098244469025724"><ele>492.0</ele><time>2026-04-03T10:16:58Z</time></trkpt><trkpt lat="44.37637292278278" lon="8.098091170032097"><ele>492.0</ele><time>2026-04-03T10:16:59Z</time></trkpt><trkpt lat="44.37637003549731" lon="8.097949727622527"><ele>491.20000000000005</ele><time>2026-04-03T10:17:00Z</time></trkpt><trkpt lat="44.376363717786774" lon="8.097819729080369"><ele>490.40000000000003</ele><time>2026-04-03T10:17:01Z</time></trkpt><trkpt lat="44.376352976626514" lon="8.097667539506968"><ele>489.59999999999997</ele><time>2026-04-03T10:17:02Z</time></trkpt><trkpt lat="44.37632985649086" lon="8.097528001357505"><ele>488.79999999999995</ele><time>2026-04-03T10:17:03Z</time></trkpt><trkpt lat="44.3762912990883" lon="8.09739422522569"><ele>488.0</ele><time>2026-04-03T10:17:04Z</time></trkpt><trkpt lat="44.37624842353346" lon="8.09726753376767"><ele>486.2</ele><time>2026-04-03T10:17:05Z</time></trkpt><trkpt lat="44.37619637598894" lon="8.097149437226085"><ele>484.4</ele><time>2026-04-03T10:17:06Z</time></trkpt><trkpt lat="44.37612931927769" lon="8.097034819349641"><ele>482.59999999999997</ele><time>2026-04-03T10:17:07Z</time></trkpt><trkpt lat="44.37605168426739" lon="8.096918955239971"><ele>480.79999999999995</ele><time>2026-04-03T10:17:08Z</time></trkpt><trkpt lat="44.375977922822855" lon="8.09681736808968"><ele>479.0</ele><time>2026-04-03T10:17:09Z</time></trkpt><trkpt lat="44.375919032963026" lon="8.096718851352497"><ele>479.0</ele><time>2026-04-03T10:17:10Z</time></trkpt><trkpt lat="44.375858513747254" lon="8.096624482621497"><ele>479.0</ele><time>2026-04-03T10:17:11Z</time></trkpt><trkpt lat="44.375792707055744" lon="8.096524488026242"><ele>479.0</ele><time>2026-04-03T10:17:12Z</time></trkpt><trkpt lat="44.37572426946187" lon="8.096423836046679"><ele>479.0</ele><time>2026-04-03T10:17:13Z</time></trkpt><trkpt lat="44.37565996835183" lon="8.0963320750435"><ele>479.0</ele><time>2026-04-03T10:17:14Z</time></trkpt><trkpt lat="44.37560363018288" lon="8.096241367617294"><ele>479.16666666666663</ele><time>2026-04-03T10:17:15Z</time></trkpt><trkpt lat="44.37554956479304" lon="8.096162837274825"><ele>479.3333333333333</ele><time>2026-04-03T10:17:16Z</time></trkpt><trkpt lat="44.37550111634587" lon="8.096080076440115"><ele>479.5</ele><time>2026-04-03T10:17:17Z</time></trkpt><trkpt lat="44.375469740267334" lon="8.095993922363151"><ele>479.66666666666663</ele><time>2026-04-03T10:17:18Z</time></trkpt><trkpt lat="44.375450100457684" lon="8.095901604518982"><ele>479.8333333333333</ele><time>2026-04-03T10:17:19Z</time></trkpt><trkpt lat="44.37542902573373" lon="8.095746230927988"><ele>480.0</ele><time>2026-04-03T10:17:21Z</time></trkpt><trkpt lat="44.37544194043982" lon="8.09565888253154"><ele>480.1666666666667</ele><time>2026-04-03T10:17:22Z</time></trkpt><trkpt lat="44.37546822555774" lon="8.095511224824236"><ele>480.33333333333337</ele><time>2026-04-03T10:17:24Z</time></trkpt><trkpt lat="44.37549405372533" lon="8.095421204097493"><ele>480.5</ele><time>2026-04-03T10:17:25Z</time></trkpt><trkpt lat="44.375512002278306" lon="8.095329587674003"><ele>480.6666666666667</ele><time>2026-04-03T10:17:26Z</time></trkpt><trkpt lat="44.37555660507232" lon="8.095267258046233"><ele>480.83333333333337</ele><time>2026-04-03T10:17:27Z</time></trkpt><trkpt lat="44.37559433857471" lon="8.095088055540954"><ele>481.0</ele><time>2026-04-03T10:17:29Z</time></trkpt><trkpt lat="44.37561749414358" lon="8.094986260946612"><ele>480.33333333333337</ele><time>2026-04-03T10:17:30Z</time></trkpt><trkpt lat="44.375639958353254" lon="8.094887505305428"><ele>479.6666666666667</ele><time>2026-04-03T10:17:31Z</time></trkpt><trkpt lat="44.3756795781611" lon="8.094710630384048"><ele>479.0</ele><time>2026-04-03T10:17:33Z</time></trkpt><trkpt lat="44.37570087606371" lon="8.094615589132294"><ele>478.33333333333337</ele><time>2026-04-03T10:17:34Z</time></trkpt><trkpt lat="44.37572250861044" lon="8.094519054581347"><ele>477.6666666666667</ele><time>2026-04-03T10:17:35Z</time></trkpt><trkpt lat="44.37574687760237" lon="8.09441030871687"><ele>477.0</ele><time>2026-04-03T10:17:36Z</time></trkpt><trkpt lat="44.375782810532414" lon="8.094319060642245"><ele>477.0</ele><time>2026-04-03T10:17:37Z</time></trkpt><trkpt lat="44.375790791632085" lon="8.094214343802456"><ele>477.0</ele><time>2026-04-03T10:17:38Z</time></trkpt><trkpt lat="44.37581458773777" lon="8.094108153298526"><ele>477.0</ele><time>2026-04-03T10:17:39Z</time></trkpt><trkpt lat="44.37584120006537" lon="8.093990829241047"><ele>477.0</ele><time>2026-04-03T10:17:39.999Z</time></trkpt><trkpt lat="44.375872937478945" lon="8.093869262512941"><ele>477.0</ele><time>2026-04-03T10:17:40.999Z</time></trkpt><trkpt lat="44.37589184753586" lon="8.093751731992052"><ele>477.0</ele><time>2026-04-03T10:17:41.999Z</time></trkpt><trkpt lat="44.37593179683504" lon="8.093627108083323"><ele>476.20000000000005</ele><time>2026-04-03T10:17:42.999Z</time></trkpt><trkpt lat="44.3759529746436" lon="8.093476869430376"><ele>475.40000000000003</ele><time>2026-04-03T10:17:43.999Z</time></trkpt><trkpt lat="44.37599027998062" lon="8.093364958800436"><ele>474.59999999999997</ele><time>2026-04-03T10:17:44.999Z</time></trkpt><trkpt lat="44.37601091526235" lon="8.093257032251273"><ele>473.79999999999995</ele><time>2026-04-03T10:17:45.999Z</time></trkpt><trkpt lat="44.37603777828196" lon="8.093118949660045"><ele>473.0</ele><time>2026-04-03T10:17:46.999Z</time></trkpt><trkpt lat="44.37606535746829" lon="8.09299652835653"><ele>472.66666666666663</ele><time>2026-04-03T10:17:47.999Z</time></trkpt><trkpt lat="44.37609250002958" lon="8.092882679827438"><ele>472.3333333333333</ele><time>2026-04-03T10:17:48.999Z</time></trkpt><trkpt lat="44.376114315796364" lon="8.092772755439588"><ele>472.0</ele><time>2026-04-03T10:17:49.999Z</time></trkpt><trkpt lat="44.376137857626304" lon="8.092650102187243"><ele>471.66666666666663</ele><time>2026-04-03T10:17:50.999Z</time></trkpt><trkpt lat="44.376167620749015" lon="8.092536272967184"><ele>471.3333333333333</ele><time>2026-04-03T10:17:51.999Z</time></trkpt><trkpt lat="44.376190035576094" lon="8.092423356794654"><ele>471.0</ele><time>2026-04-03T10:17:52.999Z</time></trkpt><trkpt lat="44.37621901187962" lon="8.092307023463231"><ele>470.8333333333333</ele><time>2026-04-03T10:17:53.999Z</time></trkpt><trkpt lat="44.37624354015756" lon="8.09218323667279"><ele>470.66666666666663</ele><time>2026-04-03T10:17:54.999Z</time></trkpt><trkpt lat="44.37626032829908" lon="8.092051716614945"><ele>470.5</ele><time>2026-04-03T10:17:55.999Z</time></trkpt><trkpt lat="44.37627020622653" lon="8.091930950185398"><ele>470.3333333333333</ele><time>2026-04-03T10:17:56.999Z</time></trkpt><trkpt lat="44.376276560128524" lon="8.091824667419464"><ele>470.16666666666663</ele><time>2026-04-03T10:17:57.999Z</time></trkpt><trkpt lat="44.376284922064514" lon="8.091700115937028"><ele>470.0</ele><time>2026-04-03T10:17:58.999Z</time></trkpt><trkpt lat="44.376298991872936" lon="8.091570788774854"><ele>469.8</ele><time>2026-04-03T10:17:59.999Z</time></trkpt><trkpt lat="44.37631509621902" lon="8.091440487753344"><ele>469.6</ele><time>2026-04-03T10:18:00.999Z</time></trkpt><trkpt lat="44.376335866527505" lon="8.091296384102478"><ele>469.4</ele><time>2026-04-03T10:18:01.999Z</time></trkpt><trkpt lat="44.376344637788904" lon="8.09116690136261"><ele>469.2</ele><time>2026-04-03T10:18:02.999Z</time></trkpt><trkpt lat="44.376357016948376" lon="8.091045442600983"><ele>469.0</ele><time>2026-04-03T10:18:03.999Z</time></trkpt><trkpt lat="44.37636583170493" lon="8.090924940786088"><ele>469.0</ele><time>2026-04-03T10:18:04.999Z</time></trkpt><trkpt lat="44.37637697858505" lon="8.090789814844685"><ele>469.0</ele><time>2026-04-03T10:18:05.999Z</time></trkpt><trkpt lat="44.376385624610876" lon="8.090637578089927"><ele>469.0</ele><time>2026-04-03T10:18:06.999Z</time></trkpt><trkpt lat="44.37638271907293" lon="8.090472567291734"><ele>469.0</ele><time>2026-04-03T10:18:07.999Z</time></trkpt><trkpt lat="44.37638787504718" lon="8.090282920791775"><ele>469.0</ele><time>2026-04-03T10:18:08.999Z</time></trkpt><trkpt lat="44.37639722385616" lon="8.090093114446484"><ele>469.0</ele><time>2026-04-03T10:18:09.999Z</time></trkpt><trkpt lat="44.37639585222768" lon="8.08992696591704"><ele>469.0</ele><time>2026-04-03T10:18:10.999Z</time></trkpt><trkpt lat="44.376398660931045" lon="8.089766351069189"><ele>469.0</ele><time>2026-04-03T10:18:11.999Z</time></trkpt><trkpt lat="44.37639661606674" lon="8.089606409705214"><ele>469.0</ele><time>2026-04-03T10:18:12.999Z</time></trkpt><trkpt lat="44.376395296661244" lon="8.089428934628762"><ele>469.0</ele><time>2026-04-03T10:18:13.999Z</time></trkpt><trkpt lat="44.37639408417894" lon="8.089275602969396"><ele>469.0</ele><time>2026-04-03T10:18:14.999Z</time></trkpt><trkpt lat="44.37639344605319" lon="8.089117434586608"><ele>469.0</ele><time>2026-04-03T10:18:15.999Z</time></trkpt><trkpt lat="44.376381856850514" lon="8.088956086779618"><ele>469.0</ele><time>2026-04-03T10:18:16.999Z</time></trkpt><trkpt lat="44.376369111077345" lon="8.088800809138434"><ele>469.0</ele><time>2026-04-03T10:18:17.999Z</time></trkpt><trkpt lat="44.376361982604664" lon="8.088666021600552"><ele>469.0</ele><time>2026-04-03T10:18:18.999Z</time></trkpt><trkpt lat="44.37635184629934" lon="8.088530234006683"><ele>469.0</ele><time>2026-04-03T10:18:19.999Z</time></trkpt><trkpt lat="44.376333917169454" lon="8.08838917479277"><ele>469.0</ele><time>2026-04-03T10:18:20.999Z</time></trkpt><trkpt lat="44.37632004291407" lon="8.088250110991973"><ele>468.79999999999995</ele><time>2026-04-03T10:18:21.999Z</time></trkpt><trkpt lat="44.37630313693517" lon="8.088116012832383"><ele>468.59999999999997</ele><time>2026-04-03T10:18:22.999Z</time></trkpt><trkpt lat="44.37628680920591" lon="8.087987995858041"><ele>468.4</ele><time>2026-04-03T10:18:23.999Z</time></trkpt><trkpt lat="44.37626895609621" lon="8.087854124953227"><ele>468.2</ele><time>2026-04-03T10:18:24.999Z</time></trkpt><trkpt lat="44.37624756874154" lon="8.08771500530971"><ele>468.0</ele><time>2026-04-03T10:18:25.999Z</time></trkpt><trkpt lat="44.3762250055454" lon="8.08757536424521"><ele>468.0</ele><time>2026-04-03T10:18:26.999Z</time></trkpt><trkpt lat="44.376215648550044" lon="8.087421885536296"><ele>467.99999999999994</ele><time>2026-04-03T10:18:27.999Z</time></trkpt><trkpt lat="44.376178201483285" lon="8.08727945625107"><ele>467.99999999999994</ele><time>2026-04-03T10:18:28.999Z</time></trkpt><trkpt lat="44.37613151611462" lon="8.087138779413642"><ele>468.0</ele><time>2026-04-03T10:18:29.999Z</time></trkpt><trkpt lat="44.376065230296945" lon="8.087003757608848"><ele>468.0</ele><time>2026-04-03T10:18:30.999Z</time></trkpt><trkpt lat="44.376007751997705" lon="8.086880647472924"><ele>468.0</ele><time>2026-04-03T10:18:31.999Z</time></trkpt><trkpt lat="44.37595338423411" lon="8.086772700666325"><ele>467.99999999999994</ele><time>2026-04-03T10:18:32.999Z</time></trkpt><trkpt lat="44.37590584544993" lon="8.086677013937416"><ele>467.99999999999994</ele><time>2026-04-03T10:18:33.999Z</time></trkpt><trkpt lat="44.375867806356844" lon="8.086575942850066"><ele>468.0</ele><time>2026-04-03T10:18:34.999Z</time></trkpt><trkpt lat="44.37583491455661" lon="8.086442021661572"><ele>468.0</ele><time>2026-04-03T10:18:35.999Z</time></trkpt><trkpt lat="44.37580397115763" lon="8.086280510266244"><ele>468.0</ele><time>2026-04-03T10:18:36.999Z</time></trkpt><trkpt lat="44.37576938396578" lon="8.086101332612333"><ele>468.0</ele><time>2026-04-03T10:18:37.998Z</time></trkpt><trkpt lat="44.37574056190539" lon="8.085919021583027"><ele>468.0</ele><time>2026-04-03T10:18:38.998Z</time></trkpt><trkpt lat="44.375717679744824" lon="8.085709742945705"><ele>468.0</ele><time>2026-04-03T10:18:39.998Z</time></trkpt><trkpt lat="44.375688930617386" lon="8.085491066804263"><ele>468.66666666666663</ele><time>2026-04-03T10:18:40.998Z</time></trkpt><trkpt lat="44.37564567715795" lon="8.0852481111722"><ele>469.3333333333333</ele><time>2026-04-03T10:18:41.998Z</time></trkpt><trkpt lat="44.37559702553599" lon="8.08502765382011"><ele>470.0</ele><time>2026-04-03T10:18:42.998Z</time></trkpt><trkpt lat="44.37553424637945" lon="8.084802192309422"><ele>470.0</ele><time>2026-04-03T10:18:43.998Z</time></trkpt><trkpt lat="44.37545384563682" lon="8.084543627895867"><ele>470.0</ele><time>2026-04-03T10:18:44.998Z</time></trkpt><trkpt lat="44.37537664899282" lon="8.084292511229325"><ele>470.0</ele><time>2026-04-03T10:18:45.998Z</time></trkpt><trkpt lat="44.37529877725978" lon="8.08403622828326"><ele>469.66666666666663</ele><time>2026-04-03T10:18:46.998Z</time></trkpt><trkpt lat="44.37521702993003" lon="8.083772990379464"><ele>469.33333333333337</ele><time>2026-04-03T10:18:47.998Z</time></trkpt><trkpt lat="44.375136744074354" lon="8.083518734457098"><ele>469.0</ele><time>2026-04-03T10:18:48.998Z</time></trkpt><trkpt lat="44.37505557858787" lon="8.083246698915039"><ele>469.0</ele><time>2026-04-03T10:18:49.998Z</time></trkpt><trkpt lat="44.37497744064127" lon="8.082988823449117"><ele>469.0</ele><time>2026-04-03T10:18:50.998Z</time></trkpt><trkpt lat="44.374899379389355" lon="8.082729760237886"><ele>469.0</ele><time>2026-04-03T10:18:51.998Z</time></trkpt><trkpt lat="44.37481762619175" lon="8.082453507095618"><ele>469.33333333333337</ele><time>2026-04-03T10:18:52.998Z</time></trkpt><trkpt lat="44.374728678399194" lon="8.082168750493679"><ele>469.66666666666663</ele><time>2026-04-03T10:18:53.998Z</time></trkpt><trkpt lat="44.37464157401565" lon="8.081882248037127"><ele>470.0</ele><time>2026-04-03T10:18:54.998Z</time></trkpt><trkpt lat="44.37455037299951" lon="8.081586918330085"><ele>469.0</ele><time>2026-04-03T10:18:55.998Z</time></trkpt><trkpt lat="44.37447314849643" lon="8.081340829467015"><ele>468.0</ele><time>2026-04-03T10:18:56.998Z</time></trkpt><trkpt lat="44.37439914755568" lon="8.081088505100254"><ele>467.0</ele><time>2026-04-03T10:18:57.998Z</time></trkpt><trkpt lat="44.37432692217379" lon="8.08086036977069"><ele>467.66666666666663</ele><time>2026-04-03T10:18:59Z</time></trkpt><trkpt lat="44.374256871061945" lon="8.080626656053743"><ele>468.33333333333337</ele><time>2026-04-03T10:19:00Z</time></trkpt><trkpt lat="44.374193030295196" lon="8.080424904221982"><ele>469.0</ele><time>2026-04-03T10:19:01Z</time></trkpt><trkpt lat="44.37413166311347" lon="8.080196710721124"><ele>469.0</ele><time>2026-04-03T10:19:02Z</time></trkpt><trkpt lat="44.37407663170966" lon="8.079974874432601"><ele>469.0</ele><time>2026-04-03T10:19:03Z</time></trkpt><trkpt lat="44.374034687095524" lon="8.079742321686238"><ele>469.0</ele><time>2026-04-03T10:19:04Z</time></trkpt><trkpt lat="44.374006789335134" lon="8.079493839777943"><ele>468.33333333333337</ele><time>2026-04-03T10:19:05Z</time></trkpt><trkpt lat="44.37399733249171" lon="8.07923530920766"><ele>467.66666666666663</ele><time>2026-04-03T10:19:06Z</time></trkpt><trkpt lat="44.37399549526391" lon="8.07896561137306"><ele>467.0</ele><time>2026-04-03T10:19:07Z</time></trkpt><trkpt lat="44.37399187348142" lon="8.078706096438363"><ele>466.66666666666663</ele><time>2026-04-03T10:19:08Z</time></trkpt><trkpt lat="44.37398694474952" lon="8.078460092590621"><ele>466.33333333333337</ele><time>2026-04-03T10:19:09Z</time></trkpt><trkpt lat="44.373982631080764" lon="8.078229575742895"><ele>466.0</ele><time>2026-04-03T10:19:10Z</time></trkpt><trkpt lat="44.37397996419806" lon="8.078018265474613"><ele>465.6666666666667</ele><time>2026-04-03T10:19:11Z</time></trkpt><trkpt lat="44.37397653848334" lon="8.077798201010483"><ele>465.33333333333337</ele><time>2026-04-03T10:19:12Z</time></trkpt><trkpt lat="44.37395546310233" lon="8.077564529225304"><ele>465.0</ele><time>2026-04-03T10:19:13Z</time></trkpt><trkpt lat="44.37390882376804" lon="8.077322976055502"><ele>463.33333333333337</ele><time>2026-04-03T10:19:14Z</time></trkpt><trkpt lat="44.37384014635461" lon="8.077093872051364"><ele>461.6666666666667</ele><time>2026-04-03T10:19:15Z</time></trkpt><trkpt lat="44.373758723129065" lon="8.076853351120535"><ele>460.0</ele><time>2026-04-03T10:19:16Z</time></trkpt><trkpt lat="44.37367837884951" lon="8.076602630081167"><ele>459.6666666666667</ele><time>2026-04-03T10:19:17Z</time></trkpt><trkpt lat="44.37359480415121" lon="8.076348608596353"><ele>459.33333333333337</ele><time>2026-04-03T10:19:18Z</time></trkpt><trkpt lat="44.37351130619606" lon="8.07608553102313"><ele>459.0</ele><time>2026-04-03T10:19:19Z</time></trkpt><trkpt lat="44.3734263154183" lon="8.075825682177301"><ele>459.66666666666663</ele><time>2026-04-03T10:19:20Z</time></trkpt><trkpt lat="44.3733443807263" lon="8.075581813026794"><ele>460.3333333333333</ele><time>2026-04-03T10:19:21Z</time></trkpt><trkpt lat="44.373268166268076" lon="8.075347138896152"><ele>461.0</ele><time>2026-04-03T10:19:22Z</time></trkpt><trkpt lat="44.37318759438565" lon="8.075106561681126"><ele>461.0</ele><time>2026-04-03T10:19:23Z</time></trkpt><trkpt lat="44.37311267409674" lon="8.074878621766853"><ele>461.0</ele><time>2026-04-03T10:19:24Z</time></trkpt><trkpt lat="44.37304297410732" lon="8.074664167013934"><ele>461.0</ele><time>2026-04-03T10:19:25Z</time></trkpt><trkpt lat="44.372976739754" lon="8.07446276385459"><ele>459.5</ele><time>2026-04-03T10:19:26Z</time></trkpt><trkpt lat="44.37292551995758" lon="8.074286392105943"><ele>458.0</ele><time>2026-04-03T10:19:27Z</time></trkpt><trkpt lat="44.372875246311835" lon="8.074107646924503"><ele>456.5</ele><time>2026-04-03T10:19:28Z</time></trkpt><trkpt lat="44.372831183978924" lon="8.073931187415251"><ele>455.0</ele><time>2026-04-03T10:19:29Z</time></trkpt><trkpt lat="44.37279913342695" lon="8.073743777150522"><ele>455.0</ele><time>2026-04-03T10:19:30Z</time></trkpt><trkpt lat="44.37278728077671" lon="8.07354789883657"><ele>455.0</ele><time>2026-04-03T10:19:31Z</time></trkpt><trkpt lat="44.372787548457204" lon="8.073339069780726"><ele>455.0</ele><time>2026-04-03T10:19:32Z</time></trkpt><trkpt lat="44.37280732574742" lon="8.073131538324986"><ele>455.0</ele><time>2026-04-03T10:19:33Z</time></trkpt><trkpt lat="44.3728378525029" lon="8.072932517235278"><ele>454.25</ele><time>2026-04-03T10:19:34Z</time></trkpt><trkpt lat="44.372883568502054" lon="8.072751546077587"><ele>453.5</ele><time>2026-04-03T10:19:35Z</time></trkpt><trkpt lat="44.37295327043159" lon="8.072579402978304"><ele>452.75</ele><time>2026-04-03T10:19:36Z</time></trkpt><trkpt lat="44.37305662788577" lon="8.072417363192272"><ele>452.0</ele><time>2026-04-03T10:19:37Z</time></trkpt><trkpt lat="44.3731713251318" lon="8.072259802990864"><ele>451.0</ele><time>2026-04-03T10:19:38Z</time></trkpt><trkpt lat="44.37329006673898" lon="8.072098696205087"><ele>450.0</ele><time>2026-04-03T10:19:39Z</time></trkpt><trkpt lat="44.3734217694981" lon="8.071938894150746"><ele>449.0</ele><time>2026-04-03T10:19:40Z</time></trkpt><trkpt lat="44.37355756131881" lon="8.07177271277586"><ele>449.0</ele><time>2026-04-03T10:19:41Z</time></trkpt><trkpt lat="44.37369502614479" lon="8.071609944262615"><ele>449.0</ele><time>2026-04-03T10:19:42Z</time></trkpt><trkpt lat="44.37383556144903" lon="8.071441925154549"><ele>449.0</ele><time>2026-04-03T10:19:43Z</time></trkpt><trkpt lat="44.3739809762836" lon="8.071273683304883"><ele>449.0</ele><time>2026-04-03T10:19:43.999Z</time></trkpt><trkpt lat="44.37413025533459" lon="8.071106496277302"><ele>449.0</ele><time>2026-04-03T10:19:44.999Z</time></trkpt><trkpt lat="44.374278353625684" lon="8.07093236395982"><ele>449.0</ele><time>2026-04-03T10:19:45.999Z</time></trkpt><trkpt lat="44.37442860883254" lon="8.070761215929634"><ele>449.0</ele><time>2026-04-03T10:19:46.999Z</time></trkpt><trkpt lat="44.37457751180345" lon="8.070594381056358"><ele>449.0</ele><time>2026-04-03T10:19:47.999Z</time></trkpt><trkpt lat="44.37472987256008" lon="8.070423008996112"><ele>449.0</ele><time>2026-04-03T10:19:48.999Z</time></trkpt><trkpt lat="44.37488062174079" lon="8.070248604674038"><ele>449.3333333333333</ele><time>2026-04-03T10:19:49.999Z</time></trkpt><trkpt lat="44.37501924142324" lon="8.070079504367696"><ele>449.66666666666663</ele><time>2026-04-03T10:19:50.999Z</time></trkpt><trkpt lat="44.37514050332157" lon="8.069919561496219"><ele>450.0</ele><time>2026-04-03T10:19:51.999Z</time></trkpt><trkpt lat="44.37525818797077" lon="8.069756826737873"><ele>450.0</ele><time>2026-04-03T10:19:52.999Z</time></trkpt><trkpt lat="44.37536869479941" lon="8.06956874609806"><ele>450.0</ele><time>2026-04-03T10:19:53.999Z</time></trkpt><trkpt lat="44.3754701202612" lon="8.069363952807599"><ele>450.0</ele><time>2026-04-03T10:19:54.999Z</time></trkpt><trkpt lat="44.37555863992506" lon="8.0691430437152"><ele>450.66666666666663</ele><time>2026-04-03T10:19:55.999Z</time></trkpt><trkpt lat="44.375634628490644" lon="8.068906346476652"><ele>451.3333333333333</ele><time>2026-04-03T10:19:56.999Z</time></trkpt><trkpt lat="44.37569378661937" lon="8.068680092790629"><ele>452.0</ele><time>2026-04-03T10:19:57.999Z</time></trkpt><trkpt lat="44.37574313715159" lon="8.068471121742448"><ele>453.25</ele><time>2026-04-03T10:19:58.999Z</time></trkpt><trkpt lat="44.3757763743597" lon="8.068270293619523"><ele>454.5</ele><time>2026-04-03T10:19:59.999Z</time></trkpt><trkpt lat="44.375791248340185" lon="8.068078099997871"><ele>455.75</ele><time>2026-04-03T10:20:00.999Z</time></trkpt><trkpt lat="44.375804547250226" lon="8.067905387573653"><ele>457.0</ele><time>2026-04-03T10:20:01.999Z</time></trkpt><trkpt lat="44.3758221568404" lon="8.067747056141492"><ele>457.00000000000006</ele><time>2026-04-03T10:20:02.999Z</time></trkpt><trkpt lat="44.37583850429144" lon="8.067603521250502"><ele>457.0</ele><time>2026-04-03T10:20:03.999Z</time></trkpt><trkpt lat="44.375854057764876" lon="8.067468058398356"><ele>457.0</ele><time>2026-04-03T10:20:04.999Z</time></trkpt><trkpt lat="44.37588044690711" lon="8.06734487064278"><ele>457.0</ele><time>2026-04-03T10:20:05.999Z</time></trkpt><trkpt lat="44.37591210460824" lon="8.067247305363258"><ele>457.00000000000006</ele><time>2026-04-03T10:20:06.999Z</time></trkpt><trkpt lat="44.37592512793247" lon="8.067160578094157"><ele>457.0</ele><time>2026-04-03T10:20:07.999Z</time></trkpt><trkpt lat="44.375912795404474" lon="8.067073894664876"><ele>458.0</ele><time>2026-04-03T10:20:08.999Z</time></trkpt><trkpt lat="44.37585814236426" lon="8.066981181045977"><ele>459.00000000000006</ele><time>2026-04-03T10:20:09.999Z</time></trkpt><trkpt lat="44.375794965574" lon="8.066869801777118"><ele>460.00000000000006</ele><time>2026-04-03T10:20:10.999Z</time></trkpt><trkpt lat="44.375749150151115" lon="8.066723378107575"><ele>461.0</ele><time>2026-04-03T10:20:11.999Z</time></trkpt><trkpt lat="44.37572055330655" lon="8.066554364278316"><ele>462.0</ele><time>2026-04-03T10:20:12.999Z</time></trkpt><trkpt lat="44.375702337756586" lon="8.066400806117228"><ele>462.0</ele><time>2026-04-03T10:20:13.999Z</time></trkpt><trkpt lat="44.3756808345841" lon="8.066256699292635"><ele>462.00000000000006</ele><time>2026-04-03T10:20:14.999Z</time></trkpt><trkpt lat="44.37566062045167" lon="8.066122755270483"><ele>462.00000000000006</ele><time>2026-04-03T10:20:15.999Z</time></trkpt><trkpt lat="44.37563971656668" lon="8.065980396721745"><ele>462.0</ele><time>2026-04-03T10:20:16.999Z</time></trkpt><trkpt lat="44.37561646320799" lon="8.06582863433358"><ele>462.0</ele><time>2026-04-03T10:20:17.999Z</time></trkpt><trkpt lat="44.37559194043689" lon="8.065677465486406"><ele>460.8</ele><time>2026-04-03T10:20:18.999Z</time></trkpt><trkpt lat="44.375565661349995" lon="8.065523372809986"><ele>459.6</ele><time>2026-04-03T10:20:19.999Z</time></trkpt><trkpt lat="44.37554400904035" lon="8.06537656984381"><ele>458.40000000000003</ele><time>2026-04-03T10:20:20.999Z</time></trkpt><trkpt lat="44.375519074425334" lon="8.065214830005386"><ele>457.20000000000005</ele><time>2026-04-03T10:20:21.999Z</time></trkpt><trkpt lat="44.3755002911473" lon="8.065066686409907"><ele>456.0</ele><time>2026-04-03T10:20:22.999Z</time></trkpt><trkpt lat="44.37548018987964" lon="8.064900827106564"><ele>451.75</ele><time>2026-04-03T10:20:23.999Z</time></trkpt><trkpt lat="44.37545616689627" lon="8.064723967600191"><ele>447.5</ele><time>2026-04-03T10:20:24.999Z</time></trkpt><trkpt lat="44.375434155440644" lon="8.064558542812197"><ele>443.25</ele><time>2026-04-03T10:20:25.999Z</time></trkpt><trkpt lat="44.37540810050939" lon="8.064380272352013"><ele>439.0</ele><time>2026-04-03T10:20:26.999Z</time></trkpt><trkpt lat="44.37538223648064" lon="8.064194963151998"><ele>436.25</ele><time>2026-04-03T10:20:27.999Z</time></trkpt><trkpt lat="44.37535443010021" lon="8.064016821077514"><ele>433.5</ele><time>2026-04-03T10:20:28.999Z</time></trkpt><trkpt lat="44.37532729181353" lon="8.063832748739797"><ele>430.75</ele><time>2026-04-03T10:20:29.999Z</time></trkpt><trkpt lat="44.37529865562568" lon="8.063640856124268"><ele>428.0</ele><time>2026-04-03T10:20:30.999Z</time></trkpt><trkpt lat="44.37527693410202" lon="8.063445755918968"><ele>429.0</ele><time>2026-04-03T10:20:31.999Z</time></trkpt><trkpt lat="44.37525809084982" lon="8.063246400399255"><ele>430.0</ele><time>2026-04-03T10:20:32.999Z</time></trkpt><trkpt lat="44.37524279385274" lon="8.063040499621152"><ele>431.0</ele><time>2026-04-03T10:20:33.999Z</time></trkpt><trkpt lat="44.375228114149145" lon="8.062817047188604"><ele>431.0</ele><time>2026-04-03T10:20:34.999Z</time></trkpt><trkpt lat="44.37521459780959" lon="8.062588456215552"><ele>431.0</ele><time>2026-04-03T10:20:35.999Z</time></trkpt><trkpt lat="44.3752059729425" lon="8.06235554681392"><ele>431.0</ele><time>2026-04-03T10:20:36.999Z</time></trkpt><trkpt lat="44.37520262927299" lon="8.062111773510885"><ele>433.3333333333333</ele><time>2026-04-03T10:20:37.999Z</time></trkpt><trkpt lat="44.37519763570764" lon="8.061859607665152"><ele>435.66666666666663</ele><time>2026-04-03T10:20:38.999Z</time></trkpt><trkpt lat="44.37519322191416" lon="8.061598253352477"><ele>438.0</ele><time>2026-04-03T10:20:39.999Z</time></trkpt><trkpt lat="44.37518740972054" lon="8.061332925934451"><ele>438.33333333333337</ele><time>2026-04-03T10:20:40.999Z</time></trkpt><trkpt lat="44.375182114672846" lon="8.06105675394326"><ele>438.6666666666667</ele><time>2026-04-03T10:20:41.998Z</time></trkpt><trkpt lat="44.375176778435815" lon="8.060775466974723"><ele>439.0</ele><time>2026-04-03T10:20:42.998Z</time></trkpt><trkpt lat="44.375175672136535" lon="8.060487600929969"><ele>439.33333333333337</ele><time>2026-04-03T10:20:43.998Z</time></trkpt><trkpt lat="44.37517537533202" lon="8.060194219626537"><ele>439.66666666666663</ele><time>2026-04-03T10:20:44.998Z</time></trkpt><trkpt lat="44.37517135779158" lon="8.059895515706021"><ele>440.0</ele><time>2026-04-03T10:20:45.998Z</time></trkpt><trkpt lat="44.37516382945642" lon="8.05959375884175"><ele>440.3333333333333</ele><time>2026-04-03T10:20:46.998Z</time></trkpt><trkpt lat="44.37515960015293" lon="8.059288702910306"><ele>440.66666666666663</ele><time>2026-04-03T10:20:47.998Z</time></trkpt><trkpt lat="44.375155914527625" lon="8.058979649885519"><ele>441.0</ele><time>2026-04-03T10:20:48.998Z</time></trkpt><trkpt lat="44.37514970981738" lon="8.058664260012856"><ele>440.0</ele><time>2026-04-03T10:20:49.998Z</time></trkpt><trkpt lat="44.37514496943483" lon="8.058341927629014"><ele>439.0</ele><time>2026-04-03T10:20:50.998Z</time></trkpt><trkpt lat="44.37514083696152" lon="8.058013630861456"><ele>439.0</ele><time>2026-04-03T10:20:51.998Z</time></trkpt><trkpt lat="44.37513826234918" lon="8.057676506499032"><ele>439.0</ele><time>2026-04-03T10:20:52.998Z</time></trkpt><trkpt lat="44.37513683216585" lon="8.05733803238973"><ele>438.5</ele><time>2026-04-03T10:20:53.998Z</time></trkpt><trkpt lat="44.37513290035073" lon="8.056999616611854"><ele>438.0</ele><time>2026-04-03T10:20:54.998Z</time></trkpt><trkpt lat="44.37512756382011" lon="8.056656443628498"><ele>437.5</ele><time>2026-04-03T10:20:55.998Z</time></trkpt><trkpt lat="44.37512380588639" lon="8.056313036641953"><ele>437.0</ele><time>2026-04-03T10:20:56.998Z</time></trkpt><trkpt lat="44.375119574262754" lon="8.055963706971093"><ele>435.5</ele><time>2026-04-03T10:20:57.998Z</time></trkpt><trkpt lat="44.375116404045365" lon="8.055614042241722"><ele>434.0</ele><time>2026-04-03T10:20:58.998Z</time></trkpt><trkpt lat="44.37511237599015" lon="8.055263453850491"><ele>434.5</ele><time>2026-04-03T10:20:59.998Z</time></trkpt><trkpt lat="44.37510841184984" lon="8.054909261579734"><ele>435.0</ele><time>2026-04-03T10:21:00.998Z</time></trkpt><trkpt lat="44.375100607080626" lon="8.054554226691264"><ele>435.0</ele><time>2026-04-03T10:21:01.998Z</time></trkpt><trkpt lat="44.3750927799968" lon="8.054204319072305"><ele>435.0</ele><time>2026-04-03T10:21:02.998Z</time></trkpt><trkpt lat="44.37508645169014" lon="8.053852666846733"><ele>436.0</ele><time>2026-04-03T10:21:03.998Z</time></trkpt><trkpt lat="44.375084413473004" lon="8.053493886230559"><ele>437.0</ele><time>2026-04-03T10:21:05Z</time></trkpt><trkpt lat="44.37508426502013" lon="8.053132356133169"><ele>437.0</ele><time>2026-04-03T10:21:06Z</time></trkpt><trkpt lat="44.375080835112826" lon="8.052778177246521"><ele>437.0</ele><time>2026-04-03T10:21:07Z</time></trkpt><trkpt lat="44.375073431793844" lon="8.052445797397244"><ele>437.0</ele><time>2026-04-03T10:21:08Z</time></trkpt><trkpt lat="44.375066944516966" lon="8.052139130801411"><ele>437.0</ele><time>2026-04-03T10:21:09Z</time></trkpt><trkpt lat="44.37507565854865" lon="8.051846537582561"><ele>437.0</ele><time>2026-04-03T10:21:10Z</time></trkpt><trkpt lat="44.37507181589123" lon="8.051574547372585"><ele>436.66666666666663</ele><time>2026-04-03T10:21:11Z</time></trkpt><trkpt lat="44.37505261904344" lon="8.051332052395278"><ele>436.33333333333337</ele><time>2026-04-03T10:21:12Z</time></trkpt><trkpt lat="44.37505222522955" lon="8.051105381314994"><ele>436.0</ele><time>2026-04-03T10:21:13Z</time></trkpt><trkpt lat="44.37505072457732" lon="8.050884011202758"><ele>436.5</ele><time>2026-04-03T10:21:14Z</time></trkpt><trkpt lat="44.375048040171805" lon="8.05067895976117"><ele>437.0</ele><time>2026-04-03T10:21:15Z</time></trkpt><trkpt lat="44.37504597229353" lon="8.05048364080059"><ele>437.5</ele><time>2026-04-03T10:21:16Z</time></trkpt><trkpt lat="44.375045630698644" lon="8.050291798906688"><ele>438.0</ele><time>2026-04-03T10:21:17Z</time></trkpt><trkpt lat="44.37504947603067" lon="8.050112752531193"><ele>438.25</ele><time>2026-04-03T10:21:18Z</time></trkpt><trkpt lat="44.37506229653908" lon="8.049931452453666"><ele>438.5</ele><time>2026-04-03T10:21:19Z</time></trkpt><trkpt lat="44.37508447447366" lon="8.049748993513862"><ele>438.75</ele><time>2026-04-03T10:21:20Z</time></trkpt><trkpt lat="44.375113491029836" lon="8.049564950764195"><ele>439.0</ele><time>2026-04-03T10:21:21Z</time></trkpt><trkpt lat="44.37515341827522" lon="8.049388719531022"><ele>439.0</ele><time>2026-04-03T10:21:22Z</time></trkpt><trkpt lat="44.37519608158267" lon="8.049226473543275"><ele>439.0</ele><time>2026-04-03T10:21:23Z</time></trkpt><trkpt lat="44.37523960151501" lon="8.04907331587361"><ele>439.0</ele><time>2026-04-03T10:21:24Z</time></trkpt><trkpt lat="44.37528846144334" lon="8.048910055769785"><ele>439.0</ele><time>2026-04-03T10:21:25Z</time></trkpt><trkpt lat="44.37533984903456" lon="8.048741207557917"><ele>439.25</ele><time>2026-04-03T10:21:26Z</time></trkpt><trkpt lat="44.37538831294063" lon="8.048573748308202"><ele>439.5</ele><time>2026-04-03T10:21:27Z</time></trkpt><trkpt lat="44.375433257954825" lon="8.04841912213899"><ele>439.75</ele><time>2026-04-03T10:21:28Z</time></trkpt><trkpt lat="44.3754747603569" lon="8.048276606472204"><ele>440.0</ele><time>2026-04-03T10:21:29Z</time></trkpt><trkpt lat="44.37551467575206" lon="8.048132443554696"><ele>439.8</ele><time>2026-04-03T10:21:30Z</time></trkpt><trkpt lat="44.37555157757253" lon="8.04797998364878"><ele>439.6</ele><time>2026-04-03T10:21:31Z</time></trkpt><trkpt lat="44.37559404025356" lon="8.047836824324452"><ele>439.4</ele><time>2026-04-03T10:21:32Z</time></trkpt><trkpt lat="44.37563696477659" lon="8.047698665574705"><ele>439.2</ele><time>2026-04-03T10:21:33Z</time></trkpt><trkpt lat="44.37568304522544" lon="8.04756721193191"><ele>439.0</ele><time>2026-04-03T10:21:34Z</time></trkpt><trkpt lat="44.37572813485953" lon="8.047433531413475"><ele>439.0</ele><time>2026-04-03T10:21:35Z</time></trkpt><trkpt lat="44.37576203640848" lon="8.04729601199653"><ele>439.0</ele><time>2026-04-03T10:21:36Z</time></trkpt><trkpt lat="44.375804200735736" lon="8.04715863839384"><ele>439.0</ele><time>2026-04-03T10:21:37Z</time></trkpt><trkpt lat="44.37584180395159" lon="8.047018413746244"><ele>439.0</ele><time>2026-04-03T10:21:38Z</time></trkpt><trkpt lat="44.37588175962644" lon="8.04687769114925"><ele>439.0</ele><time>2026-04-03T10:21:39Z</time></trkpt><trkpt lat="44.37592527294351" lon="8.046737351623472"><ele>439.4</ele><time>2026-04-03T10:21:40Z</time></trkpt><trkpt lat="44.37596522518755" lon="8.046596352282359"><ele>439.79999999999995</ele><time>2026-04-03T10:21:41Z</time></trkpt><trkpt lat="44.37600433020449" lon="8.046449436323085"><ele>440.20000000000005</ele><time>2026-04-03T10:21:42Z</time></trkpt><trkpt lat="44.37604498911105" lon="8.046304539380326"><ele>440.6</ele><time>2026-04-03T10:21:43Z</time></trkpt><trkpt lat="44.37608537185886" lon="8.046155245169315"><ele>441.0</ele><time>2026-04-03T10:21:44Z</time></trkpt><trkpt lat="44.37612318192569" lon="8.046011472637797"><ele>441.0</ele><time>2026-04-03T10:21:45Z</time></trkpt><trkpt lat="44.376166372500286" lon="8.045863697480126"><ele>441.0</ele><time>2026-04-03T10:21:46Z</time></trkpt><trkpt lat="44.376210304424326" lon="8.04571631292056"><ele>441.0</ele><time>2026-04-03T10:21:47Z</time></trkpt><trkpt lat="44.37625370064163" lon="8.045572521225873"><ele>441.0</ele><time>2026-04-03T10:21:48Z</time></trkpt><trkpt lat="44.3762945244862" lon="8.045428154769752"><ele>441.0</ele><time>2026-04-03T10:21:49Z</time></trkpt><trkpt lat="44.37633549744601" lon="8.045286376388704"><ele>441.0</ele><time>2026-04-03T10:21:50Z</time></trkpt><trkpt lat="44.37637372599619" lon="8.0451534129181"><ele>441.0</ele><time>2026-04-03T10:21:51Z</time></trkpt><trkpt lat="44.37641044183291" lon="8.045025835144914"><ele>441.0</ele><time>2026-04-03T10:21:52Z</time></trkpt><trkpt lat="44.37644835851906" lon="8.044888115995283"><ele>441.0</ele><time>2026-04-03T10:21:52.999Z</time></trkpt><trkpt lat="44.37648559461873" lon="8.044752887323549"><ele>441.0</ele><time>2026-04-03T10:21:53.999Z</time></trkpt><trkpt lat="44.37653072766742" lon="8.044616268153003"><ele>441.0</ele><time>2026-04-03T10:21:54.999Z</time></trkpt><trkpt lat="44.37657214367391" lon="8.044480197697084"><ele>441.0</ele><time>2026-04-03T10:21:55.999Z</time></trkpt><trkpt lat="44.376611380606356" lon="8.044352362278739"><ele>441.0</ele><time>2026-04-03T10:21:56.999Z</time></trkpt><trkpt lat="44.37664792325041" lon="8.044220286400636"><ele>441.0</ele><time>2026-04-03T10:21:57.999Z</time></trkpt><trkpt lat="44.37668797995862" lon="8.044081801785298"><ele>441.0</ele><time>2026-04-03T10:21:58.999Z</time></trkpt><trkpt lat="44.376727259507625" lon="8.043942474525888"><ele>441.0</ele><time>2026-04-03T10:21:59.999Z</time></trkpt><trkpt lat="44.37676997874184" lon="8.04380383966088"><ele>441.0</ele><time>2026-04-03T10:22:00.999Z</time></trkpt><trkpt lat="44.37680744724867" lon="8.043664938446177"><ele>441.0</ele><time>2026-04-03T10:22:01.999Z</time></trkpt><trkpt lat="44.37684534934489" lon="8.043534579512492"><ele>441.0</ele><time>2026-04-03T10:22:02.999Z</time></trkpt><trkpt lat="44.37688144881259" lon="8.043395095659104"><ele>441.0</ele><time>2026-04-03T10:22:03.999Z</time></trkpt><trkpt lat="44.37692112453154" lon="8.043252622094558"><ele>441.0</ele><time>2026-04-03T10:22:04.999Z</time></trkpt><trkpt lat="44.37696241342794" lon="8.043115595270441"><ele>441.0</ele><time>2026-04-03T10:22:05.999Z</time></trkpt><trkpt lat="44.37700559076909" lon="8.042992885221446"><ele>441.0</ele><time>2026-04-03T10:22:06.999Z</time></trkpt><trkpt lat="44.37704211567211" lon="8.042877494594247"><ele>441.0</ele><time>2026-04-03T10:22:07.999Z</time></trkpt><trkpt lat="44.37708484155681" lon="8.042775710297507"><ele>441.0</ele><time>2026-04-03T10:22:08.999Z</time></trkpt><trkpt lat="44.377121582848744" lon="8.042660184669563"><ele>441.0</ele><time>2026-04-03T10:22:09.999Z</time></trkpt><trkpt lat="44.37715955702218" lon="8.042536339040868"><ele>441.0</ele><time>2026-04-03T10:22:10.999Z</time></trkpt><trkpt lat="44.37719221112803" lon="8.042426738010109"><ele>441.0</ele><time>2026-04-03T10:22:11.999Z</time></trkpt><trkpt lat="44.377219693161706" lon="8.042319786280297"><ele>441.0</ele><time>2026-04-03T10:22:12.999Z</time></trkpt><trkpt lat="44.377239035287815" lon="8.04220286831472"><ele>441.0</ele><time>2026-04-03T10:22:13.999Z</time></trkpt><trkpt lat="44.37726439755129" lon="8.042082391041808"><ele>440.6666666666667</ele><time>2026-04-03T10:22:14.999Z</time></trkpt><trkpt lat="44.37729664310602" lon="8.04197659022049"><ele>440.33333333333337</ele><time>2026-04-03T10:22:15.999Z</time></trkpt><trkpt lat="44.377324585090875" lon="8.041881674521212"><ele>440.0</ele><time>2026-04-03T10:22:16.999Z</time></trkpt><trkpt lat="44.37734967770881" lon="8.041778380361109"><ele>439.6666666666667</ele><time>2026-04-03T10:22:17.999Z</time></trkpt><trkpt lat="44.37737352788705" lon="8.041692910144093"><ele>439.33333333333337</ele><time>2026-04-03T10:22:18.999Z</time></trkpt><trkpt lat="44.377399693002225" lon="8.041612558517057"><ele>439.0</ele><time>2026-04-03T10:22:19.999Z</time></trkpt><trkpt lat="44.37745689386671" lon="8.041490789889552"><ele>438.79999999999995</ele><time>2026-04-03T10:22:21.999Z</time></trkpt><trkpt lat="44.37754254716408" lon="8.041362826599702"><ele>438.59999999999997</ele><time>2026-04-03T10:22:23.999Z</time></trkpt><trkpt lat="44.37758329855051" lon="8.041201576010323"><ele>438.4</ele><time>2026-04-03T10:22:25.999Z</time></trkpt><trkpt lat="44.37758458557469" lon="8.041104491159235"><ele>438.2</ele><time>2026-04-03T10:22:26.999Z</time></trkpt><trkpt lat="44.37756436456817" lon="8.040999430336312"><ele>438.0</ele><time>2026-04-03T10:22:27.999Z</time></trkpt><trkpt lat="44.37752455760102" lon="8.040893146718743"><ele>438.0</ele><time>2026-04-03T10:22:28.999Z</time></trkpt><trkpt lat="44.37748128498966" lon="8.040784073305717"><ele>438.0</ele><time>2026-04-03T10:22:29.999Z</time></trkpt><trkpt lat="44.37744253438528" lon="8.04068335863461"><ele>438.0</ele><time>2026-04-03T10:22:30.999Z</time></trkpt><trkpt lat="44.37741103880898" lon="8.04058430707761"><ele>438.0</ele><time>2026-04-03T10:22:31.999Z</time></trkpt><trkpt lat="44.37738148830689" lon="8.040480508827308"><ele>438.0</ele><time>2026-04-03T10:22:32.999Z</time></trkpt><trkpt lat="44.377352795828834" lon="8.040370311137696"><ele>438.0</ele><time>2026-04-03T10:22:33.999Z</time></trkpt><trkpt lat="44.377326924861734" lon="8.040264846812034"><ele>438.0</ele><time>2026-04-03T10:22:34.999Z</time></trkpt><trkpt lat="44.37729869075025" lon="8.040156947929134"><ele>438.0</ele><time>2026-04-03T10:22:35.999Z</time></trkpt><trkpt lat="44.377265805522164" lon="8.040037994699954"><ele>438.0</ele><time>2026-04-03T10:22:36.999Z</time></trkpt><trkpt lat="44.37723760560967" lon="8.039927276080814"><ele>438.0</ele><time>2026-04-03T10:22:37.999Z</time></trkpt><trkpt lat="44.377213136077586" lon="8.039825086961494"><ele>438.0</ele><time>2026-04-03T10:22:38.999Z</time></trkpt><trkpt lat="44.37718805906669" lon="8.03970916194387"><ele>438.0</ele><time>2026-04-03T10:22:39.999Z</time></trkpt><trkpt lat="44.377161476156544" lon="8.039588397293896"><ele>437.4</ele><time>2026-04-03T10:22:40.999Z</time></trkpt><trkpt lat="44.37712950439607" lon="8.039454969111766"><ele>436.79999999999995</ele><time>2026-04-03T10:22:41.999Z</time></trkpt><trkpt lat="44.377094052413526" lon="8.039313873018303"><ele>436.2</ele><time>2026-04-03T10:22:42.999Z</time></trkpt><trkpt lat="44.37706170076285" lon="8.039187486319085"><ele>435.6</ele><time>2026-04-03T10:22:43.999Z</time></trkpt><trkpt lat="44.37702893695765" lon="8.039060929460604"><ele>435.0</ele><time>2026-04-03T10:22:44.999Z</time></trkpt><trkpt lat="44.37699645786667" lon="8.038929433417717"><ele>434.4</ele><time>2026-04-03T10:22:45.999Z</time></trkpt><trkpt lat="44.37696464453636" lon="8.038812175758943"><ele>433.8</ele><time>2026-04-03T10:22:46.999Z</time></trkpt><trkpt lat="44.376933429649426" lon="8.038693342168749"><ele>433.20000000000005</ele><time>2026-04-03T10:22:47.999Z</time></trkpt><trkpt lat="44.376900913249294" lon="8.03856497463956"><ele>432.6</ele><time>2026-04-03T10:22:48.999Z</time></trkpt><trkpt lat="44.376874078764295" lon="8.0384331151655"><ele>432.0</ele><time>2026-04-03T10:22:49.999Z</time></trkpt><trkpt lat="44.376848665403195" lon="8.03831262001987"><ele>431.6</ele><time>2026-04-03T10:22:50.998Z</time></trkpt><trkpt lat="44.37681899450244" lon="8.038189739279563"><ele>431.20000000000005</ele><time>2026-04-03T10:22:51.998Z</time></trkpt><trkpt lat="44.37679013616143" lon="8.038059469791811"><ele>430.8</ele><time>2026-04-03T10:22:52.998Z</time></trkpt><trkpt lat="44.37676856143727" lon="8.037936699639651"><ele>430.4</ele><time>2026-04-03T10:22:53.998Z</time></trkpt><trkpt lat="44.37675338086855" lon="8.037808754026274"><ele>430.0</ele><time>2026-04-03T10:22:54.998Z</time></trkpt><trkpt lat="44.37673934403953" lon="8.037671076469003"><ele>430.0</ele><time>2026-04-03T10:22:55.998Z</time></trkpt><trkpt lat="44.37672878536205" lon="8.037528171878266"><ele>430.0</ele><time>2026-04-03T10:22:56.998Z</time></trkpt><trkpt lat="44.37672808362981" lon="8.037397071097537"><ele>430.0</ele><time>2026-04-03T10:22:57.998Z</time></trkpt><trkpt lat="44.37673628087858" lon="8.037269533283553"><ele>430.0</ele><time>2026-04-03T10:22:58.998Z</time></trkpt><trkpt lat="44.37675200372134" lon="8.037137517212612"><ele>430.0</ele><time>2026-04-03T10:22:59.998Z</time></trkpt><trkpt lat="44.37677638771619" lon="8.036991248708466"><ele>429.0</ele><time>2026-04-03T10:23:00.998Z</time></trkpt><trkpt lat="44.376810771871355" lon="8.03683508411774"><ele>428.0</ele><time>2026-04-03T10:23:01.998Z</time></trkpt><trkpt lat="44.376857419136655" lon="8.036664172076481"><ele>427.0</ele><time>2026-04-03T10:23:02.998Z</time></trkpt><trkpt lat="44.37691779893966" lon="8.036479705449763"><ele>426.0</ele><time>2026-04-03T10:23:03.998Z</time></trkpt><trkpt lat="44.376981784637785" lon="8.036295445425594"><ele>424.33333333333337</ele><time>2026-04-03T10:23:04.998Z</time></trkpt><trkpt lat="44.377062184691376" lon="8.036105816278125"><ele>422.6666666666667</ele><time>2026-04-03T10:23:05.998Z</time></trkpt><trkpt lat="44.37714220475194" lon="8.035901419867928"><ele>421.0</ele><time>2026-04-03T10:23:06.998Z</time></trkpt><trkpt lat="44.37722090448597" lon="8.035694627305247"><ele>421.0</ele><time>2026-04-03T10:23:07.998Z</time></trkpt><trkpt lat="44.37730285929801" lon="8.035481889365217"><ele>421.0</ele><time>2026-04-03T10:23:08.998Z</time></trkpt><trkpt lat="44.3773880383336" lon="8.035258357715744"><ele>421.0</ele><time>2026-04-03T10:23:09.998Z</time></trkpt><trkpt lat="44.377480323444516" lon="8.035022849805703"><ele>420.0</ele><time>2026-04-03T10:23:11Z</time></trkpt><trkpt lat="44.377575905377036" lon="8.034781837732254"><ele>419.0</ele><time>2026-04-03T10:23:12Z</time></trkpt><trkpt lat="44.3776767648583" lon="8.034529197864511"><ele>418.0</ele><time>2026-04-03T10:23:13Z</time></trkpt><trkpt lat="44.37777608029912" lon="8.034259978639193"><ele>418.33333333333337</ele><time>2026-04-03T10:23:14Z</time></trkpt><trkpt lat="44.37786858373396" lon="8.0340071376176"><ele>418.66666666666663</ele><time>2026-04-03T10:23:15Z</time></trkpt><trkpt lat="44.37796141664145" lon="8.0337766479061"><ele>419.0</ele><time>2026-04-03T10:23:16Z</time></trkpt><trkpt lat="44.378041833766595" lon="8.033553942074784"><ele>419.0</ele><time>2026-04-03T10:23:17Z</time></trkpt><trkpt lat="44.378119614494764" lon="8.033349139913975"><ele>419.0</ele><time>2026-04-03T10:23:18Z</time></trkpt><trkpt lat="44.3781919602782" lon="8.03315900304175"><ele>419.0</ele><time>2026-04-03T10:23:19Z</time></trkpt><trkpt lat="44.37826365152914" lon="8.03297859329554"><ele>418.75</ele><time>2026-04-03T10:23:20Z</time></trkpt><trkpt lat="44.378330347672815" lon="8.032807996064985"><ele>418.5</ele><time>2026-04-03T10:23:21Z</time></trkpt><trkpt lat="44.37839189655532" lon="8.032646815284885"><ele>418.25</ele><time>2026-04-03T10:23:22Z</time></trkpt><trkpt lat="44.37845521710554" lon="8.032487555517024"><ele>418.0</ele><time>2026-04-03T10:23:23Z</time></trkpt><trkpt lat="44.37851551730891" lon="8.03233145972493"><ele>417.5</ele><time>2026-04-03T10:23:24Z</time></trkpt><trkpt lat="44.37857621334816" lon="8.03217085756142"><ele>417.0</ele><time>2026-04-03T10:23:25Z</time></trkpt><trkpt lat="44.37863156402006" lon="8.032017776869369"><ele>416.5</ele><time>2026-04-03T10:23:26Z</time></trkpt><trkpt lat="44.378685293904844" lon="8.031868131712221"><ele>416.0</ele><time>2026-04-03T10:23:27Z</time></trkpt><trkpt lat="44.378741649989784" lon="8.03172283821955"><ele>414.8</ele><time>2026-04-03T10:23:28Z</time></trkpt><trkpt lat="44.378798834408464" lon="8.03158507555954"><ele>413.6</ele><time>2026-04-03T10:23:29Z</time></trkpt><trkpt lat="44.37885255933829" lon="8.031454965447773"><ele>412.4</ele><time>2026-04-03T10:23:30Z</time></trkpt><trkpt lat="44.37890838609194" lon="8.03133350233678"><ele>411.2</ele><time>2026-04-03T10:23:31Z</time></trkpt><trkpt lat="44.378975074631256" lon="8.031221389737253"><ele>410.0</ele><time>2026-04-03T10:23:32Z</time></trkpt><trkpt lat="44.37905482382614" lon="8.03111595559933"><ele>409.75</ele><time>2026-04-03T10:23:33Z</time></trkpt><trkpt lat="44.37914557420261" lon="8.031022533968935"><ele>409.5</ele><time>2026-04-03T10:23:34Z</time></trkpt><trkpt lat="44.37925339107672" lon="8.030934118085446"><ele>409.25</ele><time>2026-04-03T10:23:35Z</time></trkpt><trkpt lat="44.379371177114436" lon="8.03085736874222"><ele>409.0</ele><time>2026-04-03T10:23:36Z</time></trkpt><trkpt lat="44.37948703633857" lon="8.030811043620384"><ele>408.25</ele><time>2026-04-03T10:23:37Z</time></trkpt><trkpt lat="44.379605088054355" lon="8.030770088861727"><ele>407.5</ele><time>2026-04-03T10:23:38Z</time></trkpt><trkpt lat="44.379731266447884" lon="8.030736129189986"><ele>406.75</ele><time>2026-04-03T10:23:39Z</time></trkpt><trkpt lat="44.37985201825732" lon="8.030718717959608"><ele>406.0</ele><time>2026-04-03T10:23:40Z</time></trkpt><trkpt lat="44.37997652882816" lon="8.030710594795192"><ele>404.0</ele><time>2026-04-03T10:23:41Z</time></trkpt><trkpt lat="44.38010097122978" lon="8.030710119625228"><ele>402.0</ele><time>2026-04-03T10:23:42Z</time></trkpt><trkpt lat="44.38021746402114" lon="8.03071973722532"><ele>400.0</ele><time>2026-04-03T10:23:43Z</time></trkpt><trkpt lat="44.3803348158067" lon="8.030736078738864"><ele>398.0</ele><time>2026-04-03T10:23:44Z</time></trkpt><trkpt lat="44.380438933111996" lon="8.030758840131492"><ele>397.2</ele><time>2026-04-03T10:23:45Z</time></trkpt><trkpt lat="44.380529418637956" lon="8.030779993377829"><ele>396.4</ele><time>2026-04-03T10:23:46Z</time></trkpt><trkpt lat="44.38060340216902" lon="8.03080001257946"><ele>395.59999999999997</ele><time>2026-04-03T10:23:47Z</time></trkpt><trkpt lat="44.38068344444542" lon="8.030833264024869"><ele>394.79999999999995</ele><time>2026-04-03T10:23:48Z</time></trkpt><trkpt lat="44.380777807462394" lon="8.030901165401232"><ele>394.0</ele><time>2026-04-03T10:23:49Z</time></trkpt><trkpt lat="44.38084989182131" lon="8.031022818532026"><ele>394.0</ele><time>2026-04-03T10:23:50Z</time></trkpt><trkpt lat="44.380924371099326" lon="8.031169312894436"><ele>394.0</ele><time>2026-04-03T10:23:51Z</time></trkpt><trkpt lat="44.38100589401769" lon="8.031348625109473"><ele>394.0</ele><time>2026-04-03T10:23:52Z</time></trkpt><trkpt lat="44.38109407618813" lon="8.031539591151205"><ele>394.0</ele><time>2026-04-03T10:23:53Z</time></trkpt><trkpt lat="44.381171222583646" lon="8.031705257382791"><ele>390.75</ele><time>2026-04-03T10:23:54Z</time></trkpt><trkpt lat="44.38124129102611" lon="8.031855724284712"><ele>387.5</ele><time>2026-04-03T10:23:55Z</time></trkpt><trkpt lat="44.38132799677756" lon="8.032001112899842"><ele>384.25</ele><time>2026-04-03T10:23:56Z</time></trkpt><trkpt lat="44.38138531821462" lon="8.032165012168775"><ele>381.0</ele><time>2026-04-03T10:23:56.999Z</time></trkpt><trkpt lat="44.38145772097506" lon="8.032320491808024"><ele>383.20000000000005</ele><time>2026-04-03T10:23:57.999Z</time></trkpt><trkpt lat="44.38153079198014" lon="8.032477406446127"><ele>385.40000000000003</ele><time>2026-04-03T10:23:58.999Z</time></trkpt><trkpt lat="44.38160605140911" lon="8.032599772979106"><ele>387.6</ele><time>2026-04-03T10:23:59.999Z</time></trkpt><trkpt lat="44.38163823766703" lon="8.032724465379706"><ele>389.8</ele><time>2026-04-03T10:24:00.999Z</time></trkpt><trkpt lat="44.381691101448496" lon="8.032820318414402"><ele>392.0</ele><time>2026-04-03T10:24:01.999Z</time></trkpt><trkpt lat="44.38174567154163" lon="8.032910593479768"><ele>391.99999999999994</ele><time>2026-04-03T10:24:02.999Z</time></trkpt><trkpt lat="44.38180503755679" lon="8.032991650775877"><ele>392.0</ele><time>2026-04-03T10:24:03.999Z</time></trkpt><trkpt lat="44.38187354823317" lon="8.03306921977796"><ele>392.0</ele><time>2026-04-03T10:24:04.999Z</time></trkpt><trkpt lat="44.381949927037304" lon="8.033110357292749"><ele>392.0</ele><time>2026-04-03T10:24:05.999Z</time></trkpt><trkpt lat="44.382031451296285" lon="8.03312789706512"><ele>391.99999999999994</ele><time>2026-04-03T10:24:06.999Z</time></trkpt><trkpt lat="44.382119890174906" lon="8.033111520383837"><ele>392.0</ele><time>2026-04-03T10:24:07.999Z</time></trkpt><trkpt lat="44.38218586178353" lon="8.03308064645905"><ele>389.6</ele><time>2026-04-03T10:24:08.999Z</time></trkpt><trkpt lat="44.382248714959026" lon="8.033014634637992"><ele>387.20000000000005</ele><time>2026-04-03T10:24:09.999Z</time></trkpt><trkpt lat="44.38229671109116" lon="8.032934318792586"><ele>384.8</ele><time>2026-04-03T10:24:10.999Z</time></trkpt><trkpt lat="44.382334032489936" lon="8.032808371226194"><ele>382.4</ele><time>2026-04-03T10:24:11.999Z</time></trkpt><trkpt lat="44.38234883090972" lon="8.032661281995725"><ele>380.0</ele><time>2026-04-03T10:24:12.999Z</time></trkpt><trkpt lat="44.3823347209921" lon="8.032488284571182"><ele>379.4</ele><time>2026-04-03T10:24:13.999Z</time></trkpt><trkpt lat="44.382320020997305" lon="8.032337632895016"><ele>378.8</ele><time>2026-04-03T10:24:14.999Z</time></trkpt><trkpt lat="44.38231318682646" lon="8.032203191814803"><ele>378.20000000000005</ele><time>2026-04-03T10:24:15.999Z</time></trkpt><trkpt lat="44.38230777084428" lon="8.032071894722103"><ele>377.6</ele><time>2026-04-03T10:24:16.999Z</time></trkpt><trkpt lat="44.382308342689" lon="8.031953103460685"><ele>377.0</ele><time>2026-04-03T10:24:17.999Z</time></trkpt><trkpt lat="44.38232186430864" lon="8.03184122330149"><ele>377.0</ele><time>2026-04-03T10:24:18.999Z</time></trkpt><trkpt lat="44.38234330049093" lon="8.03173944395454"><ele>377.0</ele><time>2026-04-03T10:24:19.999Z</time></trkpt><trkpt lat="44.382372275761675" lon="8.031647784992293"><ele>377.0</ele><time>2026-04-03T10:24:20.999Z</time></trkpt><trkpt lat="44.382417544504854" lon="8.031549461637248"><ele>377.0</ele><time>2026-04-03T10:24:21.999Z</time></trkpt><trkpt lat="44.382451950136" lon="8.031442717701154"><ele>377.0</ele><time>2026-04-03T10:24:22.999Z</time></trkpt><trkpt lat="44.38244427268409" lon="8.0313180748039"><ele>377.0</ele><time>2026-04-03T10:24:23.999Z</time></trkpt><trkpt lat="44.382421296084225" lon="8.031167128784872"><ele>376.8</ele><time>2026-04-03T10:24:24.999Z</time></trkpt><trkpt lat="44.38242899519923" lon="8.031002756277559"><ele>376.6</ele><time>2026-04-03T10:24:25.999Z</time></trkpt><trkpt lat="44.38247223918037" lon="8.03084967819748"><ele>376.40000000000003</ele><time>2026-04-03T10:24:26.999Z</time></trkpt><trkpt lat="44.38250874193706" lon="8.030703846788926"><ele>376.20000000000005</ele><time>2026-04-03T10:24:27.999Z</time></trkpt><trkpt lat="44.382536566089875" lon="8.030571516710062"><ele>376.0</ele><time>2026-04-03T10:24:28.999Z</time></trkpt><trkpt lat="44.38256395993143" lon="8.030433115118733"><ele>375.8333333333333</ele><time>2026-04-03T10:24:29.999Z</time></trkpt><trkpt lat="44.38258903854398" lon="8.030306956703578"><ele>375.66666666666663</ele><time>2026-04-03T10:24:30.999Z</time></trkpt><trkpt lat="44.382610847828445" lon="8.030191295774905"><ele>375.5</ele><time>2026-04-03T10:24:31.999Z</time></trkpt><trkpt lat="44.38263427331238" lon="8.030083639366863"><ele>375.3333333333333</ele><time>2026-04-03T10:24:32.999Z</time></trkpt><trkpt lat="44.38264899008998" lon="8.029990582733616"><ele>375.1666666666667</ele><time>2026-04-03T10:24:33.999Z</time></trkpt><trkpt lat="44.382665292640496" lon="8.029903531441526"><ele>375.0</ele><time>2026-04-03T10:24:34.999Z</time></trkpt><trkpt lat="44.3826867891326" lon="8.029745842480489"><ele>375.6</ele><time>2026-04-03T10:24:36.999Z</time></trkpt><trkpt lat="44.3827504968874" lon="8.02967510441469"><ele>376.2</ele><time>2026-04-03T10:24:38.999Z</time></trkpt><trkpt lat="44.38286410887403" lon="8.029761917255794"><ele>376.79999999999995</ele><time>2026-04-03T10:24:40.999Z</time></trkpt><trkpt lat="44.382955753468046" lon="8.029807548204975"><ele>377.4</ele><time>2026-04-03T10:24:41.999Z</time></trkpt><trkpt lat="44.38306823153369" lon="8.029855347851322"><ele>378.0</ele><time>2026-04-03T10:24:42.999Z</time></trkpt><trkpt lat="44.38318295962841" lon="8.029904947899244"><ele>378.2</ele><time>2026-04-03T10:24:43.999Z</time></trkpt><trkpt lat="44.38327430116871" lon="8.029962939989371"><ele>378.4</ele><time>2026-04-03T10:24:44.999Z</time></trkpt><trkpt lat="44.38336789506727" lon="8.030011873436573"><ele>378.59999999999997</ele><time>2026-04-03T10:24:45.999Z</time></trkpt><trkpt lat="44.3834671243433" lon="8.030047915791227"><ele>378.79999999999995</ele><time>2026-04-03T10:24:46.999Z</time></trkpt><trkpt lat="44.383562471217324" lon="8.0301109520546"><ele>379.0</ele><time>2026-04-03T10:24:47.999Z</time></trkpt><trkpt lat="44.38365323049666" lon="8.030153883462706"><ele>378.79999999999995</ele><time>2026-04-03T10:24:48.999Z</time></trkpt><trkpt lat="44.38373777123034" lon="8.030194502557883"><ele>378.59999999999997</ele><time>2026-04-03T10:24:49.999Z</time></trkpt><trkpt lat="44.38382193755587" lon="8.030234939486496"><ele>378.4</ele><time>2026-04-03T10:24:50.999Z</time></trkpt><trkpt lat="44.38391623815147" lon="8.030279233659245"><ele>378.2</ele><time>2026-04-03T10:24:51.999Z</time></trkpt><trkpt lat="44.38402431391069" lon="8.030321450862152"><ele>378.0</ele><time>2026-04-03T10:24:52.999Z</time></trkpt><trkpt lat="44.38413286806106" lon="8.030374125012496"><ele>378.0</ele><time>2026-04-03T10:24:53.998Z</time></trkpt><trkpt lat="44.38423262842784" lon="8.030411555069385"><ele>378.0</ele><time>2026-04-03T10:24:54.998Z</time></trkpt><trkpt lat="44.38432136745588" lon="8.03045327965403"><ele>378.0</ele><time>2026-04-03T10:24:55.998Z</time></trkpt><trkpt lat="44.384419857693985" lon="8.030507474611479"><ele>378.0</ele><time>2026-04-03T10:24:56.998Z</time></trkpt><trkpt lat="44.384519396040005" lon="8.030547730486695"><ele>378.0</ele><time>2026-04-03T10:24:57.998Z</time></trkpt><trkpt lat="44.38460141462216" lon="8.030581117302424"><ele>378.1666666666667</ele><time>2026-04-03T10:24:58.998Z</time></trkpt><trkpt lat="44.3846857803175" lon="8.030616626180713"><ele>378.3333333333333</ele><time>2026-04-03T10:24:59.998Z</time></trkpt><trkpt lat="44.384764449655485" lon="8.03063881908461"><ele>378.5</ele><time>2026-04-03T10:25:00.998Z</time></trkpt><trkpt lat="44.384825834233226" lon="8.030668123528173"><ele>378.66666666666663</ele><time>2026-04-03T10:25:01.998Z</time></trkpt><trkpt lat="44.38488638803333" lon="8.030695166321893"><ele>378.8333333333333</ele><time>2026-04-03T10:25:02.998Z</time></trkpt><trkpt lat="44.38500516840531" lon="8.030740951075789"><ele>379.0</ele><time>2026-04-03T10:25:04.998Z</time></trkpt><trkpt lat="44.38507796615763" lon="8.030776817662687"><ele>379.0</ele><time>2026-04-03T10:25:05.998Z</time></trkpt><trkpt lat="44.38514919433725" lon="8.030805319155006"><ele>379.0</ele><time>2026-04-03T10:25:06.998Z</time></trkpt><trkpt lat="44.385222122337346" lon="8.03083923863619"><ele>379.0</ele><time>2026-04-03T10:25:07.998Z</time></trkpt><trkpt lat="44.38529775494853" lon="8.030864514721822"><ele>379.0</ele><time>2026-04-03T10:25:08.998Z</time></trkpt><trkpt lat="44.38539405014088" lon="8.030881950153654"><ele>379.0</ele><time>2026-04-03T10:25:09.998Z</time></trkpt><trkpt lat="44.38547686233068" lon="8.030875587945083"><ele>379.0</ele><time>2026-04-03T10:25:10.998Z</time></trkpt><trkpt lat="44.385546856042325" lon="8.03087823233252"><ele>378.8333333333333</ele><time>2026-04-03T10:25:11.998Z</time></trkpt><trkpt lat="44.38563894625824" lon="8.030877154728483"><ele>378.66666666666663</ele><time>2026-04-03T10:25:13.998Z</time></trkpt><trkpt lat="44.3857083173413" lon="8.030882281860764"><ele>378.5</ele><time>2026-04-03T10:25:14.998Z</time></trkpt><trkpt lat="44.38578507602285" lon="8.030843132779633"><ele>378.3333333333333</ele><time>2026-04-03T10:25:15.998Z</time></trkpt><trkpt lat="44.3858555123442" lon="8.03081631141453"><ele>378.1666666666667</ele><time>2026-04-03T10:25:17Z</time></trkpt><trkpt lat="44.38592157961643" lon="8.030788860582128"><ele>378.0</ele><time>2026-04-03T10:25:18Z</time></trkpt><trkpt lat="44.38599937600857" lon="8.030751458953976"><ele>378.0</ele><time>2026-04-03T10:25:19Z</time></trkpt><trkpt lat="44.386080550272474" lon="8.030718654496109"><ele>378.0</ele><time>2026-04-03T10:25:20Z</time></trkpt><trkpt lat="44.3861413722551" lon="8.030684946750476"><ele>378.0</ele><time>2026-04-03T10:25:21Z</time></trkpt><trkpt lat="44.38621036053624" lon="8.03063924101056"><ele>378.0</ele><time>2026-04-03T10:25:22Z</time></trkpt><trkpt lat="44.38627942235137" lon="8.030603042287655"><ele>378.0</ele><time>2026-04-03T10:25:23Z</time></trkpt><trkpt lat="44.386344215065" lon="8.0305528162628"><ele>378.0</ele><time>2026-04-03T10:25:24Z</time></trkpt><trkpt lat="44.386408038398585" lon="8.030499817615492"><ele>378.0</ele><time>2026-04-03T10:25:25Z</time></trkpt><trkpt lat="44.38649639350301" lon="8.030436431361391"><ele>377.85714285714283</ele><time>2026-04-03T10:25:26Z</time></trkpt><trkpt lat="44.386559792690235" lon="8.030396302925258"><ele>377.7142857142857</ele><time>2026-04-03T10:25:27Z</time></trkpt><trkpt lat="44.38662002554175" lon="8.030362789177483"><ele>377.57142857142856</ele><time>2026-04-03T10:25:28Z</time></trkpt><trkpt lat="44.38668335190005" lon="8.030310761743788"><ele>377.42857142857144</ele><time>2026-04-03T10:25:29Z</time></trkpt><trkpt lat="44.386752053439565" lon="8.03025776292007"><ele>377.2857142857143</ele><time>2026-04-03T10:25:30Z</time></trkpt><trkpt lat="44.38681275926352" lon="8.030210254539838"><ele>377.1428571428571</ele><time>2026-04-03T10:25:31Z</time></trkpt><trkpt lat="44.38687871915004" lon="8.030159598859441"><ele>377.0</ele><time>2026-04-03T10:25:32Z</time></trkpt><trkpt lat="44.386932414063914" lon="8.030111223445378"><ele>377.0</ele><time>2026-04-03T10:25:33Z</time></trkpt><trkpt lat="44.387011729600005" lon="8.030070886796848"><ele>377.0</ele><time>2026-04-03T10:25:35Z</time></trkpt><trkpt lat="44.38706752684213" lon="8.030020717247456"><ele>377.0</ele><time>2026-04-03T10:25:46Z</time></trkpt><trkpt lat="44.38704756336139" lon="8.02991001163196"><ele>377.0</ele><time>2026-04-03T10:25:48Z</time></trkpt><trkpt lat="44.3869505206296" lon="8.029824977424818"><ele>377.0</ele><time>2026-04-03T10:25:50Z</time></trkpt><trkpt lat="44.386894583172484" lon="8.029760412866645"><ele>377.0</ele><time>2026-04-03T10:25:51Z</time></trkpt><trkpt lat="44.38680906106728" lon="8.029673536155391"><ele>377.0</ele><time>2026-04-03T10:25:52Z</time></trkpt><trkpt lat="44.38672597966011" lon="8.02958522941421"><ele>377.0</ele><time>2026-04-03T10:25:53Z</time></trkpt><trkpt lat="44.38663585975702" lon="8.029490773765435"><ele>377.0</ele><time>2026-04-03T10:25:54Z</time></trkpt><trkpt lat="44.386532205408784" lon="8.029385437556881"><ele>377.0</ele><time>2026-04-03T10:25:55Z</time></trkpt><trkpt lat="44.386429957875905" lon="8.029281728032787"><ele>378.25</ele><time>2026-04-03T10:25:56Z</time></trkpt><trkpt lat="44.38631998389932" lon="8.029167003094999"><ele>379.5</ele><time>2026-04-03T10:25:57Z</time></trkpt><trkpt lat="44.386203027557805" lon="8.029042969653586"><ele>380.75</ele><time>2026-04-03T10:25:58Z</time></trkpt><trkpt lat="44.386094081640735" lon="8.028927857421046"><ele>382.0</ele><time>2026-04-03T10:25:59Z</time></trkpt><trkpt lat="44.38600668348948" lon="8.028826403272689"><ele>382.25</ele><time>2026-04-03T10:26:00Z</time></trkpt><trkpt lat="44.385919862759" lon="8.02871791367232"><ele>382.5</ele><time>2026-04-03T10:26:01Z</time></trkpt><trkpt lat="44.38584214258803" lon="8.028598779667577"><ele>382.75</ele><time>2026-04-03T10:26:01.999Z</time></trkpt><trkpt lat="44.385781985568244" lon="8.028443778912642"><ele>383.0</ele><time>2026-04-03T10:26:02.999Z</time></trkpt><trkpt lat="44.38574807405737" lon="8.028292075508622"><ele>384.0</ele><time>2026-04-03T10:26:03.999Z</time></trkpt><trkpt lat="44.385728983118135" lon="8.028159779996761"><ele>385.0</ele><time>2026-04-03T10:26:04.999Z</time></trkpt><trkpt lat="44.38571766530183" lon="8.028025323874393"><ele>386.0</ele><time>2026-04-03T10:26:05.999Z</time></trkpt><trkpt lat="44.38572972784182" lon="8.02789714632361"><ele>387.0</ele><time>2026-04-03T10:26:06.999Z</time></trkpt><trkpt lat="44.38576189408371" lon="8.02776335348551"><ele>388.0</ele><time>2026-04-03T10:26:07.999Z</time></trkpt><trkpt lat="44.385791821157504" lon="8.027658584738713"><ele>388.0</ele><time>2026-04-03T10:26:08.999Z</time></trkpt><trkpt lat="44.38581126607761" lon="8.02756254796252"><ele>388.0</ele><time>2026-04-03T10:26:09.999Z</time></trkpt><trkpt lat="44.38582901907561" lon="8.027450166411848"><ele>388.0</ele><time>2026-04-03T10:26:10.999Z</time></trkpt><trkpt lat="44.38583209057786" lon="8.02731732030986"><ele>388.0</ele><time>2026-04-03T10:26:11.999Z</time></trkpt><trkpt lat="44.3858122504929" lon="8.027177789509393"><ele>388.0</ele><time>2026-04-03T10:26:12.999Z</time></trkpt><trkpt lat="44.38578626795171" lon="8.02703325332611"><ele>390.2</ele><time>2026-04-03T10:26:13.999Z</time></trkpt><trkpt lat="44.38577551077728" lon="8.02691185009072"><ele>392.4</ele><time>2026-04-03T10:26:14.999Z</time></trkpt><trkpt lat="44.385777041030074" lon="8.026779788343964"><ele>394.59999999999997</ele><time>2026-04-03T10:26:15.999Z</time></trkpt><trkpt lat="44.385784333764036" lon="8.02664372775945"><ele>396.79999999999995</ele><time>2026-04-03T10:26:16.999Z</time></trkpt><trkpt lat="44.385788630038746" lon="8.026505185122012"><ele>399.0</ele><time>2026-04-03T10:26:17.999Z</time></trkpt><trkpt lat="44.38579326264677" lon="8.026356302916493"><ele>400.6</ele><time>2026-04-03T10:26:18.999Z</time></trkpt><trkpt lat="44.38580911316778" lon="8.026205199676951"><ele>402.2</ele><time>2026-04-03T10:26:19.999Z</time></trkpt><trkpt lat="44.385831663914445" lon="8.02605790685045"><ele>403.8</ele><time>2026-04-03T10:26:20.999Z</time></trkpt><trkpt lat="44.38585406165804" lon="8.025905247622184"><ele>405.40000000000003</ele><time>2026-04-03T10:26:21.999Z</time></trkpt><trkpt lat="44.385872514354936" lon="8.025743445950678"><ele>407.0</ele><time>2026-04-03T10:26:22.999Z</time></trkpt><trkpt lat="44.385889674125515" lon="8.025567548448214"><ele>408.0</ele><time>2026-04-03T10:26:23.999Z</time></trkpt><trkpt lat="44.385914287516506" lon="8.02540700095011"><ele>409.0</ele><time>2026-04-03T10:26:24.999Z</time></trkpt><trkpt lat="44.38592517817178" lon="8.025230035914449"><ele>410.0</ele><time>2026-04-03T10:26:25.999Z</time></trkpt><trkpt lat="44.38593643451671" lon="8.025054355970065"><ele>411.0</ele><time>2026-04-03T10:26:26.999Z</time></trkpt><trkpt lat="44.3859521889958" lon="8.02486244402874"><ele>411.4</ele><time>2026-04-03T10:26:27.999Z</time></trkpt><trkpt lat="44.38596724203887" lon="8.024711246956986"><ele>411.8</ele><time>2026-04-03T10:26:28.999Z</time></trkpt><trkpt lat="44.385983607806814" lon="8.024555326305073"><ele>412.2</ele><time>2026-04-03T10:26:29.999Z</time></trkpt><trkpt lat="44.386000942957274" lon="8.024403298065524"><ele>412.59999999999997</ele><time>2026-04-03T10:26:30.999Z</time></trkpt><trkpt lat="44.386017284363625" lon="8.024249139596225"><ele>413.0</ele><time>2026-04-03T10:26:31.999Z</time></trkpt><trkpt lat="44.386026350552854" lon="8.02408427512356"><ele>413.25</ele><time>2026-04-03T10:26:32.999Z</time></trkpt><trkpt lat="44.386043189748094" lon="8.023926835045742"><ele>413.5</ele><time>2026-04-03T10:26:33.999Z</time></trkpt><trkpt lat="44.38605416494765" lon="8.02376762177048"><ele>413.75</ele><time>2026-04-03T10:26:34.999Z</time></trkpt><trkpt lat="44.38606861448729" lon="8.0236063190566"><ele>414.0</ele><time>2026-04-03T10:26:35.999Z</time></trkpt><trkpt lat="44.38607994737747" lon="8.02344257319883"><ele>414.2</ele><time>2026-04-03T10:26:36.999Z</time></trkpt><trkpt lat="44.38609543161755" lon="8.023284951580367"><ele>414.4</ele><time>2026-04-03T10:26:37.999Z</time></trkpt><trkpt lat="44.38611347257301" lon="8.023131967611667"><ele>414.6</ele><time>2026-04-03T10:26:38.999Z</time></trkpt><trkpt lat="44.38612879168895" lon="8.02297920920908"><ele>414.8</ele><time>2026-04-03T10:26:39.999Z</time></trkpt><trkpt lat="44.38614502866982" lon="8.022835025294283"><ele>415.0</ele><time>2026-04-03T10:26:40.999Z</time></trkpt><trkpt lat="44.38615766932116" lon="8.022688237406484"><ele>415.0</ele><time>2026-04-03T10:26:41.999Z</time></trkpt><trkpt lat="44.38617075260959" lon="8.022540577821617"><ele>415.0</ele><time>2026-04-03T10:26:42.999Z</time></trkpt><trkpt lat="44.38618285322469" lon="8.022397832288158"><ele>415.0</ele><time>2026-04-03T10:26:43.999Z</time></trkpt><trkpt lat="44.3861972355309" lon="8.022257504795979"><ele>415.0</ele><time>2026-04-03T10:26:44.999Z</time></trkpt><trkpt lat="44.38620184955177" lon="8.022091104368085"><ele>415.0</ele><time>2026-04-03T10:26:45.999Z</time></trkpt><trkpt lat="44.38621093365294" lon="8.021911303293292"><ele>415.0</ele><time>2026-04-03T10:26:46.999Z</time></trkpt><trkpt lat="44.38623751214608" lon="8.0217324965043"><ele>415.0</ele><time>2026-04-03T10:26:47.999Z</time></trkpt><trkpt lat="44.3862622308809" lon="8.02157491940745"><ele>415.0</ele><time>2026-04-03T10:26:48.999Z</time></trkpt><trkpt lat="44.38628360425262" lon="8.021407121419843"><ele>415.0</ele><time>2026-04-03T10:26:49.999Z</time></trkpt><trkpt lat="44.38629949090461" lon="8.02124427623027"><ele>414.75</ele><time>2026-04-03T10:26:50.999Z</time></trkpt><trkpt lat="44.386315895176274" lon="8.02107741446243"><ele>414.5</ele><time>2026-04-03T10:26:51.999Z</time></trkpt><trkpt lat="44.38633039963517" lon="8.020907739264318"><ele>414.25</ele><time>2026-04-03T10:26:52.999Z</time></trkpt><trkpt lat="44.386345032316456" lon="8.020751663708861"><ele>414.0</ele><time>2026-04-03T10:26:53.999Z</time></trkpt><trkpt lat="44.38636162229417" lon="8.020597301112351"><ele>414.0</ele><time>2026-04-03T10:26:54.999Z</time></trkpt><trkpt lat="44.38637843109394" lon="8.02044219989375"><ele>414.0</ele><time>2026-04-03T10:26:55.999Z</time></trkpt><trkpt lat="44.386394317753904" lon="8.020290011965029"><ele>414.0</ele><time>2026-04-03T10:26:56.999Z</time></trkpt><trkpt lat="44.386409118628485" lon="8.0201301039894"><ele>414.0</ele><time>2026-04-03T10:26:57.998Z</time></trkpt><trkpt lat="44.38642382018834" lon="8.0199711839099"><ele>414.0</ele><time>2026-04-03T10:26:58.998Z</time></trkpt><trkpt lat="44.386437410122575" lon="8.019805019565986"><ele>414.0</ele><time>2026-04-03T10:26:59.998Z</time></trkpt><trkpt lat="44.386450053215135" lon="8.019655253093317"><ele>414.0</ele><time>2026-04-03T10:27:00.998Z</time></trkpt><trkpt lat="44.38646829074282" lon="8.019508800787445"><ele>414.0</ele><time>2026-04-03T10:27:01.998Z</time></trkpt><trkpt lat="44.38648964068216" lon="8.019345585257469"><ele>414.0</ele><time>2026-04-03T10:27:02.998Z</time></trkpt><trkpt lat="44.38651028464637" lon="8.019182241151814"><ele>414.0</ele><time>2026-04-03T10:27:03.998Z</time></trkpt><trkpt lat="44.38652977570081" lon="8.019019839239935"><ele>414.0</ele><time>2026-04-03T10:27:04.998Z</time></trkpt><trkpt lat="44.3865473520826" lon="8.018873718740181"><ele>414.0</ele><time>2026-04-03T10:27:05.998Z</time></trkpt><trkpt lat="44.38655999093131" lon="8.018730745690048"><ele>414.0</ele><time>2026-04-03T10:27:06.998Z</time></trkpt><trkpt lat="44.38657235508683" lon="8.01857242357666"><ele>414.0</ele><time>2026-04-03T10:27:07.998Z</time></trkpt><trkpt lat="44.38659074507682" lon="8.01841066519743"><ele>414.0</ele><time>2026-04-03T10:27:08.998Z</time></trkpt><trkpt lat="44.38660656202729" lon="8.018245708280569"><ele>414.0</ele><time>2026-04-03T10:27:09.998Z</time></trkpt><trkpt lat="44.386625875109765" lon="8.018093805761884"><ele>414.0</ele><time>2026-04-03T10:27:10.998Z</time></trkpt><trkpt lat="44.38663495325149" lon="8.017933284663373"><ele>414.0</ele><time>2026-04-03T10:27:11.998Z</time></trkpt><trkpt lat="44.386648716787846" lon="8.017773318504602"><ele>414.0</ele><time>2026-04-03T10:27:12.998Z</time></trkpt><trkpt lat="44.3866593293011" lon="8.017613788474835"><ele>414.0</ele><time>2026-04-03T10:27:13.998Z</time></trkpt><trkpt lat="44.38667369554739" lon="8.017470477665798"><ele>414.0</ele><time>2026-04-03T10:27:14.998Z</time></trkpt><trkpt lat="44.38668941533935" lon="8.017318771251608"><ele>414.0</ele><time>2026-04-03T10:27:15.998Z</time></trkpt><trkpt lat="44.38670361310755" lon="8.017168462788117"><ele>414.0</ele><time>2026-04-03T10:27:16.998Z</time></trkpt><trkpt lat="44.38671819502326" lon="8.01701912195692"><ele>414.0</ele><time>2026-04-03T10:27:17.998Z</time></trkpt><trkpt lat="44.38673034816179" lon="8.016884196843456"><ele>414.0</ele><time>2026-04-03T10:27:18.998Z</time></trkpt><trkpt lat="44.38674607529908" lon="8.016739574820097"><ele>414.0</ele><time>2026-04-03T10:27:19.998Z</time></trkpt><trkpt lat="44.38675948786982" lon="8.016595519906321"><ele>414.0</ele><time>2026-04-03T10:27:20.998Z</time></trkpt><trkpt lat="44.38677138762662" lon="8.01645402854592"><ele>414.0</ele><time>2026-04-03T10:27:21.998Z</time></trkpt><trkpt lat="44.38678171457958" lon="8.01631444272578"><ele>414.0</ele><time>2026-04-03T10:27:23Z</time></trkpt><trkpt lat="44.386795843230374" lon="8.016167631726967"><ele>414.0</ele><time>2026-04-03T10:27:24Z</time></trkpt><trkpt lat="44.38680799598423" lon="8.016009537730731"><ele>414.0</ele><time>2026-04-03T10:27:25Z</time></trkpt><trkpt lat="44.38681957464318" lon="8.015853424750508"><ele>414.0</ele><time>2026-04-03T10:27:26Z</time></trkpt><trkpt lat="44.38682976510749" lon="8.015723034039661"><ele>414.0</ele><time>2026-04-03T10:27:27Z</time></trkpt><trkpt lat="44.38684618188333" lon="8.015542056423122"><ele>414.0</ele><time>2026-04-03T10:27:28Z</time></trkpt><trkpt lat="44.38685970648552" lon="8.015384720431907"><ele>414.0</ele><time>2026-04-03T10:27:29Z</time></trkpt><trkpt lat="44.386878033962006" lon="8.015231583614803"><ele>414.0</ele><time>2026-04-03T10:27:30Z</time></trkpt><trkpt lat="44.386894260233184" lon="8.01507091062665"><ele>413.79999999999995</ele><time>2026-04-03T10:27:31Z</time></trkpt><trkpt lat="44.386909445184166" lon="8.014932459865326"><ele>413.59999999999997</ele><time>2026-04-03T10:27:32Z</time></trkpt><trkpt lat="44.38692215010242" lon="8.014786271292573"><ele>413.4</ele><time>2026-04-03T10:27:33Z</time></trkpt><trkpt lat="44.386934999356704" lon="8.01463196159118"><ele>413.2</ele><time>2026-04-03T10:27:34Z</time></trkpt><trkpt lat="44.38694895609569" lon="8.014477128019882"><ele>413.0</ele><time>2026-04-03T10:27:35Z</time></trkpt><trkpt lat="44.38696235714638" lon="8.01432014865719"><ele>413.0</ele><time>2026-04-03T10:27:36Z</time></trkpt><trkpt lat="44.38697671058233" lon="8.014155365605985"><ele>413.0</ele><time>2026-04-03T10:27:37Z</time></trkpt><trkpt lat="44.38699210152684" lon="8.0139946249231"><ele>413.0</ele><time>2026-04-03T10:27:38Z</time></trkpt><trkpt lat="44.38700555323859" lon="8.01384113752269"><ele>413.0</ele><time>2026-04-03T10:27:39Z</time></trkpt><trkpt lat="44.3870193613026" lon="8.013671782735372"><ele>413.0</ele><time>2026-04-03T10:27:40Z</time></trkpt><trkpt lat="44.38703584222974" lon="8.013503057919785"><ele>413.0</ele><time>2026-04-03T10:27:41Z</time></trkpt><trkpt lat="44.387048749493594" lon="8.013355350875534"><ele>413.0</ele><time>2026-04-03T10:27:42Z</time></trkpt><trkpt lat="44.38706213719158" lon="8.013211031183143"><ele>413.0</ele><time>2026-04-03T10:27:43Z</time></trkpt><trkpt lat="44.38707695629661" lon="8.013056555177762"><ele>413.0</ele><time>2026-04-03T10:27:44Z</time></trkpt><trkpt lat="44.3870913260233" lon="8.012901212972281"><ele>413.0</ele><time>2026-04-03T10:27:45Z</time></trkpt><trkpt lat="44.38710634318251" lon="8.012737711047798"><ele>413.0</ele><time>2026-04-03T10:27:46Z</time></trkpt><trkpt lat="44.3871222771619" lon="8.012576140923926"><ele>413.0</ele><time>2026-04-03T10:27:47Z</time></trkpt><trkpt lat="44.38713919209184" lon="8.012427894838364"><ele>413.0</ele><time>2026-04-03T10:27:48Z</time></trkpt><trkpt lat="44.38715615585903" lon="8.012261865799234"><ele>413.0</ele><time>2026-04-03T10:27:49Z</time></trkpt><trkpt lat="44.38717537819456" lon="8.012100449741578"><ele>413.0</ele><time>2026-04-03T10:27:50Z</time></trkpt><trkpt lat="44.38718904023657" lon="8.01193811290781"><ele>413.0</ele><time>2026-04-03T10:27:51Z</time></trkpt><trkpt lat="44.38720421913386" lon="8.01176483816471"><ele>413.0</ele><time>2026-04-03T10:27:52Z</time></trkpt><trkpt lat="44.387225745146246" lon="8.011587403277309"><ele>412.75</ele><time>2026-04-03T10:27:53Z</time></trkpt><trkpt lat="44.38725689557877" lon="8.01139188704805"><ele>412.5</ele><time>2026-04-03T10:27:54Z</time></trkpt><trkpt lat="44.38730261647028" lon="8.011191597937803"><ele>412.25</ele><time>2026-04-03T10:27:55Z</time></trkpt><trkpt lat="44.38735877709297" lon="8.010992447395893"><ele>412.0</ele><time>2026-04-03T10:27:56Z</time></trkpt><trkpt lat="44.38742971832561" lon="8.01078948456312"><ele>415.0</ele><time>2026-04-03T10:27:57Z</time></trkpt><trkpt lat="44.3875236412195" lon="8.01059138882696"><ele>418.0</ele><time>2026-04-03T10:27:58Z</time></trkpt><trkpt lat="44.387641142022254" lon="8.010407439450738"><ele>421.0</ele><time>2026-04-03T10:27:59Z</time></trkpt><trkpt lat="44.3877731989164" lon="8.010233294295196"><ele>421.0</ele><time>2026-04-03T10:28:00Z</time></trkpt><trkpt lat="44.38791600595699" lon="8.01006758452789"><ele>421.0</ele><time>2026-04-03T10:28:01Z</time></trkpt><trkpt lat="44.38806442351132" lon="8.009914190500785"><ele>421.0</ele><time>2026-04-03T10:28:02Z</time></trkpt><trkpt lat="44.388215045334974" lon="8.009756262332964"><ele>422.0</ele><time>2026-04-03T10:28:03Z</time></trkpt><trkpt lat="44.38836642923306" lon="8.009597199250695"><ele>423.0</ele><time>2026-04-03T10:28:04Z</time></trkpt><trkpt lat="44.38852379403755" lon="8.009435670601054"><ele>424.0</ele><time>2026-04-03T10:28:04.999Z</time></trkpt><trkpt lat="44.388681554984714" lon="8.00927739983988"><ele>424.33333333333337</ele><time>2026-04-03T10:28:05.999Z</time></trkpt><trkpt lat="44.38883974771271" lon="8.009111858106753"><ele>424.66666666666663</ele><time>2026-04-03T10:28:06.999Z</time></trkpt><trkpt lat="44.3889907698215" lon="8.00893957953387"><ele>425.0</ele><time>2026-04-03T10:28:07.999Z</time></trkpt><trkpt lat="44.389135465893894" lon="8.008749695735984"><ele>425.0</ele><time>2026-04-03T10:28:08.999Z</time></trkpt><trkpt lat="44.38927736797908" lon="8.008557125043746"><ele>425.0</ele><time>2026-04-03T10:28:09.999Z</time></trkpt><trkpt lat="44.38942114480979" lon="8.008352521078411"><ele>425.0</ele><time>2026-04-03T10:28:10.999Z</time></trkpt><trkpt lat="44.38957089287189" lon="8.008155056264318"><ele>425.0</ele><time>2026-04-03T10:28:11.999Z</time></trkpt><trkpt lat="44.389721609599995" lon="8.007957672597303"><ele>425.0</ele><time>2026-04-03T10:28:12.999Z</time></trkpt><trkpt lat="44.38987606326483" lon="8.007758079656757"><ele>425.0</ele><time>2026-04-03T10:28:13.999Z</time></trkpt><trkpt lat="44.390029238613096" lon="8.007554157620621"><ele>425.0</ele><time>2026-04-03T10:28:14.999Z</time></trkpt><trkpt lat="44.39018671814266" lon="8.007350128967763"><ele>425.0</ele><time>2026-04-03T10:28:15.999Z</time></trkpt><trkpt lat="44.390345364721256" lon="8.007138925239444"><ele>425.0</ele><time>2026-04-03T10:28:16.999Z</time></trkpt><trkpt lat="44.390508180154775" lon="8.006925426278471"><ele>425.0</ele><time>2026-04-03T10:28:17.999Z</time></trkpt><trkpt lat="44.39067004935596" lon="8.006713433611345"><ele>425.0</ele><time>2026-04-03T10:28:18.999Z</time></trkpt><trkpt lat="44.39083416667569" lon="8.006498606675512"><ele>425.0</ele><time>2026-04-03T10:28:19.999Z</time></trkpt><trkpt lat="44.390982302563806" lon="8.00630583345541"><ele>425.0</ele><time>2026-04-03T10:28:20.999Z</time></trkpt><trkpt lat="44.39112025307966" lon="8.006121325459036"><ele>425.0</ele><time>2026-04-03T10:28:21.999Z</time></trkpt><trkpt lat="44.39125997187166" lon="8.005936740808206"><ele>425.0</ele><time>2026-04-03T10:28:22.999Z</time></trkpt><trkpt lat="44.39139894045244" lon="8.005751076148577"><ele>424.66666666666663</ele><time>2026-04-03T10:28:23.999Z</time></trkpt><trkpt lat="44.391528888270706" lon="8.005552873019688"><ele>424.33333333333337</ele><time>2026-04-03T10:28:24.999Z</time></trkpt><trkpt lat="44.3916478045823" lon="8.005339802687976"><ele>424.0</ele><time>2026-04-03T10:28:25.999Z</time></trkpt><trkpt lat="44.391758904514255" lon="8.00511007860364"><ele>424.33333333333337</ele><time>2026-04-03T10:28:26.999Z</time></trkpt><trkpt lat="44.391850927624944" lon="8.004862280581731"><ele>424.66666666666663</ele><time>2026-04-03T10:28:27.999Z</time></trkpt><trkpt lat="44.391940934153546" lon="8.004602826880237"><ele>425.0</ele><time>2026-04-03T10:28:28.999Z</time></trkpt><trkpt lat="44.39203305714028" lon="8.004338921181507"><ele>424.3333333333333</ele><time>2026-04-03T10:28:29.999Z</time></trkpt><trkpt lat="44.392125345964786" lon="8.004071316772626"><ele>423.66666666666663</ele><time>2026-04-03T10:28:30.999Z</time></trkpt><trkpt lat="44.39221947425624" lon="8.003800310698017"><ele>423.0</ele><time>2026-04-03T10:28:31.999Z</time></trkpt><trkpt lat="44.392305447636154" lon="8.003541712226623"><ele>422.0</ele><time>2026-04-03T10:28:32.999Z</time></trkpt><trkpt lat="44.39239258564743" lon="8.00329732792492"><ele>421.0</ele><time>2026-04-03T10:28:33.999Z</time></trkpt><trkpt lat="44.39247753188683" lon="8.003044441389251"><ele>420.0</ele><time>2026-04-03T10:28:34.999Z</time></trkpt><trkpt lat="44.392562186836514" lon="8.002781495087918"><ele>420.0</ele><time>2026-04-03T10:28:35.999Z</time></trkpt><trkpt lat="44.39264398866131" lon="8.00250567424005"><ele>420.0</ele><time>2026-04-03T10:28:36.999Z</time></trkpt><trkpt lat="44.3926874573501" lon="8.00222844454347"><ele>420.0</ele><time>2026-04-03T10:28:37.999Z</time></trkpt><trkpt lat="44.39273890038875" lon="8.001935305258453"><ele>419.5</ele><time>2026-04-03T10:28:38.999Z</time></trkpt><trkpt lat="44.39279050992515" lon="8.0016274925185"><ele>419.0</ele><time>2026-04-03T10:28:39.999Z</time></trkpt><trkpt lat="44.39284630906791" lon="8.00131306983563"><ele>419.0</ele><time>2026-04-03T10:28:40.999Z</time></trkpt><trkpt lat="44.39290301487651" lon="8.000998638665669"><ele>419.0</ele><time>2026-04-03T10:28:41.999Z</time></trkpt><trkpt lat="44.39296082941415" lon="8.000670413636827"><ele>418.66666666666663</ele><time>2026-04-03T10:28:42.999Z</time></trkpt><trkpt lat="44.39301661538668" lon="8.000356652804339"><ele>418.33333333333337</ele><time>2026-04-03T10:28:43.999Z</time></trkpt><trkpt lat="44.39306439742581" lon="8.000067576225451"><ele>418.0</ele><time>2026-04-03T10:28:44.999Z</time></trkpt><trkpt lat="44.39311751037217" lon="7.999798671531152"><ele>418.0</ele><time>2026-04-03T10:28:45.999Z</time></trkpt><trkpt lat="44.39316739741448" lon="7.999538774130735"><ele>418.0</ele><time>2026-04-03T10:28:46.999Z</time></trkpt><trkpt lat="44.393225939506436" lon="7.999272285554759"><ele>418.0</ele><time>2026-04-03T10:28:47.999Z</time></trkpt><trkpt lat="44.39330366590507" lon="7.999007470655729"><ele>418.0</ele><time>2026-04-03T10:28:48.999Z</time></trkpt><trkpt lat="44.39339960572095" lon="7.998754949450959"><ele>418.0</ele><time>2026-04-03T10:28:49.999Z</time></trkpt><trkpt lat="44.393501015768976" lon="7.998505200333724"><ele>418.0</ele><time>2026-04-03T10:28:50.999Z</time></trkpt><trkpt lat="44.393605593191836" lon="7.998253265615731"><ele>418.33333333333337</ele><time>2026-04-03T10:28:51.999Z</time></trkpt><trkpt lat="44.39371062865129" lon="7.997999336617987"><ele>418.66666666666663</ele><time>2026-04-03T10:28:52.999Z</time></trkpt><trkpt lat="44.393815743298006" lon="7.997736439552538"><ele>419.0</ele><time>2026-04-03T10:28:53.999Z</time></trkpt><trkpt lat="44.39392319086395" lon="7.997467108878291"><ele>419.0</ele><time>2026-04-03T10:28:54.999Z</time></trkpt><trkpt lat="44.394028294943084" lon="7.997190051930933"><ele>419.0</ele><time>2026-04-03T10:28:55.999Z</time></trkpt><trkpt lat="44.394133560293604" lon="7.996900326815793"><ele>419.66666666666663</ele><time>2026-04-03T10:28:56.999Z</time></trkpt><trkpt lat="44.39423598137295" lon="7.996612260115156"><ele>420.33333333333337</ele><time>2026-04-03T10:28:57.999Z</time></trkpt><trkpt lat="44.39433221013297" lon="7.996352419041398"><ele>421.0</ele><time>2026-04-03T10:28:58.999Z</time></trkpt><trkpt lat="44.394430580884844" lon="7.996091276796395"><ele>420.6666666666667</ele><time>2026-04-03T10:28:59.999Z</time></trkpt><trkpt lat="44.39452862143661" lon="7.995832792788549"><ele>420.33333333333337</ele><time>2026-04-03T10:29:00.998Z</time></trkpt><trkpt lat="44.39462556878548" lon="7.995576481670434"><ele>420.0</ele><time>2026-04-03T10:29:01.998Z</time></trkpt><trkpt lat="44.39471882050574" lon="7.995301027441946"><ele>419.33333333333337</ele><time>2026-04-03T10:29:02.998Z</time></trkpt><trkpt lat="44.39481661746008" lon="7.995034669937693"><ele>418.6666666666667</ele><time>2026-04-03T10:29:03.998Z</time></trkpt><trkpt lat="44.394912517503" lon="7.994777958865624"><ele>418.0</ele><time>2026-04-03T10:29:04.998Z</time></trkpt><trkpt lat="44.395002073048936" lon="7.994531607770789"><ele>418.0</ele><time>2026-04-03T10:29:05.998Z</time></trkpt><trkpt lat="44.39509119311549" lon="7.994271238754798"><ele>418.0</ele><time>2026-04-03T10:29:06.998Z</time></trkpt><trkpt lat="44.39517710299016" lon="7.994040327287666"><ele>418.0</ele><time>2026-04-03T10:29:07.998Z</time></trkpt><trkpt lat="44.39526492502806" lon="7.993794988756308"><ele>418.0</ele><time>2026-04-03T10:29:08.998Z</time></trkpt><trkpt lat="44.39535880562352" lon="7.993543402857094"><ele>418.0</ele><time>2026-04-03T10:29:09.998Z</time></trkpt><trkpt lat="44.395454433584" lon="7.99328784141418"><ele>418.0</ele><time>2026-04-03T10:29:10.998Z</time></trkpt><trkpt lat="44.3955442175291" lon="7.993032532596276"><ele>417.6666666666667</ele><time>2026-04-03T10:29:11.998Z</time></trkpt><trkpt lat="44.39562572754563" lon="7.992793014843315"><ele>417.33333333333337</ele><time>2026-04-03T10:29:12.998Z</time></trkpt><trkpt lat="44.39570692453976" lon="7.9925549368676885"><ele>417.0</ele><time>2026-04-03T10:29:13.998Z</time></trkpt><trkpt lat="44.39579075571779" lon="7.992313900090814"><ele>417.66666666666663</ele><time>2026-04-03T10:29:14.998Z</time></trkpt><trkpt lat="44.39587910491792" lon="7.992106830857603"><ele>418.3333333333333</ele><time>2026-04-03T10:29:15.998Z</time></trkpt><trkpt lat="44.39596967727641" lon="7.991918696825598"><ele>419.0</ele><time>2026-04-03T10:29:16.998Z</time></trkpt><trkpt lat="44.396065788969274" lon="7.991750284451376"><ele>419.0</ele><time>2026-04-03T10:29:17.998Z</time></trkpt><trkpt lat="44.39615609103881" lon="7.991584382342803"><ele>419.0</ele><time>2026-04-03T10:29:18.998Z</time></trkpt><trkpt lat="44.396249019547774" lon="7.991415195436429"><ele>419.0</ele><time>2026-04-03T10:29:19.998Z</time></trkpt><trkpt lat="44.396342533030335" lon="7.99123731961445"><ele>419.0</ele><time>2026-04-03T10:29:20.998Z</time></trkpt><trkpt lat="44.39643878810292" lon="7.99107624816016"><ele>419.0</ele><time>2026-04-03T10:29:21.998Z</time></trkpt><trkpt lat="44.39652822256215" lon="7.990925319364571"><ele>419.0</ele><time>2026-04-03T10:29:22.998Z</time></trkpt><trkpt lat="44.396615285938985" lon="7.990769826611913"><ele>419.0</ele><time>2026-04-03T10:29:23.998Z</time></trkpt><trkpt lat="44.39669887483976" lon="7.990614635308694"><ele>418.75</ele><time>2026-04-03T10:29:24.998Z</time></trkpt><trkpt lat="44.3967792216871" lon="7.990455646787971"><ele>418.5</ele><time>2026-04-03T10:29:25.998Z</time></trkpt><trkpt lat="44.39686314107067" lon="7.990281217707866"><ele>418.25</ele><time>2026-04-03T10:29:26.998Z</time></trkpt><trkpt lat="44.396945433411894" lon="7.990096568008304"><ele>418.0</ele><time>2026-04-03T10:29:27.998Z</time></trkpt><trkpt lat="44.39701610742767" lon="7.98989672898236"><ele>417.6666666666667</ele><time>2026-04-03T10:29:29Z</time></trkpt><trkpt lat="44.39707757642291" lon="7.989687665839095"><ele>417.33333333333337</ele><time>2026-04-03T10:29:30Z</time></trkpt><trkpt lat="44.39713338425558" lon="7.9894872323465265"><ele>417.0</ele><time>2026-04-03T10:29:31Z</time></trkpt><trkpt lat="44.397169977796764" lon="7.989270462448372"><ele>416.66666666666663</ele><time>2026-04-03T10:29:32Z</time></trkpt><trkpt lat="44.39720145923938" lon="7.989041827278913"><ele>416.3333333333333</ele><time>2026-04-03T10:29:33Z</time></trkpt><trkpt lat="44.39724368769979" lon="7.988812044890942"><ele>416.0</ele><time>2026-04-03T10:29:34Z</time></trkpt><trkpt lat="44.397280471549564" lon="7.988600123312315"><ele>416.0</ele><time>2026-04-03T10:29:35Z</time></trkpt><trkpt lat="44.39731580507752" lon="7.9883968444936775"><ele>416.0</ele><time>2026-04-03T10:29:36Z</time></trkpt><trkpt lat="44.397348564087295" lon="7.988205091432851"><ele>416.0</ele><time>2026-04-03T10:29:37Z</time></trkpt><trkpt lat="44.39738648303937" lon="7.988004877221372"><ele>416.0</ele><time>2026-04-03T10:29:38Z</time></trkpt><trkpt lat="44.39742230263097" lon="7.987814490732125"><ele>415.75</ele><time>2026-04-03T10:29:39Z</time></trkpt><trkpt lat="44.39745698817903" lon="7.987630154325193"><ele>415.5</ele><time>2026-04-03T10:29:40Z</time></trkpt><trkpt lat="44.397490393426466" lon="7.987437802671577"><ele>415.25</ele><time>2026-04-03T10:29:41Z</time></trkpt><trkpt lat="44.397529874073356" lon="7.98723764942629"><ele>415.0</ele><time>2026-04-03T10:29:42Z</time></trkpt><trkpt lat="44.39756799933925" lon="7.987032447909362"><ele>415.5</ele><time>2026-04-03T10:29:43Z</time></trkpt><trkpt lat="44.39760518911236" lon="7.986835660074028"><ele>416.0</ele><time>2026-04-03T10:29:44Z</time></trkpt><trkpt lat="44.397638149698984" lon="7.9866495994186355"><ele>416.5</ele><time>2026-04-03T10:29:45Z</time></trkpt><trkpt lat="44.397672200578114" lon="7.986458834704559"><ele>417.0</ele><time>2026-04-03T10:29:46Z</time></trkpt><trkpt lat="44.39770623922259" lon="7.9862697397708855"><ele>417.75</ele><time>2026-04-03T10:29:47Z</time></trkpt><trkpt lat="44.39774224568009" lon="7.986081856797077"><ele>418.5</ele><time>2026-04-03T10:29:48Z</time></trkpt><trkpt lat="44.3977756206102" lon="7.985907017687964"><ele>419.25</ele><time>2026-04-03T10:29:49Z</time></trkpt><trkpt lat="44.39781172337" lon="7.985721087603936"><ele>420.0</ele><time>2026-04-03T10:29:50Z</time></trkpt><trkpt lat="44.39784931036563" lon="7.98552389198471"><ele>420.0</ele><time>2026-04-03T10:29:51Z</time></trkpt><trkpt lat="44.39788593730274" lon="7.985322878920405"><ele>420.0</ele><time>2026-04-03T10:29:52Z</time></trkpt><trkpt lat="44.39792498160041" lon="7.98512942800788"><ele>420.0</ele><time>2026-04-03T10:29:53Z</time></trkpt><trkpt lat="44.39796352107389" lon="7.984932477078639"><ele>420.0</ele><time>2026-04-03T10:29:54Z</time></trkpt><trkpt lat="44.3980035736027" lon="7.984723252522923"><ele>419.25</ele><time>2026-04-03T10:29:55Z</time></trkpt><trkpt lat="44.39803614903309" lon="7.984524583380457"><ele>418.5</ele><time>2026-04-03T10:29:56Z</time></trkpt><trkpt lat="44.39806732647996" lon="7.984336740363644"><ele>417.75</ele><time>2026-04-03T10:29:57Z</time></trkpt><trkpt lat="44.398100469859905" lon="7.984137224028326"><ele>417.0</ele><time>2026-04-03T10:29:58Z</time></trkpt><trkpt lat="44.39812389497554" lon="7.983943797572296"><ele>417.0</ele><time>2026-04-03T10:29:59Z</time></trkpt><trkpt lat="44.39813602446834" lon="7.983746416732067"><ele>417.0</ele><time>2026-04-03T10:30:00Z</time></trkpt><trkpt lat="44.398143721482526" lon="7.983545679710681"><ele>417.0</ele><time>2026-04-03T10:30:01Z</time></trkpt><trkpt lat="44.39815206274988" lon="7.983336200708448"><ele>417.0</ele><time>2026-04-03T10:30:02Z</time></trkpt><trkpt lat="44.398165996018236" lon="7.983132127447283"><ele>417.0</ele><time>2026-04-03T10:30:03Z</time></trkpt><trkpt lat="44.39817564985363" lon="7.982921562268153"><ele>417.0</ele><time>2026-04-03T10:30:04Z</time></trkpt><trkpt lat="44.39818296690304" lon="7.9827132231173605"><ele>417.0</ele><time>2026-04-03T10:30:05Z</time></trkpt><trkpt lat="44.398192214157284" lon="7.98249313553594"><ele>417.0</ele><time>2026-04-03T10:30:06Z</time></trkpt><trkpt lat="44.39820208019081" lon="7.9822734522403245"><ele>417.0</ele><time>2026-04-03T10:30:07Z</time></trkpt><trkpt lat="44.39821147382368" lon="7.98204688524138"><ele>417.0</ele><time>2026-04-03T10:30:08Z</time></trkpt><trkpt lat="44.39822177907389" lon="7.981821384148335"><ele>417.33333333333337</ele><time>2026-04-03T10:30:09Z</time></trkpt><trkpt lat="44.398235334354126" lon="7.981599512522715"><ele>417.6666666666667</ele><time>2026-04-03T10:30:10Z</time></trkpt><trkpt lat="44.39824504409229" lon="7.9813957910194855"><ele>418.0</ele><time>2026-04-03T10:30:10.999Z</time></trkpt><trkpt lat="44.39825585195615" lon="7.981191442521901"><ele>418.0</ele><time>2026-04-03T10:30:11.999Z</time></trkpt><trkpt lat="44.39826887389989" lon="7.980982988507748"><ele>418.0</ele><time>2026-04-03T10:30:12.999Z</time></trkpt><trkpt lat="44.39828251334559" lon="7.98077249506468"><ele>418.0</ele><time>2026-04-03T10:30:13.999Z</time></trkpt><trkpt lat="44.39829280887982" lon="7.980562212122028"><ele>418.0</ele><time>2026-04-03T10:30:14.999Z</time></trkpt><trkpt lat="44.39830197192814" lon="7.980358946929382"><ele>418.0</ele><time>2026-04-03T10:30:15.999Z</time></trkpt><trkpt lat="44.39831205931591" lon="7.98015716478638"><ele>418.0</ele><time>2026-04-03T10:30:16.999Z</time></trkpt><trkpt lat="44.398321125805474" lon="7.979953462848006"><ele>418.0</ele><time>2026-04-03T10:30:17.999Z</time></trkpt><trkpt lat="44.398331766821364" lon="7.979743336461716"><ele>419.33333333333337</ele><time>2026-04-03T10:30:18.999Z</time></trkpt><trkpt lat="44.398347324769475" lon="7.979533267895816"><ele>420.66666666666663</ele><time>2026-04-03T10:30:19.999Z</time></trkpt><trkpt lat="44.3983625062133" lon="7.979316780206305"><ele>422.0</ele><time>2026-04-03T10:30:20.999Z</time></trkpt><trkpt lat="44.39837416042342" lon="7.979096037115411"><ele>422.5</ele><time>2026-04-03T10:30:21.999Z</time></trkpt><trkpt lat="44.39838211053181" lon="7.9788890429252834"><ele>423.0</ele><time>2026-04-03T10:30:22.999Z</time></trkpt><trkpt lat="44.39839571291649" lon="7.978695049231905"><ele>423.5</ele><time>2026-04-03T10:30:23.999Z</time></trkpt><trkpt lat="44.398417696874276" lon="7.978510607021291"><ele>424.0</ele><time>2026-04-03T10:30:24.999Z</time></trkpt><trkpt lat="44.39846092220513" lon="7.978332860023364"><ele>424.0</ele><time>2026-04-03T10:30:25.999Z</time></trkpt><trkpt lat="44.39852839810952" lon="7.97815958222206"><ele>424.0</ele><time>2026-04-03T10:30:26.999Z</time></trkpt><trkpt lat="44.398620345517884" lon="7.977988508986533"><ele>424.0</ele><time>2026-04-03T10:30:27.999Z</time></trkpt><trkpt lat="44.398731946251644" lon="7.97783850371242"><ele>424.0</ele><time>2026-04-03T10:30:28.999Z</time></trkpt><trkpt lat="44.39886428981441" lon="7.97771590872811"><ele>424.33333333333337</ele><time>2026-04-03T10:30:29.999Z</time></trkpt><trkpt lat="44.399011910737116" lon="7.977622113647484"><ele>424.66666666666663</ele><time>2026-04-03T10:30:30.999Z</time></trkpt><trkpt lat="44.39915238825903" lon="7.977535881432829"><ele>425.0</ele><time>2026-04-03T10:30:31.999Z</time></trkpt><trkpt lat="44.399286363877714" lon="7.977446786264833"><ele>425.0</ele><time>2026-04-03T10:30:32.999Z</time></trkpt><trkpt lat="44.39941550477652" lon="7.977362500105087"><ele>425.0</ele><time>2026-04-03T10:30:33.999Z</time></trkpt><trkpt lat="44.39954244426551" lon="7.977274899799499"><ele>425.0</ele><time>2026-04-03T10:30:34.999Z</time></trkpt><trkpt lat="44.399671114413984" lon="7.977192026118288"><ele>425.0</ele><time>2026-04-03T10:30:35.999Z</time></trkpt><trkpt lat="44.399788113760856" lon="7.9771112199723175"><ele>424.0</ele><time>2026-04-03T10:30:36.999Z</time></trkpt><trkpt lat="44.39990252238831" lon="7.977027692142765"><ele>423.0</ele><time>2026-04-03T10:30:37.999Z</time></trkpt><trkpt lat="44.40002249969661" lon="7.976947192248245"><ele>422.0</ele><time>2026-04-03T10:30:38.999Z</time></trkpt><trkpt lat="44.40013519558251" lon="7.9768666151511045"><ele>421.0</ele><time>2026-04-03T10:30:39.999Z</time></trkpt><trkpt lat="44.40024536444315" lon="7.9767826134217525"><ele>420.5</ele><time>2026-04-03T10:30:40.999Z</time></trkpt><trkpt lat="44.40035407005596" lon="7.976682529367921"><ele>420.0</ele><time>2026-04-03T10:30:41.999Z</time></trkpt><trkpt lat="44.40045228125229" lon="7.976555239070945"><ele>419.5</ele><time>2026-04-03T10:30:42.999Z</time></trkpt><trkpt lat="44.40054522396679" lon="7.9764129650812805"><ele>419.0</ele><time>2026-04-03T10:30:43.999Z</time></trkpt><trkpt lat="44.400615559705024" lon="7.976235000100216"><ele>419.0</ele><time>2026-04-03T10:30:44.999Z</time></trkpt><trkpt lat="44.40066178076749" lon="7.976035896823419"><ele>419.0</ele><time>2026-04-03T10:30:45.999Z</time></trkpt><trkpt lat="44.40070924526759" lon="7.975846392080006"><ele>419.0</ele><time>2026-04-03T10:30:46.999Z</time></trkpt><trkpt lat="44.40075599806222" lon="7.975671550894185"><ele>419.0</ele><time>2026-04-03T10:30:47.999Z</time></trkpt><trkpt lat="44.40080769114591" lon="7.975486706043282"><ele>419.2</ele><time>2026-04-03T10:30:48.999Z</time></trkpt><trkpt lat="44.40085638045962" lon="7.97531163645137"><ele>419.4</ele><time>2026-04-03T10:30:49.999Z</time></trkpt><trkpt lat="44.40089595322755" lon="7.9751681393427925"><ele>419.6</ele><time>2026-04-03T10:30:50.999Z</time></trkpt><trkpt lat="44.40093179398679" lon="7.975023716095529"><ele>419.8</ele><time>2026-04-03T10:30:51.999Z</time></trkpt><trkpt lat="44.400957700363" lon="7.974902998070419"><ele>420.0</ele><time>2026-04-03T10:30:52.999Z</time></trkpt><trkpt lat="44.40097765689016" lon="7.97481317954615"><ele>420.3333333333333</ele><time>2026-04-03T10:30:53.999Z</time></trkpt><trkpt lat="44.40099483844962" lon="7.974706650537998"><ele>420.66666666666663</ele><time>2026-04-03T10:30:55.999Z</time></trkpt><trkpt lat="44.401028833455676" lon="7.974570036892157"><ele>421.0</ele><time>2026-04-03T10:30:58.999Z</time></trkpt><trkpt lat="44.401054252247874" lon="7.9744628653925"><ele>421.3333333333333</ele><time>2026-04-03T10:31:00.999Z</time></trkpt><trkpt lat="44.401075583968115" lon="7.974360532584349"><ele>421.66666666666663</ele><time>2026-04-03T10:31:02.999Z</time></trkpt><trkpt lat="44.40109181074891" lon="7.974225763399804"><ele>422.0</ele><time>2026-04-03T10:31:04.999Z</time></trkpt><trkpt lat="44.401142840867806" lon="7.974127128526383"><ele>422.6</ele><time>2026-04-03T10:31:05.999Z</time></trkpt><trkpt lat="44.40122728029465" lon="7.97399483226151"><ele>423.20000000000005</ele><time>2026-04-03T10:31:07.998Z</time></trkpt><trkpt lat="44.40125511192045" lon="7.973841920948838"><ele>423.8</ele><time>2026-04-03T10:31:09.998Z</time></trkpt><trkpt lat="44.40119179322301" lon="7.973706816061135"><ele>424.4</ele><time>2026-04-03T10:31:11.998Z</time></trkpt><trkpt lat="44.40115474366325" lon="7.973618181358129"><ele>425.0</ele><time>2026-04-03T10:31:12.998Z</time></trkpt><trkpt lat="44.40113731998123" lon="7.973526318493476"><ele>424.99999999999994</ele><time>2026-04-03T10:31:13.998Z</time></trkpt><trkpt lat="44.401129705184" lon="7.973418334378012"><ele>425.0</ele><time>2026-04-03T10:31:14.998Z</time></trkpt><trkpt lat="44.40113217022948" lon="7.9733173139292495"><ele>425.0</ele><time>2026-04-03T10:31:15.998Z</time></trkpt><trkpt lat="44.401144014074866" lon="7.973197090426519"><ele>425.0</ele><time>2026-04-03T10:31:16.998Z</time></trkpt><trkpt lat="44.40115920619217" lon="7.97306971104247"><ele>424.99999999999994</ele><time>2026-04-03T10:31:17.998Z</time></trkpt><trkpt lat="44.401179621857764" lon="7.9729350167306"><ele>425.0</ele><time>2026-04-03T10:31:18.998Z</time></trkpt><trkpt lat="44.401205896539686" lon="7.972802152942616"><ele>424.8</ele><time>2026-04-03T10:31:19.998Z</time></trkpt><trkpt lat="44.401230488975756" lon="7.9726559269825525"><ele>424.6</ele><time>2026-04-03T10:31:20.998Z</time></trkpt><trkpt lat="44.40126357971821" lon="7.972490911723369"><ele>424.4</ele><time>2026-04-03T10:31:21.998Z</time></trkpt><trkpt lat="44.401290575260106" lon="7.972336962464671"><ele>424.2</ele><time>2026-04-03T10:31:22.998Z</time></trkpt><trkpt lat="44.40131353883727" lon="7.97220981614502"><ele>424.0</ele><time>2026-04-03T10:31:23.998Z</time></trkpt><trkpt lat="44.40133784144398" lon="7.972072072254017"><ele>422.2</ele><time>2026-04-03T10:31:24.998Z</time></trkpt><trkpt lat="44.40136101332086" lon="7.971937797834501"><ele>420.4</ele><time>2026-04-03T10:31:25.998Z</time></trkpt><trkpt lat="44.401386565331514" lon="7.971803341657891"><ele>418.6</ele><time>2026-04-03T10:31:26.998Z</time></trkpt><trkpt lat="44.401415947464116" lon="7.971668153230616"><ele>416.8</ele><time>2026-04-03T10:31:27.998Z</time></trkpt><trkpt lat="44.40144083844962" lon="7.971534018947646"><ele>415.0</ele><time>2026-04-03T10:31:28.998Z</time></trkpt><trkpt lat="44.4014682543116" lon="7.971403599930003"><ele>414.8</ele><time>2026-04-03T10:31:29.998Z</time></trkpt><trkpt lat="44.401493087283896" lon="7.971277861102828"><ele>414.6</ele><time>2026-04-03T10:31:30.998Z</time></trkpt><trkpt lat="44.401517595961415" lon="7.971136917903814"><ele>414.4</ele><time>2026-04-03T10:31:31.998Z</time></trkpt><trkpt lat="44.40155257480487" lon="7.97099084531652"><ele>414.2</ele><time>2026-04-03T10:31:32.998Z</time></trkpt><trkpt lat="44.40157738049515" lon="7.970851707263952"><ele>414.0</ele><time>2026-04-03T10:31:33.998Z</time></trkpt><trkpt lat="44.40159901816727" lon="7.970726014130399"><ele>413.79999999999995</ele><time>2026-04-03T10:31:35Z</time></trkpt><trkpt lat="44.40162457038982" lon="7.970588415652867"><ele>413.59999999999997</ele><time>2026-04-03T10:31:36Z</time></trkpt><trkpt lat="44.401645233140044" lon="7.970439794155927"><ele>413.4</ele><time>2026-04-03T10:31:37Z</time></trkpt><trkpt lat="44.401667332877665" lon="7.970296853875811"><ele>413.2</ele><time>2026-04-03T10:31:38Z</time></trkpt><trkpt lat="44.401690173303706" lon="7.970174210728158"><ele>413.0</ele><time>2026-04-03T10:31:39Z</time></trkpt><trkpt lat="44.4017150680456" lon="7.970048539733457"><ele>412.4</ele><time>2026-04-03T10:31:40Z</time></trkpt><trkpt lat="44.40174507942407" lon="7.969904670303818"><ele>411.79999999999995</ele><time>2026-04-03T10:31:41Z</time></trkpt><trkpt lat="44.40177163238111" lon="7.969762290487129"><ele>411.2</ele><time>2026-04-03T10:31:42Z</time></trkpt><trkpt lat="44.40179349243947" lon="7.96962587644624"><ele>410.6</ele><time>2026-04-03T10:31:43Z</time></trkpt><trkpt lat="44.40181296698959" lon="7.969490297263541"><ele>410.0</ele><time>2026-04-03T10:31:44Z</time></trkpt><trkpt lat="44.401825889037454" lon="7.969343428482281"><ele>410.0</ele><time>2026-04-03T10:31:45Z</time></trkpt><trkpt lat="44.40183260594367" lon="7.969194345734742"><ele>410.0</ele><time>2026-04-03T10:31:46Z</time></trkpt><trkpt lat="44.401830391027644" lon="7.969043003659947"><ele>410.0</ele><time>2026-04-03T10:31:47Z</time></trkpt><trkpt lat="44.401817068743135" lon="7.968896907220058"><ele>410.0</ele><time>2026-04-03T10:31:48Z</time></trkpt><trkpt lat="44.40179858745954" lon="7.9687571831095845"><ele>410.0</ele><time>2026-04-03T10:31:49Z</time></trkpt><trkpt lat="44.40176836923112" lon="7.968616606374697"><ele>409.8</ele><time>2026-04-03T10:31:50Z</time></trkpt><trkpt lat="44.40173190538587" lon="7.9684788450897575"><ele>409.6</ele><time>2026-04-03T10:31:51Z</time></trkpt><trkpt lat="44.40169281409407" lon="7.968343040304305"><ele>409.4</ele><time>2026-04-03T10:31:52Z</time></trkpt><trkpt lat="44.401649584406144" lon="7.96820665315903"><ele>409.2</ele><time>2026-04-03T10:31:53Z</time></trkpt><trkpt lat="44.40159724612436" lon="7.968060468451059"><ele>409.0</ele><time>2026-04-03T10:31:54Z</time></trkpt><trkpt lat="44.40154520211172" lon="7.967899694468352"><ele>408.5</ele><time>2026-04-03T10:31:55.017Z</time></trkpt><trkpt lat="44.40148954083327" lon="7.967727828156921"><ele>408.0</ele><time>2026-04-03T10:31:56.02Z</time></trkpt><trkpt lat="44.401424335005366" lon="7.9675273294034445"><ele>407.5</ele><time>2026-04-03T10:31:57.021Z</time></trkpt><trkpt lat="44.40137171371351" lon="7.967347634883329"><ele>407.0</ele><time>2026-04-03T10:31:58.02Z</time></trkpt><trkpt lat="44.40091474451534" lon="7.965805884458092"><ele>407.0</ele><time>2026-04-03T10:32:09Z</time></trkpt><trkpt lat="44.40088927549588" lon="7.965667662560437"><ele>407.0</ele><time>2026-04-03T10:32:10Z</time></trkpt><trkpt lat="44.40089377343471" lon="7.965496880785548"><ele>407.0</ele><time>2026-04-03T10:32:11Z</time></trkpt><trkpt lat="44.40090673454443" lon="7.965288607675574"><ele>407.0</ele><time>2026-04-03T10:32:12Z</time></trkpt><trkpt lat="44.400940082882364" lon="7.965094572361826"><ele>401.0</ele><time>2026-04-03T10:32:13Z</time></trkpt><trkpt lat="44.40097494848667" lon="7.964886732852269"><ele>395.0</ele><time>2026-04-03T10:32:14Z</time></trkpt><trkpt lat="44.400996676826814" lon="7.964626779407495"><ele>389.0</ele><time>2026-04-03T10:32:15Z</time></trkpt><trkpt lat="44.40102962391884" lon="7.964375594509387"><ele>385.0</ele><time>2026-04-03T10:32:16Z</time></trkpt><trkpt lat="44.40106778526908" lon="7.964141681675845"><ele>381.0</ele><time>2026-04-03T10:32:17Z</time></trkpt><trkpt lat="44.40110393170704" lon="7.963919595410122"><ele>377.0</ele><time>2026-04-03T10:32:17.999Z</time></trkpt><trkpt lat="44.40113681732694" lon="7.963704995992109"><ele>377.0</ele><time>2026-04-03T10:32:18.999Z</time></trkpt><trkpt lat="44.40115852154268" lon="7.963525512013873"><ele>377.0</ele><time>2026-04-03T10:32:19.999Z</time></trkpt><trkpt lat="44.40118632414885" lon="7.96335588248824"><ele>377.0</ele><time>2026-04-03T10:32:20.999Z</time></trkpt><trkpt lat="44.401211996724456" lon="7.963182886366963"><ele>377.0</ele><time>2026-04-03T10:32:21.999Z</time></trkpt><trkpt lat="44.401236154997555" lon="7.963014746044084"><ele>376.0</ele><time>2026-04-03T10:32:22.999Z</time></trkpt><trkpt lat="44.40125991164138" lon="7.962867832736373"><ele>375.0</ele><time>2026-04-03T10:32:23.999Z</time></trkpt><trkpt lat="44.401283366738106" lon="7.962720037286431"><ele>374.0</ele><time>2026-04-03T10:32:24.999Z</time></trkpt><trkpt lat="44.40131280740565" lon="7.962577433915631"><ele>373.0</ele><time>2026-04-03T10:32:25.999Z</time></trkpt><trkpt lat="44.40134922581672" lon="7.962438486466324"><ele>372.0</ele><time>2026-04-03T10:32:26.999Z</time></trkpt><trkpt lat="44.40140825458107" lon="7.962291649105409"><ele>372.0</ele><time>2026-04-03T10:32:27.999Z</time></trkpt><trkpt lat="44.40149968254674" lon="7.962144784075132"><ele>372.0</ele><time>2026-04-03T10:32:28.999Z</time></trkpt><trkpt lat="44.40159751950434" lon="7.962025401030661"><ele>372.0</ele><time>2026-04-03T10:32:29.999Z</time></trkpt><trkpt lat="44.401715248265006" lon="7.961925229828766"><ele>372.0</ele><time>2026-04-03T10:32:30.999Z</time></trkpt><trkpt lat="44.40185317285087" lon="7.961857267232416"><ele>372.0</ele><time>2026-04-03T10:32:31.999Z</time></trkpt><trkpt lat="44.40200359445762" lon="7.961798806587268"><ele>372.0</ele><time>2026-04-03T10:32:32.999Z</time></trkpt><trkpt lat="44.40217465147229" lon="7.961750998970808"><ele>372.0</ele><time>2026-04-03T10:32:33.999Z</time></trkpt><trkpt lat="44.40235688812468" lon="7.961690885130386"><ele>367.6666666666667</ele><time>2026-04-03T10:32:34.999Z</time></trkpt><trkpt lat="44.40253737606383" lon="7.961629458681671"><ele>363.33333333333337</ele><time>2026-04-03T10:32:35.999Z</time></trkpt><trkpt lat="44.40271876363653" lon="7.961570118847967"><ele>359.0</ele><time>2026-04-03T10:32:36.999Z</time></trkpt><trkpt lat="44.40289424170896" lon="7.9615126283867665"><ele>359.5</ele><time>2026-04-03T10:32:37.999Z</time></trkpt><trkpt lat="44.40305764671439" lon="7.961458226491373"><ele>360.0</ele><time>2026-04-03T10:32:38.999Z</time></trkpt><trkpt lat="44.40320467032213" lon="7.9614153879123855"><ele>360.5</ele><time>2026-04-03T10:32:39.999Z</time></trkpt><trkpt lat="44.40332828156351" lon="7.961366734599172"><ele>361.0</ele><time>2026-04-03T10:32:40.999Z</time></trkpt><trkpt lat="44.40344254386615" lon="7.9613217866378445"><ele>361.0</ele><time>2026-04-03T10:32:41.999Z</time></trkpt><trkpt lat="44.40355114769105" lon="7.961269240423643"><ele>361.0</ele><time>2026-04-03T10:32:42.999Z</time></trkpt><trkpt lat="44.40364886836359" lon="7.961192157896801"><ele>361.0</ele><time>2026-04-03T10:32:43.999Z</time></trkpt><trkpt lat="44.40374514608276" lon="7.9610875489549535"><ele>361.0</ele><time>2026-04-03T10:32:44.999Z</time></trkpt><trkpt lat="44.40382365908284" lon="7.960959808080772"><ele>360.75</ele><time>2026-04-03T10:32:45.999Z</time></trkpt><trkpt lat="44.40389340491705" lon="7.960817312932814"><ele>360.5</ele><time>2026-04-03T10:32:46.999Z</time></trkpt><trkpt lat="44.403952082964636" lon="7.960663358132967"><ele>360.25</ele><time>2026-04-03T10:32:47.999Z</time></trkpt><trkpt lat="44.40398981163961" lon="7.960490993846033"><ele>360.0</ele><time>2026-04-03T10:32:48.999Z</time></trkpt><trkpt lat="44.404000248825135" lon="7.960313245614763"><ele>360.0</ele><time>2026-04-03T10:32:49.999Z</time></trkpt><trkpt lat="44.403992806537644" lon="7.960134125841325"><ele>360.0</ele><time>2026-04-03T10:32:50.999Z</time></trkpt><trkpt lat="44.40396518454072" lon="7.959954071192926"><ele>360.0</ele><time>2026-04-03T10:32:51.999Z</time></trkpt><trkpt lat="44.40390986262779" lon="7.95977304498578"><ele>360.0</ele><time>2026-04-03T10:32:52.999Z</time></trkpt><trkpt lat="44.40384618278486" lon="7.959618867970081"><ele>362.75</ele><time>2026-04-03T10:32:53.999Z</time></trkpt><trkpt lat="44.40377283349223" lon="7.9594893350556255"><ele>365.5</ele><time>2026-04-03T10:32:54.999Z</time></trkpt><trkpt lat="44.40368192313127" lon="7.959384034890071"><ele>368.25</ele><time>2026-04-03T10:32:55.999Z</time></trkpt><trkpt lat="44.40357716619086" lon="7.959297414323948"><ele>371.0</ele><time>2026-04-03T10:32:56.999Z</time></trkpt><trkpt lat="44.403460083108925" lon="7.959243803833659"><ele>371.0</ele><time>2026-04-03T10:32:57.999Z</time></trkpt><trkpt lat="44.403333420939404" lon="7.959218433378712"><ele>371.0</ele><time>2026-04-03T10:32:58.999Z</time></trkpt><trkpt lat="44.40319838013753" lon="7.959225988388258"><ele>371.0</ele><time>2026-04-03T10:32:59.999Z</time></trkpt><trkpt lat="44.403055753931646" lon="7.959228367721016"><ele>371.0</ele><time>2026-04-03T10:33:00.999Z</time></trkpt><trkpt lat="44.40291637844469" lon="7.959226049636074"><ele>372.75</ele><time>2026-04-03T10:33:01.999Z</time></trkpt><trkpt lat="44.402793903652295" lon="7.959223520043071"><ele>374.5</ele><time>2026-04-03T10:33:02.999Z</time></trkpt><trkpt lat="44.402681494565655" lon="7.959233589228332"><ele>376.25</ele><time>2026-04-03T10:33:03.999Z</time></trkpt><trkpt lat="44.402571143542225" lon="7.959237354921425"><ele>378.0</ele><time>2026-04-03T10:33:04.999Z</time></trkpt><trkpt lat="44.402464180944335" lon="7.959235366501967"><ele>378.0</ele><time>2026-04-03T10:33:05.999Z</time></trkpt><trkpt lat="44.40235131409548" lon="7.959217124635146"><ele>378.0</ele><time>2026-04-03T10:33:06.999Z</time></trkpt><trkpt lat="44.402244411894465" lon="7.95917476541134"><ele>378.0</ele><time>2026-04-03T10:33:07.999Z</time></trkpt><trkpt lat="44.40215290214317" lon="7.95911933598824"><ele>378.0</ele><time>2026-04-03T10:33:08.999Z</time></trkpt><trkpt lat="44.402069082157304" lon="7.959084123525241"><ele>378.0</ele><time>2026-04-03T10:33:09.999Z</time></trkpt><trkpt lat="44.401972589604206" lon="7.959040133902988"><ele>381.59999999999997</ele><time>2026-04-03T10:33:10.999Z</time></trkpt><trkpt lat="44.40186756732877" lon="7.958998701370689"><ele>385.2</ele><time>2026-04-03T10:33:11.999Z</time></trkpt><trkpt lat="44.401766123513234" lon="7.958953858082858"><ele>388.8</ele><time>2026-04-03T10:33:12.999Z</time></trkpt><trkpt lat="44.40166694299927" lon="7.9589120291859565"><ele>392.4</ele><time>2026-04-03T10:33:13.999Z</time></trkpt><trkpt lat="44.40156624170537" lon="7.958871883075299"><ele>396.0</ele><time>2026-04-03T10:33:14.998Z</time></trkpt><trkpt lat="44.4014712453391" lon="7.958837819212772"><ele>396.0</ele><time>2026-04-03T10:33:15.998Z</time></trkpt><trkpt lat="44.40138577381087" lon="7.958808083697324"><ele>396.0</ele><time>2026-04-03T10:33:16.998Z</time></trkpt><trkpt lat="44.40129334398129" lon="7.9587688608119285"><ele>396.0</ele><time>2026-04-03T10:33:17.998Z</time></trkpt><trkpt lat="44.40120003093783" lon="7.958727814939985"><ele>396.0</ele><time>2026-04-03T10:33:18.998Z</time></trkpt><trkpt lat="44.40109939893397" lon="7.958670735977206"><ele>396.0</ele><time>2026-04-03T10:33:19.998Z</time></trkpt><trkpt lat="44.401009640055065" lon="7.958604664856613"><ele>396.25</ele><time>2026-04-03T10:33:20.998Z</time></trkpt><trkpt lat="44.40092496104754" lon="7.958530823650228"><ele>396.5</ele><time>2026-04-03T10:33:21.998Z</time></trkpt><trkpt lat="44.40083257577053" lon="7.958448514963289"><ele>396.75</ele><time>2026-04-03T10:33:22.998Z</time></trkpt><trkpt lat="44.40073650392268" lon="7.958353474466746"><ele>397.0</ele><time>2026-04-03T10:33:23.998Z</time></trkpt><trkpt lat="44.40063492604971" lon="7.958249298472898"><ele>397.8</ele><time>2026-04-03T10:33:24.998Z</time></trkpt><trkpt lat="44.400541575254046" lon="7.958153789929027"><ele>398.6</ele><time>2026-04-03T10:33:25.998Z</time></trkpt><trkpt lat="44.40046282578136" lon="7.958066267878072"><ele>399.40000000000003</ele><time>2026-04-03T10:33:26.998Z</time></trkpt><trkpt lat="44.400387849689444" lon="7.957983985124045"><ele>400.20000000000005</ele><time>2026-04-03T10:33:27.998Z</time></trkpt><trkpt lat="44.40030938519379" lon="7.9578993554659885"><ele>401.0</ele><time>2026-04-03T10:33:28.998Z</time></trkpt><trkpt lat="44.40022553633572" lon="7.957813376808481"><ele>401.5</ele><time>2026-04-03T10:33:29.998Z</time></trkpt><trkpt lat="44.40013642664218" lon="7.957722244960025"><ele>402.0</ele><time>2026-04-03T10:33:30.998Z</time></trkpt><trkpt lat="44.400043361099364" lon="7.95762227570768"><ele>402.5</ele><time>2026-04-03T10:33:31.998Z</time></trkpt><trkpt lat="44.39994494876491" lon="7.957518657736551"><ele>403.0</ele><time>2026-04-03T10:33:32.998Z</time></trkpt><trkpt lat="44.399838136970054" lon="7.957407416640097"><ele>404.0</ele><time>2026-04-03T10:33:33.998Z</time></trkpt><trkpt lat="44.39972035371803" lon="7.9572917249642625"><ele>405.0</ele><time>2026-04-03T10:33:34.998Z</time></trkpt><trkpt lat="44.399594597812516" lon="7.957159753724744"><ele>406.0</ele><time>2026-04-03T10:33:35.998Z</time></trkpt><trkpt lat="44.39946759268401" lon="7.957027311637363"><ele>406.6666666666667</ele><time>2026-04-03T10:33:36.998Z</time></trkpt><trkpt lat="44.399346891190866" lon="7.956907204427985"><ele>407.33333333333337</ele><time>2026-04-03T10:33:37.998Z</time></trkpt><trkpt lat="44.399206910074" lon="7.956770735111867"><ele>408.0</ele><time>2026-04-03T10:33:38.998Z</time></trkpt><trkpt lat="44.39906171956391" lon="7.95662388065731"><ele>408.0</ele><time>2026-04-03T10:33:39.998Z</time></trkpt><trkpt lat="44.3989137678564" lon="7.9564745459485335"><ele>408.0</ele><time>2026-04-03T10:33:41Z</time></trkpt><trkpt lat="44.39876283404348" lon="7.956322155141904"><ele>408.0</ele><time>2026-04-03T10:33:42Z</time></trkpt><trkpt lat="44.39861741487459" lon="7.956171754702152"><ele>408.0</ele><time>2026-04-03T10:33:43Z</time></trkpt><trkpt lat="44.39847962088626" lon="7.956026319863109"><ele>408.0</ele><time>2026-04-03T10:33:44Z</time></trkpt><trkpt lat="44.39834846530512" lon="7.955890408059946"><ele>408.0</ele><time>2026-04-03T10:33:45Z</time></trkpt><trkpt lat="44.39821381867489" lon="7.955751977194576"><ele>408.0</ele><time>2026-04-03T10:33:46Z</time></trkpt><trkpt lat="44.3980763170959" lon="7.955609130071714"><ele>408.0</ele><time>2026-04-03T10:33:47Z</time></trkpt><trkpt lat="44.3979293380043" lon="7.9554574431309195"><ele>408.0</ele><time>2026-04-03T10:33:48Z</time></trkpt><trkpt lat="44.39777961849487" lon="7.9552982312005325"><ele>408.0</ele><time>2026-04-03T10:33:49Z</time></trkpt><trkpt lat="44.39761973562207" lon="7.955145917543275"><ele>408.0</ele><time>2026-04-03T10:33:50Z</time></trkpt><trkpt lat="44.39745785776198" lon="7.954991372204253"><ele>408.0</ele><time>2026-04-03T10:33:51Z</time></trkpt><trkpt lat="44.397310347208496" lon="7.954836712510723"><ele>408.66666666666663</ele><time>2026-04-03T10:33:52Z</time></trkpt><trkpt lat="44.39716587027082" lon="7.9546786500250715"><ele>409.3333333333333</ele><time>2026-04-03T10:33:53Z</time></trkpt><trkpt lat="44.39701858800761" lon="7.954529907520543"><ele>410.0</ele><time>2026-04-03T10:33:54Z</time></trkpt><trkpt lat="44.396874437091206" lon="7.954378874936361"><ele>410.0</ele><time>2026-04-03T10:33:55Z</time></trkpt><trkpt lat="44.39672575140164" lon="7.954224422369749"><ele>410.0</ele><time>2026-04-03T10:33:56Z</time></trkpt><trkpt lat="44.39657177013178" lon="7.95406742504055"><ele>410.0</ele><time>2026-04-03T10:33:57Z</time></trkpt><trkpt lat="44.396413072566666" lon="7.953915477411649"><ele>410.3333333333333</ele><time>2026-04-03T10:33:58Z</time></trkpt><trkpt lat="44.39625785792456" lon="7.953737346655775"><ele>410.66666666666663</ele><time>2026-04-03T10:33:59Z</time></trkpt><trkpt lat="44.3960853161366" lon="7.953587718138201"><ele>411.0</ele><time>2026-04-03T10:34:00Z</time></trkpt><trkpt lat="44.39592640770333" lon="7.953396990056916"><ele>411.0</ele><time>2026-04-03T10:34:01Z</time></trkpt><trkpt lat="44.39575419573912" lon="7.953220150603314"><ele>411.0</ele><time>2026-04-03T10:34:02Z</time></trkpt><trkpt lat="44.39557683220655" lon="7.953038078806675"><ele>411.0</ele><time>2026-04-03T10:34:03Z</time></trkpt><trkpt lat="44.3953875280584" lon="7.952868343622938"><ele>411.0</ele><time>2026-04-03T10:34:04Z</time></trkpt><trkpt lat="44.39520682873478" lon="7.952673461200412"><ele>411.0</ele><time>2026-04-03T10:34:05Z</time></trkpt><trkpt lat="44.39501730448593" lon="7.952482748560759"><ele>411.0</ele><time>2026-04-03T10:34:06Z</time></trkpt><trkpt lat="44.39482801523569" lon="7.952289394004332"><ele>411.0</ele><time>2026-04-03T10:34:07Z</time></trkpt><trkpt lat="44.394639739318876" lon="7.952093926960832"><ele>411.0</ele><time>2026-04-03T10:34:08Z</time></trkpt><trkpt lat="44.39446402630093" lon="7.9519133004298626"><ele>411.0</ele><time>2026-04-03T10:34:09Z</time></trkpt><trkpt lat="44.39428853704381" lon="7.95173500664412"><ele>411.0</ele><time>2026-04-03T10:34:10Z</time></trkpt><trkpt lat="44.394106631616935" lon="7.951549265639123"><ele>410.5</ele><time>2026-04-03T10:34:11Z</time></trkpt><trkpt lat="44.39392676859504" lon="7.951362696521388"><ele>410.0</ele><time>2026-04-03T10:34:12Z</time></trkpt><trkpt lat="44.393740791424" lon="7.951173053319604"><ele>411.5</ele><time>2026-04-03T10:34:13Z</time></trkpt><trkpt lat="44.393554856295346" lon="7.950982149451327"><ele>413.0</ele><time>2026-04-03T10:34:14Z</time></trkpt><trkpt lat="44.39336714236009" lon="7.950788387046646"><ele>413.0</ele><time>2026-04-03T10:34:15Z</time></trkpt><trkpt lat="44.39317986428048" lon="7.95059299255333"><ele>413.0</ele><time>2026-04-03T10:34:16Z</time></trkpt><trkpt lat="44.39299026116125" lon="7.950397083031095"><ele>413.0</ele><time>2026-04-03T10:34:17Z</time></trkpt><trkpt lat="44.39281419245072" lon="7.950217926995886"><ele>413.0</ele><time>2026-04-03T10:34:18Z</time></trkpt><trkpt lat="44.392631026076494" lon="7.950033180006599"><ele>413.0</ele><time>2026-04-03T10:34:19Z</time></trkpt><trkpt lat="44.39244644412856" lon="7.949839594256009"><ele>413.0</ele><time>2026-04-03T10:34:20Z</time></trkpt><trkpt lat="44.392268259991276" lon="7.949657397008526"><ele>413.0</ele><time>2026-04-03T10:34:21Z</time></trkpt><trkpt lat="44.39209735552958" lon="7.949489200616443"><ele>413.0</ele><time>2026-04-03T10:34:22Z</time></trkpt><trkpt lat="44.391916270680774" lon="7.94931313619287"><ele>413.66666666666663</ele><time>2026-04-03T10:34:22.999Z</time></trkpt><trkpt lat="44.39173730651977" lon="7.949131721730374"><ele>414.33333333333337</ele><time>2026-04-03T10:34:23.999Z</time></trkpt><trkpt lat="44.39157593178944" lon="7.9489612633799185"><ele>415.0</ele><time>2026-04-03T10:34:24.999Z</time></trkpt><trkpt lat="44.391422432873924" lon="7.948803263416734"><ele>416.0</ele><time>2026-04-03T10:34:25.999Z</time></trkpt><trkpt lat="44.39126880877908" lon="7.948653783524725"><ele>417.0</ele><time>2026-04-03T10:34:26.999Z</time></trkpt><trkpt lat="44.39112604891744" lon="7.948512270181952"><ele>418.0</ele><time>2026-04-03T10:34:27.999Z</time></trkpt><trkpt lat="44.39098914887279" lon="7.948365869863231"><ele>418.0</ele><time>2026-04-03T10:34:28.999Z</time></trkpt><trkpt lat="44.39086009776356" lon="7.948233638595399"><ele>418.0</ele><time>2026-04-03T10:34:29.999Z</time></trkpt><trkpt lat="44.39075051869683" lon="7.948094858035116"><ele>418.0</ele><time>2026-04-03T10:34:30.999Z</time></trkpt><trkpt lat="44.39062090962062" lon="7.947984201781467"><ele>419.0</ele><time>2026-04-03T10:34:31.999Z</time></trkpt><trkpt lat="44.39050201693213" lon="7.947836009325961"><ele>420.0</ele><time>2026-04-03T10:34:32.999Z</time></trkpt><trkpt lat="44.3903850307088" lon="7.947687072077673"><ele>421.0</ele><time>2026-04-03T10:34:33.999Z</time></trkpt><trkpt lat="44.39028571672426" lon="7.947496450570346"><ele>421.0</ele><time>2026-04-03T10:34:34.999Z</time></trkpt><trkpt lat="44.39017799807481" lon="7.947296958267105"><ele>421.0</ele><time>2026-04-03T10:34:35.999Z</time></trkpt><trkpt lat="44.39006780685882" lon="7.9470850502448664"><ele>421.0</ele><time>2026-04-03T10:34:36.999Z</time></trkpt><trkpt lat="44.389947017424824" lon="7.9468766307518885"><ele>420.33333333333337</ele><time>2026-04-03T10:34:37.999Z</time></trkpt><trkpt lat="44.38982633080745" lon="7.94664727314916"><ele>419.66666666666663</ele><time>2026-04-03T10:34:38.999Z</time></trkpt><trkpt lat="44.389724486281736" lon="7.946437303994541"><ele>419.0</ele><time>2026-04-03T10:34:39.999Z</time></trkpt><trkpt lat="44.389626254135926" lon="7.9462405439182495"><ele>420.0</ele><time>2026-04-03T10:34:40.999Z</time></trkpt><trkpt lat="44.38953095466266" lon="7.946058648689637"><ele>421.0</ele><time>2026-04-03T10:34:41.999Z</time></trkpt><trkpt lat="44.389441334960516" lon="7.945872569091076"><ele>422.0</ele><time>2026-04-03T10:34:42.999Z</time></trkpt><trkpt lat="44.389347505916724" lon="7.945677760849486"><ele>422.0</ele><time>2026-04-03T10:34:43.999Z</time></trkpt><trkpt lat="44.389249689995154" lon="7.945494424488441"><ele>422.0</ele><time>2026-04-03T10:34:44.999Z</time></trkpt><trkpt lat="44.38916345455365" lon="7.945318956644635"><ele>422.0</ele><time>2026-04-03T10:34:45.999Z</time></trkpt><trkpt lat="44.3890791021733" lon="7.945148153214517"><ele>421.25</ele><time>2026-04-03T10:34:46.999Z</time></trkpt><trkpt lat="44.38899590744912" lon="7.944989464232782"><ele>420.5</ele><time>2026-04-03T10:34:47.999Z</time></trkpt><trkpt lat="44.38891416865103" lon="7.944827337235911"><ele>419.75</ele><time>2026-04-03T10:34:48.999Z</time></trkpt><trkpt lat="44.388832576881605" lon="7.944671074723111"><ele>419.0</ele><time>2026-04-03T10:34:49.999Z</time></trkpt><trkpt lat="44.38874486723396" lon="7.9445031627033496"><ele>420.0</ele><time>2026-04-03T10:34:50.999Z</time></trkpt><trkpt lat="44.38866323448775" lon="7.944335606840706"><ele>421.0</ele><time>2026-04-03T10:34:51.999Z</time></trkpt><trkpt lat="44.38858623143378" lon="7.94417933408214"><ele>422.0</ele><time>2026-04-03T10:34:52.999Z</time></trkpt><trkpt lat="44.38851096483064" lon="7.944031479163395"><ele>423.0</ele><time>2026-04-03T10:34:53.999Z</time></trkpt><trkpt lat="44.38844084325007" lon="7.943892191930999"><ele>423.0</ele><time>2026-04-03T10:34:54.999Z</time></trkpt><trkpt lat="44.38837030111311" lon="7.943753514671091"><ele>423.0</ele><time>2026-04-03T10:34:55.999Z</time></trkpt><trkpt lat="44.388296512061004" lon="7.943607930732387"><ele>423.0</ele><time>2026-04-03T10:34:56.999Z</time></trkpt><trkpt lat="44.38822847351945" lon="7.943466512100653"><ele>423.0</ele><time>2026-04-03T10:34:57.999Z</time></trkpt><trkpt lat="44.388161148591124" lon="7.943326794254044"><ele>423.25</ele><time>2026-04-03T10:34:58.999Z</time></trkpt><trkpt lat="44.38809487569677" lon="7.9431957076072806"><ele>423.5</ele><time>2026-04-03T10:34:59.999Z</time></trkpt><trkpt lat="44.38802658316576" lon="7.943066162502574"><ele>423.75</ele><time>2026-04-03T10:35:00.999Z</time></trkpt><trkpt lat="44.38796210098934" lon="7.942941137711407"><ele>424.0</ele><time>2026-04-03T10:35:01.999Z</time></trkpt><trkpt lat="44.38789774248785" lon="7.9428116922253285"><ele>424.0</ele><time>2026-04-03T10:35:02.999Z</time></trkpt><trkpt lat="44.38783547669822" lon="7.942685942363029"><ele>424.0</ele><time>2026-04-03T10:35:03.999Z</time></trkpt><trkpt lat="44.387766589267976" lon="7.942559873639009"><ele>424.0</ele><time>2026-04-03T10:35:04.999Z</time></trkpt><trkpt lat="44.38770194077476" lon="7.942433893717508"><ele>424.0</ele><time>2026-04-03T10:35:05.999Z</time></trkpt><trkpt lat="44.38763885638682" lon="7.94230892471734"><ele>424.0</ele><time>2026-04-03T10:35:06.999Z</time></trkpt><trkpt lat="44.3875778863981" lon="7.942183575773987"><ele>423.79999999999995</ele><time>2026-04-03T10:35:07.999Z</time></trkpt><trkpt lat="44.38751771679995" lon="7.942059291307531"><ele>423.59999999999997</ele><time>2026-04-03T10:35:08.999Z</time></trkpt><trkpt lat="44.387457613496025" lon="7.9419339699752065"><ele>423.4</ele><time>2026-04-03T10:35:09.999Z</time></trkpt><trkpt lat="44.387397985350034" lon="7.941815189242369"><ele>423.2</ele><time>2026-04-03T10:35:10.999Z</time></trkpt><trkpt lat="44.387334778713324" lon="7.941694482546095"><ele>423.0</ele><time>2026-04-03T10:35:11.999Z</time></trkpt><trkpt lat="44.387270594599606" lon="7.941572777633915"><ele>423.0</ele><time>2026-04-03T10:35:12.999Z</time></trkpt><trkpt lat="44.387205831027465" lon="7.941447277527543"><ele>423.0</ele><time>2026-04-03T10:35:13.999Z</time></trkpt><trkpt lat="44.387137700159116" lon="7.941319872928602"><ele>423.0</ele><time>2026-04-03T10:35:14.999Z</time></trkpt><trkpt lat="44.38707232928255" lon="7.941193571428916"><ele>423.0</ele><time>2026-04-03T10:35:15.999Z</time></trkpt><trkpt lat="44.38700430829365" lon="7.941059995641031"><ele>423.0</ele><time>2026-04-03T10:35:16.999Z</time></trkpt><trkpt lat="44.38693737907064" lon="7.940918439886287"><ele>423.0</ele><time>2026-04-03T10:35:17.999Z</time></trkpt><trkpt lat="44.38686494564197" lon="7.940773351902612"><ele>423.0</ele><time>2026-04-03T10:35:18.999Z</time></trkpt><trkpt lat="44.38678247585094" lon="7.940622766722038"><ele>423.0</ele><time>2026-04-03T10:35:19.998Z</time></trkpt><trkpt lat="44.38669323780116" lon="7.940450992466576"><ele>422.66666666666663</ele><time>2026-04-03T10:35:20.998Z</time></trkpt><trkpt lat="44.386599379066375" lon="7.9402674481179485"><ele>422.3333333333333</ele><time>2026-04-03T10:35:21.998Z</time></trkpt><trkpt lat="44.386509690508746" lon="7.940092146695566"><ele>422.0</ele><time>2026-04-03T10:35:22.998Z</time></trkpt><trkpt lat="44.38641445379656" lon="7.939908786018831"><ele>422.3333333333333</ele><time>2026-04-03T10:35:23.998Z</time></trkpt><trkpt lat="44.38631462325341" lon="7.939706018709747"><ele>422.66666666666663</ele><time>2026-04-03T10:35:24.998Z</time></trkpt><trkpt lat="44.386217011962664" lon="7.939517751950353"><ele>423.0</ele><time>2026-04-03T10:35:25.998Z</time></trkpt><trkpt lat="44.38611416796127" lon="7.939316686431212"><ele>423.0</ele><time>2026-04-03T10:35:26.998Z</time></trkpt><trkpt lat="44.386004391326196" lon="7.939111982503911"><ele>423.0</ele><time>2026-04-03T10:35:27.998Z</time></trkpt><trkpt lat="44.38589482783921" lon="7.938898495434303"><ele>423.0</ele><time>2026-04-03T10:35:28.998Z</time></trkpt><trkpt lat="44.38578179232714" lon="7.938678375643133"><ele>423.0</ele><time>2026-04-03T10:35:29.998Z</time></trkpt><trkpt lat="44.38566272475429" lon="7.938437620712906"><ele>423.0</ele><time>2026-04-03T10:35:30.998Z</time></trkpt><trkpt lat="44.38554250625577" lon="7.938201188927743"><ele>423.0</ele><time>2026-04-03T10:35:31.998Z</time></trkpt><trkpt lat="44.38542311349459" lon="7.9379669322158986"><ele>423.33333333333337</ele><time>2026-04-03T10:35:32.998Z</time></trkpt><trkpt lat="44.385298202616426" lon="7.937722227556127"><ele>423.6666666666667</ele><time>2026-04-03T10:35:33.998Z</time></trkpt><trkpt lat="44.38517390025354" lon="7.937481787757494"><ele>424.0</ele><time>2026-04-03T10:35:34.998Z</time></trkpt><trkpt lat="44.38506203066227" lon="7.937256047414152"><ele>424.0</ele><time>2026-04-03T10:35:35.998Z</time></trkpt><trkpt lat="44.384950129866404" lon="7.9370359341870635"><ele>424.0</ele><time>2026-04-03T10:35:36.998Z</time></trkpt><trkpt lat="44.384835671420085" lon="7.936804929959933"><ele>424.0</ele><time>2026-04-03T10:35:37.998Z</time></trkpt><trkpt lat="44.38471463721654" lon="7.936561906851385"><ele>425.0</ele><time>2026-04-03T10:35:38.998Z</time></trkpt><trkpt lat="44.384591550887016" lon="7.9363147031331795"><ele>426.0</ele><time>2026-04-03T10:35:39.998Z</time></trkpt><trkpt lat="44.3844671382239" lon="7.9360674065646934"><ele>427.0</ele><time>2026-04-03T10:35:40.998Z</time></trkpt><trkpt lat="44.38433910909748" lon="7.935817335577018"><ele>427.5</ele><time>2026-04-03T10:35:41.998Z</time></trkpt><trkpt lat="44.38421200293753" lon="7.935563741726361"><ele>428.0</ele><time>2026-04-03T10:35:42.998Z</time></trkpt><trkpt lat="44.3840772807217" lon="7.935295864908749"><ele>428.5</ele><time>2026-04-03T10:35:43.998Z</time></trkpt><trkpt lat="44.383940036902096" lon="7.935028164735885"><ele>429.0</ele><time>2026-04-03T10:35:44.998Z</time></trkpt><trkpt lat="44.3837995143463" lon="7.934752125783713"><ele>429.0</ele><time>2026-04-03T10:35:45.998Z</time></trkpt><trkpt lat="44.3836640571676" lon="7.934478154948472"><ele>429.0</ele><time>2026-04-03T10:35:47Z</time></trkpt><trkpt lat="44.38352132180935" lon="7.934195532822183"><ele>429.0</ele><time>2026-04-03T10:35:48Z</time></trkpt><trkpt lat="44.38336275421552" lon="7.933903054011467"><ele>429.0</ele><time>2026-04-03T10:35:49Z</time></trkpt><trkpt lat="44.38322456951392" lon="7.933622842402405"><ele>427.5</ele><time>2026-04-03T10:35:50Z</time></trkpt><trkpt lat="44.38307934693628" lon="7.933340680125084"><ele>426.0</ele><time>2026-04-03T10:35:51Z</time></trkpt><trkpt lat="44.38295370197849" lon="7.933086528740493"><ele>427.0</ele><time>2026-04-03T10:35:52Z</time></trkpt><trkpt lat="44.382818834443185" lon="7.932815537894264"><ele>428.0</ele><time>2026-04-03T10:35:53Z</time></trkpt><trkpt lat="44.38267931518737" lon="7.932544002815693"><ele>428.0</ele><time>2026-04-03T10:35:54Z</time></trkpt><trkpt lat="44.38253607724235" lon="7.93227118504875"><ele>428.0</ele><time>2026-04-03T10:35:55Z</time></trkpt><trkpt lat="44.38239991547213" lon="7.932008485180171"><ele>428.0</ele><time>2026-04-03T10:35:56Z</time></trkpt><trkpt lat="44.382277933423126" lon="7.931767183081466"><ele>428.0</ele><time>2026-04-03T10:35:57Z</time></trkpt><trkpt lat="44.38215590954159" lon="7.931527306867769"><ele>428.0</ele><time>2026-04-03T10:35:58Z</time></trkpt><trkpt lat="44.38203286157242" lon="7.931287689665227"><ele>428.3333333333333</ele><time>2026-04-03T10:35:59Z</time></trkpt><trkpt lat="44.38190650630219" lon="7.931040328230245"><ele>428.66666666666663</ele><time>2026-04-03T10:36:00Z</time></trkpt><trkpt lat="44.381778546798685" lon="7.930792378559462"><ele>429.0</ele><time>2026-04-03T10:36:01Z</time></trkpt><trkpt lat="44.38164566227756" lon="7.930537864573225"><ele>429.0</ele><time>2026-04-03T10:36:02Z</time></trkpt><trkpt lat="44.38152487848693" lon="7.930262905537464"><ele>429.0</ele><time>2026-04-03T10:36:03Z</time></trkpt><trkpt lat="44.38138963105064" lon="7.929996610715214"><ele>430.0</ele><time>2026-04-03T10:36:04Z</time></trkpt><trkpt lat="44.3812400469102" lon="7.929738641229326"><ele>431.0</ele><time>2026-04-03T10:36:05Z</time></trkpt><trkpt lat="44.38111323811191" lon="7.929454315087795"><ele>430.66666666666663</ele><time>2026-04-03T10:36:06Z</time></trkpt><trkpt lat="44.38098055873037" lon="7.929195965101166"><ele>430.33333333333337</ele><time>2026-04-03T10:36:07Z</time></trkpt><trkpt lat="44.38085413944992" lon="7.928954140871974"><ele>430.0</ele><time>2026-04-03T10:36:08Z</time></trkpt><trkpt lat="44.38072718543357" lon="7.928717382605757"><ele>430.0</ele><time>2026-04-03T10:36:09Z</time></trkpt><trkpt lat="44.3805981935416" lon="7.92848682907627"><ele>430.0</ele><time>2026-04-03T10:36:10Z</time></trkpt><trkpt lat="44.38046704694225" lon="7.928254188406806"><ele>430.0</ele><time>2026-04-03T10:36:11Z</time></trkpt><trkpt lat="44.38033959944061" lon="7.928029825572874"><ele>430.33333333333337</ele><time>2026-04-03T10:36:12Z</time></trkpt><trkpt lat="44.38020053501423" lon="7.9278202672605635"><ele>430.66666666666663</ele><time>2026-04-03T10:36:13Z</time></trkpt><trkpt lat="44.380070207543525" lon="7.9275906219929"><ele>431.0</ele><time>2026-04-03T10:36:14Z</time></trkpt><trkpt lat="44.379951189413255" lon="7.9273469202389295"><ele>431.0</ele><time>2026-04-03T10:36:15Z</time></trkpt><trkpt lat="44.379816344765686" lon="7.927109835400896"><ele>431.0</ele><time>2026-04-03T10:36:16Z</time></trkpt><trkpt lat="44.37967942609123" lon="7.92686910399139"><ele>431.0</ele><time>2026-04-03T10:36:17Z</time></trkpt><trkpt lat="44.37954190367383" lon="7.926627014462221"><ele>431.66666666666663</ele><time>2026-04-03T10:36:18Z</time></trkpt><trkpt lat="44.37940493214674" lon="7.926383401331559"><ele>432.33333333333337</ele><time>2026-04-03T10:36:19Z</time></trkpt><trkpt lat="44.37926423602308" lon="7.926133165017312"><ele>433.0</ele><time>2026-04-03T10:36:20Z</time></trkpt><trkpt lat="44.37911227865131" lon="7.92588795035658"><ele>434.0</ele><time>2026-04-03T10:36:21Z</time></trkpt><trkpt lat="44.37897154538031" lon="7.925623203261001"><ele>435.0</ele><time>2026-04-03T10:36:22Z</time></trkpt><trkpt lat="44.37883663583079" lon="7.925386498723378"><ele>435.0</ele><time>2026-04-03T10:36:23Z</time></trkpt><trkpt lat="44.37869901860889" lon="7.925147826384426"><ele>435.0</ele><time>2026-04-03T10:36:24Z</time></trkpt><trkpt lat="44.378557396427055" lon="7.924903852831997"><ele>435.0</ele><time>2026-04-03T10:36:25Z</time></trkpt><trkpt lat="44.378418640801556" lon="7.924653804260355"><ele>435.0</ele><time>2026-04-03T10:36:26Z</time></trkpt><trkpt lat="44.378275324960164" lon="7.92439827632786"><ele>435.0</ele><time>2026-04-03T10:36:27Z</time></trkpt><trkpt lat="44.37813134589568" lon="7.924149822394105"><ele>435.66666666666663</ele><time>2026-04-03T10:36:28Z</time></trkpt><trkpt lat="44.37799833295747" lon="7.9239156655274"><ele>436.3333333333333</ele><time>2026-04-03T10:36:28.999Z</time></trkpt><trkpt lat="44.37786951257879" lon="7.923683306135291"><ele>437.0</ele><time>2026-04-03T10:36:29.999Z</time></trkpt><trkpt lat="44.377735407873274" lon="7.923444699757862"><ele>436.66666666666663</ele><time>2026-04-03T10:36:30.999Z</time></trkpt><trkpt lat="44.37761171271733" lon="7.923221248183215"><ele>436.33333333333337</ele><time>2026-04-03T10:36:31.999Z</time></trkpt><trkpt lat="44.37749061902525" lon="7.923003531522787"><ele>436.0</ele><time>2026-04-03T10:36:32.999Z</time></trkpt><trkpt lat="44.37737356660279" lon="7.922799568201911"><ele>436.0</ele><time>2026-04-03T10:36:33.999Z</time></trkpt><trkpt lat="44.377264069485335" lon="7.9226073691431536"><ele>436.0</ele><time>2026-04-03T10:36:34.999Z</time></trkpt><trkpt lat="44.377164419156976" lon="7.922433760087863"><ele>436.0</ele><time>2026-04-03T10:36:35.999Z</time></trkpt><trkpt lat="44.377061889765145" lon="7.922253028339433"><ele>436.33333333333337</ele><time>2026-04-03T10:36:36.999Z</time></trkpt><trkpt lat="44.37695715258422" lon="7.922065513747507"><ele>436.66666666666663</ele><time>2026-04-03T10:36:37.999Z</time></trkpt><trkpt lat="44.376859161614675" lon="7.921889692168322"><ele>437.0</ele><time>2026-04-03T10:36:38.999Z</time></trkpt><trkpt lat="44.3767574428129" lon="7.921709224975625"><ele>437.0</ele><time>2026-04-03T10:36:39.999Z</time></trkpt><trkpt lat="44.37665462328643" lon="7.921522664016763"><ele>437.0</ele><time>2026-04-03T10:36:40.999Z</time></trkpt><trkpt lat="44.37655302522492" lon="7.921339861216795"><ele>437.0</ele><time>2026-04-03T10:36:41.999Z</time></trkpt><trkpt lat="44.376452494706406" lon="7.921151866485056"><ele>437.66666666666663</ele><time>2026-04-03T10:36:42.999Z</time></trkpt><trkpt lat="44.37635041079787" lon="7.920969744788681"><ele>438.33333333333337</ele><time>2026-04-03T10:36:43.999Z</time></trkpt><trkpt lat="44.376242463338755" lon="7.920787998520483"><ele>439.0</ele><time>2026-04-03T10:36:44.999Z</time></trkpt><trkpt lat="44.37613713755626" lon="7.920612071852356"><ele>437.6666666666667</ele><time>2026-04-03T10:36:45.999Z</time></trkpt><trkpt lat="44.37603776237573" lon="7.92044340940123"><ele>436.33333333333337</ele><time>2026-04-03T10:36:46.999Z</time></trkpt><trkpt lat="44.37594384845196" lon="7.920274222041563"><ele>435.0</ele><time>2026-04-03T10:36:47.999Z</time></trkpt><trkpt lat="44.37584873668442" lon="7.920106393456432"><ele>434.25</ele><time>2026-04-03T10:36:48.999Z</time></trkpt><trkpt lat="44.37575543366831" lon="7.919945677078811"><ele>433.5</ele><time>2026-04-03T10:36:49.999Z</time></trkpt><trkpt lat="44.375664482196356" lon="7.919780402272204"><ele>432.75</ele><time>2026-04-03T10:36:50.999Z</time></trkpt><trkpt lat="44.37557636790107" lon="7.919621152836921"><ele>432.0</ele><time>2026-04-03T10:36:51.999Z</time></trkpt><trkpt lat="44.37548943865741" lon="7.91946100501226"><ele>432.20000000000005</ele><time>2026-04-03T10:36:52.999Z</time></trkpt><trkpt lat="44.37542356505714" lon="7.9193438559434615"><ele>432.40000000000003</ele><time>2026-04-03T10:36:53.999Z</time></trkpt><trkpt lat="44.375364370135784" lon="7.919238558618793"><ele>432.59999999999997</ele><time>2026-04-03T10:36:54.999Z</time></trkpt><trkpt lat="44.37530057211851" lon="7.919127603254329"><ele>432.79999999999995</ele><time>2026-04-03T10:36:55.999Z</time></trkpt><trkpt lat="44.37522694459367" lon="7.918989015874275"><ele>433.0</ele><time>2026-04-03T10:36:56.999Z</time></trkpt><trkpt lat="44.375150286966594" lon="7.918852989681722"><ele>433.0</ele><time>2026-04-03T10:36:57.999Z</time></trkpt><trkpt lat="44.37507170628283" lon="7.918703997272237"><ele>433.0</ele><time>2026-04-03T10:36:58.999Z</time></trkpt><trkpt lat="44.3749858012499" lon="7.918534313020357"><ele>433.0</ele><time>2026-04-03T10:36:59.999Z</time></trkpt><trkpt lat="44.374900350736446" lon="7.91835629044734"><ele>433.0</ele><time>2026-04-03T10:37:00.999Z</time></trkpt><trkpt lat="44.37481386760514" lon="7.918176005257617"><ele>434.0</ele><time>2026-04-03T10:37:01.999Z</time></trkpt><trkpt lat="44.37472298151898" lon="7.917980769643217"><ele>435.0</ele><time>2026-04-03T10:37:02.999Z</time></trkpt><trkpt lat="44.37462876034146" lon="7.91776445034161"><ele>436.0</ele><time>2026-04-03T10:37:03.999Z</time></trkpt><trkpt lat="44.37453594742668" lon="7.917559759187054"><ele>436.0</ele><time>2026-04-03T10:37:04.999Z</time></trkpt><trkpt lat="44.37444107247974" lon="7.917339011598567"><ele>436.0</ele><time>2026-04-03T10:37:05.999Z</time></trkpt><trkpt lat="44.37434280569942" lon="7.917112832028888"><ele>436.0</ele><time>2026-04-03T10:37:06.999Z</time></trkpt><trkpt lat="44.37424309577662" lon="7.916876065308339"><ele>434.0</ele><time>2026-04-03T10:37:07.999Z</time></trkpt><trkpt lat="44.37414973805938" lon="7.916644217118943"><ele>432.0</ele><time>2026-04-03T10:37:08.999Z</time></trkpt><trkpt lat="44.37407540988797" lon="7.916402572077108"><ele>430.0</ele><time>2026-04-03T10:37:09.999Z</time></trkpt><trkpt lat="44.37401581374243" lon="7.9161633569524685"><ele>430.0</ele><time>2026-04-03T10:37:10.999Z</time></trkpt><trkpt lat="44.37395902011955" lon="7.915934062646478"><ele>430.0</ele><time>2026-04-03T10:37:11.999Z</time></trkpt><trkpt lat="44.37390993526709" lon="7.915719746864067"><ele>430.0</ele><time>2026-04-03T10:37:12.999Z</time></trkpt><trkpt lat="44.373866290276005" lon="7.915505306791339"><ele>430.33333333333337</ele><time>2026-04-03T10:37:13.999Z</time></trkpt><trkpt lat="44.3738178579758" lon="7.915285039942934"><ele>430.66666666666663</ele><time>2026-04-03T10:37:14.999Z</time></trkpt><trkpt lat="44.37376835078429" lon="7.915062494776497"><ele>431.0</ele><time>2026-04-03T10:37:15.999Z</time></trkpt><trkpt lat="44.373718589145085" lon="7.914839964507902"><ele>431.0</ele><time>2026-04-03T10:37:16.999Z</time></trkpt><trkpt lat="44.373669821035996" lon="7.914618877308639"><ele>431.0</ele><time>2026-04-03T10:37:17.999Z</time></trkpt><trkpt lat="44.37362151278076" lon="7.914400406629582"><ele>431.0</ele><time>2026-04-03T10:37:18.999Z</time></trkpt><trkpt lat="44.37357196209329" lon="7.914183242184467"><ele>430.0</ele><time>2026-04-03T10:37:19.999Z</time></trkpt><trkpt lat="44.37352516480903" lon="7.913969919165624"><ele>429.0</ele><time>2026-04-03T10:37:20.999Z</time></trkpt><trkpt lat="44.37347858635436" lon="7.913756021923966"><ele>428.0</ele><time>2026-04-03T10:37:21.999Z</time></trkpt><trkpt lat="44.37343405505386" lon="7.913548449938719"><ele>426.66666666666663</ele><time>2026-04-03T10:37:22.999Z</time></trkpt><trkpt lat="44.37338915853932" lon="7.91333983821151"><ele>425.33333333333337</ele><time>2026-04-03T10:37:23.999Z</time></trkpt><trkpt lat="44.373347112123355" lon="7.913130266100179"><ele>424.0</ele><time>2026-04-03T10:37:24.999Z</time></trkpt><trkpt lat="44.37330611689217" lon="7.912926994987004"><ele>424.0</ele><time>2026-04-03T10:37:25.998Z</time></trkpt><trkpt lat="44.37326144089034" lon="7.912722614514023"><ele>424.0</ele><time>2026-04-03T10:37:26.998Z</time></trkpt><trkpt lat="44.37321135340734" lon="7.9125193940746685"><ele>424.0</ele><time>2026-04-03T10:37:27.998Z</time></trkpt><trkpt lat="44.37316030290992" lon="7.912314600529537"><ele>423.5</ele><time>2026-04-03T10:37:28.998Z</time></trkpt><trkpt lat="44.373113941525865" lon="7.912118413970855"><ele>423.0</ele><time>2026-04-03T10:37:29.998Z</time></trkpt><trkpt lat="44.373068055121216" lon="7.911919719493677"><ele>422.5</ele><time>2026-04-03T10:37:30.998Z</time></trkpt><trkpt lat="44.37302278359194" lon="7.911717190655368"><ele>422.0</ele><time>2026-04-03T10:37:31.998Z</time></trkpt><trkpt lat="44.372977759482175" lon="7.911513626933449"><ele>421.66666666666663</ele><time>2026-04-03T10:37:32.998Z</time></trkpt><trkpt lat="44.372935171874175" lon="7.911300326391803"><ele>421.33333333333337</ele><time>2026-04-03T10:37:33.998Z</time></trkpt><trkpt lat="44.372889363832684" lon="7.911081672084575"><ele>421.0</ele><time>2026-04-03T10:37:34.998Z</time></trkpt><trkpt lat="44.372841895771515" lon="7.910856948945721"><ele>420.33333333333337</ele><time>2026-04-03T10:37:35.998Z</time></trkpt><trkpt lat="44.37279164414702" lon="7.910628063830527"><ele>419.66666666666663</ele><time>2026-04-03T10:37:36.998Z</time></trkpt><trkpt lat="44.37273692429225" lon="7.910393740510744"><ele>419.0</ele><time>2026-04-03T10:37:37.998Z</time></trkpt><trkpt lat="44.37268231825354" lon="7.910155329068182"><ele>419.3333333333333</ele><time>2026-04-03T10:37:38.998Z</time></trkpt><trkpt lat="44.37262700159648" lon="7.909909005718799"><ele>419.66666666666663</ele><time>2026-04-03T10:37:39.998Z</time></trkpt><trkpt lat="44.372569941335776" lon="7.9096541902426365"><ele>420.0</ele><time>2026-04-03T10:37:40.998Z</time></trkpt><trkpt lat="44.37251144424436" lon="7.909392512911169"><ele>421.33333333333337</ele><time>2026-04-03T10:37:41.998Z</time></trkpt><trkpt lat="44.372450646205515" lon="7.909125000544731"><ele>422.6666666666667</ele><time>2026-04-03T10:37:42.998Z</time></trkpt><trkpt lat="44.372389440533" lon="7.908853134955551"><ele>424.0</ele><time>2026-04-03T10:37:43.998Z</time></trkpt><trkpt lat="44.372330011159356" lon="7.908574147044745"><ele>426.33333333333337</ele><time>2026-04-03T10:37:44.998Z</time></trkpt><trkpt lat="44.372268438126305" lon="7.90828802423169"><ele>428.66666666666663</ele><time>2026-04-03T10:37:45.998Z</time></trkpt><trkpt lat="44.37220642489899" lon="7.908012718072448"><ele>431.0</ele><time>2026-04-03T10:37:46.998Z</time></trkpt><trkpt lat="44.372151514041875" lon="7.907758206984534"><ele>432.0</ele><time>2026-04-03T10:37:47.998Z</time></trkpt><trkpt lat="44.37210707661859" lon="7.907519590049892"><ele>433.0</ele><time>2026-04-03T10:37:48.998Z</time></trkpt><trkpt lat="44.37205808778014" lon="7.907280237378477"><ele>434.0</ele><time>2026-04-03T10:37:49.998Z</time></trkpt><trkpt lat="44.37201772824837" lon="7.907027477520361"><ele>434.0</ele><time>2026-04-03T10:37:50.998Z</time></trkpt><trkpt lat="44.372008979371714" lon="7.90677586152274"><ele>434.0</ele><time>2026-04-03T10:37:51.998Z</time></trkpt><trkpt lat="44.37201659668414" lon="7.906543252168033"><ele>434.0</ele><time>2026-04-03T10:37:53Z</time></trkpt><trkpt lat="44.37203612074312" lon="7.90630879680935"><ele>434.66666666666663</ele><time>2026-04-03T10:37:54Z</time></trkpt><trkpt lat="44.37207326549487" lon="7.906075078771446"><ele>435.33333333333337</ele><time>2026-04-03T10:37:55Z</time></trkpt><trkpt lat="44.372121951760555" lon="7.905846455129553"><ele>436.0</ele><time>2026-04-03T10:37:56Z</time></trkpt><trkpt lat="44.37218325960789" lon="7.905623274836929"><ele>437.6666666666667</ele><time>2026-04-03T10:37:57Z</time></trkpt><trkpt lat="44.372261296294774" lon="7.905401516837683"><ele>439.33333333333337</ele><time>2026-04-03T10:37:58Z</time></trkpt><trkpt lat="44.372344993985315" lon="7.905183464894919"><ele>441.0</ele><time>2026-04-03T10:37:59Z</time></trkpt><trkpt lat="44.372423650665375" lon="7.904955420668837"><ele>441.33333333333337</ele><time>2026-04-03T10:38:00Z</time></trkpt><trkpt lat="44.37250089460684" lon="7.90472527619766"><ele>441.6666666666667</ele><time>2026-04-03T10:38:01Z</time></trkpt><trkpt lat="44.37257976953703" lon="7.904492214840433"><ele>442.0</ele><time>2026-04-03T10:38:02Z</time></trkpt><trkpt lat="44.37266393059638" lon="7.90425537096385"><ele>442.0</ele><time>2026-04-03T10:38:03Z</time></trkpt><trkpt lat="44.37274706392427" lon="7.904017688502614"><ele>442.0</ele><time>2026-04-03T10:38:04Z</time></trkpt><trkpt lat="44.37282894965126" lon="7.903774187511161"><ele>442.0</ele><time>2026-04-03T10:38:05Z</time></trkpt><trkpt lat="44.37289204603139" lon="7.90351185675777"><ele>441.6666666666667</ele><time>2026-04-03T10:38:06Z</time></trkpt><trkpt lat="44.37294050464917" lon="7.903252152193838"><ele>441.33333333333337</ele><time>2026-04-03T10:38:07Z</time></trkpt><trkpt lat="44.37297422757754" lon="7.902987611081004"><ele>441.0</ele><time>2026-04-03T10:38:08Z</time></trkpt><trkpt lat="44.3729791972656" lon="7.902708139032264"><ele>441.5</ele><time>2026-04-03T10:38:09Z</time></trkpt><trkpt lat="44.372972631022904" lon="7.902492074093276"><ele>442.0</ele><time>2026-04-03T10:38:10Z</time></trkpt><trkpt lat="44.3729685493655" lon="7.902304065098982"><ele>442.5</ele><time>2026-04-03T10:38:11Z</time></trkpt><trkpt lat="44.372967468802074" lon="7.902143159543927"><ele>443.0</ele><time>2026-04-03T10:38:12Z</time></trkpt><trkpt lat="44.37295590076147" lon="7.901993135100544"><ele>443.0</ele><time>2026-04-03T10:38:13Z</time></trkpt><trkpt lat="44.37292321651545" lon="7.901815544333621"><ele>443.0</ele><time>2026-04-03T10:38:14Z</time></trkpt><trkpt lat="44.37291292154607" lon="7.90165039954065"><ele>443.0</ele><time>2026-04-03T10:38:15Z</time></trkpt><trkpt lat="44.37293934556884" lon="7.901460421529487"><ele>443.0</ele><time>2026-04-03T10:38:16Z</time></trkpt><trkpt lat="44.37297196027797" lon="7.901266757996757"><ele>444.0</ele><time>2026-04-03T10:38:17Z</time></trkpt><trkpt lat="44.37299849202505" lon="7.901056850143568"><ele>445.0</ele><time>2026-04-03T10:38:18Z</time></trkpt><trkpt lat="44.37303854125428" lon="7.900840233157224"><ele>446.0</ele><time>2026-04-03T10:38:19Z</time></trkpt><trkpt lat="44.37308382849756" lon="7.900630148236108"><ele>450.66666666666663</ele><time>2026-04-03T10:38:20Z</time></trkpt><trkpt lat="44.37313768074824" lon="7.900413895365613"><ele>455.33333333333337</ele><time>2026-04-03T10:38:21Z</time></trkpt><trkpt lat="44.373210885418295" lon="7.900200769120086"><ele>460.0</ele><time>2026-04-03T10:38:22Z</time></trkpt><trkpt lat="44.37329276009322" lon="7.899979610887599"><ele>460.0</ele><time>2026-04-03T10:38:23Z</time></trkpt><trkpt lat="44.37337160218326" lon="7.899757880673776"><ele>460.0</ele><time>2026-04-03T10:38:24Z</time></trkpt><trkpt lat="44.373453255663016" lon="7.8995216878264705"><ele>460.0</ele><time>2026-04-03T10:38:25Z</time></trkpt><trkpt lat="44.37353732315028" lon="7.899280698410353"><ele>458.0</ele><time>2026-04-03T10:38:26Z</time></trkpt><trkpt lat="44.37362489989382" lon="7.899041405314599"><ele>456.0</ele><time>2026-04-03T10:38:27Z</time></trkpt><trkpt lat="44.37371537516027" lon="7.898796595848224"><ele>454.0</ele><time>2026-04-03T10:38:28Z</time></trkpt><trkpt lat="44.37380253999123" lon="7.898558588555526"><ele>459.33333333333337</ele><time>2026-04-03T10:38:29Z</time></trkpt><trkpt lat="44.37389432853407" lon="7.898315585049828"><ele>464.66666666666663</ele><time>2026-04-03T10:38:30Z</time></trkpt><trkpt lat="44.37398669367803" lon="7.89806702892332"><ele>470.0</ele><time>2026-04-03T10:38:31Z</time></trkpt><trkpt lat="44.37408133752371" lon="7.89781780625502"><ele>468.3333333333333</ele><time>2026-04-03T10:38:32Z</time></trkpt><trkpt lat="44.374173786333984" lon="7.897562843978371"><ele>466.66666666666663</ele><time>2026-04-03T10:38:33Z</time></trkpt><trkpt lat="44.374268845900865" lon="7.897301477665308"><ele>465.0</ele><time>2026-04-03T10:38:34Z</time></trkpt><trkpt lat="44.37435803925324" lon="7.897053873491374"><ele>465.0</ele><time>2026-04-03T10:38:34.999Z</time></trkpt><trkpt lat="44.37444354967878" lon="7.896825069770175"><ele>465.0</ele><time>2026-04-03T10:38:35.999Z</time></trkpt><trkpt lat="44.37452480235486" lon="7.896587596423233"><ele>465.0</ele><time>2026-04-03T10:38:36.999Z</time></trkpt><trkpt lat="44.374614867555536" lon="7.896348400943592"><ele>466.66666666666663</ele><time>2026-04-03T10:38:37.999Z</time></trkpt><trkpt lat="44.37470101927893" lon="7.896117570926111"><ele>468.3333333333333</ele><time>2026-04-03T10:38:38.999Z</time></trkpt><trkpt lat="44.37477900960026" lon="7.895889976244378"><ele>470.0</ele><time>2026-04-03T10:38:39.999Z</time></trkpt><trkpt lat="44.374859854454904" lon="7.895671895966886"><ele>470.0</ele><time>2026-04-03T10:38:40.999Z</time></trkpt><trkpt lat="44.37493770747433" lon="7.895472710196234"><ele>470.0</ele><time>2026-04-03T10:38:41.999Z</time></trkpt><trkpt lat="44.37501152869038" lon="7.895269308779948"><ele>470.0</ele><time>2026-04-03T10:38:42.999Z</time></trkpt><trkpt lat="44.375086025505254" lon="7.895057146689954"><ele>469.3333333333333</ele><time>2026-04-03T10:38:43.999Z</time></trkpt><trkpt lat="44.37516053243583" lon="7.894864215267573"><ele>468.66666666666663</ele><time>2026-04-03T10:38:44.999Z</time></trkpt><trkpt lat="44.375221780217004" lon="7.894670216954311"><ele>468.0</ele><time>2026-04-03T10:38:45.999Z</time></trkpt><trkpt lat="44.37527237713757" lon="7.894485464669726"><ele>468.0</ele><time>2026-04-03T10:38:46.999Z</time></trkpt><trkpt lat="44.375299583873414" lon="7.894291420855146"><ele>468.0</ele><time>2026-04-03T10:38:47.999Z</time></trkpt><trkpt lat="44.3753055861278" lon="7.894099174395788"><ele>468.0</ele><time>2026-04-03T10:38:48.999Z</time></trkpt><trkpt lat="44.375281263240275" lon="7.893906481074228"><ele>468.0</ele><time>2026-04-03T10:38:49.999Z</time></trkpt><trkpt lat="44.37523592931585" lon="7.893712066680399"><ele>467.33333333333337</ele><time>2026-04-03T10:38:50.999Z</time></trkpt><trkpt lat="44.375169510767044" lon="7.893519940804107"><ele>466.6666666666667</ele><time>2026-04-03T10:38:51.999Z</time></trkpt><trkpt lat="44.37508428677291" lon="7.893339372134087"><ele>466.0</ele><time>2026-04-03T10:38:52.999Z</time></trkpt><trkpt lat="44.374979192148075" lon="7.893163841331109"><ele>466.0</ele><time>2026-04-03T10:38:53.999Z</time></trkpt><trkpt lat="44.374868892286635" lon="7.892999687859703"><ele>466.0</ele><time>2026-04-03T10:38:54.999Z</time></trkpt><trkpt lat="44.37475293420036" lon="7.892835620684176"><ele>466.0</ele><time>2026-04-03T10:38:55.999Z</time></trkpt><trkpt lat="44.37464511765503" lon="7.892676446822664"><ele>465.5</ele><time>2026-04-03T10:38:56.999Z</time></trkpt><trkpt lat="44.37453774719669" lon="7.89252147771822"><ele>465.0</ele><time>2026-04-03T10:38:57.999Z</time></trkpt><trkpt lat="44.37443553401742" lon="7.892371539479317"><ele>464.5</ele><time>2026-04-03T10:38:58.999Z</time></trkpt><trkpt lat="44.37433733126082" lon="7.892231366224939"><ele>464.0</ele><time>2026-04-03T10:38:59.999Z</time></trkpt><trkpt lat="44.3742398398774" lon="7.892090487858912"><ele>464.0</ele><time>2026-04-03T10:39:00.999Z</time></trkpt><trkpt lat="44.37413274531112" lon="7.891933936817502"><ele>464.0</ele><time>2026-04-03T10:39:01.999Z</time></trkpt><trkpt lat="44.37403183231243" lon="7.891785386930944"><ele>464.0</ele><time>2026-04-03T10:39:02.999Z</time></trkpt><trkpt lat="44.37394050306239" lon="7.89165454904165"><ele>464.0</ele><time>2026-04-03T10:39:03.999Z</time></trkpt><trkpt lat="44.373852643938086" lon="7.891532917290852"><ele>464.66666666666663</ele><time>2026-04-03T10:39:04.999Z</time></trkpt><trkpt lat="44.37378118503439" lon="7.891436398641729"><ele>465.3333333333333</ele><time>2026-04-03T10:39:05.999Z</time></trkpt><trkpt lat="44.37372469133016" lon="7.891342540805233"><ele>466.0</ele><time>2026-04-03T10:39:06.999Z</time></trkpt><trkpt lat="44.37362240520248" lon="7.891334386487478"><ele>466.66666666666663</ele><time>2026-04-03T10:39:07.999Z</time></trkpt><trkpt lat="44.373544819562554" lon="7.891297345510025"><ele>467.3333333333333</ele><time>2026-04-03T10:39:08.999Z</time></trkpt><trkpt lat="44.37348273240061" lon="7.891246885413829"><ele>468.0</ele><time>2026-04-03T10:39:09.999Z</time></trkpt><trkpt lat="44.37339093094238" lon="7.891149328405679"><ele>468.0</ele><time>2026-04-03T10:39:11.999Z</time></trkpt><trkpt lat="44.373342914735204" lon="7.891073671854457"><ele>468.0</ele><time>2026-04-03T10:39:13.999Z</time></trkpt><trkpt lat="44.37329002036591" lon="7.891019254562779"><ele>468.0</ele><time>2026-04-03T10:39:15.999Z</time></trkpt><trkpt lat="44.37322314817768" lon="7.891075621624601"><ele>468.0</ele><time>2026-04-03T10:39:17.999Z</time></trkpt><trkpt lat="44.37318602438411" lon="7.891163051854277"><ele>468.0</ele><time>2026-04-03T10:39:20.999Z</time></trkpt><trkpt lat="44.37329944999664" lon="7.891264240351065"><ele>468.0</ele><time>2026-04-03T10:39:21.999Z</time></trkpt><trkpt lat="44.373402128900175" lon="7.89133680866904"><ele>468.0</ele><time>2026-04-03T10:39:23.999Z</time></trkpt><trkpt lat="44.37337618035292" lon="7.89120012848138"><ele>467.99999999999994</ele><time>2026-04-03T10:39:47.998Z</time></trkpt><trkpt lat="44.37345717446177" lon="7.891275362099412"><ele>467.99999999999994</ele><time>2026-04-03T10:40:36.999Z</time></trkpt><trkpt lat="44.37348019489381" lon="7.891154198703014"><ele>468.0</ele><time>2026-04-03T10:40:40.999Z</time></trkpt><trkpt lat="44.37342086153475" lon="7.891089495599306"><ele>468.0</ele><time>2026-04-03T10:40:42.999Z</time></trkpt><trkpt lat="44.37332837150304" lon="7.89103584850146"><ele>468.0</ele><time>2026-04-03T10:40:44.999Z</time></trkpt><trkpt lat="44.37325714289402" lon="7.891026259903797"><ele>468.0</ele><time>2026-04-03T10:40:46.999Z</time></trkpt><trkpt lat="44.373237894823426" lon="7.890941628634292"><ele>468.0</ele><time>2026-04-03T10:41:03.999Z</time></trkpt><trkpt lat="44.37320299413818" lon="7.890837073572355"><ele>468.0</ele><time>2026-04-03T10:41:20.999Z</time></trkpt><trkpt lat="44.373166583694285" lon="7.890761878784004"><ele>468.0</ele><time>2026-04-03T10:41:25.999Z</time></trkpt><trkpt lat="44.37325580993065" lon="7.8908967586926835"><ele>468.0</ele><time>2026-04-03T10:45:25.999Z</time></trkpt><trkpt lat="44.37336711510043" lon="7.8909237424656355"><ele>468.0</ele><time>2026-04-03T10:54:01Z</time></trkpt><trkpt lat="44.373298384205945" lon="7.890868894252336"><ele>467.99999999999994</ele><time>2026-04-03T10:54:16.999Z</time></trkpt><trkpt lat="44.373362689768484" lon="7.890905976283456"><ele>467.99999999999994</ele><time>2026-04-03T10:55:26Z</time></trkpt><trkpt lat="44.37326399557974" lon="7.890890738541755"><ele>468.0</ele><time>2026-04-03T10:57:12Z</time></trkpt><trkpt lat="44.37317914149053" lon="7.890935244153946"><ele>468.0</ele><time>2026-04-03T11:23:09.999Z</time></trkpt><trkpt lat="44.3731891181591" lon="7.891115195102987"><ele>468.0</ele><time>2026-04-03T11:23:14.999Z</time></trkpt><trkpt lat="44.37318425946537" lon="7.891014054334202"><ele>468.0</ele><time>2026-04-03T11:29:11.999Z</time></trkpt><trkpt lat="44.373129093576075" lon="7.890930739925831"><ele>468.0</ele><time>2026-04-03T11:29:18.999Z</time></trkpt><trkpt lat="44.37310259757633" lon="7.890837133892018"><ele>468.0</ele><time>2026-04-03T11:29:21.999Z</time></trkpt><trkpt lat="44.37319338672667" lon="7.890835464354899"><ele>468.0</ele><time>2026-04-03T11:29:57.999Z</time></trkpt><trkpt lat="44.373239341469564" lon="7.890919497237901"><ele>468.0</ele><time>2026-04-03T11:30:02.999Z</time></trkpt><trkpt lat="44.37332255513797" lon="7.8910117781227065"><ele>468.0</ele><time>2026-04-03T11:36:38.998Z</time></trkpt><trkpt lat="44.3733944914098" lon="7.891066890254654"><ele>468.0</ele><time>2026-04-03T11:36:41Z</time></trkpt><trkpt lat="44.3734586774844" lon="7.891182513031193"><ele>468.0</ele><time>2026-04-03T11:36:43Z</time></trkpt><trkpt lat="44.37349544693444" lon="7.89129001974769"><ele>468.0</ele><time>2026-04-03T11:36:45Z</time></trkpt><trkpt lat="44.37354763258257" lon="7.89136839686735"><ele>468.0</ele><time>2026-04-03T11:36:47Z</time></trkpt><trkpt lat="44.37363481751072" lon="7.891432601358107"><ele>468.0</ele><time>2026-04-03T11:36:50Z</time></trkpt><trkpt lat="44.37366244173227" lon="7.891352941479897"><ele>468.0</ele><time>2026-04-03T11:36:56Z</time></trkpt><trkpt lat="44.37366661418532" lon="7.891241080076994"><ele>468.0</ele><time>2026-04-03T11:37:05Z</time></trkpt><trkpt lat="44.37359522069066" lon="7.8911332796754925"><ele>468.0</ele><time>2026-04-03T11:37:07Z</time></trkpt><trkpt lat="44.373506174797356" lon="7.8910198049031575"><ele>468.0</ele><time>2026-04-03T11:37:09Z</time></trkpt><trkpt lat="44.37345382957696" lon="7.890948654345512"><ele>468.0</ele><time>2026-04-03T11:37:10Z</time></trkpt><trkpt lat="44.37340640576417" lon="7.890886974744851"><ele>468.0</ele><time>2026-04-03T11:37:11Z</time></trkpt><trkpt lat="44.37336152622537" lon="7.890817090216688"><ele>468.1666666666667</ele><time>2026-04-03T11:37:12Z</time></trkpt><trkpt lat="44.37330047180066" lon="7.890733301308638"><ele>468.33333333333337</ele><time>2026-04-03T11:37:13Z</time></trkpt><trkpt lat="44.37324391669025" lon="7.890657487443357"><ele>468.5</ele><time>2026-04-03T11:37:14Z</time></trkpt><trkpt lat="44.37318332005457" lon="7.89057616029472"><ele>468.6666666666667</ele><time>2026-04-03T11:37:15Z</time></trkpt><trkpt lat="44.37313132290698" lon="7.89049962089091"><ele>468.83333333333337</ele><time>2026-04-03T11:37:16Z</time></trkpt><trkpt lat="44.37303660562977" lon="7.8903841793907175"><ele>469.0</ele><time>2026-04-03T11:37:18Z</time></trkpt><trkpt lat="44.372974674373054" lon="7.890310997196611"><ele>469.0</ele><time>2026-04-03T11:37:19Z</time></trkpt><trkpt lat="44.37291450004022" lon="7.890232747417237"><ele>469.0</ele><time>2026-04-03T11:37:20Z</time></trkpt><trkpt lat="44.37285534648463" lon="7.890143424375275"><ele>469.0</ele><time>2026-04-03T11:37:21Z</time></trkpt><trkpt lat="44.37277937885012" lon="7.890050334298093"><ele>469.0</ele><time>2026-04-03T11:37:22Z</time></trkpt><trkpt lat="44.37270752261768" lon="7.889973155503034"><ele>469.0</ele><time>2026-04-03T11:37:23Z</time></trkpt><trkpt lat="44.37263004882356" lon="7.8898783366692005"><ele>470.25</ele><time>2026-04-03T11:37:24Z</time></trkpt><trkpt lat="44.3725635136926" lon="7.8897610998205945"><ele>471.5</ele><time>2026-04-03T11:37:25Z</time></trkpt><trkpt lat="44.37250853547931" lon="7.88963017889747"><ele>472.75</ele><time>2026-04-03T11:37:26Z</time></trkpt><trkpt lat="44.37244878203932" lon="7.889481427811728"><ele>474.0</ele><time>2026-04-03T11:37:26.999Z</time></trkpt><trkpt lat="44.3724013316971" lon="7.88932528443075"><ele>475.0</ele><time>2026-04-03T11:37:27.999Z</time></trkpt><trkpt lat="44.37237174899256" lon="7.889141373895178"><ele>476.0</ele><time>2026-04-03T11:37:28.999Z</time></trkpt><trkpt lat="44.37231382683383" lon="7.88897340417713"><ele>477.0</ele><time>2026-04-03T11:37:29.999Z</time></trkpt><trkpt lat="44.37226140544053" lon="7.888795800189773"><ele>478.0</ele><time>2026-04-03T11:37:30.999Z</time></trkpt><trkpt lat="44.37219884794772" lon="7.8886343681530136"><ele>477.25</ele><time>2026-04-03T11:37:31.999Z</time></trkpt><trkpt lat="44.37214430011136" lon="7.88845029391853"><ele>476.5</ele><time>2026-04-03T11:37:32.999Z</time></trkpt><trkpt lat="44.37208799375364" lon="7.888266207428189"><ele>475.75</ele><time>2026-04-03T11:37:33.999Z</time></trkpt><trkpt lat="44.37203169900708" lon="7.888083472134387"><ele>475.0</ele><time>2026-04-03T11:37:34.999Z</time></trkpt><trkpt lat="44.371973037130935" lon="7.88790177842377"><ele>475.0</ele><time>2026-04-03T11:37:35.999Z</time></trkpt><trkpt lat="44.371913520118056" lon="7.887712308885693"><ele>475.0</ele><time>2026-04-03T11:37:36.999Z</time></trkpt><trkpt lat="44.37186213587075" lon="7.887532522261859"><ele>475.0</ele><time>2026-04-03T11:37:37.999Z</time></trkpt><trkpt lat="44.37181036613734" lon="7.887367924859956"><ele>475.0</ele><time>2026-04-03T11:37:38.999Z</time></trkpt><trkpt lat="44.37175693252436" lon="7.887199475749847"><ele>476.0</ele><time>2026-04-03T11:37:39.999Z</time></trkpt><trkpt lat="44.37169256948412" lon="7.887051120705522"><ele>477.0</ele><time>2026-04-03T11:37:40.999Z</time></trkpt><trkpt lat="44.37161191313008" lon="7.886893392985778"><ele>478.0</ele><time>2026-04-03T11:37:41.999Z</time></trkpt><trkpt lat="44.37151763339724" lon="7.886750417324808"><ele>479.0</ele><time>2026-04-03T11:37:42.999Z</time></trkpt><trkpt lat="44.37142650469138" lon="7.886604152958941"><ele>478.5</ele><time>2026-04-03T11:37:43.999Z</time></trkpt><trkpt lat="44.371313764389186" lon="7.886470991796621"><ele>478.0</ele><time>2026-04-03T11:37:44.999Z</time></trkpt><trkpt lat="44.3711901569124" lon="7.886358820031965"><ele>477.5</ele><time>2026-04-03T11:37:45.999Z</time></trkpt><trkpt lat="44.37106673450751" lon="7.8862468098936125"><ele>477.0</ele><time>2026-04-03T11:37:46.999Z</time></trkpt><trkpt lat="44.37094734267388" lon="7.886124360352087"><ele>477.0</ele><time>2026-04-03T11:37:47.999Z</time></trkpt><trkpt lat="44.37082359831451" lon="7.886002368092169"><ele>477.0</ele><time>2026-04-03T11:37:48.999Z</time></trkpt><trkpt lat="44.37069644923244" lon="7.885881838867978"><ele>477.0</ele><time>2026-04-03T11:37:49.999Z</time></trkpt><trkpt lat="44.3705723391788" lon="7.885760640072071"><ele>480.0</ele><time>2026-04-03T11:37:50.999Z</time></trkpt><trkpt lat="44.370446569081366" lon="7.885637132613658"><ele>483.0</ele><time>2026-04-03T11:37:51.999Z</time></trkpt><trkpt lat="44.37031552645291" lon="7.885515409217512"><ele>486.0</ele><time>2026-04-03T11:37:52.999Z</time></trkpt><trkpt lat="44.370184896956786" lon="7.885394913631358"><ele>486.0</ele><time>2026-04-03T11:37:53.999Z</time></trkpt><trkpt lat="44.370061902807095" lon="7.885277138874504"><ele>486.0</ele><time>2026-04-03T11:37:54.999Z</time></trkpt><trkpt lat="44.369927084744816" lon="7.885157187875956"><ele>486.0</ele><time>2026-04-03T11:37:55.999Z</time></trkpt><trkpt lat="44.36981189418064" lon="7.885050060386011"><ele>486.0</ele><time>2026-04-03T11:37:56.999Z</time></trkpt><trkpt lat="44.369703710971464" lon="7.8849428882468855"><ele>487.5</ele><time>2026-04-03T11:37:57.999Z</time></trkpt><trkpt lat="44.3695980447119" lon="7.884822948462994"><ele>489.0</ele><time>2026-04-03T11:37:58.999Z</time></trkpt><trkpt lat="44.36947292404911" lon="7.884683567048662"><ele>490.5</ele><time>2026-04-03T11:37:59.999Z</time></trkpt><trkpt lat="44.369363526210236" lon="7.88455360782542"><ele>492.0</ele><time>2026-04-03T11:38:00.999Z</time></trkpt><trkpt lat="44.369252335886046" lon="7.884411891965527"><ele>493.5</ele><time>2026-04-03T11:38:01.999Z</time></trkpt><trkpt lat="44.36914824578839" lon="7.884259775894394"><ele>495.0</ele><time>2026-04-03T11:38:02.999Z</time></trkpt><trkpt lat="44.369045565528374" lon="7.884108777583418"><ele>496.5</ele><time>2026-04-03T11:38:03.999Z</time></trkpt><trkpt lat="44.36894742080845" lon="7.883957552572628"><ele>498.0</ele><time>2026-04-03T11:38:04.999Z</time></trkpt><trkpt lat="44.368848022630026" lon="7.88381175103369"><ele>498.0</ele><time>2026-04-03T11:38:05.999Z</time></trkpt><trkpt lat="44.36874959026244" lon="7.883667253661297"><ele>498.0</ele><time>2026-04-03T11:38:06.999Z</time></trkpt><trkpt lat="44.36865652524797" lon="7.883523926666802"><ele>498.0</ele><time>2026-04-03T11:38:07.999Z</time></trkpt><trkpt lat="44.36857475582825" lon="7.883390430087265"><ele>498.0</ele><time>2026-04-03T11:38:08.999Z</time></trkpt><trkpt lat="44.36850187782735" lon="7.8832496107695915"><ele>498.75</ele><time>2026-04-03T11:38:09.999Z</time></trkpt><trkpt lat="44.36843035827951" lon="7.883084867665412"><ele>499.5</ele><time>2026-04-03T11:38:10.999Z</time></trkpt><trkpt lat="44.368369636955954" lon="7.8829055151073835"><ele>500.25</ele><time>2026-04-03T11:38:11.999Z</time></trkpt><trkpt lat="44.368320288926945" lon="7.882741412067092"><ele>501.0</ele><time>2026-04-03T11:38:12.999Z</time></trkpt><trkpt lat="44.368269679514476" lon="7.88258067683472"><ele>503.25</ele><time>2026-04-03T11:38:13.999Z</time></trkpt><trkpt lat="44.3682126644447" lon="7.882410322996138"><ele>505.5</ele><time>2026-04-03T11:38:14.999Z</time></trkpt><trkpt lat="44.36815891310187" lon="7.882245574611361"><ele>507.75</ele><time>2026-04-03T11:38:15.999Z</time></trkpt><trkpt lat="44.3681063921632" lon="7.8820769309102"><ele>510.0</ele><time>2026-04-03T11:38:16.999Z</time></trkpt><trkpt lat="44.3680628036553" lon="7.8819010280887145"><ele>508.5</ele><time>2026-04-03T11:38:17.999Z</time></trkpt><trkpt lat="44.36803562122677" lon="7.881720570345695"><ele>507.0</ele><time>2026-04-03T11:38:18.999Z</time></trkpt><trkpt lat="44.36802162600522" lon="7.88152268490839"><ele>505.5</ele><time>2026-04-03T11:38:19.999Z</time></trkpt><trkpt lat="44.36804770537666" lon="7.88134556314687"><ele>504.0</ele><time>2026-04-03T11:38:20.999Z</time></trkpt><trkpt lat="44.36809395101997" lon="7.881179778900822"><ele>507.25</ele><time>2026-04-03T11:38:21.999Z</time></trkpt><trkpt lat="44.36816845742013" lon="7.8810277259732855"><ele>510.5</ele><time>2026-04-03T11:38:22.999Z</time></trkpt><trkpt lat="44.368257066304245" lon="7.880885013112543"><ele>513.75</ele><time>2026-04-03T11:38:23.999Z</time></trkpt><trkpt lat="44.368354332698594" lon="7.8807477661512895"><ele>517.0</ele><time>2026-04-03T11:38:24.999Z</time></trkpt><trkpt lat="44.36844530380762" lon="7.880594490811632"><ele>517.0</ele><time>2026-04-03T11:38:25.999Z</time></trkpt><trkpt lat="44.36854590583164" lon="7.880454410103412"><ele>517.0</ele><time>2026-04-03T11:38:26.999Z</time></trkpt><trkpt lat="44.36863826989507" lon="7.880303995100013"><ele>517.0</ele><time>2026-04-03T11:38:27.999Z</time></trkpt><trkpt lat="44.36873137427341" lon="7.880155508544405"><ele>517.0</ele><time>2026-04-03T11:38:28.998Z</time></trkpt><trkpt lat="44.36883671094505" lon="7.880060993619098"><ele>519.5</ele><time>2026-04-03T11:38:29.998Z</time></trkpt><trkpt lat="44.36891542870291" lon="7.879941665880093"><ele>522.0</ele><time>2026-04-03T11:38:30.998Z</time></trkpt><trkpt lat="44.36900341123419" lon="7.879806015561547"><ele>524.5</ele><time>2026-04-03T11:38:31.998Z</time></trkpt><trkpt lat="44.36908105835242" lon="7.879684783544025"><ele>527.0</ele><time>2026-04-03T11:38:32.998Z</time></trkpt><trkpt lat="44.369139396131544" lon="7.879542519717668"><ele>527.0</ele><time>2026-04-03T11:38:33.998Z</time></trkpt><trkpt lat="44.36918298451616" lon="7.87938088851473"><ele>527.0</ele><time>2026-04-03T11:38:34.998Z</time></trkpt><trkpt lat="44.36919904702584" lon="7.879202121167022"><ele>527.0</ele><time>2026-04-03T11:38:35.998Z</time></trkpt><trkpt lat="44.36918299889187" lon="7.879012959711611"><ele>527.0</ele><time>2026-04-03T11:38:36.998Z</time></trkpt><trkpt lat="44.369137274929706" lon="7.878832905281198"><ele>525.75</ele><time>2026-04-03T11:38:37.998Z</time></trkpt><trkpt lat="44.3690667937495" lon="7.878656584180377"><ele>524.5</ele><time>2026-04-03T11:38:38.998Z</time></trkpt><trkpt lat="44.36899963358981" lon="7.878480136254694"><ele>523.25</ele><time>2026-04-03T11:38:39.998Z</time></trkpt><trkpt lat="44.368933000635764" lon="7.878298406539891"><ele>522.0</ele><time>2026-04-03T11:38:40.998Z</time></trkpt><trkpt lat="44.36886551788501" lon="7.878107373982108"><ele>521.5</ele><time>2026-04-03T11:38:41.998Z</time></trkpt><trkpt lat="44.368801000867016" lon="7.877912605491101"><ele>521.0</ele><time>2026-04-03T11:38:42.998Z</time></trkpt><trkpt lat="44.36874521491994" lon="7.877751526671904"><ele>520.5</ele><time>2026-04-03T11:38:43.998Z</time></trkpt><trkpt lat="44.368685352028216" lon="7.877581058880665"><ele>520.0</ele><time>2026-04-03T11:38:44.998Z</time></trkpt><trkpt lat="44.36862271116167" lon="7.877411209054788"><ele>521.75</ele><time>2026-04-03T11:38:46Z</time></trkpt><trkpt lat="44.368566819873415" lon="7.877239028076259"><ele>523.5</ele><time>2026-04-03T11:38:47Z</time></trkpt><trkpt lat="44.36851408550519" lon="7.877088848213942"><ele>525.25</ele><time>2026-04-03T11:38:48Z</time></trkpt><trkpt lat="44.368468919978966" lon="7.8769546445933045"><ele>527.0</ele><time>2026-04-03T11:38:49Z</time></trkpt><trkpt lat="44.368425635013644" lon="7.8768359676747615"><ele>529.6</ele><time>2026-04-03T11:38:50Z</time></trkpt><trkpt lat="44.368383165320495" lon="7.876712828346777"><ele>532.2</ele><time>2026-04-03T11:38:51Z</time></trkpt><trkpt lat="44.36833439112424" lon="7.8765816893410605"><ele>534.8</ele><time>2026-04-03T11:38:52Z</time></trkpt><trkpt lat="44.368286374180514" lon="7.876451497836978"><ele>537.4</ele><time>2026-04-03T11:38:53Z</time></trkpt><trkpt lat="44.36824039736788" lon="7.876318538598716"><ele>540.0</ele><time>2026-04-03T11:38:54Z</time></trkpt><trkpt lat="44.36819547006299" lon="7.876191423840964"><ele>540.0</ele><time>2026-04-03T11:38:55Z</time></trkpt><trkpt lat="44.36815074011291" lon="7.876062513758204"><ele>540.0</ele><time>2026-04-03T11:38:56Z</time></trkpt><trkpt lat="44.36810254559956" lon="7.875922425937336"><ele>540.0</ele><time>2026-04-03T11:38:57.016Z</time></trkpt><trkpt lat="44.36805922907833" lon="7.875792278616425"><ele>540.0</ele><time>2026-04-03T11:38:58.012Z</time></trkpt><trkpt lat="44.36802069917944" lon="7.875676049285926"><ele>540.0</ele><time>2026-04-03T11:38:59.012Z</time></trkpt><trkpt lat="44.36797730744501" lon="7.875543939048587"><ele>542.5</ele><time>2026-04-03T11:39:00.017Z</time></trkpt><trkpt lat="44.36793070138754" lon="7.875402801113389"><ele>545.0</ele><time>2026-04-03T11:39:01.017Z</time></trkpt><trkpt lat="44.36747187287022" lon="7.874187910936655"><ele>545.0</ele><time>2026-04-03T11:39:10Z</time></trkpt><trkpt lat="44.36742392295615" lon="7.874039575349197"><ele>545.0</ele><time>2026-04-03T11:39:11Z</time></trkpt><trkpt lat="44.36737332992606" lon="7.873780862593202"><ele>545.0</ele><time>2026-04-03T11:39:12Z</time></trkpt><trkpt lat="44.36733051377758" lon="7.873655337725605"><ele>545.0</ele><time>2026-04-03T11:39:13Z</time></trkpt><trkpt lat="44.36726146008208" lon="7.873452601473988"><ele>540.6666666666666</ele><time>2026-04-03T11:39:14Z</time></trkpt><trkpt lat="44.367173360218494" lon="7.873229180122863"><ele>536.3333333333334</ele><time>2026-04-03T11:39:15Z</time></trkpt><trkpt lat="44.36709508034994" lon="7.872979995126649"><ele>532.0</ele><time>2026-04-03T11:39:16Z</time></trkpt><trkpt lat="44.367020092700216" lon="7.87275614790489"><ele>531.6666666666667</ele><time>2026-04-03T11:39:17Z</time></trkpt><trkpt lat="44.36693769512973" lon="7.872517715299681"><ele>531.3333333333334</ele><time>2026-04-03T11:39:18Z</time></trkpt><trkpt lat="44.36685445103835" lon="7.872275721203034"><ele>531.0</ele><time>2026-04-03T11:39:19Z</time></trkpt><trkpt lat="44.36677261390227" lon="7.872038287873142"><ele>531.0</ele><time>2026-04-03T11:39:20Z</time></trkpt><trkpt lat="44.36667884844341" lon="7.871789267795922"><ele>531.0</ele><time>2026-04-03T11:39:21Z</time></trkpt><trkpt lat="44.366603499662745" lon="7.87156900595484"><ele>531.0</ele><time>2026-04-03T11:39:22Z</time></trkpt><trkpt lat="44.366535622475055" lon="7.8713521721375885"><ele>530.3333333333334</ele><time>2026-04-03T11:39:23Z</time></trkpt><trkpt lat="44.36645742092825" lon="7.87111945028892"><ele>529.6666666666667</ele><time>2026-04-03T11:39:24Z</time></trkpt><trkpt lat="44.36637736721887" lon="7.870904618660412"><ele>529.0</ele><time>2026-04-03T11:39:25Z</time></trkpt><trkpt lat="44.366313245269346" lon="7.870717683963181"><ele>527.0</ele><time>2026-04-03T11:39:26Z</time></trkpt><trkpt lat="44.366248094703614" lon="7.8705332213166574"><ele>525.0</ele><time>2026-04-03T11:39:27Z</time></trkpt><trkpt lat="44.36619000609214" lon="7.870369479361096"><ele>523.0</ele><time>2026-04-03T11:39:28Z</time></trkpt><trkpt lat="44.366133523844766" lon="7.870213849118698"><ele>521.0</ele><time>2026-04-03T11:39:28.999Z</time></trkpt><trkpt lat="44.36606920790276" lon="7.870061895060789"><ele>520.6</ele><time>2026-04-03T11:39:29.999Z</time></trkpt><trkpt lat="44.366015418065" lon="7.869933874583793"><ele>520.2</ele><time>2026-04-03T11:39:30.999Z</time></trkpt><trkpt lat="44.365962399755816" lon="7.869809391114687"><ele>519.8</ele><time>2026-04-03T11:39:31.999Z</time></trkpt><trkpt lat="44.36591015740622" lon="7.869694408516223"><ele>519.4</ele><time>2026-04-03T11:39:32.999Z</time></trkpt><trkpt lat="44.36586974399458" lon="7.869571018460438"><ele>519.0</ele><time>2026-04-03T11:39:33.999Z</time></trkpt><trkpt lat="44.36583440252535" lon="7.8694209046390755"><ele>519.0</ele><time>2026-04-03T11:39:34.999Z</time></trkpt><trkpt lat="44.36579056514459" lon="7.869278987306711"><ele>519.0</ele><time>2026-04-03T11:39:35.999Z</time></trkpt><trkpt lat="44.36572230869362" lon="7.869172093436451"><ele>519.0</ele><time>2026-04-03T11:39:36.999Z</time></trkpt><trkpt lat="44.365708734891946" lon="7.868998522005842"><ele>519.0</ele><time>2026-04-03T11:39:37.999Z</time></trkpt><trkpt lat="44.36567444509403" lon="7.868840315354346"><ele>519.0</ele><time>2026-04-03T11:39:38.999Z</time></trkpt><trkpt lat="44.36562296058618" lon="7.868673087948779"><ele>519.0</ele><time>2026-04-03T11:39:39.999Z</time></trkpt><trkpt lat="44.36556714504304" lon="7.868516639930535"><ele>519.0</ele><time>2026-04-03T11:39:40.999Z</time></trkpt><trkpt lat="44.36552351599258" lon="7.86837369158941"><ele>519.0</ele><time>2026-04-03T11:39:41.999Z</time></trkpt><trkpt lat="44.365467439553875" lon="7.868218552537511"><ele>518.25</ele><time>2026-04-03T11:39:42.999Z</time></trkpt><trkpt lat="44.365418289849266" lon="7.868082922349796"><ele>517.5</ele><time>2026-04-03T11:39:43.999Z</time></trkpt><trkpt lat="44.36536682728972" lon="7.867930242828655"><ele>516.75</ele><time>2026-04-03T11:39:44.999Z</time></trkpt><trkpt lat="44.365313515234554" lon="7.867783817308109"><ele>516.0</ele><time>2026-04-03T11:39:45.999Z</time></trkpt><trkpt lat="44.36526292905776" lon="7.867638909625434"><ele>516.0</ele><time>2026-04-03T11:39:46.999Z</time></trkpt><trkpt lat="44.36521668941604" lon="7.86750401889444"><ele>516.0</ele><time>2026-04-03T11:39:47.999Z</time></trkpt><trkpt lat="44.36517198309837" lon="7.867370165951146"><ele>516.0</ele><time>2026-04-03T11:39:48.999Z</time></trkpt><trkpt lat="44.36512266748833" lon="7.867229267849311"><ele>516.0</ele><time>2026-04-03T11:39:49.999Z</time></trkpt><trkpt lat="44.3650820249102" lon="7.867098351448189"><ele>516.0</ele><time>2026-04-03T11:39:50.999Z</time></trkpt><trkpt lat="44.36503499236136" lon="7.866961824875442"><ele>516.0</ele><time>2026-04-03T11:39:51.999Z</time></trkpt><trkpt lat="44.36499409585876" lon="7.866834971520299"><ele>516.0</ele><time>2026-04-03T11:39:52.999Z</time></trkpt><trkpt lat="44.36495315421892" lon="7.866708109269536"><ele>516.0</ele><time>2026-04-03T11:39:53.999Z</time></trkpt><trkpt lat="44.36490460187468" lon="7.8665691094138"><ele>516.0</ele><time>2026-04-03T11:39:54.999Z</time></trkpt><trkpt lat="44.364853653309794" lon="7.866420476256435"><ele>516.0</ele><time>2026-04-03T11:39:55.999Z</time></trkpt><trkpt lat="44.36481175721743" lon="7.866289287653569"><ele>516.2</ele><time>2026-04-03T11:39:56.999Z</time></trkpt><trkpt lat="44.36476814061851" lon="7.866156465339649"><ele>516.4000000000001</ele><time>2026-04-03T11:39:57.999Z</time></trkpt><trkpt lat="44.36472186472827" lon="7.8660202766968546"><ele>516.6</ele><time>2026-04-03T11:39:58.999Z</time></trkpt><trkpt lat="44.36467572860718" lon="7.865879018582422"><ele>516.8000000000001</ele><time>2026-04-03T11:39:59.999Z</time></trkpt><trkpt lat="44.36463076814922" lon="7.8657542109089995"><ele>517.0</ele><time>2026-04-03T11:40:00.999Z</time></trkpt><trkpt lat="44.364580397181456" lon="7.865636911735041"><ele>517.0</ele><time>2026-04-03T11:40:01.999Z</time></trkpt><trkpt lat="44.36451575235693" lon="7.865537816386359"><ele>517.0</ele><time>2026-04-03T11:40:02.999Z</time></trkpt><trkpt lat="44.36444519781877" lon="7.865456526679578"><ele>517.0</ele><time>2026-04-03T11:40:03.999Z</time></trkpt><trkpt lat="44.36436983078043" lon="7.865385408954856"><ele>517.0</ele><time>2026-04-03T11:40:04.999Z</time></trkpt><trkpt lat="44.3643067482543" lon="7.865336617156813"><ele>517.0</ele><time>2026-04-03T11:40:05.999Z</time></trkpt><trkpt lat="44.36426001199768" lon="7.865255515327119"><ele>517.0</ele><time>2026-04-03T11:40:07.999Z</time></trkpt><trkpt lat="44.36428672995534" lon="7.86513519044134"><ele>517.2</ele><time>2026-04-03T11:40:09.999Z</time></trkpt><trkpt lat="44.36434514905232" lon="7.865067392404163"><ele>517.4000000000001</ele><time>2026-04-03T11:40:11.999Z</time></trkpt><trkpt lat="44.364260353601395" lon="7.864853948175206"><ele>517.5999999999999</ele><time>2026-04-03T11:40:13.999Z</time></trkpt><trkpt lat="44.36420080129944" lon="7.864763028563766"><ele>517.8</ele><time>2026-04-03T11:40:14.999Z</time></trkpt><trkpt lat="44.3641305894373" lon="7.864660111437748"><ele>518.0</ele><time>2026-04-03T11:40:15.999Z</time></trkpt><trkpt lat="44.364061666176916" lon="7.864541094485539"><ele>518.0</ele><time>2026-04-03T11:40:16.999Z</time></trkpt><trkpt lat="44.36399932205274" lon="7.864432258819146"><ele>518.0</ele><time>2026-04-03T11:40:17.999Z</time></trkpt><trkpt lat="44.36394653492452" lon="7.86434350810539"><ele>518.0</ele><time>2026-04-03T11:40:18.999Z</time></trkpt><trkpt lat="44.36389566065121" lon="7.864256555036484"><ele>518.0</ele><time>2026-04-03T11:40:19.999Z</time></trkpt><trkpt lat="44.363840550130824" lon="7.864161451068128"><ele>518.0</ele><time>2026-04-03T11:40:20.999Z</time></trkpt><trkpt lat="44.36378507355009" lon="7.864064085652699"><ele>518.0</ele><time>2026-04-03T11:40:21.999Z</time></trkpt><trkpt lat="44.36374359809566" lon="7.863983000514851"><ele>517.25</ele><time>2026-04-03T11:40:23.999Z</time></trkpt><trkpt lat="44.36354650630354" lon="7.86408813664434"><ele>516.5</ele><time>2026-04-03T11:40:25.999Z</time></trkpt><trkpt lat="44.363481558046786" lon="7.864122807150899"><ele>515.75</ele><time>2026-04-03T11:40:26.999Z</time></trkpt><trkpt lat="44.36339410002204" lon="7.8641270581686"><ele>515.0</ele><time>2026-04-03T11:40:27.999Z</time></trkpt><trkpt lat="44.36329501116953" lon="7.864105082180108"><ele>515.0</ele><time>2026-04-03T11:40:28.999Z</time></trkpt><trkpt lat="44.363214614595314" lon="7.864078333186521"><ele>515.0</ele><time>2026-04-03T11:40:29.999Z</time></trkpt><trkpt lat="44.36313937132039" lon="7.8640575875923835"><ele>515.0</ele><time>2026-04-03T11:40:30.999Z</time></trkpt><trkpt lat="44.36307133962817" lon="7.8639948313696095"><ele>515.0</ele><time>2026-04-03T11:40:31.998Z</time></trkpt><trkpt lat="44.36300477471073" lon="7.86387640549729"><ele>515.0</ele><time>2026-04-03T11:40:32.998Z</time></trkpt><trkpt lat="44.36293787921525" lon="7.863744785877753"><ele>515.0</ele><time>2026-04-03T11:40:33.998Z</time></trkpt><trkpt lat="44.36287686573468" lon="7.8636037869987465"><ele>515.0</ele><time>2026-04-03T11:40:34.998Z</time></trkpt><trkpt lat="44.36281228795242" lon="7.863487855623674"><ele>515.0</ele><time>2026-04-03T11:40:35.998Z</time></trkpt><trkpt lat="44.36276149123435" lon="7.863387436923224"><ele>515.0</ele><time>2026-04-03T11:40:36.998Z</time></trkpt><trkpt lat="44.36270496213446" lon="7.863292160198564"><ele>515.0</ele><time>2026-04-03T11:40:37.998Z</time></trkpt><trkpt lat="44.36266058072691" lon="7.863205470611318"><ele>515.0</ele><time>2026-04-03T11:40:38.998Z</time></trkpt><trkpt lat="44.36264559519632" lon="7.863090251801423"><ele>515.0</ele><time>2026-04-03T11:40:39.998Z</time></trkpt><trkpt lat="44.36267555392182" lon="7.862952710282145"><ele>515.0</ele><time>2026-04-03T11:40:40.998Z</time></trkpt><trkpt lat="44.362672788823026" lon="7.8628210517345165"><ele>515.0</ele><time>2026-04-03T11:40:41.998Z</time></trkpt><trkpt lat="44.362700424561964" lon="7.862712319414562"><ele>515.0</ele><time>2026-04-03T11:40:42.998Z</time></trkpt><trkpt lat="44.36275906350487" lon="7.862565849584216"><ele>514.8</ele><time>2026-04-03T11:40:44.998Z</time></trkpt><trkpt lat="44.36280715520571" lon="7.8625042176516375"><ele>514.6</ele><time>2026-04-03T11:40:45.998Z</time></trkpt><trkpt lat="44.36286125927757" lon="7.862431687592303"><ele>514.4</ele><time>2026-04-03T11:40:47.998Z</time></trkpt><trkpt lat="44.36274393944481" lon="7.862224491849862"><ele>514.2</ele><time>2026-04-03T11:40:48.998Z</time></trkpt><trkpt lat="44.362680711325616" lon="7.862116796180464"><ele>514.0</ele><time>2026-04-03T11:40:49.998Z</time></trkpt><trkpt lat="44.36261419503683" lon="7.862030372196458"><ele>514.0</ele><time>2026-04-03T11:40:50.998Z</time></trkpt><trkpt lat="44.36255573073055" lon="7.861948685414244"><ele>514.0</ele><time>2026-04-03T11:40:52Z</time></trkpt><trkpt lat="44.36251573796875" lon="7.861866390235251"><ele>514.0</ele><time>2026-04-03T11:40:53Z</time></trkpt><trkpt lat="44.36246742014473" lon="7.861771122287928"><ele>514.0</ele><time>2026-04-03T11:40:54Z</time></trkpt><trkpt lat="44.36240867025355" lon="7.861665910639539"><ele>514.0</ele><time>2026-04-03T11:40:55Z</time></trkpt><trkpt lat="44.36236144214569" lon="7.861567216661046"><ele>514.0</ele><time>2026-04-03T11:40:56Z</time></trkpt><trkpt lat="44.362313171979956" lon="7.861479848981849"><ele>513.6</ele><time>2026-04-03T11:40:57Z</time></trkpt><trkpt lat="44.36225239293049" lon="7.861371867069879"><ele>513.2</ele><time>2026-04-03T11:40:58Z</time></trkpt><trkpt lat="44.36218084719296" lon="7.861257133012868"><ele>512.8000000000001</ele><time>2026-04-03T11:40:59Z</time></trkpt><trkpt lat="44.362120994794196" lon="7.86115161933119"><ele>512.4</ele><time>2026-04-03T11:41:00Z</time></trkpt><trkpt lat="44.36206892455016" lon="7.861052644167722"><ele>512.0</ele><time>2026-04-03T11:41:01Z</time></trkpt><trkpt lat="44.36201057841711" lon="7.860951092187042"><ele>511.6</ele><time>2026-04-03T11:41:02Z</time></trkpt><trkpt lat="44.36195230616118" lon="7.860851267727785"><ele>511.20000000000005</ele><time>2026-04-03T11:41:03Z</time></trkpt><trkpt lat="44.36188618103616" lon="7.860739548549868"><ele>510.8</ele><time>2026-04-03T11:41:04Z</time></trkpt><trkpt lat="44.36182381789087" lon="7.860642154415692"><ele>510.4</ele><time>2026-04-03T11:41:05Z</time></trkpt><trkpt lat="44.36176590476961" lon="7.860543977451966"><ele>510.0</ele><time>2026-04-03T11:41:06Z</time></trkpt><trkpt lat="44.36170815284952" lon="7.860435376921707"><ele>510.0</ele><time>2026-04-03T11:41:07Z</time></trkpt><trkpt lat="44.361650385285856" lon="7.860326949801418"><ele>510.0</ele><time>2026-04-03T11:41:08Z</time></trkpt><trkpt lat="44.361586654224176" lon="7.860221343565953"><ele>510.0</ele><time>2026-04-03T11:41:09Z</time></trkpt><trkpt lat="44.36152685170325" lon="7.860122913628465"><ele>510.0</ele><time>2026-04-03T11:41:10Z</time></trkpt><trkpt lat="44.36148002215761" lon="7.860019513966129"><ele>510.0</ele><time>2026-04-03T11:41:11Z</time></trkpt><trkpt lat="44.36142362248374" lon="7.859912380873127"><ele>509.6666666666667</ele><time>2026-04-03T11:41:12Z</time></trkpt><trkpt lat="44.36136561284639" lon="7.8598241868480985"><ele>509.33333333333337</ele><time>2026-04-03T11:41:13Z</time></trkpt><trkpt lat="44.36131878355447" lon="7.85974634888618"><ele>509.0</ele><time>2026-04-03T11:41:14Z</time></trkpt><trkpt lat="44.361271257531094" lon="7.859672322439791"><ele>508.6666666666667</ele><time>2026-04-03T11:41:15Z</time></trkpt><trkpt lat="44.36122698151729" lon="7.859602115398604"><ele>508.33333333333337</ele><time>2026-04-03T11:41:16Z</time></trkpt><trkpt lat="44.36117122175117" lon="7.859545468956873"><ele>508.0</ele><time>2026-04-03T11:41:17Z</time></trkpt><trkpt lat="44.36109447233027" lon="7.859472244641881"><ele>507.59999999999997</ele><time>2026-04-03T11:41:19Z</time></trkpt><trkpt lat="44.36107505120797" lon="7.859335485635628"><ele>507.19999999999993</ele><time>2026-04-03T11:41:21Z</time></trkpt><trkpt lat="44.361011377368875" lon="7.859379795396111"><ele>506.8</ele><time>2026-04-03T11:41:22Z</time></trkpt><trkpt lat="44.361051911702084" lon="7.859268510362959"><ele>506.4</ele><time>2026-04-03T11:41:23Z</time></trkpt><trkpt lat="44.361010134843546" lon="7.859146137822596"><ele>506.0</ele><time>2026-04-03T11:41:27Z</time></trkpt><trkpt lat="44.360945359385646" lon="7.85896562862963"><ele>506.0</ele><time>2026-04-03T11:41:29Z</time></trkpt><trkpt lat="44.36092297484317" lon="7.858856574258987"><ele>506.0</ele><time>2026-04-03T11:41:30Z</time></trkpt><trkpt lat="44.36088640564065" lon="7.858733789244149"><ele>506.0</ele><time>2026-04-03T11:41:31Z</time></trkpt><trkpt lat="44.36083975764813" lon="7.858573656489381"><ele>506.0</ele><time>2026-04-03T11:41:32Z</time></trkpt><trkpt lat="44.360793103442624" lon="7.8584138057326856"><ele>506.0</ele><time>2026-04-03T11:41:33Z</time></trkpt><trkpt lat="44.36074296451773" lon="7.85824662658345"><ele>506.0</ele><time>2026-04-03T11:41:33.999Z</time></trkpt><trkpt lat="44.36068976458478" lon="7.858094274044703"><ele>506.0</ele><time>2026-04-03T11:41:34.999Z</time></trkpt><trkpt lat="44.36065377211666" lon="7.857943862817788"><ele>506.0</ele><time>2026-04-03T11:41:35.999Z</time></trkpt><trkpt lat="44.360613925474034" lon="7.857798411366757"><ele>506.0</ele><time>2026-04-03T11:41:36.999Z</time></trkpt><trkpt lat="44.36057193801694" lon="7.857650347061969"><ele>505.5</ele><time>2026-04-03T11:41:37.999Z</time></trkpt><trkpt lat="44.36052773627572" lon="7.857507443820088"><ele>505.0</ele><time>2026-04-03T11:41:38.999Z</time></trkpt><trkpt lat="44.36048611192429" lon="7.857358800380393"><ele>504.5</ele><time>2026-04-03T11:41:39.999Z</time></trkpt><trkpt lat="44.36043763393525" lon="7.857201565569943"><ele>504.0</ele><time>2026-04-03T11:41:40.999Z</time></trkpt><trkpt lat="44.360396419072636" lon="7.857062498342797"><ele>504.0</ele><time>2026-04-03T11:41:41.999Z</time></trkpt><trkpt lat="44.36035571215365" lon="7.856921750812698"><ele>504.0</ele><time>2026-04-03T11:41:42.999Z</time></trkpt><trkpt lat="44.360315858744436" lon="7.856779398258091"><ele>504.0</ele><time>2026-04-03T11:41:43.999Z</time></trkpt><trkpt lat="44.36027221249549" lon="7.856631756762886"><ele>504.0</ele><time>2026-04-03T11:41:44.999Z</time></trkpt><trkpt lat="44.36023198895609" lon="7.8564948481247034"><ele>504.0</ele><time>2026-04-03T11:41:45.999Z</time></trkpt><trkpt lat="44.360191610521156" lon="7.856350444126411"><ele>503.79999999999995</ele><time>2026-04-03T11:41:46.999Z</time></trkpt><trkpt lat="44.36015154125595" lon="7.856209706740977"><ele>503.59999999999997</ele><time>2026-04-03T11:41:47.999Z</time></trkpt><trkpt lat="44.360113891461815" lon="7.856077247650022"><ele>503.4</ele><time>2026-04-03T11:41:48.999Z</time></trkpt><trkpt lat="44.360073928937496" lon="7.855938103110024"><ele>503.2</ele><time>2026-04-03T11:41:49.999Z</time></trkpt><trkpt lat="44.36003719275963" lon="7.855790061232431"><ele>503.0</ele><time>2026-04-03T11:41:50.999Z</time></trkpt><trkpt lat="44.359994494893655" lon="7.855661467700757"><ele>502.79999999999995</ele><time>2026-04-03T11:41:51.999Z</time></trkpt><trkpt lat="44.35996602804533" lon="7.855507242834829"><ele>502.59999999999997</ele><time>2026-04-03T11:41:52.999Z</time></trkpt><trkpt lat="44.35992458921355" lon="7.855362679427145"><ele>502.40000000000003</ele><time>2026-04-03T11:41:53.999Z</time></trkpt><trkpt lat="44.35988103524152" lon="7.855216367276137"><ele>502.20000000000005</ele><time>2026-04-03T11:41:54.999Z</time></trkpt><trkpt lat="44.35983724810079" lon="7.855077288933495"><ele>502.0</ele><time>2026-04-03T11:41:55.999Z</time></trkpt><trkpt lat="44.35979623163582" lon="7.8549430897348405"><ele>502.0</ele><time>2026-04-03T11:41:56.999Z</time></trkpt><trkpt lat="44.35975804436363" lon="7.854804603806592"><ele>502.00000000000006</ele><time>2026-04-03T11:41:57.999Z</time></trkpt><trkpt lat="44.35972173941706" lon="7.854670948227331"><ele>502.00000000000006</ele><time>2026-04-03T11:41:58.999Z</time></trkpt><trkpt lat="44.35967566027992" lon="7.85453072447432"><ele>502.0</ele><time>2026-04-03T11:41:59.999Z</time></trkpt><trkpt lat="44.359633942885495" lon="7.854387789338413"><ele>502.0</ele><time>2026-04-03T11:42:00.999Z</time></trkpt><trkpt lat="44.35959510041302" lon="7.854249046841157"><ele>501.40000000000003</ele><time>2026-04-03T11:42:01.999Z</time></trkpt><trkpt lat="44.35955598003641" lon="7.8541106777747"><ele>500.80000000000007</ele><time>2026-04-03T11:42:02.999Z</time></trkpt><trkpt lat="44.35951706403819" lon="7.853968159040135"><ele>500.2</ele><time>2026-04-03T11:42:03.999Z</time></trkpt><trkpt lat="44.35947809072847" lon="7.853826071822272"><ele>499.6</ele><time>2026-04-03T11:42:04.999Z</time></trkpt><trkpt lat="44.35943469640751" lon="7.853676990317473"><ele>499.0</ele><time>2026-04-03T11:42:05.999Z</time></trkpt><trkpt lat="44.35939538863914" lon="7.853527052349472"><ele>498.79999999999995</ele><time>2026-04-03T11:42:06.999Z</time></trkpt><trkpt lat="44.35935802905178" lon="7.853385287683679"><ele>498.59999999999997</ele><time>2026-04-03T11:42:07.999Z</time></trkpt><trkpt lat="44.35931446779404" lon="7.853240513086699"><ele>498.4</ele><time>2026-04-03T11:42:08.999Z</time></trkpt><trkpt lat="44.359271340654175" lon="7.853093046298783"><ele>498.2</ele><time>2026-04-03T11:42:09.999Z</time></trkpt><trkpt lat="44.35923377463678" lon="7.852951484439883"><ele>498.0</ele><time>2026-04-03T11:42:10.999Z</time></trkpt><trkpt lat="44.3591990950579" lon="7.852814061416114"><ele>498.0</ele><time>2026-04-03T11:42:11.999Z</time></trkpt><trkpt lat="44.35915810376424" lon="7.852670952145601"><ele>498.0</ele><time>2026-04-03T11:42:12.999Z</time></trkpt><trkpt lat="44.3591137012499" lon="7.852521014812918"><ele>498.0</ele><time>2026-04-03T11:42:13.999Z</time></trkpt><trkpt lat="44.35907382464845" lon="7.852373700450005"><ele>498.0</ele><time>2026-04-03T11:42:14.999Z</time></trkpt><trkpt lat="44.359030546533745" lon="7.852223058745675"><ele>498.59999999999997</ele><time>2026-04-03T11:42:15.999Z</time></trkpt><trkpt lat="44.35898635710157" lon="7.85208415715559"><ele>499.19999999999993</ele><time>2026-04-03T11:42:16.999Z</time></trkpt><trkpt lat="44.35894499266536" lon="7.851937229009987"><ele>499.8</ele><time>2026-04-03T11:42:17.999Z</time></trkpt><trkpt lat="44.35890322733069" lon="7.8517914756904466"><ele>500.4</ele><time>2026-04-03T11:42:18.999Z</time></trkpt><trkpt lat="44.358863584891886" lon="7.851649219047505"><ele>501.0</ele><time>2026-04-03T11:42:19.999Z</time></trkpt><trkpt lat="44.3588245250002" lon="7.851511589097308"><ele>499.6</ele><time>2026-04-03T11:42:20.999Z</time></trkpt><trkpt lat="44.35878319495225" lon="7.851364286952847"><ele>498.20000000000005</ele><time>2026-04-03T11:42:21.999Z</time></trkpt><trkpt lat="44.358745143723894" lon="7.8512156452931245"><ele>496.79999999999995</ele><time>2026-04-03T11:42:22.999Z</time></trkpt><trkpt lat="44.35869990501705" lon="7.8510791391975925"><ele>495.4</ele><time>2026-04-03T11:42:23.999Z</time></trkpt><trkpt lat="44.35866310778605" lon="7.850945666065556"><ele>494.0</ele><time>2026-04-03T11:42:24.999Z</time></trkpt><trkpt lat="44.35862114915943" lon="7.850798275040783"><ele>494.0</ele><time>2026-04-03T11:42:25.999Z</time></trkpt><trkpt lat="44.35858149491468" lon="7.850647678014202"><ele>494.0</ele><time>2026-04-03T11:42:26.999Z</time></trkpt><trkpt lat="44.35854004438777" lon="7.850494621916005"><ele>494.0</ele><time>2026-04-03T11:42:27.999Z</time></trkpt><trkpt lat="44.3584969534228" lon="7.850345701895761"><ele>494.0</ele><time>2026-04-03T11:42:28.999Z</time></trkpt><trkpt lat="44.3584529194423" lon="7.850194728441598"><ele>494.0</ele><time>2026-04-03T11:42:29.999Z</time></trkpt><trkpt lat="44.358411681846" lon="7.850051463674724"><ele>494.0</ele><time>2026-04-03T11:42:30.999Z</time></trkpt><trkpt lat="44.35837376246767" lon="7.849908040450128"><ele>494.0</ele><time>2026-04-03T11:42:31.999Z</time></trkpt><trkpt lat="44.358335769549775" lon="7.849758410324454"><ele>494.0</ele><time>2026-04-03T11:42:32.999Z</time></trkpt><trkpt lat="44.35829295749767" lon="7.849616390836601"><ele>494.0</ele><time>2026-04-03T11:42:33.999Z</time></trkpt><trkpt lat="44.358252368339556" lon="7.8494751857237"><ele>494.0</ele><time>2026-04-03T11:42:34.999Z</time></trkpt><trkpt lat="44.35820815327111" lon="7.849329078603067"><ele>494.0</ele><time>2026-04-03T11:42:35.999Z</time></trkpt><trkpt lat="44.358167719496976" lon="7.849192494805027"><ele>494.0</ele><time>2026-04-03T11:42:36.999Z</time></trkpt><trkpt lat="44.35812603255476" lon="7.849053395397874"><ele>494.0</ele><time>2026-04-03T11:42:37.999Z</time></trkpt><trkpt lat="44.35808303646762" lon="7.848913141002123"><ele>494.0</ele><time>2026-04-03T11:42:38.998Z</time></trkpt><trkpt lat="44.358041019166166" lon="7.848768681743593"><ele>494.0</ele><time>2026-04-03T11:42:39.998Z</time></trkpt><trkpt lat="44.35799550232196" lon="7.848618345437632"><ele>494.0</ele><time>2026-04-03T11:42:40.998Z</time></trkpt><trkpt lat="44.35794860818605" lon="7.848458181473295"><ele>494.0</ele><time>2026-04-03T11:42:41.998Z</time></trkpt><trkpt lat="44.3578999429902" lon="7.848289909441999"><ele>494.0</ele><time>2026-04-03T11:42:42.998Z</time></trkpt><trkpt lat="44.35785229864641" lon="7.848122973930666"><ele>493.0</ele><time>2026-04-03T11:42:43.998Z</time></trkpt><trkpt lat="44.35780725666139" lon="7.8479645830683165"><ele>492.0</ele><time>2026-04-03T11:42:44.998Z</time></trkpt><trkpt lat="44.35775355826728" lon="7.847778515537926"><ele>491.0</ele><time>2026-04-03T11:42:45.998Z</time></trkpt><trkpt lat="44.35770412035739" lon="7.847589827351209"><ele>490.0</ele><time>2026-04-03T11:42:46.998Z</time></trkpt><trkpt lat="44.35764184269134" lon="7.847400257728778"><ele>490.0</ele><time>2026-04-03T11:42:47.998Z</time></trkpt><trkpt lat="44.35758566059065" lon="7.847202351395375"><ele>490.0</ele><time>2026-04-03T11:42:48.998Z</time></trkpt><trkpt lat="44.35752866852573" lon="7.846995566463712"><ele>490.0</ele><time>2026-04-03T11:42:49.998Z</time></trkpt><trkpt lat="44.35746528817461" lon="7.84679159999955"><ele>490.33333333333337</ele><time>2026-04-03T11:42:50.998Z</time></trkpt><trkpt lat="44.35740535931494" lon="7.846591402182491"><ele>490.66666666666663</ele><time>2026-04-03T11:42:51.998Z</time></trkpt><trkpt lat="44.35735140845403" lon="7.846392958722549"><ele>491.0</ele><time>2026-04-03T11:42:52.998Z</time></trkpt><trkpt lat="44.35729163226962" lon="7.846186474041522"><ele>491.0</ele><time>2026-04-03T11:42:53.998Z</time></trkpt><trkpt lat="44.357232488469236" lon="7.845983157394752"><ele>491.0</ele><time>2026-04-03T11:42:54.998Z</time></trkpt><trkpt lat="44.357169211983944" lon="7.845775311258269"><ele>491.0</ele><time>2026-04-03T11:42:55.998Z</time></trkpt><trkpt lat="44.357101726628656" lon="7.845563026998705"><ele>490.3333333333333</ele><time>2026-04-03T11:42:56.998Z</time></trkpt><trkpt lat="44.35703814856943" lon="7.845356547304421"><ele>489.66666666666663</ele><time>2026-04-03T11:42:58Z</time></trkpt><trkpt lat="44.356984589710095" lon="7.845161211048734"><ele>489.0</ele><time>2026-04-03T11:42:59Z</time></trkpt><trkpt lat="44.356927993210896" lon="7.844956497447931"><ele>489.0</ele><time>2026-04-03T11:43:00Z</time></trkpt><trkpt lat="44.356872926850194" lon="7.844763352253169"><ele>489.0</ele><time>2026-04-03T11:43:01Z</time></trkpt><trkpt lat="44.35682127745377" lon="7.844576377539294"><ele>489.0</ele><time>2026-04-03T11:43:02Z</time></trkpt><trkpt lat="44.35676721535035" lon="7.844393394123839"><ele>489.0</ele><time>2026-04-03T11:43:03Z</time></trkpt><trkpt lat="44.35671461155196" lon="7.84419825267108"><ele>489.66666666666663</ele><time>2026-04-03T11:43:04Z</time></trkpt><trkpt lat="44.356654322088296" lon="7.843993212259202"><ele>490.3333333333333</ele><time>2026-04-03T11:43:05Z</time></trkpt><trkpt lat="44.35659759596654" lon="7.843787538165385"><ele>491.0</ele><time>2026-04-03T11:43:06Z</time></trkpt><trkpt lat="44.35654057572905" lon="7.84359886697832"><ele>491.0</ele><time>2026-04-03T11:43:07Z</time></trkpt><trkpt lat="44.356492136023554" lon="7.843405088352259"><ele>491.0</ele><time>2026-04-03T11:43:08Z</time></trkpt><trkpt lat="44.3564389462233" lon="7.843208994313233"><ele>491.0</ele><time>2026-04-03T11:43:09Z</time></trkpt><trkpt lat="44.356398811607" lon="7.843002476181729"><ele>491.0</ele><time>2026-04-03T11:43:10Z</time></trkpt><trkpt lat="44.3563731624138" lon="7.842789917051656"><ele>491.0</ele><time>2026-04-03T11:43:11Z</time></trkpt><trkpt lat="44.356356019717104" lon="7.842582625895359"><ele>491.0</ele><time>2026-04-03T11:43:12Z</time></trkpt><trkpt lat="44.35635496589825" lon="7.842376520601856"><ele>490.66666666666663</ele><time>2026-04-03T11:43:13Z</time></trkpt><trkpt lat="44.35637057018086" lon="7.842179254863574"><ele>490.33333333333337</ele><time>2026-04-03T11:43:14Z</time></trkpt><trkpt lat="44.3564005995407" lon="7.841965816660048"><ele>490.0</ele><time>2026-04-03T11:43:15Z</time></trkpt><trkpt lat="44.35644430152739" lon="7.841745693149872"><ele>489.0</ele><time>2026-04-03T11:43:16Z</time></trkpt><trkpt lat="44.35650173252393" lon="7.841559048707086"><ele>488.0</ele><time>2026-04-03T11:43:17Z</time></trkpt><trkpt lat="44.35656211276318" lon="7.841354884219204"><ele>487.0</ele><time>2026-04-03T11:43:18Z</time></trkpt><trkpt lat="44.35662821851167" lon="7.841142426940992"><ele>484.6666666666667</ele><time>2026-04-03T11:43:19Z</time></trkpt><trkpt lat="44.35670214196881" lon="7.840939245251668"><ele>482.33333333333337</ele><time>2026-04-03T11:43:20Z</time></trkpt><trkpt lat="44.35676969208039" lon="7.840731456231272"><ele>480.0</ele><time>2026-04-03T11:43:21Z</time></trkpt><trkpt lat="44.356839364937414" lon="7.840523461614452"><ele>480.0</ele><time>2026-04-03T11:43:22Z</time></trkpt><trkpt lat="44.35690993563219" lon="7.8403174202962855"><ele>480.0</ele><time>2026-04-03T11:43:23Z</time></trkpt><trkpt lat="44.356981719326264" lon="7.840109072895576"><ele>480.0</ele><time>2026-04-03T11:43:24Z</time></trkpt><trkpt lat="44.357051187693955" lon="7.839889484851577"><ele>479.66666666666663</ele><time>2026-04-03T11:43:25Z</time></trkpt><trkpt lat="44.35711685968051" lon="7.8396888515043806"><ele>479.3333333333333</ele><time>2026-04-03T11:43:26Z</time></trkpt><trkpt lat="44.35718246808238" lon="7.839489156230517"><ele>479.0</ele><time>2026-04-03T11:43:27Z</time></trkpt><trkpt lat="44.35724733321974" lon="7.83928929946454"><ele>479.0</ele><time>2026-04-03T11:43:28Z</time></trkpt><trkpt lat="44.357316321713625" lon="7.83909349492877"><ele>479.0</ele><time>2026-04-03T11:43:29Z</time></trkpt><trkpt lat="44.35737952358673" lon="7.838895905215425"><ele>479.0</ele><time>2026-04-03T11:43:30Z</time></trkpt><trkpt lat="44.357447382934794" lon="7.838694355379317"><ele>479.0</ele><time>2026-04-03T11:43:31Z</time></trkpt><trkpt lat="44.35751414760827" lon="7.838496719335655"><ele>479.0</ele><time>2026-04-03T11:43:32Z</time></trkpt><trkpt lat="44.3575790252681" lon="7.838300547560836"><ele>479.0</ele><time>2026-04-03T11:43:33Z</time></trkpt><trkpt lat="44.35764199092762" lon="7.838109746438149"><ele>478.5</ele><time>2026-04-03T11:43:34Z</time></trkpt><trkpt lat="44.35770235038306" lon="7.837922957957255"><ele>478.0</ele><time>2026-04-03T11:43:35Z</time></trkpt><trkpt lat="44.357780865922365" lon="7.837745735029798"><ele>477.5</ele><time>2026-04-03T11:43:36Z</time></trkpt><trkpt lat="44.35784342649654" lon="7.837551035995627"><ele>477.0</ele><time>2026-04-03T11:43:37Z</time></trkpt><trkpt lat="44.35790852730086" lon="7.837360365981614"><ele>475.75</ele><time>2026-04-03T11:43:38Z</time></trkpt><trkpt lat="44.357971552711575" lon="7.8371673337234125"><ele>474.5</ele><time>2026-04-03T11:43:39Z</time></trkpt><trkpt lat="44.35803356436657" lon="7.836975528908064"><ele>473.25</ele><time>2026-04-03T11:43:40Z</time></trkpt><trkpt lat="44.358092053751385" lon="7.836792245071344"><ele>472.0</ele><time>2026-04-03T11:43:41Z</time></trkpt><trkpt lat="44.358153779869795" lon="7.836601221372677"><ele>471.33333333333337</ele><time>2026-04-03T11:43:42Z</time></trkpt><trkpt lat="44.35821767428951" lon="7.836406058412524"><ele>470.66666666666663</ele><time>2026-04-03T11:43:43Z</time></trkpt><trkpt lat="44.358282819713814" lon="7.836195674886721"><ele>470.0</ele><time>2026-04-03T11:43:44Z</time></trkpt><trkpt lat="44.35834762081062" lon="7.835992028194549"><ele>470.0</ele><time>2026-04-03T11:43:44.999Z</time></trkpt><trkpt lat="44.35840907091004" lon="7.835800641126745"><ele>470.0</ele><time>2026-04-03T11:43:45.999Z</time></trkpt><trkpt lat="44.35846076708637" lon="7.8356230502412085"><ele>470.0</ele><time>2026-04-03T11:43:46.999Z</time></trkpt><trkpt lat="44.35851682633125" lon="7.835451072859098"><ele>470.0</ele><time>2026-04-03T11:43:47.999Z</time></trkpt><trkpt lat="44.358584665591536" lon="7.835296957458314"><ele>470.0</ele><time>2026-04-03T11:43:48.999Z</time></trkpt><trkpt lat="44.35866307146172" lon="7.83515895495107"><ele>470.0</ele><time>2026-04-03T11:43:49.999Z</time></trkpt><trkpt lat="44.35875631340769" lon="7.835046764196175"><ele>470.0</ele><time>2026-04-03T11:43:50.999Z</time></trkpt><trkpt lat="44.358868483993156" lon="7.834955929689065"><ele>470.0</ele><time>2026-04-03T11:43:51.999Z</time></trkpt><trkpt lat="44.35899386436051" lon="7.834879255046423"><ele>471.0</ele><time>2026-04-03T11:43:52.999Z</time></trkpt><trkpt lat="44.35911996594468" lon="7.834822740286031"><ele>472.0</ele><time>2026-04-03T11:43:53.999Z</time></trkpt><trkpt lat="44.35923763662523" lon="7.834770427080749"><ele>473.0</ele><time>2026-04-03T11:43:54.999Z</time></trkpt><trkpt lat="44.35936697499284" lon="7.834709059756409"><ele>474.0</ele><time>2026-04-03T11:43:55.999Z</time></trkpt><trkpt lat="44.359495475400095" lon="7.83464631669617"><ele>474.0</ele><time>2026-04-03T11:43:56.999Z</time></trkpt><trkpt lat="44.3596424142191" lon="7.834578606157632"><ele>474.0</ele><time>2026-04-03T11:43:57.999Z</time></trkpt><trkpt lat="44.359788728005235" lon="7.834513295476187"><ele>474.0</ele><time>2026-04-03T11:43:58.999Z</time></trkpt><trkpt lat="44.35993647028649" lon="7.834453201963891"><ele>474.33333333333337</ele><time>2026-04-03T11:43:59.999Z</time></trkpt><trkpt lat="44.36009678573505" lon="7.834411947555244"><ele>474.6666666666667</ele><time>2026-04-03T11:44:00.999Z</time></trkpt><trkpt lat="44.360245162249235" lon="7.834347348497187"><ele>475.0</ele><time>2026-04-03T11:44:01.999Z</time></trkpt><trkpt lat="44.360383506662" lon="7.834286866462265"><ele>475.0</ele><time>2026-04-03T11:44:02.999Z</time></trkpt><trkpt lat="44.36052064982434" lon="7.834226909607626"><ele>475.0</ele><time>2026-04-03T11:44:03.999Z</time></trkpt><trkpt lat="44.36066532643453" lon="7.8341636592299"><ele>475.0</ele><time>2026-04-03T11:44:04.999Z</time></trkpt><trkpt lat="44.36081746678803" lon="7.834096602245596"><ele>474.33333333333337</ele><time>2026-04-03T11:44:05.999Z</time></trkpt><trkpt lat="44.360962991344614" lon="7.834031922832673"><ele>473.66666666666663</ele><time>2026-04-03T11:44:06.999Z</time></trkpt><trkpt lat="44.36110578472924" lon="7.833968457306669"><ele>473.0</ele><time>2026-04-03T11:44:07.999Z</time></trkpt><trkpt lat="44.361252303073506" lon="7.833903336183337"><ele>471.3333333333333</ele><time>2026-04-03T11:44:08.999Z</time></trkpt><trkpt lat="44.36141306154745" lon="7.833831885961801"><ele>469.66666666666663</ele><time>2026-04-03T11:44:09.999Z</time></trkpt><trkpt lat="44.36158130996851" lon="7.833757106779419"><ele>468.0</ele><time>2026-04-03T11:44:10.999Z</time></trkpt><trkpt lat="44.361763296754205" lon="7.833676834238851"><ele>468.0</ele><time>2026-04-03T11:44:11.999Z</time></trkpt><trkpt lat="44.36194573470288" lon="7.833596551299776"><ele>468.0</ele><time>2026-04-03T11:44:12.999Z</time></trkpt><trkpt lat="44.36211087572569" lon="7.833523879775881"><ele>468.0</ele><time>2026-04-03T11:44:13.999Z</time></trkpt><trkpt lat="44.36228528874823" lon="7.8334123016845"><ele>468.33333333333337</ele><time>2026-04-03T11:44:14.999Z</time></trkpt><trkpt lat="44.3624763925125" lon="7.8333335044336865"><ele>468.6666666666667</ele><time>2026-04-03T11:44:15.999Z</time></trkpt><trkpt lat="44.36267378029487" lon="7.833246878635572"><ele>469.0</ele><time>2026-04-03T11:44:16.999Z</time></trkpt><trkpt lat="44.36286241154826" lon="7.833158048624141"><ele>468.33333333333337</ele><time>2026-04-03T11:44:17.999Z</time></trkpt><trkpt lat="44.363056707730095" lon="7.833073571862849"><ele>467.66666666666663</ele><time>2026-04-03T11:44:18.999Z</time></trkpt><trkpt lat="44.36325768233149" lon="7.832985965600607"><ele>467.0</ele><time>2026-04-03T11:44:19.999Z</time></trkpt><trkpt lat="44.36345354206778" lon="7.832928349839068"><ele>467.0</ele><time>2026-04-03T11:44:20.999Z</time></trkpt><trkpt lat="44.363654957424714" lon="7.832823219296627"><ele>467.0</ele><time>2026-04-03T11:44:21.999Z</time></trkpt><trkpt lat="44.363852273215436" lon="7.83274291637729"><ele>467.0</ele><time>2026-04-03T11:44:22.999Z</time></trkpt><trkpt lat="44.36404985623627" lon="7.832666293884888"><ele>466.66666666666663</ele><time>2026-04-03T11:44:23.999Z</time></trkpt><trkpt lat="44.36425574178775" lon="7.8325942516753395"><ele>466.33333333333337</ele><time>2026-04-03T11:44:24.999Z</time></trkpt><trkpt lat="44.364458261868656" lon="7.832535800210061"><ele>466.0</ele><time>2026-04-03T11:44:25.999Z</time></trkpt><trkpt lat="44.36465643321376" lon="7.832468001249387"><ele>466.0</ele><time>2026-04-03T11:44:26.999Z</time></trkpt><trkpt lat="44.36485959481939" lon="7.832404092021973"><ele>466.0</ele><time>2026-04-03T11:44:27.999Z</time></trkpt><trkpt lat="44.36508032088548" lon="7.83235941443062"><ele>466.0</ele><time>2026-04-03T11:44:28.999Z</time></trkpt><trkpt lat="44.36529892846127" lon="7.832293149437013"><ele>466.0</ele><time>2026-04-03T11:44:29.999Z</time></trkpt><trkpt lat="44.365500874839825" lon="7.832231934876698"><ele>466.0</ele><time>2026-04-03T11:44:30.999Z</time></trkpt><trkpt lat="44.365693155063504" lon="7.832152670525881"><ele>466.0</ele><time>2026-04-03T11:44:31.999Z</time></trkpt><trkpt lat="44.365887502468745" lon="7.832094206157955"><ele>464.0</ele><time>2026-04-03T11:44:32.999Z</time></trkpt><trkpt lat="44.36610458161012" lon="7.832048859704659"><ele>462.0</ele><time>2026-04-03T11:44:33.999Z</time></trkpt><trkpt lat="44.36631200052076" lon="7.831985614366096"><ele>460.0</ele><time>2026-04-03T11:44:34.999Z</time></trkpt><trkpt lat="44.36652135505501" lon="7.831921778837257"><ele>460.33333333333337</ele><time>2026-04-03T11:44:35.999Z</time></trkpt><trkpt lat="44.366730801684156" lon="7.831857915209271"><ele>460.66666666666663</ele><time>2026-04-03T11:44:36.999Z</time></trkpt><trkpt lat="44.366940624873095" lon="7.831793936749837"><ele>461.0</ele><time>2026-04-03T11:44:37.999Z</time></trkpt><trkpt lat="44.367151312127184" lon="7.831729694859466"><ele>460.0</ele><time>2026-04-03T11:44:38.999Z</time></trkpt><trkpt lat="44.367348985256555" lon="7.83164757258971"><ele>459.0</ele><time>2026-04-03T11:44:39.999Z</time></trkpt><trkpt lat="44.36755114759228" lon="7.83160777864387"><ele>458.0</ele><time>2026-04-03T11:44:40.999Z</time></trkpt><trkpt lat="44.36774489088163" lon="7.831528995027469"><ele>458.0</ele><time>2026-04-03T11:44:41.999Z</time></trkpt><trkpt lat="44.36794283831307" lon="7.831488345881148"><ele>458.0</ele><time>2026-04-03T11:44:42.999Z</time></trkpt><trkpt lat="44.36813804420206" lon="7.8314288253113915"><ele>458.0</ele><time>2026-04-03T11:44:43.999Z</time></trkpt><trkpt lat="44.36833384491519" lon="7.831368526580032"><ele>457.3333333333333</ele><time>2026-04-03T11:44:44.999Z</time></trkpt><trkpt lat="44.36853094874922" lon="7.831287470013291"><ele>456.66666666666663</ele><time>2026-04-03T11:44:45.999Z</time></trkpt><trkpt lat="44.36873332434707" lon="7.831225496620231"><ele>456.0</ele><time>2026-04-03T11:44:46.999Z</time></trkpt><trkpt lat="44.36891802657922" lon="7.831169273470415"><ele>455.33333333333337</ele><time>2026-04-03T11:44:47.999Z</time></trkpt><trkpt lat="44.36911200253953" lon="7.831109849706862"><ele>454.6666666666667</ele><time>2026-04-03T11:44:48.998Z</time></trkpt><trkpt lat="44.369301014358015" lon="7.8310491212941535"><ele>454.0</ele><time>2026-04-03T11:44:49.998Z</time></trkpt><trkpt lat="44.36949753187472" lon="7.830992948078907"><ele>454.33333333333337</ele><time>2026-04-03T11:44:50.998Z</time></trkpt><trkpt lat="44.369694559990215" lon="7.830930894753689"><ele>454.66666666666663</ele><time>2026-04-03T11:44:51.998Z</time></trkpt><trkpt lat="44.369886991606975" lon="7.830875698259041"><ele>455.0</ele><time>2026-04-03T11:44:52.998Z</time></trkpt><trkpt lat="44.37006385643386" lon="7.830815569903273"><ele>455.0</ele><time>2026-04-03T11:44:53.998Z</time></trkpt><trkpt lat="44.370251198988285" lon="7.830781568332044"><ele>455.0</ele><time>2026-04-03T11:44:54.998Z</time></trkpt><trkpt lat="44.370433576469566" lon="7.830707248318998"><ele>455.0</ele><time>2026-04-03T11:44:55.998Z</time></trkpt><trkpt lat="44.37061748858246" lon="7.830660502450218"><ele>454.3333333333333</ele><time>2026-04-03T11:44:56.998Z</time></trkpt><trkpt lat="44.37079870979504" lon="7.830597610367673"><ele>453.66666666666663</ele><time>2026-04-03T11:44:57.998Z</time></trkpt><trkpt lat="44.37099075939934" lon="7.830543644818926"><ele>453.0</ele><time>2026-04-03T11:44:58.998Z</time></trkpt><trkpt lat="44.37117925947157" lon="7.830483948481846"><ele>451.66666666666663</ele><time>2026-04-03T11:44:59.998Z</time></trkpt><trkpt lat="44.37135948099552" lon="7.830423769278227"><ele>450.3333333333333</ele><time>2026-04-03T11:45:00.998Z</time></trkpt><trkpt lat="44.37154357943797" lon="7.830366375399069"><ele>449.0</ele><time>2026-04-03T11:45:01.998Z</time></trkpt><trkpt lat="44.37172769993228" lon="7.830332651323942"><ele>449.0</ele><time>2026-04-03T11:45:02.998Z</time></trkpt><trkpt lat="44.37190792768086" lon="7.8302782362773815"><ele>449.0</ele><time>2026-04-03T11:45:04Z</time></trkpt><trkpt lat="44.372093345340886" lon="7.830222193607758"><ele>449.0</ele><time>2026-04-03T11:45:05Z</time></trkpt><trkpt lat="44.372277632836195" lon="7.830145534989756"><ele>449.0</ele><time>2026-04-03T11:45:06Z</time></trkpt><trkpt lat="44.37246275648984" lon="7.830090705187245"><ele>449.0</ele><time>2026-04-03T11:45:07Z</time></trkpt><trkpt lat="44.372630559624206" lon="7.830037016118317"><ele>449.0</ele><time>2026-04-03T11:45:08Z</time></trkpt><trkpt lat="44.37280127110519" lon="7.830008641811703"><ele>449.0</ele><time>2026-04-03T11:45:09Z</time></trkpt><trkpt lat="44.37296781376639" lon="7.8299579582528755"><ele>449.0</ele><time>2026-04-03T11:45:10Z</time></trkpt><trkpt lat="44.37313206406961" lon="7.829889273863281"><ele>449.0</ele><time>2026-04-03T11:45:11Z</time></trkpt><trkpt lat="44.373296979261674" lon="7.829835395723841"><ele>449.66666666666663</ele><time>2026-04-03T11:45:12Z</time></trkpt><trkpt lat="44.373465543812" lon="7.829805191188101"><ele>450.33333333333337</ele><time>2026-04-03T11:45:13Z</time></trkpt><trkpt lat="44.37362585070012" lon="7.8297559352986115"><ele>451.0</ele><time>2026-04-03T11:45:14Z</time></trkpt><trkpt lat="44.373780498467234" lon="7.8297083769126425"><ele>452.0</ele><time>2026-04-03T11:45:15Z</time></trkpt><trkpt lat="44.37393711345715" lon="7.829660280878185"><ele>453.0</ele><time>2026-04-03T11:45:16Z</time></trkpt><trkpt lat="44.37409727217998" lon="7.829611118584599"><ele>454.0</ele><time>2026-04-03T11:45:17Z</time></trkpt><trkpt lat="44.37426257031466" lon="7.8295603767103925"><ele>454.0</ele><time>2026-04-03T11:45:18Z</time></trkpt><trkpt lat="44.374416440193805" lon="7.829491015974339"><ele>454.0</ele><time>2026-04-03T11:45:19Z</time></trkpt><trkpt lat="44.37456843778988" lon="7.829450448117673"><ele>454.0</ele><time>2026-04-03T11:45:20Z</time></trkpt><trkpt lat="44.374715452536655" lon="7.82939926162117"><ele>452.33333333333337</ele><time>2026-04-03T11:45:21Z</time></trkpt><trkpt lat="44.374872371352" lon="7.829346719370188"><ele>450.66666666666663</ele><time>2026-04-03T11:45:22Z</time></trkpt><trkpt lat="44.3750258317372" lon="7.829281745829367"><ele>449.0</ele><time>2026-04-03T11:45:23Z</time></trkpt><trkpt lat="44.375182458456806" lon="7.829173905415141"><ele>448.66666666666663</ele><time>2026-04-03T11:45:24Z</time></trkpt><trkpt lat="44.375337363403176" lon="7.829052966827735"><ele>448.33333333333337</ele><time>2026-04-03T11:45:25Z</time></trkpt><trkpt lat="44.375480954558235" lon="7.8289190688730175"><ele>448.0</ele><time>2026-04-03T11:45:26Z</time></trkpt><trkpt lat="44.375638671617764" lon="7.828764876150632"><ele>448.0</ele><time>2026-04-03T11:45:27Z</time></trkpt><trkpt lat="44.37579765009099" lon="7.828609928813149"><ele>448.0</ele><time>2026-04-03T11:45:28Z</time></trkpt><trkpt lat="44.37596049207252" lon="7.8284533587802985"><ele>448.0</ele><time>2026-04-03T11:45:29Z</time></trkpt><trkpt lat="44.37611782063414" lon="7.828302089877408"><ele>447.33333333333337</ele><time>2026-04-03T11:45:30Z</time></trkpt><trkpt lat="44.37624886397077" lon="7.828135513443745"><ele>446.66666666666663</ele><time>2026-04-03T11:45:31Z</time></trkpt><trkpt lat="44.376387862341694" lon="7.82800401228963"><ele>446.0</ele><time>2026-04-03T11:45:32Z</time></trkpt><trkpt lat="44.376519154459196" lon="7.8278749082830466"><ele>446.0</ele><time>2026-04-03T11:45:33Z</time></trkpt><trkpt lat="44.376642736383694" lon="7.82774619632775"><ele>446.0</ele><time>2026-04-03T11:45:34Z</time></trkpt><trkpt lat="44.37676707355364" lon="7.827616324090703"><ele>446.0</ele><time>2026-04-03T11:45:35Z</time></trkpt><trkpt lat="44.376893566997296" lon="7.827496724379433"><ele>446.0</ele><time>2026-04-03T11:45:36Z</time></trkpt><trkpt lat="44.377043637683215" lon="7.827412408715401"><ele>446.0</ele><time>2026-04-03T11:45:37Z</time></trkpt><trkpt lat="44.37716550182808" lon="7.827293501355711"><ele>446.0</ele><time>2026-04-03T11:45:38Z</time></trkpt><trkpt lat="44.377291217540595" lon="7.827152194872635"><ele>444.66666666666663</ele><time>2026-04-03T11:45:39Z</time></trkpt><trkpt lat="44.377414616521015" lon="7.826979145986212"><ele>443.33333333333337</ele><time>2026-04-03T11:45:40Z</time></trkpt><trkpt lat="44.377509408069095" lon="7.82674972086812"><ele>442.0</ele><time>2026-04-03T11:45:41Z</time></trkpt><trkpt lat="44.37759888894643" lon="7.826519465167319"><ele>442.0</ele><time>2026-04-03T11:45:42Z</time></trkpt><trkpt lat="44.377684524616114" lon="7.826282465203772"><ele>442.0</ele><time>2026-04-03T11:45:43Z</time></trkpt><trkpt lat="44.37776672682786" lon="7.826067462005448"><ele>442.0</ele><time>2026-04-03T11:45:44Z</time></trkpt><trkpt lat="44.37784420717065" lon="7.825851041948052"><ele>441.33333333333337</ele><time>2026-04-03T11:45:45Z</time></trkpt><trkpt lat="44.37792571396618" lon="7.825626744552854"><ele>440.66666666666663</ele><time>2026-04-03T11:45:46Z</time></trkpt><trkpt lat="44.37798837121538" lon="7.8254144576665"><ele>440.0</ele><time>2026-04-03T11:45:47Z</time></trkpt><trkpt lat="44.378048866247894" lon="7.825188349844243"><ele>442.3333333333333</ele><time>2026-04-03T11:45:48Z</time></trkpt><trkpt lat="44.37808775894281" lon="7.824934729597711"><ele>444.66666666666663</ele><time>2026-04-03T11:45:49Z</time></trkpt><trkpt lat="44.37812080427413" lon="7.8246847948201745"><ele>447.0</ele><time>2026-04-03T11:45:50Z</time></trkpt><trkpt lat="44.378120691852004" lon="7.8244468766755535"><ele>446.66666666666663</ele><time>2026-04-03T11:45:51Z</time></trkpt><trkpt lat="44.37813331892329" lon="7.8242232917019825"><ele>446.3333333333333</ele><time>2026-04-03T11:45:51.999Z</time></trkpt><trkpt lat="44.37814169958514" lon="7.824010568011885"><ele>446.0</ele><time>2026-04-03T11:45:53Z</time></trkpt><trkpt lat="44.3781622579913" lon="7.823800136525122"><ele>446.0</ele><time>2026-04-03T11:45:53.999Z</time></trkpt><trkpt lat="44.37819407685306" lon="7.823580105673211"><ele>446.0</ele><time>2026-04-03T11:45:54.999Z</time></trkpt><trkpt lat="44.378231856924195" lon="7.823352692717501"><ele>446.0</ele><time>2026-04-03T11:45:55.999Z</time></trkpt><trkpt lat="44.378282037118716" lon="7.823125615400721"><ele>444.66666666666663</ele><time>2026-04-03T11:45:56.999Z</time></trkpt><trkpt lat="44.378341902523594" lon="7.822918166033274"><ele>443.33333333333337</ele><time>2026-04-03T11:45:57.999Z</time></trkpt><trkpt lat="44.37843540058206" lon="7.822742558165992"><ele>442.0</ele><time>2026-04-03T11:45:58.999Z</time></trkpt><trkpt lat="44.37853757836029" lon="7.822555942602354"><ele>441.33333333333337</ele><time>2026-04-03T11:45:59.999Z</time></trkpt><trkpt lat="44.37863934902009" lon="7.822345244666875"><ele>440.66666666666663</ele><time>2026-04-03T11:46:00.999Z</time></trkpt><trkpt lat="44.378754549486985" lon="7.822167702848396"><ele>440.0</ele><time>2026-04-03T11:46:01.999Z</time></trkpt><trkpt lat="44.378861837128845" lon="7.821985507076195"><ele>440.0</ele><time>2026-04-03T11:46:02.999Z</time></trkpt><trkpt lat="44.3789591567874" lon="7.821817778629497"><ele>440.0</ele><time>2026-04-03T11:46:03.999Z</time></trkpt><trkpt lat="44.37906488038506" lon="7.821668917995607"><ele>440.0</ele><time>2026-04-03T11:46:04.999Z</time></trkpt><trkpt lat="44.37917792022236" lon="7.821545160529059"><ele>440.0</ele><time>2026-04-03T11:46:05.999Z</time></trkpt><trkpt lat="44.37929195682358" lon="7.821444407168491"><ele>439.3333333333333</ele><time>2026-04-03T11:46:06.999Z</time></trkpt><trkpt lat="44.37943219614862" lon="7.821360440795329"><ele>438.66666666666663</ele><time>2026-04-03T11:46:07.999Z</time></trkpt><trkpt lat="44.3795945314841" lon="7.8212862200531985"><ele>438.0</ele><time>2026-04-03T11:46:08.999Z</time></trkpt><trkpt lat="44.37976688203638" lon="7.821234790119531"><ele>438.0</ele><time>2026-04-03T11:46:09.998Z</time></trkpt><trkpt lat="44.37995081034785" lon="7.821231861775664"><ele>438.0</ele><time>2026-04-03T11:46:10.998Z</time></trkpt><trkpt lat="44.38011511524678" lon="7.821193658364754"><ele>438.0</ele><time>2026-04-03T11:46:11.998Z</time></trkpt><trkpt lat="44.380270350419806" lon="7.821151746180857"><ele>438.0</ele><time>2026-04-03T11:46:12.998Z</time></trkpt><trkpt lat="44.380433910133085" lon="7.821094146010027"><ele>438.0</ele><time>2026-04-03T11:46:13.998Z</time></trkpt><trkpt lat="44.38059506027603" lon="7.820974706522631"><ele>438.0</ele><time>2026-04-03T11:46:14.998Z</time></trkpt><trkpt lat="44.38074265056333" lon="7.820849613887113"><ele>434.25</ele><time>2026-04-03T11:46:15.998Z</time></trkpt><trkpt lat="44.38087740471277" lon="7.820728571170662"><ele>430.5</ele><time>2026-04-03T11:46:16.998Z</time></trkpt><trkpt lat="44.38099574111868" lon="7.820635397081448"><ele>426.75</ele><time>2026-04-03T11:46:17.998Z</time></trkpt><trkpt lat="44.38111149683083" lon="7.820558022268163"><ele>423.0</ele><time>2026-04-03T11:46:18.997Z</time></trkpt><trkpt lat="44.381234804501865" lon="7.8205135380156"><ele>424.25</ele><time>2026-04-03T11:46:19.997Z</time></trkpt><trkpt lat="44.38137567862124" lon="7.820482128095529"><ele>425.5</ele><time>2026-04-03T11:46:20.997Z</time></trkpt><trkpt lat="44.3815076791217" lon="7.820482129382831"><ele>426.75</ele><time>2026-04-03T11:46:21.997Z</time></trkpt><trkpt lat="44.38162715689507" lon="7.820526125965908"><ele>428.0</ele><time>2026-04-03T11:46:22.997Z</time></trkpt><trkpt lat="44.381766338213495" lon="7.820559716945284"><ele>428.0</ele><time>2026-04-03T11:46:23.997Z</time></trkpt><trkpt lat="44.381908799729416" lon="7.820613243132719"><ele>428.0</ele><time>2026-04-03T11:46:24.997Z</time></trkpt><trkpt lat="44.38203849590313" lon="7.820639310811537"><ele>428.0</ele><time>2026-04-03T11:46:25.997Z</time></trkpt><trkpt lat="44.382164569565035" lon="7.820681345744434"><ele>428.0</ele><time>2026-04-03T11:46:26.997Z</time></trkpt><trkpt lat="44.382289480947406" lon="7.820722117759103"><ele>427.79999999999995</ele><time>2026-04-03T11:46:27.997Z</time></trkpt><trkpt lat="44.38237978861637" lon="7.820804738842713"><ele>427.59999999999997</ele><time>2026-04-03T11:46:28.997Z</time></trkpt><trkpt lat="44.382479344406235" lon="7.820851313845899"><ele>427.40000000000003</ele><time>2026-04-03T11:46:29.997Z</time></trkpt><trkpt lat="44.3825756965272" lon="7.82090803586569"><ele>427.20000000000005</ele><time>2026-04-03T11:46:30.997Z</time></trkpt><trkpt lat="44.38263991229478" lon="7.820991989475116"><ele>427.0</ele><time>2026-04-03T11:46:31.997Z</time></trkpt><trkpt lat="44.38270235699336" lon="7.821116259416249"><ele>427.0</ele><time>2026-04-03T11:46:32.997Z</time></trkpt><trkpt lat="44.382735221929984" lon="7.821279507190823"><ele>427.0</ele><time>2026-04-03T11:46:33.997Z</time></trkpt><trkpt lat="44.382775208638854" lon="7.82144955537337"><ele>427.0</ele><time>2026-04-03T11:46:34.996Z</time></trkpt><trkpt lat="44.38279812027012" lon="7.821611177866511"><ele>427.0</ele><time>2026-04-03T11:46:35.996Z</time></trkpt><trkpt lat="44.38283739168046" lon="7.821756308489799"><ele>425.0</ele><time>2026-04-03T11:46:36.996Z</time></trkpt><trkpt lat="44.382871083391244" lon="7.821908735143209"><ele>423.00000000000006</ele><time>2026-04-03T11:46:37.996Z</time></trkpt><trkpt lat="44.38289840454037" lon="7.8220447396784785"><ele>421.0</ele><time>2026-04-03T11:46:38.996Z</time></trkpt><trkpt lat="44.38294281066861" lon="7.822170340619766"><ele>419.0</ele><time>2026-04-03T11:46:39.996Z</time></trkpt><trkpt lat="44.38301319666407" lon="7.822287513876736"><ele>417.0</ele><time>2026-04-03T11:46:40.996Z</time></trkpt><trkpt lat="44.383108648024994" lon="7.822382439201099"><ele>417.0</ele><time>2026-04-03T11:46:41.996Z</time></trkpt><trkpt lat="44.38322389273662" lon="7.822460761452003"><ele>417.0</ele><time>2026-04-03T11:46:42.996Z</time></trkpt><trkpt lat="44.38335766208352" lon="7.822515034076969"><ele>417.0</ele><time>2026-04-03T11:46:43.996Z</time></trkpt><trkpt lat="44.38350042110279" lon="7.822518888211309"><ele>417.0</ele><time>2026-04-03T11:46:44.996Z</time></trkpt><trkpt lat="44.383635532689055" lon="7.822548591706928"><ele>417.0</ele><time>2026-04-03T11:46:45.996Z</time></trkpt><trkpt lat="44.38374663337294" lon="7.822530863810009"><ele>417.0</ele><time>2026-04-03T11:46:46.996Z</time></trkpt><trkpt lat="44.383857001332274" lon="7.822491768074819"><ele>417.0</ele><time>2026-04-03T11:46:47.996Z</time></trkpt><trkpt lat="44.383963599506124" lon="7.822445436859827"><ele>417.0</ele><time>2026-04-03T11:46:48.996Z</time></trkpt><trkpt lat="44.384071148303114" lon="7.822410406217284"><ele>417.0</ele><time>2026-04-03T11:46:49.996Z</time></trkpt><trkpt lat="44.38416877714101" lon="7.8223727173990945"><ele>417.25</ele><time>2026-04-03T11:46:50.996Z</time></trkpt><trkpt lat="44.38429063497315" lon="7.822403134792763"><ele>417.5</ele><time>2026-04-03T11:46:51.996Z</time></trkpt><trkpt lat="44.38440640932005" lon="7.82238117270287"><ele>417.75</ele><time>2026-04-03T11:46:52.996Z</time></trkpt><trkpt lat="44.3845183102478" lon="7.822353679955816"><ele>418.0</ele><time>2026-04-03T11:46:53.996Z</time></trkpt><trkpt lat="44.384615020655566" lon="7.822319058484556"><ele>418.59999999999997</ele><time>2026-04-03T11:46:54.996Z</time></trkpt><trkpt lat="44.384714577904305" lon="7.822271899213795"><ele>419.2</ele><time>2026-04-03T11:46:55.996Z</time></trkpt><trkpt lat="44.38480894122121" lon="7.822220478417345"><ele>419.8</ele><time>2026-04-03T11:46:56.996Z</time></trkpt><trkpt lat="44.38490221578689" lon="7.822166200575094"><ele>420.4</ele><time>2026-04-03T11:46:57.996Z</time></trkpt><trkpt lat="44.38499606267567" lon="7.822114276722801"><ele>421.0</ele><time>2026-04-03T11:46:58.996Z</time></trkpt><trkpt lat="44.38509208909305" lon="7.822075831561397"><ele>421.0</ele><time>2026-04-03T11:46:59.996Z</time></trkpt><trkpt lat="44.38518683951513" lon="7.822009443304748"><ele>421.0</ele><time>2026-04-03T11:47:00.996Z</time></trkpt><trkpt lat="44.38528274488094" lon="7.821964038024122"><ele>421.0</ele><time>2026-04-03T11:47:01.996Z</time></trkpt><trkpt lat="44.38538357291002" lon="7.821909814952002"><ele>421.0</ele><time>2026-04-03T11:47:02.996Z</time></trkpt><trkpt lat="44.38548058598216" lon="7.8218665485395436"><ele>421.0</ele><time>2026-04-03T11:47:03.996Z</time></trkpt><trkpt lat="44.38557770696469" lon="7.821816656079151"><ele>418.0</ele><time>2026-04-03T11:47:04.996Z</time></trkpt><trkpt lat="44.3856669405965" lon="7.8217551579885205"><ele>415.0</ele><time>2026-04-03T11:47:05.996Z</time></trkpt><trkpt lat="44.385747691100896" lon="7.821705598742479"><ele>412.0</ele><time>2026-04-03T11:47:06.996Z</time></trkpt><trkpt lat="44.385806217909206" lon="7.821613794082765"><ele>409.0</ele><time>2026-04-03T11:47:07.996Z</time></trkpt><trkpt lat="44.38584609109634" lon="7.821492922718434"><ele>406.0</ele><time>2026-04-03T11:47:08.996Z</time></trkpt><trkpt lat="44.385887818181445" lon="7.821368458880933"><ele>406.0</ele><time>2026-04-03T11:47:09.997Z</time></trkpt><trkpt lat="44.3859371373921" lon="7.821231439328437"><ele>406.0</ele><time>2026-04-03T11:47:10.998Z</time></trkpt><trkpt lat="44.385966018328105" lon="7.821078490140705"><ele>406.0</ele><time>2026-04-03T11:47:11.998Z</time></trkpt><trkpt lat="44.38599815416229" lon="7.820942977733676"><ele>406.0</ele><time>2026-04-03T11:47:12.998Z</time></trkpt><trkpt lat="44.386036427431364" lon="7.820807939344641"><ele>406.0</ele><time>2026-04-03T11:47:13.998Z</time></trkpt><trkpt lat="44.38606309332543" lon="7.820708198632472"><ele>405.83333333333337</ele><time>2026-04-03T11:47:14.998Z</time></trkpt><trkpt lat="44.38609065732702" lon="7.820619630464607"><ele>405.6666666666667</ele><time>2026-04-03T11:47:15.998Z</time></trkpt><trkpt lat="44.38615870945678" lon="7.820511779196803"><ele>405.5</ele><time>2026-04-03T11:47:17.999Z</time></trkpt><trkpt lat="44.38621350775588" lon="7.820392546767989"><ele>405.33333333333337</ele><time>2026-04-03T11:47:18.999Z</time></trkpt><trkpt lat="44.3862794286733" lon="7.820312879440483"><ele>405.1666666666667</ele><time>2026-04-03T11:47:19.999Z</time></trkpt><trkpt lat="44.38634439333007" lon="7.82026250436176"><ele>405.0</ele><time>2026-04-03T11:47:21.999Z</time></trkpt><trkpt lat="44.386390225865995" lon="7.820195656341249"><ele>405.0</ele><time>2026-04-03T11:47:25.999Z</time></trkpt><trkpt lat="44.3864692101166" lon="7.820173629295341"><ele>405.0</ele><time>2026-04-03T11:47:27.999Z</time></trkpt><trkpt lat="44.38654226273191" lon="7.820150906182622"><ele>405.0</ele><time>2026-04-03T11:47:28.999Z</time></trkpt><trkpt lat="44.38663537170729" lon="7.820121944547288"><ele>405.0</ele><time>2026-04-03T11:47:29.999Z</time></trkpt><trkpt lat="44.38673661072437" lon="7.820091963022175"><ele>405.0</ele><time>2026-04-03T11:47:30.999Z</time></trkpt><trkpt lat="44.386852172335914" lon="7.820062228450872"><ele>403.8</ele><time>2026-04-03T11:47:31.999Z</time></trkpt><trkpt lat="44.386946663678884" lon="7.820041083726446"><ele>402.6</ele><time>2026-04-03T11:47:32.999Z</time></trkpt><trkpt lat="44.38704436794464" lon="7.820030323159487"><ele>401.4</ele><time>2026-04-03T11:47:33.999Z</time></trkpt><trkpt lat="44.387140710096304" lon="7.820037199450194"><ele>400.2</ele><time>2026-04-03T11:47:34.999Z</time></trkpt><trkpt lat="44.387223452608765" lon="7.820047501522007"><ele>399.0</ele><time>2026-04-03T11:47:35.999Z</time></trkpt><trkpt lat="44.38732714259659" lon="7.820070340187848"><ele>399.0</ele><time>2026-04-03T11:47:36.999Z</time></trkpt><trkpt lat="44.38743947092719" lon="7.820098791031754"><ele>399.0</ele><time>2026-04-03T11:47:37.999Z</time></trkpt><trkpt lat="44.38753406265311" lon="7.820145017600692"><ele>399.0</ele><time>2026-04-03T11:47:38.999Z</time></trkpt><trkpt lat="44.38762923798849" lon="7.820202944307339"><ele>399.0</ele><time>2026-04-03T11:47:39.999Z</time></trkpt><trkpt lat="44.387693372868625" lon="7.8202397565349"><ele>399.0</ele><time>2026-04-03T11:47:40.999Z</time></trkpt><trkpt lat="44.38778175803046" lon="7.820302004878341"><ele>399.6</ele><time>2026-04-03T11:47:42Z</time></trkpt><trkpt lat="44.3878687368359" lon="7.8203831454905925"><ele>400.2</ele><time>2026-04-03T11:47:43Z</time></trkpt><trkpt lat="44.387953716703876" lon="7.820444881186996"><ele>400.8</ele><time>2026-04-03T11:47:44Z</time></trkpt><trkpt lat="44.38804947239576" lon="7.8204763710845855"><ele>401.40000000000003</ele><time>2026-04-03T11:47:45Z</time></trkpt><trkpt lat="44.3881382225746" lon="7.820500336301401"><ele>402.0</ele><time>2026-04-03T11:47:46Z</time></trkpt><trkpt lat="44.38828661261103" lon="7.820544536137682"><ele>402.0</ele><time>2026-04-03T11:47:47Z</time></trkpt><trkpt lat="44.38837897354002" lon="7.820576430048952"><ele>402.0</ele><time>2026-04-03T11:47:48Z</time></trkpt><trkpt lat="44.38845662480028" lon="7.820590497203703"><ele>402.0</ele><time>2026-04-03T11:47:49Z</time></trkpt><trkpt lat="44.388613253764404" lon="7.820580720243019"><ele>402.0</ele><time>2026-04-03T11:47:50.999Z</time></trkpt><trkpt lat="44.3886946443178" lon="7.820560282484961"><ele>402.0</ele><time>2026-04-03T11:47:51.999Z</time></trkpt><trkpt lat="44.38879384587083" lon="7.820531266790305"><ele>401.5</ele><time>2026-04-03T11:47:52.999Z</time></trkpt><trkpt lat="44.38888296989605" lon="7.820474437990063"><ele>401.0</ele><time>2026-04-03T11:47:53.999Z</time></trkpt><trkpt lat="44.388979461024185" lon="7.820417974871577"><ele>400.5</ele><time>2026-04-03T11:47:54.999Z</time></trkpt><trkpt lat="44.38906292846498" lon="7.820374131452276"><ele>400.0</ele><time>2026-04-03T11:47:55.999Z</time></trkpt><trkpt lat="44.389141520701244" lon="7.820354290222735"><ele>399.5</ele><time>2026-04-03T11:47:56.999Z</time></trkpt><trkpt lat="44.38921678333748" lon="7.820332479608428"><ele>399.0</ele><time>2026-04-03T11:47:57.999Z</time></trkpt><trkpt lat="44.38930545584338" lon="7.820326068583456"><ele>399.0</ele><time>2026-04-03T11:47:58.999Z</time></trkpt><trkpt lat="44.38941425977145" lon="7.820311948205048"><ele>399.0</ele><time>2026-04-03T11:47:59.999Z</time></trkpt><trkpt lat="44.38948535778392" lon="7.820332029048699"><ele>399.0</ele><time>2026-04-03T11:48:00.999Z</time></trkpt><trkpt lat="44.38960763078386" lon="7.820371179656027"><ele>399.0</ele><time>2026-04-03T11:48:02.999Z</time></trkpt><trkpt lat="44.38967023048775" lon="7.820391367444531"><ele>399.0</ele><time>2026-04-03T11:48:03.999Z</time></trkpt><trkpt lat="44.38976489451102" lon="7.82047339860601"><ele>398.1666666666667</ele><time>2026-04-03T11:48:05.999Z</time></trkpt><trkpt lat="44.3898389849087" lon="7.820544927950251"><ele>397.33333333333337</ele><time>2026-04-03T11:48:07.999Z</time></trkpt><trkpt lat="44.38991536476189" lon="7.820628887567791"><ele>396.5</ele><time>2026-04-03T11:48:09.999Z</time></trkpt><trkpt lat="44.389975652651465" lon="7.82067176387168"><ele>395.6666666666667</ele><time>2026-04-03T11:48:10.999Z</time></trkpt><trkpt lat="44.390038643559755" lon="7.820694078576509"><ele>394.83333333333337</ele><time>2026-04-03T11:48:11.999Z</time></trkpt><trkpt lat="44.390157025239695" lon="7.820735005455678"><ele>394.0</ele><time>2026-04-03T11:48:13.999Z</time></trkpt><trkpt lat="44.39024037911009" lon="7.820744962845459"><ele>394.0</ele><time>2026-04-03T11:48:14.999Z</time></trkpt><trkpt lat="44.390340885898794" lon="7.820732604909997"><ele>394.0</ele><time>2026-04-03T11:48:15.999Z</time></trkpt><trkpt lat="44.390434759229294" lon="7.820719830647149"><ele>394.0</ele><time>2026-04-03T11:48:16.999Z</time></trkpt><trkpt lat="44.39054608424356" lon="7.820703206033098"><ele>394.0</ele><time>2026-04-03T11:48:17.999Z</time></trkpt><trkpt lat="44.390674878033224" lon="7.820689395367587"><ele>394.0</ele><time>2026-04-03T11:48:18.999Z</time></trkpt><trkpt lat="44.39080152594919" lon="7.820690229031581"><ele>393.6</ele><time>2026-04-03T11:48:19.999Z</time></trkpt><trkpt lat="44.39090610858861" lon="7.8206780783353045"><ele>393.2</ele><time>2026-04-03T11:48:20.999Z</time></trkpt><trkpt lat="44.3910143257379" lon="7.820665796038217"><ele>392.8</ele><time>2026-04-03T11:48:21.999Z</time></trkpt><trkpt lat="44.39111854298835" lon="7.820645211606316"><ele>392.40000000000003</ele><time>2026-04-03T11:48:22.999Z</time></trkpt><trkpt lat="44.39122115218626" lon="7.820631368728043"><ele>392.0</ele><time>2026-04-03T11:48:23.999Z</time></trkpt><trkpt lat="44.3913189624296" lon="7.820618337691347"><ele>391.40000000000003</ele><time>2026-04-03T11:48:24.999Z</time></trkpt><trkpt lat="44.39140815913557" lon="7.8206153553589095"><ele>390.8</ele><time>2026-04-03T11:48:25.999Z</time></trkpt><trkpt lat="44.39148672311237" lon="7.820619194670368"><ele>390.2</ele><time>2026-04-03T11:48:26.999Z</time></trkpt><trkpt lat="44.39158437899272" lon="7.820609791554189"><ele>389.6</ele><time>2026-04-03T11:48:27.999Z</time></trkpt><trkpt lat="44.391696932091406" lon="7.820594632453413"><ele>389.0</ele><time>2026-04-03T11:48:28.999Z</time></trkpt><trkpt lat="44.39179503301604" lon="7.820580632681434"><ele>389.0</ele><time>2026-04-03T11:48:29.999Z</time></trkpt><trkpt lat="44.391861814325964" lon="7.8205750278854715"><ele>389.0</ele><time>2026-04-03T11:48:30.999Z</time></trkpt><trkpt lat="44.39199666320623" lon="7.820576613010128"><ele>389.0</ele><time>2026-04-03T11:48:32.999Z</time></trkpt><trkpt lat="44.39211072808883" lon="7.8205711776319955"><ele>389.0</ele><time>2026-04-03T11:48:34.999Z</time></trkpt><trkpt lat="44.392223186740885" lon="7.82055837462495"><ele>389.0</ele><time>2026-04-03T11:48:36.999Z</time></trkpt><trkpt lat="44.39232504455452" lon="7.82056276323239"><ele>388.79999999999995</ele><time>2026-04-03T11:48:38.999Z</time></trkpt><trkpt lat="44.39240686453678" lon="7.820578580968214"><ele>388.59999999999997</ele><time>2026-04-03T11:48:39.999Z</time></trkpt><trkpt lat="44.39248609612347" lon="7.820562047217832"><ele>388.4</ele><time>2026-04-03T11:48:40.999Z</time></trkpt><trkpt lat="44.39255113214492" lon="7.820567925790654"><ele>388.2</ele><time>2026-04-03T11:48:41.999Z</time></trkpt><trkpt lat="44.39267116714221" lon="7.820552612037425"><ele>388.0</ele><time>2026-04-03T11:48:43.999Z</time></trkpt><trkpt lat="44.39278383626964" lon="7.820578666824726"><ele>388.00000000000006</ele><time>2026-04-03T11:48:45.999Z</time></trkpt><trkpt lat="44.39284334977208" lon="7.820641982090838"><ele>388.0</ele><time>2026-04-03T11:48:46.999Z</time></trkpt><trkpt lat="44.39291926227194" lon="7.820801842045538"><ele>388.0</ele><time>2026-04-03T11:48:48.999Z</time></trkpt><trkpt lat="44.392956759263804" lon="7.820880776607326"><ele>388.0</ele><time>2026-04-03T11:48:49.999Z</time></trkpt><trkpt lat="44.39299886999656" lon="7.82095375817182"><ele>388.00000000000006</ele><time>2026-04-03T11:48:50.999Z</time></trkpt><trkpt lat="44.39301885687982" lon="7.8210585070627285"><ele>388.0</ele><time>2026-04-03T11:48:51.999Z</time></trkpt><trkpt lat="44.39302981975478" lon="7.821169340648834"><ele>387.50000000000006</ele><time>2026-04-03T11:48:52.999Z</time></trkpt><trkpt lat="44.39303277597729" lon="7.821309227299577"><ele>387.0</ele><time>2026-04-03T11:48:53.999Z</time></trkpt><trkpt lat="44.39303492045626" lon="7.821422455111008"><ele>386.5</ele><time>2026-04-03T11:48:54.999Z</time></trkpt><trkpt lat="44.39302070589421" lon="7.821517787378744"><ele>386.0</ele><time>2026-04-03T11:48:55.999Z</time></trkpt><trkpt lat="44.3930300823954" lon="7.821643405505724"><ele>385.50000000000006</ele><time>2026-04-03T11:48:56.999Z</time></trkpt><trkpt lat="44.3930290048284" lon="7.821761541580156"><ele>385.0</ele><time>2026-04-03T11:48:57.999Z</time></trkpt><trkpt lat="44.39302882173384" lon="7.821860506264765"><ele>384.50000000000006</ele><time>2026-04-03T11:48:58.999Z</time></trkpt><trkpt lat="44.393071017019196" lon="7.821997915368784"><ele>384.0</ele><time>2026-04-03T11:49:00.999Z</time></trkpt><trkpt lat="44.393134731158945" lon="7.822092305807713"><ele>383.5</ele><time>2026-04-03T11:49:01.998Z</time></trkpt><trkpt lat="44.393213717470836" lon="7.822160884489431"><ele>383.0</ele><time>2026-04-03T11:49:02.998Z</time></trkpt><trkpt lat="44.39326791110792" lon="7.822227863782504"><ele>382.5</ele><time>2026-04-03T11:49:03.998Z</time></trkpt><trkpt lat="44.393313344444444" lon="7.822302202072055"><ele>382.0</ele><time>2026-04-03T11:49:04.998Z</time></trkpt><trkpt lat="44.39338058274942" lon="7.8223457076838026"><ele>382.0</ele><time>2026-04-03T11:49:05.998Z</time></trkpt><trkpt lat="44.393469161417364" lon="7.822406347731042"><ele>382.0</ele><time>2026-04-03T11:49:06.998Z</time></trkpt><trkpt lat="44.39356699191793" lon="7.822508609805868"><ele>382.0</ele><time>2026-04-03T11:49:07.998Z</time></trkpt><trkpt lat="44.393664651629265" lon="7.822599208432872"><ele>382.0</ele><time>2026-04-03T11:49:08.998Z</time></trkpt><trkpt lat="44.393755520091545" lon="7.822712413928993"><ele>381.0</ele><time>2026-04-03T11:49:09.998Z</time></trkpt><trkpt lat="44.39387459760977" lon="7.8228321901793905"><ele>380.0</ele><time>2026-04-03T11:49:10.998Z</time></trkpt><trkpt lat="44.39399837697242" lon="7.822955753746454"><ele>379.0</ele><time>2026-04-03T11:49:11.998Z</time></trkpt><trkpt lat="44.394137056116556" lon="7.823085622848298"><ele>379.0</ele><time>2026-04-03T11:49:12.998Z</time></trkpt><trkpt lat="44.394265244505675" lon="7.823202755005653"><ele>379.0</ele><time>2026-04-03T11:49:13.998Z</time></trkpt><trkpt lat="44.394395833372194" lon="7.823311699017961"><ele>379.0</ele><time>2026-04-03T11:49:14.998Z</time></trkpt><trkpt lat="44.39452127368593" lon="7.823411446135899"><ele>379.0</ele><time>2026-04-03T11:49:16Z</time></trkpt><trkpt lat="44.39465523983991" lon="7.823503171368264"><ele>379.4</ele><time>2026-04-03T11:49:17Z</time></trkpt><trkpt lat="44.39476845759499" lon="7.8236218824847805"><ele>379.79999999999995</ele><time>2026-04-03T11:49:18Z</time></trkpt><trkpt lat="44.394869075750165" lon="7.823697649810171"><ele>380.20000000000005</ele><time>2026-04-03T11:49:19Z</time></trkpt><trkpt lat="44.39493099249123" lon="7.823799233474418"><ele>380.6</ele><time>2026-04-03T11:49:20Z</time></trkpt><trkpt lat="44.3949825653105" lon="7.823873670549009"><ele>381.0</ele><time>2026-04-03T11:49:21Z</time></trkpt><trkpt lat="44.395058425964145" lon="7.824038166459873"><ele>381.0</ele><time>2026-04-03T11:49:23Z</time></trkpt><trkpt lat="44.395106462181886" lon="7.824099505362846"><ele>381.0</ele><time>2026-04-03T11:49:24Z</time></trkpt><trkpt lat="44.395167567394914" lon="7.82412292043352"><ele>381.0</ele><time>2026-04-03T11:49:25Z</time></trkpt><trkpt lat="44.395251776301" lon="7.824123940615369"><ele>381.0</ele><time>2026-04-03T11:49:26Z</time></trkpt><trkpt lat="44.39534074258246" lon="7.824128057553587"><ele>381.0</ele><time>2026-04-03T11:49:27Z</time></trkpt><trkpt lat="44.39542683733568" lon="7.824199229690528"><ele>381.0</ele><time>2026-04-03T11:49:28Z</time></trkpt><trkpt lat="44.3955304476261" lon="7.824274659138448"><ele>380.75</ele><time>2026-04-03T11:49:29Z</time></trkpt><trkpt lat="44.395640313168805" lon="7.824347120710349"><ele>380.5</ele><time>2026-04-03T11:49:30Z</time></trkpt><trkpt lat="44.39576059575422" lon="7.824413377085376"><ele>380.25</ele><time>2026-04-03T11:49:31Z</time></trkpt><trkpt lat="44.39587889189923" lon="7.8244689667199925"><ele>380.0</ele><time>2026-04-03T11:49:32Z</time></trkpt><trkpt lat="44.396016412347706" lon="7.824536679861389"><ele>380.0</ele><time>2026-04-03T11:49:33Z</time></trkpt><trkpt lat="44.39616148023288" lon="7.824581332739256"><ele>380.0</ele><time>2026-04-03T11:49:34Z</time></trkpt><trkpt lat="44.39630993428515" lon="7.824614738904619"><ele>380.0</ele><time>2026-04-03T11:49:35Z</time></trkpt><trkpt lat="44.39645365716976" lon="7.824630208715054"><ele>380.0</ele><time>2026-04-03T11:49:36Z</time></trkpt><trkpt lat="44.39660174614427" lon="7.824647457121453"><ele>382.75</ele><time>2026-04-03T11:49:37Z</time></trkpt><trkpt lat="44.396750469632124" lon="7.8246584342346335"><ele>385.5</ele><time>2026-04-03T11:49:38Z</time></trkpt><trkpt lat="44.3969061975106" lon="7.824655713658397"><ele>388.25</ele><time>2026-04-03T11:49:39Z</time></trkpt><trkpt lat="44.39703337779632" lon="7.82462945286434"><ele>391.0</ele><time>2026-04-03T11:49:40Z</time></trkpt><trkpt lat="44.397150301378986" lon="7.824605356945904"><ele>392.5</ele><time>2026-04-03T11:49:41Z</time></trkpt><trkpt lat="44.39727313247195" lon="7.8245802317646165"><ele>394.0</ele><time>2026-04-03T11:49:42Z</time></trkpt><trkpt lat="44.39741843178199" lon="7.824591925901128"><ele>395.5</ele><time>2026-04-03T11:49:43Z</time></trkpt><trkpt lat="44.39754164429736" lon="7.824630858116697"><ele>397.0</ele><time>2026-04-03T11:49:44Z</time></trkpt><trkpt lat="44.39765773451959" lon="7.824678689096032"><ele>397.0</ele><time>2026-04-03T11:49:45Z</time></trkpt><trkpt lat="44.3977576190892" lon="7.824750483846783"><ele>397.0</ele><time>2026-04-03T11:49:46Z</time></trkpt><trkpt lat="44.397837710193556" lon="7.824814549349954"><ele>397.0</ele><time>2026-04-03T11:49:47Z</time></trkpt><trkpt lat="44.39791568465129" lon="7.824871000572925"><ele>397.0</ele><time>2026-04-03T11:49:48Z</time></trkpt><trkpt lat="44.397996598172384" lon="7.824924481602629"><ele>397.0</ele><time>2026-04-03T11:49:49Z</time></trkpt><trkpt lat="44.398061530954436" lon="7.824960346323844"><ele>398.5</ele><time>2026-04-03T11:49:50Z</time></trkpt><trkpt lat="44.39814473885389" lon="7.825005511935384"><ele>400.0</ele><time>2026-04-03T11:49:52Z</time></trkpt><trkpt lat="44.39828679214877" lon="7.8250521444427905"><ele>401.5</ele><time>2026-04-03T11:49:54Z</time></trkpt><trkpt lat="44.3983795967918" lon="7.82510768809383"><ele>403.0</ele><time>2026-04-03T11:49:55Z</time></trkpt><trkpt lat="44.398485627797044" lon="7.825165927533081"><ele>402.0</ele><time>2026-04-03T11:49:56Z</time></trkpt><trkpt lat="44.39858876734496" lon="7.82527634325236"><ele>401.0</ele><time>2026-04-03T11:49:57Z</time></trkpt><trkpt lat="44.39868697556438" lon="7.8253626450055105"><ele>400.0</ele><time>2026-04-03T11:49:58Z</time></trkpt><trkpt lat="44.39877675607407" lon="7.8254333775601435"><ele>399.0</ele><time>2026-04-03T11:49:59Z</time></trkpt><trkpt lat="44.39886863470259" lon="7.825509084254839"><ele>399.0</ele><time>2026-04-03T11:50:00Z</time></trkpt><trkpt lat="44.39896633002284" lon="7.825592018597528"><ele>399.0</ele><time>2026-04-03T11:50:01Z</time></trkpt><trkpt lat="44.39906065250946" lon="7.825688408601228"><ele>399.0</ele><time>2026-04-03T11:50:02Z</time></trkpt><trkpt lat="44.39915631884706" lon="7.825788451439861"><ele>399.0</ele><time>2026-04-03T11:50:02.999Z</time></trkpt><trkpt lat="44.3992673640384" lon="7.825884395880185"><ele>398.0</ele><time>2026-04-03T11:50:03.999Z</time></trkpt><trkpt lat="44.39936462123054" lon="7.825979510120521"><ele>397.0</ele><time>2026-04-03T11:50:04.999Z</time></trkpt><trkpt lat="44.39947074833286" lon="7.8260597767617845"><ele>396.0</ele><time>2026-04-03T11:50:05.999Z</time></trkpt><trkpt lat="44.39957331070476" lon="7.826160392594682"><ele>395.0</ele><time>2026-04-03T11:50:06.999Z</time></trkpt><trkpt lat="44.39967610687571" lon="7.826254328868287"><ele>395.0</ele><time>2026-04-03T11:50:07.999Z</time></trkpt><trkpt lat="44.39977406327874" lon="7.82633927945121"><ele>395.0</ele><time>2026-04-03T11:50:08.999Z</time></trkpt><trkpt lat="44.39988437247201" lon="7.8264035986730525"><ele>395.0</ele><time>2026-04-03T11:50:09.999Z</time></trkpt><trkpt lat="44.400000182141824" lon="7.826461386467028"><ele>395.0</ele><time>2026-04-03T11:50:10.999Z</time></trkpt><trkpt lat="44.40010125883556" lon="7.826528472171427"><ele>395.0</ele><time>2026-04-03T11:50:11.999Z</time></trkpt><trkpt lat="44.40021482295188" lon="7.826582468472196"><ele>395.0</ele><time>2026-04-03T11:50:12.999Z</time></trkpt><trkpt lat="44.40031828294201" lon="7.826633626749722"><ele>395.0</ele><time>2026-04-03T11:50:13.999Z</time></trkpt><trkpt lat="44.40042663809094" lon="7.826689609253623"><ele>395.0</ele><time>2026-04-03T11:50:14.999Z</time></trkpt><trkpt lat="44.40054436360568" lon="7.826759376390512"><ele>393.75</ele><time>2026-04-03T11:50:15.999Z</time></trkpt><trkpt lat="44.40064606115617" lon="7.826840444148682"><ele>392.5</ele><time>2026-04-03T11:50:16.999Z</time></trkpt><trkpt lat="44.4007639434776" lon="7.8269367564755195"><ele>391.25</ele><time>2026-04-03T11:50:17.999Z</time></trkpt><trkpt lat="44.40086143816333" lon="7.82702456938229"><ele>390.0</ele><time>2026-04-03T11:50:18.999Z</time></trkpt><trkpt lat="44.40095707137722" lon="7.827120638989713"><ele>390.0</ele><time>2026-04-03T11:50:19.999Z</time></trkpt><trkpt lat="44.40104314255643" lon="7.8272284491808914"><ele>390.0</ele><time>2026-04-03T11:50:20.999Z</time></trkpt><trkpt lat="44.40113343244408" lon="7.827310933436849"><ele>390.0</ele><time>2026-04-03T11:50:21.999Z</time></trkpt><trkpt lat="44.40122528951239" lon="7.827403351567164"><ele>390.0</ele><time>2026-04-03T11:50:22.999Z</time></trkpt><trkpt lat="44.40131682494278" lon="7.827491425684307"><ele>390.0</ele><time>2026-04-03T11:50:23.999Z</time></trkpt><trkpt lat="44.401403918937795" lon="7.827576847679896"><ele>390.8</ele><time>2026-04-03T11:50:24.999Z</time></trkpt><trkpt lat="44.40150606788307" lon="7.827655636874211"><ele>391.6</ele><time>2026-04-03T11:50:25.999Z</time></trkpt><trkpt lat="44.40157520288601" lon="7.827737575705297"><ele>392.4</ele><time>2026-04-03T11:50:26.999Z</time></trkpt><trkpt lat="44.40166919391602" lon="7.8278235161372915"><ele>393.2</ele><time>2026-04-03T11:50:27.999Z</time></trkpt><trkpt lat="44.4017525148684" lon="7.827914811360551"><ele>394.0</ele><time>2026-04-03T11:50:28.999Z</time></trkpt><trkpt lat="44.401837699588384" lon="7.828001793198967"><ele>394.0</ele><time>2026-04-03T11:50:29.999Z</time></trkpt><trkpt lat="44.40191423506778" lon="7.828085311749078"><ele>394.0</ele><time>2026-04-03T11:50:30.999Z</time></trkpt><trkpt lat="44.40199669231268" lon="7.828175443733495"><ele>394.0</ele><time>2026-04-03T11:50:31.999Z</time></trkpt><trkpt lat="44.402079317999444" lon="7.828260433783159"><ele>394.0</ele><time>2026-04-03T11:50:32.999Z</time></trkpt><trkpt lat="44.40217031535348" lon="7.828348714391577"><ele>394.0</ele><time>2026-04-03T11:50:33.999Z</time></trkpt><trkpt lat="44.40226760054518" lon="7.828442462202562"><ele>394.4</ele><time>2026-04-03T11:50:34.999Z</time></trkpt><trkpt lat="44.40235973233519" lon="7.828537759075698"><ele>394.79999999999995</ele><time>2026-04-03T11:50:35.999Z</time></trkpt><trkpt lat="44.40244062241689" lon="7.828624170537321"><ele>395.20000000000005</ele><time>2026-04-03T11:50:36.999Z</time></trkpt><trkpt lat="44.402543713439485" lon="7.828706705091532"><ele>395.6</ele><time>2026-04-03T11:50:37.999Z</time></trkpt><trkpt lat="44.40263231965254" lon="7.828805923206248"><ele>396.0</ele><time>2026-04-03T11:50:38.999Z</time></trkpt><trkpt lat="44.402719568255186" lon="7.828895916851773"><ele>396.0</ele><time>2026-04-03T11:50:39.999Z</time></trkpt><trkpt lat="44.40279413931469" lon="7.828982825960738"><ele>396.0</ele><time>2026-04-03T11:50:40.999Z</time></trkpt><trkpt lat="44.402862031795166" lon="7.829056452846715"><ele>396.0</ele><time>2026-04-03T11:50:41.999Z</time></trkpt><trkpt lat="44.40293417906987" lon="7.829125820020435"><ele>396.0</ele><time>2026-04-03T11:50:42.999Z</time></trkpt><trkpt lat="44.40300526974044" lon="7.829198338669274"><ele>396.0</ele><time>2026-04-03T11:50:43.999Z</time></trkpt><trkpt lat="44.40307258862158" lon="7.829262053723272"><ele>396.0</ele><time>2026-04-03T11:50:44.999Z</time></trkpt><trkpt lat="44.40314516385261" lon="7.829321403047444"><ele>396.5</ele><time>2026-04-03T11:50:45.999Z</time></trkpt><trkpt lat="44.403230201921325" lon="7.829403686886759"><ele>397.0</ele><time>2026-04-03T11:50:46.999Z</time></trkpt><trkpt lat="44.40331716074344" lon="7.829504987869617"><ele>397.5</ele><time>2026-04-03T11:50:47.999Z</time></trkpt><trkpt lat="44.403407798831935" lon="7.829613086081929"><ele>398.0</ele><time>2026-04-03T11:50:48.999Z</time></trkpt><trkpt lat="44.40350913845705" lon="7.829687611712038"><ele>398.0</ele><time>2026-04-03T11:50:49.999Z</time></trkpt><trkpt lat="44.40359221893069" lon="7.829771763270697"><ele>398.0</ele><time>2026-04-03T11:50:50.999Z</time></trkpt><trkpt lat="44.40367505243427" lon="7.8298601829667795"><ele>398.0</ele><time>2026-04-03T11:50:51.999Z</time></trkpt><trkpt lat="44.403753010311625" lon="7.829953724825521"><ele>398.0</ele><time>2026-04-03T11:50:52.999Z</time></trkpt><trkpt lat="44.40383681787234" lon="7.830026649740476"><ele>398.0</ele><time>2026-04-03T11:50:53.999Z</time></trkpt><trkpt lat="44.40391460739332" lon="7.830114161507349"><ele>397.59999999999997</ele><time>2026-04-03T11:50:54.999Z</time></trkpt><trkpt lat="44.40399217582504" lon="7.830202259366192"><ele>397.2</ele><time>2026-04-03T11:50:55.999Z</time></trkpt><trkpt lat="44.40407456193412" lon="7.830287908098221"><ele>396.8</ele><time>2026-04-03T11:50:56.999Z</time></trkpt><trkpt lat="44.40416215632792" lon="7.830360824649021"><ele>396.4</ele><time>2026-04-03T11:50:57.999Z</time></trkpt><trkpt lat="44.40425386526699" lon="7.830440861635764"><ele>396.0</ele><time>2026-04-03T11:50:58.999Z</time></trkpt><trkpt lat="44.404335641244266" lon="7.83051597503411"><ele>396.0</ele><time>2026-04-03T11:50:59.999Z</time></trkpt><trkpt lat="44.40442394183657" lon="7.8306085422016105"><ele>396.0</ele><time>2026-04-03T11:51:00.999Z</time></trkpt><trkpt lat="44.404503836439254" lon="7.830698192435379"><ele>396.0</ele><time>2026-04-03T11:51:01.999Z</time></trkpt><trkpt lat="44.40458449911696" lon="7.830783111501168"><ele>396.0</ele><time>2026-04-03T11:51:02.998Z</time></trkpt><trkpt lat="44.4046697526199" lon="7.830862779449257"><ele>396.0</ele><time>2026-04-03T11:51:03.998Z</time></trkpt><trkpt lat="44.404756769787355" lon="7.830951151152603"><ele>396.0</ele><time>2026-04-03T11:51:04.998Z</time></trkpt><trkpt lat="44.4048407008008" lon="7.831037569718064"><ele>396.0</ele><time>2026-04-03T11:51:05.998Z</time></trkpt><trkpt lat="44.4049071637391" lon="7.831128856740175"><ele>396.0</ele><time>2026-04-03T11:51:06.998Z</time></trkpt><trkpt lat="44.40498703217489" lon="7.831214380084874"><ele>396.0</ele><time>2026-04-03T11:51:07.998Z</time></trkpt><trkpt lat="44.4050614379099" lon="7.831296832863456"><ele>396.0</ele><time>2026-04-03T11:51:08.998Z</time></trkpt><trkpt lat="44.40514542283005" lon="7.831377820220869"><ele>396.0</ele><time>2026-04-03T11:51:09.998Z</time></trkpt><trkpt lat="44.40520511621579" lon="7.831440569112202"><ele>396.0</ele><time>2026-04-03T11:51:10.998Z</time></trkpt><trkpt lat="44.40526957950082" lon="7.831501941267703"><ele>396.0</ele><time>2026-04-03T11:51:11.998Z</time></trkpt><trkpt lat="44.405329803405465" lon="7.831566673557374"><ele>396.0</ele><time>2026-04-03T11:51:12.998Z</time></trkpt><trkpt lat="44.40539492143719" lon="7.831647572473046"><ele>396.0</ele><time>2026-04-03T11:51:13.998Z</time></trkpt><trkpt lat="44.40544711400751" lon="7.831739798305103"><ele>396.0</ele><time>2026-04-03T11:51:14.998Z</time></trkpt><trkpt lat="44.40549551411378" lon="7.831842093450909"><ele>396.4</ele><time>2026-04-03T11:51:15.998Z</time></trkpt><trkpt lat="44.40555107089345" lon="7.831955203390222"><ele>396.8</ele><time>2026-04-03T11:51:16.998Z</time></trkpt><trkpt lat="44.40559714607281" lon="7.832095174601966"><ele>397.2</ele><time>2026-04-03T11:51:17.998Z</time></trkpt><trkpt lat="44.405646896703004" lon="7.832244505513392"><ele>397.59999999999997</ele><time>2026-04-03T11:51:18.998Z</time></trkpt><trkpt lat="44.40569246517944" lon="7.832395998976744"><ele>398.0</ele><time>2026-04-03T11:51:19.998Z</time></trkpt><trkpt lat="44.40576071361756" lon="7.832561362059926"><ele>396.0</ele><time>2026-04-03T11:51:20.998Z</time></trkpt><trkpt lat="44.405809967446615" lon="7.832748722411845"><ele>394.0</ele><time>2026-04-03T11:51:22Z</time></trkpt><trkpt lat="44.40587020089301" lon="7.832955128625467"><ele>392.0</ele><time>2026-04-03T11:51:23Z</time></trkpt><trkpt lat="44.40591367070022" lon="7.833171021746214"><ele>392.0</ele><time>2026-04-03T11:51:24Z</time></trkpt><trkpt lat="44.40595551541189" lon="7.833395645697587"><ele>392.0</ele><time>2026-04-03T11:51:25Z</time></trkpt><trkpt lat="44.40600346007935" lon="7.833605331905774"><ele>392.0</ele><time>2026-04-03T11:51:26Z</time></trkpt><trkpt lat="44.40605232693025" lon="7.8338075036433885"><ele>392.0</ele><time>2026-04-03T11:51:27Z</time></trkpt><trkpt lat="44.40610926373969" lon="7.833997999165961"><ele>392.0</ele><time>2026-04-03T11:51:28Z</time></trkpt><trkpt lat="44.406190127724514" lon="7.834182166436438"><ele>392.0</ele><time>2026-04-03T11:51:29Z</time></trkpt><trkpt lat="44.406279593994746" lon="7.834361284011773"><ele>394.0</ele><time>2026-04-03T11:51:30Z</time></trkpt><trkpt lat="44.40638636780765" lon="7.834534939554656"><ele>396.0</ele><time>2026-04-03T11:51:31Z</time></trkpt><trkpt lat="44.406507737821045" lon="7.83469671065505"><ele>398.0</ele><time>2026-04-03T11:51:32Z</time></trkpt><trkpt lat="44.406645107265675" lon="7.834869121942478"><ele>398.0</ele><time>2026-04-03T11:51:33Z</time></trkpt><trkpt lat="44.40676854810124" lon="7.835022170812375"><ele>398.0</ele><time>2026-04-03T11:51:34Z</time></trkpt><trkpt lat="44.40688261139706" lon="7.835166175995881"><ele>398.0</ele><time>2026-04-03T11:51:35Z</time></trkpt><trkpt lat="44.40699636278444" lon="7.835295675111967"><ele>397.66666666666663</ele><time>2026-04-03T11:51:36Z</time></trkpt><trkpt lat="44.40710457816989" lon="7.835469939194925"><ele>397.33333333333337</ele><time>2026-04-03T11:51:37Z</time></trkpt><trkpt lat="44.40722423017194" lon="7.835615934921413"><ele>397.0</ele><time>2026-04-03T11:51:38Z</time></trkpt><trkpt lat="44.40734023599041" lon="7.835756041183299"><ele>397.0</ele><time>2026-04-03T11:51:39Z</time></trkpt><trkpt lat="44.40745565915128" lon="7.835884457731488"><ele>397.0</ele><time>2026-04-03T11:51:40Z</time></trkpt><trkpt lat="44.40757547508586" lon="7.836021855227306"><ele>397.0</ele><time>2026-04-03T11:51:41Z</time></trkpt><trkpt lat="44.40769740635448" lon="7.836170326517287"><ele>397.0</ele><time>2026-04-03T11:51:42Z</time></trkpt><trkpt lat="44.407815002907356" lon="7.836313360328914"><ele>397.0</ele><time>2026-04-03T11:51:43Z</time></trkpt><trkpt lat="44.40793163143338" lon="7.8364639995691325"><ele>397.0</ele><time>2026-04-03T11:51:44Z</time></trkpt><trkpt lat="44.40804863733481" lon="7.836602408556125"><ele>397.0</ele><time>2026-04-03T11:51:45Z</time></trkpt><trkpt lat="44.40816320852823" lon="7.836745160786419"><ele>397.0</ele><time>2026-04-03T11:51:46Z</time></trkpt><trkpt lat="44.40827726359568" lon="7.836883374521971"><ele>397.0</ele><time>2026-04-03T11:51:47Z</time></trkpt><trkpt lat="44.40839963617537" lon="7.837022425898162"><ele>397.0</ele><time>2026-04-03T11:51:48Z</time></trkpt><trkpt lat="44.408517622019545" lon="7.83715173045562"><ele>397.0</ele><time>2026-04-03T11:51:49Z</time></trkpt><trkpt lat="44.40863483018733" lon="7.8372939165764555"><ele>397.0</ele><time>2026-04-03T11:51:50Z</time></trkpt><trkpt lat="44.40874016817365" lon="7.837434806569077"><ele>397.0</ele><time>2026-04-03T11:51:51Z</time></trkpt><trkpt lat="44.408849717818114" lon="7.837559642109136"><ele>397.0</ele><time>2026-04-03T11:51:52Z</time></trkpt><trkpt lat="44.4089597644101" lon="7.837695356371119"><ele>397.0</ele><time>2026-04-03T11:51:53Z</time></trkpt><trkpt lat="44.409071201561865" lon="7.837832879385419"><ele>397.0</ele><time>2026-04-03T11:51:54Z</time></trkpt><trkpt lat="44.40918551193733" lon="7.837967162675046"><ele>397.0</ele><time>2026-04-03T11:51:55Z</time></trkpt><trkpt lat="44.40929741309647" lon="7.838105671631926"><ele>397.0</ele><time>2026-04-03T11:51:56Z</time></trkpt><trkpt lat="44.40940962194588" lon="7.838235288479196"><ele>397.0</ele><time>2026-04-03T11:51:57Z</time></trkpt><trkpt lat="44.40952389765714" lon="7.83836871659106"><ele>397.0</ele><time>2026-04-03T11:51:58Z</time></trkpt><trkpt lat="44.40963394188039" lon="7.838501140495958"><ele>396.5</ele><time>2026-04-03T11:51:59Z</time></trkpt><trkpt lat="44.409749397695016" lon="7.838631837402265"><ele>396.0</ele><time>2026-04-03T11:52:00Z</time></trkpt><trkpt lat="44.40986267885739" lon="7.83876475065612"><ele>395.5</ele><time>2026-04-03T11:52:01Z</time></trkpt><trkpt lat="44.40996540113159" lon="7.838914137789444"><ele>395.0</ele><time>2026-04-03T11:52:02Z</time></trkpt><trkpt lat="44.41009375172239" lon="7.839039798221763"><ele>395.0</ele><time>2026-04-03T11:52:03Z</time></trkpt><trkpt lat="44.41020809384522" lon="7.83918230338766"><ele>395.0</ele><time>2026-04-03T11:52:04Z</time></trkpt><trkpt lat="44.4103310770816" lon="7.839319091903171"><ele>395.0</ele><time>2026-04-03T11:52:05Z</time></trkpt><trkpt lat="44.41044694338281" lon="7.839467542831503"><ele>394.0</ele><time>2026-04-03T11:52:06Z</time></trkpt><trkpt lat="44.41056404275057" lon="7.839615689700837"><ele>393.0</ele><time>2026-04-03T11:52:07Z</time></trkpt><trkpt lat="44.41067531774388" lon="7.8397537621544275"><ele>392.0</ele><time>2026-04-03T11:52:07.999Z</time></trkpt><trkpt lat="44.410789345901954" lon="7.839891824995808"><ele>392.0</ele><time>2026-04-03T11:52:08.999Z</time></trkpt><trkpt lat="44.41090509760703" lon="7.840036253533554"><ele>392.0</ele><time>2026-04-03T11:52:09.999Z</time></trkpt><trkpt lat="44.41101676681342" lon="7.8401762467018035"><ele>392.0</ele><time>2026-04-03T11:52:10.999Z</time></trkpt><trkpt lat="44.41112964861549" lon="7.840321580511896"><ele>392.0</ele><time>2026-04-03T11:52:11.999Z</time></trkpt><trkpt lat="44.41124504082623" lon="7.840468001102029"><ele>392.0</ele><time>2026-04-03T11:52:12.999Z</time></trkpt><trkpt lat="44.411368663402726" lon="7.840607365554899"><ele>392.0</ele><time>2026-04-03T11:52:13.999Z</time></trkpt><trkpt lat="44.41146201545259" lon="7.8407712268688625"><ele>392.0</ele><time>2026-04-03T11:52:14.999Z</time></trkpt><trkpt lat="44.411571857544224" lon="7.840907244507677"><ele>392.0</ele><time>2026-04-03T11:52:15.999Z</time></trkpt><trkpt lat="44.411679128326334" lon="7.841040135939004"><ele>392.0</ele><time>2026-04-03T11:52:16.999Z</time></trkpt><trkpt lat="44.41178058154845" lon="7.8411569769668095"><ele>392.0</ele><time>2026-04-03T11:52:17.999Z</time></trkpt><trkpt lat="44.4118806615567" lon="7.84128156150583"><ele>392.0</ele><time>2026-04-03T11:52:18.999Z</time></trkpt><trkpt lat="44.41197339168906" lon="7.841395956103125"><ele>392.0</ele><time>2026-04-03T11:52:19.999Z</time></trkpt><trkpt lat="44.41206405118809" lon="7.841501784136097"><ele>392.0</ele><time>2026-04-03T11:52:20.999Z</time></trkpt><trkpt lat="44.412140034593456" lon="7.841603705052288"><ele>392.0</ele><time>2026-04-03T11:52:21.999Z</time></trkpt><trkpt lat="44.4122013040458" lon="7.841700343517902"><ele>392.0</ele><time>2026-04-03T11:52:22.999Z</time></trkpt><trkpt lat="44.412245755795475" lon="7.841803776517868"><ele>391.8333333333333</ele><time>2026-04-03T11:52:23.999Z</time></trkpt><trkpt lat="44.412278804561936" lon="7.841901134518044"><ele>391.66666666666663</ele><time>2026-04-03T11:52:24.999Z</time></trkpt><trkpt lat="44.412299244386766" lon="7.84200143806349"><ele>391.5</ele><time>2026-04-03T11:52:25.999Z</time></trkpt><trkpt lat="44.41230226920052" lon="7.842116930526297"><ele>391.33333333333337</ele><time>2026-04-03T11:52:26.999Z</time></trkpt><trkpt lat="44.412298143358456" lon="7.8422109483991"><ele>391.1666666666667</ele><time>2026-04-03T11:52:27.999Z</time></trkpt><trkpt lat="44.412331851531" lon="7.842389551904793"><ele>391.0</ele><time>2026-04-03T11:52:29.999Z</time></trkpt><trkpt lat="44.41237069462755" lon="7.842467457195638"><ele>391.00000000000006</ele><time>2026-04-03T11:52:30.999Z</time></trkpt><trkpt lat="44.41242590716402" lon="7.842514332176879"><ele>391.0</ele><time>2026-04-03T11:52:31.999Z</time></trkpt><trkpt lat="44.41248162090399" lon="7.842562329672859"><ele>391.0</ele><time>2026-04-03T11:52:32.999Z</time></trkpt><trkpt lat="44.41256960791935" lon="7.842516540968603"><ele>391.0</ele><time>2026-04-03T11:52:33.999Z</time></trkpt><trkpt lat="44.41263875506598" lon="7.842455177487665"><ele>391.00000000000006</ele><time>2026-04-03T11:52:34.999Z</time></trkpt><trkpt lat="44.41270035819423" lon="7.84236296628361"><ele>391.0</ele><time>2026-04-03T11:52:35.999Z</time></trkpt><trkpt lat="44.41271868772279" lon="7.842247085816759"><ele>391.0</ele><time>2026-04-03T11:52:36.999Z</time></trkpt><trkpt lat="44.41283803246314" lon="7.842231370023889"><ele>391.0</ele><time>2026-04-03T11:52:37.999Z</time></trkpt><trkpt lat="44.41290631651067" lon="7.8422262622476016"><ele>391.0</ele><time>2026-04-03T11:52:38.999Z</time></trkpt><trkpt lat="44.412993714582946" lon="7.842247251096331"><ele>391.0</ele><time>2026-04-03T11:52:39.999Z</time></trkpt><trkpt lat="44.413094545085876" lon="7.8423039210240555"><ele>391.0</ele><time>2026-04-03T11:52:40.999Z</time></trkpt><trkpt lat="44.4132039750606" lon="7.842365709779964"><ele>391.0</ele><time>2026-04-03T11:52:41.999Z</time></trkpt><trkpt lat="44.413331425858935" lon="7.842440943279738"><ele>391.0</ele><time>2026-04-03T11:52:42.999Z</time></trkpt><trkpt lat="44.413461717514686" lon="7.842518888201382"><ele>391.0</ele><time>2026-04-03T11:52:43.999Z</time></trkpt><trkpt lat="44.41360460550443" lon="7.842599950430484"><ele>391.0</ele><time>2026-04-03T11:52:44.999Z</time></trkpt><trkpt lat="44.41375691211756" lon="7.842691302431078"><ele>391.0</ele><time>2026-04-03T11:52:45.999Z</time></trkpt><trkpt lat="44.41391287005728" lon="7.842791256981159"><ele>391.0</ele><time>2026-04-03T11:52:46.999Z</time></trkpt><trkpt lat="44.41407285731639" lon="7.842884886679226"><ele>391.0</ele><time>2026-04-03T11:52:47.999Z</time></trkpt><trkpt lat="44.414243013075634" lon="7.842983260374909"><ele>391.0</ele><time>2026-04-03T11:52:48.999Z</time></trkpt><trkpt lat="44.41441863049125" lon="7.843087914950842"><ele>391.0</ele><time>2026-04-03T11:52:49.999Z</time></trkpt><trkpt lat="44.41459038971773" lon="7.843193779432526"><ele>391.0</ele><time>2026-04-03T11:52:50.999Z</time></trkpt><trkpt lat="44.414780285567666" lon="7.843303659498169"><ele>391.0</ele><time>2026-04-03T11:52:51.999Z</time></trkpt><trkpt lat="44.41496618792618" lon="7.843417087449985"><ele>391.0</ele><time>2026-04-03T11:52:52.999Z</time></trkpt><trkpt lat="44.41515730985715" lon="7.843533890519847"><ele>391.0</ele><time>2026-04-03T11:52:53.999Z</time></trkpt><trkpt lat="44.41533569084105" lon="7.8436483856096775"><ele>391.0</ele><time>2026-04-03T11:52:54.999Z</time></trkpt><trkpt lat="44.415494548977215" lon="7.84376341890392"><ele>391.0</ele><time>2026-04-03T11:52:55.999Z</time></trkpt><trkpt lat="44.415647369874854" lon="7.843889938674323"><ele>391.0</ele><time>2026-04-03T11:52:56.999Z</time></trkpt><trkpt lat="44.41578863943365" lon="7.844015667331786"><ele>391.0</ele><time>2026-04-03T11:52:57.999Z</time></trkpt><trkpt lat="44.41592440543379" lon="7.844134918659366"><ele>391.0</ele><time>2026-04-03T11:52:58.999Z</time></trkpt><trkpt lat="44.41605314686044" lon="7.8442504142236125"><ele>391.0</ele><time>2026-04-03T11:52:59.999Z</time></trkpt><trkpt lat="44.41618386538426" lon="7.844370646214363"><ele>390.5</ele><time>2026-04-03T11:53:00.999Z</time></trkpt><trkpt lat="44.41631363953154" lon="7.844486908672526"><ele>390.0</ele><time>2026-04-03T11:53:01.999Z</time></trkpt><trkpt lat="44.41644188759085" lon="7.844593694913073"><ele>389.5</ele><time>2026-04-03T11:53:02.999Z</time></trkpt><trkpt lat="44.41655992055711" lon="7.844706798515065"><ele>389.0</ele><time>2026-04-03T11:53:03.999Z</time></trkpt><trkpt lat="44.416686418617026" lon="7.844819352525834"><ele>389.0</ele><time>2026-04-03T11:53:04.999Z</time></trkpt><trkpt lat="44.416808947383934" lon="7.844931298642869"><ele>389.0</ele><time>2026-04-03T11:53:05.998Z</time></trkpt><trkpt lat="44.41693589944943" lon="7.845035587648082"><ele>389.0</ele><time>2026-04-03T11:53:06.998Z</time></trkpt><trkpt lat="44.417050138926975" lon="7.845139038102574"><ele>389.0</ele><time>2026-04-03T11:53:07.998Z</time></trkpt><trkpt lat="44.4171587902255" lon="7.845235518372212"><ele>389.5</ele><time>2026-04-03T11:53:08.998Z</time></trkpt><trkpt lat="44.41726546059076" lon="7.845318247451745"><ele>390.0</ele><time>2026-04-03T11:53:09.998Z</time></trkpt><trkpt lat="44.417364304297216" lon="7.845400741226892"><ele>390.5</ele><time>2026-04-03T11:53:10.998Z</time></trkpt><trkpt lat="44.417467167294305" lon="7.845485942621979"><ele>391.0</ele><time>2026-04-03T11:53:11.998Z</time></trkpt><trkpt lat="44.4175755546026" lon="7.845575165151998"><ele>391.0</ele><time>2026-04-03T11:53:12.998Z</time></trkpt><trkpt lat="44.41768085724444" lon="7.845669750652919"><ele>391.0</ele><time>2026-04-03T11:53:13.998Z</time></trkpt><trkpt lat="44.417787256930964" lon="7.845760108829669"><ele>391.0</ele><time>2026-04-03T11:53:14.998Z</time></trkpt><trkpt lat="44.41788828629416" lon="7.845846888451547"><ele>391.0</ele><time>2026-04-03T11:53:15.998Z</time></trkpt><trkpt lat="44.41799190701267" lon="7.845932947881629"><ele>390.75</ele><time>2026-04-03T11:53:16.998Z</time></trkpt><trkpt lat="44.41809583144193" lon="7.846025499635944"><ele>390.5</ele><time>2026-04-03T11:53:17.998Z</time></trkpt><trkpt lat="44.41819770040995" lon="7.846119925433075"><ele>390.25</ele><time>2026-04-03T11:53:18.998Z</time></trkpt><trkpt lat="44.41831119921268" lon="7.8461915869107255"><ele>390.0</ele><time>2026-04-03T11:53:19.998Z</time></trkpt><trkpt lat="44.418413583058005" lon="7.846277061049267"><ele>390.0</ele><time>2026-04-03T11:53:20.998Z</time></trkpt><trkpt lat="44.41851431907132" lon="7.846383116599114"><ele>390.0</ele><time>2026-04-03T11:53:21.998Z</time></trkpt><trkpt lat="44.41860865126476" lon="7.84647042488426"><ele>390.0</ele><time>2026-04-03T11:53:22.998Z</time></trkpt><trkpt lat="44.418712347791285" lon="7.846552538714502"><ele>390.0</ele><time>2026-04-03T11:53:23.998Z</time></trkpt><trkpt lat="44.41880161081759" lon="7.846629038989293"><ele>390.0</ele><time>2026-04-03T11:53:24.998Z</time></trkpt><trkpt lat="44.418880069291866" lon="7.84669545006"><ele>390.0</ele><time>2026-04-03T11:53:25.998Z</time></trkpt><trkpt lat="44.418964999915254" lon="7.846764846927558"><ele>390.0</ele><time>2026-04-03T11:53:26.998Z</time></trkpt><trkpt lat="44.41902931319119" lon="7.846829666151885"><ele>390.0</ele><time>2026-04-03T11:53:28Z</time></trkpt><trkpt lat="44.419072273860216" lon="7.846905210399549"><ele>390.0</ele><time>2026-04-03T11:53:29Z</time></trkpt><trkpt lat="44.41910782989566" lon="7.846993916982409"><ele>390.0</ele><time>2026-04-03T11:53:30Z</time></trkpt><trkpt lat="44.419155764048824" lon="7.8470698677420225"><ele>389.6</ele><time>2026-04-03T11:53:31Z</time></trkpt><trkpt lat="44.4191354677155" lon="7.8471914680863115"><ele>389.2</ele><time>2026-04-03T11:53:32Z</time></trkpt><trkpt lat="44.419162439933594" lon="7.847366992985675"><ele>388.79999999999995</ele><time>2026-04-03T11:53:34Z</time></trkpt><trkpt lat="44.41921273923131" lon="7.847435190619507"><ele>388.4</ele><time>2026-04-03T11:53:35Z</time></trkpt><trkpt lat="44.41934377070005" lon="7.847440934563334"><ele>388.0</ele><time>2026-04-03T11:53:37Z</time></trkpt><trkpt lat="44.419414471254726" lon="7.847429990958795"><ele>388.0</ele><time>2026-04-03T11:53:38Z</time></trkpt><trkpt lat="44.41949725521866" lon="7.847414206929461"><ele>388.0</ele><time>2026-04-03T11:53:39Z</time></trkpt><trkpt lat="44.41958535456646" lon="7.847447337332173"><ele>388.0</ele><time>2026-04-03T11:53:40Z</time></trkpt><trkpt lat="44.419682880640565" lon="7.847501802483442"><ele>388.0</ele><time>2026-04-03T11:53:41Z</time></trkpt><trkpt lat="44.41978050614871" lon="7.847582168889654"><ele>388.0</ele><time>2026-04-03T11:53:42Z</time></trkpt><trkpt lat="44.41988793139264" lon="7.847675882019451"><ele>388.0</ele><time>2026-04-03T11:53:43Z</time></trkpt><trkpt lat="44.41998224327665" lon="7.847774864334801"><ele>388.0</ele><time>2026-04-03T11:53:44Z</time></trkpt><trkpt lat="44.42008557647347" lon="7.847891435918995"><ele>388.0</ele><time>2026-04-03T11:53:45Z</time></trkpt><trkpt lat="44.42018417983353" lon="7.848005603356852"><ele>388.0</ele><time>2026-04-03T11:53:46Z</time></trkpt><trkpt lat="44.42028984235134" lon="7.848134001900764"><ele>388.0</ele><time>2026-04-03T11:53:47Z</time></trkpt><trkpt lat="44.42039941040626" lon="7.848264756653554"><ele>388.0</ele><time>2026-04-03T11:53:48Z</time></trkpt><trkpt lat="44.42050427370537" lon="7.848383163895958"><ele>388.0</ele><time>2026-04-03T11:53:49Z</time></trkpt><trkpt lat="44.420606839651676" lon="7.848491700189794"><ele>388.0</ele><time>2026-04-03T11:53:50Z</time></trkpt><trkpt lat="44.4207044882546" lon="7.848597290146363"><ele>387.59999999999997</ele><time>2026-04-03T11:53:51Z</time></trkpt><trkpt lat="44.420803303286284" lon="7.848698357355389"><ele>387.2</ele><time>2026-04-03T11:53:52Z</time></trkpt><trkpt lat="44.42089869456651" lon="7.848781212336063"><ele>386.8</ele><time>2026-04-03T11:53:53Z</time></trkpt><trkpt lat="44.42098659567375" lon="7.848848038264709"><ele>386.4</ele><time>2026-04-03T11:53:54Z</time></trkpt><trkpt lat="44.42107757521927" lon="7.848896464970995"><ele>386.0</ele><time>2026-04-03T11:53:55Z</time></trkpt><trkpt lat="44.42116565717382" lon="7.848928815308133"><ele>385.99999999999994</ele><time>2026-04-03T11:53:56Z</time></trkpt><trkpt lat="44.421243322485445" lon="7.848962558796851"><ele>386.0</ele><time>2026-04-03T11:53:57Z</time></trkpt><trkpt lat="44.4213165366996" lon="7.848991243814313"><ele>386.0</ele><time>2026-04-03T11:53:58Z</time></trkpt><trkpt lat="44.42138336734428" lon="7.849019120035605"><ele>386.0</ele><time>2026-04-03T11:53:59Z</time></trkpt><trkpt lat="44.42144251412321" lon="7.849052613708548"><ele>385.99999999999994</ele><time>2026-04-03T11:54:00Z</time></trkpt><trkpt lat="44.42151644825283" lon="7.849201022605426"><ele>386.0</ele><time>2026-04-03T11:54:02Z</time></trkpt><trkpt lat="44.421538878541725" lon="7.849309485675499"><ele>385.8333333333333</ele><time>2026-04-03T11:54:03Z</time></trkpt><trkpt lat="44.42157042651101" lon="7.849421557475636"><ele>385.66666666666663</ele><time>2026-04-03T11:54:04Z</time></trkpt><trkpt lat="44.42160791937569" lon="7.849514943606162"><ele>385.5</ele><time>2026-04-03T11:54:05Z</time></trkpt><trkpt lat="44.4216591913822" lon="7.849588624627568"><ele>385.33333333333337</ele><time>2026-04-03T11:54:06Z</time></trkpt><trkpt lat="44.42172443466794" lon="7.849634353998597"><ele>385.1666666666667</ele><time>2026-04-03T11:54:07Z</time></trkpt><trkpt lat="44.421795325365316" lon="7.849670844956411"><ele>385.0</ele><time>2026-04-03T11:54:08Z</time></trkpt><trkpt lat="44.42187424442666" lon="7.849666738582527"><ele>385.00000000000006</ele><time>2026-04-03T11:54:09Z</time></trkpt><trkpt lat="44.42195218553485" lon="7.849625815846679"><ele>385.0</ele><time>2026-04-03T11:54:10Z</time></trkpt><trkpt lat="44.42202327036134" lon="7.849555076013839"><ele>385.0</ele><time>2026-04-03T11:54:11Z</time></trkpt><trkpt lat="44.42208062501277" lon="7.849459684676866"><ele>385.0</ele><time>2026-04-03T11:54:12Z</time></trkpt><trkpt lat="44.422124776828056" lon="7.849362597482625"><ele>385.00000000000006</ele><time>2026-04-03T11:54:12.999Z</time></trkpt><trkpt lat="44.42217694537701" lon="7.849295328477618"><ele>385.0</ele><time>2026-04-03T11:54:13.999Z</time></trkpt><trkpt lat="44.42224665643006" lon="7.849246151344231"><ele>385.0</ele><time>2026-04-03T11:54:14.999Z</time></trkpt><trkpt lat="44.42232639894441" lon="7.849218948063074"><ele>385.0</ele><time>2026-04-03T11:54:15.999Z</time></trkpt><trkpt lat="44.42241864225291" lon="7.849263492992475"><ele>385.0</ele><time>2026-04-03T11:54:16.999Z</time></trkpt><trkpt lat="44.42251912601767" lon="7.849285302296434"><ele>385.0</ele><time>2026-04-03T11:54:17.999Z</time></trkpt><trkpt lat="44.42262305062299" lon="7.849355747486767"><ele>385.0</ele><time>2026-04-03T11:54:18.999Z</time></trkpt><trkpt lat="44.42273031681785" lon="7.849469187136754"><ele>385.0</ele><time>2026-04-03T11:54:19.999Z</time></trkpt><trkpt lat="44.4228187550079" lon="7.849576490403527"><ele>385.0</ele><time>2026-04-03T11:54:20.999Z</time></trkpt><trkpt lat="44.422882455249116" lon="7.849677043087275"><ele>385.0</ele><time>2026-04-03T11:54:21.999Z</time></trkpt><trkpt lat="44.422942950153924" lon="7.849777860938295"><ele>385.0</ele><time>2026-04-03T11:54:22.999Z</time></trkpt><trkpt lat="44.42300275606204" lon="7.849882360491681"><ele>385.0</ele><time>2026-04-03T11:54:23.999Z</time></trkpt><trkpt lat="44.423048666171326" lon="7.849995347858971"><ele>384.8</ele><time>2026-04-03T11:54:24.999Z</time></trkpt><trkpt lat="44.423097506911745" lon="7.850098677675653"><ele>384.6</ele><time>2026-04-03T11:54:25.999Z</time></trkpt><trkpt lat="44.42316594954456" lon="7.850208103375805"><ele>384.4</ele><time>2026-04-03T11:54:26.999Z</time></trkpt><trkpt lat="44.42325644931847" lon="7.850293659187353"><ele>384.2</ele><time>2026-04-03T11:54:27.999Z</time></trkpt><trkpt lat="44.42335915660906" lon="7.8503774957139"><ele>384.0</ele><time>2026-04-03T11:54:28.999Z</time></trkpt><trkpt lat="44.42345301445248" lon="7.850495672649932"><ele>384.0</ele><time>2026-04-03T11:54:29.999Z</time></trkpt><trkpt lat="44.42353958902763" lon="7.8506439035644515"><ele>384.0</ele><time>2026-04-03T11:54:30.999Z</time></trkpt><trkpt lat="44.42363705538823" lon="7.8508119607325915"><ele>384.0</ele><time>2026-04-03T11:54:31.999Z</time></trkpt><trkpt lat="44.423730432975724" lon="7.850997501313902"><ele>383.6666666666667</ele><time>2026-04-03T11:54:32.999Z</time></trkpt><trkpt lat="44.42381607466596" lon="7.851191693888348"><ele>383.33333333333337</ele><time>2026-04-03T11:54:33.999Z</time></trkpt><trkpt lat="44.42390460874487" lon="7.851394712224229"><ele>383.0</ele><time>2026-04-03T11:54:34.999Z</time></trkpt><trkpt lat="44.423996044186744" lon="7.851613817590758"><ele>382.6666666666667</ele><time>2026-04-03T11:54:35.999Z</time></trkpt><trkpt lat="44.42409974999706" lon="7.851841276816069"><ele>382.3333333333333</ele><time>2026-04-03T11:54:36.999Z</time></trkpt><trkpt lat="44.4241989973104" lon="7.852068226346282"><ele>382.0</ele><time>2026-04-03T11:54:37.999Z</time></trkpt><trkpt lat="44.42430121275204" lon="7.852308126326083"><ele>382.0</ele><time>2026-04-03T11:54:38.999Z</time></trkpt><trkpt lat="44.42441398891844" lon="7.85254553454103"><ele>382.0</ele><time>2026-04-03T11:54:39.999Z</time></trkpt><trkpt lat="44.42453890847193" lon="7.852779821778996"><ele>382.0</ele><time>2026-04-03T11:54:40.999Z</time></trkpt><trkpt lat="44.42467809374559" lon="7.85300149387489"><ele>382.0</ele><time>2026-04-03T11:54:41.999Z</time></trkpt><trkpt lat="44.42483794662215" lon="7.853213290175525"><ele>382.0</ele><time>2026-04-03T11:54:42.999Z</time></trkpt><trkpt lat="44.424996334273445" lon="7.853411794393321"><ele>382.0</ele><time>2026-04-03T11:54:43.999Z</time></trkpt><trkpt lat="44.42515992442307" lon="7.853613530609753"><ele>382.3333333333333</ele><time>2026-04-03T11:54:44.999Z</time></trkpt><trkpt lat="44.425312656255684" lon="7.853837643820468"><ele>382.6666666666667</ele><time>2026-04-03T11:54:45.999Z</time></trkpt><trkpt lat="44.425478527060996" lon="7.85404897536664"><ele>383.0</ele><time>2026-04-03T11:54:46.999Z</time></trkpt><trkpt lat="44.42565453090464" lon="7.85424876729655"><ele>383.0</ele><time>2026-04-03T11:54:47.999Z</time></trkpt><trkpt lat="44.42583161732877" lon="7.854459771177844"><ele>383.0</ele><time>2026-04-03T11:54:48.999Z</time></trkpt><trkpt lat="44.42601042199236" lon="7.854672628683946"><ele>383.0</ele><time>2026-04-03T11:54:49.999Z</time></trkpt><trkpt lat="44.42618327603101" lon="7.854899271417403"><ele>383.0</ele><time>2026-04-03T11:54:50.999Z</time></trkpt><trkpt lat="44.42634751279562" lon="7.8551442004087955"><ele>382.6666666666667</ele><time>2026-04-03T11:54:51.999Z</time></trkpt><trkpt lat="44.42651067733984" lon="7.855359838734184"><ele>382.3333333333333</ele><time>2026-04-03T11:54:52.999Z</time></trkpt><trkpt lat="44.42667417076873" lon="7.855555141635629"><ele>382.0</ele><time>2026-04-03T11:54:53.999Z</time></trkpt><trkpt lat="44.426838759083175" lon="7.855765898448662"><ele>382.0</ele><time>2026-04-03T11:54:54.999Z</time></trkpt><trkpt lat="44.42700698846095" lon="7.8559872640742"><ele>382.0</ele><time>2026-04-03T11:54:55.999Z</time></trkpt><trkpt lat="44.42718371052348" lon="7.8562088471091265"><ele>382.0</ele><time>2026-04-03T11:54:56.999Z</time></trkpt><trkpt lat="44.42736452353296" lon="7.856441907969125"><ele>382.0</ele><time>2026-04-03T11:54:57.999Z</time></trkpt><trkpt lat="44.4275502185861" lon="7.856675334711547"><ele>381.5</ele><time>2026-04-03T11:54:58.999Z</time></trkpt><trkpt lat="44.42773179211405" lon="7.8569177585206855"><ele>381.0</ele><time>2026-04-03T11:54:59.999Z</time></trkpt><trkpt lat="44.42791496519007" lon="7.857162491266547"><ele>380.0</ele><time>2026-04-03T11:55:00.999Z</time></trkpt><trkpt lat="44.4281109518572" lon="7.857403667230407"><ele>379.0</ele><time>2026-04-03T11:55:01.999Z</time></trkpt><trkpt lat="44.428320548337574" lon="7.85763467617449"><ele>379.0</ele><time>2026-04-03T11:55:02.999Z</time></trkpt><trkpt lat="44.42852681410953" lon="7.857857446487025"><ele>379.0</ele><time>2026-04-03T11:55:03.999Z</time></trkpt><trkpt lat="44.42874324077974" lon="7.858075522089643"><ele>379.0</ele><time>2026-04-03T11:55:04.999Z</time></trkpt><trkpt lat="44.42893955951271" lon="7.858291156167503"><ele>379.0</ele><time>2026-04-03T11:55:05.999Z</time></trkpt><trkpt lat="44.42913012253487" lon="7.858508744662404"><ele>379.0</ele><time>2026-04-03T11:55:06.999Z</time></trkpt><trkpt lat="44.42932416493038" lon="7.858713987733668"><ele>379.0</ele><time>2026-04-03T11:55:07.999Z</time></trkpt><trkpt lat="44.42951528637936" lon="7.858931219588963"><ele>378.5</ele><time>2026-04-03T11:55:08.999Z</time></trkpt><trkpt lat="44.4297130274762" lon="7.859150062561954"><ele>378.0</ele><time>2026-04-03T11:55:09.999Z</time></trkpt><trkpt lat="44.429908646618806" lon="7.859395921056813"><ele>379.0</ele><time>2026-04-03T11:55:10.998Z</time></trkpt><trkpt lat="44.4300992550135" lon="7.859630644983845"><ele>380.0</ele><time>2026-04-03T11:55:11.998Z</time></trkpt><trkpt lat="44.43030481333773" lon="7.859851953299034"><ele>379.0</ele><time>2026-04-03T11:55:12.998Z</time></trkpt><trkpt lat="44.430513442131485" lon="7.8600786795588125"><ele>378.0</ele><time>2026-04-03T11:55:13.998Z</time></trkpt><trkpt lat="44.43071236337411" lon="7.860307461711499"><ele>378.0</ele><time>2026-04-03T11:55:14.998Z</time></trkpt><trkpt lat="44.43091687295742" lon="7.86053377306015"><ele>378.0</ele><time>2026-04-03T11:55:15.998Z</time></trkpt><trkpt lat="44.43112207908073" lon="7.860756198133387"><ele>378.5</ele><time>2026-04-03T11:55:16.998Z</time></trkpt><trkpt lat="44.43131832205546" lon="7.860984650187828"><ele>379.0</ele><time>2026-04-03T11:55:17.998Z</time></trkpt><trkpt lat="44.43152086859954" lon="7.8612072035192275"><ele>379.0</ele><time>2026-04-03T11:55:18.998Z</time></trkpt><trkpt lat="44.43172401412859" lon="7.8614295354165575"><ele>379.0</ele><time>2026-04-03T11:55:19.998Z</time></trkpt><trkpt lat="44.431928644681676" lon="7.8616625733592205"><ele>378.5</ele><time>2026-04-03T11:55:20.998Z</time></trkpt><trkpt lat="44.43212763204459" lon="7.861883099283552"><ele>378.0</ele><time>2026-04-03T11:55:21.998Z</time></trkpt><trkpt lat="44.43232855422047" lon="7.862103456058571"><ele>376.5</ele><time>2026-04-03T11:55:22.998Z</time></trkpt><trkpt lat="44.43252175176692" lon="7.862339134621305"><ele>375.0</ele><time>2026-04-03T11:55:23.998Z</time></trkpt><trkpt lat="44.43271379254952" lon="7.862566839662493"><ele>375.0</ele><time>2026-04-03T11:55:24.998Z</time></trkpt><trkpt lat="44.432913460720854" lon="7.86279927446544"><ele>375.0</ele><time>2026-04-03T11:55:25.998Z</time></trkpt><trkpt lat="44.43311173630458" lon="7.863024127079416"><ele>375.0</ele><time>2026-04-03T11:55:26.998Z</time></trkpt><trkpt lat="44.43330649695232" lon="7.863229562801657"><ele>375.0</ele><time>2026-04-03T11:55:27.998Z</time></trkpt><trkpt lat="44.43351152220477" lon="7.863459305445351"><ele>375.0</ele><time>2026-04-03T11:55:28.998Z</time></trkpt><trkpt lat="44.43371100896102" lon="7.863684205158652"><ele>375.0</ele><time>2026-04-03T11:55:29.998Z</time></trkpt><trkpt lat="44.433913296966494" lon="7.863919213706324"><ele>374.5</ele><time>2026-04-03T11:55:30.998Z</time></trkpt><trkpt lat="44.43411118766924" lon="7.864148498651142"><ele>374.0</ele><time>2026-04-03T11:55:31.998Z</time></trkpt><trkpt lat="44.434313523438846" lon="7.86438033082304"><ele>374.0</ele><time>2026-04-03T11:55:32.998Z</time></trkpt><trkpt lat="44.43451516331491" lon="7.864598628801295"><ele>374.0</ele><time>2026-04-03T11:55:34Z</time></trkpt><trkpt lat="44.43472403260695" lon="7.86481366301665"><ele>374.0</ele><time>2026-04-03T11:55:35Z</time></trkpt><trkpt lat="44.43492351350607" lon="7.86505520870012"><ele>374.0</ele><time>2026-04-03T11:55:36Z</time></trkpt><trkpt lat="44.435130020584126" lon="7.865267206785487"><ele>374.0</ele><time>2026-04-03T11:55:37Z</time></trkpt><trkpt lat="44.43532198260092" lon="7.8654911154355815"><ele>374.0</ele><time>2026-04-03T11:55:38Z</time></trkpt><trkpt lat="44.43551421555555" lon="7.865696234272812"><ele>374.0</ele><time>2026-04-03T11:55:39Z</time></trkpt><trkpt lat="44.43570986891854" lon="7.86591579257797"><ele>374.0</ele><time>2026-04-03T11:55:40Z</time></trkpt><trkpt lat="44.435903662702856" lon="7.866133336435799"><ele>374.0</ele><time>2026-04-03T11:55:41Z</time></trkpt><trkpt lat="44.4361065703807" lon="7.866349228545661"><ele>374.0</ele><time>2026-04-03T11:55:42Z</time></trkpt><trkpt lat="44.436302898610414" lon="7.866569169451432"><ele>373.5</ele><time>2026-04-03T11:55:43Z</time></trkpt><trkpt lat="44.43650149910588" lon="7.866796315868549"><ele>373.0</ele><time>2026-04-03T11:55:44Z</time></trkpt><trkpt lat="44.43669816321448" lon="7.867025814156492"><ele>373.0</ele><time>2026-04-03T11:55:45Z</time></trkpt><trkpt lat="44.43689898129737" lon="7.867257027186162"><ele>373.0</ele><time>2026-04-03T11:55:46Z</time></trkpt><trkpt lat="44.43710202973587" lon="7.867487754453818"><ele>372.0</ele><time>2026-04-03T11:55:47Z</time></trkpt><trkpt lat="44.437310520162676" lon="7.86770696751502"><ele>371.0</ele><time>2026-04-03T11:55:48Z</time></trkpt><trkpt lat="44.4375113096439" lon="7.867912111324725"><ele>371.0</ele><time>2026-04-03T11:55:49Z</time></trkpt><trkpt lat="44.43770318194544" lon="7.868120226808784"><ele>371.0</ele><time>2026-04-03T11:55:50Z</time></trkpt><trkpt lat="44.43791009791189" lon="7.868314474090237"><ele>371.0</ele><time>2026-04-03T11:55:51Z</time></trkpt><trkpt lat="44.4381074231204" lon="7.868512038864652"><ele>371.0</ele><time>2026-04-03T11:55:52Z</time></trkpt><trkpt lat="44.43830410657428" lon="7.86869087833205"><ele>371.0</ele><time>2026-04-03T11:55:53Z</time></trkpt><trkpt lat="44.43850663662055" lon="7.868875284449729"><ele>371.0</ele><time>2026-04-03T11:55:54Z</time></trkpt><trkpt lat="44.43871191254801" lon="7.8690491028833724"><ele>371.0</ele><time>2026-04-03T11:55:55Z</time></trkpt><trkpt lat="44.43891834987551" lon="7.8692191107196985"><ele>371.0</ele><time>2026-04-03T11:55:56Z</time></trkpt><trkpt lat="44.4391227600692" lon="7.869385598820928"><ele>371.0</ele><time>2026-04-03T11:55:57Z</time></trkpt><trkpt lat="44.439335104305584" lon="7.869549845881103"><ele>371.0</ele><time>2026-04-03T11:55:58Z</time></trkpt><trkpt lat="44.43955070692186" lon="7.869703905810774"><ele>371.0</ele><time>2026-04-03T11:55:59Z</time></trkpt><trkpt lat="44.43976981443008" lon="7.8698620066083835"><ele>371.0</ele><time>2026-04-03T11:56:00Z</time></trkpt><trkpt lat="44.439979057832176" lon="7.870019707669415"><ele>371.0</ele><time>2026-04-03T11:56:01Z</time></trkpt><trkpt lat="44.44018613328736" lon="7.870179773629134"><ele>371.0</ele><time>2026-04-03T11:56:02Z</time></trkpt><trkpt lat="44.44040306425743" lon="7.870342974283032"><ele>370.5</ele><time>2026-04-03T11:56:03Z</time></trkpt><trkpt lat="44.44060169210356" lon="7.870498286270252"><ele>370.0</ele><time>2026-04-03T11:56:04Z</time></trkpt><trkpt lat="44.44081509919333" lon="7.870651757810244"><ele>370.0</ele><time>2026-04-03T11:56:05Z</time></trkpt><trkpt lat="44.44102014368033" lon="7.8708058350415895"><ele>370.0</ele><time>2026-04-03T11:56:06Z</time></trkpt><trkpt lat="44.44121219273121" lon="7.870965757341469"><ele>367.66666666666663</ele><time>2026-04-03T11:56:07Z</time></trkpt><trkpt lat="44.44141498353362" lon="7.871118291615045"><ele>365.3333333333333</ele><time>2026-04-03T11:56:08Z</time></trkpt><trkpt lat="44.44160359501066" lon="7.871261353078211"><ele>363.0</ele><time>2026-04-03T11:56:09Z</time></trkpt><trkpt lat="44.441793443107244" lon="7.87140903296749"><ele>363.0</ele><time>2026-04-03T11:56:10Z</time></trkpt><trkpt lat="44.44196842850438" lon="7.871543383881078"><ele>363.0</ele><time>2026-04-03T11:56:11Z</time></trkpt><trkpt lat="44.44213365042517" lon="7.871679900274181"><ele>363.0</ele><time>2026-04-03T11:56:12Z</time></trkpt><trkpt lat="44.442313974211686" lon="7.871813674435714"><ele>361.0</ele><time>2026-04-03T11:56:13Z</time></trkpt><trkpt lat="44.44249198621255" lon="7.871962962096794"><ele>359.0</ele><time>2026-04-03T11:56:14Z</time></trkpt><trkpt lat="44.44266838708983" lon="7.872104029400092"><ele>357.0</ele><time>2026-04-03T11:56:15Z</time></trkpt><trkpt lat="44.442831853626345" lon="7.872243109633629"><ele>356.0</ele><time>2026-04-03T11:56:16Z</time></trkpt><trkpt lat="44.44300255418413" lon="7.872388020948433"><ele>355.0</ele><time>2026-04-03T11:56:17Z</time></trkpt><trkpt lat="44.443160543031155" lon="7.872529006293224"><ele>354.0</ele><time>2026-04-03T11:56:17.999Z</time></trkpt><trkpt lat="44.44330583195163" lon="7.872672838134868"><ele>350.0</ele><time>2026-04-03T11:56:18.999Z</time></trkpt><trkpt lat="44.443457588901744" lon="7.872822112830775"><ele>346.0</ele><time>2026-04-03T11:56:19.999Z</time></trkpt><trkpt lat="44.44360847003579" lon="7.8729633567490485"><ele>342.0</ele><time>2026-04-03T11:56:20.999Z</time></trkpt><trkpt lat="44.44375061761169" lon="7.873101524588917"><ele>342.3333333333333</ele><time>2026-04-03T11:56:21.999Z</time></trkpt><trkpt lat="44.443892960769865" lon="7.873249371535459"><ele>342.66666666666663</ele><time>2026-04-03T11:56:22.999Z</time></trkpt><trkpt lat="44.44401368828237" lon="7.8733931046410595"><ele>343.0</ele><time>2026-04-03T11:56:23.999Z</time></trkpt><trkpt lat="44.44415392088403" lon="7.873534014908968"><ele>338.0</ele><time>2026-04-03T11:56:24.999Z</time></trkpt><trkpt lat="44.444287012661945" lon="7.873670546199329"><ele>333.0</ele><time>2026-04-03T11:56:25.999Z</time></trkpt><trkpt lat="44.444411532767845" lon="7.873797131670635"><ele>328.0</ele><time>2026-04-03T11:56:26.999Z</time></trkpt><trkpt lat="44.444532796481084" lon="7.873921333937713"><ele>328.0</ele><time>2026-04-03T11:56:27.999Z</time></trkpt><trkpt lat="44.444658976680586" lon="7.874052171729288"><ele>328.0</ele><time>2026-04-03T11:56:28.999Z</time></trkpt><trkpt lat="44.444793513292595" lon="7.874204930670728"><ele>328.0</ele><time>2026-04-03T11:56:29.999Z</time></trkpt><trkpt lat="44.4449212604923" lon="7.874379127332569"><ele>328.0</ele><time>2026-04-03T11:56:30.999Z</time></trkpt><trkpt lat="44.445050316128764" lon="7.874566328890929"><ele>328.0</ele><time>2026-04-03T11:56:31.999Z</time></trkpt><trkpt lat="44.44514923280719" lon="7.874765548719112"><ele>328.0</ele><time>2026-04-03T11:56:32.999Z</time></trkpt><trkpt lat="44.445237479858974" lon="7.874981137189635"><ele>323.3333333333333</ele><time>2026-04-03T11:56:33.999Z</time></trkpt><trkpt lat="44.44531812427046" lon="7.875214161808755"><ele>318.6666666666667</ele><time>2026-04-03T11:56:34.999Z</time></trkpt><trkpt lat="44.44538172460161" lon="7.8754606438223735"><ele>314.0</ele><time>2026-04-03T11:56:35.999Z</time></trkpt><trkpt lat="44.44543532565569" lon="7.875698292745865"><ele>320.6666666666667</ele><time>2026-04-03T11:56:36.999Z</time></trkpt><trkpt lat="44.445481410786165" lon="7.8759466969862935"><ele>327.3333333333333</ele><time>2026-04-03T11:56:37.999Z</time></trkpt><trkpt lat="44.44551923040828" lon="7.876187938061172"><ele>334.0</ele><time>2026-04-03T11:56:38.999Z</time></trkpt><trkpt lat="44.44555699210684" lon="7.876426564187008"><ele>334.0</ele><time>2026-04-03T11:56:39.999Z</time></trkpt><trkpt lat="44.445603038794175" lon="7.87665072571449"><ele>334.0</ele><time>2026-04-03T11:56:40.999Z</time></trkpt><trkpt lat="44.445650293777994" lon="7.8768527010238945"><ele>334.0</ele><time>2026-04-03T11:56:41.999Z</time></trkpt><trkpt lat="44.4456981359156" lon="7.8770408325305965"><ele>329.66666666666663</ele><time>2026-04-03T11:56:42.999Z</time></trkpt><trkpt lat="44.44577067908284" lon="7.877255001012882"><ele>325.3333333333333</ele><time>2026-04-03T11:56:43.999Z</time></trkpt><trkpt lat="44.4458470612568" lon="7.87745005506267"><ele>321.0</ele><time>2026-04-03T11:56:44.999Z</time></trkpt><trkpt lat="44.445941331214556" lon="7.8776396216787345"><ele>322.3333333333333</ele><time>2026-04-03T11:56:45.999Z</time></trkpt><trkpt lat="44.44605334889126" lon="7.877802944436937"><ele>323.66666666666663</ele><time>2026-04-03T11:56:46.999Z</time></trkpt><trkpt lat="44.44619783614098" lon="7.877971472122974"><ele>325.0</ele><time>2026-04-03T11:56:47.999Z</time></trkpt><trkpt lat="44.446338527024494" lon="7.878129076658963"><ele>325.0</ele><time>2026-04-03T11:56:48.999Z</time></trkpt><trkpt lat="44.446472761320415" lon="7.878273873848729"><ele>325.0</ele><time>2026-04-03T11:56:49.999Z</time></trkpt><trkpt lat="44.44660121119809" lon="7.878415731731709"><ele>325.0</ele><time>2026-04-03T11:56:50.999Z</time></trkpt><trkpt lat="44.446721867327426" lon="7.878579481524894"><ele>317.66666666666663</ele><time>2026-04-03T11:56:51.999Z</time></trkpt><trkpt lat="44.44682186202793" lon="7.878734985773024"><ele>310.3333333333333</ele><time>2026-04-03T11:56:52.999Z</time></trkpt><trkpt lat="44.44691658845797" lon="7.878925443309205"><ele>303.0</ele><time>2026-04-03T11:56:53.999Z</time></trkpt><trkpt lat="44.44699509601424" lon="7.879115903292845"><ele>300.6666666666667</ele><time>2026-04-03T11:56:54.999Z</time></trkpt><trkpt lat="44.44706248515384" lon="7.8793432574297455"><ele>298.33333333333337</ele><time>2026-04-03T11:56:55.999Z</time></trkpt><trkpt lat="44.4470999496527" lon="7.879598566388527"><ele>296.0</ele><time>2026-04-03T11:56:56.999Z</time></trkpt><trkpt lat="44.447126129768954" lon="7.879868325491911"><ele>302.6666666666667</ele><time>2026-04-03T11:56:57.999Z</time></trkpt><trkpt lat="44.44714810730047" lon="7.880154570563986"><ele>309.3333333333333</ele><time>2026-04-03T11:56:58.999Z</time></trkpt><trkpt lat="44.44716882115958" lon="7.880448611233666"><ele>316.0</ele><time>2026-04-03T11:56:59.999Z</time></trkpt><trkpt lat="44.44718756956592" lon="7.880760496858454"><ele>312.5</ele><time>2026-04-03T11:57:00.999Z</time></trkpt><trkpt lat="44.44720499348261" lon="7.881084065935232"><ele>309.0</ele><time>2026-04-03T11:57:01.999Z</time></trkpt><trkpt lat="44.447227338380465" lon="7.8814227942070705"><ele>307.5</ele><time>2026-04-03T11:57:02.999Z</time></trkpt><trkpt lat="44.44725204134169" lon="7.881766192111752"><ele>306.0</ele><time>2026-04-03T11:57:03.999Z</time></trkpt><trkpt lat="44.447272620392916" lon="7.882097508246324"><ele>306.0</ele><time>2026-04-03T11:57:04.999Z</time></trkpt><trkpt lat="44.44728797928885" lon="7.882435048908638"><ele>306.0</ele><time>2026-04-03T11:57:05.999Z</time></trkpt><trkpt lat="44.447300721924485" lon="7.882751269222031"><ele>304.6666666666667</ele><time>2026-04-03T11:57:06.999Z</time></trkpt><trkpt lat="44.4473266250826" lon="7.883048093122774"><ele>303.33333333333337</ele><time>2026-04-03T11:57:07.999Z</time></trkpt><trkpt lat="44.44735763344253" lon="7.883334760201367"><ele>302.0</ele><time>2026-04-03T11:57:08.999Z</time></trkpt><trkpt lat="44.44737841223477" lon="7.883607948676739"><ele>299.6666666666667</ele><time>2026-04-03T11:57:09.999Z</time></trkpt><trkpt lat="44.4474218053281" lon="7.883875662662218"><ele>297.3333333333333</ele><time>2026-04-03T11:57:10.999Z</time></trkpt><trkpt lat="44.447487203973154" lon="7.884114870349811"><ele>295.0</ele><time>2026-04-03T11:57:11.999Z</time></trkpt><trkpt lat="44.44755522895943" lon="7.884339213357807"><ele>294.3333333333333</ele><time>2026-04-03T11:57:12.999Z</time></trkpt><trkpt lat="44.44762314870765" lon="7.884553978394577"><ele>293.6666666666667</ele><time>2026-04-03T11:57:13.999Z</time></trkpt><trkpt lat="44.44769058318164" lon="7.884780946744551"><ele>293.0</ele><time>2026-04-03T11:57:14.999Z</time></trkpt><trkpt lat="44.447786114419046" lon="7.88499445484278"><ele>292.0</ele><time>2026-04-03T11:57:15.998Z</time></trkpt><trkpt lat="44.44787056982695" lon="7.885210046934807"><ele>291.0</ele><time>2026-04-03T11:57:16.998Z</time></trkpt><trkpt lat="44.447962687235325" lon="7.88542924677408"><ele>290.0</ele><time>2026-04-03T11:57:17.998Z</time></trkpt><trkpt lat="44.44806625322297" lon="7.885647639607379"><ele>291.0</ele><time>2026-04-03T11:57:18.998Z</time></trkpt><trkpt lat="44.44817366200755" lon="7.885857640375629"><ele>292.0</ele><time>2026-04-03T11:57:19.998Z</time></trkpt><trkpt lat="44.448278170247576" lon="7.88606050044407"><ele>293.0</ele><time>2026-04-03T11:57:20.998Z</time></trkpt><trkpt lat="44.4483774606457" lon="7.886264700949351"><ele>293.0</ele><time>2026-04-03T11:57:21.998Z</time></trkpt><trkpt lat="44.4484796000591" lon="7.886466234183932"><ele>293.0</ele><time>2026-04-03T11:57:22.998Z</time></trkpt><trkpt lat="44.44858496495333" lon="7.88668160134093"><ele>293.0</ele><time>2026-04-03T11:57:23.998Z</time></trkpt><trkpt lat="44.448693937964656" lon="7.88690559614654"><ele>292.33333333333337</ele><time>2026-04-03T11:57:24.998Z</time></trkpt><trkpt lat="44.44880652160748" lon="7.887128492741977"><ele>291.6666666666667</ele><time>2026-04-03T11:57:25.998Z</time></trkpt><trkpt lat="44.448916367355636" lon="7.887344004227664"><ele>291.0</ele><time>2026-04-03T11:57:26.998Z</time></trkpt><trkpt lat="44.44901709517394" lon="7.887585427084051"><ele>291.6666666666667</ele><time>2026-04-03T11:57:27.998Z</time></trkpt><trkpt lat="44.44912858222873" lon="7.8878081156152255"><ele>292.33333333333337</ele><time>2026-04-03T11:57:28.998Z</time></trkpt><trkpt lat="44.44925578132535" lon="7.8880109323314915"><ele>293.0</ele><time>2026-04-03T11:57:29.998Z</time></trkpt><trkpt lat="44.44936310772032" lon="7.888233076916452"><ele>291.0</ele><time>2026-04-03T11:57:30.998Z</time></trkpt><trkpt lat="44.44947609396855" lon="7.888462328329424"><ele>289.0</ele><time>2026-04-03T11:57:31.998Z</time></trkpt><trkpt lat="44.44959414294337" lon="7.888704049905836"><ele>287.0</ele><time>2026-04-03T11:57:32.998Z</time></trkpt><trkpt lat="44.449713079178416" lon="7.88895027314622"><ele>287.0</ele><time>2026-04-03T11:57:33.998Z</time></trkpt><trkpt lat="44.44983430258547" lon="7.889195163977497"><ele>287.0</ele><time>2026-04-03T11:57:34.998Z</time></trkpt><trkpt lat="44.44994649482287" lon="7.889428729432824"><ele>287.0</ele><time>2026-04-03T11:57:35.998Z</time></trkpt><trkpt lat="44.45005458378914" lon="7.889663076900304"><ele>287.33333333333337</ele><time>2026-04-03T11:57:36.998Z</time></trkpt><trkpt lat="44.45016654063954" lon="7.889893017694337"><ele>287.6666666666667</ele><time>2026-04-03T11:57:37.998Z</time></trkpt><trkpt lat="44.45029493986908" lon="7.890117871743957"><ele>288.0</ele><time>2026-04-03T11:57:38.998Z</time></trkpt><trkpt lat="44.45040850540528" lon="7.890343092040929"><ele>286.6666666666667</ele><time>2026-04-03T11:57:40Z</time></trkpt><trkpt lat="44.45051587553261" lon="7.89056537644853"><ele>285.33333333333337</ele><time>2026-04-03T11:57:41Z</time></trkpt><trkpt lat="44.45062080242777" lon="7.890776026055647"><ele>284.0</ele><time>2026-04-03T11:57:42Z</time></trkpt><trkpt lat="44.450718774570866" lon="7.8909831230008685"><ele>284.0</ele><time>2026-04-03T11:57:43Z</time></trkpt><trkpt lat="44.45081746742871" lon="7.891172360887518"><ele>284.0</ele><time>2026-04-03T11:57:44Z</time></trkpt><trkpt lat="44.45090337780701" lon="7.891364193829885"><ele>284.0</ele><time>2026-04-03T11:57:45Z</time></trkpt><trkpt lat="44.450979317879835" lon="7.8915338958989"><ele>284.0</ele><time>2026-04-03T11:57:46Z</time></trkpt><trkpt lat="44.451047458561725" lon="7.891676093005172"><ele>284.0</ele><time>2026-04-03T11:57:47Z</time></trkpt><trkpt lat="44.451109257967346" lon="7.891823550707509"><ele>284.0</ele><time>2026-04-03T11:57:48Z</time></trkpt><trkpt lat="44.451166583738775" lon="7.891951859449366"><ele>284.0</ele><time>2026-04-03T11:57:49Z</time></trkpt><trkpt lat="44.45121040765394" lon="7.892068761339671"><ele>284.0</ele><time>2026-04-03T11:57:50Z</time></trkpt><trkpt lat="44.45123001493133" lon="7.892190922548222"><ele>284.0</ele><time>2026-04-03T11:57:51Z</time></trkpt><trkpt lat="44.45125520635474" lon="7.89231585482286"><ele>284.0</ele><time>2026-04-03T11:57:52Z</time></trkpt><trkpt lat="44.45125265214619" lon="7.892441653225734"><ele>284.0</ele><time>2026-04-03T11:57:53Z</time></trkpt><trkpt lat="44.45126192819054" lon="7.892549611531268"><ele>284.0</ele><time>2026-04-03T11:57:54Z</time></trkpt><trkpt lat="44.45127958846039" lon="7.892643805978366"><ele>284.0</ele><time>2026-04-03T11:57:55Z</time></trkpt><trkpt lat="44.45129270198976" lon="7.892733614850428"><ele>284.0</ele><time>2026-04-03T11:57:56Z</time></trkpt><trkpt lat="44.45143463956705" lon="7.892838392943413"><ele>283.8</ele><time>2026-04-03T11:57:58Z</time></trkpt><trkpt lat="44.45152236697246" lon="7.892828346191987"><ele>283.59999999999997</ele><time>2026-04-03T11:57:59Z</time></trkpt><trkpt lat="44.45161310116702" lon="7.892776695162975"><ele>283.4</ele><time>2026-04-03T11:58:00Z</time></trkpt><trkpt lat="44.451704353259856" lon="7.892703400530346"><ele>283.2</ele><time>2026-04-03T11:58:01Z</time></trkpt><trkpt lat="44.45181485789465" lon="7.892650310411415"><ele>283.0</ele><time>2026-04-03T11:58:02Z</time></trkpt><trkpt lat="44.45194979350268" lon="7.892589311209486"><ele>283.0</ele><time>2026-04-03T11:58:03Z</time></trkpt><trkpt lat="44.45209657121032" lon="7.892526636630899"><ele>283.0</ele><time>2026-04-03T11:58:04Z</time></trkpt><trkpt lat="44.45224525465587" lon="7.8924733738386825"><ele>283.0</ele><time>2026-04-03T11:58:05Z</time></trkpt><trkpt lat="44.452408002278304" lon="7.89241476971847"><ele>282.0</ele><time>2026-04-03T11:58:06Z</time></trkpt><trkpt lat="44.452576372630396" lon="7.892355890403954"><ele>281.0</ele><time>2026-04-03T11:58:07Z</time></trkpt><trkpt lat="44.45274932482547" lon="7.892295329847499"><ele>280.0</ele><time>2026-04-03T11:58:08Z</time></trkpt><trkpt lat="44.4529313589397" lon="7.892229967241556"><ele>279.3333333333333</ele><time>2026-04-03T11:58:09Z</time></trkpt><trkpt lat="44.45312458680844" lon="7.892168819113702"><ele>278.6666666666667</ele><time>2026-04-03T11:58:10Z</time></trkpt><trkpt lat="44.45331854047355" lon="7.892095886132874"><ele>278.0</ele><time>2026-04-03T11:58:11Z</time></trkpt><trkpt lat="44.453521473860505" lon="7.892028085617378"><ele>278.0</ele><time>2026-04-03T11:58:12Z</time></trkpt><trkpt lat="44.453719329618465" lon="7.89196043771557"><ele>278.0</ele><time>2026-04-03T11:58:13Z</time></trkpt><trkpt lat="44.453919370966" lon="7.891896056845096"><ele>278.0</ele><time>2026-04-03T11:58:14Z</time></trkpt><trkpt lat="44.45412556694996" lon="7.891821535451115"><ele>279.33333333333337</ele><time>2026-04-03T11:58:15Z</time></trkpt><trkpt lat="44.45433795062104" lon="7.891748605810403"><ele>280.6666666666667</ele><time>2026-04-03T11:58:16Z</time></trkpt><trkpt lat="44.4545549560452" lon="7.891672976591887"><ele>282.0</ele><time>2026-04-03T11:58:17Z</time></trkpt><trkpt lat="44.4547842201628" lon="7.891591295436898"><ele>283.5</ele><time>2026-04-03T11:58:18Z</time></trkpt><trkpt lat="44.45501445970605" lon="7.891506800323164"><ele>285.0</ele><time>2026-04-03T11:58:19Z</time></trkpt><trkpt lat="44.45525310614805" lon="7.891443397096294"><ele>283.5</ele><time>2026-04-03T11:58:20Z</time></trkpt><trkpt lat="44.45549398831333" lon="7.891360125141035"><ele>282.0</ele><time>2026-04-03T11:58:21Z</time></trkpt><trkpt lat="44.45574040715129" lon="7.891274939195049"><ele>282.0</ele><time>2026-04-03T11:58:22Z</time></trkpt><trkpt lat="44.4559890968684" lon="7.891188968193038"><ele>282.0</ele><time>2026-04-03T11:58:22.999Z</time></trkpt><trkpt lat="44.456238843054436" lon="7.891102640518527"><ele>278.5</ele><time>2026-04-03T11:58:23.999Z</time></trkpt><trkpt lat="44.456488511499764" lon="7.891016453214728"><ele>275.0</ele><time>2026-04-03T11:58:24.999Z</time></trkpt><trkpt lat="44.456730947933956" lon="7.89093276242981"><ele>275.5</ele><time>2026-04-03T11:58:25.999Z</time></trkpt><trkpt lat="44.45695564166766" lon="7.890853826849251"><ele>276.0</ele><time>2026-04-03T11:58:26.999Z</time></trkpt><trkpt lat="44.45721817682352" lon="7.89073798132853"><ele>274.0</ele><time>2026-04-03T11:58:27.999Z</time></trkpt><trkpt lat="44.457464597583595" lon="7.89066187145406"><ele>272.0</ele><time>2026-04-03T11:58:28.999Z</time></trkpt><trkpt lat="44.45767200069161" lon="7.890587242467689"><ele>272.0</ele><time>2026-04-03T11:58:29.999Z</time></trkpt><trkpt lat="44.45788285673224" lon="7.890510778040287"><ele>272.0</ele><time>2026-04-03T11:58:30.999Z</time></trkpt><trkpt lat="44.45810453929615" lon="7.890447575702232"><ele>272.0</ele><time>2026-04-03T11:58:31.999Z</time></trkpt><trkpt lat="44.458293954132294" lon="7.890375545348991"><ele>272.33333333333337</ele><time>2026-04-03T11:58:32.999Z</time></trkpt><trkpt lat="44.458476413773205" lon="7.890307916051191"><ele>272.6666666666667</ele><time>2026-04-03T11:58:33.999Z</time></trkpt><trkpt lat="44.45866663050971" lon="7.890235847762907"><ele>273.0</ele><time>2026-04-03T11:58:34.999Z</time></trkpt><trkpt lat="44.458858283083394" lon="7.890185928587"><ele>273.6666666666667</ele><time>2026-04-03T11:58:35.999Z</time></trkpt><trkpt lat="44.45904952209769" lon="7.890099582916539"><ele>274.33333333333337</ele><time>2026-04-03T11:58:36.999Z</time></trkpt><trkpt lat="44.45924195317264" lon="7.889967734652086"><ele>275.0</ele><time>2026-04-03T11:58:37.999Z</time></trkpt><trkpt lat="44.45943181483079" lon="7.889835520395514"><ele>275.6666666666667</ele><time>2026-04-03T11:58:38.999Z</time></trkpt><trkpt lat="44.459623022535936" lon="7.889691755190875"><ele>276.3333333333333</ele><time>2026-04-03T11:58:39.999Z</time></trkpt><trkpt lat="44.4598085062444" lon="7.889519412920805"><ele>277.0</ele><time>2026-04-03T11:58:40.999Z</time></trkpt><trkpt lat="44.45998902291583" lon="7.889348058220905"><ele>277.66666666666663</ele><time>2026-04-03T11:58:41.999Z</time></trkpt><trkpt lat="44.460165580373335" lon="7.889157402184065"><ele>278.3333333333333</ele><time>2026-04-03T11:58:42.999Z</time></trkpt><trkpt lat="44.46033762628822" lon="7.8889635571641445"><ele>279.0</ele><time>2026-04-03T11:58:43.999Z</time></trkpt><trkpt lat="44.46049574054898" lon="7.888751254351626"><ele>279.0</ele><time>2026-04-03T11:58:44.999Z</time></trkpt><trkpt lat="44.460667189612714" lon="7.888537353365684"><ele>279.0</ele><time>2026-04-03T11:58:45.999Z</time></trkpt><trkpt lat="44.46084655512823" lon="7.888317253779179"><ele>280.0</ele><time>2026-04-03T11:58:46.999Z</time></trkpt><trkpt lat="44.46103274418741" lon="7.888094753120701"><ele>281.0</ele><time>2026-04-03T11:58:47.999Z</time></trkpt><trkpt lat="44.46121572724985" lon="7.887872847226615"><ele>281.5</ele><time>2026-04-03T11:58:48.999Z</time></trkpt><trkpt lat="44.46139794284274" lon="7.887649561724364"><ele>282.0</ele><time>2026-04-03T11:58:49.999Z</time></trkpt><trkpt lat="44.46158319519088" lon="7.8874194721581645"><ele>282.0</ele><time>2026-04-03T11:58:50.999Z</time></trkpt><trkpt lat="44.46174799115009" lon="7.887213777803354"><ele>282.0</ele><time>2026-04-03T11:58:51.999Z</time></trkpt><trkpt lat="44.461918920809644" lon="7.887008821174344"><ele>282.0</ele><time>2026-04-03T11:58:52.999Z</time></trkpt><trkpt lat="44.4620826090313" lon="7.88679552294654"><ele>286.0</ele><time>2026-04-03T11:58:53.999Z</time></trkpt><trkpt lat="44.46243512340347" lon="7.886358204742457"><ele>286.0</ele><time>2026-04-03T11:58:55.999Z</time></trkpt><trkpt lat="44.46260624921424" lon="7.886141965008291"><ele>286.0</ele><time>2026-04-03T11:58:56.999Z</time></trkpt><trkpt lat="44.46279057676671" lon="7.8859225967775854"><ele>279.5</ele><time>2026-04-03T11:58:57.999Z</time></trkpt><trkpt lat="44.4629696718769" lon="7.885712342724765"><ele>273.0</ele><time>2026-04-03T11:58:58.999Z</time></trkpt><trkpt lat="44.46314431988503" lon="7.885492553820706"><ele>273.0</ele><time>2026-04-03T11:58:59.999Z</time></trkpt><trkpt lat="44.463330312105306" lon="7.88531142956683"><ele>273.0</ele><time>2026-04-03T11:59:00.999Z</time></trkpt><trkpt lat="44.463536108536594" lon="7.885153873813357"><ele>274.5</ele><time>2026-04-03T11:59:01.999Z</time></trkpt><trkpt lat="44.463741259890156" lon="7.884968972864903"><ele>276.0</ele><time>2026-04-03T11:59:02.999Z</time></trkpt><trkpt lat="44.463951833787725" lon="7.884820845305909"><ele>276.5</ele><time>2026-04-03T11:59:03.999Z</time></trkpt><trkpt lat="44.46416625588219" lon="7.884684377276036"><ele>277.0</ele><time>2026-04-03T11:59:04.999Z</time></trkpt><trkpt lat="44.4643901819303" lon="7.8845626205694925"><ele>276.0</ele><time>2026-04-03T11:59:05.999Z</time></trkpt><trkpt lat="44.464614089455345" lon="7.884450649037361"><ele>275.0</ele><time>2026-04-03T11:59:06.999Z</time></trkpt><trkpt lat="44.46484130405989" lon="7.88435522439805"><ele>275.0</ele><time>2026-04-03T11:59:07.999Z</time></trkpt><trkpt lat="44.465074315077615" lon="7.884274682108205"><ele>275.0</ele><time>2026-04-03T11:59:08.999Z</time></trkpt><trkpt lat="44.46531060187935" lon="7.884207215117005"><ele>277.5</ele><time>2026-04-03T11:59:09.999Z</time></trkpt><trkpt lat="44.46554846824378" lon="7.884143841501291"><ele>280.0</ele><time>2026-04-03T11:59:10.999Z</time></trkpt><trkpt lat="44.46578024571317" lon="7.884097237035504"><ele>280.0</ele><time>2026-04-03T11:59:11.999Z</time></trkpt><trkpt lat="44.46601858941083" lon="7.884076761125074"><ele>280.0</ele><time>2026-04-03T11:59:12.999Z</time></trkpt><trkpt lat="44.46624966900554" lon="7.884074021216993"><ele>282.5</ele><time>2026-04-03T11:59:13.999Z</time></trkpt><trkpt lat="44.4664779505981" lon="7.884088541105339"><ele>285.0</ele><time>2026-04-03T11:59:14.999Z</time></trkpt><trkpt lat="44.46671462969403" lon="7.884109055447092"><ele>285.0</ele><time>2026-04-03T11:59:15.999Z</time></trkpt><trkpt lat="44.466944799364015" lon="7.8841554637864695"><ele>285.0</ele><time>2026-04-03T11:59:16.999Z</time></trkpt><trkpt lat="44.46718052891886" lon="7.884198074630256"><ele>285.0</ele><time>2026-04-03T11:59:17.999Z</time></trkpt><trkpt lat="44.46740449744941" lon="7.884257405080255"><ele>285.0</ele><time>2026-04-03T11:59:18.999Z</time></trkpt><trkpt lat="44.46762161136728" lon="7.884325901216888"><ele>285.0</ele><time>2026-04-03T11:59:19.999Z</time></trkpt><trkpt lat="44.467838921479014" lon="7.884402808099723"><ele>285.0</ele><time>2026-04-03T11:59:20.998Z</time></trkpt><trkpt lat="44.46805282459936" lon="7.884498867940426"><ele>285.0</ele><time>2026-04-03T11:59:21.998Z</time></trkpt><trkpt lat="44.468264673720455" lon="7.884613963229211"><ele>285.0</ele><time>2026-04-03T11:59:22.998Z</time></trkpt><trkpt lat="44.4684691703426" lon="7.8847424207915475"><ele>285.0</ele><time>2026-04-03T11:59:23.998Z</time></trkpt><trkpt lat="44.468671539825465" lon="7.884881005762228"><ele>285.0</ele><time>2026-04-03T11:59:24.998Z</time></trkpt><trkpt lat="44.46887102176608" lon="7.88503309550449"><ele>285.3333333333333</ele><time>2026-04-03T11:59:25.998Z</time></trkpt><trkpt lat="44.46905424953988" lon="7.885189755148858"><ele>285.66666666666663</ele><time>2026-04-03T11:59:26.998Z</time></trkpt><trkpt lat="44.46922292716648" lon="7.885349498319646"><ele>286.0</ele><time>2026-04-03T11:59:27.998Z</time></trkpt><trkpt lat="44.469383524796974" lon="7.885502387619615"><ele>286.0</ele><time>2026-04-03T11:59:28.998Z</time></trkpt><trkpt lat="44.469504783614454" lon="7.885638523579014"><ele>286.0</ele><time>2026-04-03T11:59:29.998Z</time></trkpt><trkpt lat="44.46962282280251" lon="7.885773093577713"><ele>286.0</ele><time>2026-04-03T11:59:30.998Z</time></trkpt><trkpt lat="44.46974700244779" lon="7.8859051726718885"><ele>286.25</ele><time>2026-04-03T11:59:31.998Z</time></trkpt><trkpt lat="44.46985477483142" lon="7.886038218002486"><ele>286.5</ele><time>2026-04-03T11:59:32.998Z</time></trkpt><trkpt lat="44.46996533920685" lon="7.8861827459464315"><ele>286.75</ele><time>2026-04-03T11:59:33.998Z</time></trkpt><trkpt lat="44.470077238811704" lon="7.886324528352335"><ele>287.0</ele><time>2026-04-03T11:59:34.998Z</time></trkpt><trkpt lat="44.4701836654567" lon="7.886466203075865"><ele>287.0</ele><time>2026-04-03T11:59:35.998Z</time></trkpt><trkpt lat="44.470296047371946" lon="7.8866188743109324"><ele>287.0</ele><time>2026-04-03T11:59:36.998Z</time></trkpt><trkpt lat="44.47040813010857" lon="7.886775861619858"><ele>287.0</ele><time>2026-04-03T11:59:37.998Z</time></trkpt><trkpt lat="44.47052550635236" lon="7.886941952791873"><ele>286.33333333333337</ele><time>2026-04-03T11:59:38.998Z</time></trkpt><trkpt lat="44.4706476047254" lon="7.8871173855948395"><ele>285.6666666666667</ele><time>2026-04-03T11:59:39.998Z</time></trkpt><trkpt lat="44.47077919785993" lon="7.887294845100869"><ele>285.0</ele><time>2026-04-03T11:59:40.998Z</time></trkpt><trkpt lat="44.47091904602332" lon="7.887477404697577"><ele>284.0</ele><time>2026-04-03T11:59:41.998Z</time></trkpt><trkpt lat="44.471070473566606" lon="7.887665005913273"><ele>283.0</ele><time>2026-04-03T11:59:42.998Z</time></trkpt><trkpt lat="44.47123121120299" lon="7.8878448837305095"><ele>282.0</ele><time>2026-04-03T11:59:43.998Z</time></trkpt><trkpt lat="44.47138296148908" lon="7.888012141160745"><ele>281.6666666666667</ele><time>2026-04-03T11:59:44.998Z</time></trkpt><trkpt lat="44.471535845784004" lon="7.8881779611210145"><ele>281.33333333333337</ele><time>2026-04-03T11:59:46Z</time></trkpt><trkpt lat="44.47170561411912" lon="7.888337001216582"><ele>281.0</ele><time>2026-04-03T11:59:47Z</time></trkpt><trkpt lat="44.47188691745733" lon="7.888492691752209"><ele>280.33333333333337</ele><time>2026-04-03T11:59:48Z</time></trkpt><trkpt lat="44.4720733890486" lon="7.8886506177260225"><ele>279.6666666666667</ele><time>2026-04-03T11:59:49Z</time></trkpt><trkpt lat="44.47227610700001" lon="7.888794206744535"><ele>279.0</ele><time>2026-04-03T11:59:50Z</time></trkpt><trkpt lat="44.47247809601501" lon="7.888931843935959"><ele>279.0</ele><time>2026-04-03T11:59:51Z</time></trkpt><trkpt lat="44.47266146554765" lon="7.889045335360785"><ele>279.0</ele><time>2026-04-03T11:59:52Z</time></trkpt><trkpt lat="44.472851202058045" lon="7.889157018598563"><ele>279.0</ele><time>2026-04-03T11:59:53Z</time></trkpt><trkpt lat="44.47304456898843" lon="7.889254789054781"><ele>278.3333333333333</ele><time>2026-04-03T11:59:54Z</time></trkpt><trkpt lat="44.47323795748448" lon="7.889337279565397"><ele>277.66666666666663</ele><time>2026-04-03T11:59:55Z</time></trkpt><trkpt lat="44.47343813574155" lon="7.889418040139669"><ele>277.0</ele><time>2026-04-03T11:59:56Z</time></trkpt><trkpt lat="44.47365274713039" lon="7.889492924532253"><ele>277.3333333333333</ele><time>2026-04-03T11:59:57Z</time></trkpt><trkpt lat="44.47385362078694" lon="7.889551727291337"><ele>277.6666666666667</ele><time>2026-04-03T11:59:58Z</time></trkpt><trkpt lat="44.474054534276775" lon="7.88959416115907"><ele>278.0</ele><time>2026-04-03T11:59:59Z</time></trkpt><trkpt lat="44.47425992836718" lon="7.889638688286581"><ele>278.0</ele><time>2026-04-03T12:00:00Z</time></trkpt><trkpt lat="44.474475294741616" lon="7.8896672468592195"><ele>278.0</ele><time>2026-04-03T12:00:01Z</time></trkpt><trkpt lat="44.474694990647926" lon="7.889692693370902"><ele>278.0</ele><time>2026-04-03T12:00:02Z</time></trkpt><trkpt lat="44.47491783045029" lon="7.889690248264297"><ele>277.33333333333337</ele><time>2026-04-03T12:00:03Z</time></trkpt><trkpt lat="44.47514367896752" lon="7.889682251675264"><ele>276.6666666666667</ele><time>2026-04-03T12:00:04Z</time></trkpt><trkpt lat="44.47536388614213" lon="7.8896751714145195"><ele>276.0</ele><time>2026-04-03T12:00:05Z</time></trkpt><trkpt lat="44.47557404132465" lon="7.889669939780379"><ele>275.3333333333333</ele><time>2026-04-03T12:00:06Z</time></trkpt><trkpt lat="44.475767523607466" lon="7.889677646123905"><ele>274.66666666666663</ele><time>2026-04-03T12:00:07Z</time></trkpt><trkpt lat="44.47597445271162" lon="7.889678931713561"><ele>274.0</ele><time>2026-04-03T12:00:08Z</time></trkpt><trkpt lat="44.47618617945891" lon="7.889692892529819"><ele>274.0</ele><time>2026-04-03T12:00:09Z</time></trkpt><trkpt lat="44.476392957006446" lon="7.889738057125448"><ele>274.0</ele><time>2026-04-03T12:00:10Z</time></trkpt><trkpt lat="44.47660748350147" lon="7.889781074739088"><ele>274.0</ele><time>2026-04-03T12:00:11Z</time></trkpt><trkpt lat="44.47682522553647" lon="7.88985064740016"><ele>274.0</ele><time>2026-04-03T12:00:12Z</time></trkpt><trkpt lat="44.477043631476384" lon="7.889919666455179"><ele>274.0</ele><time>2026-04-03T12:00:13Z</time></trkpt><trkpt lat="44.477246944247476" lon="7.889989441398335"><ele>274.0</ele><time>2026-04-03T12:00:14Z</time></trkpt><trkpt lat="44.4774317532569" lon="7.890059112208704"><ele>274.66666666666663</ele><time>2026-04-03T12:00:15Z</time></trkpt><trkpt lat="44.477612995568634" lon="7.890120607270344"><ele>275.3333333333333</ele><time>2026-04-03T12:00:16Z</time></trkpt><trkpt lat="44.4777779566469" lon="7.890180596547398"><ele>276.0</ele><time>2026-04-03T12:00:17Z</time></trkpt><trkpt lat="44.47793112710637" lon="7.89023133276151"><ele>275.0</ele><time>2026-04-03T12:00:18Z</time></trkpt><trkpt lat="44.47807585125062" lon="7.890300544219303"><ele>274.0</ele><time>2026-04-03T12:00:19Z</time></trkpt><trkpt lat="44.47822413263008" lon="7.89033901314506"><ele>273.0</ele><time>2026-04-03T12:00:20Z</time></trkpt><trkpt lat="44.47837347441205" lon="7.890366914541091"><ele>273.0</ele><time>2026-04-03T12:00:21Z</time></trkpt><trkpt lat="44.47851871006708" lon="7.890374270150246"><ele>273.0</ele><time>2026-04-03T12:00:22Z</time></trkpt><trkpt lat="44.47865498649876" lon="7.890359626720172"><ele>273.0</ele><time>2026-04-03T12:00:23Z</time></trkpt><trkpt lat="44.478788684688446" lon="7.890338701518999"><ele>273.0</ele><time>2026-04-03T12:00:24Z</time></trkpt><trkpt lat="44.47890577177544" lon="7.890286851299858"><ele>273.2</ele><time>2026-04-03T12:00:25Z</time></trkpt><trkpt lat="44.479021119326966" lon="7.890253817012254"><ele>273.4</ele><time>2026-04-03T12:00:26Z</time></trkpt><trkpt lat="44.47911509117396" lon="7.8902378639935"><ele>273.59999999999997</ele><time>2026-04-03T12:00:27Z</time></trkpt><trkpt lat="44.47920625807291" lon="7.890238919206123"><ele>273.8</ele><time>2026-04-03T12:00:27.999Z</time></trkpt><trkpt lat="44.479285287386354" lon="7.8902541286496595"><ele>274.0</ele><time>2026-04-03T12:00:28.999Z</time></trkpt><trkpt lat="44.47935736391878" lon="7.890271991762788"><ele>274.0</ele><time>2026-04-03T12:00:29.999Z</time></trkpt><trkpt lat="44.47941845848341" lon="7.89031621106881"><ele>274.0</ele><time>2026-04-03T12:00:30.999Z</time></trkpt><trkpt lat="44.479495282007264" lon="7.890320061276105"><ele>274.0</ele><time>2026-04-03T12:00:31.999Z</time></trkpt><trkpt lat="44.479582797041" lon="7.890259717343634"><ele>274.0</ele><time>2026-04-03T12:00:32.999Z</time></trkpt><trkpt lat="44.479630522757176" lon="7.890150401228375"><ele>274.0</ele><time>2026-04-03T12:00:33.999Z</time></trkpt><trkpt lat="44.479641162259036" lon="7.890037162166215"><ele>274.0</ele><time>2026-04-03T12:00:34.999Z</time></trkpt><trkpt lat="44.479572639742315" lon="7.889919056329514"><ele>274.0</ele><time>2026-04-03T12:00:35.999Z</time></trkpt><trkpt lat="44.47952773206679" lon="7.889807035584174"><ele>274.0</ele><time>2026-04-03T12:00:36.999Z</time></trkpt><trkpt lat="44.47949118642227" lon="7.889676542522574"><ele>274.0</ele><time>2026-04-03T12:00:37.999Z</time></trkpt><trkpt lat="44.47947598348246" lon="7.889516500161477"><ele>274.0</ele><time>2026-04-03T12:00:38.999Z</time></trkpt><trkpt lat="44.47944821377564" lon="7.889330104221545"><ele>274.0</ele><time>2026-04-03T12:00:39.999Z</time></trkpt><trkpt lat="44.47942999446209" lon="7.88913689100262"><ele>274.5</ele><time>2026-04-03T12:00:40.999Z</time></trkpt><trkpt lat="44.47942250169373" lon="7.888943785924195"><ele>275.0</ele><time>2026-04-03T12:00:41.999Z</time></trkpt><trkpt lat="44.47940474818878" lon="7.88873797085389"><ele>275.5</ele><time>2026-04-03T12:00:42.999Z</time></trkpt><trkpt lat="44.4793860819294" lon="7.888531646589631"><ele>276.0</ele><time>2026-04-03T12:00:43.999Z</time></trkpt><trkpt lat="44.47937050626924" lon="7.888359072739938"><ele>276.5</ele><time>2026-04-03T12:00:44.999Z</time></trkpt><trkpt lat="44.479371324122106" lon="7.888209469901286"><ele>277.0</ele><time>2026-04-03T12:00:45.999Z</time></trkpt><trkpt lat="44.47940027352373" lon="7.888070433927847"><ele>277.5</ele><time>2026-04-03T12:00:46.999Z</time></trkpt><trkpt lat="44.47946633484097" lon="7.887933198422382"><ele>278.0</ele><time>2026-04-03T12:00:47.999Z</time></trkpt><trkpt lat="44.479556856337524" lon="7.887817161500444"><ele>278.4</ele><time>2026-04-03T12:00:48.999Z</time></trkpt><trkpt lat="44.47966856749573" lon="7.8877287138638374"><ele>278.8</ele><time>2026-04-03T12:00:49.999Z</time></trkpt><trkpt lat="44.479744669495" lon="7.887610193031488"><ele>279.2</ele><time>2026-04-03T12:00:50.999Z</time></trkpt><trkpt lat="44.4798209725005" lon="7.887505330506969"><ele>279.6</ele><time>2026-04-03T12:00:51.999Z</time></trkpt><trkpt lat="44.479871356920626" lon="7.8873895513015455"><ele>280.0</ele><time>2026-04-03T12:00:52.999Z</time></trkpt><trkpt lat="44.479896994095945" lon="7.887258812687497"><ele>283.5</ele><time>2026-04-03T12:00:53.999Z</time></trkpt><trkpt lat="44.47990463376168" lon="7.887100969456903"><ele>287.0</ele><time>2026-04-03T12:00:54.999Z</time></trkpt><trkpt lat="44.47987763573564" lon="7.886928776317287"><ele>290.5</ele><time>2026-04-03T12:00:55.999Z</time></trkpt><trkpt lat="44.47983910581893" lon="7.886745635728496"><ele>294.0</ele><time>2026-04-03T12:00:56.999Z</time></trkpt><trkpt lat="44.47980478809655" lon="7.886548542663537"><ele>297.6666666666667</ele><time>2026-04-03T12:00:57.999Z</time></trkpt><trkpt lat="44.47976003687332" lon="7.886348899539047"><ele>301.33333333333337</ele><time>2026-04-03T12:00:58.999Z</time></trkpt><trkpt lat="44.47971806695981" lon="7.886141072974053"><ele>305.0</ele><time>2026-04-03T12:00:59.999Z</time></trkpt><trkpt lat="44.479671012799685" lon="7.885922256370826"><ele>300.33333333333337</ele><time>2026-04-03T12:01:00.999Z</time></trkpt><trkpt lat="44.47959999679613" lon="7.885695354097114"><ele>295.6666666666667</ele><time>2026-04-03T12:01:01.999Z</time></trkpt><trkpt lat="44.47954321337733" lon="7.885469346394775"><ele>291.0</ele><time>2026-04-03T12:01:02.999Z</time></trkpt><trkpt lat="44.479474750108864" lon="7.885250118501533"><ele>294.3333333333333</ele><time>2026-04-03T12:01:03.999Z</time></trkpt><trkpt lat="44.47939099252403" lon="7.885026999862097"><ele>297.66666666666663</ele><time>2026-04-03T12:01:04.999Z</time></trkpt><trkpt lat="44.47929676638334" lon="7.8848220507251625"><ele>301.0</ele><time>2026-04-03T12:01:05.999Z</time></trkpt><trkpt lat="44.47918327286012" lon="7.884623014241399"><ele>301.0</ele><time>2026-04-03T12:01:06.999Z</time></trkpt><trkpt lat="44.47905720964051" lon="7.8844303064478805"><ele>301.0</ele><time>2026-04-03T12:01:07.999Z</time></trkpt><trkpt lat="44.47893186096806" lon="7.88425792759003"><ele>301.0</ele><time>2026-04-03T12:01:08.999Z</time></trkpt><trkpt lat="44.47882218017412" lon="7.884097733609174"><ele>299.6</ele><time>2026-04-03T12:01:09.999Z</time></trkpt><trkpt lat="44.47876109360952" lon="7.883949973643726"><ele>298.20000000000005</ele><time>2026-04-03T12:01:10.999Z</time></trkpt><trkpt lat="44.478679375460196" lon="7.883831212001148"><ele>296.79999999999995</ele><time>2026-04-03T12:01:11.999Z</time></trkpt><trkpt lat="44.4786331768012" lon="7.883704961466889"><ele>295.4</ele><time>2026-04-03T12:01:12.999Z</time></trkpt><trkpt lat="44.47861684653415" lon="7.8835989813191745"><ele>294.0</ele><time>2026-04-03T12:01:13.999Z</time></trkpt><trkpt lat="44.47861436939026" lon="7.883485400868624"><ele>295.0</ele><time>2026-04-03T12:01:14.999Z</time></trkpt><trkpt lat="44.4786359096569" lon="7.883382625467386"><ele>296.0</ele><time>2026-04-03T12:01:15.999Z</time></trkpt><trkpt lat="44.47867182148014" lon="7.883288325529614"><ele>297.0</ele><time>2026-04-03T12:01:16.999Z</time></trkpt><trkpt lat="44.47873430018382" lon="7.883204417983029"><ele>298.0</ele><time>2026-04-03T12:01:17.999Z</time></trkpt><trkpt lat="44.47881720442461" lon="7.8831524388640934"><ele>299.0</ele><time>2026-04-03T12:01:18.999Z</time></trkpt><trkpt lat="44.478907930045736" lon="7.883099064606886"><ele>300.0</ele><time>2026-04-03T12:01:19.999Z</time></trkpt><trkpt lat="44.47900439483551" lon="7.8830235132822875"><ele>304.0</ele><time>2026-04-03T12:01:20.999Z</time></trkpt><trkpt lat="44.479094184375384" lon="7.882952020105343"><ele>308.0</ele><time>2026-04-03T12:01:21.999Z</time></trkpt><trkpt lat="44.47916822776159" lon="7.882899479629069"><ele>312.0</ele><time>2026-04-03T12:01:22.999Z</time></trkpt><trkpt lat="44.47923267838666" lon="7.8828004792578215"><ele>316.0</ele><time>2026-04-03T12:01:23.999Z</time></trkpt><trkpt lat="44.47927403630646" lon="7.882696367991576"><ele>320.0</ele><time>2026-04-03T12:01:24.999Z</time></trkpt><trkpt lat="44.47929860349725" lon="7.882604743246536"><ele>324.0</ele><time>2026-04-03T12:01:25.998Z</time></trkpt><trkpt lat="44.47931950036791" lon="7.882495768082246"><ele>324.3333333333333</ele><time>2026-04-03T12:01:26.998Z</time></trkpt><trkpt lat="44.479293214702906" lon="7.88239859663543"><ele>324.6666666666667</ele><time>2026-04-03T12:01:27.998Z</time></trkpt><trkpt lat="44.47923420012523" lon="7.882319820453492"><ele>325.0</ele><time>2026-04-03T12:01:28.998Z</time></trkpt><trkpt lat="44.479142621635496" lon="7.882303272019993"><ele>325.33333333333337</ele><time>2026-04-03T12:01:29.998Z</time></trkpt><trkpt lat="44.47906042170697" lon="7.882300281309257"><ele>325.6666666666667</ele><time>2026-04-03T12:01:30.998Z</time></trkpt><trkpt lat="44.47898054800558" lon="7.88233436727569"><ele>326.0</ele><time>2026-04-03T12:01:31.998Z</time></trkpt><trkpt lat="44.47889657207882" lon="7.882400774428821"><ele>326.0</ele><time>2026-04-03T12:01:32.998Z</time></trkpt><trkpt lat="44.47880479605875" lon="7.88246293290874"><ele>326.0</ele><time>2026-04-03T12:01:33.998Z</time></trkpt><trkpt lat="44.47870225894746" lon="7.882495893207964"><ele>326.0</ele><time>2026-04-03T12:01:34.998Z</time></trkpt><trkpt lat="44.47859798949425" lon="7.8824897033784405"><ele>326.0</ele><time>2026-04-03T12:01:35.998Z</time></trkpt><trkpt lat="44.47851449071245" lon="7.882421808269446"><ele>326.0</ele><time>2026-04-03T12:01:36.998Z</time></trkpt><trkpt lat="44.47842837198919" lon="7.882308475489963"><ele>323.25</ele><time>2026-04-03T12:01:37.998Z</time></trkpt><trkpt lat="44.478337198119355" lon="7.882191946099938"><ele>320.5</ele><time>2026-04-03T12:01:38.998Z</time></trkpt><trkpt lat="44.47823926578016" lon="7.88204679484225"><ele>317.75</ele><time>2026-04-03T12:01:39.998Z</time></trkpt><trkpt lat="44.478135199793996" lon="7.881930673677654"><ele>315.0</ele><time>2026-04-03T12:01:40.998Z</time></trkpt><trkpt lat="44.47801981225985" lon="7.881798993269354"><ele>314.5</ele><time>2026-04-03T12:01:41.998Z</time></trkpt><trkpt lat="44.47790087226501" lon="7.881670580075041"><ele>314.0</ele><time>2026-04-03T12:01:42.998Z</time></trkpt><trkpt lat="44.47782916200798" lon="7.8814912936337675"><ele>313.5</ele><time>2026-04-03T12:01:43.998Z</time></trkpt><trkpt lat="44.477759176333386" lon="7.881333261238945"><ele>313.0</ele><time>2026-04-03T12:01:44.998Z</time></trkpt><trkpt lat="44.47768697523544" lon="7.881197401629235"><ele>313.0</ele><time>2026-04-03T12:01:45.998Z</time></trkpt><trkpt lat="44.47766422365083" lon="7.88110241159002"><ele>313.0</ele><time>2026-04-03T12:01:46.998Z</time></trkpt><trkpt lat="44.47763254503228" lon="7.881018914279989"><ele>313.0</ele><time>2026-04-03T12:01:47.998Z</time></trkpt><trkpt lat="44.47761208676245" lon="7.880891649301264"><ele>313.0</ele><time>2026-04-03T12:01:49.998Z</time></trkpt><trkpt lat="44.47769849034865" lon="7.880836699168644"><ele>313.0</ele><time>2026-04-03T12:01:52Z</time></trkpt><trkpt lat="44.47772554420904" lon="7.8809655938776615"><ele>313.0</ele><time>2026-04-03T12:01:54Z</time></trkpt><trkpt lat="44.47776297816668" lon="7.881074033893816"><ele>313.0</ele><time>2026-04-03T12:01:55Z</time></trkpt><trkpt lat="44.47780305063723" lon="7.8811889567916245"><ele>313.0</ele><time>2026-04-03T12:01:56Z</time></trkpt><trkpt lat="44.47786094242114" lon="7.881321524854162"><ele>313.0</ele><time>2026-04-03T12:01:57Z</time></trkpt><trkpt lat="44.4779312099345" lon="7.881440614676625"><ele>313.0</ele><time>2026-04-03T12:01:58Z</time></trkpt><trkpt lat="44.478027784272605" lon="7.881556015169664"><ele>313.0</ele><time>2026-04-03T12:01:59Z</time></trkpt><trkpt lat="44.47814528010413" lon="7.881657553922976"><ele>313.5</ele><time>2026-04-03T12:02:00Z</time></trkpt><trkpt lat="44.47826416330268" lon="7.881731541123969"><ele>314.0</ele><time>2026-04-03T12:02:01Z</time></trkpt><trkpt lat="44.478383324159" lon="7.881825813287506"><ele>314.5</ele><time>2026-04-03T12:02:02Z</time></trkpt><trkpt lat="44.47847649708568" lon="7.881902299935571"><ele>315.0</ele><time>2026-04-03T12:02:03Z</time></trkpt><trkpt lat="44.47853649634059" lon="7.88198797792744"><ele>315.0</ele><time>2026-04-03T12:02:04Z</time></trkpt><trkpt lat="44.47863246762697" lon="7.882068004528384"><ele>315.0</ele><time>2026-04-03T12:02:06Z</time></trkpt><trkpt lat="44.478706324432984" lon="7.882074003573716"><ele>315.0</ele><time>2026-04-03T12:02:08Z</time></trkpt><trkpt lat="44.478726924260286" lon="7.881898863483469"><ele>315.0</ele><time>2026-04-03T12:02:10Z</time></trkpt><trkpt lat="44.47865721033001" lon="7.881826403648074"><ele>315.0</ele><time>2026-04-03T12:02:11Z</time></trkpt><trkpt lat="44.478585543446584" lon="7.8817772477605805"><ele>319.0</ele><time>2026-04-03T12:02:12Z</time></trkpt><trkpt lat="44.47850748880908" lon="7.881717510763291"><ele>323.0</ele><time>2026-04-03T12:02:13Z</time></trkpt><trkpt lat="44.478426801669684" lon="7.8816364854635195"><ele>327.0</ele><time>2026-04-03T12:02:14Z</time></trkpt><trkpt lat="44.47834082493222" lon="7.881538680172221"><ele>331.0</ele><time>2026-04-03T12:02:15Z</time></trkpt><trkpt lat="44.47825946540255" lon="7.881428024354579"><ele>335.0</ele><time>2026-04-03T12:02:16Z</time></trkpt><trkpt lat="44.47818006101564" lon="7.881301768657035"><ele>335.0</ele><time>2026-04-03T12:02:17Z</time></trkpt><trkpt lat="44.47812699115299" lon="7.8811770212805845"><ele>335.0</ele><time>2026-04-03T12:02:18Z</time></trkpt><trkpt lat="44.47808026545732" lon="7.881052754441843"><ele>335.0</ele><time>2026-04-03T12:02:19Z</time></trkpt><trkpt lat="44.47804438170601" lon="7.880923825267975"><ele>335.0</ele><time>2026-04-03T12:02:20Z</time></trkpt><trkpt lat="44.47801741072425" lon="7.880783866028728"><ele>335.0</ele><time>2026-04-03T12:02:21Z</time></trkpt><trkpt lat="44.47799963902952" lon="7.880645951066565"><ele>333.83333333333337</ele><time>2026-04-03T12:02:22Z</time></trkpt><trkpt lat="44.4779608868237" lon="7.880525301420631"><ele>332.6666666666667</ele><time>2026-04-03T12:02:23Z</time></trkpt><trkpt lat="44.47793382952579" lon="7.880412922321079"><ele>331.5</ele><time>2026-04-03T12:02:24Z</time></trkpt><trkpt lat="44.4779057584586" lon="7.88028869029391"><ele>330.3333333333333</ele><time>2026-04-03T12:02:25Z</time></trkpt><trkpt lat="44.4778942603213" lon="7.880189646733015"><ele>329.16666666666663</ele><time>2026-04-03T12:02:26Z</time></trkpt><trkpt lat="44.477895610497306" lon="7.880098711975213"><ele>328.0</ele><time>2026-04-03T12:02:27Z</time></trkpt><trkpt lat="44.47791719910001" lon="7.87995251584774"><ele>332.57142857142856</ele><time>2026-04-03T12:02:29Z</time></trkpt><trkpt lat="44.47794454251248" lon="7.879868154021889"><ele>337.1428571428571</ele><time>2026-04-03T12:02:30Z</time></trkpt><trkpt lat="44.477961013906736" lon="7.879772391974321"><ele>341.71428571428567</ele><time>2026-04-03T12:02:31Z</time></trkpt><trkpt lat="44.4779853874118" lon="7.879667413361436"><ele>346.2857142857143</ele><time>2026-04-03T12:02:32Z</time></trkpt><trkpt lat="44.477999049087074" lon="7.8795777230356325"><ele>350.8571428571429</ele><time>2026-04-03T12:02:33Z</time></trkpt><trkpt lat="44.478017650882386" lon="7.87947455260519"><ele>355.4285714285714</ele><time>2026-04-03T12:02:34Z</time></trkpt><trkpt lat="44.47802755022332" lon="7.879363012904489"><ele>360.0</ele><time>2026-04-03T12:02:34.999Z</time></trkpt><trkpt lat="44.4780262139521" lon="7.879273540089279"><ele>360.4</ele><time>2026-04-03T12:02:35.999Z</time></trkpt><trkpt lat="44.47802604660323" lon="7.879101705588858"><ele>360.8</ele><time>2026-04-03T12:02:37.999Z</time></trkpt><trkpt lat="44.47803453856024" lon="7.878975949387565"><ele>361.20000000000005</ele><time>2026-04-03T12:02:39.999Z</time></trkpt><trkpt lat="44.47807294397334" lon="7.878876070910706"><ele>361.6</ele><time>2026-04-03T12:02:41.999Z</time></trkpt><trkpt lat="44.47815123744358" lon="7.878799296813016"><ele>362.0</ele><time>2026-04-03T12:02:43.999Z</time></trkpt><trkpt lat="44.47822950041528" lon="7.878704825804797"><ele>362.0</ele><time>2026-04-03T12:02:45.999Z</time></trkpt><trkpt lat="44.47828984685052" lon="7.878647438699346"><ele>362.0</ele><time>2026-04-03T12:02:47.999Z</time></trkpt><trkpt lat="44.47826288825295" lon="7.878812133870399"><ele>362.0</ele><time>2026-04-03T12:02:53.999Z</time></trkpt><trkpt lat="44.47824182690137" lon="7.878990256336766"><ele>362.0</ele><time>2026-04-03T12:02:55.999Z</time></trkpt><trkpt lat="44.4782382144378" lon="7.879090917295659"><ele>362.0</ele><time>2026-04-03T12:02:56.999Z</time></trkpt><trkpt lat="44.47825582844522" lon="7.87920310674877"><ele>361.6</ele><time>2026-04-03T12:02:58.999Z</time></trkpt><trkpt lat="44.47829727557684" lon="7.87931895361635"><ele>361.20000000000005</ele><time>2026-04-03T12:03:00.999Z</time></trkpt><trkpt lat="44.478331527032346" lon="7.87943251730086"><ele>360.8</ele><time>2026-04-03T12:03:03.999Z</time></trkpt><trkpt lat="44.4784748114709" lon="7.879482978981065"><ele>360.4</ele><time>2026-04-03T12:03:04.999Z</time></trkpt><trkpt lat="44.47857970925793" lon="7.879496916674644"><ele>360.0</ele><time>2026-04-03T12:03:08.999Z</time></trkpt><trkpt lat="44.478624812282966" lon="7.8796788208203"><ele>360.0</ele><time>2026-04-03T12:03:12.999Z</time></trkpt><trkpt lat="44.47858858156149" lon="7.879895953318311"><ele>360.0</ele><time>2026-04-03T12:03:14.999Z</time></trkpt><trkpt lat="44.478585237089995" lon="7.879990544330762"><ele>360.0</ele><time>2026-04-03T12:03:17.999Z</time></trkpt><trkpt lat="44.47870545573661" lon="7.880074627013203"><ele>360.0</ele><time>2026-04-03T12:03:19.999Z</time></trkpt><trkpt lat="44.47880247346204" lon="7.880104907572504"><ele>359.0</ele><time>2026-04-03T12:03:20.999Z</time></trkpt><trkpt lat="44.478863652797" lon="7.88015898688021"><ele>358.0</ele><time>2026-04-03T12:03:21.999Z</time></trkpt><trkpt lat="44.47912794937469" lon="7.8802083741788085"><ele>357.0</ele><time>2026-04-03T12:03:22.999Z</time></trkpt><trkpt lat="44.47921998690785" lon="7.880191554399212"><ele>356.0</ele><time>2026-04-03T12:03:23.999Z</time></trkpt><trkpt lat="44.479297749323486" lon="7.880137464644565"><ele>356.6</ele><time>2026-04-03T12:03:24.999Z</time></trkpt><trkpt lat="44.47937842646917" lon="7.879990955823148"><ele>357.20000000000005</ele><time>2026-04-03T12:03:25.999Z</time></trkpt><trkpt lat="44.47944031057808" lon="7.87984133633753"><ele>357.79999999999995</ele><time>2026-04-03T12:03:28.999Z</time></trkpt><trkpt lat="44.47948406059885" lon="7.8797598948416026"><ele>358.4</ele><time>2026-04-03T12:03:29.999Z</time></trkpt><trkpt lat="44.47954565699734" lon="7.879627327999024"><ele>359.0</ele><time>2026-04-03T12:03:30.999Z</time></trkpt><trkpt lat="44.479606369372064" lon="7.8795499854796"><ele>359.0</ele><time>2026-04-03T12:03:33.998Z</time></trkpt><trkpt lat="44.47967714284071" lon="7.879525873787347"><ele>359.0</ele><time>2026-04-03T12:03:35.998Z</time></trkpt><trkpt lat="44.479745581846515" lon="7.879481071660859"><ele>359.0</ele><time>2026-04-03T12:03:36.998Z</time></trkpt><trkpt lat="44.47982015554721" lon="7.879429310590646"><ele>359.0</ele><time>2026-04-03T12:03:38.998Z</time></trkpt><trkpt lat="44.479947130474216" lon="7.879341177576391"><ele>359.0</ele><time>2026-04-03T12:03:40.998Z</time></trkpt><trkpt lat="44.48002939679009" lon="7.8792866043807495"><ele>359.2</ele><time>2026-04-03T12:03:41.998Z</time></trkpt><trkpt lat="44.48011529834635" lon="7.879262161654915"><ele>359.4</ele><time>2026-04-03T12:03:43.998Z</time></trkpt><trkpt lat="44.480177402993235" lon="7.879240751793714"><ele>359.6</ele><time>2026-04-03T12:03:50.998Z</time></trkpt><trkpt lat="44.4801018838235" lon="7.879056939082414"><ele>359.8</ele><time>2026-04-03T12:03:52.998Z</time></trkpt><trkpt lat="44.48005013228779" lon="7.878961421641393"><ele>360.0</ele><time>2026-04-03T12:03:53.998Z</time></trkpt><trkpt lat="44.480017798432826" lon="7.878840161466297"><ele>360.0</ele><time>2026-04-03T12:03:54.998Z</time></trkpt><trkpt lat="44.47997224272244" lon="7.878708752421621"><ele>360.0</ele><time>2026-04-03T12:03:55.998Z</time></trkpt><trkpt lat="44.479929769501226" lon="7.878550854121634"><ele>360.0</ele><time>2026-04-03T12:03:56.998Z</time></trkpt><trkpt lat="44.4798770792755" lon="7.878390481803578"><ele>360.0</ele><time>2026-04-03T12:03:58Z</time></trkpt><trkpt lat="44.47982191120424" lon="7.878257812278508"><ele>360.2</ele><time>2026-04-03T12:03:59Z</time></trkpt><trkpt lat="44.47976124421946" lon="7.878149497687924"><ele>360.4</ele><time>2026-04-03T12:04:00Z</time></trkpt><trkpt lat="44.47971694568499" lon="7.877993954834891"><ele>360.6</ele><time>2026-04-03T12:04:01Z</time></trkpt><trkpt lat="44.479663862521505" lon="7.8778413090789785"><ele>360.8</ele><time>2026-04-03T12:04:02Z</time></trkpt><trkpt lat="44.47962046013206" lon="7.877721001398498"><ele>361.0</ele><time>2026-04-03T12:04:03Z</time></trkpt><trkpt lat="44.4795838072213" lon="7.877595542832546"><ele>361.6</ele><time>2026-04-03T12:04:04Z</time></trkpt><trkpt lat="44.479562476947706" lon="7.877472629749252"><ele>362.20000000000005</ele><time>2026-04-03T12:04:05Z</time></trkpt><trkpt lat="44.4795388499311" lon="7.877359856108926"><ele>362.79999999999995</ele><time>2026-04-03T12:04:06Z</time></trkpt><trkpt lat="44.47952931112861" lon="7.877210631186061"><ele>363.4</ele><time>2026-04-03T12:04:07Z</time></trkpt><trkpt lat="44.47950010885734" lon="7.8770486023175526"><ele>364.0</ele><time>2026-04-03T12:04:08Z</time></trkpt><trkpt lat="44.47948749447956" lon="7.876928136701959"><ele>364.0</ele><time>2026-04-03T12:04:09Z</time></trkpt><trkpt lat="44.479479423347385" lon="7.876813690903013"><ele>364.0</ele><time>2026-04-03T12:04:10Z</time></trkpt><trkpt lat="44.479472995859" lon="7.8767147389326055"><ele>364.0</ele><time>2026-04-03T12:04:11Z</time></trkpt><trkpt lat="44.479469007784644" lon="7.876619467093553"><ele>364.0</ele><time>2026-04-03T12:04:12Z</time></trkpt><trkpt lat="44.47946504769485" lon="7.876518600437872"><ele>364.0</ele><time>2026-04-03T12:04:13Z</time></trkpt><trkpt lat="44.47946484438219" lon="7.87640510002064"><ele>364.0</ele><time>2026-04-03T12:04:15Z</time></trkpt><trkpt lat="44.47946542257612" lon="7.876210537441631"><ele>363.4</ele><time>2026-04-03T12:04:17Z</time></trkpt><trkpt lat="44.47945702111165" lon="7.876078157862817"><ele>362.79999999999995</ele><time>2026-04-03T12:04:18Z</time></trkpt><trkpt lat="44.47947826450488" lon="7.8759378389531545"><ele>362.20000000000005</ele><time>2026-04-03T12:04:19Z</time></trkpt><trkpt lat="44.479486641300724" lon="7.875765227513988"><ele>361.6</ele><time>2026-04-03T12:04:20Z</time></trkpt><trkpt lat="44.4794979198947" lon="7.8756012151782775"><ele>361.0</ele><time>2026-04-03T12:04:21Z</time></trkpt><trkpt lat="44.479487120823045" lon="7.875460009466511"><ele>361.0</ele><time>2026-04-03T12:04:22Z</time></trkpt><trkpt lat="44.479492273586885" lon="7.875328061935934"><ele>361.0</ele><time>2026-04-03T12:04:23Z</time></trkpt><trkpt lat="44.47949485272003" lon="7.875184264312249"><ele>361.0</ele><time>2026-04-03T12:04:24Z</time></trkpt><trkpt lat="44.47949449448446" lon="7.875054153320941"><ele>361.0</ele><time>2026-04-03T12:04:25Z</time></trkpt><trkpt lat="44.479494062751996" lon="7.87492308354548"><ele>361.0</ele><time>2026-04-03T12:04:26Z</time></trkpt><trkpt lat="44.4794815365504" lon="7.874775148419353"><ele>361.0</ele><time>2026-04-03T12:04:27Z</time></trkpt><trkpt lat="44.47946353600808" lon="7.874605154959828"><ele>361.0</ele><time>2026-04-03T12:04:28Z</time></trkpt><trkpt lat="44.479432991383305" lon="7.874440504619158"><ele>361.0</ele><time>2026-04-03T12:04:29Z</time></trkpt><trkpt lat="44.47942203399585" lon="7.874294777230862"><ele>361.0</ele><time>2026-04-03T12:04:30Z</time></trkpt><trkpt lat="44.479432927497385" lon="7.874114209544528"><ele>361.25</ele><time>2026-04-03T12:04:31Z</time></trkpt><trkpt lat="44.47939743103469" lon="7.873935318039236"><ele>361.5</ele><time>2026-04-03T12:04:32Z</time></trkpt><trkpt lat="44.479383686852266" lon="7.873769168280998"><ele>361.75</ele><time>2026-04-03T12:04:33Z</time></trkpt><trkpt lat="44.47933485934704" lon="7.873608739943399"><ele>362.0</ele><time>2026-04-03T12:04:34Z</time></trkpt><trkpt lat="44.47928376254184" lon="7.873473974565438"><ele>362.33333333333337</ele><time>2026-04-03T12:04:35Z</time></trkpt><trkpt lat="44.47923953909469" lon="7.873347896122996"><ele>362.6666666666667</ele><time>2026-04-03T12:04:36Z</time></trkpt><trkpt lat="44.479202212580546" lon="7.87322220632429"><ele>363.0</ele><time>2026-04-03T12:04:37Z</time></trkpt><trkpt lat="44.47916454960556" lon="7.873104107546006"><ele>363.3333333333333</ele><time>2026-04-03T12:04:38Z</time></trkpt><trkpt lat="44.4791326779352" lon="7.873002200976671"><ele>363.66666666666663</ele><time>2026-04-03T12:04:39Z</time></trkpt><trkpt lat="44.47910666266999" lon="7.872909900008325"><ele>364.0</ele><time>2026-04-03T12:04:39.999Z</time></trkpt><trkpt lat="44.47907802937543" lon="7.872818909039686"><ele>364.0</ele><time>2026-04-03T12:04:40.999Z</time></trkpt><trkpt lat="44.47904912944043" lon="7.872723427858775"><ele>364.0</ele><time>2026-04-03T12:04:41.999Z</time></trkpt><trkpt lat="44.479015858369195" lon="7.872606560217446"><ele>364.0</ele><time>2026-04-03T12:04:42.999Z</time></trkpt><trkpt lat="44.47896572559323" lon="7.872456456180841"><ele>364.0</ele><time>2026-04-03T12:04:43.999Z</time></trkpt><trkpt lat="44.47892442924948" lon="7.872315848925677"><ele>364.0</ele><time>2026-04-03T12:04:44.999Z</time></trkpt><trkpt lat="44.478874611109454" lon="7.872154974564909"><ele>364.0</ele><time>2026-04-03T12:04:45.999Z</time></trkpt><trkpt lat="44.47882987844103" lon="7.872004200725909"><ele>364.0</ele><time>2026-04-03T12:04:46.999Z</time></trkpt><trkpt lat="44.47879124571781" lon="7.871865361759224"><ele>364.0</ele><time>2026-04-03T12:04:47.999Z</time></trkpt><trkpt lat="44.478753410776285" lon="7.871739026039012"><ele>364.0</ele><time>2026-04-03T12:04:48.999Z</time></trkpt><trkpt lat="44.47871193866135" lon="7.871615566423267"><ele>364.0</ele><time>2026-04-03T12:04:49.999Z</time></trkpt><trkpt lat="44.478675846405174" lon="7.8714912774094925"><ele>364.0</ele><time>2026-04-03T12:04:50.999Z</time></trkpt><trkpt lat="44.47864330008113" lon="7.871377300363932"><ele>364.0</ele><time>2026-04-03T12:04:51.999Z</time></trkpt><trkpt lat="44.47861375304459" lon="7.871256909164463"><ele>364.0</ele><time>2026-04-03T12:04:52.999Z</time></trkpt><trkpt lat="44.47857670797904" lon="7.871155183985443"><ele>364.0</ele><time>2026-04-03T12:04:53.999Z</time></trkpt><trkpt lat="44.47855668093012" lon="7.871055365394736"><ele>364.0</ele><time>2026-04-03T12:04:54.999Z</time></trkpt><trkpt lat="44.47855617914805" lon="7.870951871268999"><ele>364.0</ele><time>2026-04-03T12:04:55.999Z</time></trkpt><trkpt lat="44.478520820071935" lon="7.870870396498952"><ele>363.75</ele><time>2026-04-03T12:04:56.999Z</time></trkpt><trkpt lat="44.47865584922773" lon="7.870727926142391"><ele>363.5</ele><time>2026-04-03T12:04:57.999Z</time></trkpt><trkpt lat="44.47872618592346" lon="7.870591759867645"><ele>363.25</ele><time>2026-04-03T12:04:58.999Z</time></trkpt><trkpt lat="44.47878184270549" lon="7.870478176693754"><ele>363.0</ele><time>2026-04-03T12:04:59.999Z</time></trkpt><trkpt lat="44.478828855344844" lon="7.87038274803596"><ele>363.0</ele><time>2026-04-03T12:05:00.999Z</time></trkpt><trkpt lat="44.478876285579304" lon="7.870287308957939"><ele>363.0</ele><time>2026-04-03T12:05:01.999Z</time></trkpt><trkpt lat="44.47890360390303" lon="7.870195892730576"><ele>363.0</ele><time>2026-04-03T12:05:02.999Z</time></trkpt><trkpt lat="44.4789445857557" lon="7.870112248200963"><ele>363.0</ele><time>2026-04-03T12:05:03.999Z</time></trkpt><trkpt lat="44.47901030379174" lon="7.869978230116694"><ele>363.0</ele><time>2026-04-03T12:05:05.999Z</time></trkpt><trkpt lat="44.47905230502704" lon="7.869904987391618"><ele>363.0</ele><time>2026-04-03T12:05:07.999Z</time></trkpt><trkpt lat="44.47916515648792" lon="7.869986280601427"><ele>363.0</ele><time>2026-04-03T12:05:11.999Z</time></trkpt><trkpt lat="44.4792345424083" lon="7.870037803892759"><ele>363.0</ele><time>2026-04-03T12:05:12.999Z</time></trkpt><trkpt lat="44.479312917324215" lon="7.870119260315597"><ele>363.0</ele><time>2026-04-03T12:05:13.999Z</time></trkpt><trkpt lat="44.47939272263104" lon="7.870220573376257"><ele>363.0</ele><time>2026-04-03T12:05:14.999Z</time></trkpt><trkpt lat="44.47947599072518" lon="7.870302516990029"><ele>363.0</ele><time>2026-04-03T12:05:15.999Z</time></trkpt><trkpt lat="44.47956225722868" lon="7.8703822536952055"><ele>363.0</ele><time>2026-04-03T12:05:16.999Z</time></trkpt><trkpt lat="44.47965746370334" lon="7.8704758771602075"><ele>363.0</ele><time>2026-04-03T12:05:17.999Z</time></trkpt><trkpt lat="44.47974811496391" lon="7.870554032910272"><ele>363.0</ele><time>2026-04-03T12:05:18.999Z</time></trkpt><trkpt lat="44.47983292010208" lon="7.8706344595427495"><ele>363.0</ele><time>2026-04-03T12:05:19.999Z</time></trkpt><trkpt lat="44.47990779248662" lon="7.8707161607543705"><ele>363.0</ele><time>2026-04-03T12:05:20.999Z</time></trkpt><trkpt lat="44.47998723947703" lon="7.870808818369401"><ele>363.0</ele><time>2026-04-03T12:05:21.999Z</time></trkpt><trkpt lat="44.48006847926312" lon="7.870886217598687"><ele>363.0</ele><time>2026-04-03T12:05:22.999Z</time></trkpt><trkpt lat="44.48015016105472" lon="7.87096584602318"><ele>363.0</ele><time>2026-04-03T12:05:23.999Z</time></trkpt><trkpt lat="44.48023543962987" lon="7.8710512056998585"><ele>363.0</ele><time>2026-04-03T12:05:24.999Z</time></trkpt><trkpt lat="44.48031481363029" lon="7.8711257652235584"><ele>363.0</ele><time>2026-04-03T12:05:25.999Z</time></trkpt><trkpt lat="44.48040662977239" lon="7.871223742617527"><ele>363.0</ele><time>2026-04-03T12:05:26.999Z</time></trkpt><trkpt lat="44.4804877724228" lon="7.871353972457801"><ele>363.0</ele><time>2026-04-03T12:05:27.999Z</time></trkpt><trkpt lat="44.48056786382261" lon="7.87151816417846"><ele>363.0</ele><time>2026-04-03T12:05:28.999Z</time></trkpt><trkpt lat="44.4806195155714" lon="7.871674663995699"><ele>363.0</ele><time>2026-04-03T12:05:29.999Z</time></trkpt><trkpt lat="44.480684597554855" lon="7.871806977255908"><ele>363.0</ele><time>2026-04-03T12:05:30.999Z</time></trkpt><trkpt lat="44.480728414954" lon="7.871921469883976"><ele>363.0</ele><time>2026-04-03T12:05:31.999Z</time></trkpt><trkpt lat="44.48076935048552" lon="7.87204598530257"><ele>363.0</ele><time>2026-04-03T12:05:33.999Z</time></trkpt><trkpt lat="44.4807709489933" lon="7.8721680921892645"><ele>363.0</ele><time>2026-04-03T12:05:35.999Z</time></trkpt><trkpt lat="44.480659387683524" lon="7.872255643339848"><ele>363.0</ele><time>2026-04-03T12:05:37.998Z</time></trkpt><trkpt lat="44.480568802377014" lon="7.8723100685244525"><ele>363.0</ele><time>2026-04-03T12:05:38.998Z</time></trkpt><trkpt lat="44.48046508444866" lon="7.872368260194227"><ele>363.0</ele><time>2026-04-03T12:05:39.998Z</time></trkpt><trkpt lat="44.48037363214348" lon="7.872412369982408"><ele>363.0</ele><time>2026-04-03T12:05:40.998Z</time></trkpt><trkpt lat="44.48029815512148" lon="7.872446780110387"><ele>363.0</ele><time>2026-04-03T12:05:41.998Z</time></trkpt><trkpt lat="44.48021460428531" lon="7.872480577646289"><ele>363.0</ele><time>2026-04-03T12:05:42.998Z</time></trkpt><trkpt lat="44.48011488878511" lon="7.872510795904044"><ele>363.0</ele><time>2026-04-03T12:05:43.998Z</time></trkpt><trkpt lat="44.48003131283959" lon="7.872529995631261"><ele>363.0</ele><time>2026-04-03T12:05:44.998Z</time></trkpt><trkpt lat="44.47995174034501" lon="7.872553748883034"><ele>363.0</ele><time>2026-04-03T12:05:45.998Z</time></trkpt><trkpt lat="44.47988198476929" lon="7.87256367631701"><ele>363.0</ele><time>2026-04-03T12:05:46.998Z</time></trkpt><trkpt lat="44.47981260590806" lon="7.87257947210501"><ele>363.0</ele><time>2026-04-03T12:05:47.998Z</time></trkpt><trkpt lat="44.479702672125676" lon="7.872601006243832"><ele>363.0</ele><time>2026-04-03T12:05:49.998Z</time></trkpt><trkpt lat="44.479599846224055" lon="7.872635980339397"><ele>363.2</ele><time>2026-04-03T12:05:51.998Z</time></trkpt><trkpt lat="44.47951398443202" lon="7.872646838928562"><ele>363.4</ele><time>2026-04-03T12:05:53.998Z</time></trkpt><trkpt lat="44.47945324232424" lon="7.872670103197837"><ele>363.59999999999997</ele><time>2026-04-03T12:05:56.998Z</time></trkpt><trkpt lat="44.47953204775762" lon="7.872918851871477"><ele>363.79999999999995</ele><time>2026-04-03T12:06:35Z</time></trkpt><trkpt lat="44.479578584999054" lon="7.873004103400315"><ele>364.0</ele><time>2026-04-03T12:06:39.012Z</time></trkpt><trkpt lat="44.47951363351452" lon="7.873316372348947"><ele>364.0</ele><time>2026-04-03T12:07:56.017Z</time></trkpt><trkpt lat="44.479478769842" lon="7.873033657276464"><ele>364.0</ele><time>2026-04-03T12:07:57.998Z</time></trkpt><trkpt lat="44.47954619354542" lon="7.872998754038912"><ele>364.0</ele><time>2026-04-03T12:08:00.998Z</time></trkpt><trkpt lat="44.47952563211893" lon="7.8728384289039495"><ele>364.0</ele><time>2026-04-03T12:08:05.998Z</time></trkpt><trkpt lat="44.47953738873582" lon="7.87274590869848"><ele>363.66666666666663</ele><time>2026-04-03T12:08:10Z</time></trkpt><trkpt lat="44.47961105300685" lon="7.872737229238217"><ele>363.3333333333333</ele><time>2026-04-03T12:08:17Z</time></trkpt><trkpt lat="44.479704322900005" lon="7.872913336274632"><ele>363.0</ele><time>2026-04-03T12:09:30.999Z</time></trkpt><trkpt lat="44.479924942111914" lon="7.8729758894700055"><ele>363.0</ele><time>2026-04-03T12:09:31.999Z</time></trkpt><trkpt lat="44.479853969755" lon="7.872882622470601"><ele>363.0</ele><time>2026-04-03T12:10:10.998Z</time></trkpt><trkpt lat="44.479786049574734" lon="7.872901040132147"><ele>363.0</ele><time>2026-04-03T12:10:17Z</time></trkpt><trkpt lat="44.47971960833954" lon="7.872822292926969"><ele>363.0</ele><time>2026-04-03T12:10:21Z</time></trkpt><trkpt lat="44.479778136310344" lon="7.872747150197897"><ele>363.0</ele><time>2026-04-03T12:16:01.999Z</time></trkpt><trkpt lat="44.47982584287853" lon="7.872673300623931"><ele>363.0</ele><time>2026-04-03T12:16:08.999Z</time></trkpt><trkpt lat="44.47985342983611" lon="7.872590631474702"><ele>363.0</ele><time>2026-04-03T12:16:13.998Z</time></trkpt><trkpt lat="44.47983600507886" lon="7.872686707148579"><ele>363.0</ele><time>2026-04-03T12:18:42Z</time></trkpt><trkpt lat="44.47979722992798" lon="7.87276642075616"><ele>363.0</ele><time>2026-04-03T12:18:43Z</time></trkpt><trkpt lat="44.479691474740164" lon="7.872987203307332"><ele>363.0</ele><time>2026-04-03T12:18:56Z</time></trkpt><trkpt lat="44.47978467924188" lon="7.872759200672887"><ele>363.0</ele><time>2026-04-03T12:19:00Z</time></trkpt><trkpt lat="44.47976784068203" lon="7.872845720869708"><ele>363.0</ele><time>2026-04-03T12:19:09Z</time></trkpt><trkpt lat="44.4796872840671" lon="7.872908177945827"><ele>363.0</ele><time>2026-04-03T12:19:30.999Z</time></trkpt><trkpt lat="44.47962321475233" lon="7.8729358608168285"><ele>363.0</ele><time>2026-04-03T12:19:34.999Z</time></trkpt><trkpt lat="44.4796511649787" lon="7.872809453514205"><ele>363.0</ele><time>2026-04-03T12:19:41.999Z</time></trkpt><trkpt lat="44.479722609412725" lon="7.872727973207101"><ele>363.0</ele><time>2026-04-03T12:19:42.999Z</time></trkpt><trkpt lat="44.47976922903879" lon="7.872632746128387"><ele>363.0</ele><time>2026-04-03T12:19:43.999Z</time></trkpt><trkpt lat="44.47974565006091" lon="7.87271559988461"><ele>363.0</ele><time>2026-04-03T12:20:30.999Z</time></trkpt><trkpt lat="44.47976233226036" lon="7.872826083070307"><ele>363.0</ele><time>2026-04-03T12:20:44.998Z</time></trkpt><trkpt lat="44.47966972949788" lon="7.872856739213432"><ele>363.0</ele><time>2026-04-03T12:24:00.999Z</time></trkpt><trkpt lat="44.4797185871015" lon="7.872918517139883"><ele>363.0</ele><time>2026-04-03T12:24:11.999Z</time></trkpt><trkpt lat="44.479762931722234" lon="7.872996996960609"><ele>363.0</ele><time>2026-04-03T12:24:45.998Z</time></trkpt><trkpt lat="44.47975651616472" lon="7.872812604224571"><ele>362.0</ele><time>2026-04-03T12:25:06Z</time></trkpt><trkpt lat="44.47936042374886" lon="7.873537358212102"><ele>364.0</ele><time>2026-04-03T12:25:25Z</time></trkpt><trkpt lat="44.479496701701805" lon="7.8728965446786905"><ele>363.79999999999995</ele><time>2026-04-03T12:25:28Z</time></trkpt><trkpt lat="44.4796069722247" lon="7.87295847225165"><ele>363.59999999999997</ele><time>2026-04-03T12:25:30Z</time></trkpt><trkpt lat="44.47971622180879" lon="7.8729969487628795"><ele>363.4</ele><time>2026-04-03T12:25:34Z</time></trkpt><trkpt lat="44.47970797695353" lon="7.8729035792751745"><ele>363.2</ele><time>2026-04-03T12:25:55.999Z</time></trkpt><trkpt lat="44.4796454774329" lon="7.872891323899025"><ele>363.0</ele><time>2026-04-03T12:26:05.999Z</time></trkpt><trkpt lat="44.47963758357319" lon="7.872620821697545"><ele>363.0</ele><time>2026-04-03T12:26:26.999Z</time></trkpt><trkpt lat="44.47968627533074" lon="7.872800657001174"><ele>363.0</ele><time>2026-04-03T12:26:45.999Z</time></trkpt></trkseg></trk></gpx>